<?xml version="1.0" encoding="UTF-8" standalone="no" ?>
<gpx xmlns="http://www.topografix.com/GPX/1/1" xmlns:xsi="http://www.w3.org/2001/XMLSchema-instance" xsi:schemaLocation="http://www.topografix.com/GPX/1/1 http://www.topografix.com/GPX/1/1/gpx.xsd" version="1.1" creator="VisuGPX - https://www.visugpx.com">
  <metadata>
    <name>De Foncine-le-Haut vers les Rousses par GTJ le 9 mai 2013</name>
    <desc><![CDATA[Départ de chez Valentin à Foncine-le-Haut, puis par GTJ vers les Rousses, par Chapelle-des-Bois, demi-tour à mi-parcours pour bifurquer vers Bellefontaine ( 1 mètres de neige, 2 heures de marche, conditions difficiles )retour vers Foncine-le-Haut pour faire le circuit vtt n° 5 L\\\'Encensement, le Paradis 21kms, 520 m dénivelé ]]></desc>
  </metadata>
  <trk>
    <name><![CDATA[Auto 09-MAI-13 09:42:27]]></name>
    <trkseg>
      <trkpt lat="46.64579" lon="6.0811">
        <ele>1020.58</ele>
        <time>2013-05-09T07:42:27Z</time>
      </trkpt>
      <trkpt lat="46.64579" lon="6.0811">
        <ele>1020.58</ele>
        <time>2013-05-09T07:42:54Z</time>
      </trkpt>
      <trkpt lat="46.64579" lon="6.0811">
        <ele>1020.58</ele>
        <time>2013-05-09T07:43:15Z</time>
      </trkpt>
      <trkpt lat="46.64579" lon="6.08111">
        <ele>1020.58</ele>
        <time>2013-05-09T07:43:47Z</time>
      </trkpt>
      <trkpt lat="46.64579" lon="6.08111">
        <ele>1021.06</ele>
        <time>2013-05-09T07:44:18Z</time>
      </trkpt>
      <trkpt lat="46.64579" lon="6.08111">
        <ele>1021.06</ele>
        <time>2013-05-09T07:44:35Z</time>
      </trkpt>
      <trkpt lat="46.64579" lon="6.08111">
        <ele>1021.06</ele>
        <time>2013-05-09T07:45:02Z</time>
      </trkpt>
      <trkpt lat="46.6458" lon="6.08113">
        <ele>1021.06</ele>
        <time>2013-05-09T07:45:08Z</time>
      </trkpt>
      <trkpt lat="46.6458" lon="6.08114">
        <ele>1021.06</ele>
        <time>2013-05-09T07:45:09Z</time>
      </trkpt>
      <trkpt lat="46.6458" lon="6.0812">
        <ele>1021.54</ele>
        <time>2013-05-09T07:45:12Z</time>
      </trkpt>
      <trkpt lat="46.64557" lon="6.08161">
        <ele>1022.98</ele>
        <time>2013-05-09T07:45:28Z</time>
      </trkpt>
      <trkpt lat="46.64536" lon="6.08176">
        <ele>1023.94</ele>
        <time>2013-05-09T07:45:40Z</time>
      </trkpt>
      <trkpt lat="46.645" lon="6.08158">
        <ele>1024.42</ele>
        <time>2013-05-09T07:45:54Z</time>
      </trkpt>
      <trkpt lat="46.64466" lon="6.08134">
        <ele>1024.42</ele>
        <time>2013-05-09T07:46:06Z</time>
      </trkpt>
      <trkpt lat="46.64425" lon="6.08104">
        <ele>1024.9</ele>
        <time>2013-05-09T07:46:21Z</time>
      </trkpt>
      <trkpt lat="46.64422" lon="6.08102">
        <ele>1024.9</ele>
        <time>2013-05-09T07:46:22Z</time>
      </trkpt>
      <trkpt lat="46.64381" lon="6.08052">
        <ele>1025.86</ele>
        <time>2013-05-09T07:46:39Z</time>
      </trkpt>
      <trkpt lat="46.64359" lon="6.0801">
        <ele>1025.38</ele>
        <time>2013-05-09T07:46:51Z</time>
      </trkpt>
      <trkpt lat="46.64341" lon="6.07974">
        <ele>1025.86</ele>
        <time>2013-05-09T07:47:01Z</time>
      </trkpt>
      <trkpt lat="46.64316" lon="6.07937">
        <ele>1025.86</ele>
        <time>2013-05-09T07:47:12Z</time>
      </trkpt>
      <trkpt lat="46.6429" lon="6.07905">
        <ele>1026.34</ele>
        <time>2013-05-09T07:47:23Z</time>
      </trkpt>
      <trkpt lat="46.64256" lon="6.07856">
        <ele>1026.83</ele>
        <time>2013-05-09T07:47:38Z</time>
      </trkpt>
      <trkpt lat="46.64237" lon="6.07804">
        <ele>1026.83</ele>
        <time>2013-05-09T07:47:50Z</time>
      </trkpt>
      <trkpt lat="46.64214" lon="6.07763">
        <ele>1026.34</ele>
        <time>2013-05-09T07:48:01Z</time>
      </trkpt>
      <trkpt lat="46.64196" lon="6.07713">
        <ele>1026.83</ele>
        <time>2013-05-09T07:48:13Z</time>
      </trkpt>
      <trkpt lat="46.64173" lon="6.07669">
        <ele>1026.83</ele>
        <time>2013-05-09T07:48:25Z</time>
      </trkpt>
      <trkpt lat="46.64144" lon="6.07631">
        <ele>1028.27</ele>
        <time>2013-05-09T07:48:38Z</time>
      </trkpt>
      <trkpt lat="46.6412" lon="6.07606">
        <ele>1027.79</ele>
        <time>2013-05-09T07:48:48Z</time>
      </trkpt>
      <trkpt lat="46.64095" lon="6.07579">
        <ele>1028.27</ele>
        <time>2013-05-09T07:48:58Z</time>
      </trkpt>
      <trkpt lat="46.64068" lon="6.07552">
        <ele>1028.27</ele>
        <time>2013-05-09T07:49:09Z</time>
      </trkpt>
      <trkpt lat="46.64038" lon="6.07524">
        <ele>1028.75</ele>
        <time>2013-05-09T07:49:21Z</time>
      </trkpt>
      <trkpt lat="46.64015" lon="6.07503">
        <ele>1029.71</ele>
        <time>2013-05-09T07:49:30Z</time>
      </trkpt>
      <trkpt lat="46.63983" lon="6.0748">
        <ele>1029.71</ele>
        <time>2013-05-09T07:49:41Z</time>
      </trkpt>
      <trkpt lat="46.63945" lon="6.07477">
        <ele>1030.19</ele>
        <time>2013-05-09T07:49:53Z</time>
      </trkpt>
      <trkpt lat="46.6392" lon="6.07509">
        <ele>1029.71</ele>
        <time>2013-05-09T07:50:04Z</time>
      </trkpt>
      <trkpt lat="46.63913" lon="6.07517">
        <ele>1028.75</ele>
        <time>2013-05-09T07:50:06Z</time>
      </trkpt>
      <trkpt lat="46.63909" lon="6.0752">
        <ele>1028.27</ele>
        <time>2013-05-09T07:50:07Z</time>
      </trkpt>
      <trkpt lat="46.63903" lon="6.07522">
        <ele>1028.27</ele>
        <time>2013-05-09T07:50:08Z</time>
      </trkpt>
      <trkpt lat="46.63898" lon="6.07521">
        <ele>1027.79</ele>
        <time>2013-05-09T07:50:09Z</time>
      </trkpt>
      <trkpt lat="46.63894" lon="6.07518">
        <ele>1027.79</ele>
        <time>2013-05-09T07:50:10Z</time>
      </trkpt>
      <trkpt lat="46.6389" lon="6.07514">
        <ele>1027.79</ele>
        <time>2013-05-09T07:50:11Z</time>
      </trkpt>
      <trkpt lat="46.63887" lon="6.0751">
        <ele>1028.27</ele>
        <time>2013-05-09T07:50:12Z</time>
      </trkpt>
      <trkpt lat="46.63861" lon="6.07474">
        <ele>1029.71</ele>
        <time>2013-05-09T07:50:22Z</time>
      </trkpt>
      <trkpt lat="46.63853" lon="6.07459">
        <ele>1030.67</ele>
        <time>2013-05-09T07:50:28Z</time>
      </trkpt>
      <trkpt lat="46.63852" lon="6.07457">
        <ele>1030.67</ele>
        <time>2013-05-09T07:50:29Z</time>
      </trkpt>
      <trkpt lat="46.63852" lon="6.07455">
        <ele>1031.15</ele>
        <time>2013-05-09T07:50:30Z</time>
      </trkpt>
      <trkpt lat="46.63851" lon="6.07452">
        <ele>1031.15</ele>
        <time>2013-05-09T07:50:31Z</time>
      </trkpt>
      <trkpt lat="46.6385" lon="6.07449">
        <ele>1031.15</ele>
        <time>2013-05-09T07:50:32Z</time>
      </trkpt>
      <trkpt lat="46.63849" lon="6.07445">
        <ele>1031.63</ele>
        <time>2013-05-09T07:50:33Z</time>
      </trkpt>
      <trkpt lat="46.63849" lon="6.07441">
        <ele>1031.63</ele>
        <time>2013-05-09T07:50:34Z</time>
      </trkpt>
      <trkpt lat="46.63848" lon="6.07438">
        <ele>1031.63</ele>
        <time>2013-05-09T07:50:35Z</time>
      </trkpt>
      <trkpt lat="46.63847" lon="6.07431">
        <ele>1032.11</ele>
        <time>2013-05-09T07:50:37Z</time>
      </trkpt>
      <trkpt lat="46.63847" lon="6.07427">
        <ele>1032.11</ele>
        <time>2013-05-09T07:50:38Z</time>
      </trkpt>
      <trkpt lat="46.63847" lon="6.07423">
        <ele>1033.55</ele>
        <time>2013-05-09T07:50:39Z</time>
      </trkpt>
      <trkpt lat="46.63847" lon="6.0742">
        <ele>1032.59</ele>
        <time>2013-05-09T07:50:40Z</time>
      </trkpt>
      <trkpt lat="46.63846" lon="6.07417">
        <ele>1032.59</ele>
        <time>2013-05-09T07:50:41Z</time>
      </trkpt>
      <trkpt lat="46.63828" lon="6.07382">
        <ele>1034.52</ele>
        <time>2013-05-09T07:50:52Z</time>
      </trkpt>
      <trkpt lat="46.63819" lon="6.07359">
        <ele>1035.96</ele>
        <time>2013-05-09T07:50:57Z</time>
      </trkpt>
      <trkpt lat="46.6382" lon="6.07355">
        <ele>1035.96</ele>
        <time>2013-05-09T07:50:58Z</time>
      </trkpt>
      <trkpt lat="46.6382" lon="6.07352">
        <ele>1036.44</ele>
        <time>2013-05-09T07:50:59Z</time>
      </trkpt>
      <trkpt lat="46.63821" lon="6.07348">
        <ele>1036.44</ele>
        <time>2013-05-09T07:51:00Z</time>
      </trkpt>
      <trkpt lat="46.63821" lon="6.07344">
        <ele>1036.92</ele>
        <time>2013-05-09T07:51:01Z</time>
      </trkpt>
      <trkpt lat="46.63822" lon="6.0734">
        <ele>1036.92</ele>
        <time>2013-05-09T07:51:02Z</time>
      </trkpt>
      <trkpt lat="46.63822" lon="6.07338">
        <ele>1036.92</ele>
        <time>2013-05-09T07:51:03Z</time>
      </trkpt>
      <trkpt lat="46.63823" lon="6.07335">
        <ele>1036.92</ele>
        <time>2013-05-09T07:51:04Z</time>
      </trkpt>
      <trkpt lat="46.63824" lon="6.07332">
        <ele>1037.4</ele>
        <time>2013-05-09T07:51:05Z</time>
      </trkpt>
      <trkpt lat="46.63825" lon="6.07329">
        <ele>1037.4</ele>
        <time>2013-05-09T07:51:06Z</time>
      </trkpt>
      <trkpt lat="46.63827" lon="6.07325">
        <ele>1037.4</ele>
        <time>2013-05-09T07:51:07Z</time>
      </trkpt>
      <trkpt lat="46.63828" lon="6.07321">
        <ele>1037.4</ele>
        <time>2013-05-09T07:51:08Z</time>
      </trkpt>
      <trkpt lat="46.63834" lon="6.07284">
        <ele>1039.32</ele>
        <time>2013-05-09T07:51:19Z</time>
      </trkpt>
      <trkpt lat="46.63833" lon="6.07281">
        <ele>1039.32</ele>
        <time>2013-05-09T07:51:20Z</time>
      </trkpt>
      <trkpt lat="46.63821" lon="6.07236">
        <ele>1040.76</ele>
        <time>2013-05-09T07:51:33Z</time>
      </trkpt>
      <trkpt lat="46.63799" lon="6.07202">
        <ele>1042.21</ele>
        <time>2013-05-09T07:51:45Z</time>
      </trkpt>
      <trkpt lat="46.63787" lon="6.07159">
        <ele>1043.65</ele>
        <time>2013-05-09T07:51:57Z</time>
      </trkpt>
      <trkpt lat="46.63768" lon="6.07132">
        <ele>1045.57</ele>
        <time>2013-05-09T07:52:09Z</time>
      </trkpt>
      <trkpt lat="46.63766" lon="6.07131">
        <ele>1046.05</ele>
        <time>2013-05-09T07:52:10Z</time>
      </trkpt>
      <trkpt lat="46.63763" lon="6.07131">
        <ele>1046.05</ele>
        <time>2013-05-09T07:52:11Z</time>
      </trkpt>
      <trkpt lat="46.63739" lon="6.07111">
        <ele>1047.97</ele>
        <time>2013-05-09T07:52:24Z</time>
      </trkpt>
      <trkpt lat="46.63738" lon="6.07108">
        <ele>1048.45</ele>
        <time>2013-05-09T07:52:25Z</time>
      </trkpt>
      <trkpt lat="46.63736" lon="6.07106">
        <ele>1048.45</ele>
        <time>2013-05-09T07:52:26Z</time>
      </trkpt>
      <trkpt lat="46.63735" lon="6.07103">
        <ele>1048.45</ele>
        <time>2013-05-09T07:52:27Z</time>
      </trkpt>
      <trkpt lat="46.63733" lon="6.071">
        <ele>1048.45</ele>
        <time>2013-05-09T07:52:28Z</time>
      </trkpt>
      <trkpt lat="46.63732" lon="6.07097">
        <ele>1048.94</ele>
        <time>2013-05-09T07:52:29Z</time>
      </trkpt>
      <trkpt lat="46.6373" lon="6.07093">
        <ele>1048.94</ele>
        <time>2013-05-09T07:52:30Z</time>
      </trkpt>
      <trkpt lat="46.63729" lon="6.07089">
        <ele>1048.94</ele>
        <time>2013-05-09T07:52:31Z</time>
      </trkpt>
      <trkpt lat="46.63727" lon="6.07087">
        <ele>1048.94</ele>
        <time>2013-05-09T07:52:32Z</time>
      </trkpt>
      <trkpt lat="46.63724" lon="6.07084">
        <ele>1049.42</ele>
        <time>2013-05-09T07:52:33Z</time>
      </trkpt>
      <trkpt lat="46.6372" lon="6.07082">
        <ele>1049.9</ele>
        <time>2013-05-09T07:52:35Z</time>
      </trkpt>
      <trkpt lat="46.63717" lon="6.07082">
        <ele>1049.9</ele>
        <time>2013-05-09T07:52:36Z</time>
      </trkpt>
      <trkpt lat="46.63715" lon="6.07082">
        <ele>1049.9</ele>
        <time>2013-05-09T07:52:37Z</time>
      </trkpt>
      <trkpt lat="46.63693" lon="6.07096">
        <ele>1051.82</ele>
        <time>2013-05-09T07:52:49Z</time>
      </trkpt>
      <trkpt lat="46.63692" lon="6.07097">
        <ele>1052.3</ele>
        <time>2013-05-09T07:52:50Z</time>
      </trkpt>
      <trkpt lat="46.6369" lon="6.07098">
        <ele>1052.3</ele>
        <time>2013-05-09T07:52:51Z</time>
      </trkpt>
      <trkpt lat="46.63688" lon="6.071">
        <ele>1052.3</ele>
        <time>2013-05-09T07:52:52Z</time>
      </trkpt>
      <trkpt lat="46.63686" lon="6.07102">
        <ele>1052.78</ele>
        <time>2013-05-09T07:52:53Z</time>
      </trkpt>
      <trkpt lat="46.63684" lon="6.07104">
        <ele>1052.78</ele>
        <time>2013-05-09T07:52:54Z</time>
      </trkpt>
      <trkpt lat="46.63681" lon="6.07106">
        <ele>1052.78</ele>
        <time>2013-05-09T07:52:55Z</time>
      </trkpt>
      <trkpt lat="46.6365" lon="6.07116">
        <ele>1056.15</ele>
        <time>2013-05-09T07:53:09Z</time>
      </trkpt>
      <trkpt lat="46.63634" lon="6.07136">
        <ele>1058.55</ele>
        <time>2013-05-09T07:53:21Z</time>
      </trkpt>
      <trkpt lat="46.63623" lon="6.07163">
        <ele>1059.99</ele>
        <time>2013-05-09T07:53:32Z</time>
      </trkpt>
      <trkpt lat="46.63622" lon="6.07165">
        <ele>1060.47</ele>
        <time>2013-05-09T07:53:33Z</time>
      </trkpt>
      <trkpt lat="46.6362" lon="6.07166">
        <ele>1060.47</ele>
        <time>2013-05-09T07:53:34Z</time>
      </trkpt>
      <trkpt lat="46.63619" lon="6.07167">
        <ele>1060.47</ele>
        <time>2013-05-09T07:53:35Z</time>
      </trkpt>
      <trkpt lat="46.63617" lon="6.07169">
        <ele>1060.95</ele>
        <time>2013-05-09T07:53:36Z</time>
      </trkpt>
      <trkpt lat="46.63616" lon="6.07171">
        <ele>1060.95</ele>
        <time>2013-05-09T07:53:37Z</time>
      </trkpt>
      <trkpt lat="46.63615" lon="6.07173">
        <ele>1060.95</ele>
        <time>2013-05-09T07:53:38Z</time>
      </trkpt>
      <trkpt lat="46.63589" lon="6.07198">
        <ele>1063.36</ele>
        <time>2013-05-09T07:53:52Z</time>
      </trkpt>
      <trkpt lat="46.63559" lon="6.07192">
        <ele>1064.32</ele>
        <time>2013-05-09T07:54:05Z</time>
      </trkpt>
      <trkpt lat="46.63543" lon="6.07162">
        <ele>1065.28</ele>
        <time>2013-05-09T07:54:16Z</time>
      </trkpt>
      <trkpt lat="46.6353" lon="6.07143">
        <ele>1066.72</ele>
        <time>2013-05-09T07:54:25Z</time>
      </trkpt>
      <trkpt lat="46.63528" lon="6.07143">
        <ele>1066.72</ele>
        <time>2013-05-09T07:54:26Z</time>
      </trkpt>
      <trkpt lat="46.63526" lon="6.07143">
        <ele>1066.72</ele>
        <time>2013-05-09T07:54:27Z</time>
      </trkpt>
      <trkpt lat="46.63523" lon="6.07143">
        <ele>1067.2</ele>
        <time>2013-05-09T07:54:28Z</time>
      </trkpt>
      <trkpt lat="46.63521" lon="6.07143">
        <ele>1067.2</ele>
        <time>2013-05-09T07:54:29Z</time>
      </trkpt>
      <trkpt lat="46.63519" lon="6.07143">
        <ele>1067.68</ele>
        <time>2013-05-09T07:54:30Z</time>
      </trkpt>
      <trkpt lat="46.63484" lon="6.07148">
        <ele>1068.16</ele>
        <time>2013-05-09T07:54:44Z</time>
      </trkpt>
      <trkpt lat="46.63452" lon="6.07155">
        <ele>1069.12</ele>
        <time>2013-05-09T07:54:58Z</time>
      </trkpt>
      <trkpt lat="46.63448" lon="6.07158">
        <ele>1068.64</ele>
        <time>2013-05-09T07:55:01Z</time>
      </trkpt>
      <trkpt lat="46.63427" lon="6.07156">
        <ele>1068.64</ele>
        <time>2013-05-09T07:55:14Z</time>
      </trkpt>
      <trkpt lat="46.63411" lon="6.07127">
        <ele>1068.64</ele>
        <time>2013-05-09T07:55:27Z</time>
      </trkpt>
      <trkpt lat="46.63391" lon="6.07085">
        <ele>1065.28</ele>
        <time>2013-05-09T07:55:41Z</time>
      </trkpt>
      <trkpt lat="46.63368" lon="6.07068">
        <ele>1063.84</ele>
        <time>2013-05-09T07:55:48Z</time>
      </trkpt>
      <trkpt lat="46.63343" lon="6.07021">
        <ele>1062.87</ele>
        <time>2013-05-09T07:55:59Z</time>
      </trkpt>
      <trkpt lat="46.63317" lon="6.06966">
        <ele>1059.51</ele>
        <time>2013-05-09T07:56:09Z</time>
      </trkpt>
      <trkpt lat="46.63315" lon="6.06958">
        <ele>1059.51</ele>
        <time>2013-05-09T07:56:10Z</time>
      </trkpt>
      <trkpt lat="46.63313" lon="6.0695">
        <ele>1059.03</ele>
        <time>2013-05-09T07:56:11Z</time>
      </trkpt>
      <trkpt lat="46.63312" lon="6.06942">
        <ele>1058.55</ele>
        <time>2013-05-09T07:56:12Z</time>
      </trkpt>
      <trkpt lat="46.63311" lon="6.06935">
        <ele>1058.55</ele>
        <time>2013-05-09T07:56:13Z</time>
      </trkpt>
      <trkpt lat="46.63311" lon="6.06928">
        <ele>1058.07</ele>
        <time>2013-05-09T07:56:14Z</time>
      </trkpt>
      <trkpt lat="46.63312" lon="6.06899">
        <ele>1056.63</ele>
        <time>2013-05-09T07:56:18Z</time>
      </trkpt>
      <trkpt lat="46.63311" lon="6.06878">
        <ele>1055.67</ele>
        <time>2013-05-09T07:56:21Z</time>
      </trkpt>
      <trkpt lat="46.63311" lon="6.06871">
        <ele>1055.67</ele>
        <time>2013-05-09T07:56:22Z</time>
      </trkpt>
      <trkpt lat="46.63311" lon="6.06865">
        <ele>1055.18</ele>
        <time>2013-05-09T07:56:23Z</time>
      </trkpt>
      <trkpt lat="46.6331" lon="6.06858">
        <ele>1054.22</ele>
        <time>2013-05-09T07:56:24Z</time>
      </trkpt>
      <trkpt lat="46.63309" lon="6.06852">
        <ele>1054.22</ele>
        <time>2013-05-09T07:56:25Z</time>
      </trkpt>
      <trkpt lat="46.63308" lon="6.06845">
        <ele>1053.74</ele>
        <time>2013-05-09T07:56:26Z</time>
      </trkpt>
      <trkpt lat="46.63306" lon="6.06838">
        <ele>1053.74</ele>
        <time>2013-05-09T07:56:27Z</time>
      </trkpt>
      <trkpt lat="46.63296" lon="6.06817">
        <ele>1052.3</ele>
        <time>2013-05-09T07:56:30Z</time>
      </trkpt>
      <trkpt lat="46.63292" lon="6.0681">
        <ele>1051.82</ele>
        <time>2013-05-09T07:56:31Z</time>
      </trkpt>
      <trkpt lat="46.63286" lon="6.06805">
        <ele>1051.34</ele>
        <time>2013-05-09T07:56:32Z</time>
      </trkpt>
      <trkpt lat="46.6328" lon="6.06802">
        <ele>1050.86</ele>
        <time>2013-05-09T07:56:33Z</time>
      </trkpt>
      <trkpt lat="46.63272" lon="6.06802">
        <ele>1050.38</ele>
        <time>2013-05-09T07:56:34Z</time>
      </trkpt>
      <trkpt lat="46.63265" lon="6.06802">
        <ele>1049.9</ele>
        <time>2013-05-09T07:56:35Z</time>
      </trkpt>
      <trkpt lat="46.63243" lon="6.06799">
        <ele>1048.45</ele>
        <time>2013-05-09T07:56:38Z</time>
      </trkpt>
      <trkpt lat="46.63236" lon="6.06796">
        <ele>1047.97</ele>
        <time>2013-05-09T07:56:39Z</time>
      </trkpt>
      <trkpt lat="46.63229" lon="6.06791">
        <ele>1047.97</ele>
        <time>2013-05-09T07:56:40Z</time>
      </trkpt>
      <trkpt lat="46.63204" lon="6.06771">
        <ele>1046.53</ele>
        <time>2013-05-09T07:56:44Z</time>
      </trkpt>
      <trkpt lat="46.6317" lon="6.06749">
        <ele>1046.53</ele>
        <time>2013-05-09T07:56:53Z</time>
      </trkpt>
      <trkpt lat="46.63137" lon="6.06732">
        <ele>1047.01</ele>
        <time>2013-05-09T07:57:03Z</time>
      </trkpt>
      <trkpt lat="46.63117" lon="6.06727">
        <ele>1047.97</ele>
        <time>2013-05-09T07:57:12Z</time>
      </trkpt>
      <trkpt lat="46.63115" lon="6.06727">
        <ele>1047.97</ele>
        <time>2013-05-09T07:57:23Z</time>
      </trkpt>
      <trkpt lat="46.63115" lon="6.06727">
        <ele>1047.97</ele>
        <time>2013-05-09T07:57:41Z</time>
      </trkpt>
      <trkpt lat="46.63112" lon="6.06728">
        <ele>1047.97</ele>
        <time>2013-05-09T07:57:44Z</time>
      </trkpt>
      <trkpt lat="46.63111" lon="6.06727">
        <ele>1047.49</ele>
        <time>2013-05-09T07:57:45Z</time>
      </trkpt>
      <trkpt lat="46.6311" lon="6.06727">
        <ele>1047.49</ele>
        <time>2013-05-09T07:57:46Z</time>
      </trkpt>
      <trkpt lat="46.63108" lon="6.06726">
        <ele>1047.49</ele>
        <time>2013-05-09T07:57:47Z</time>
      </trkpt>
      <trkpt lat="46.63106" lon="6.06726">
        <ele>1047.49</ele>
        <time>2013-05-09T07:57:48Z</time>
      </trkpt>
      <trkpt lat="46.63075" lon="6.0671">
        <ele>1048.45</ele>
        <time>2013-05-09T07:58:00Z</time>
      </trkpt>
      <trkpt lat="46.63063" lon="6.06677">
        <ele>1049.9</ele>
        <time>2013-05-09T07:58:09Z</time>
      </trkpt>
      <trkpt lat="46.63044" lon="6.06641">
        <ele>1051.34</ele>
        <time>2013-05-09T07:58:20Z</time>
      </trkpt>
      <trkpt lat="46.63028" lon="6.06621">
        <ele>1050.38</ele>
        <time>2013-05-09T07:58:26Z</time>
      </trkpt>
      <trkpt lat="46.63024" lon="6.06619">
        <ele>1049.9</ele>
        <time>2013-05-09T07:58:27Z</time>
      </trkpt>
      <trkpt lat="46.63004" lon="6.06617">
        <ele>1048.94</ele>
        <time>2013-05-09T07:58:32Z</time>
      </trkpt>
      <trkpt lat="46.63" lon="6.06621">
        <ele>1048.45</ele>
        <time>2013-05-09T07:58:33Z</time>
      </trkpt>
      <trkpt lat="46.62973" lon="6.06648">
        <ele>1047.01</ele>
        <time>2013-05-09T07:58:39Z</time>
      </trkpt>
      <trkpt lat="46.6297" lon="6.06654">
        <ele>1047.01</ele>
        <time>2013-05-09T07:58:40Z</time>
      </trkpt>
      <trkpt lat="46.62966" lon="6.06658">
        <ele>1047.01</ele>
        <time>2013-05-09T07:58:41Z</time>
      </trkpt>
      <trkpt lat="46.62961" lon="6.06662">
        <ele>1048.45</ele>
        <time>2013-05-09T07:58:42Z</time>
      </trkpt>
      <trkpt lat="46.62957" lon="6.06666">
        <ele>1047.01</ele>
        <time>2013-05-09T07:58:43Z</time>
      </trkpt>
      <trkpt lat="46.62953" lon="6.06671">
        <ele>1046.53</ele>
        <time>2013-05-09T07:58:44Z</time>
      </trkpt>
      <trkpt lat="46.62926" lon="6.06699">
        <ele>1046.53</ele>
        <time>2013-05-09T07:58:51Z</time>
      </trkpt>
      <trkpt lat="46.62922" lon="6.06702">
        <ele>1046.53</ele>
        <time>2013-05-09T07:58:52Z</time>
      </trkpt>
      <trkpt lat="46.62919" lon="6.06705">
        <ele>1047.01</ele>
        <time>2013-05-09T07:58:53Z</time>
      </trkpt>
      <trkpt lat="46.6291" lon="6.0671">
        <ele>1046.53</ele>
        <time>2013-05-09T07:58:55Z</time>
      </trkpt>
      <trkpt lat="46.62905" lon="6.06711">
        <ele>1046.53</ele>
        <time>2013-05-09T07:58:56Z</time>
      </trkpt>
      <trkpt lat="46.62896" lon="6.06713">
        <ele>1046.53</ele>
        <time>2013-05-09T07:58:58Z</time>
      </trkpt>
      <trkpt lat="46.62891" lon="6.06712">
        <ele>1046.53</ele>
        <time>2013-05-09T07:58:59Z</time>
      </trkpt>
      <trkpt lat="46.62886" lon="6.06709">
        <ele>1046.53</ele>
        <time>2013-05-09T07:59:00Z</time>
      </trkpt>
      <trkpt lat="46.62882" lon="6.06707">
        <ele>1046.05</ele>
        <time>2013-05-09T07:59:01Z</time>
      </trkpt>
      <trkpt lat="46.62877" lon="6.06703">
        <ele>1046.05</ele>
        <time>2013-05-09T07:59:02Z</time>
      </trkpt>
      <trkpt lat="46.62873" lon="6.06699">
        <ele>1046.05</ele>
        <time>2013-05-09T07:59:03Z</time>
      </trkpt>
      <trkpt lat="46.6287" lon="6.06693">
        <ele>1045.57</ele>
        <time>2013-05-09T07:59:04Z</time>
      </trkpt>
      <trkpt lat="46.62867" lon="6.06687">
        <ele>1045.57</ele>
        <time>2013-05-09T07:59:05Z</time>
      </trkpt>
      <trkpt lat="46.62853" lon="6.0666">
        <ele>1043.65</ele>
        <time>2013-05-09T07:59:09Z</time>
      </trkpt>
      <trkpt lat="46.62848" lon="6.06653">
        <ele>1043.17</ele>
        <time>2013-05-09T07:59:10Z</time>
      </trkpt>
      <trkpt lat="46.62842" lon="6.06646">
        <ele>1042.69</ele>
        <time>2013-05-09T07:59:11Z</time>
      </trkpt>
      <trkpt lat="46.62836" lon="6.06641">
        <ele>1041.73</ele>
        <time>2013-05-09T07:59:12Z</time>
      </trkpt>
      <trkpt lat="46.6283" lon="6.06635">
        <ele>1041.25</ele>
        <time>2013-05-09T07:59:13Z</time>
      </trkpt>
      <trkpt lat="46.62823" lon="6.06629">
        <ele>1040.76</ele>
        <time>2013-05-09T07:59:14Z</time>
      </trkpt>
      <trkpt lat="46.62817" lon="6.06624">
        <ele>1040.76</ele>
        <time>2013-05-09T07:59:15Z</time>
      </trkpt>
      <trkpt lat="46.62806" lon="6.06613">
        <ele>1040.28</ele>
        <time>2013-05-09T07:59:17Z</time>
      </trkpt>
      <trkpt lat="46.62796" lon="6.06602">
        <ele>1040.28</ele>
        <time>2013-05-09T07:59:19Z</time>
      </trkpt>
      <trkpt lat="46.62791" lon="6.06599">
        <ele>1040.76</ele>
        <time>2013-05-09T07:59:20Z</time>
      </trkpt>
      <trkpt lat="46.62744" lon="6.06571">
        <ele>1042.21</ele>
        <time>2013-05-09T07:59:32Z</time>
      </trkpt>
      <trkpt lat="46.62732" lon="6.06564">
        <ele>1041.73</ele>
        <time>2013-05-09T07:59:35Z</time>
      </trkpt>
      <trkpt lat="46.62729" lon="6.06561">
        <ele>1041.73</ele>
        <time>2013-05-09T07:59:36Z</time>
      </trkpt>
      <trkpt lat="46.62725" lon="6.06559">
        <ele>1041.73</ele>
        <time>2013-05-09T07:59:37Z</time>
      </trkpt>
      <trkpt lat="46.62721" lon="6.06557">
        <ele>1041.73</ele>
        <time>2013-05-09T07:59:38Z</time>
      </trkpt>
      <trkpt lat="46.62718" lon="6.06554">
        <ele>1041.73</ele>
        <time>2013-05-09T07:59:39Z</time>
      </trkpt>
      <trkpt lat="46.62715" lon="6.0655">
        <ele>1041.73</ele>
        <time>2013-05-09T07:59:40Z</time>
      </trkpt>
      <trkpt lat="46.62712" lon="6.06547">
        <ele>1041.73</ele>
        <time>2013-05-09T07:59:41Z</time>
      </trkpt>
      <trkpt lat="46.62708" lon="6.06544">
        <ele>1041.73</ele>
        <time>2013-05-09T07:59:42Z</time>
      </trkpt>
      <trkpt lat="46.62698" lon="6.06536">
        <ele>1042.21</ele>
        <time>2013-05-09T07:59:45Z</time>
      </trkpt>
      <trkpt lat="46.62694" lon="6.06534">
        <ele>1042.21</ele>
        <time>2013-05-09T07:59:46Z</time>
      </trkpt>
      <trkpt lat="46.62663" lon="6.06513">
        <ele>1042.21</ele>
        <time>2013-05-09T07:59:56Z</time>
      </trkpt>
      <trkpt lat="46.62659" lon="6.06511">
        <ele>1041.73</ele>
        <time>2013-05-09T07:59:57Z</time>
      </trkpt>
      <trkpt lat="46.62655" lon="6.06509">
        <ele>1041.73</ele>
        <time>2013-05-09T07:59:58Z</time>
      </trkpt>
      <trkpt lat="46.62646" lon="6.06507">
        <ele>1041.73</ele>
        <time>2013-05-09T08:00:00Z</time>
      </trkpt>
      <trkpt lat="46.6262" lon="6.065">
        <ele>1041.73</ele>
        <time>2013-05-09T08:00:06Z</time>
      </trkpt>
      <trkpt lat="46.62612" lon="6.06494">
        <ele>1041.73</ele>
        <time>2013-05-09T08:00:08Z</time>
      </trkpt>
      <trkpt lat="46.62609" lon="6.0649">
        <ele>1041.73</ele>
        <time>2013-05-09T08:00:09Z</time>
      </trkpt>
      <trkpt lat="46.62589" lon="6.06459">
        <ele>1039.32</ele>
        <time>2013-05-09T08:00:15Z</time>
      </trkpt>
      <trkpt lat="46.62582" lon="6.06448">
        <ele>1038.84</ele>
        <time>2013-05-09T08:00:17Z</time>
      </trkpt>
      <trkpt lat="46.6258" lon="6.06441">
        <ele>1037.88</ele>
        <time>2013-05-09T08:00:18Z</time>
      </trkpt>
      <trkpt lat="46.62579" lon="6.06433">
        <ele>1036.92</ele>
        <time>2013-05-09T08:00:19Z</time>
      </trkpt>
      <trkpt lat="46.62573" lon="6.06394">
        <ele>1033.55</ele>
        <time>2013-05-09T08:00:23Z</time>
      </trkpt>
      <trkpt lat="46.62569" lon="6.06386">
        <ele>1033.55</ele>
        <time>2013-05-09T08:00:24Z</time>
      </trkpt>
      <trkpt lat="46.62564" lon="6.06379">
        <ele>1033.55</ele>
        <time>2013-05-09T08:00:25Z</time>
      </trkpt>
      <trkpt lat="46.62559" lon="6.06375">
        <ele>1034.04</ele>
        <time>2013-05-09T08:00:26Z</time>
      </trkpt>
      <trkpt lat="46.62554" lon="6.06371">
        <ele>1033.55</ele>
        <time>2013-05-09T08:00:27Z</time>
      </trkpt>
      <trkpt lat="46.6255" lon="6.06366">
        <ele>1033.55</ele>
        <time>2013-05-09T08:00:28Z</time>
      </trkpt>
      <trkpt lat="46.62545" lon="6.06363">
        <ele>1033.07</ele>
        <time>2013-05-09T08:00:29Z</time>
      </trkpt>
      <trkpt lat="46.6254" lon="6.0636">
        <ele>1032.11</ele>
        <time>2013-05-09T08:00:30Z</time>
      </trkpt>
      <trkpt lat="46.62535" lon="6.0636">
        <ele>1032.11</ele>
        <time>2013-05-09T08:00:31Z</time>
      </trkpt>
      <trkpt lat="46.6253" lon="6.06363">
        <ele>1031.63</ele>
        <time>2013-05-09T08:00:32Z</time>
      </trkpt>
      <trkpt lat="46.62526" lon="6.06367">
        <ele>1030.19</ele>
        <time>2013-05-09T08:00:33Z</time>
      </trkpt>
      <trkpt lat="46.62504" lon="6.06385">
        <ele>1028.75</ele>
        <time>2013-05-09T08:00:37Z</time>
      </trkpt>
      <trkpt lat="46.62438" lon="6.06408">
        <ele>1025.86</ele>
        <time>2013-05-09T08:00:48Z</time>
      </trkpt>
      <trkpt lat="46.62427" lon="6.06413">
        <ele>1024.9</ele>
        <time>2013-05-09T08:00:50Z</time>
      </trkpt>
      <trkpt lat="46.62423" lon="6.06416">
        <ele>1024.42</ele>
        <time>2013-05-09T08:00:51Z</time>
      </trkpt>
      <trkpt lat="46.62419" lon="6.0642">
        <ele>1024.42</ele>
        <time>2013-05-09T08:00:52Z</time>
      </trkpt>
      <trkpt lat="46.62415" lon="6.06426">
        <ele>1023.94</ele>
        <time>2013-05-09T08:00:53Z</time>
      </trkpt>
      <trkpt lat="46.62411" lon="6.06432">
        <ele>1023.94</ele>
        <time>2013-05-09T08:00:54Z</time>
      </trkpt>
      <trkpt lat="46.62404" lon="6.06447">
        <ele>1023.46</ele>
        <time>2013-05-09T08:00:56Z</time>
      </trkpt>
      <trkpt lat="46.62402" lon="6.06455">
        <ele>1022.98</ele>
        <time>2013-05-09T08:00:57Z</time>
      </trkpt>
      <trkpt lat="46.62391" lon="6.06487">
        <ele>1022.02</ele>
        <time>2013-05-09T08:01:01Z</time>
      </trkpt>
      <trkpt lat="46.62389" lon="6.06495">
        <ele>1021.54</ele>
        <time>2013-05-09T08:01:02Z</time>
      </trkpt>
      <trkpt lat="46.62385" lon="6.06503">
        <ele>1021.06</ele>
        <time>2013-05-09T08:01:03Z</time>
      </trkpt>
      <trkpt lat="46.62377" lon="6.06519">
        <ele>1019.62</ele>
        <time>2013-05-09T08:01:05Z</time>
      </trkpt>
      <trkpt lat="46.62374" lon="6.06528">
        <ele>1019.62</ele>
        <time>2013-05-09T08:01:06Z</time>
      </trkpt>
      <trkpt lat="46.62354" lon="6.06561">
        <ele>1020.1</ele>
        <time>2013-05-09T08:01:11Z</time>
      </trkpt>
      <trkpt lat="46.62329" lon="6.06584">
        <ele>1022.02</ele>
        <time>2013-05-09T08:01:20Z</time>
      </trkpt>
      <trkpt lat="46.62308" lon="6.06598">
        <ele>1023.46</ele>
        <time>2013-05-09T08:01:30Z</time>
      </trkpt>
      <trkpt lat="46.62287" lon="6.06617">
        <ele>1024.9</ele>
        <time>2013-05-09T08:01:41Z</time>
      </trkpt>
      <trkpt lat="46.62283" lon="6.0662">
        <ele>1024.9</ele>
        <time>2013-05-09T08:01:43Z</time>
      </trkpt>
      <trkpt lat="46.62282" lon="6.06622">
        <ele>1025.38</ele>
        <time>2013-05-09T08:01:44Z</time>
      </trkpt>
      <trkpt lat="46.6227" lon="6.06637">
        <ele>1026.83</ele>
        <time>2013-05-09T08:01:51Z</time>
      </trkpt>
      <trkpt lat="46.62268" lon="6.06639">
        <ele>1026.83</ele>
        <time>2013-05-09T08:01:52Z</time>
      </trkpt>
      <trkpt lat="46.62266" lon="6.06641">
        <ele>1026.83</ele>
        <time>2013-05-09T08:01:53Z</time>
      </trkpt>
      <trkpt lat="46.62265" lon="6.06642">
        <ele>1026.83</ele>
        <time>2013-05-09T08:01:54Z</time>
      </trkpt>
      <trkpt lat="46.62262" lon="6.06645">
        <ele>1027.31</ele>
        <time>2013-05-09T08:01:55Z</time>
      </trkpt>
      <trkpt lat="46.6226" lon="6.06647">
        <ele>1027.31</ele>
        <time>2013-05-09T08:01:56Z</time>
      </trkpt>
      <trkpt lat="46.62259" lon="6.06649">
        <ele>1027.79</ele>
        <time>2013-05-09T08:01:57Z</time>
      </trkpt>
      <trkpt lat="46.62257" lon="6.06651">
        <ele>1027.31</ele>
        <time>2013-05-09T08:01:58Z</time>
      </trkpt>
      <trkpt lat="46.62254" lon="6.06653">
        <ele>1027.31</ele>
        <time>2013-05-09T08:01:59Z</time>
      </trkpt>
      <trkpt lat="46.62229" lon="6.0668">
        <ele>1026.83</ele>
        <time>2013-05-09T08:02:10Z</time>
      </trkpt>
      <trkpt lat="46.62225" lon="6.06685">
        <ele>1026.83</ele>
        <time>2013-05-09T08:02:12Z</time>
      </trkpt>
      <trkpt lat="46.62223" lon="6.06688">
        <ele>1026.83</ele>
        <time>2013-05-09T08:02:13Z</time>
      </trkpt>
      <trkpt lat="46.62211" lon="6.06702">
        <ele>1027.31</ele>
        <time>2013-05-09T08:02:19Z</time>
      </trkpt>
      <trkpt lat="46.62209" lon="6.06703">
        <ele>1027.31</ele>
        <time>2013-05-09T08:02:20Z</time>
      </trkpt>
      <trkpt lat="46.62207" lon="6.06704">
        <ele>1027.31</ele>
        <time>2013-05-09T08:02:21Z</time>
      </trkpt>
      <trkpt lat="46.62205" lon="6.06706">
        <ele>1027.79</ele>
        <time>2013-05-09T08:02:22Z</time>
      </trkpt>
      <trkpt lat="46.62203" lon="6.06708">
        <ele>1027.79</ele>
        <time>2013-05-09T08:02:23Z</time>
      </trkpt>
      <trkpt lat="46.62201" lon="6.06709">
        <ele>1027.79</ele>
        <time>2013-05-09T08:02:24Z</time>
      </trkpt>
      <trkpt lat="46.62199" lon="6.06711">
        <ele>1027.79</ele>
        <time>2013-05-09T08:02:25Z</time>
      </trkpt>
      <trkpt lat="46.62198" lon="6.06712">
        <ele>1027.79</ele>
        <time>2013-05-09T08:02:26Z</time>
      </trkpt>
      <trkpt lat="46.62197" lon="6.06713">
        <ele>1028.27</ele>
        <time>2013-05-09T08:02:27Z</time>
      </trkpt>
      <trkpt lat="46.62167" lon="6.06729">
        <ele>1028.75</ele>
        <time>2013-05-09T08:02:39Z</time>
      </trkpt>
      <trkpt lat="46.62153" lon="6.06732">
        <ele>1029.71</ele>
        <time>2013-05-09T08:02:46Z</time>
      </trkpt>
      <trkpt lat="46.62151" lon="6.06733">
        <ele>1029.71</ele>
        <time>2013-05-09T08:02:47Z</time>
      </trkpt>
      <trkpt lat="46.62149" lon="6.06733">
        <ele>1029.71</ele>
        <time>2013-05-09T08:02:48Z</time>
      </trkpt>
      <trkpt lat="46.62147" lon="6.06733">
        <ele>1029.71</ele>
        <time>2013-05-09T08:02:49Z</time>
      </trkpt>
      <trkpt lat="46.62146" lon="6.06734">
        <ele>1029.71</ele>
        <time>2013-05-09T08:02:50Z</time>
      </trkpt>
      <trkpt lat="46.62144" lon="6.06734">
        <ele>1029.71</ele>
        <time>2013-05-09T08:02:51Z</time>
      </trkpt>
      <trkpt lat="46.62143" lon="6.06735">
        <ele>1030.19</ele>
        <time>2013-05-09T08:02:52Z</time>
      </trkpt>
      <trkpt lat="46.62136" lon="6.06739">
        <ele>1030.67</ele>
        <time>2013-05-09T08:02:56Z</time>
      </trkpt>
      <trkpt lat="46.62135" lon="6.06739">
        <ele>1030.67</ele>
        <time>2013-05-09T08:02:57Z</time>
      </trkpt>
      <trkpt lat="46.62134" lon="6.0674">
        <ele>1030.67</ele>
        <time>2013-05-09T08:02:58Z</time>
      </trkpt>
      <trkpt lat="46.6213" lon="6.06743">
        <ele>1031.15</ele>
        <time>2013-05-09T08:03:01Z</time>
      </trkpt>
      <trkpt lat="46.62122" lon="6.06751">
        <ele>1032.59</ele>
        <time>2013-05-09T08:03:07Z</time>
      </trkpt>
      <trkpt lat="46.62121" lon="6.06752">
        <ele>1032.59</ele>
        <time>2013-05-09T08:03:08Z</time>
      </trkpt>
      <trkpt lat="46.62119" lon="6.06753">
        <ele>1032.59</ele>
        <time>2013-05-09T08:03:09Z</time>
      </trkpt>
      <trkpt lat="46.62117" lon="6.06753">
        <ele>1032.59</ele>
        <time>2013-05-09T08:03:10Z</time>
      </trkpt>
      <trkpt lat="46.62115" lon="6.06755">
        <ele>1033.07</ele>
        <time>2013-05-09T08:03:11Z</time>
      </trkpt>
      <trkpt lat="46.62113" lon="6.06755">
        <ele>1033.07</ele>
        <time>2013-05-09T08:03:12Z</time>
      </trkpt>
      <trkpt lat="46.62112" lon="6.06757">
        <ele>1033.07</ele>
        <time>2013-05-09T08:03:13Z</time>
      </trkpt>
      <trkpt lat="46.62111" lon="6.06758">
        <ele>1033.55</ele>
        <time>2013-05-09T08:03:14Z</time>
      </trkpt>
      <trkpt lat="46.62109" lon="6.06758">
        <ele>1033.55</ele>
        <time>2013-05-09T08:03:15Z</time>
      </trkpt>
      <trkpt lat="46.62107" lon="6.06759">
        <ele>1033.55</ele>
        <time>2013-05-09T08:03:16Z</time>
      </trkpt>
      <trkpt lat="46.62106" lon="6.06759">
        <ele>1034.04</ele>
        <time>2013-05-09T08:03:17Z</time>
      </trkpt>
      <trkpt lat="46.62104" lon="6.0676">
        <ele>1034.04</ele>
        <time>2013-05-09T08:03:18Z</time>
      </trkpt>
      <trkpt lat="46.62098" lon="6.06764">
        <ele>1035</ele>
        <time>2013-05-09T08:03:21Z</time>
      </trkpt>
      <trkpt lat="46.62095" lon="6.06765">
        <ele>1035</ele>
        <time>2013-05-09T08:03:22Z</time>
      </trkpt>
      <trkpt lat="46.62094" lon="6.06767">
        <ele>1035</ele>
        <time>2013-05-09T08:03:23Z</time>
      </trkpt>
      <trkpt lat="46.62091" lon="6.06769">
        <ele>1035.48</ele>
        <time>2013-05-09T08:03:24Z</time>
      </trkpt>
      <trkpt lat="46.62089" lon="6.06771">
        <ele>1035.48</ele>
        <time>2013-05-09T08:03:25Z</time>
      </trkpt>
      <trkpt lat="46.62071" lon="6.06789">
        <ele>1037.88</ele>
        <time>2013-05-09T08:03:37Z</time>
      </trkpt>
      <trkpt lat="46.62054" lon="6.06809">
        <ele>1039.32</ele>
        <time>2013-05-09T08:03:48Z</time>
      </trkpt>
      <trkpt lat="46.62042" lon="6.0684">
        <ele>1041.25</ele>
        <time>2013-05-09T08:03:59Z</time>
      </trkpt>
      <trkpt lat="46.62032" lon="6.06867">
        <ele>1042.21</ele>
        <time>2013-05-09T08:04:08Z</time>
      </trkpt>
      <trkpt lat="46.62029" lon="6.06874">
        <ele>1042.69</ele>
        <time>2013-05-09T08:04:19Z</time>
      </trkpt>
      <trkpt lat="46.62029" lon="6.06878">
        <ele>1043.17</ele>
        <time>2013-05-09T08:04:31Z</time>
      </trkpt>
      <trkpt lat="46.62027" lon="6.06885">
        <ele>1043.17</ele>
        <time>2013-05-09T08:04:41Z</time>
      </trkpt>
      <trkpt lat="46.62026" lon="6.06888">
        <ele>1043.17</ele>
        <time>2013-05-09T08:04:42Z</time>
      </trkpt>
      <trkpt lat="46.62026" lon="6.06892">
        <ele>1043.65</ele>
        <time>2013-05-09T08:04:43Z</time>
      </trkpt>
      <trkpt lat="46.62022" lon="6.06928">
        <ele>1046.05</ele>
        <time>2013-05-09T08:04:53Z</time>
      </trkpt>
      <trkpt lat="46.62008" lon="6.06966">
        <ele>1047.49</ele>
        <time>2013-05-09T08:05:04Z</time>
      </trkpt>
      <trkpt lat="46.61987" lon="6.06998">
        <ele>1049.9</ele>
        <time>2013-05-09T08:05:16Z</time>
      </trkpt>
      <trkpt lat="46.61969" lon="6.07025">
        <ele>1051.34</ele>
        <time>2013-05-09T08:05:27Z</time>
      </trkpt>
      <trkpt lat="46.61946" lon="6.07043">
        <ele>1053.26</ele>
        <time>2013-05-09T08:05:37Z</time>
      </trkpt>
      <trkpt lat="46.6193" lon="6.0707">
        <ele>1055.18</ele>
        <time>2013-05-09T08:05:47Z</time>
      </trkpt>
      <trkpt lat="46.61915" lon="6.07102">
        <ele>1057.11</ele>
        <time>2013-05-09T08:05:58Z</time>
      </trkpt>
      <trkpt lat="46.61891" lon="6.0714">
        <ele>1059.51</ele>
        <time>2013-05-09T08:06:11Z</time>
      </trkpt>
      <trkpt lat="46.61858" lon="6.07174">
        <ele>1062.39</ele>
        <time>2013-05-09T08:06:25Z</time>
      </trkpt>
      <trkpt lat="46.61828" lon="6.07204">
        <ele>1064.8</ele>
        <time>2013-05-09T08:06:38Z</time>
      </trkpt>
      <trkpt lat="46.61804" lon="6.07218">
        <ele>1066.72</ele>
        <time>2013-05-09T08:06:49Z</time>
      </trkpt>
      <trkpt lat="46.61771" lon="6.0721">
        <ele>1069.12</ele>
        <time>2013-05-09T08:07:03Z</time>
      </trkpt>
      <trkpt lat="46.61769" lon="6.0721">
        <ele>1069.6</ele>
        <time>2013-05-09T08:07:04Z</time>
      </trkpt>
      <trkpt lat="46.61736" lon="6.07211">
        <ele>1072.01</ele>
        <time>2013-05-09T08:07:18Z</time>
      </trkpt>
      <trkpt lat="46.61706" lon="6.07211">
        <ele>1074.89</ele>
        <time>2013-05-09T08:07:31Z</time>
      </trkpt>
      <trkpt lat="46.61679" lon="6.07217">
        <ele>1075.85</ele>
        <time>2013-05-09T08:07:42Z</time>
      </trkpt>
      <trkpt lat="46.61641" lon="6.07247">
        <ele>1075.37</ele>
        <time>2013-05-09T08:07:55Z</time>
      </trkpt>
      <trkpt lat="46.61631" lon="6.07253">
        <ele>1075.85</ele>
        <time>2013-05-09T08:08:06Z</time>
      </trkpt>
      <trkpt lat="46.61631" lon="6.07253">
        <ele>1075.37</ele>
        <time>2013-05-09T08:08:25Z</time>
      </trkpt>
      <trkpt lat="46.61631" lon="6.07253">
        <ele>1075.37</ele>
        <time>2013-05-09T08:08:57Z</time>
      </trkpt>
      <trkpt lat="46.61631" lon="6.07253">
        <ele>1075.37</ele>
        <time>2013-05-09T08:09:30Z</time>
      </trkpt>
      <trkpt lat="46.61631" lon="6.07253">
        <ele>1074.89</ele>
        <time>2013-05-09T08:10:06Z</time>
      </trkpt>
      <trkpt lat="46.6163" lon="6.07253">
        <ele>1074.89</ele>
        <time>2013-05-09T08:10:38Z</time>
      </trkpt>
      <trkpt lat="46.6163" lon="6.07253">
        <ele>1074.89</ele>
        <time>2013-05-09T08:11:07Z</time>
      </trkpt>
      <trkpt lat="46.6163" lon="6.07253">
        <ele>1074.41</ele>
        <time>2013-05-09T08:11:17Z</time>
      </trkpt>
      <trkpt lat="46.61628" lon="6.07255">
        <ele>1074.89</ele>
        <time>2013-05-09T08:11:18Z</time>
      </trkpt>
      <trkpt lat="46.61626" lon="6.07257">
        <ele>1074.41</ele>
        <time>2013-05-09T08:11:19Z</time>
      </trkpt>
      <trkpt lat="46.61625" lon="6.07258">
        <ele>1074.41</ele>
        <time>2013-05-09T08:11:20Z</time>
      </trkpt>
      <trkpt lat="46.61623" lon="6.07259">
        <ele>1074.41</ele>
        <time>2013-05-09T08:11:21Z</time>
      </trkpt>
      <trkpt lat="46.61621" lon="6.07261">
        <ele>1074.41</ele>
        <time>2013-05-09T08:11:22Z</time>
      </trkpt>
      <trkpt lat="46.61591" lon="6.07284">
        <ele>1074.41</ele>
        <time>2013-05-09T08:11:32Z</time>
      </trkpt>
      <trkpt lat="46.61587" lon="6.07286">
        <ele>1073.93</ele>
        <time>2013-05-09T08:11:33Z</time>
      </trkpt>
      <trkpt lat="46.61575" lon="6.07294">
        <ele>1073.45</ele>
        <time>2013-05-09T08:11:36Z</time>
      </trkpt>
      <trkpt lat="46.61554" lon="6.07315">
        <ele>1072.49</ele>
        <time>2013-05-09T08:11:41Z</time>
      </trkpt>
      <trkpt lat="46.61529" lon="6.07353">
        <ele>1071.05</ele>
        <time>2013-05-09T08:11:48Z</time>
      </trkpt>
      <trkpt lat="46.6152" lon="6.07365">
        <ele>1070.08</ele>
        <time>2013-05-09T08:11:50Z</time>
      </trkpt>
      <trkpt lat="46.61511" lon="6.07379">
        <ele>1068.64</ele>
        <time>2013-05-09T08:11:52Z</time>
      </trkpt>
      <trkpt lat="46.61502" lon="6.07391">
        <ele>1067.68</ele>
        <time>2013-05-09T08:11:54Z</time>
      </trkpt>
      <trkpt lat="46.61497" lon="6.07397">
        <ele>1067.2</ele>
        <time>2013-05-09T08:11:55Z</time>
      </trkpt>
      <trkpt lat="46.61492" lon="6.07403">
        <ele>1067.2</ele>
        <time>2013-05-09T08:11:56Z</time>
      </trkpt>
      <trkpt lat="46.61487" lon="6.07409">
        <ele>1067.2</ele>
        <time>2013-05-09T08:11:57Z</time>
      </trkpt>
      <trkpt lat="46.61481" lon="6.07415">
        <ele>1066.24</ele>
        <time>2013-05-09T08:11:58Z</time>
      </trkpt>
      <trkpt lat="46.61466" lon="6.07435">
        <ele>1065.28</ele>
        <time>2013-05-09T08:12:01Z</time>
      </trkpt>
      <trkpt lat="46.61445" lon="6.07479">
        <ele>1063.84</ele>
        <time>2013-05-09T08:12:06Z</time>
      </trkpt>
      <trkpt lat="46.61437" lon="6.07496">
        <ele>1063.36</ele>
        <time>2013-05-09T08:12:08Z</time>
      </trkpt>
      <trkpt lat="46.61433" lon="6.07505">
        <ele>1062.87</ele>
        <time>2013-05-09T08:12:09Z</time>
      </trkpt>
      <trkpt lat="46.6143" lon="6.07514">
        <ele>1062.87</ele>
        <time>2013-05-09T08:12:10Z</time>
      </trkpt>
      <trkpt lat="46.6142" lon="6.07539">
        <ele>1062.39</ele>
        <time>2013-05-09T08:12:13Z</time>
      </trkpt>
      <trkpt lat="46.61418" lon="6.07547">
        <ele>1062.87</ele>
        <time>2013-05-09T08:12:14Z</time>
      </trkpt>
      <trkpt lat="46.61406" lon="6.07591">
        <ele>1062.87</ele>
        <time>2013-05-09T08:12:20Z</time>
      </trkpt>
      <trkpt lat="46.6138" lon="6.07654">
        <ele>1063.36</ele>
        <time>2013-05-09T08:12:30Z</time>
      </trkpt>
      <trkpt lat="46.61374" lon="6.07667">
        <ele>1063.36</ele>
        <time>2013-05-09T08:12:32Z</time>
      </trkpt>
      <trkpt lat="46.6137" lon="6.07672">
        <ele>1063.36</ele>
        <time>2013-05-09T08:12:33Z</time>
      </trkpt>
      <trkpt lat="46.61367" lon="6.07678">
        <ele>1063.36</ele>
        <time>2013-05-09T08:12:34Z</time>
      </trkpt>
      <trkpt lat="46.61361" lon="6.07689">
        <ele>1062.87</ele>
        <time>2013-05-09T08:12:36Z</time>
      </trkpt>
      <trkpt lat="46.61357" lon="6.07694">
        <ele>1062.87</ele>
        <time>2013-05-09T08:12:37Z</time>
      </trkpt>
      <trkpt lat="46.61341" lon="6.07716">
        <ele>1063.36</ele>
        <time>2013-05-09T08:12:42Z</time>
      </trkpt>
      <trkpt lat="46.61327" lon="6.0774">
        <ele>1063.84</ele>
        <time>2013-05-09T08:12:47Z</time>
      </trkpt>
      <trkpt lat="46.61324" lon="6.07746">
        <ele>1063.36</ele>
        <time>2013-05-09T08:12:48Z</time>
      </trkpt>
      <trkpt lat="46.61322" lon="6.07753">
        <ele>1065.28</ele>
        <time>2013-05-09T08:12:49Z</time>
      </trkpt>
      <trkpt lat="46.61292" lon="6.07812">
        <ele>1063.84</ele>
        <time>2013-05-09T08:12:59Z</time>
      </trkpt>
      <trkpt lat="46.6129" lon="6.07819">
        <ele>1063.84</ele>
        <time>2013-05-09T08:13:00Z</time>
      </trkpt>
      <trkpt lat="46.61289" lon="6.07826">
        <ele>1063.84</ele>
        <time>2013-05-09T08:13:01Z</time>
      </trkpt>
      <trkpt lat="46.61287" lon="6.07833">
        <ele>1063.84</ele>
        <time>2013-05-09T08:13:02Z</time>
      </trkpt>
      <trkpt lat="46.61286" lon="6.0784">
        <ele>1063.84</ele>
        <time>2013-05-09T08:13:03Z</time>
      </trkpt>
      <trkpt lat="46.61279" lon="6.0788">
        <ele>1063.84</ele>
        <time>2013-05-09T08:13:09Z</time>
      </trkpt>
      <trkpt lat="46.61278" lon="6.07888">
        <ele>1063.84</ele>
        <time>2013-05-09T08:13:10Z</time>
      </trkpt>
      <trkpt lat="46.61277" lon="6.07903">
        <ele>1063.84</ele>
        <time>2013-05-09T08:13:12Z</time>
      </trkpt>
      <trkpt lat="46.61276" lon="6.0791">
        <ele>1063.84</ele>
        <time>2013-05-09T08:13:13Z</time>
      </trkpt>
      <trkpt lat="46.61275" lon="6.07917">
        <ele>1063.36</ele>
        <time>2013-05-09T08:13:14Z</time>
      </trkpt>
      <trkpt lat="46.61272" lon="6.07923">
        <ele>1063.36</ele>
        <time>2013-05-09T08:13:15Z</time>
      </trkpt>
      <trkpt lat="46.6127" lon="6.07929">
        <ele>1063.36</ele>
        <time>2013-05-09T08:13:16Z</time>
      </trkpt>
      <trkpt lat="46.61267" lon="6.07936">
        <ele>1063.36</ele>
        <time>2013-05-09T08:13:17Z</time>
      </trkpt>
      <trkpt lat="46.61264" lon="6.07942">
        <ele>1063.84</ele>
        <time>2013-05-09T08:13:18Z</time>
      </trkpt>
      <trkpt lat="46.61261" lon="6.07949">
        <ele>1063.36</ele>
        <time>2013-05-09T08:13:19Z</time>
      </trkpt>
      <trkpt lat="46.61258" lon="6.07955">
        <ele>1063.36</ele>
        <time>2013-05-09T08:13:20Z</time>
      </trkpt>
      <trkpt lat="46.61255" lon="6.07961">
        <ele>1063.36</ele>
        <time>2013-05-09T08:13:21Z</time>
      </trkpt>
      <trkpt lat="46.61252" lon="6.07967">
        <ele>1063.36</ele>
        <time>2013-05-09T08:13:22Z</time>
      </trkpt>
      <trkpt lat="46.61229" lon="6.0801">
        <ele>1062.87</ele>
        <time>2013-05-09T08:13:29Z</time>
      </trkpt>
      <trkpt lat="46.61219" lon="6.08038">
        <ele>1062.39</ele>
        <time>2013-05-09T08:13:33Z</time>
      </trkpt>
      <trkpt lat="46.61217" lon="6.08053">
        <ele>1061.43</ele>
        <time>2013-05-09T08:13:35Z</time>
      </trkpt>
      <trkpt lat="46.61214" lon="6.08095">
        <ele>1060.47</ele>
        <time>2013-05-09T08:13:40Z</time>
      </trkpt>
      <trkpt lat="46.61214" lon="6.08104">
        <ele>1060.47</ele>
        <time>2013-05-09T08:13:41Z</time>
      </trkpt>
      <trkpt lat="46.61216" lon="6.08145">
        <ele>1059.51</ele>
        <time>2013-05-09T08:13:46Z</time>
      </trkpt>
      <trkpt lat="46.61215" lon="6.0816">
        <ele>1059.51</ele>
        <time>2013-05-09T08:13:48Z</time>
      </trkpt>
      <trkpt lat="46.61212" lon="6.08179">
        <ele>1060.47</ele>
        <time>2013-05-09T08:13:51Z</time>
      </trkpt>
      <trkpt lat="46.6121" lon="6.08184">
        <ele>1060.95</ele>
        <time>2013-05-09T08:13:52Z</time>
      </trkpt>
      <trkpt lat="46.61209" lon="6.08188">
        <ele>1061.43</ele>
        <time>2013-05-09T08:13:53Z</time>
      </trkpt>
      <trkpt lat="46.61186" lon="6.08253">
        <ele>1062.87</ele>
        <time>2013-05-09T08:14:07Z</time>
      </trkpt>
      <trkpt lat="46.6115" lon="6.08308">
        <ele>1063.36</ele>
        <time>2013-05-09T08:14:22Z</time>
      </trkpt>
      <trkpt lat="46.61122" lon="6.08352">
        <ele>1062.39</ele>
        <time>2013-05-09T08:14:32Z</time>
      </trkpt>
      <trkpt lat="46.61076" lon="6.08433">
        <ele>1059.99</ele>
        <time>2013-05-09T08:14:46Z</time>
      </trkpt>
      <trkpt lat="46.61072" lon="6.08439">
        <ele>1059.99</ele>
        <time>2013-05-09T08:14:47Z</time>
      </trkpt>
      <trkpt lat="46.61059" lon="6.08453">
        <ele>1060.95</ele>
        <time>2013-05-09T08:14:50Z</time>
      </trkpt>
      <trkpt lat="46.61056" lon="6.08459">
        <ele>1059.99</ele>
        <time>2013-05-09T08:14:51Z</time>
      </trkpt>
      <trkpt lat="46.61053" lon="6.08466">
        <ele>1059.51</ele>
        <time>2013-05-09T08:14:52Z</time>
      </trkpt>
      <trkpt lat="46.61048" lon="6.08479">
        <ele>1059.03</ele>
        <time>2013-05-09T08:14:54Z</time>
      </trkpt>
      <trkpt lat="46.61042" lon="6.08501">
        <ele>1058.55</ele>
        <time>2013-05-09T08:14:57Z</time>
      </trkpt>
      <trkpt lat="46.61039" lon="6.08509">
        <ele>1057.59</ele>
        <time>2013-05-09T08:14:58Z</time>
      </trkpt>
      <trkpt lat="46.61032" lon="6.08521">
        <ele>1057.59</ele>
        <time>2013-05-09T08:15:00Z</time>
      </trkpt>
      <trkpt lat="46.61008" lon="6.08553">
        <ele>1055.67</ele>
        <time>2013-05-09T08:15:06Z</time>
      </trkpt>
      <trkpt lat="46.6099" lon="6.08567">
        <ele>1055.67</ele>
        <time>2013-05-09T08:15:10Z</time>
      </trkpt>
      <trkpt lat="46.60985" lon="6.0857">
        <ele>1055.67</ele>
        <time>2013-05-09T08:15:11Z</time>
      </trkpt>
      <trkpt lat="46.60956" lon="6.08578">
        <ele>1057.11</ele>
        <time>2013-05-09T08:15:21Z</time>
      </trkpt>
      <trkpt lat="46.60919" lon="6.08601">
        <ele>1057.59</ele>
        <time>2013-05-09T08:15:34Z</time>
      </trkpt>
      <trkpt lat="46.60873" lon="6.08632">
        <ele>1058.07</ele>
        <time>2013-05-09T08:15:49Z</time>
      </trkpt>
      <trkpt lat="46.60843" lon="6.08653">
        <ele>1058.55</ele>
        <time>2013-05-09T08:15:59Z</time>
      </trkpt>
      <trkpt lat="46.60819" lon="6.0868">
        <ele>1060.47</ele>
        <time>2013-05-09T08:16:11Z</time>
      </trkpt>
      <trkpt lat="46.60785" lon="6.08702">
        <ele>1059.51</ele>
        <time>2013-05-09T08:16:24Z</time>
      </trkpt>
      <trkpt lat="46.60767" lon="6.08723">
        <ele>1058.07</ele>
        <time>2013-05-09T08:16:31Z</time>
      </trkpt>
      <trkpt lat="46.60759" lon="6.08738">
        <ele>1057.59</ele>
        <time>2013-05-09T08:16:34Z</time>
      </trkpt>
      <trkpt lat="46.60736" lon="6.08785">
        <ele>1057.59</ele>
        <time>2013-05-09T08:16:46Z</time>
      </trkpt>
      <trkpt lat="46.60716" lon="6.0886">
        <ele>1057.59</ele>
        <time>2013-05-09T08:17:01Z</time>
      </trkpt>
      <trkpt lat="46.60709" lon="6.08882">
        <ele>1057.59</ele>
        <time>2013-05-09T08:17:05Z</time>
      </trkpt>
      <trkpt lat="46.60687" lon="6.08927">
        <ele>1058.07</ele>
        <time>2013-05-09T08:17:16Z</time>
      </trkpt>
      <trkpt lat="46.60664" lon="6.08974">
        <ele>1058.07</ele>
        <time>2013-05-09T08:17:28Z</time>
      </trkpt>
      <trkpt lat="46.60632" lon="6.0903">
        <ele>1058.07</ele>
        <time>2013-05-09T08:17:42Z</time>
      </trkpt>
      <trkpt lat="46.60616" lon="6.09052">
        <ele>1058.07</ele>
        <time>2013-05-09T08:17:48Z</time>
      </trkpt>
      <trkpt lat="46.60575" lon="6.09086">
        <ele>1059.03</ele>
        <time>2013-05-09T08:18:02Z</time>
      </trkpt>
      <trkpt lat="46.60536" lon="6.09125">
        <ele>1059.51</ele>
        <time>2013-05-09T08:18:17Z</time>
      </trkpt>
      <trkpt lat="46.60487" lon="6.0914">
        <ele>1060.47</ele>
        <time>2013-05-09T08:18:33Z</time>
      </trkpt>
      <trkpt lat="46.60444" lon="6.0915">
        <ele>1060.95</ele>
        <time>2013-05-09T08:18:47Z</time>
      </trkpt>
      <trkpt lat="46.60408" lon="6.09154">
        <ele>1060.95</ele>
        <time>2013-05-09T08:18:58Z</time>
      </trkpt>
      <trkpt lat="46.60355" lon="6.09155">
        <ele>1061.43</ele>
        <time>2013-05-09T08:19:13Z</time>
      </trkpt>
      <trkpt lat="46.60327" lon="6.09156">
        <ele>1065.28</ele>
        <time>2013-05-09T08:19:22Z</time>
      </trkpt>
      <trkpt lat="46.60324" lon="6.09157">
        <ele>1058.07</ele>
        <time>2013-05-09T08:19:23Z</time>
      </trkpt>
      <trkpt lat="46.6032" lon="6.09157">
        <ele>1067.2</ele>
        <time>2013-05-09T08:19:24Z</time>
      </trkpt>
      <trkpt lat="46.60317" lon="6.09158">
        <ele>1062.39</ele>
        <time>2013-05-09T08:19:25Z</time>
      </trkpt>
      <trkpt lat="46.60279" lon="6.09182">
        <ele>1065.76</ele>
        <time>2013-05-09T08:19:37Z</time>
      </trkpt>
      <trkpt lat="46.60275" lon="6.09184">
        <ele>1061.43</ele>
        <time>2013-05-09T08:19:38Z</time>
      </trkpt>
      <trkpt lat="46.60226" lon="6.0922">
        <ele>1061.43</ele>
        <time>2013-05-09T08:19:52Z</time>
      </trkpt>
      <trkpt lat="46.60222" lon="6.09223">
        <ele>1061.43</ele>
        <time>2013-05-09T08:19:53Z</time>
      </trkpt>
      <trkpt lat="46.60218" lon="6.09227">
        <ele>1060.95</ele>
        <time>2013-05-09T08:19:54Z</time>
      </trkpt>
      <trkpt lat="46.60191" lon="6.09256">
        <ele>1059.99</ele>
        <time>2013-05-09T08:20:00Z</time>
      </trkpt>
      <trkpt lat="46.60127" lon="6.09322">
        <ele>1059.03</ele>
        <time>2013-05-09T08:20:14Z</time>
      </trkpt>
      <trkpt lat="46.60102" lon="6.09348">
        <ele>1059.51</ele>
        <time>2013-05-09T08:20:21Z</time>
      </trkpt>
      <trkpt lat="46.60048" lon="6.09407">
        <ele>1061.43</ele>
        <time>2013-05-09T08:20:37Z</time>
      </trkpt>
      <trkpt lat="46.60006" lon="6.09442">
        <ele>1065.76</ele>
        <time>2013-05-09T08:20:52Z</time>
      </trkpt>
      <trkpt lat="46.5996" lon="6.09481">
        <ele>1066.24</ele>
        <time>2013-05-09T08:21:09Z</time>
      </trkpt>
      <trkpt lat="46.59937" lon="6.09532">
        <ele>1066.72</ele>
        <time>2013-05-09T08:21:21Z</time>
      </trkpt>
      <trkpt lat="46.59908" lon="6.09606">
        <ele>1067.2</ele>
        <time>2013-05-09T08:21:37Z</time>
      </trkpt>
      <trkpt lat="46.59896" lon="6.09634">
        <ele>1067.68</ele>
        <time>2013-05-09T08:21:45Z</time>
      </trkpt>
      <trkpt lat="46.59896" lon="6.09636">
        <ele>1067.68</ele>
        <time>2013-05-09T08:21:46Z</time>
      </trkpt>
      <trkpt lat="46.59897" lon="6.09638">
        <ele>1067.68</ele>
        <time>2013-05-09T08:21:47Z</time>
      </trkpt>
      <trkpt lat="46.59901" lon="6.09643">
        <ele>1067.68</ele>
        <time>2013-05-09T08:21:56Z</time>
      </trkpt>
      <trkpt lat="46.59902" lon="6.09646">
        <ele>1067.68</ele>
        <time>2013-05-09T08:22:06Z</time>
      </trkpt>
      <trkpt lat="46.59903" lon="6.0965">
        <ele>1067.68</ele>
        <time>2013-05-09T08:22:08Z</time>
      </trkpt>
      <trkpt lat="46.59912" lon="6.09699">
        <ele>1069.12</ele>
        <time>2013-05-09T08:22:24Z</time>
      </trkpt>
      <trkpt lat="46.59916" lon="6.09727">
        <ele>1068.64</ele>
        <time>2013-05-09T08:22:32Z</time>
      </trkpt>
      <trkpt lat="46.59916" lon="6.09729">
        <ele>1068.64</ele>
        <time>2013-05-09T08:22:33Z</time>
      </trkpt>
      <trkpt lat="46.59917" lon="6.09731">
        <ele>1068.64</ele>
        <time>2013-05-09T08:22:34Z</time>
      </trkpt>
      <trkpt lat="46.59927" lon="6.09769">
        <ele>1067.68</ele>
        <time>2013-05-09T08:22:45Z</time>
      </trkpt>
      <trkpt lat="46.59933" lon="6.09807">
        <ele>1069.12</ele>
        <time>2013-05-09T08:22:53Z</time>
      </trkpt>
      <trkpt lat="46.59932" lon="6.09811">
        <ele>1068.16</ele>
        <time>2013-05-09T08:22:54Z</time>
      </trkpt>
      <trkpt lat="46.59931" lon="6.09814">
        <ele>1068.16</ele>
        <time>2013-05-09T08:22:55Z</time>
      </trkpt>
      <trkpt lat="46.59931" lon="6.09818">
        <ele>1068.64</ele>
        <time>2013-05-09T08:22:56Z</time>
      </trkpt>
      <trkpt lat="46.59931" lon="6.09822">
        <ele>1068.64</ele>
        <time>2013-05-09T08:22:57Z</time>
      </trkpt>
      <trkpt lat="46.5993" lon="6.09826">
        <ele>1068.64</ele>
        <time>2013-05-09T08:22:58Z</time>
      </trkpt>
      <trkpt lat="46.59931" lon="6.0983">
        <ele>1068.64</ele>
        <time>2013-05-09T08:22:59Z</time>
      </trkpt>
      <trkpt lat="46.59931" lon="6.09832">
        <ele>1068.64</ele>
        <time>2013-05-09T08:23:00Z</time>
      </trkpt>
      <trkpt lat="46.59931" lon="6.09835">
        <ele>1068.64</ele>
        <time>2013-05-09T08:23:01Z</time>
      </trkpt>
      <trkpt lat="46.59932" lon="6.09838">
        <ele>1068.64</ele>
        <time>2013-05-09T08:23:02Z</time>
      </trkpt>
      <trkpt lat="46.59931" lon="6.09842">
        <ele>1068.64</ele>
        <time>2013-05-09T08:23:14Z</time>
      </trkpt>
      <trkpt lat="46.59931" lon="6.09842">
        <ele>1068.64</ele>
        <time>2013-05-09T08:23:43Z</time>
      </trkpt>
      <trkpt lat="46.59936" lon="6.0987">
        <ele>1068.64</ele>
        <time>2013-05-09T08:23:53Z</time>
      </trkpt>
      <trkpt lat="46.59936" lon="6.09904">
        <ele>1069.12</ele>
        <time>2013-05-09T08:24:02Z</time>
      </trkpt>
      <trkpt lat="46.59942" lon="6.09912">
        <ele>1069.6</ele>
        <time>2013-05-09T08:24:09Z</time>
      </trkpt>
      <trkpt lat="46.59944" lon="6.09914">
        <ele>1069.12</ele>
        <time>2013-05-09T08:24:13Z</time>
      </trkpt>
      <trkpt lat="46.59945" lon="6.09918">
        <ele>1069.6</ele>
        <time>2013-05-09T08:24:16Z</time>
      </trkpt>
      <trkpt lat="46.59954" lon="6.09953">
        <ele>1068.64</ele>
        <time>2013-05-09T08:24:26Z</time>
      </trkpt>
      <trkpt lat="46.59956" lon="6.09961">
        <ele>1069.6</ele>
        <time>2013-05-09T08:24:41Z</time>
      </trkpt>
      <trkpt lat="46.5996" lon="6.09976">
        <ele>1070.57</ele>
        <time>2013-05-09T08:24:52Z</time>
      </trkpt>
      <trkpt lat="46.59959" lon="6.09984">
        <ele>1070.08</ele>
        <time>2013-05-09T08:25:01Z</time>
      </trkpt>
      <trkpt lat="46.5996" lon="6.09986">
        <ele>1070.57</ele>
        <time>2013-05-09T08:25:02Z</time>
      </trkpt>
      <trkpt lat="46.5996" lon="6.09988">
        <ele>1070.08</ele>
        <time>2013-05-09T08:25:03Z</time>
      </trkpt>
      <trkpt lat="46.59961" lon="6.0999">
        <ele>1070.57</ele>
        <time>2013-05-09T08:25:04Z</time>
      </trkpt>
      <trkpt lat="46.59961" lon="6.09992">
        <ele>1070.57</ele>
        <time>2013-05-09T08:25:05Z</time>
      </trkpt>
      <trkpt lat="46.59962" lon="6.09993">
        <ele>1070.57</ele>
        <time>2013-05-09T08:25:06Z</time>
      </trkpt>
      <trkpt lat="46.59963" lon="6.09996">
        <ele>1070.57</ele>
        <time>2013-05-09T08:25:08Z</time>
      </trkpt>
      <trkpt lat="46.59967" lon="6.1">
        <ele>1070.57</ele>
        <time>2013-05-09T08:25:19Z</time>
      </trkpt>
      <trkpt lat="46.59968" lon="6.10002">
        <ele>1070.57</ele>
        <time>2013-05-09T08:25:24Z</time>
      </trkpt>
      <trkpt lat="46.59969" lon="6.10003">
        <ele>1070.57</ele>
        <time>2013-05-09T08:25:25Z</time>
      </trkpt>
      <trkpt lat="46.59971" lon="6.10005">
        <ele>1070.08</ele>
        <time>2013-05-09T08:25:26Z</time>
      </trkpt>
      <trkpt lat="46.59973" lon="6.10007">
        <ele>1070.08</ele>
        <time>2013-05-09T08:25:27Z</time>
      </trkpt>
      <trkpt lat="46.59975" lon="6.1001">
        <ele>1070.08</ele>
        <time>2013-05-09T08:25:28Z</time>
      </trkpt>
      <trkpt lat="46.5999" lon="6.1003">
        <ele>1069.6</ele>
        <time>2013-05-09T08:25:39Z</time>
      </trkpt>
      <trkpt lat="46.60013" lon="6.10071">
        <ele>1070.57</ele>
        <time>2013-05-09T08:25:51Z</time>
      </trkpt>
      <trkpt lat="46.60034" lon="6.1011">
        <ele>1070.57</ele>
        <time>2013-05-09T08:26:02Z</time>
      </trkpt>
      <trkpt lat="46.60049" lon="6.1014">
        <ele>1070.57</ele>
        <time>2013-05-09T08:26:14Z</time>
      </trkpt>
      <trkpt lat="46.6007" lon="6.10165">
        <ele>1071.05</ele>
        <time>2013-05-09T08:26:25Z</time>
      </trkpt>
      <trkpt lat="46.60102" lon="6.10188">
        <ele>1071.53</ele>
        <time>2013-05-09T08:26:38Z</time>
      </trkpt>
      <trkpt lat="46.60126" lon="6.10216">
        <ele>1072.01</ele>
        <time>2013-05-09T08:26:51Z</time>
      </trkpt>
      <trkpt lat="46.60144" lon="6.10245">
        <ele>1072.01</ele>
        <time>2013-05-09T08:27:01Z</time>
      </trkpt>
      <trkpt lat="46.6015" lon="6.10257">
        <ele>1072.49</ele>
        <time>2013-05-09T08:27:06Z</time>
      </trkpt>
      <trkpt lat="46.60152" lon="6.10259">
        <ele>1072.01</ele>
        <time>2013-05-09T08:27:07Z</time>
      </trkpt>
      <trkpt lat="46.60153" lon="6.1026">
        <ele>1072.49</ele>
        <time>2013-05-09T08:27:08Z</time>
      </trkpt>
      <trkpt lat="46.60155" lon="6.10262">
        <ele>1072.49</ele>
        <time>2013-05-09T08:27:09Z</time>
      </trkpt>
      <trkpt lat="46.60156" lon="6.10264">
        <ele>1072.49</ele>
        <time>2013-05-09T08:27:10Z</time>
      </trkpt>
      <trkpt lat="46.60171" lon="6.10283">
        <ele>1072.97</ele>
        <time>2013-05-09T08:27:19Z</time>
      </trkpt>
      <trkpt lat="46.60176" lon="6.10323">
        <ele>1073.93</ele>
        <time>2013-05-09T08:27:31Z</time>
      </trkpt>
      <trkpt lat="46.60178" lon="6.10352">
        <ele>1073.93</ele>
        <time>2013-05-09T08:27:40Z</time>
      </trkpt>
      <trkpt lat="46.60177" lon="6.10354">
        <ele>1073.93</ele>
        <time>2013-05-09T08:27:41Z</time>
      </trkpt>
      <trkpt lat="46.60175" lon="6.10356">
        <ele>1073.93</ele>
        <time>2013-05-09T08:27:42Z</time>
      </trkpt>
      <trkpt lat="46.60161" lon="6.10373">
        <ele>1074.89</ele>
        <time>2013-05-09T08:27:52Z</time>
      </trkpt>
      <trkpt lat="46.60153" lon="6.1038">
        <ele>1075.37</ele>
        <time>2013-05-09T08:27:57Z</time>
      </trkpt>
      <trkpt lat="46.60151" lon="6.1038">
        <ele>1075.37</ele>
        <time>2013-05-09T08:27:58Z</time>
      </trkpt>
      <trkpt lat="46.6015" lon="6.10381">
        <ele>1075.37</ele>
        <time>2013-05-09T08:27:59Z</time>
      </trkpt>
      <trkpt lat="46.60148" lon="6.10383">
        <ele>1075.85</ele>
        <time>2013-05-09T08:28:00Z</time>
      </trkpt>
      <trkpt lat="46.60146" lon="6.10385">
        <ele>1075.85</ele>
        <time>2013-05-09T08:28:01Z</time>
      </trkpt>
      <trkpt lat="46.60145" lon="6.10386">
        <ele>1076.33</ele>
        <time>2013-05-09T08:28:02Z</time>
      </trkpt>
      <trkpt lat="46.60144" lon="6.10388">
        <ele>1076.33</ele>
        <time>2013-05-09T08:28:03Z</time>
      </trkpt>
      <trkpt lat="46.60142" lon="6.10389">
        <ele>1076.33</ele>
        <time>2013-05-09T08:28:04Z</time>
      </trkpt>
      <trkpt lat="46.60141" lon="6.10391">
        <ele>1076.81</ele>
        <time>2013-05-09T08:28:05Z</time>
      </trkpt>
      <trkpt lat="46.6014" lon="6.10392">
        <ele>1076.81</ele>
        <time>2013-05-09T08:28:06Z</time>
      </trkpt>
      <trkpt lat="46.60139" lon="6.10393">
        <ele>1076.81</ele>
        <time>2013-05-09T08:28:07Z</time>
      </trkpt>
      <trkpt lat="46.60138" lon="6.10395">
        <ele>1077.29</ele>
        <time>2013-05-09T08:28:08Z</time>
      </trkpt>
      <trkpt lat="46.60118" lon="6.10413">
        <ele>1076.81</ele>
        <time>2013-05-09T08:28:20Z</time>
      </trkpt>
      <trkpt lat="46.60098" lon="6.1045">
        <ele>1075.37</ele>
        <time>2013-05-09T08:28:30Z</time>
      </trkpt>
      <trkpt lat="46.60071" lon="6.10491">
        <ele>1074.89</ele>
        <time>2013-05-09T08:28:40Z</time>
      </trkpt>
      <trkpt lat="46.60049" lon="6.10524">
        <ele>1075.85</ele>
        <time>2013-05-09T08:28:51Z</time>
      </trkpt>
      <trkpt lat="46.60035" lon="6.10571">
        <ele>1075.85</ele>
        <time>2013-05-09T08:29:03Z</time>
      </trkpt>
      <trkpt lat="46.6005" lon="6.10613">
        <ele>1073.45</ele>
        <time>2013-05-09T08:29:14Z</time>
      </trkpt>
      <trkpt lat="46.60051" lon="6.10619">
        <ele>1073.45</ele>
        <time>2013-05-09T08:29:15Z</time>
      </trkpt>
      <trkpt lat="46.60056" lon="6.10657">
        <ele>1072.01</ele>
        <time>2013-05-09T08:29:21Z</time>
      </trkpt>
      <trkpt lat="46.60057" lon="6.10663">
        <ele>1072.49</ele>
        <time>2013-05-09T08:29:22Z</time>
      </trkpt>
      <trkpt lat="46.60059" lon="6.10668">
        <ele>1072.49</ele>
        <time>2013-05-09T08:29:23Z</time>
      </trkpt>
      <trkpt lat="46.60062" lon="6.10678">
        <ele>1072.49</ele>
        <time>2013-05-09T08:29:25Z</time>
      </trkpt>
      <trkpt lat="46.60065" lon="6.10689">
        <ele>1072.01</ele>
        <time>2013-05-09T08:29:27Z</time>
      </trkpt>
      <trkpt lat="46.60067" lon="6.10694">
        <ele>1072.01</ele>
        <time>2013-05-09T08:29:28Z</time>
      </trkpt>
      <trkpt lat="46.60069" lon="6.107">
        <ele>1072.01</ele>
        <time>2013-05-09T08:29:29Z</time>
      </trkpt>
      <trkpt lat="46.6007" lon="6.10705">
        <ele>1072.01</ele>
        <time>2013-05-09T08:29:30Z</time>
      </trkpt>
      <trkpt lat="46.60072" lon="6.1071">
        <ele>1072.01</ele>
        <time>2013-05-09T08:29:31Z</time>
      </trkpt>
      <trkpt lat="46.60072" lon="6.10775">
        <ele>1072.49</ele>
        <time>2013-05-09T08:29:43Z</time>
      </trkpt>
      <trkpt lat="46.60065" lon="6.10839">
        <ele>1072.97</ele>
        <time>2013-05-09T08:29:55Z</time>
      </trkpt>
      <trkpt lat="46.60044" lon="6.10908">
        <ele>1073.93</ele>
        <time>2013-05-09T08:30:08Z</time>
      </trkpt>
      <trkpt lat="46.60041" lon="6.10918">
        <ele>1072.97</ele>
        <time>2013-05-09T08:30:10Z</time>
      </trkpt>
      <trkpt lat="46.60039" lon="6.10923">
        <ele>1072.97</ele>
        <time>2013-05-09T08:30:11Z</time>
      </trkpt>
      <trkpt lat="46.60037" lon="6.10928">
        <ele>1073.45</ele>
        <time>2013-05-09T08:30:12Z</time>
      </trkpt>
      <trkpt lat="46.60036" lon="6.10933">
        <ele>1073.45</ele>
        <time>2013-05-09T08:30:13Z</time>
      </trkpt>
      <trkpt lat="46.60035" lon="6.10938">
        <ele>1073.45</ele>
        <time>2013-05-09T08:30:14Z</time>
      </trkpt>
      <trkpt lat="46.60013" lon="6.11023">
        <ele>1074.41</ele>
        <time>2013-05-09T08:30:29Z</time>
      </trkpt>
      <trkpt lat="46.59995" lon="6.1109">
        <ele>1077.78</ele>
        <time>2013-05-09T08:30:44Z</time>
      </trkpt>
      <trkpt lat="46.59984" lon="6.11135">
        <ele>1081.62</ele>
        <time>2013-05-09T08:30:57Z</time>
      </trkpt>
      <trkpt lat="46.59973" lon="6.1118">
        <ele>1083.54</ele>
        <time>2013-05-09T08:31:11Z</time>
      </trkpt>
      <trkpt lat="46.59967" lon="6.11224">
        <ele>1086.43</ele>
        <time>2013-05-09T08:31:24Z</time>
      </trkpt>
      <trkpt lat="46.59959" lon="6.11263">
        <ele>1088.83</ele>
        <time>2013-05-09T08:31:37Z</time>
      </trkpt>
      <trkpt lat="46.59947" lon="6.11309">
        <ele>1090.75</ele>
        <time>2013-05-09T08:31:53Z</time>
      </trkpt>
      <trkpt lat="46.59925" lon="6.11356">
        <ele>1088.83</ele>
        <time>2013-05-09T08:32:06Z</time>
      </trkpt>
      <trkpt lat="46.59917" lon="6.11365">
        <ele>1087.87</ele>
        <time>2013-05-09T08:32:08Z</time>
      </trkpt>
      <trkpt lat="46.59912" lon="6.1137">
        <ele>1087.39</ele>
        <time>2013-05-09T08:32:09Z</time>
      </trkpt>
      <trkpt lat="46.59889" lon="6.11388">
        <ele>1086.43</ele>
        <time>2013-05-09T08:32:13Z</time>
      </trkpt>
      <trkpt lat="46.59884" lon="6.11391">
        <ele>1085.95</ele>
        <time>2013-05-09T08:32:14Z</time>
      </trkpt>
      <trkpt lat="46.59879" lon="6.11393">
        <ele>1086.43</ele>
        <time>2013-05-09T08:32:15Z</time>
      </trkpt>
      <trkpt lat="46.59869" lon="6.11395">
        <ele>1086.91</ele>
        <time>2013-05-09T08:32:17Z</time>
      </trkpt>
      <trkpt lat="46.59832" lon="6.11395">
        <ele>1088.83</ele>
        <time>2013-05-09T08:32:28Z</time>
      </trkpt>
      <trkpt lat="46.59808" lon="6.11413">
        <ele>1089.79</ele>
        <time>2013-05-09T08:32:40Z</time>
      </trkpt>
      <trkpt lat="46.59802" lon="6.11415">
        <ele>1090.27</ele>
        <time>2013-05-09T08:32:44Z</time>
      </trkpt>
      <trkpt lat="46.59801" lon="6.11417">
        <ele>1090.27</ele>
        <time>2013-05-09T08:32:45Z</time>
      </trkpt>
      <trkpt lat="46.59801" lon="6.11419">
        <ele>1090.27</ele>
        <time>2013-05-09T08:32:46Z</time>
      </trkpt>
      <trkpt lat="46.59802" lon="6.11421">
        <ele>1090.27</ele>
        <time>2013-05-09T08:32:47Z</time>
      </trkpt>
      <trkpt lat="46.59803" lon="6.11422">
        <ele>1090.27</ele>
        <time>2013-05-09T08:32:48Z</time>
      </trkpt>
      <trkpt lat="46.59804" lon="6.11423">
        <ele>1089.79</ele>
        <time>2013-05-09T08:32:49Z</time>
      </trkpt>
      <trkpt lat="46.59806" lon="6.11424">
        <ele>1090.27</ele>
        <time>2013-05-09T08:32:50Z</time>
      </trkpt>
      <trkpt lat="46.59809" lon="6.11422">
        <ele>1090.27</ele>
        <time>2013-05-09T08:32:53Z</time>
      </trkpt>
      <trkpt lat="46.5981" lon="6.11421">
        <ele>1089.79</ele>
        <time>2013-05-09T08:32:54Z</time>
      </trkpt>
      <trkpt lat="46.59811" lon="6.11418">
        <ele>1089.79</ele>
        <time>2013-05-09T08:33:03Z</time>
      </trkpt>
      <trkpt lat="46.59811" lon="6.11416">
        <ele>1089.79</ele>
        <time>2013-05-09T08:33:04Z</time>
      </trkpt>
      <trkpt lat="46.5981" lon="6.11414">
        <ele>1089.79</ele>
        <time>2013-05-09T08:33:05Z</time>
      </trkpt>
      <trkpt lat="46.59809" lon="6.11413">
        <ele>1089.79</ele>
        <time>2013-05-09T08:33:06Z</time>
      </trkpt>
      <trkpt lat="46.59808" lon="6.11413">
        <ele>1090.27</ele>
        <time>2013-05-09T08:33:07Z</time>
      </trkpt>
      <trkpt lat="46.59807" lon="6.11414">
        <ele>1090.27</ele>
        <time>2013-05-09T08:33:08Z</time>
      </trkpt>
      <trkpt lat="46.59805" lon="6.11414">
        <ele>1090.27</ele>
        <time>2013-05-09T08:33:09Z</time>
      </trkpt>
      <trkpt lat="46.59804" lon="6.11414">
        <ele>1090.27</ele>
        <time>2013-05-09T08:33:10Z</time>
      </trkpt>
      <trkpt lat="46.59802" lon="6.11414">
        <ele>1090.27</ele>
        <time>2013-05-09T08:33:11Z</time>
      </trkpt>
      <trkpt lat="46.59801" lon="6.11414">
        <ele>1090.27</ele>
        <time>2013-05-09T08:33:12Z</time>
      </trkpt>
      <trkpt lat="46.59798" lon="6.11414">
        <ele>1090.27</ele>
        <time>2013-05-09T08:33:24Z</time>
      </trkpt>
      <trkpt lat="46.59798" lon="6.11414">
        <ele>1090.27</ele>
        <time>2013-05-09T08:33:38Z</time>
      </trkpt>
      <trkpt lat="46.59796" lon="6.11413">
        <ele>1090.27</ele>
        <time>2013-05-09T08:33:39Z</time>
      </trkpt>
      <trkpt lat="46.59795" lon="6.11411">
        <ele>1090.27</ele>
        <time>2013-05-09T08:33:40Z</time>
      </trkpt>
      <trkpt lat="46.59794" lon="6.11407">
        <ele>1090.27</ele>
        <time>2013-05-09T08:33:41Z</time>
      </trkpt>
      <trkpt lat="46.59793" lon="6.11404">
        <ele>1090.27</ele>
        <time>2013-05-09T08:33:42Z</time>
      </trkpt>
      <trkpt lat="46.59791" lon="6.114">
        <ele>1090.27</ele>
        <time>2013-05-09T08:33:43Z</time>
      </trkpt>
      <trkpt lat="46.5979" lon="6.11397">
        <ele>1090.27</ele>
        <time>2013-05-09T08:33:44Z</time>
      </trkpt>
      <trkpt lat="46.59789" lon="6.11395">
        <ele>1090.27</ele>
        <time>2013-05-09T08:33:45Z</time>
      </trkpt>
      <trkpt lat="46.59787" lon="6.11392">
        <ele>1090.27</ele>
        <time>2013-05-09T08:33:46Z</time>
      </trkpt>
      <trkpt lat="46.59785" lon="6.11387">
        <ele>1089.79</ele>
        <time>2013-05-09T08:33:48Z</time>
      </trkpt>
      <trkpt lat="46.59759" lon="6.11357">
        <ele>1088.35</ele>
        <time>2013-05-09T08:34:00Z</time>
      </trkpt>
      <trkpt lat="46.5975" lon="6.11343">
        <ele>1087.87</ele>
        <time>2013-05-09T08:34:05Z</time>
      </trkpt>
      <trkpt lat="46.5975" lon="6.11341">
        <ele>1087.87</ele>
        <time>2013-05-09T08:34:06Z</time>
      </trkpt>
      <trkpt lat="46.5975" lon="6.11339">
        <ele>1087.87</ele>
        <time>2013-05-09T08:34:07Z</time>
      </trkpt>
      <trkpt lat="46.5975" lon="6.11337">
        <ele>1087.87</ele>
        <time>2013-05-09T08:34:20Z</time>
      </trkpt>
      <trkpt lat="46.5975" lon="6.11337">
        <ele>1087.87</ele>
        <time>2013-05-09T08:34:50Z</time>
      </trkpt>
      <trkpt lat="46.5975" lon="6.11337">
        <ele>1087.87</ele>
        <time>2013-05-09T08:34:56Z</time>
      </trkpt>
      <trkpt lat="46.59749" lon="6.11335">
        <ele>1087.87</ele>
        <time>2013-05-09T08:34:57Z</time>
      </trkpt>
      <trkpt lat="46.59747" lon="6.11332">
        <ele>1088.83</ele>
        <time>2013-05-09T08:34:58Z</time>
      </trkpt>
      <trkpt lat="46.59745" lon="6.1133">
        <ele>1087.39</ele>
        <time>2013-05-09T08:34:59Z</time>
      </trkpt>
      <trkpt lat="46.59743" lon="6.11327">
        <ele>1087.39</ele>
        <time>2013-05-09T08:35:00Z</time>
      </trkpt>
      <trkpt lat="46.59741" lon="6.11324">
        <ele>1087.39</ele>
        <time>2013-05-09T08:35:01Z</time>
      </trkpt>
      <trkpt lat="46.5974" lon="6.11321">
        <ele>1086.91</ele>
        <time>2013-05-09T08:35:02Z</time>
      </trkpt>
      <trkpt lat="46.59739" lon="6.11319">
        <ele>1086.91</ele>
        <time>2013-05-09T08:35:03Z</time>
      </trkpt>
      <trkpt lat="46.59739" lon="6.11316">
        <ele>1086.91</ele>
        <time>2013-05-09T08:35:04Z</time>
      </trkpt>
      <trkpt lat="46.59725" lon="6.11271">
        <ele>1084.02</ele>
        <time>2013-05-09T08:35:15Z</time>
      </trkpt>
      <trkpt lat="46.59713" lon="6.11226">
        <ele>1080.66</ele>
        <time>2013-05-09T08:35:20Z</time>
      </trkpt>
      <trkpt lat="46.597" lon="6.11185">
        <ele>1078.74</ele>
        <time>2013-05-09T08:35:24Z</time>
      </trkpt>
      <trkpt lat="46.59639" lon="6.11067">
        <ele>1076.81</ele>
        <time>2013-05-09T08:35:37Z</time>
      </trkpt>
      <trkpt lat="46.59573" lon="6.1099">
        <ele>1077.29</ele>
        <time>2013-05-09T08:35:51Z</time>
      </trkpt>
      <trkpt lat="46.59516" lon="6.1093">
        <ele>1078.26</ele>
        <time>2013-05-09T08:36:06Z</time>
      </trkpt>
      <trkpt lat="46.59478" lon="6.1089">
        <ele>1081.14</ele>
        <time>2013-05-09T08:36:18Z</time>
      </trkpt>
      <trkpt lat="46.59437" lon="6.10831">
        <ele>1083.06</ele>
        <time>2013-05-09T08:36:34Z</time>
      </trkpt>
      <trkpt lat="46.59395" lon="6.1077">
        <ele>1084.5</ele>
        <time>2013-05-09T08:36:50Z</time>
      </trkpt>
      <trkpt lat="46.59352" lon="6.10725">
        <ele>1086.43</ele>
        <time>2013-05-09T08:37:05Z</time>
      </trkpt>
      <trkpt lat="46.5931" lon="6.10692">
        <ele>1089.31</ele>
        <time>2013-05-09T08:37:21Z</time>
      </trkpt>
      <trkpt lat="46.59268" lon="6.10662">
        <ele>1091.71</ele>
        <time>2013-05-09T08:37:36Z</time>
      </trkpt>
      <trkpt lat="46.59223" lon="6.10629">
        <ele>1093.64</ele>
        <time>2013-05-09T08:37:51Z</time>
      </trkpt>
      <trkpt lat="46.59166" lon="6.10587">
        <ele>1094.6</ele>
        <time>2013-05-09T08:38:08Z</time>
      </trkpt>
      <trkpt lat="46.59105" lon="6.10548">
        <ele>1093.64</ele>
        <time>2013-05-09T08:38:24Z</time>
      </trkpt>
      <trkpt lat="46.59046" lon="6.10517">
        <ele>1095.08</ele>
        <time>2013-05-09T08:38:40Z</time>
      </trkpt>
      <trkpt lat="46.58991" lon="6.10469">
        <ele>1097</ele>
        <time>2013-05-09T08:38:57Z</time>
      </trkpt>
      <trkpt lat="46.58941" lon="6.10421">
        <ele>1099.4</ele>
        <time>2013-05-09T08:39:14Z</time>
      </trkpt>
      <trkpt lat="46.58939" lon="6.1042">
        <ele>1099.89</ele>
        <time>2013-05-09T08:39:26Z</time>
      </trkpt>
      <trkpt lat="46.58939" lon="6.1042">
        <ele>1099.89</ele>
        <time>2013-05-09T08:39:45Z</time>
      </trkpt>
      <trkpt lat="46.58938" lon="6.1042">
        <ele>1099.89</ele>
        <time>2013-05-09T08:40:07Z</time>
      </trkpt>
      <trkpt lat="46.5892" lon="6.1041">
        <ele>1099.89</ele>
        <time>2013-05-09T08:40:17Z</time>
      </trkpt>
      <trkpt lat="46.58878" lon="6.10396">
        <ele>1100.37</ele>
        <time>2013-05-09T08:40:30Z</time>
      </trkpt>
      <trkpt lat="46.58817" lon="6.10375">
        <ele>1100.37</ele>
        <time>2013-05-09T08:40:45Z</time>
      </trkpt>
      <trkpt lat="46.58813" lon="6.10372">
        <ele>1100.85</ele>
        <time>2013-05-09T08:40:46Z</time>
      </trkpt>
      <trkpt lat="46.5881" lon="6.1037">
        <ele>1100.85</ele>
        <time>2013-05-09T08:40:47Z</time>
      </trkpt>
      <trkpt lat="46.58771" lon="6.10341">
        <ele>1104.21</ele>
        <time>2013-05-09T08:41:00Z</time>
      </trkpt>
      <trkpt lat="46.58727" lon="6.10301">
        <ele>1107.58</ele>
        <time>2013-05-09T08:41:16Z</time>
      </trkpt>
      <trkpt lat="46.58679" lon="6.10259">
        <ele>1109.98</ele>
        <time>2013-05-09T08:41:33Z</time>
      </trkpt>
      <trkpt lat="46.5864" lon="6.1019">
        <ele>1111.42</ele>
        <time>2013-05-09T08:41:51Z</time>
      </trkpt>
      <trkpt lat="46.58618" lon="6.10161">
        <ele>1112.38</ele>
        <time>2013-05-09T08:42:02Z</time>
      </trkpt>
      <trkpt lat="46.58616" lon="6.10162">
        <ele>1112.38</ele>
        <time>2013-05-09T08:42:03Z</time>
      </trkpt>
      <trkpt lat="46.58615" lon="6.10164">
        <ele>1112.86</ele>
        <time>2013-05-09T08:42:04Z</time>
      </trkpt>
      <trkpt lat="46.58613" lon="6.10167">
        <ele>1112.86</ele>
        <time>2013-05-09T08:42:05Z</time>
      </trkpt>
      <trkpt lat="46.58612" lon="6.1017">
        <ele>1112.86</ele>
        <time>2013-05-09T08:42:06Z</time>
      </trkpt>
      <trkpt lat="46.5861" lon="6.10172">
        <ele>1112.86</ele>
        <time>2013-05-09T08:42:07Z</time>
      </trkpt>
      <trkpt lat="46.58608" lon="6.10175">
        <ele>1112.86</ele>
        <time>2013-05-09T08:42:08Z</time>
      </trkpt>
      <trkpt lat="46.58606" lon="6.10178">
        <ele>1112.86</ele>
        <time>2013-05-09T08:42:09Z</time>
      </trkpt>
      <trkpt lat="46.58604" lon="6.10182">
        <ele>1113.34</ele>
        <time>2013-05-09T08:42:10Z</time>
      </trkpt>
      <trkpt lat="46.58603" lon="6.10185">
        <ele>1113.34</ele>
        <time>2013-05-09T08:42:11Z</time>
      </trkpt>
      <trkpt lat="46.58575" lon="6.10232">
        <ele>1115.27</ele>
        <time>2013-05-09T08:42:26Z</time>
      </trkpt>
      <trkpt lat="46.58539" lon="6.10299">
        <ele>1117.67</ele>
        <time>2013-05-09T08:42:45Z</time>
      </trkpt>
      <trkpt lat="46.58507" lon="6.10347">
        <ele>1120.07</ele>
        <time>2013-05-09T08:43:00Z</time>
      </trkpt>
      <trkpt lat="46.5847" lon="6.10378">
        <ele>1120.55</ele>
        <time>2013-05-09T08:43:14Z</time>
      </trkpt>
      <trkpt lat="46.58464" lon="6.10383">
        <ele>1124.88</ele>
        <time>2013-05-09T08:43:16Z</time>
      </trkpt>
      <trkpt lat="46.58462" lon="6.10384">
        <ele>1122</ele>
        <time>2013-05-09T08:43:17Z</time>
      </trkpt>
      <trkpt lat="46.58426" lon="6.10431">
        <ele>1122.96</ele>
        <time>2013-05-09T08:43:32Z</time>
      </trkpt>
      <trkpt lat="46.58419" lon="6.10484">
        <ele>1123.92</ele>
        <time>2013-05-09T08:43:44Z</time>
      </trkpt>
      <trkpt lat="46.58409" lon="6.10567">
        <ele>1125.36</ele>
        <time>2013-05-09T08:44:02Z</time>
      </trkpt>
      <trkpt lat="46.58388" lon="6.10646">
        <ele>1128.24</ele>
        <time>2013-05-09T08:44:19Z</time>
      </trkpt>
      <trkpt lat="46.58387" lon="6.1065">
        <ele>1126.8</ele>
        <time>2013-05-09T08:44:20Z</time>
      </trkpt>
      <trkpt lat="46.58383" lon="6.10658">
        <ele>1125.84</ele>
        <time>2013-05-09T08:44:22Z</time>
      </trkpt>
      <trkpt lat="46.58342" lon="6.10707">
        <ele>1124.88</ele>
        <time>2013-05-09T08:44:36Z</time>
      </trkpt>
      <trkpt lat="46.58288" lon="6.10738">
        <ele>1125.36</ele>
        <time>2013-05-09T08:44:50Z</time>
      </trkpt>
      <trkpt lat="46.5823" lon="6.10739">
        <ele>1127.76</ele>
        <time>2013-05-09T08:45:06Z</time>
      </trkpt>
      <trkpt lat="46.58181" lon="6.10701">
        <ele>1128.73</ele>
        <time>2013-05-09T08:45:22Z</time>
      </trkpt>
      <trkpt lat="46.58133" lon="6.1065">
        <ele>1125.36</ele>
        <time>2013-05-09T08:45:34Z</time>
      </trkpt>
      <trkpt lat="46.58098" lon="6.10609">
        <ele>1122.96</ele>
        <time>2013-05-09T08:45:41Z</time>
      </trkpt>
      <trkpt lat="46.58066" lon="6.10573">
        <ele>1122.48</ele>
        <time>2013-05-09T08:45:47Z</time>
      </trkpt>
      <trkpt lat="46.58061" lon="6.10569">
        <ele>1122.48</ele>
        <time>2013-05-09T08:45:48Z</time>
      </trkpt>
      <trkpt lat="46.58056" lon="6.10566">
        <ele>1122.96</ele>
        <time>2013-05-09T08:45:49Z</time>
      </trkpt>
      <trkpt lat="46.58047" lon="6.10562">
        <ele>1122.96</ele>
        <time>2013-05-09T08:45:51Z</time>
      </trkpt>
      <trkpt lat="46.58043" lon="6.1056">
        <ele>1122.96</ele>
        <time>2013-05-09T08:45:52Z</time>
      </trkpt>
      <trkpt lat="46.58039" lon="6.10558">
        <ele>1122.96</ele>
        <time>2013-05-09T08:45:53Z</time>
      </trkpt>
      <trkpt lat="46.58034" lon="6.10557">
        <ele>1123.44</ele>
        <time>2013-05-09T08:45:54Z</time>
      </trkpt>
      <trkpt lat="46.58031" lon="6.10556">
        <ele>1123.44</ele>
        <time>2013-05-09T08:45:55Z</time>
      </trkpt>
      <trkpt lat="46.58027" lon="6.10555">
        <ele>1123.44</ele>
        <time>2013-05-09T08:45:56Z</time>
      </trkpt>
      <trkpt lat="46.58023" lon="6.10553">
        <ele>1123.44</ele>
        <time>2013-05-09T08:45:57Z</time>
      </trkpt>
      <trkpt lat="46.58019" lon="6.10552">
        <ele>1123.44</ele>
        <time>2013-05-09T08:45:58Z</time>
      </trkpt>
      <trkpt lat="46.57976" lon="6.10546">
        <ele>1125.36</ele>
        <time>2013-05-09T08:46:10Z</time>
      </trkpt>
      <trkpt lat="46.57944" lon="6.10547">
        <ele>1127.76</ele>
        <time>2013-05-09T08:46:22Z</time>
      </trkpt>
      <trkpt lat="46.57909" lon="6.10551">
        <ele>1130.17</ele>
        <time>2013-05-09T08:46:36Z</time>
      </trkpt>
      <trkpt lat="46.57875" lon="6.10568">
        <ele>1131.13</ele>
        <time>2013-05-09T08:46:49Z</time>
      </trkpt>
      <trkpt lat="46.57833" lon="6.10572">
        <ele>1132.57</ele>
        <time>2013-05-09T08:47:05Z</time>
      </trkpt>
      <trkpt lat="46.57797" lon="6.10559">
        <ele>1135.45</ele>
        <time>2013-05-09T08:47:20Z</time>
      </trkpt>
      <trkpt lat="46.57767" lon="6.10527">
        <ele>1137.86</ele>
        <time>2013-05-09T08:47:35Z</time>
      </trkpt>
      <trkpt lat="46.57738" lon="6.10484">
        <ele>1139.3</ele>
        <time>2013-05-09T08:47:49Z</time>
      </trkpt>
      <trkpt lat="46.57708" lon="6.10436">
        <ele>1140.74</ele>
        <time>2013-05-09T08:48:03Z</time>
      </trkpt>
      <trkpt lat="46.57678" lon="6.10393">
        <ele>1141.7</ele>
        <time>2013-05-09T08:48:18Z</time>
      </trkpt>
      <trkpt lat="46.57664" lon="6.10371">
        <ele>1140.26</ele>
        <time>2013-05-09T08:48:24Z</time>
      </trkpt>
      <trkpt lat="46.57662" lon="6.10367">
        <ele>1140.26</ele>
        <time>2013-05-09T08:48:25Z</time>
      </trkpt>
      <trkpt lat="46.57648" lon="6.10349">
        <ele>1139.3</ele>
        <time>2013-05-09T08:48:29Z</time>
      </trkpt>
      <trkpt lat="46.57612" lon="6.10319">
        <ele>1135.94</ele>
        <time>2013-05-09T08:48:36Z</time>
      </trkpt>
      <trkpt lat="46.57574" lon="6.10294">
        <ele>1132.57</ele>
        <time>2013-05-09T08:48:41Z</time>
      </trkpt>
      <trkpt lat="46.57567" lon="6.10288">
        <ele>1132.57</ele>
        <time>2013-05-09T08:48:42Z</time>
      </trkpt>
      <trkpt lat="46.57555" lon="6.10276">
        <ele>1133.53</ele>
        <time>2013-05-09T08:48:44Z</time>
      </trkpt>
      <trkpt lat="46.5755" lon="6.1027">
        <ele>1134.01</ele>
        <time>2013-05-09T08:48:45Z</time>
      </trkpt>
      <trkpt lat="46.57547" lon="6.10264">
        <ele>1134.49</ele>
        <time>2013-05-09T08:48:46Z</time>
      </trkpt>
      <trkpt lat="46.57544" lon="6.10258">
        <ele>1134.49</ele>
        <time>2013-05-09T08:48:47Z</time>
      </trkpt>
      <trkpt lat="46.57542" lon="6.10253">
        <ele>1134.97</ele>
        <time>2013-05-09T08:48:48Z</time>
      </trkpt>
      <trkpt lat="46.57532" lon="6.10217">
        <ele>1137.86</ele>
        <time>2013-05-09T08:48:55Z</time>
      </trkpt>
      <trkpt lat="46.5752" lon="6.10155">
        <ele>1136.9</ele>
        <time>2013-05-09T08:49:07Z</time>
      </trkpt>
      <trkpt lat="46.57512" lon="6.10129">
        <ele>1135.45</ele>
        <time>2013-05-09T08:49:11Z</time>
      </trkpt>
      <trkpt lat="46.5751" lon="6.10121">
        <ele>1135.45</ele>
        <time>2013-05-09T08:49:12Z</time>
      </trkpt>
      <trkpt lat="46.5751" lon="6.10114">
        <ele>1135.45</ele>
        <time>2013-05-09T08:49:13Z</time>
      </trkpt>
      <trkpt lat="46.57511" lon="6.10106">
        <ele>1135.45</ele>
        <time>2013-05-09T08:49:14Z</time>
      </trkpt>
      <trkpt lat="46.57512" lon="6.10099">
        <ele>1134.97</ele>
        <time>2013-05-09T08:49:15Z</time>
      </trkpt>
      <trkpt lat="46.57514" lon="6.10091">
        <ele>1134.49</ele>
        <time>2013-05-09T08:49:16Z</time>
      </trkpt>
      <trkpt lat="46.57516" lon="6.10084">
        <ele>1134.49</ele>
        <time>2013-05-09T08:49:17Z</time>
      </trkpt>
      <trkpt lat="46.57519" lon="6.10077">
        <ele>1134.49</ele>
        <time>2013-05-09T08:49:18Z</time>
      </trkpt>
      <trkpt lat="46.57521" lon="6.10071">
        <ele>1134.49</ele>
        <time>2013-05-09T08:49:19Z</time>
      </trkpt>
      <trkpt lat="46.57522" lon="6.10065">
        <ele>1134.01</ele>
        <time>2013-05-09T08:49:20Z</time>
      </trkpt>
      <trkpt lat="46.57522" lon="6.10058">
        <ele>1134.01</ele>
        <time>2013-05-09T08:49:21Z</time>
      </trkpt>
      <trkpt lat="46.57522" lon="6.10051">
        <ele>1133.53</ele>
        <time>2013-05-09T08:49:22Z</time>
      </trkpt>
      <trkpt lat="46.57517" lon="6.1003">
        <ele>1133.05</ele>
        <time>2013-05-09T08:49:30Z</time>
      </trkpt>
      <trkpt lat="46.57517" lon="6.1003">
        <ele>1133.05</ele>
        <time>2013-05-09T08:49:59Z</time>
      </trkpt>
      <trkpt lat="46.57517" lon="6.10029">
        <ele>1133.05</ele>
        <time>2013-05-09T08:50:17Z</time>
      </trkpt>
      <trkpt lat="46.57516" lon="6.10029">
        <ele>1133.05</ele>
        <time>2013-05-09T08:50:43Z</time>
      </trkpt>
      <trkpt lat="46.57515" lon="6.10025">
        <ele>1133.05</ele>
        <time>2013-05-09T08:50:56Z</time>
      </trkpt>
      <trkpt lat="46.57511" lon="6.10015">
        <ele>1132.57</ele>
        <time>2013-05-09T08:51:13Z</time>
      </trkpt>
      <trkpt lat="46.57499" lon="6.0997">
        <ele>1129.69</ele>
        <time>2013-05-09T08:51:22Z</time>
      </trkpt>
      <trkpt lat="46.57498" lon="6.09964">
        <ele>1129.69</ele>
        <time>2013-05-09T08:51:23Z</time>
      </trkpt>
      <trkpt lat="46.57487" lon="6.09929">
        <ele>1128.73</ele>
        <time>2013-05-09T08:51:29Z</time>
      </trkpt>
      <trkpt lat="46.57486" lon="6.09924">
        <ele>1128.24</ele>
        <time>2013-05-09T08:51:30Z</time>
      </trkpt>
      <trkpt lat="46.57483" lon="6.09912">
        <ele>1128.24</ele>
        <time>2013-05-09T08:51:38Z</time>
      </trkpt>
      <trkpt lat="46.57479" lon="6.09892">
        <ele>1128.24</ele>
        <time>2013-05-09T08:51:56Z</time>
      </trkpt>
      <trkpt lat="46.5748" lon="6.09847">
        <ele>1127.76</ele>
        <time>2013-05-09T08:52:09Z</time>
      </trkpt>
      <trkpt lat="46.57474" lon="6.0981">
        <ele>1126.8</ele>
        <time>2013-05-09T08:52:22Z</time>
      </trkpt>
      <trkpt lat="46.57473" lon="6.09809">
        <ele>1126.8</ele>
        <time>2013-05-09T08:52:44Z</time>
      </trkpt>
      <trkpt lat="46.57473" lon="6.09809">
        <ele>1126.8</ele>
        <time>2013-05-09T08:53:03Z</time>
      </trkpt>
      <trkpt lat="46.57473" lon="6.09808">
        <ele>1126.8</ele>
        <time>2013-05-09T08:53:28Z</time>
      </trkpt>
      <trkpt lat="46.57473" lon="6.09808">
        <ele>1126.8</ele>
        <time>2013-05-09T08:53:55Z</time>
      </trkpt>
      <trkpt lat="46.57473" lon="6.09808">
        <ele>1126.8</ele>
        <time>2013-05-09T08:54:20Z</time>
      </trkpt>
      <trkpt lat="46.57473" lon="6.09808">
        <ele>1126.32</ele>
        <time>2013-05-09T08:54:45Z</time>
      </trkpt>
      <trkpt lat="46.57473" lon="6.09808">
        <ele>1126.32</ele>
        <time>2013-05-09T08:55:13Z</time>
      </trkpt>
      <trkpt lat="46.57473" lon="6.09808">
        <ele>1126.8</ele>
        <time>2013-05-09T08:55:33Z</time>
      </trkpt>
      <trkpt lat="46.57473" lon="6.09808">
        <ele>1126.8</ele>
        <time>2013-05-09T08:55:52Z</time>
      </trkpt>
      <trkpt lat="46.57473" lon="6.09808">
        <ele>1126.8</ele>
        <time>2013-05-09T08:55:58Z</time>
      </trkpt>
      <trkpt lat="46.57471" lon="6.09807">
        <ele>1126.32</ele>
        <time>2013-05-09T08:55:59Z</time>
      </trkpt>
      <trkpt lat="46.57469" lon="6.09805">
        <ele>1126.32</ele>
        <time>2013-05-09T08:56:00Z</time>
      </trkpt>
      <trkpt lat="46.57467" lon="6.09803">
        <ele>1126.32</ele>
        <time>2013-05-09T08:56:01Z</time>
      </trkpt>
      <trkpt lat="46.57465" lon="6.09802">
        <ele>1125.84</ele>
        <time>2013-05-09T08:56:02Z</time>
      </trkpt>
      <trkpt lat="46.57462" lon="6.098">
        <ele>1125.84</ele>
        <time>2013-05-09T08:56:03Z</time>
      </trkpt>
      <trkpt lat="46.5746" lon="6.09798">
        <ele>1125.36</ele>
        <time>2013-05-09T08:56:04Z</time>
      </trkpt>
      <trkpt lat="46.57411" lon="6.09773">
        <ele>1122.96</ele>
        <time>2013-05-09T08:56:18Z</time>
      </trkpt>
      <trkpt lat="46.57375" lon="6.09761">
        <ele>1121.03</ele>
        <time>2013-05-09T08:56:25Z</time>
      </trkpt>
      <trkpt lat="46.57346" lon="6.09754">
        <ele>1119.59</ele>
        <time>2013-05-09T08:56:30Z</time>
      </trkpt>
      <trkpt lat="46.57323" lon="6.09747">
        <ele>1118.63</ele>
        <time>2013-05-09T08:56:34Z</time>
      </trkpt>
      <trkpt lat="46.57317" lon="6.09746">
        <ele>1118.63</ele>
        <time>2013-05-09T08:56:35Z</time>
      </trkpt>
      <trkpt lat="46.57312" lon="6.09743">
        <ele>1118.63</ele>
        <time>2013-05-09T08:56:36Z</time>
      </trkpt>
      <trkpt lat="46.57307" lon="6.09739">
        <ele>1118.63</ele>
        <time>2013-05-09T08:56:37Z</time>
      </trkpt>
      <trkpt lat="46.57304" lon="6.09734">
        <ele>1119.11</ele>
        <time>2013-05-09T08:56:38Z</time>
      </trkpt>
      <trkpt lat="46.57302" lon="6.09729">
        <ele>1119.11</ele>
        <time>2013-05-09T08:56:39Z</time>
      </trkpt>
      <trkpt lat="46.57286" lon="6.09674">
        <ele>1117.67</ele>
        <time>2013-05-09T08:56:50Z</time>
      </trkpt>
      <trkpt lat="46.57269" lon="6.09627">
        <ele>1117.19</ele>
        <time>2013-05-09T08:57:00Z</time>
      </trkpt>
      <trkpt lat="46.5724" lon="6.09568">
        <ele>1114.79</ele>
        <time>2013-05-09T08:57:12Z</time>
      </trkpt>
      <trkpt lat="46.57237" lon="6.09562">
        <ele>1114.79</ele>
        <time>2013-05-09T08:57:13Z</time>
      </trkpt>
      <trkpt lat="46.57233" lon="6.09556">
        <ele>1114.31</ele>
        <time>2013-05-09T08:57:14Z</time>
      </trkpt>
      <trkpt lat="46.5722" lon="6.09522">
        <ele>1113.34</ele>
        <time>2013-05-09T08:57:19Z</time>
      </trkpt>
      <trkpt lat="46.57219" lon="6.09515">
        <ele>1113.34</ele>
        <time>2013-05-09T08:57:20Z</time>
      </trkpt>
      <trkpt lat="46.57217" lon="6.09508">
        <ele>1113.34</ele>
        <time>2013-05-09T08:57:21Z</time>
      </trkpt>
      <trkpt lat="46.57216" lon="6.09502">
        <ele>1113.34</ele>
        <time>2013-05-09T08:57:22Z</time>
      </trkpt>
      <trkpt lat="46.57215" lon="6.09499">
        <ele>1113.34</ele>
        <time>2013-05-09T08:57:23Z</time>
      </trkpt>
      <trkpt lat="46.57215" lon="6.09499">
        <ele>1113.34</ele>
        <time>2013-05-09T08:57:32Z</time>
      </trkpt>
      <trkpt lat="46.57214" lon="6.09497">
        <ele>1113.34</ele>
        <time>2013-05-09T08:57:57Z</time>
      </trkpt>
      <trkpt lat="46.57208" lon="6.09485">
        <ele>1112.38</ele>
        <time>2013-05-09T08:58:13Z</time>
      </trkpt>
      <trkpt lat="46.57203" lon="6.09473">
        <ele>1111.42</ele>
        <time>2013-05-09T08:58:16Z</time>
      </trkpt>
      <trkpt lat="46.57179" lon="6.09447">
        <ele>1108.06</ele>
        <time>2013-05-09T08:58:21Z</time>
      </trkpt>
      <trkpt lat="46.57157" lon="6.09426">
        <ele>1103.73</ele>
        <time>2013-05-09T08:58:24Z</time>
      </trkpt>
      <trkpt lat="46.57143" lon="6.0941">
        <ele>1102.77</ele>
        <time>2013-05-09T08:58:26Z</time>
      </trkpt>
      <trkpt lat="46.57081" lon="6.0933">
        <ele>1099.4</ele>
        <time>2013-05-09T08:58:36Z</time>
      </trkpt>
      <trkpt lat="46.57047" lon="6.09293">
        <ele>1098.92</ele>
        <time>2013-05-09T08:58:42Z</time>
      </trkpt>
      <trkpt lat="46.57043" lon="6.09287">
        <ele>1098.92</ele>
        <time>2013-05-09T08:58:43Z</time>
      </trkpt>
      <trkpt lat="46.57032" lon="6.09271">
        <ele>1099.4</ele>
        <time>2013-05-09T08:58:46Z</time>
      </trkpt>
      <trkpt lat="46.57" lon="6.09237">
        <ele>1102.29</ele>
        <time>2013-05-09T08:58:57Z</time>
      </trkpt>
      <trkpt lat="46.56962" lon="6.09214">
        <ele>1105.17</ele>
        <time>2013-05-09T08:59:09Z</time>
      </trkpt>
      <trkpt lat="46.56951" lon="6.09209">
        <ele>1103.73</ele>
        <time>2013-05-09T08:59:12Z</time>
      </trkpt>
      <trkpt lat="46.56942" lon="6.09205">
        <ele>1103.25</ele>
        <time>2013-05-09T08:59:14Z</time>
      </trkpt>
      <trkpt lat="46.56934" lon="6.09201">
        <ele>1103.25</ele>
        <time>2013-05-09T08:59:16Z</time>
      </trkpt>
      <trkpt lat="46.5693" lon="6.09198">
        <ele>1102.77</ele>
        <time>2013-05-09T08:59:17Z</time>
      </trkpt>
      <trkpt lat="46.56926" lon="6.09196">
        <ele>1103.25</ele>
        <time>2013-05-09T08:59:18Z</time>
      </trkpt>
      <trkpt lat="46.56922" lon="6.09193">
        <ele>1103.25</ele>
        <time>2013-05-09T08:59:19Z</time>
      </trkpt>
      <trkpt lat="46.56918" lon="6.0919">
        <ele>1103.25</ele>
        <time>2013-05-09T08:59:20Z</time>
      </trkpt>
      <trkpt lat="46.56915" lon="6.09187">
        <ele>1103.25</ele>
        <time>2013-05-09T08:59:21Z</time>
      </trkpt>
      <trkpt lat="46.56905" lon="6.09176">
        <ele>1103.25</ele>
        <time>2013-05-09T08:59:24Z</time>
      </trkpt>
      <trkpt lat="46.56901" lon="6.09172">
        <ele>1103.25</ele>
        <time>2013-05-09T08:59:25Z</time>
      </trkpt>
      <trkpt lat="46.56895" lon="6.09164">
        <ele>1103.25</ele>
        <time>2013-05-09T08:59:27Z</time>
      </trkpt>
      <trkpt lat="46.56875" lon="6.09131">
        <ele>1105.17</ele>
        <time>2013-05-09T08:59:35Z</time>
      </trkpt>
      <trkpt lat="46.56873" lon="6.09128">
        <ele>1105.65</ele>
        <time>2013-05-09T08:59:36Z</time>
      </trkpt>
      <trkpt lat="46.5685" lon="6.09085">
        <ele>1106.61</ele>
        <time>2013-05-09T08:59:47Z</time>
      </trkpt>
      <trkpt lat="46.56823" lon="6.09015">
        <ele>1105.65</ele>
        <time>2013-05-09T09:00:00Z</time>
      </trkpt>
      <trkpt lat="46.56821" lon="6.0901">
        <ele>1106.13</ele>
        <time>2013-05-09T09:00:01Z</time>
      </trkpt>
      <trkpt lat="46.56819" lon="6.09004">
        <ele>1105.65</ele>
        <time>2013-05-09T09:00:02Z</time>
      </trkpt>
      <trkpt lat="46.56815" lon="6.08993">
        <ele>1105.65</ele>
        <time>2013-05-09T09:00:04Z</time>
      </trkpt>
      <trkpt lat="46.56813" lon="6.08988">
        <ele>1105.65</ele>
        <time>2013-05-09T09:00:05Z</time>
      </trkpt>
      <trkpt lat="46.56803" lon="6.08959">
        <ele>1105.65</ele>
        <time>2013-05-09T09:00:10Z</time>
      </trkpt>
      <trkpt lat="46.56799" lon="6.08948">
        <ele>1105.65</ele>
        <time>2013-05-09T09:00:12Z</time>
      </trkpt>
      <trkpt lat="46.56784" lon="6.08925">
        <ele>1105.17</ele>
        <time>2013-05-09T09:00:17Z</time>
      </trkpt>
      <trkpt lat="46.56781" lon="6.08922">
        <ele>1105.17</ele>
        <time>2013-05-09T09:00:18Z</time>
      </trkpt>
      <trkpt lat="46.56778" lon="6.0892">
        <ele>1105.17</ele>
        <time>2013-05-09T09:00:19Z</time>
      </trkpt>
      <trkpt lat="46.56774" lon="6.08918">
        <ele>1105.17</ele>
        <time>2013-05-09T09:00:20Z</time>
      </trkpt>
      <trkpt lat="46.56771" lon="6.08915">
        <ele>1105.17</ele>
        <time>2013-05-09T09:00:21Z</time>
      </trkpt>
      <trkpt lat="46.56745" lon="6.08873">
        <ele>1103.25</ele>
        <time>2013-05-09T09:00:31Z</time>
      </trkpt>
      <trkpt lat="46.56718" lon="6.08799">
        <ele>1100.37</ele>
        <time>2013-05-09T09:00:41Z</time>
      </trkpt>
      <trkpt lat="46.56716" lon="6.08791">
        <ele>1099.89</ele>
        <time>2013-05-09T09:00:42Z</time>
      </trkpt>
      <trkpt lat="46.56714" lon="6.08783">
        <ele>1099.89</ele>
        <time>2013-05-09T09:00:43Z</time>
      </trkpt>
      <trkpt lat="46.56687" lon="6.0871">
        <ele>1097.96</ele>
        <time>2013-05-09T09:00:51Z</time>
      </trkpt>
      <trkpt lat="46.56683" lon="6.08701">
        <ele>1097.96</ele>
        <time>2013-05-09T09:00:52Z</time>
      </trkpt>
      <trkpt lat="46.56674" lon="6.08682">
        <ele>1097</ele>
        <time>2013-05-09T09:00:54Z</time>
      </trkpt>
      <trkpt lat="46.56656" lon="6.08627">
        <ele>1097</ele>
        <time>2013-05-09T09:00:59Z</time>
      </trkpt>
      <trkpt lat="46.56628" lon="6.08574">
        <ele>1098.44</ele>
        <time>2013-05-09T09:01:05Z</time>
      </trkpt>
      <trkpt lat="46.56621" lon="6.08554">
        <ele>1098.92</ele>
        <time>2013-05-09T09:01:07Z</time>
      </trkpt>
      <trkpt lat="46.56615" lon="6.08533">
        <ele>1098.92</ele>
        <time>2013-05-09T09:01:09Z</time>
      </trkpt>
      <trkpt lat="46.56609" lon="6.08513">
        <ele>1099.89</ele>
        <time>2013-05-09T09:01:11Z</time>
      </trkpt>
      <trkpt lat="46.56607" lon="6.08503">
        <ele>1099.89</ele>
        <time>2013-05-09T09:01:12Z</time>
      </trkpt>
      <trkpt lat="46.56603" lon="6.08475">
        <ele>1101.33</ele>
        <time>2013-05-09T09:01:15Z</time>
      </trkpt>
      <trkpt lat="46.56603" lon="6.08467">
        <ele>1101.81</ele>
        <time>2013-05-09T09:01:16Z</time>
      </trkpt>
      <trkpt lat="46.56603" lon="6.0846">
        <ele>1101.81</ele>
        <time>2013-05-09T09:01:17Z</time>
      </trkpt>
      <trkpt lat="46.56603" lon="6.08453">
        <ele>1102.29</ele>
        <time>2013-05-09T09:01:18Z</time>
      </trkpt>
      <trkpt lat="46.56604" lon="6.08447">
        <ele>1102.29</ele>
        <time>2013-05-09T09:01:19Z</time>
      </trkpt>
      <trkpt lat="46.56605" lon="6.08442">
        <ele>1102.29</ele>
        <time>2013-05-09T09:01:20Z</time>
      </trkpt>
      <trkpt lat="46.56605" lon="6.08436">
        <ele>1102.77</ele>
        <time>2013-05-09T09:01:21Z</time>
      </trkpt>
      <trkpt lat="46.56606" lon="6.08431">
        <ele>1102.29</ele>
        <time>2013-05-09T09:01:22Z</time>
      </trkpt>
      <trkpt lat="46.56607" lon="6.08426">
        <ele>1102.29</ele>
        <time>2013-05-09T09:01:23Z</time>
      </trkpt>
      <trkpt lat="46.56609" lon="6.08405">
        <ele>1101.81</ele>
        <time>2013-05-09T09:01:27Z</time>
      </trkpt>
      <trkpt lat="46.5661" lon="6.08399">
        <ele>1101.81</ele>
        <time>2013-05-09T09:01:28Z</time>
      </trkpt>
      <trkpt lat="46.56612" lon="6.08394">
        <ele>1101.33</ele>
        <time>2013-05-09T09:01:29Z</time>
      </trkpt>
      <trkpt lat="46.56615" lon="6.08388">
        <ele>1101.33</ele>
        <time>2013-05-09T09:01:30Z</time>
      </trkpt>
      <trkpt lat="46.56617" lon="6.08383">
        <ele>1101.33</ele>
        <time>2013-05-09T09:01:31Z</time>
      </trkpt>
      <trkpt lat="46.56619" lon="6.08377">
        <ele>1101.33</ele>
        <time>2013-05-09T09:01:32Z</time>
      </trkpt>
      <trkpt lat="46.56622" lon="6.0837">
        <ele>1100.85</ele>
        <time>2013-05-09T09:01:33Z</time>
      </trkpt>
      <trkpt lat="46.56651" lon="6.08302">
        <ele>1098.44</ele>
        <time>2013-05-09T09:01:43Z</time>
      </trkpt>
      <trkpt lat="46.56654" lon="6.08294">
        <ele>1098.44</ele>
        <time>2013-05-09T09:01:44Z</time>
      </trkpt>
      <trkpt lat="46.56656" lon="6.08285">
        <ele>1097.96</ele>
        <time>2013-05-09T09:01:45Z</time>
      </trkpt>
      <trkpt lat="46.56659" lon="6.08277">
        <ele>1097.48</ele>
        <time>2013-05-09T09:01:46Z</time>
      </trkpt>
      <trkpt lat="46.56662" lon="6.08269">
        <ele>1097.48</ele>
        <time>2013-05-09T09:01:47Z</time>
      </trkpt>
      <trkpt lat="46.56696" lon="6.08171">
        <ele>1094.12</ele>
        <time>2013-05-09T09:01:58Z</time>
      </trkpt>
      <trkpt lat="46.56704" lon="6.08151">
        <ele>1092.68</ele>
        <time>2013-05-09T09:02:00Z</time>
      </trkpt>
      <trkpt lat="46.56732" lon="6.08079">
        <ele>1092.68</ele>
        <time>2013-05-09T09:02:08Z</time>
      </trkpt>
      <trkpt lat="46.56733" lon="6.0807">
        <ele>1093.16</ele>
        <time>2013-05-09T09:02:09Z</time>
      </trkpt>
      <trkpt lat="46.56734" lon="6.08062">
        <ele>1093.16</ele>
        <time>2013-05-09T09:02:10Z</time>
      </trkpt>
      <trkpt lat="46.56734" lon="6.08046">
        <ele>1093.64</ele>
        <time>2013-05-09T09:02:12Z</time>
      </trkpt>
      <trkpt lat="46.56733" lon="6.08039">
        <ele>1093.64</ele>
        <time>2013-05-09T09:02:13Z</time>
      </trkpt>
      <trkpt lat="46.56732" lon="6.08031">
        <ele>1094.12</ele>
        <time>2013-05-09T09:02:14Z</time>
      </trkpt>
      <trkpt lat="46.5673" lon="6.08025">
        <ele>1094.12</ele>
        <time>2013-05-09T09:02:15Z</time>
      </trkpt>
      <trkpt lat="46.56727" lon="6.0802">
        <ele>1094.6</ele>
        <time>2013-05-09T09:02:16Z</time>
      </trkpt>
      <trkpt lat="46.56715" lon="6.07999">
        <ele>1095.56</ele>
        <time>2013-05-09T09:02:20Z</time>
      </trkpt>
      <trkpt lat="46.56711" lon="6.07994">
        <ele>1096.04</ele>
        <time>2013-05-09T09:02:21Z</time>
      </trkpt>
      <trkpt lat="46.56708" lon="6.07988">
        <ele>1095.56</ele>
        <time>2013-05-09T09:02:22Z</time>
      </trkpt>
      <trkpt lat="46.56687" lon="6.07963">
        <ele>1097.48</ele>
        <time>2013-05-09T09:02:31Z</time>
      </trkpt>
      <trkpt lat="46.56684" lon="6.07965">
        <ele>1097.48</ele>
        <time>2013-05-09T09:02:32Z</time>
      </trkpt>
      <trkpt lat="46.56681" lon="6.07967">
        <ele>1097.48</ele>
        <time>2013-05-09T09:02:33Z</time>
      </trkpt>
      <trkpt lat="46.56678" lon="6.0797">
        <ele>1097.48</ele>
        <time>2013-05-09T09:02:34Z</time>
      </trkpt>
      <trkpt lat="46.56675" lon="6.07973">
        <ele>1097.48</ele>
        <time>2013-05-09T09:02:35Z</time>
      </trkpt>
      <trkpt lat="46.56673" lon="6.07977">
        <ele>1097.48</ele>
        <time>2013-05-09T09:02:36Z</time>
      </trkpt>
      <trkpt lat="46.56638" lon="6.08007">
        <ele>1096.04</ele>
        <time>2013-05-09T09:02:50Z</time>
      </trkpt>
      <trkpt lat="46.56622" lon="6.08002">
        <ele>1095.08</ele>
        <time>2013-05-09T09:03:02Z</time>
      </trkpt>
      <trkpt lat="46.56613" lon="6.07984">
        <ele>1093.64</ele>
        <time>2013-05-09T09:03:19Z</time>
      </trkpt>
      <trkpt lat="46.56592" lon="6.07933">
        <ele>1089.79</ele>
        <time>2013-05-09T09:03:26Z</time>
      </trkpt>
      <trkpt lat="46.56568" lon="6.07887">
        <ele>1086.91</ele>
        <time>2013-05-09T09:03:31Z</time>
      </trkpt>
      <trkpt lat="46.56546" lon="6.07853">
        <ele>1084.02</ele>
        <time>2013-05-09T09:03:35Z</time>
      </trkpt>
      <trkpt lat="46.56538" lon="6.07848">
        <ele>1082.58</ele>
        <time>2013-05-09T09:03:36Z</time>
      </trkpt>
      <trkpt lat="46.5653" lon="6.07845">
        <ele>1081.62</ele>
        <time>2013-05-09T09:03:37Z</time>
      </trkpt>
      <trkpt lat="46.5652" lon="6.07845">
        <ele>1080.66</ele>
        <time>2013-05-09T09:03:38Z</time>
      </trkpt>
      <trkpt lat="46.56511" lon="6.07846">
        <ele>1080.18</ele>
        <time>2013-05-09T09:03:39Z</time>
      </trkpt>
      <trkpt lat="46.56502" lon="6.07849">
        <ele>1079.7</ele>
        <time>2013-05-09T09:03:40Z</time>
      </trkpt>
      <trkpt lat="46.56492" lon="6.07853">
        <ele>1079.22</ele>
        <time>2013-05-09T09:03:41Z</time>
      </trkpt>
      <trkpt lat="46.56464" lon="6.07866">
        <ele>1077.29</ele>
        <time>2013-05-09T09:03:44Z</time>
      </trkpt>
      <trkpt lat="46.56454" lon="6.07868">
        <ele>1076.33</ele>
        <time>2013-05-09T09:03:45Z</time>
      </trkpt>
      <trkpt lat="46.56444" lon="6.07869">
        <ele>1075.85</ele>
        <time>2013-05-09T09:03:46Z</time>
      </trkpt>
      <trkpt lat="46.56434" lon="6.07868">
        <ele>1075.85</ele>
        <time>2013-05-09T09:03:47Z</time>
      </trkpt>
      <trkpt lat="46.56425" lon="6.07865">
        <ele>1075.85</ele>
        <time>2013-05-09T09:03:48Z</time>
      </trkpt>
      <trkpt lat="46.56416" lon="6.07862">
        <ele>1075.85</ele>
        <time>2013-05-09T09:03:49Z</time>
      </trkpt>
      <trkpt lat="46.56407" lon="6.07858">
        <ele>1075.85</ele>
        <time>2013-05-09T09:03:50Z</time>
      </trkpt>
      <trkpt lat="46.56399" lon="6.07854">
        <ele>1076.33</ele>
        <time>2013-05-09T09:03:51Z</time>
      </trkpt>
      <trkpt lat="46.56354" lon="6.07829">
        <ele>1078.74</ele>
        <time>2013-05-09T09:03:58Z</time>
      </trkpt>
      <trkpt lat="46.56349" lon="6.07824">
        <ele>1079.22</ele>
        <time>2013-05-09T09:03:59Z</time>
      </trkpt>
      <trkpt lat="46.56344" lon="6.07819">
        <ele>1079.7</ele>
        <time>2013-05-09T09:04:00Z</time>
      </trkpt>
      <trkpt lat="46.5634" lon="6.07813">
        <ele>1080.66</ele>
        <time>2013-05-09T09:04:01Z</time>
      </trkpt>
      <trkpt lat="46.56337" lon="6.07806">
        <ele>1080.66</ele>
        <time>2013-05-09T09:04:02Z</time>
      </trkpt>
      <trkpt lat="46.56334" lon="6.07799">
        <ele>1080.66</ele>
        <time>2013-05-09T09:04:03Z</time>
      </trkpt>
      <trkpt lat="46.56331" lon="6.07791">
        <ele>1081.14</ele>
        <time>2013-05-09T09:04:04Z</time>
      </trkpt>
      <trkpt lat="46.56328" lon="6.07784">
        <ele>1081.14</ele>
        <time>2013-05-09T09:04:05Z</time>
      </trkpt>
      <trkpt lat="46.56303" lon="6.0768">
        <ele>1084.02</ele>
        <time>2013-05-09T09:04:18Z</time>
      </trkpt>
      <trkpt lat="46.56301" lon="6.07663">
        <ele>1083.54</ele>
        <time>2013-05-09T09:04:20Z</time>
      </trkpt>
      <trkpt lat="46.56302" lon="6.07654">
        <ele>1083.06</ele>
        <time>2013-05-09T09:04:21Z</time>
      </trkpt>
      <trkpt lat="46.56302" lon="6.07646">
        <ele>1083.06</ele>
        <time>2013-05-09T09:04:22Z</time>
      </trkpt>
      <trkpt lat="46.56304" lon="6.07637">
        <ele>1082.58</ele>
        <time>2013-05-09T09:04:23Z</time>
      </trkpt>
      <trkpt lat="46.56306" lon="6.07629">
        <ele>1082.58</ele>
        <time>2013-05-09T09:04:24Z</time>
      </trkpt>
      <trkpt lat="46.56309" lon="6.0762">
        <ele>1082.1</ele>
        <time>2013-05-09T09:04:25Z</time>
      </trkpt>
      <trkpt lat="46.56312" lon="6.07612">
        <ele>1081.62</ele>
        <time>2013-05-09T09:04:26Z</time>
      </trkpt>
      <trkpt lat="46.56326" lon="6.07579">
        <ele>1080.66</ele>
        <time>2013-05-09T09:04:30Z</time>
      </trkpt>
      <trkpt lat="46.56327" lon="6.07571">
        <ele>1080.66</ele>
        <time>2013-05-09T09:04:31Z</time>
      </trkpt>
      <trkpt lat="46.56327" lon="6.07563">
        <ele>1080.18</ele>
        <time>2013-05-09T09:04:32Z</time>
      </trkpt>
      <trkpt lat="46.56326" lon="6.07556">
        <ele>1080.66</ele>
        <time>2013-05-09T09:04:33Z</time>
      </trkpt>
      <trkpt lat="46.56323" lon="6.07551">
        <ele>1081.62</ele>
        <time>2013-05-09T09:04:34Z</time>
      </trkpt>
      <trkpt lat="46.56321" lon="6.07549">
        <ele>1082.1</ele>
        <time>2013-05-09T09:04:35Z</time>
      </trkpt>
      <trkpt lat="46.56319" lon="6.07548">
        <ele>1082.58</ele>
        <time>2013-05-09T09:04:36Z</time>
      </trkpt>
      <trkpt lat="46.56317" lon="6.07547">
        <ele>1083.06</ele>
        <time>2013-05-09T09:04:37Z</time>
      </trkpt>
      <trkpt lat="46.56315" lon="6.07548">
        <ele>1083.54</ele>
        <time>2013-05-09T09:04:38Z</time>
      </trkpt>
      <trkpt lat="46.56313" lon="6.07547">
        <ele>1083.54</ele>
        <time>2013-05-09T09:04:39Z</time>
      </trkpt>
      <trkpt lat="46.56311" lon="6.07547">
        <ele>1083.54</ele>
        <time>2013-05-09T09:04:40Z</time>
      </trkpt>
      <trkpt lat="46.56309" lon="6.07547">
        <ele>1084.02</ele>
        <time>2013-05-09T09:04:41Z</time>
      </trkpt>
      <trkpt lat="46.56301" lon="6.07546">
        <ele>1084.5</ele>
        <time>2013-05-09T09:04:45Z</time>
      </trkpt>
      <trkpt lat="46.56299" lon="6.07548">
        <ele>1084.5</ele>
        <time>2013-05-09T09:04:46Z</time>
      </trkpt>
      <trkpt lat="46.56297" lon="6.07549">
        <ele>1084.99</ele>
        <time>2013-05-09T09:04:47Z</time>
      </trkpt>
      <trkpt lat="46.56296" lon="6.07551">
        <ele>1085.47</ele>
        <time>2013-05-09T09:04:48Z</time>
      </trkpt>
      <trkpt lat="46.56294" lon="6.07554">
        <ele>1085.47</ele>
        <time>2013-05-09T09:04:49Z</time>
      </trkpt>
      <trkpt lat="46.56272" lon="6.07586">
        <ele>1087.87</ele>
        <time>2013-05-09T09:05:03Z</time>
      </trkpt>
      <trkpt lat="46.56257" lon="6.0763">
        <ele>1090.75</ele>
        <time>2013-05-09T09:05:18Z</time>
      </trkpt>
      <trkpt lat="46.56244" lon="6.07679">
        <ele>1094.12</ele>
        <time>2013-05-09T09:05:33Z</time>
      </trkpt>
      <trkpt lat="46.56232" lon="6.0773">
        <ele>1097</ele>
        <time>2013-05-09T09:05:49Z</time>
      </trkpt>
      <trkpt lat="46.56224" lon="6.07764">
        <ele>1099.4</ele>
        <time>2013-05-09T09:06:01Z</time>
      </trkpt>
      <trkpt lat="46.56214" lon="6.07805">
        <ele>1102.29</ele>
        <time>2013-05-09T09:06:14Z</time>
      </trkpt>
      <trkpt lat="46.56207" lon="6.07825">
        <ele>1104.21</ele>
        <time>2013-05-09T09:06:22Z</time>
      </trkpt>
      <trkpt lat="46.56205" lon="6.07835">
        <ele>1104.69</ele>
        <time>2013-05-09T09:06:26Z</time>
      </trkpt>
      <trkpt lat="46.56191" lon="6.07871">
        <ele>1107.1</ele>
        <time>2013-05-09T09:06:38Z</time>
      </trkpt>
      <trkpt lat="46.56177" lon="6.07897">
        <ele>1109.5</ele>
        <time>2013-05-09T09:06:48Z</time>
      </trkpt>
      <trkpt lat="46.56159" lon="6.07922">
        <ele>1111.42</ele>
        <time>2013-05-09T09:06:59Z</time>
      </trkpt>
      <trkpt lat="46.56145" lon="6.07953">
        <ele>1113.34</ele>
        <time>2013-05-09T09:07:11Z</time>
      </trkpt>
      <trkpt lat="46.56138" lon="6.07994">
        <ele>1115.27</ele>
        <time>2013-05-09T09:07:25Z</time>
      </trkpt>
      <trkpt lat="46.56137" lon="6.08">
        <ele>1117.67</ele>
        <time>2013-05-09T09:07:27Z</time>
      </trkpt>
      <trkpt lat="46.56137" lon="6.08046">
        <ele>1119.59</ele>
        <time>2013-05-09T09:07:42Z</time>
      </trkpt>
      <trkpt lat="46.56138" lon="6.08089">
        <ele>1122</ele>
        <time>2013-05-09T09:07:56Z</time>
      </trkpt>
      <trkpt lat="46.56139" lon="6.08092">
        <ele>1122.48</ele>
        <time>2013-05-09T09:07:57Z</time>
      </trkpt>
      <trkpt lat="46.56139" lon="6.08095">
        <ele>1122.48</ele>
        <time>2013-05-09T09:07:58Z</time>
      </trkpt>
      <trkpt lat="46.56139" lon="6.08098">
        <ele>1122.48</ele>
        <time>2013-05-09T09:07:59Z</time>
      </trkpt>
      <trkpt lat="46.56139" lon="6.08101">
        <ele>1122.96</ele>
        <time>2013-05-09T09:08:00Z</time>
      </trkpt>
      <trkpt lat="46.56139" lon="6.08104">
        <ele>1122.96</ele>
        <time>2013-05-09T09:08:01Z</time>
      </trkpt>
      <trkpt lat="46.5614" lon="6.0812">
        <ele>1123.92</ele>
        <time>2013-05-09T09:08:06Z</time>
      </trkpt>
      <trkpt lat="46.5614" lon="6.08123">
        <ele>1124.4</ele>
        <time>2013-05-09T09:08:07Z</time>
      </trkpt>
      <trkpt lat="46.5614" lon="6.08126">
        <ele>1124.4</ele>
        <time>2013-05-09T09:08:08Z</time>
      </trkpt>
      <trkpt lat="46.5614" lon="6.08129">
        <ele>1124.4</ele>
        <time>2013-05-09T09:08:09Z</time>
      </trkpt>
      <trkpt lat="46.56141" lon="6.08133">
        <ele>1124.88</ele>
        <time>2013-05-09T09:08:10Z</time>
      </trkpt>
      <trkpt lat="46.56141" lon="6.08136">
        <ele>1124.88</ele>
        <time>2013-05-09T09:08:11Z</time>
      </trkpt>
      <trkpt lat="46.56141" lon="6.08139">
        <ele>1125.36</ele>
        <time>2013-05-09T09:08:12Z</time>
      </trkpt>
      <trkpt lat="46.56145" lon="6.08162">
        <ele>1126.32</ele>
        <time>2013-05-09T09:08:19Z</time>
      </trkpt>
      <trkpt lat="46.56149" lon="6.08201">
        <ele>1129.21</ele>
        <time>2013-05-09T09:08:32Z</time>
      </trkpt>
      <trkpt lat="46.56149" lon="6.08207">
        <ele>1129.21</ele>
        <time>2013-05-09T09:08:34Z</time>
      </trkpt>
      <trkpt lat="46.56149" lon="6.0821">
        <ele>1129.69</ele>
        <time>2013-05-09T09:08:35Z</time>
      </trkpt>
      <trkpt lat="46.56148" lon="6.08213">
        <ele>1129.69</ele>
        <time>2013-05-09T09:08:36Z</time>
      </trkpt>
      <trkpt lat="46.56148" lon="6.08215">
        <ele>1130.17</ele>
        <time>2013-05-09T09:08:37Z</time>
      </trkpt>
      <trkpt lat="46.56148" lon="6.08218">
        <ele>1130.17</ele>
        <time>2013-05-09T09:08:38Z</time>
      </trkpt>
      <trkpt lat="46.56148" lon="6.08221">
        <ele>1130.65</ele>
        <time>2013-05-09T09:08:39Z</time>
      </trkpt>
      <trkpt lat="46.56148" lon="6.08225">
        <ele>1130.65</ele>
        <time>2013-05-09T09:08:40Z</time>
      </trkpt>
      <trkpt lat="46.56147" lon="6.08228">
        <ele>1131.13</ele>
        <time>2013-05-09T09:08:41Z</time>
      </trkpt>
      <trkpt lat="46.56147" lon="6.08231">
        <ele>1131.13</ele>
        <time>2013-05-09T09:08:42Z</time>
      </trkpt>
      <trkpt lat="46.56147" lon="6.08234">
        <ele>1131.61</ele>
        <time>2013-05-09T09:08:43Z</time>
      </trkpt>
      <trkpt lat="46.56146" lon="6.0825">
        <ele>1132.57</ele>
        <time>2013-05-09T09:08:49Z</time>
      </trkpt>
      <trkpt lat="46.56146" lon="6.08254">
        <ele>1132.57</ele>
        <time>2013-05-09T09:08:50Z</time>
      </trkpt>
      <trkpt lat="46.56146" lon="6.08257">
        <ele>1133.05</ele>
        <time>2013-05-09T09:08:51Z</time>
      </trkpt>
      <trkpt lat="46.56145" lon="6.08267">
        <ele>1133.53</ele>
        <time>2013-05-09T09:08:54Z</time>
      </trkpt>
      <trkpt lat="46.56144" lon="6.0827">
        <ele>1134.01</ele>
        <time>2013-05-09T09:08:55Z</time>
      </trkpt>
      <trkpt lat="46.56143" lon="6.08273">
        <ele>1134.01</ele>
        <time>2013-05-09T09:08:56Z</time>
      </trkpt>
      <trkpt lat="46.56142" lon="6.08277">
        <ele>1134.01</ele>
        <time>2013-05-09T09:08:57Z</time>
      </trkpt>
      <trkpt lat="46.56142" lon="6.0828">
        <ele>1134.49</ele>
        <time>2013-05-09T09:08:58Z</time>
      </trkpt>
      <trkpt lat="46.56142" lon="6.08283">
        <ele>1134.49</ele>
        <time>2013-05-09T09:08:59Z</time>
      </trkpt>
      <trkpt lat="46.56143" lon="6.08286">
        <ele>1134.97</ele>
        <time>2013-05-09T09:09:00Z</time>
      </trkpt>
      <trkpt lat="46.56144" lon="6.08288">
        <ele>1134.97</ele>
        <time>2013-05-09T09:09:01Z</time>
      </trkpt>
      <trkpt lat="46.56144" lon="6.08291">
        <ele>1134.97</ele>
        <time>2013-05-09T09:09:02Z</time>
      </trkpt>
      <trkpt lat="46.56144" lon="6.08295">
        <ele>1135.45</ele>
        <time>2013-05-09T09:09:03Z</time>
      </trkpt>
      <trkpt lat="46.56145" lon="6.08299">
        <ele>1135.45</ele>
        <time>2013-05-09T09:09:04Z</time>
      </trkpt>
      <trkpt lat="46.56146" lon="6.08327">
        <ele>1139.3</ele>
        <time>2013-05-09T09:09:13Z</time>
      </trkpt>
      <trkpt lat="46.56146" lon="6.0833">
        <ele>1138.34</ele>
        <time>2013-05-09T09:09:14Z</time>
      </trkpt>
      <trkpt lat="46.56148" lon="6.08357">
        <ele>1139.78</ele>
        <time>2013-05-09T09:09:23Z</time>
      </trkpt>
      <trkpt lat="46.56149" lon="6.08359">
        <ele>1139.78</ele>
        <time>2013-05-09T09:09:24Z</time>
      </trkpt>
      <trkpt lat="46.56149" lon="6.08363">
        <ele>1139.78</ele>
        <time>2013-05-09T09:09:25Z</time>
      </trkpt>
      <trkpt lat="46.56149" lon="6.08366">
        <ele>1140.26</ele>
        <time>2013-05-09T09:09:26Z</time>
      </trkpt>
      <trkpt lat="46.56149" lon="6.0837">
        <ele>1140.74</ele>
        <time>2013-05-09T09:09:27Z</time>
      </trkpt>
      <trkpt lat="46.56149" lon="6.08373">
        <ele>1140.74</ele>
        <time>2013-05-09T09:09:28Z</time>
      </trkpt>
      <trkpt lat="46.56149" lon="6.08377">
        <ele>1140.74</ele>
        <time>2013-05-09T09:09:29Z</time>
      </trkpt>
      <trkpt lat="46.5615" lon="6.08381">
        <ele>1141.22</ele>
        <time>2013-05-09T09:09:30Z</time>
      </trkpt>
      <trkpt lat="46.56144" lon="6.08424">
        <ele>1143.63</ele>
        <time>2013-05-09T09:09:42Z</time>
      </trkpt>
      <trkpt lat="46.56134" lon="6.08461">
        <ele>1146.51</ele>
        <time>2013-05-09T09:09:54Z</time>
      </trkpt>
      <trkpt lat="46.56119" lon="6.08498">
        <ele>1148.91</ele>
        <time>2013-05-09T09:10:05Z</time>
      </trkpt>
      <trkpt lat="46.56106" lon="6.08525">
        <ele>1151.32</ele>
        <time>2013-05-09T09:10:16Z</time>
      </trkpt>
      <trkpt lat="46.56085" lon="6.08541">
        <ele>1152.76</ele>
        <time>2013-05-09T09:10:29Z</time>
      </trkpt>
      <trkpt lat="46.56051" lon="6.08544">
        <ele>1154.68</ele>
        <time>2013-05-09T09:10:41Z</time>
      </trkpt>
      <trkpt lat="46.56024" lon="6.08526">
        <ele>1156.6</ele>
        <time>2013-05-09T09:10:53Z</time>
      </trkpt>
      <trkpt lat="46.56004" lon="6.08502">
        <ele>1158.05</ele>
        <time>2013-05-09T09:11:03Z</time>
      </trkpt>
      <trkpt lat="46.56002" lon="6.085">
        <ele>1158.53</ele>
        <time>2013-05-09T09:11:04Z</time>
      </trkpt>
      <trkpt lat="46.56" lon="6.08499">
        <ele>1159.01</ele>
        <time>2013-05-09T09:11:05Z</time>
      </trkpt>
      <trkpt lat="46.55999" lon="6.08497">
        <ele>1159.01</ele>
        <time>2013-05-09T09:11:06Z</time>
      </trkpt>
      <trkpt lat="46.55997" lon="6.08495">
        <ele>1159.49</ele>
        <time>2013-05-09T09:11:07Z</time>
      </trkpt>
      <trkpt lat="46.55995" lon="6.08494">
        <ele>1159.49</ele>
        <time>2013-05-09T09:11:08Z</time>
      </trkpt>
      <trkpt lat="46.55994" lon="6.08493">
        <ele>1159.49</ele>
        <time>2013-05-09T09:11:09Z</time>
      </trkpt>
      <trkpt lat="46.55992" lon="6.08492">
        <ele>1159.97</ele>
        <time>2013-05-09T09:11:10Z</time>
      </trkpt>
      <trkpt lat="46.5599" lon="6.08492">
        <ele>1159.97</ele>
        <time>2013-05-09T09:11:11Z</time>
      </trkpt>
      <trkpt lat="46.55984" lon="6.08492">
        <ele>1162.37</ele>
        <time>2013-05-09T09:11:14Z</time>
      </trkpt>
      <trkpt lat="46.55982" lon="6.08492">
        <ele>1161.41</ele>
        <time>2013-05-09T09:11:15Z</time>
      </trkpt>
      <trkpt lat="46.5598" lon="6.08493">
        <ele>1161.41</ele>
        <time>2013-05-09T09:11:16Z</time>
      </trkpt>
      <trkpt lat="46.55978" lon="6.08494">
        <ele>1161.41</ele>
        <time>2013-05-09T09:11:17Z</time>
      </trkpt>
      <trkpt lat="46.55976" lon="6.08495">
        <ele>1161.41</ele>
        <time>2013-05-09T09:11:18Z</time>
      </trkpt>
      <trkpt lat="46.55952" lon="6.0849">
        <ele>1163.81</ele>
        <time>2013-05-09T09:11:29Z</time>
      </trkpt>
      <trkpt lat="46.55928" lon="6.08469">
        <ele>1166.22</ele>
        <time>2013-05-09T09:11:40Z</time>
      </trkpt>
      <trkpt lat="46.55899" lon="6.08448">
        <ele>1169.1</ele>
        <time>2013-05-09T09:11:53Z</time>
      </trkpt>
      <trkpt lat="46.55875" lon="6.08427">
        <ele>1171.5</ele>
        <time>2013-05-09T09:12:05Z</time>
      </trkpt>
      <trkpt lat="46.55855" lon="6.084">
        <ele>1174.39</ele>
        <time>2013-05-09T09:12:17Z</time>
      </trkpt>
      <trkpt lat="46.55828" lon="6.08387">
        <ele>1177.27</ele>
        <time>2013-05-09T09:12:29Z</time>
      </trkpt>
      <trkpt lat="46.55801" lon="6.08386">
        <ele>1180.16</ele>
        <time>2013-05-09T09:12:41Z</time>
      </trkpt>
      <trkpt lat="46.55772" lon="6.08388">
        <ele>1183.04</ele>
        <time>2013-05-09T09:12:54Z</time>
      </trkpt>
      <trkpt lat="46.55747" lon="6.08374">
        <ele>1185.44</ele>
        <time>2013-05-09T09:13:05Z</time>
      </trkpt>
      <trkpt lat="46.55721" lon="6.08367">
        <ele>1189.29</ele>
        <time>2013-05-09T09:13:15Z</time>
      </trkpt>
      <trkpt lat="46.55715" lon="6.08373">
        <ele>1188.81</ele>
        <time>2013-05-09T09:13:19Z</time>
      </trkpt>
      <trkpt lat="46.55714" lon="6.08375">
        <ele>1188.81</ele>
        <time>2013-05-09T09:13:20Z</time>
      </trkpt>
      <trkpt lat="46.55713" lon="6.08377">
        <ele>1189.29</ele>
        <time>2013-05-09T09:13:21Z</time>
      </trkpt>
      <trkpt lat="46.55711" lon="6.08382">
        <ele>1189.29</ele>
        <time>2013-05-09T09:13:23Z</time>
      </trkpt>
      <trkpt lat="46.55711" lon="6.08392">
        <ele>1190.73</ele>
        <time>2013-05-09T09:13:28Z</time>
      </trkpt>
      <trkpt lat="46.55728" lon="6.08414">
        <ele>1192.65</ele>
        <time>2013-05-09T09:13:41Z</time>
      </trkpt>
      <trkpt lat="46.5573" lon="6.08413">
        <ele>1192.65</ele>
        <time>2013-05-09T09:13:43Z</time>
      </trkpt>
      <trkpt lat="46.55731" lon="6.08412">
        <ele>1192.65</ele>
        <time>2013-05-09T09:13:44Z</time>
      </trkpt>
      <trkpt lat="46.55734" lon="6.08411">
        <ele>1193.13</ele>
        <time>2013-05-09T09:13:46Z</time>
      </trkpt>
      <trkpt lat="46.55743" lon="6.0841">
        <ele>1193.13</ele>
        <time>2013-05-09T09:13:58Z</time>
      </trkpt>
      <trkpt lat="46.55747" lon="6.0841">
        <ele>1193.13</ele>
        <time>2013-05-09T09:14:08Z</time>
      </trkpt>
      <trkpt lat="46.55747" lon="6.0841">
        <ele>1193.61</ele>
        <time>2013-05-09T09:14:43Z</time>
      </trkpt>
      <trkpt lat="46.55748" lon="6.08409">
        <ele>1193.61</ele>
        <time>2013-05-09T09:15:15Z</time>
      </trkpt>
      <trkpt lat="46.55748" lon="6.08409">
        <ele>1193.61</ele>
        <time>2013-05-09T09:15:41Z</time>
      </trkpt>
      <trkpt lat="46.55748" lon="6.08409">
        <ele>1194.09</ele>
        <time>2013-05-09T09:16:03Z</time>
      </trkpt>
      <trkpt lat="46.55748" lon="6.08415">
        <ele>1194.09</ele>
        <time>2013-05-09T09:16:12Z</time>
      </trkpt>
      <trkpt lat="46.55748" lon="6.08415">
        <ele>1194.58</ele>
        <time>2013-05-09T09:16:38Z</time>
      </trkpt>
      <trkpt lat="46.55748" lon="6.08414">
        <ele>1194.09</ele>
        <time>2013-05-09T09:16:55Z</time>
      </trkpt>
      <trkpt lat="46.55748" lon="6.08414">
        <ele>1194.58</ele>
        <time>2013-05-09T09:17:18Z</time>
      </trkpt>
      <trkpt lat="46.55748" lon="6.08414">
        <ele>1194.58</ele>
        <time>2013-05-09T09:17:41Z</time>
      </trkpt>
      <trkpt lat="46.55748" lon="6.08414">
        <ele>1194.58</ele>
        <time>2013-05-09T09:18:11Z</time>
      </trkpt>
      <trkpt lat="46.55748" lon="6.08414">
        <ele>1194.58</ele>
        <time>2013-05-09T09:18:41Z</time>
      </trkpt>
      <trkpt lat="46.55749" lon="6.08416">
        <ele>1194.58</ele>
        <time>2013-05-09T09:19:04Z</time>
      </trkpt>
      <trkpt lat="46.55749" lon="6.08416">
        <ele>1195.06</ele>
        <time>2013-05-09T09:19:28Z</time>
      </trkpt>
      <trkpt lat="46.55749" lon="6.08415">
        <ele>1194.58</ele>
        <time>2013-05-09T09:19:55Z</time>
      </trkpt>
      <trkpt lat="46.55749" lon="6.08415">
        <ele>1194.58</ele>
        <time>2013-05-09T09:20:11Z</time>
      </trkpt>
      <trkpt lat="46.55749" lon="6.08415">
        <ele>1194.58</ele>
        <time>2013-05-09T09:20:43Z</time>
      </trkpt>
      <trkpt lat="46.55749" lon="6.08415">
        <ele>1196.02</ele>
        <time>2013-05-09T09:21:19Z</time>
      </trkpt>
      <trkpt lat="46.55749" lon="6.08415">
        <ele>1194.58</ele>
        <time>2013-05-09T09:21:50Z</time>
      </trkpt>
      <trkpt lat="46.55748" lon="6.08415">
        <ele>1195.06</ele>
        <time>2013-05-09T09:22:16Z</time>
      </trkpt>
      <trkpt lat="46.55749" lon="6.08415">
        <ele>1195.06</ele>
        <time>2013-05-09T09:22:44Z</time>
      </trkpt>
      <trkpt lat="46.55749" lon="6.08416">
        <ele>1195.06</ele>
        <time>2013-05-09T09:23:03Z</time>
      </trkpt>
      <trkpt lat="46.55752" lon="6.08417">
        <ele>1195.06</ele>
        <time>2013-05-09T09:23:09Z</time>
      </trkpt>
      <trkpt lat="46.55754" lon="6.08417">
        <ele>1195.06</ele>
        <time>2013-05-09T09:23:10Z</time>
      </trkpt>
      <trkpt lat="46.55767" lon="6.0842">
        <ele>1196.02</ele>
        <time>2013-05-09T09:23:17Z</time>
      </trkpt>
      <trkpt lat="46.55774" lon="6.08424">
        <ele>1196.5</ele>
        <time>2013-05-09T09:23:21Z</time>
      </trkpt>
      <trkpt lat="46.55777" lon="6.08424">
        <ele>1196.5</ele>
        <time>2013-05-09T09:23:22Z</time>
      </trkpt>
      <trkpt lat="46.55779" lon="6.08425">
        <ele>1196.5</ele>
        <time>2013-05-09T09:23:23Z</time>
      </trkpt>
      <trkpt lat="46.55781" lon="6.08426">
        <ele>1196.5</ele>
        <time>2013-05-09T09:23:24Z</time>
      </trkpt>
      <trkpt lat="46.55783" lon="6.08428">
        <ele>1196.5</ele>
        <time>2013-05-09T09:23:25Z</time>
      </trkpt>
      <trkpt lat="46.55784" lon="6.08429">
        <ele>1196.5</ele>
        <time>2013-05-09T09:23:26Z</time>
      </trkpt>
      <trkpt lat="46.55786" lon="6.08431">
        <ele>1196.5</ele>
        <time>2013-05-09T09:23:27Z</time>
      </trkpt>
      <trkpt lat="46.55788" lon="6.08433">
        <ele>1196.98</ele>
        <time>2013-05-09T09:23:28Z</time>
      </trkpt>
      <trkpt lat="46.55789" lon="6.08434">
        <ele>1196.98</ele>
        <time>2013-05-09T09:23:29Z</time>
      </trkpt>
      <trkpt lat="46.55791" lon="6.08436">
        <ele>1196.98</ele>
        <time>2013-05-09T09:23:30Z</time>
      </trkpt>
      <trkpt lat="46.55793" lon="6.08438">
        <ele>1196.98</ele>
        <time>2013-05-09T09:23:31Z</time>
      </trkpt>
      <trkpt lat="46.55794" lon="6.0844">
        <ele>1196.98</ele>
        <time>2013-05-09T09:23:32Z</time>
      </trkpt>
      <trkpt lat="46.55796" lon="6.08443">
        <ele>1196.98</ele>
        <time>2013-05-09T09:23:33Z</time>
      </trkpt>
      <trkpt lat="46.55797" lon="6.08446">
        <ele>1197.46</ele>
        <time>2013-05-09T09:23:34Z</time>
      </trkpt>
      <trkpt lat="46.55798" lon="6.08448">
        <ele>1197.46</ele>
        <time>2013-05-09T09:23:35Z</time>
      </trkpt>
      <trkpt lat="46.55798" lon="6.08451">
        <ele>1197.46</ele>
        <time>2013-05-09T09:23:36Z</time>
      </trkpt>
      <trkpt lat="46.55799" lon="6.08454">
        <ele>1197.94</ele>
        <time>2013-05-09T09:23:37Z</time>
      </trkpt>
      <trkpt lat="46.55799" lon="6.08456">
        <ele>1197.94</ele>
        <time>2013-05-09T09:23:38Z</time>
      </trkpt>
      <trkpt lat="46.55799" lon="6.08459">
        <ele>1197.94</ele>
        <time>2013-05-09T09:23:39Z</time>
      </trkpt>
      <trkpt lat="46.55799" lon="6.08462">
        <ele>1198.42</ele>
        <time>2013-05-09T09:23:40Z</time>
      </trkpt>
      <trkpt lat="46.55797" lon="6.08464">
        <ele>1198.42</ele>
        <time>2013-05-09T09:23:41Z</time>
      </trkpt>
      <trkpt lat="46.55774" lon="6.08475">
        <ele>1200.82</ele>
        <time>2013-05-09T09:23:54Z</time>
      </trkpt>
      <trkpt lat="46.55752" lon="6.08472">
        <ele>1203.71</ele>
        <time>2013-05-09T09:24:08Z</time>
      </trkpt>
      <trkpt lat="46.55749" lon="6.08471">
        <ele>1203.71</ele>
        <time>2013-05-09T09:24:10Z</time>
      </trkpt>
      <trkpt lat="46.55747" lon="6.08471">
        <ele>1204.19</ele>
        <time>2013-05-09T09:24:11Z</time>
      </trkpt>
      <trkpt lat="46.55745" lon="6.0847">
        <ele>1204.19</ele>
        <time>2013-05-09T09:24:12Z</time>
      </trkpt>
      <trkpt lat="46.55743" lon="6.08469">
        <ele>1204.67</ele>
        <time>2013-05-09T09:24:13Z</time>
      </trkpt>
      <trkpt lat="46.55742" lon="6.08468">
        <ele>1204.67</ele>
        <time>2013-05-09T09:24:14Z</time>
      </trkpt>
      <trkpt lat="46.55741" lon="6.08466">
        <ele>1204.67</ele>
        <time>2013-05-09T09:24:15Z</time>
      </trkpt>
      <trkpt lat="46.55739" lon="6.08465">
        <ele>1204.67</ele>
        <time>2013-05-09T09:24:16Z</time>
      </trkpt>
      <trkpt lat="46.55737" lon="6.08464">
        <ele>1204.67</ele>
        <time>2013-05-09T09:24:17Z</time>
      </trkpt>
      <trkpt lat="46.55735" lon="6.08462">
        <ele>1205.15</ele>
        <time>2013-05-09T09:24:18Z</time>
      </trkpt>
      <trkpt lat="46.55733" lon="6.08461">
        <ele>1205.15</ele>
        <time>2013-05-09T09:24:19Z</time>
      </trkpt>
      <trkpt lat="46.55711" lon="6.08443">
        <ele>1207.55</ele>
        <time>2013-05-09T09:24:33Z</time>
      </trkpt>
      <trkpt lat="46.5569" lon="6.0843">
        <ele>1209.48</ele>
        <time>2013-05-09T09:24:47Z</time>
      </trkpt>
      <trkpt lat="46.55688" lon="6.08429">
        <ele>1209.96</ele>
        <time>2013-05-09T09:24:48Z</time>
      </trkpt>
      <trkpt lat="46.55687" lon="6.08428">
        <ele>1209.96</ele>
        <time>2013-05-09T09:24:49Z</time>
      </trkpt>
      <trkpt lat="46.55685" lon="6.08427">
        <ele>1209.96</ele>
        <time>2013-05-09T09:24:50Z</time>
      </trkpt>
      <trkpt lat="46.55684" lon="6.08426">
        <ele>1210.44</ele>
        <time>2013-05-09T09:24:51Z</time>
      </trkpt>
      <trkpt lat="46.55683" lon="6.08426">
        <ele>1210.44</ele>
        <time>2013-05-09T09:24:52Z</time>
      </trkpt>
      <trkpt lat="46.55681" lon="6.08426">
        <ele>1210.44</ele>
        <time>2013-05-09T09:24:53Z</time>
      </trkpt>
      <trkpt lat="46.5568" lon="6.08425">
        <ele>1210.92</ele>
        <time>2013-05-09T09:24:54Z</time>
      </trkpt>
      <trkpt lat="46.55663" lon="6.08423">
        <ele>1212.84</ele>
        <time>2013-05-09T09:25:05Z</time>
      </trkpt>
      <trkpt lat="46.55637" lon="6.08416">
        <ele>1216.21</ele>
        <time>2013-05-09T09:25:20Z</time>
      </trkpt>
      <trkpt lat="46.55623" lon="6.08413">
        <ele>1216.69</ele>
        <time>2013-05-09T09:25:30Z</time>
      </trkpt>
      <trkpt lat="46.55621" lon="6.08412">
        <ele>1216.69</ele>
        <time>2013-05-09T09:25:31Z</time>
      </trkpt>
      <trkpt lat="46.5562" lon="6.08411">
        <ele>1217.17</ele>
        <time>2013-05-09T09:25:32Z</time>
      </trkpt>
      <trkpt lat="46.55618" lon="6.0841">
        <ele>1217.17</ele>
        <time>2013-05-09T09:25:33Z</time>
      </trkpt>
      <trkpt lat="46.55616" lon="6.0841">
        <ele>1217.17</ele>
        <time>2013-05-09T09:25:34Z</time>
      </trkpt>
      <trkpt lat="46.55606" lon="6.08405">
        <ele>1218.13</ele>
        <time>2013-05-09T09:25:40Z</time>
      </trkpt>
      <trkpt lat="46.55588" lon="6.08396">
        <ele>1220.05</ele>
        <time>2013-05-09T09:25:52Z</time>
      </trkpt>
      <trkpt lat="46.55584" lon="6.08397">
        <ele>1220.53</ele>
        <time>2013-05-09T09:25:55Z</time>
      </trkpt>
      <trkpt lat="46.55576" lon="6.08411">
        <ele>1222.45</ele>
        <time>2013-05-09T09:26:05Z</time>
      </trkpt>
      <trkpt lat="46.55576" lon="6.08414">
        <ele>1222.45</ele>
        <time>2013-05-09T09:26:06Z</time>
      </trkpt>
      <trkpt lat="46.55576" lon="6.08416">
        <ele>1222.45</ele>
        <time>2013-05-09T09:26:07Z</time>
      </trkpt>
      <trkpt lat="46.55575" lon="6.08418">
        <ele>1222.45</ele>
        <time>2013-05-09T09:26:08Z</time>
      </trkpt>
      <trkpt lat="46.55575" lon="6.0842">
        <ele>1222.93</ele>
        <time>2013-05-09T09:26:09Z</time>
      </trkpt>
      <trkpt lat="46.55573" lon="6.08422">
        <ele>1222.93</ele>
        <time>2013-05-09T09:26:11Z</time>
      </trkpt>
      <trkpt lat="46.55572" lon="6.08424">
        <ele>1222.93</ele>
        <time>2013-05-09T09:26:12Z</time>
      </trkpt>
      <trkpt lat="46.55571" lon="6.08426">
        <ele>1223.42</ele>
        <time>2013-05-09T09:26:13Z</time>
      </trkpt>
      <trkpt lat="46.5557" lon="6.08428">
        <ele>1223.42</ele>
        <time>2013-05-09T09:26:14Z</time>
      </trkpt>
      <trkpt lat="46.55569" lon="6.08429">
        <ele>1223.42</ele>
        <time>2013-05-09T09:26:15Z</time>
      </trkpt>
      <trkpt lat="46.55568" lon="6.08431">
        <ele>1223.42</ele>
        <time>2013-05-09T09:26:16Z</time>
      </trkpt>
      <trkpt lat="46.55567" lon="6.08433">
        <ele>1223.9</ele>
        <time>2013-05-09T09:26:17Z</time>
      </trkpt>
      <trkpt lat="46.55566" lon="6.08435">
        <ele>1223.9</ele>
        <time>2013-05-09T09:26:18Z</time>
      </trkpt>
      <trkpt lat="46.55565" lon="6.08437">
        <ele>1223.9</ele>
        <time>2013-05-09T09:26:19Z</time>
      </trkpt>
      <trkpt lat="46.55562" lon="6.08442">
        <ele>1224.86</ele>
        <time>2013-05-09T09:26:30Z</time>
      </trkpt>
      <trkpt lat="46.55556" lon="6.08454">
        <ele>1225.34</ele>
        <time>2013-05-09T09:26:42Z</time>
      </trkpt>
      <trkpt lat="46.55549" lon="6.08472">
        <ele>1227.26</ele>
        <time>2013-05-09T09:26:55Z</time>
      </trkpt>
      <trkpt lat="46.55547" lon="6.08478">
        <ele>1227.26</ele>
        <time>2013-05-09T09:26:58Z</time>
      </trkpt>
      <trkpt lat="46.55546" lon="6.08479">
        <ele>1226.78</ele>
        <time>2013-05-09T09:26:59Z</time>
      </trkpt>
      <trkpt lat="46.55545" lon="6.08482">
        <ele>1227.26</ele>
        <time>2013-05-09T09:27:01Z</time>
      </trkpt>
      <trkpt lat="46.5554" lon="6.08493">
        <ele>1227.26</ele>
        <time>2013-05-09T09:27:08Z</time>
      </trkpt>
      <trkpt lat="46.55539" lon="6.08495">
        <ele>1227.26</ele>
        <time>2013-05-09T09:27:09Z</time>
      </trkpt>
      <trkpt lat="46.55538" lon="6.08496">
        <ele>1227.26</ele>
        <time>2013-05-09T09:27:10Z</time>
      </trkpt>
      <trkpt lat="46.55537" lon="6.08498">
        <ele>1227.26</ele>
        <time>2013-05-09T09:27:11Z</time>
      </trkpt>
      <trkpt lat="46.55537" lon="6.08499">
        <ele>1227.74</ele>
        <time>2013-05-09T09:27:12Z</time>
      </trkpt>
      <trkpt lat="46.55536" lon="6.085">
        <ele>1227.74</ele>
        <time>2013-05-09T09:27:13Z</time>
      </trkpt>
      <trkpt lat="46.55535" lon="6.08502">
        <ele>1227.26</ele>
        <time>2013-05-09T09:27:14Z</time>
      </trkpt>
      <trkpt lat="46.55525" lon="6.08511">
        <ele>1227.74</ele>
        <time>2013-05-09T09:27:27Z</time>
      </trkpt>
      <trkpt lat="46.55523" lon="6.08512">
        <ele>1227.74</ele>
        <time>2013-05-09T09:27:39Z</time>
      </trkpt>
      <trkpt lat="46.55516" lon="6.08515">
        <ele>1227.74</ele>
        <time>2013-05-09T09:27:51Z</time>
      </trkpt>
      <trkpt lat="46.55509" lon="6.08517">
        <ele>1227.74</ele>
        <time>2013-05-09T09:28:00Z</time>
      </trkpt>
      <trkpt lat="46.55499" lon="6.08523">
        <ele>1227.74</ele>
        <time>2013-05-09T09:28:12Z</time>
      </trkpt>
      <trkpt lat="46.55494" lon="6.08527">
        <ele>1227.74</ele>
        <time>2013-05-09T09:28:19Z</time>
      </trkpt>
      <trkpt lat="46.55493" lon="6.08527">
        <ele>1228.22</ele>
        <time>2013-05-09T09:28:20Z</time>
      </trkpt>
      <trkpt lat="46.55491" lon="6.08527">
        <ele>1228.22</ele>
        <time>2013-05-09T09:28:21Z</time>
      </trkpt>
      <trkpt lat="46.5549" lon="6.08528">
        <ele>1228.22</ele>
        <time>2013-05-09T09:28:22Z</time>
      </trkpt>
      <trkpt lat="46.55489" lon="6.08528">
        <ele>1228.22</ele>
        <time>2013-05-09T09:28:23Z</time>
      </trkpt>
      <trkpt lat="46.55488" lon="6.08529">
        <ele>1228.22</ele>
        <time>2013-05-09T09:28:24Z</time>
      </trkpt>
      <trkpt lat="46.55487" lon="6.0853">
        <ele>1228.22</ele>
        <time>2013-05-09T09:28:25Z</time>
      </trkpt>
      <trkpt lat="46.55485" lon="6.0853">
        <ele>1228.22</ele>
        <time>2013-05-09T09:28:26Z</time>
      </trkpt>
      <trkpt lat="46.55484" lon="6.0853">
        <ele>1228.22</ele>
        <time>2013-05-09T09:28:27Z</time>
      </trkpt>
      <trkpt lat="46.55479" lon="6.08532">
        <ele>1227.74</ele>
        <time>2013-05-09T09:28:31Z</time>
      </trkpt>
      <trkpt lat="46.55478" lon="6.08533">
        <ele>1228.22</ele>
        <time>2013-05-09T09:28:32Z</time>
      </trkpt>
      <trkpt lat="46.55477" lon="6.08533">
        <ele>1228.22</ele>
        <time>2013-05-09T09:28:33Z</time>
      </trkpt>
      <trkpt lat="46.55475" lon="6.08533">
        <ele>1228.22</ele>
        <time>2013-05-09T09:28:34Z</time>
      </trkpt>
      <trkpt lat="46.55474" lon="6.08533">
        <ele>1228.22</ele>
        <time>2013-05-09T09:28:35Z</time>
      </trkpt>
      <trkpt lat="46.55468" lon="6.08536">
        <ele>1228.22</ele>
        <time>2013-05-09T09:28:40Z</time>
      </trkpt>
      <trkpt lat="46.55467" lon="6.08537">
        <ele>1228.22</ele>
        <time>2013-05-09T09:28:41Z</time>
      </trkpt>
      <trkpt lat="46.55465" lon="6.08538">
        <ele>1228.22</ele>
        <time>2013-05-09T09:28:43Z</time>
      </trkpt>
      <trkpt lat="46.55459" lon="6.08542">
        <ele>1228.7</ele>
        <time>2013-05-09T09:28:48Z</time>
      </trkpt>
      <trkpt lat="46.55458" lon="6.08543">
        <ele>1228.7</ele>
        <time>2013-05-09T09:28:49Z</time>
      </trkpt>
      <trkpt lat="46.55457" lon="6.08544">
        <ele>1228.22</ele>
        <time>2013-05-09T09:28:50Z</time>
      </trkpt>
      <trkpt lat="46.55455" lon="6.08545">
        <ele>1228.7</ele>
        <time>2013-05-09T09:28:51Z</time>
      </trkpt>
      <trkpt lat="46.55451" lon="6.08548">
        <ele>1228.22</ele>
        <time>2013-05-09T09:29:02Z</time>
      </trkpt>
      <trkpt lat="46.55449" lon="6.0855">
        <ele>1228.7</ele>
        <time>2013-05-09T09:29:04Z</time>
      </trkpt>
      <trkpt lat="46.55438" lon="6.08559">
        <ele>1228.7</ele>
        <time>2013-05-09T09:29:11Z</time>
      </trkpt>
      <trkpt lat="46.55426" lon="6.08585">
        <ele>1228.7</ele>
        <time>2013-05-09T09:29:24Z</time>
      </trkpt>
      <trkpt lat="46.55425" lon="6.08593">
        <ele>1228.7</ele>
        <time>2013-05-09T09:29:37Z</time>
      </trkpt>
      <trkpt lat="46.55421" lon="6.08602">
        <ele>1229.18</ele>
        <time>2013-05-09T09:29:49Z</time>
      </trkpt>
      <trkpt lat="46.5542" lon="6.08604">
        <ele>1229.18</ele>
        <time>2013-05-09T09:30:08Z</time>
      </trkpt>
      <trkpt lat="46.5542" lon="6.08604">
        <ele>1229.18</ele>
        <time>2013-05-09T09:30:32Z</time>
      </trkpt>
      <trkpt lat="46.5542" lon="6.08604">
        <ele>1229.18</ele>
        <time>2013-05-09T09:30:58Z</time>
      </trkpt>
      <trkpt lat="46.55416" lon="6.0861">
        <ele>1229.66</ele>
        <time>2013-05-09T09:31:18Z</time>
      </trkpt>
      <trkpt lat="46.5541" lon="6.08621">
        <ele>1229.66</ele>
        <time>2013-05-09T09:31:30Z</time>
      </trkpt>
      <trkpt lat="46.55403" lon="6.08638">
        <ele>1230.14</ele>
        <time>2013-05-09T09:31:43Z</time>
      </trkpt>
      <trkpt lat="46.55393" lon="6.08655">
        <ele>1231.11</ele>
        <time>2013-05-09T09:31:57Z</time>
      </trkpt>
      <trkpt lat="46.55379" lon="6.08672">
        <ele>1230.62</ele>
        <time>2013-05-09T09:32:12Z</time>
      </trkpt>
      <trkpt lat="46.55366" lon="6.08691">
        <ele>1230.14</ele>
        <time>2013-05-09T09:32:26Z</time>
      </trkpt>
      <trkpt lat="46.55354" lon="6.08711">
        <ele>1229.18</ele>
        <time>2013-05-09T09:32:42Z</time>
      </trkpt>
      <trkpt lat="46.55353" lon="6.08713">
        <ele>1229.18</ele>
        <time>2013-05-09T09:32:43Z</time>
      </trkpt>
      <trkpt lat="46.55351" lon="6.08714">
        <ele>1229.18</ele>
        <time>2013-05-09T09:32:44Z</time>
      </trkpt>
      <trkpt lat="46.5535" lon="6.08716">
        <ele>1229.18</ele>
        <time>2013-05-09T09:32:45Z</time>
      </trkpt>
      <trkpt lat="46.55348" lon="6.08718">
        <ele>1229.18</ele>
        <time>2013-05-09T09:32:46Z</time>
      </trkpt>
      <trkpt lat="46.55346" lon="6.08719">
        <ele>1229.18</ele>
        <time>2013-05-09T09:32:47Z</time>
      </trkpt>
      <trkpt lat="46.55344" lon="6.0872">
        <ele>1228.7</ele>
        <time>2013-05-09T09:32:48Z</time>
      </trkpt>
      <trkpt lat="46.55343" lon="6.08721">
        <ele>1228.7</ele>
        <time>2013-05-09T09:32:49Z</time>
      </trkpt>
      <trkpt lat="46.55342" lon="6.08723">
        <ele>1228.7</ele>
        <time>2013-05-09T09:32:50Z</time>
      </trkpt>
      <trkpt lat="46.5534" lon="6.08723">
        <ele>1228.7</ele>
        <time>2013-05-09T09:32:51Z</time>
      </trkpt>
      <trkpt lat="46.55338" lon="6.08724">
        <ele>1228.7</ele>
        <time>2013-05-09T09:32:52Z</time>
      </trkpt>
      <trkpt lat="46.55331" lon="6.08726">
        <ele>1228.7</ele>
        <time>2013-05-09T09:32:57Z</time>
      </trkpt>
      <trkpt lat="46.55329" lon="6.08726">
        <ele>1228.7</ele>
        <time>2013-05-09T09:32:58Z</time>
      </trkpt>
      <trkpt lat="46.55304" lon="6.0872">
        <ele>1226.3</ele>
        <time>2013-05-09T09:33:09Z</time>
      </trkpt>
      <trkpt lat="46.553" lon="6.0872">
        <ele>1225.82</ele>
        <time>2013-05-09T09:33:20Z</time>
      </trkpt>
      <trkpt lat="46.55293" lon="6.08721">
        <ele>1225.34</ele>
        <time>2013-05-09T09:33:34Z</time>
      </trkpt>
      <trkpt lat="46.5528" lon="6.0873">
        <ele>1224.86</ele>
        <time>2013-05-09T09:33:48Z</time>
      </trkpt>
      <trkpt lat="46.55271" lon="6.08739">
        <ele>1224.86</ele>
        <time>2013-05-09T09:34:01Z</time>
      </trkpt>
      <trkpt lat="46.55262" lon="6.08749">
        <ele>1224.86</ele>
        <time>2013-05-09T09:34:12Z</time>
      </trkpt>
      <trkpt lat="46.55257" lon="6.08754">
        <ele>1224.86</ele>
        <time>2013-05-09T09:34:18Z</time>
      </trkpt>
      <trkpt lat="46.55243" lon="6.08766">
        <ele>1225.34</ele>
        <time>2013-05-09T09:34:32Z</time>
      </trkpt>
      <trkpt lat="46.55242" lon="6.08767">
        <ele>1225.34</ele>
        <time>2013-05-09T09:34:34Z</time>
      </trkpt>
      <trkpt lat="46.55235" lon="6.08771">
        <ele>1225.82</ele>
        <time>2013-05-09T09:34:44Z</time>
      </trkpt>
      <trkpt lat="46.55233" lon="6.08771">
        <ele>1225.82</ele>
        <time>2013-05-09T09:34:45Z</time>
      </trkpt>
      <trkpt lat="46.55232" lon="6.08772">
        <ele>1225.82</ele>
        <time>2013-05-09T09:34:46Z</time>
      </trkpt>
      <trkpt lat="46.55218" lon="6.0878">
        <ele>1225.82</ele>
        <time>2013-05-09T09:34:58Z</time>
      </trkpt>
      <trkpt lat="46.55203" lon="6.08784">
        <ele>1226.3</ele>
        <time>2013-05-09T09:35:10Z</time>
      </trkpt>
      <trkpt lat="46.55193" lon="6.08783">
        <ele>1226.3</ele>
        <time>2013-05-09T09:35:19Z</time>
      </trkpt>
      <trkpt lat="46.55192" lon="6.08782">
        <ele>1226.3</ele>
        <time>2013-05-09T09:35:20Z</time>
      </trkpt>
      <trkpt lat="46.55188" lon="6.08781">
        <ele>1226.3</ele>
        <time>2013-05-09T09:35:23Z</time>
      </trkpt>
      <trkpt lat="46.55187" lon="6.08781">
        <ele>1227.26</ele>
        <time>2013-05-09T09:35:24Z</time>
      </trkpt>
      <trkpt lat="46.55183" lon="6.08782">
        <ele>1225.82</ele>
        <time>2013-05-09T09:35:36Z</time>
      </trkpt>
      <trkpt lat="46.55174" lon="6.08781">
        <ele>1225.82</ele>
        <time>2013-05-09T09:35:45Z</time>
      </trkpt>
      <trkpt lat="46.55173" lon="6.08781">
        <ele>1225.82</ele>
        <time>2013-05-09T09:35:46Z</time>
      </trkpt>
      <trkpt lat="46.55171" lon="6.0878">
        <ele>1225.82</ele>
        <time>2013-05-09T09:35:47Z</time>
      </trkpt>
      <trkpt lat="46.55169" lon="6.0878">
        <ele>1225.82</ele>
        <time>2013-05-09T09:35:48Z</time>
      </trkpt>
      <trkpt lat="46.55168" lon="6.0878">
        <ele>1225.82</ele>
        <time>2013-05-09T09:35:49Z</time>
      </trkpt>
      <trkpt lat="46.55165" lon="6.08779">
        <ele>1225.34</ele>
        <time>2013-05-09T09:35:50Z</time>
      </trkpt>
      <trkpt lat="46.55163" lon="6.08778">
        <ele>1225.34</ele>
        <time>2013-05-09T09:35:51Z</time>
      </trkpt>
      <trkpt lat="46.5516" lon="6.08778">
        <ele>1225.34</ele>
        <time>2013-05-09T09:35:52Z</time>
      </trkpt>
      <trkpt lat="46.55158" lon="6.08779">
        <ele>1225.34</ele>
        <time>2013-05-09T09:35:53Z</time>
      </trkpt>
      <trkpt lat="46.55155" lon="6.08779">
        <ele>1225.34</ele>
        <time>2013-05-09T09:35:54Z</time>
      </trkpt>
      <trkpt lat="46.55152" lon="6.08779">
        <ele>1224.86</ele>
        <time>2013-05-09T09:35:55Z</time>
      </trkpt>
      <trkpt lat="46.5515" lon="6.08778">
        <ele>1225.34</ele>
        <time>2013-05-09T09:35:56Z</time>
      </trkpt>
      <trkpt lat="46.55147" lon="6.08778">
        <ele>1224.86</ele>
        <time>2013-05-09T09:35:57Z</time>
      </trkpt>
      <trkpt lat="46.55144" lon="6.08779">
        <ele>1224.86</ele>
        <time>2013-05-09T09:35:58Z</time>
      </trkpt>
      <trkpt lat="46.55118" lon="6.08799">
        <ele>1224.86</ele>
        <time>2013-05-09T09:36:09Z</time>
      </trkpt>
      <trkpt lat="46.55106" lon="6.08816">
        <ele>1224.86</ele>
        <time>2013-05-09T09:36:18Z</time>
      </trkpt>
      <trkpt lat="46.55105" lon="6.08816">
        <ele>1224.86</ele>
        <time>2013-05-09T09:36:19Z</time>
      </trkpt>
      <trkpt lat="46.55089" lon="6.08826">
        <ele>1224.86</ele>
        <time>2013-05-09T09:36:34Z</time>
      </trkpt>
      <trkpt lat="46.55075" lon="6.08825">
        <ele>1224.86</ele>
        <time>2013-05-09T09:36:47Z</time>
      </trkpt>
      <trkpt lat="46.55074" lon="6.08825">
        <ele>1224.86</ele>
        <time>2013-05-09T09:36:48Z</time>
      </trkpt>
      <trkpt lat="46.55065" lon="6.08826">
        <ele>1224.38</ele>
        <time>2013-05-09T09:36:54Z</time>
      </trkpt>
      <trkpt lat="46.5506" lon="6.08826">
        <ele>1224.38</ele>
        <time>2013-05-09T09:37:07Z</time>
      </trkpt>
      <trkpt lat="46.55057" lon="6.08827">
        <ele>1224.38</ele>
        <time>2013-05-09T09:37:21Z</time>
      </trkpt>
      <trkpt lat="46.55047" lon="6.0883">
        <ele>1225.34</ele>
        <time>2013-05-09T09:37:33Z</time>
      </trkpt>
      <trkpt lat="46.55031" lon="6.08838">
        <ele>1226.3</ele>
        <time>2013-05-09T09:37:49Z</time>
      </trkpt>
      <trkpt lat="46.55016" lon="6.08851">
        <ele>1227.26</ele>
        <time>2013-05-09T09:38:06Z</time>
      </trkpt>
      <trkpt lat="46.55013" lon="6.08856">
        <ele>1227.74</ele>
        <time>2013-05-09T09:38:17Z</time>
      </trkpt>
      <trkpt lat="46.55007" lon="6.0886">
        <ele>1227.74</ele>
        <time>2013-05-09T09:38:31Z</time>
      </trkpt>
      <trkpt lat="46.55005" lon="6.08861">
        <ele>1228.22</ele>
        <time>2013-05-09T09:38:35Z</time>
      </trkpt>
      <trkpt lat="46.55" lon="6.08864">
        <ele>1228.22</ele>
        <time>2013-05-09T09:38:40Z</time>
      </trkpt>
      <trkpt lat="46.54999" lon="6.08864">
        <ele>1228.22</ele>
        <time>2013-05-09T09:38:41Z</time>
      </trkpt>
      <trkpt lat="46.54998" lon="6.08865">
        <ele>1228.22</ele>
        <time>2013-05-09T09:38:42Z</time>
      </trkpt>
      <trkpt lat="46.54985" lon="6.08879">
        <ele>1229.18</ele>
        <time>2013-05-09T09:38:59Z</time>
      </trkpt>
      <trkpt lat="46.54973" lon="6.08892">
        <ele>1229.66</ele>
        <time>2013-05-09T09:39:14Z</time>
      </trkpt>
      <trkpt lat="46.54961" lon="6.08905">
        <ele>1230.62</ele>
        <time>2013-05-09T09:39:30Z</time>
      </trkpt>
      <trkpt lat="46.54949" lon="6.08919">
        <ele>1231.11</ele>
        <time>2013-05-09T09:39:45Z</time>
      </trkpt>
      <trkpt lat="46.54936" lon="6.08932">
        <ele>1231.11</ele>
        <time>2013-05-09T09:39:59Z</time>
      </trkpt>
      <trkpt lat="46.54932" lon="6.08936">
        <ele>1231.11</ele>
        <time>2013-05-09T09:40:03Z</time>
      </trkpt>
      <trkpt lat="46.54931" lon="6.08936">
        <ele>1231.11</ele>
        <time>2013-05-09T09:40:04Z</time>
      </trkpt>
      <trkpt lat="46.5493" lon="6.08937">
        <ele>1231.11</ele>
        <time>2013-05-09T09:40:05Z</time>
      </trkpt>
      <trkpt lat="46.54925" lon="6.0894">
        <ele>1231.11</ele>
        <time>2013-05-09T09:40:10Z</time>
      </trkpt>
      <trkpt lat="46.54924" lon="6.08941">
        <ele>1231.59</ele>
        <time>2013-05-09T09:40:11Z</time>
      </trkpt>
      <trkpt lat="46.54923" lon="6.08942">
        <ele>1231.59</ele>
        <time>2013-05-09T09:40:12Z</time>
      </trkpt>
      <trkpt lat="46.54922" lon="6.08943">
        <ele>1231.59</ele>
        <time>2013-05-09T09:40:13Z</time>
      </trkpt>
      <trkpt lat="46.5492" lon="6.08945">
        <ele>1231.59</ele>
        <time>2013-05-09T09:40:16Z</time>
      </trkpt>
      <trkpt lat="46.54919" lon="6.08946">
        <ele>1231.59</ele>
        <time>2013-05-09T09:40:17Z</time>
      </trkpt>
      <trkpt lat="46.54909" lon="6.08953">
        <ele>1232.55</ele>
        <time>2013-05-09T09:40:30Z</time>
      </trkpt>
      <trkpt lat="46.54899" lon="6.08961">
        <ele>1233.51</ele>
        <time>2013-05-09T09:40:43Z</time>
      </trkpt>
      <trkpt lat="46.54893" lon="6.08969">
        <ele>1234.95</ele>
        <time>2013-05-09T09:40:57Z</time>
      </trkpt>
      <trkpt lat="46.54883" lon="6.08982">
        <ele>1236.39</ele>
        <time>2013-05-09T09:41:12Z</time>
      </trkpt>
      <trkpt lat="46.54877" lon="6.08991">
        <ele>1237.83</ele>
        <time>2013-05-09T09:41:24Z</time>
      </trkpt>
      <trkpt lat="46.54868" lon="6.09005">
        <ele>1239.28</ele>
        <time>2013-05-09T09:41:37Z</time>
      </trkpt>
      <trkpt lat="46.54863" lon="6.09011">
        <ele>1239.76</ele>
        <time>2013-05-09T09:41:53Z</time>
      </trkpt>
      <trkpt lat="46.54856" lon="6.09021">
        <ele>1240.72</ele>
        <time>2013-05-09T09:42:04Z</time>
      </trkpt>
      <trkpt lat="46.54853" lon="6.09028">
        <ele>1241.2</ele>
        <time>2013-05-09T09:42:17Z</time>
      </trkpt>
      <trkpt lat="46.54842" lon="6.09042">
        <ele>1242.16</ele>
        <time>2013-05-09T09:42:30Z</time>
      </trkpt>
      <trkpt lat="46.54828" lon="6.09058">
        <ele>1242.64</ele>
        <time>2013-05-09T09:42:47Z</time>
      </trkpt>
      <trkpt lat="46.54825" lon="6.09067">
        <ele>1243.12</ele>
        <time>2013-05-09T09:42:57Z</time>
      </trkpt>
      <trkpt lat="46.54823" lon="6.09069">
        <ele>1243.12</ele>
        <time>2013-05-09T09:42:59Z</time>
      </trkpt>
      <trkpt lat="46.54822" lon="6.09071">
        <ele>1243.12</ele>
        <time>2013-05-09T09:43:00Z</time>
      </trkpt>
      <trkpt lat="46.54811" lon="6.09081">
        <ele>1243.12</ele>
        <time>2013-05-09T09:43:17Z</time>
      </trkpt>
      <trkpt lat="46.5481" lon="6.09083">
        <ele>1243.6</ele>
        <time>2013-05-09T09:43:44Z</time>
      </trkpt>
      <trkpt lat="46.54803" lon="6.09091">
        <ele>1244.08</ele>
        <time>2013-05-09T09:44:05Z</time>
      </trkpt>
      <trkpt lat="46.54793" lon="6.09098">
        <ele>1245.04</ele>
        <time>2013-05-09T09:44:17Z</time>
      </trkpt>
      <trkpt lat="46.54781" lon="6.09111">
        <ele>1246.49</ele>
        <time>2013-05-09T09:44:32Z</time>
      </trkpt>
      <trkpt lat="46.5477" lon="6.09121">
        <ele>1247.45</ele>
        <time>2013-05-09T09:44:46Z</time>
      </trkpt>
      <trkpt lat="46.54762" lon="6.09126">
        <ele>1248.41</ele>
        <time>2013-05-09T09:44:58Z</time>
      </trkpt>
      <trkpt lat="46.54748" lon="6.09135">
        <ele>1249.37</ele>
        <time>2013-05-09T09:45:13Z</time>
      </trkpt>
      <trkpt lat="46.54737" lon="6.09141">
        <ele>1250.33</ele>
        <time>2013-05-09T09:45:24Z</time>
      </trkpt>
      <trkpt lat="46.54729" lon="6.09148">
        <ele>1251.29</ele>
        <time>2013-05-09T09:45:33Z</time>
      </trkpt>
      <trkpt lat="46.54716" lon="6.09157">
        <ele>1252.74</ele>
        <time>2013-05-09T09:45:45Z</time>
      </trkpt>
      <trkpt lat="46.54708" lon="6.09166">
        <ele>1253.22</ele>
        <time>2013-05-09T09:45:55Z</time>
      </trkpt>
      <trkpt lat="46.54707" lon="6.09167">
        <ele>1253.22</ele>
        <time>2013-05-09T09:45:56Z</time>
      </trkpt>
      <trkpt lat="46.54706" lon="6.09169">
        <ele>1253.22</ele>
        <time>2013-05-09T09:45:57Z</time>
      </trkpt>
      <trkpt lat="46.54705" lon="6.09172">
        <ele>1253.22</ele>
        <time>2013-05-09T09:45:58Z</time>
      </trkpt>
      <trkpt lat="46.54704" lon="6.09175">
        <ele>1253.22</ele>
        <time>2013-05-09T09:45:59Z</time>
      </trkpt>
      <trkpt lat="46.54691" lon="6.09205">
        <ele>1253.7</ele>
        <time>2013-05-09T09:46:11Z</time>
      </trkpt>
      <trkpt lat="46.54689" lon="6.09208">
        <ele>1253.7</ele>
        <time>2013-05-09T09:46:24Z</time>
      </trkpt>
      <trkpt lat="46.54689" lon="6.09208">
        <ele>1253.7</ele>
        <time>2013-05-09T09:46:43Z</time>
      </trkpt>
      <trkpt lat="46.54689" lon="6.09209">
        <ele>1253.7</ele>
        <time>2013-05-09T09:47:07Z</time>
      </trkpt>
      <trkpt lat="46.54689" lon="6.09209">
        <ele>1253.7</ele>
        <time>2013-05-09T09:47:38Z</time>
      </trkpt>
      <trkpt lat="46.54688" lon="6.09211">
        <ele>1253.7</ele>
        <time>2013-05-09T09:47:46Z</time>
      </trkpt>
      <trkpt lat="46.54676" lon="6.09234">
        <ele>1252.25</ele>
        <time>2013-05-09T09:47:55Z</time>
      </trkpt>
      <trkpt lat="46.54655" lon="6.09247">
        <ele>1250.33</ele>
        <time>2013-05-09T09:48:04Z</time>
      </trkpt>
      <trkpt lat="46.54643" lon="6.09259">
        <ele>1248.89</ele>
        <time>2013-05-09T09:48:10Z</time>
      </trkpt>
      <trkpt lat="46.54642" lon="6.0926">
        <ele>1248.89</ele>
        <time>2013-05-09T09:48:11Z</time>
      </trkpt>
      <trkpt lat="46.5464" lon="6.09261">
        <ele>1248.41</ele>
        <time>2013-05-09T09:48:12Z</time>
      </trkpt>
      <trkpt lat="46.54639" lon="6.09263">
        <ele>1248.41</ele>
        <time>2013-05-09T09:48:13Z</time>
      </trkpt>
      <trkpt lat="46.54638" lon="6.09263">
        <ele>1248.41</ele>
        <time>2013-05-09T09:48:14Z</time>
      </trkpt>
      <trkpt lat="46.54637" lon="6.09264">
        <ele>1247.93</ele>
        <time>2013-05-09T09:48:15Z</time>
      </trkpt>
      <trkpt lat="46.54636" lon="6.09265">
        <ele>1247.93</ele>
        <time>2013-05-09T09:48:16Z</time>
      </trkpt>
      <trkpt lat="46.54635" lon="6.09266">
        <ele>1247.93</ele>
        <time>2013-05-09T09:48:17Z</time>
      </trkpt>
      <trkpt lat="46.54633" lon="6.09268">
        <ele>1247.93</ele>
        <time>2013-05-09T09:48:18Z</time>
      </trkpt>
      <trkpt lat="46.54628" lon="6.09273">
        <ele>1246.97</ele>
        <time>2013-05-09T09:48:23Z</time>
      </trkpt>
      <trkpt lat="46.54623" lon="6.09279">
        <ele>1246.49</ele>
        <time>2013-05-09T09:48:29Z</time>
      </trkpt>
      <trkpt lat="46.54621" lon="6.09282">
        <ele>1246.49</ele>
        <time>2013-05-09T09:48:32Z</time>
      </trkpt>
      <trkpt lat="46.5462" lon="6.09283">
        <ele>1246.01</ele>
        <time>2013-05-09T09:48:33Z</time>
      </trkpt>
      <trkpt lat="46.5462" lon="6.09285">
        <ele>1246.01</ele>
        <time>2013-05-09T09:48:34Z</time>
      </trkpt>
      <trkpt lat="46.54619" lon="6.09287">
        <ele>1245.53</ele>
        <time>2013-05-09T09:48:35Z</time>
      </trkpt>
      <trkpt lat="46.54618" lon="6.0929">
        <ele>1245.53</ele>
        <time>2013-05-09T09:48:36Z</time>
      </trkpt>
      <trkpt lat="46.54617" lon="6.09292">
        <ele>1245.53</ele>
        <time>2013-05-09T09:48:37Z</time>
      </trkpt>
      <trkpt lat="46.54616" lon="6.09295">
        <ele>1245.04</ele>
        <time>2013-05-09T09:48:38Z</time>
      </trkpt>
      <trkpt lat="46.54616" lon="6.09297">
        <ele>1245.04</ele>
        <time>2013-05-09T09:48:39Z</time>
      </trkpt>
      <trkpt lat="46.54616" lon="6.093">
        <ele>1245.04</ele>
        <time>2013-05-09T09:48:40Z</time>
      </trkpt>
      <trkpt lat="46.54615" lon="6.09303">
        <ele>1245.04</ele>
        <time>2013-05-09T09:48:41Z</time>
      </trkpt>
      <trkpt lat="46.54615" lon="6.09305">
        <ele>1244.56</ele>
        <time>2013-05-09T09:48:42Z</time>
      </trkpt>
      <trkpt lat="46.54615" lon="6.09311">
        <ele>1244.08</ele>
        <time>2013-05-09T09:48:44Z</time>
      </trkpt>
      <trkpt lat="46.54614" lon="6.09324">
        <ele>1242.64</ele>
        <time>2013-05-09T09:48:50Z</time>
      </trkpt>
      <trkpt lat="46.54613" lon="6.09327">
        <ele>1242.64</ele>
        <time>2013-05-09T09:48:51Z</time>
      </trkpt>
      <trkpt lat="46.54612" lon="6.0933">
        <ele>1242.16</ele>
        <time>2013-05-09T09:48:52Z</time>
      </trkpt>
      <trkpt lat="46.54612" lon="6.09352">
        <ele>1240.24</ele>
        <time>2013-05-09T09:49:00Z</time>
      </trkpt>
      <trkpt lat="46.54611" lon="6.09356">
        <ele>1240.24</ele>
        <time>2013-05-09T09:49:12Z</time>
      </trkpt>
      <trkpt lat="46.54611" lon="6.09356">
        <ele>1241.2</ele>
        <time>2013-05-09T09:49:31Z</time>
      </trkpt>
      <trkpt lat="46.54611" lon="6.09356">
        <ele>1239.76</ele>
        <time>2013-05-09T09:49:52Z</time>
      </trkpt>
      <trkpt lat="46.54611" lon="6.09356">
        <ele>1239.76</ele>
        <time>2013-05-09T09:50:19Z</time>
      </trkpt>
      <trkpt lat="46.54611" lon="6.09356">
        <ele>1239.76</ele>
        <time>2013-05-09T09:50:51Z</time>
      </trkpt>
      <trkpt lat="46.5461" lon="6.09357">
        <ele>1239.76</ele>
        <time>2013-05-09T09:51:10Z</time>
      </trkpt>
      <trkpt lat="46.54599" lon="6.09388">
        <ele>1236.87</ele>
        <time>2013-05-09T09:51:21Z</time>
      </trkpt>
      <trkpt lat="46.54592" lon="6.09396">
        <ele>1236.39</ele>
        <time>2013-05-09T09:51:23Z</time>
      </trkpt>
      <trkpt lat="46.54587" lon="6.09399">
        <ele>1235.43</ele>
        <time>2013-05-09T09:51:24Z</time>
      </trkpt>
      <trkpt lat="46.54583" lon="6.09401">
        <ele>1235.43</ele>
        <time>2013-05-09T09:51:25Z</time>
      </trkpt>
      <trkpt lat="46.54558" lon="6.09411">
        <ele>1233.03</ele>
        <time>2013-05-09T09:51:30Z</time>
      </trkpt>
      <trkpt lat="46.54546" lon="6.09422">
        <ele>1231.11</ele>
        <time>2013-05-09T09:51:34Z</time>
      </trkpt>
      <trkpt lat="46.54542" lon="6.09426">
        <ele>1230.62</ele>
        <time>2013-05-09T09:51:43Z</time>
      </trkpt>
      <trkpt lat="46.54542" lon="6.09426">
        <ele>1230.62</ele>
        <time>2013-05-09T09:52:14Z</time>
      </trkpt>
      <trkpt lat="46.54542" lon="6.09426">
        <ele>1230.14</ele>
        <time>2013-05-09T09:52:36Z</time>
      </trkpt>
      <trkpt lat="46.54544" lon="6.09427">
        <ele>1230.62</ele>
        <time>2013-05-09T09:52:37Z</time>
      </trkpt>
      <trkpt lat="46.54547" lon="6.09429">
        <ele>1230.62</ele>
        <time>2013-05-09T09:52:50Z</time>
      </trkpt>
      <trkpt lat="46.54548" lon="6.09428">
        <ele>1230.62</ele>
        <time>2013-05-09T09:53:35Z</time>
      </trkpt>
      <trkpt lat="46.54548" lon="6.09428">
        <ele>1230.62</ele>
        <time>2013-05-09T09:54:14Z</time>
      </trkpt>
      <trkpt lat="46.54547" lon="6.09428">
        <ele>1230.62</ele>
        <time>2013-05-09T09:54:46Z</time>
      </trkpt>
      <trkpt lat="46.54547" lon="6.09428">
        <ele>1231.11</ele>
        <time>2013-05-09T09:55:25Z</time>
      </trkpt>
      <trkpt lat="46.54548" lon="6.09427">
        <ele>1231.59</ele>
        <time>2013-05-09T09:56:05Z</time>
      </trkpt>
      <trkpt lat="46.54548" lon="6.09427">
        <ele>1231.59</ele>
        <time>2013-05-09T09:56:35Z</time>
      </trkpt>
      <trkpt lat="46.54548" lon="6.09428">
        <ele>1231.59</ele>
        <time>2013-05-09T09:57:06Z</time>
      </trkpt>
      <trkpt lat="46.54548" lon="6.09427">
        <ele>1231.59</ele>
        <time>2013-05-09T09:57:40Z</time>
      </trkpt>
      <trkpt lat="46.54546" lon="6.09426">
        <ele>1232.07</ele>
        <time>2013-05-09T09:57:45Z</time>
      </trkpt>
      <trkpt lat="46.54545" lon="6.09425">
        <ele>1231.59</ele>
        <time>2013-05-09T09:57:46Z</time>
      </trkpt>
      <trkpt lat="46.54543" lon="6.09424">
        <ele>1232.07</ele>
        <time>2013-05-09T09:57:48Z</time>
      </trkpt>
      <trkpt lat="46.54532" lon="6.09424">
        <ele>1231.11</ele>
        <time>2013-05-09T09:57:59Z</time>
      </trkpt>
      <trkpt lat="46.54526" lon="6.09434">
        <ele>1231.11</ele>
        <time>2013-05-09T09:58:06Z</time>
      </trkpt>
      <trkpt lat="46.54519" lon="6.09434">
        <ele>1230.62</ele>
        <time>2013-05-09T09:58:12Z</time>
      </trkpt>
      <trkpt lat="46.54505" lon="6.09436">
        <ele>1230.14</ele>
        <time>2013-05-09T09:58:29Z</time>
      </trkpt>
      <trkpt lat="46.54504" lon="6.09436">
        <ele>1230.14</ele>
        <time>2013-05-09T09:58:43Z</time>
      </trkpt>
      <trkpt lat="46.54488" lon="6.09444">
        <ele>1229.66</ele>
        <time>2013-05-09T09:58:56Z</time>
      </trkpt>
      <trkpt lat="46.54474" lon="6.09453">
        <ele>1229.66</ele>
        <time>2013-05-09T09:59:09Z</time>
      </trkpt>
      <trkpt lat="46.54469" lon="6.09455">
        <ele>1229.18</ele>
        <time>2013-05-09T09:59:14Z</time>
      </trkpt>
      <trkpt lat="46.54454" lon="6.09466">
        <ele>1228.22</ele>
        <time>2013-05-09T09:59:22Z</time>
      </trkpt>
      <trkpt lat="46.54446" lon="6.09469">
        <ele>1227.74</ele>
        <time>2013-05-09T09:59:26Z</time>
      </trkpt>
      <trkpt lat="46.54422" lon="6.09466">
        <ele>1227.74</ele>
        <time>2013-05-09T09:59:39Z</time>
      </trkpt>
      <trkpt lat="46.54418" lon="6.09464">
        <ele>1227.74</ele>
        <time>2013-05-09T09:59:51Z</time>
      </trkpt>
      <trkpt lat="46.54417" lon="6.09463">
        <ele>1228.22</ele>
        <time>2013-05-09T09:59:55Z</time>
      </trkpt>
      <trkpt lat="46.54403" lon="6.09443">
        <ele>1229.18</ele>
        <time>2013-05-09T10:00:11Z</time>
      </trkpt>
      <trkpt lat="46.54394" lon="6.09427">
        <ele>1230.14</ele>
        <time>2013-05-09T10:00:22Z</time>
      </trkpt>
      <trkpt lat="46.54392" lon="6.09424">
        <ele>1230.62</ele>
        <time>2013-05-09T10:00:36Z</time>
      </trkpt>
      <trkpt lat="46.54377" lon="6.09409">
        <ele>1232.07</ele>
        <time>2013-05-09T10:00:51Z</time>
      </trkpt>
      <trkpt lat="46.54371" lon="6.09403">
        <ele>1233.03</ele>
        <time>2013-05-09T10:01:01Z</time>
      </trkpt>
      <trkpt lat="46.54367" lon="6.094">
        <ele>1233.03</ele>
        <time>2013-05-09T10:01:05Z</time>
      </trkpt>
      <trkpt lat="46.54359" lon="6.09394">
        <ele>1233.99</ele>
        <time>2013-05-09T10:01:14Z</time>
      </trkpt>
      <trkpt lat="46.54354" lon="6.09387">
        <ele>1234.47</ele>
        <time>2013-05-09T10:01:23Z</time>
      </trkpt>
      <trkpt lat="46.54347" lon="6.0938">
        <ele>1234.95</ele>
        <time>2013-05-09T10:01:28Z</time>
      </trkpt>
      <trkpt lat="46.54322" lon="6.09347">
        <ele>1236.39</ele>
        <time>2013-05-09T10:01:39Z</time>
      </trkpt>
      <trkpt lat="46.54318" lon="6.09344">
        <ele>1236.87</ele>
        <time>2013-05-09T10:01:40Z</time>
      </trkpt>
      <trkpt lat="46.54314" lon="6.09342">
        <ele>1237.35</ele>
        <time>2013-05-09T10:01:41Z</time>
      </trkpt>
      <trkpt lat="46.54313" lon="6.09343">
        <ele>1237.83</ele>
        <time>2013-05-09T10:01:42Z</time>
      </trkpt>
      <trkpt lat="46.54313" lon="6.09343">
        <ele>1236.87</ele>
        <time>2013-05-09T10:01:50Z</time>
      </trkpt>
      <trkpt lat="46.54311" lon="6.09341">
        <ele>1237.83</ele>
        <time>2013-05-09T10:01:54Z</time>
      </trkpt>
      <trkpt lat="46.543" lon="6.09332">
        <ele>1238.32</ele>
        <time>2013-05-09T10:02:05Z</time>
      </trkpt>
      <trkpt lat="46.54299" lon="6.09332">
        <ele>1238.32</ele>
        <time>2013-05-09T10:02:06Z</time>
      </trkpt>
      <trkpt lat="46.54291" lon="6.09331">
        <ele>1238.32</ele>
        <time>2013-05-09T10:02:14Z</time>
      </trkpt>
      <trkpt lat="46.54289" lon="6.09331">
        <ele>1238.32</ele>
        <time>2013-05-09T10:02:15Z</time>
      </trkpt>
      <trkpt lat="46.5427" lon="6.09333">
        <ele>1236.87</ele>
        <time>2013-05-09T10:02:25Z</time>
      </trkpt>
      <trkpt lat="46.54254" lon="6.09324">
        <ele>1236.39</ele>
        <time>2013-05-09T10:02:34Z</time>
      </trkpt>
      <trkpt lat="46.54239" lon="6.09317">
        <ele>1235.43</ele>
        <time>2013-05-09T10:02:43Z</time>
      </trkpt>
      <trkpt lat="46.54237" lon="6.09316">
        <ele>1235.43</ele>
        <time>2013-05-09T10:02:44Z</time>
      </trkpt>
      <trkpt lat="46.54236" lon="6.09315">
        <ele>1235.43</ele>
        <time>2013-05-09T10:02:45Z</time>
      </trkpt>
      <trkpt lat="46.54215" lon="6.0929">
        <ele>1233.99</ele>
        <time>2013-05-09T10:02:59Z</time>
      </trkpt>
      <trkpt lat="46.54213" lon="6.09289">
        <ele>1233.99</ele>
        <time>2013-05-09T10:03:00Z</time>
      </trkpt>
      <trkpt lat="46.54212" lon="6.09287">
        <ele>1233.51</ele>
        <time>2013-05-09T10:03:01Z</time>
      </trkpt>
      <trkpt lat="46.54197" lon="6.09273">
        <ele>1232.55</ele>
        <time>2013-05-09T10:03:12Z</time>
      </trkpt>
      <trkpt lat="46.54194" lon="6.0927">
        <ele>1233.03</ele>
        <time>2013-05-09T10:03:15Z</time>
      </trkpt>
      <trkpt lat="46.54181" lon="6.09252">
        <ele>1233.03</ele>
        <time>2013-05-09T10:03:30Z</time>
      </trkpt>
      <trkpt lat="46.54171" lon="6.09243">
        <ele>1233.03</ele>
        <time>2013-05-09T10:03:40Z</time>
      </trkpt>
      <trkpt lat="46.54162" lon="6.09233">
        <ele>1233.03</ele>
        <time>2013-05-09T10:03:53Z</time>
      </trkpt>
      <trkpt lat="46.54148" lon="6.09219">
        <ele>1233.03</ele>
        <time>2013-05-09T10:04:07Z</time>
      </trkpt>
      <trkpt lat="46.54129" lon="6.0921">
        <ele>1233.51</ele>
        <time>2013-05-09T10:04:24Z</time>
      </trkpt>
      <trkpt lat="46.54112" lon="6.09212">
        <ele>1233.99</ele>
        <time>2013-05-09T10:04:39Z</time>
      </trkpt>
      <trkpt lat="46.54111" lon="6.09211">
        <ele>1233.99</ele>
        <time>2013-05-09T10:05:01Z</time>
      </trkpt>
      <trkpt lat="46.5411" lon="6.09211">
        <ele>1233.51</ele>
        <time>2013-05-09T10:05:23Z</time>
      </trkpt>
      <trkpt lat="46.54109" lon="6.09211">
        <ele>1234.47</ele>
        <time>2013-05-09T10:05:49Z</time>
      </trkpt>
      <trkpt lat="46.54091" lon="6.09206">
        <ele>1235.43</ele>
        <time>2013-05-09T10:06:04Z</time>
      </trkpt>
      <trkpt lat="46.5409" lon="6.09205">
        <ele>1235.43</ele>
        <time>2013-05-09T10:06:05Z</time>
      </trkpt>
      <trkpt lat="46.54089" lon="6.09205">
        <ele>1235.43</ele>
        <time>2013-05-09T10:06:06Z</time>
      </trkpt>
      <trkpt lat="46.54073" lon="6.092">
        <ele>1236.39</ele>
        <time>2013-05-09T10:06:20Z</time>
      </trkpt>
      <trkpt lat="46.54059" lon="6.09196">
        <ele>1236.87</ele>
        <time>2013-05-09T10:06:32Z</time>
      </trkpt>
      <trkpt lat="46.54047" lon="6.09191">
        <ele>1237.83</ele>
        <time>2013-05-09T10:06:41Z</time>
      </trkpt>
      <trkpt lat="46.54031" lon="6.09185">
        <ele>1238.8</ele>
        <time>2013-05-09T10:06:56Z</time>
      </trkpt>
      <trkpt lat="46.54014" lon="6.0918">
        <ele>1239.28</ele>
        <time>2013-05-09T10:07:11Z</time>
      </trkpt>
      <trkpt lat="46.53994" lon="6.09174">
        <ele>1240.24</ele>
        <time>2013-05-09T10:07:25Z</time>
      </trkpt>
      <trkpt lat="46.53985" lon="6.09169">
        <ele>1240.24</ele>
        <time>2013-05-09T10:07:34Z</time>
      </trkpt>
      <trkpt lat="46.53983" lon="6.09168">
        <ele>1240.24</ele>
        <time>2013-05-09T10:07:35Z</time>
      </trkpt>
      <trkpt lat="46.5398" lon="6.09168">
        <ele>1240.24</ele>
        <time>2013-05-09T10:07:37Z</time>
      </trkpt>
      <trkpt lat="46.53976" lon="6.09166">
        <ele>1240.24</ele>
        <time>2013-05-09T10:07:50Z</time>
      </trkpt>
      <trkpt lat="46.53975" lon="6.09166">
        <ele>1240.24</ele>
        <time>2013-05-09T10:07:51Z</time>
      </trkpt>
      <trkpt lat="46.53973" lon="6.09166">
        <ele>1240.72</ele>
        <time>2013-05-09T10:07:52Z</time>
      </trkpt>
      <trkpt lat="46.53971" lon="6.09167">
        <ele>1240.72</ele>
        <time>2013-05-09T10:07:53Z</time>
      </trkpt>
      <trkpt lat="46.53955" lon="6.09166">
        <ele>1240.72</ele>
        <time>2013-05-09T10:08:05Z</time>
      </trkpt>
      <trkpt lat="46.53945" lon="6.09167">
        <ele>1240.72</ele>
        <time>2013-05-09T10:08:16Z</time>
      </trkpt>
      <trkpt lat="46.53938" lon="6.09168">
        <ele>1240.72</ele>
        <time>2013-05-09T10:08:20Z</time>
      </trkpt>
      <trkpt lat="46.53937" lon="6.09169">
        <ele>1240.72</ele>
        <time>2013-05-09T10:08:21Z</time>
      </trkpt>
      <trkpt lat="46.53935" lon="6.09169">
        <ele>1240.72</ele>
        <time>2013-05-09T10:08:22Z</time>
      </trkpt>
      <trkpt lat="46.53914" lon="6.09169">
        <ele>1241.2</ele>
        <time>2013-05-09T10:08:36Z</time>
      </trkpt>
      <trkpt lat="46.53913" lon="6.09169">
        <ele>1241.2</ele>
        <time>2013-05-09T10:08:37Z</time>
      </trkpt>
      <trkpt lat="46.53912" lon="6.09168">
        <ele>1241.2</ele>
        <time>2013-05-09T10:08:38Z</time>
      </trkpt>
      <trkpt lat="46.53891" lon="6.09166">
        <ele>1241.2</ele>
        <time>2013-05-09T10:08:52Z</time>
      </trkpt>
      <trkpt lat="46.53887" lon="6.09167">
        <ele>1240.72</ele>
        <time>2013-05-09T10:08:58Z</time>
      </trkpt>
      <trkpt lat="46.53884" lon="6.09167">
        <ele>1240.72</ele>
        <time>2013-05-09T10:08:59Z</time>
      </trkpt>
      <trkpt lat="46.53881" lon="6.09166">
        <ele>1240.72</ele>
        <time>2013-05-09T10:09:00Z</time>
      </trkpt>
      <trkpt lat="46.53845" lon="6.09141">
        <ele>1239.76</ele>
        <time>2013-05-09T10:09:16Z</time>
      </trkpt>
      <trkpt lat="46.53842" lon="6.09136">
        <ele>1239.76</ele>
        <time>2013-05-09T10:09:24Z</time>
      </trkpt>
      <trkpt lat="46.53841" lon="6.09135">
        <ele>1239.76</ele>
        <time>2013-05-09T10:09:25Z</time>
      </trkpt>
      <trkpt lat="46.53839" lon="6.09133">
        <ele>1239.76</ele>
        <time>2013-05-09T10:09:27Z</time>
      </trkpt>
      <trkpt lat="46.53837" lon="6.09132">
        <ele>1239.76</ele>
        <time>2013-05-09T10:09:28Z</time>
      </trkpt>
      <trkpt lat="46.53836" lon="6.0913">
        <ele>1239.28</ele>
        <time>2013-05-09T10:09:29Z</time>
      </trkpt>
      <trkpt lat="46.53835" lon="6.09129">
        <ele>1239.28</ele>
        <time>2013-05-09T10:09:30Z</time>
      </trkpt>
      <trkpt lat="46.5383" lon="6.09124">
        <ele>1239.28</ele>
        <time>2013-05-09T10:09:36Z</time>
      </trkpt>
      <trkpt lat="46.53829" lon="6.09122">
        <ele>1239.28</ele>
        <time>2013-05-09T10:09:37Z</time>
      </trkpt>
      <trkpt lat="46.53813" lon="6.09111">
        <ele>1238.8</ele>
        <time>2013-05-09T10:09:48Z</time>
      </trkpt>
      <trkpt lat="46.53797" lon="6.091">
        <ele>1237.83</ele>
        <time>2013-05-09T10:09:59Z</time>
      </trkpt>
      <trkpt lat="46.53779" lon="6.09081">
        <ele>1236.87</ele>
        <time>2013-05-09T10:10:11Z</time>
      </trkpt>
      <trkpt lat="46.5376" lon="6.09058">
        <ele>1235.91</ele>
        <time>2013-05-09T10:10:22Z</time>
      </trkpt>
      <trkpt lat="46.53747" lon="6.09034">
        <ele>1235.43</ele>
        <time>2013-05-09T10:10:33Z</time>
      </trkpt>
      <trkpt lat="46.53746" lon="6.09002">
        <ele>1234.47</ele>
        <time>2013-05-09T10:10:43Z</time>
      </trkpt>
      <trkpt lat="46.53747" lon="6.08984">
        <ele>1233.99</ele>
        <time>2013-05-09T10:10:48Z</time>
      </trkpt>
      <trkpt lat="46.53747" lon="6.08979">
        <ele>1233.99</ele>
        <time>2013-05-09T10:10:49Z</time>
      </trkpt>
      <trkpt lat="46.53746" lon="6.08975">
        <ele>1233.51</ele>
        <time>2013-05-09T10:10:50Z</time>
      </trkpt>
      <trkpt lat="46.53745" lon="6.0897">
        <ele>1233.51</ele>
        <time>2013-05-09T10:10:51Z</time>
      </trkpt>
      <trkpt lat="46.53745" lon="6.08966">
        <ele>1233.51</ele>
        <time>2013-05-09T10:10:52Z</time>
      </trkpt>
      <trkpt lat="46.53744" lon="6.08962">
        <ele>1233.51</ele>
        <time>2013-05-09T10:10:53Z</time>
      </trkpt>
      <trkpt lat="46.53726" lon="6.08929">
        <ele>1233.03</ele>
        <time>2013-05-09T10:11:04Z</time>
      </trkpt>
      <trkpt lat="46.53718" lon="6.08912">
        <ele>1233.03</ele>
        <time>2013-05-09T10:11:10Z</time>
      </trkpt>
      <trkpt lat="46.53718" lon="6.08909">
        <ele>1233.03</ele>
        <time>2013-05-09T10:11:11Z</time>
      </trkpt>
      <trkpt lat="46.53716" lon="6.08906">
        <ele>1233.03</ele>
        <time>2013-05-09T10:11:12Z</time>
      </trkpt>
      <trkpt lat="46.53715" lon="6.08904">
        <ele>1233.03</ele>
        <time>2013-05-09T10:11:13Z</time>
      </trkpt>
      <trkpt lat="46.53714" lon="6.08902">
        <ele>1233.03</ele>
        <time>2013-05-09T10:11:14Z</time>
      </trkpt>
      <trkpt lat="46.53699" lon="6.08882">
        <ele>1232.55</ele>
        <time>2013-05-09T10:11:25Z</time>
      </trkpt>
      <trkpt lat="46.53664" lon="6.0887">
        <ele>1232.07</ele>
        <time>2013-05-09T10:11:37Z</time>
      </trkpt>
      <trkpt lat="46.53636" lon="6.08857">
        <ele>1231.59</ele>
        <time>2013-05-09T10:11:50Z</time>
      </trkpt>
      <trkpt lat="46.53629" lon="6.08852">
        <ele>1230.62</ele>
        <time>2013-05-09T10:11:56Z</time>
      </trkpt>
      <trkpt lat="46.53628" lon="6.08851">
        <ele>1230.62</ele>
        <time>2013-05-09T10:11:57Z</time>
      </trkpt>
      <trkpt lat="46.53627" lon="6.0885">
        <ele>1230.62</ele>
        <time>2013-05-09T10:11:58Z</time>
      </trkpt>
      <trkpt lat="46.53625" lon="6.08849">
        <ele>1230.62</ele>
        <time>2013-05-09T10:11:59Z</time>
      </trkpt>
      <trkpt lat="46.53623" lon="6.08848">
        <ele>1230.62</ele>
        <time>2013-05-09T10:12:00Z</time>
      </trkpt>
      <trkpt lat="46.53601" lon="6.08835">
        <ele>1229.18</ele>
        <time>2013-05-09T10:12:11Z</time>
      </trkpt>
      <trkpt lat="46.53565" lon="6.08824">
        <ele>1226.3</ele>
        <time>2013-05-09T10:12:23Z</time>
      </trkpt>
      <trkpt lat="46.53552" lon="6.08813">
        <ele>1225.82</ele>
        <time>2013-05-09T10:12:31Z</time>
      </trkpt>
      <trkpt lat="46.5355" lon="6.08812">
        <ele>1225.82</ele>
        <time>2013-05-09T10:12:33Z</time>
      </trkpt>
      <trkpt lat="46.53549" lon="6.08811">
        <ele>1225.82</ele>
        <time>2013-05-09T10:12:34Z</time>
      </trkpt>
      <trkpt lat="46.53549" lon="6.08809">
        <ele>1225.82</ele>
        <time>2013-05-09T10:12:35Z</time>
      </trkpt>
      <trkpt lat="46.53548" lon="6.08809">
        <ele>1225.82</ele>
        <time>2013-05-09T10:12:36Z</time>
      </trkpt>
      <trkpt lat="46.53547" lon="6.08808">
        <ele>1225.82</ele>
        <time>2013-05-09T10:12:37Z</time>
      </trkpt>
      <trkpt lat="46.53546" lon="6.08806">
        <ele>1225.34</ele>
        <time>2013-05-09T10:12:38Z</time>
      </trkpt>
      <trkpt lat="46.53545" lon="6.08805">
        <ele>1225.34</ele>
        <time>2013-05-09T10:12:39Z</time>
      </trkpt>
      <trkpt lat="46.53533" lon="6.08788">
        <ele>1225.34</ele>
        <time>2013-05-09T10:12:51Z</time>
      </trkpt>
      <trkpt lat="46.53523" lon="6.08765">
        <ele>1225.82</ele>
        <time>2013-05-09T10:13:01Z</time>
      </trkpt>
      <trkpt lat="46.53523" lon="6.08763">
        <ele>1226.3</ele>
        <time>2013-05-09T10:13:02Z</time>
      </trkpt>
      <trkpt lat="46.53522" lon="6.08761">
        <ele>1226.3</ele>
        <time>2013-05-09T10:13:03Z</time>
      </trkpt>
      <trkpt lat="46.5352" lon="6.08756">
        <ele>1226.3</ele>
        <time>2013-05-09T10:13:06Z</time>
      </trkpt>
      <trkpt lat="46.5352" lon="6.08755">
        <ele>1226.3</ele>
        <time>2013-05-09T10:13:07Z</time>
      </trkpt>
      <trkpt lat="46.53517" lon="6.08748">
        <ele>1226.3</ele>
        <time>2013-05-09T10:13:17Z</time>
      </trkpt>
      <trkpt lat="46.53514" lon="6.08745">
        <ele>1226.3</ele>
        <time>2013-05-09T10:13:21Z</time>
      </trkpt>
      <trkpt lat="46.53512" lon="6.08744">
        <ele>1225.82</ele>
        <time>2013-05-09T10:13:22Z</time>
      </trkpt>
      <trkpt lat="46.53506" lon="6.08725">
        <ele>1225.82</ele>
        <time>2013-05-09T10:13:35Z</time>
      </trkpt>
      <trkpt lat="46.535" lon="6.08712">
        <ele>1225.82</ele>
        <time>2013-05-09T10:13:50Z</time>
      </trkpt>
      <trkpt lat="46.53494" lon="6.08703">
        <ele>1226.3</ele>
        <time>2013-05-09T10:13:59Z</time>
      </trkpt>
      <trkpt lat="46.53482" lon="6.08696">
        <ele>1226.3</ele>
        <time>2013-05-09T10:14:13Z</time>
      </trkpt>
      <trkpt lat="46.5347" lon="6.08691">
        <ele>1226.78</ele>
        <time>2013-05-09T10:14:25Z</time>
      </trkpt>
      <trkpt lat="46.53463" lon="6.08681">
        <ele>1226.3</ele>
        <time>2013-05-09T10:14:40Z</time>
      </trkpt>
      <trkpt lat="46.53463" lon="6.08681">
        <ele>1226.3</ele>
        <time>2013-05-09T10:15:17Z</time>
      </trkpt>
      <trkpt lat="46.53463" lon="6.08681">
        <ele>1226.3</ele>
        <time>2013-05-09T10:15:50Z</time>
      </trkpt>
      <trkpt lat="46.5346" lon="6.0868">
        <ele>1226.78</ele>
        <time>2013-05-09T10:16:23Z</time>
      </trkpt>
      <trkpt lat="46.53455" lon="6.08676">
        <ele>1226.78</ele>
        <time>2013-05-09T10:16:41Z</time>
      </trkpt>
      <trkpt lat="46.53444" lon="6.08655">
        <ele>1226.3</ele>
        <time>2013-05-09T10:16:51Z</time>
      </trkpt>
      <trkpt lat="46.53427" lon="6.0863">
        <ele>1226.3</ele>
        <time>2013-05-09T10:17:02Z</time>
      </trkpt>
      <trkpt lat="46.53409" lon="6.08607">
        <ele>1225.34</ele>
        <time>2013-05-09T10:17:13Z</time>
      </trkpt>
      <trkpt lat="46.53385" lon="6.08577">
        <ele>1224.38</ele>
        <time>2013-05-09T10:17:26Z</time>
      </trkpt>
      <trkpt lat="46.53381" lon="6.08566">
        <ele>1224.38</ele>
        <time>2013-05-09T10:17:36Z</time>
      </trkpt>
      <trkpt lat="46.53373" lon="6.08544">
        <ele>1223.9</ele>
        <time>2013-05-09T10:17:49Z</time>
      </trkpt>
      <trkpt lat="46.53369" lon="6.0853">
        <ele>1223.9</ele>
        <time>2013-05-09T10:17:57Z</time>
      </trkpt>
      <trkpt lat="46.53367" lon="6.08519">
        <ele>1223.42</ele>
        <time>2013-05-09T10:18:05Z</time>
      </trkpt>
      <trkpt lat="46.53367" lon="6.08517">
        <ele>1223.42</ele>
        <time>2013-05-09T10:18:06Z</time>
      </trkpt>
      <trkpt lat="46.53366" lon="6.08515">
        <ele>1223.42</ele>
        <time>2013-05-09T10:18:07Z</time>
      </trkpt>
      <trkpt lat="46.53365" lon="6.08512">
        <ele>1223.42</ele>
        <time>2013-05-09T10:18:08Z</time>
      </trkpt>
      <trkpt lat="46.53364" lon="6.08509">
        <ele>1222.93</ele>
        <time>2013-05-09T10:18:09Z</time>
      </trkpt>
      <trkpt lat="46.53364" lon="6.08507">
        <ele>1222.93</ele>
        <time>2013-05-09T10:18:10Z</time>
      </trkpt>
      <trkpt lat="46.53364" lon="6.08504">
        <ele>1222.93</ele>
        <time>2013-05-09T10:18:11Z</time>
      </trkpt>
      <trkpt lat="46.53364" lon="6.08502">
        <ele>1222.93</ele>
        <time>2013-05-09T10:18:12Z</time>
      </trkpt>
      <trkpt lat="46.53366" lon="6.08492">
        <ele>1222.93</ele>
        <time>2013-05-09T10:18:16Z</time>
      </trkpt>
      <trkpt lat="46.53366" lon="6.08488">
        <ele>1222.93</ele>
        <time>2013-05-09T10:18:17Z</time>
      </trkpt>
      <trkpt lat="46.53368" lon="6.08476">
        <ele>1222.93</ele>
        <time>2013-05-09T10:18:21Z</time>
      </trkpt>
      <trkpt lat="46.53372" lon="6.08456">
        <ele>1222.93</ele>
        <time>2013-05-09T10:18:32Z</time>
      </trkpt>
      <trkpt lat="46.53373" lon="6.0845">
        <ele>1222.93</ele>
        <time>2013-05-09T10:18:35Z</time>
      </trkpt>
      <trkpt lat="46.53378" lon="6.08442">
        <ele>1222.93</ele>
        <time>2013-05-09T10:18:46Z</time>
      </trkpt>
      <trkpt lat="46.53385" lon="6.08425">
        <ele>1223.9</ele>
        <time>2013-05-09T10:18:55Z</time>
      </trkpt>
      <trkpt lat="46.534" lon="6.08401">
        <ele>1224.38</ele>
        <time>2013-05-09T10:19:07Z</time>
      </trkpt>
      <trkpt lat="46.53415" lon="6.08383">
        <ele>1224.86</ele>
        <time>2013-05-09T10:19:19Z</time>
      </trkpt>
      <trkpt lat="46.53427" lon="6.08371">
        <ele>1224.38</ele>
        <time>2013-05-09T10:19:29Z</time>
      </trkpt>
      <trkpt lat="46.53428" lon="6.08369">
        <ele>1224.86</ele>
        <time>2013-05-09T10:19:45Z</time>
      </trkpt>
      <trkpt lat="46.53428" lon="6.08369">
        <ele>1224.86</ele>
        <time>2013-05-09T10:20:00Z</time>
      </trkpt>
      <trkpt lat="46.53428" lon="6.08369">
        <ele>1224.86</ele>
        <time>2013-05-09T10:20:27Z</time>
      </trkpt>
      <trkpt lat="46.53428" lon="6.08369">
        <ele>1224.86</ele>
        <time>2013-05-09T10:20:52Z</time>
      </trkpt>
      <trkpt lat="46.53428" lon="6.08369">
        <ele>1224.86</ele>
        <time>2013-05-09T10:21:22Z</time>
      </trkpt>
      <trkpt lat="46.53428" lon="6.08369">
        <ele>1225.34</ele>
        <time>2013-05-09T10:21:54Z</time>
      </trkpt>
      <trkpt lat="46.53435" lon="6.08362">
        <ele>1225.34</ele>
        <time>2013-05-09T10:22:07Z</time>
      </trkpt>
      <trkpt lat="46.53446" lon="6.08351">
        <ele>1225.34</ele>
        <time>2013-05-09T10:22:22Z</time>
      </trkpt>
      <trkpt lat="46.53457" lon="6.08345">
        <ele>1225.34</ele>
        <time>2013-05-09T10:22:35Z</time>
      </trkpt>
      <trkpt lat="46.53467" lon="6.08341">
        <ele>1225.82</ele>
        <time>2013-05-09T10:22:47Z</time>
      </trkpt>
      <trkpt lat="46.53479" lon="6.08339">
        <ele>1226.3</ele>
        <time>2013-05-09T10:23:00Z</time>
      </trkpt>
      <trkpt lat="46.53485" lon="6.08334">
        <ele>1227.26</ele>
        <time>2013-05-09T10:23:13Z</time>
      </trkpt>
      <trkpt lat="46.53498" lon="6.08332">
        <ele>1228.22</ele>
        <time>2013-05-09T10:23:25Z</time>
      </trkpt>
      <trkpt lat="46.53507" lon="6.08328">
        <ele>1228.7</ele>
        <time>2013-05-09T10:23:36Z</time>
      </trkpt>
      <trkpt lat="46.53519" lon="6.08323">
        <ele>1231.11</ele>
        <time>2013-05-09T10:23:49Z</time>
      </trkpt>
      <trkpt lat="46.53524" lon="6.0832">
        <ele>1230.14</ele>
        <time>2013-05-09T10:24:00Z</time>
      </trkpt>
      <trkpt lat="46.53537" lon="6.08316">
        <ele>1231.11</ele>
        <time>2013-05-09T10:24:12Z</time>
      </trkpt>
      <trkpt lat="46.5354" lon="6.08315">
        <ele>1231.11</ele>
        <time>2013-05-09T10:24:16Z</time>
      </trkpt>
      <trkpt lat="46.53552" lon="6.0831">
        <ele>1231.59</ele>
        <time>2013-05-09T10:24:28Z</time>
      </trkpt>
      <trkpt lat="46.53564" lon="6.08307">
        <ele>1232.55</ele>
        <time>2013-05-09T10:24:38Z</time>
      </trkpt>
      <trkpt lat="46.53567" lon="6.08307">
        <ele>1232.07</ele>
        <time>2013-05-09T10:24:40Z</time>
      </trkpt>
      <trkpt lat="46.53579" lon="6.08304">
        <ele>1232.07</ele>
        <time>2013-05-09T10:24:53Z</time>
      </trkpt>
      <trkpt lat="46.53593" lon="6.083">
        <ele>1232.07</ele>
        <time>2013-05-09T10:25:06Z</time>
      </trkpt>
      <trkpt lat="46.53606" lon="6.083">
        <ele>1232.07</ele>
        <time>2013-05-09T10:25:16Z</time>
      </trkpt>
      <trkpt lat="46.53617" lon="6.08296">
        <ele>1232.55</ele>
        <time>2013-05-09T10:25:29Z</time>
      </trkpt>
      <trkpt lat="46.53619" lon="6.08295">
        <ele>1232.55</ele>
        <time>2013-05-09T10:25:31Z</time>
      </trkpt>
      <trkpt lat="46.53633" lon="6.08292">
        <ele>1232.55</ele>
        <time>2013-05-09T10:25:45Z</time>
      </trkpt>
      <trkpt lat="46.53644" lon="6.0829">
        <ele>1232.55</ele>
        <time>2013-05-09T10:25:57Z</time>
      </trkpt>
      <trkpt lat="46.53656" lon="6.08286">
        <ele>1232.55</ele>
        <time>2013-05-09T10:26:08Z</time>
      </trkpt>
      <trkpt lat="46.53672" lon="6.08284">
        <ele>1232.55</ele>
        <time>2013-05-09T10:26:23Z</time>
      </trkpt>
      <trkpt lat="46.53684" lon="6.08281">
        <ele>1232.55</ele>
        <time>2013-05-09T10:26:34Z</time>
      </trkpt>
      <trkpt lat="46.5369" lon="6.0828">
        <ele>1232.07</ele>
        <time>2013-05-09T10:26:41Z</time>
      </trkpt>
      <trkpt lat="46.53691" lon="6.0828">
        <ele>1232.07</ele>
        <time>2013-05-09T10:26:42Z</time>
      </trkpt>
      <trkpt lat="46.53699" lon="6.08278">
        <ele>1232.07</ele>
        <time>2013-05-09T10:26:49Z</time>
      </trkpt>
      <trkpt lat="46.537" lon="6.08277">
        <ele>1232.07</ele>
        <time>2013-05-09T10:26:50Z</time>
      </trkpt>
      <trkpt lat="46.53713" lon="6.08276">
        <ele>1231.59</ele>
        <time>2013-05-09T10:27:03Z</time>
      </trkpt>
      <trkpt lat="46.53725" lon="6.08276">
        <ele>1231.11</ele>
        <time>2013-05-09T10:27:13Z</time>
      </trkpt>
      <trkpt lat="46.53727" lon="6.08277">
        <ele>1231.11</ele>
        <time>2013-05-09T10:27:14Z</time>
      </trkpt>
      <trkpt lat="46.5373" lon="6.08275">
        <ele>1231.11</ele>
        <time>2013-05-09T10:27:17Z</time>
      </trkpt>
      <trkpt lat="46.53736" lon="6.0827">
        <ele>1230.62</ele>
        <time>2013-05-09T10:27:23Z</time>
      </trkpt>
      <trkpt lat="46.53737" lon="6.0827">
        <ele>1230.62</ele>
        <time>2013-05-09T10:27:24Z</time>
      </trkpt>
      <trkpt lat="46.53738" lon="6.08269">
        <ele>1230.62</ele>
        <time>2013-05-09T10:27:25Z</time>
      </trkpt>
      <trkpt lat="46.53746" lon="6.08267">
        <ele>1230.14</ele>
        <time>2013-05-09T10:27:32Z</time>
      </trkpt>
      <trkpt lat="46.53747" lon="6.08268">
        <ele>1230.14</ele>
        <time>2013-05-09T10:27:33Z</time>
      </trkpt>
      <trkpt lat="46.53754" lon="6.08266">
        <ele>1230.14</ele>
        <time>2013-05-09T10:27:39Z</time>
      </trkpt>
      <trkpt lat="46.53758" lon="6.08263">
        <ele>1230.14</ele>
        <time>2013-05-09T10:27:55Z</time>
      </trkpt>
      <trkpt lat="46.53758" lon="6.08263">
        <ele>1230.14</ele>
        <time>2013-05-09T10:28:18Z</time>
      </trkpt>
      <trkpt lat="46.53767" lon="6.08258">
        <ele>1230.14</ele>
        <time>2013-05-09T10:28:32Z</time>
      </trkpt>
      <trkpt lat="46.53771" lon="6.08257">
        <ele>1229.66</ele>
        <time>2013-05-09T10:28:35Z</time>
      </trkpt>
      <trkpt lat="46.53773" lon="6.08256">
        <ele>1229.66</ele>
        <time>2013-05-09T10:28:37Z</time>
      </trkpt>
      <trkpt lat="46.53783" lon="6.08249">
        <ele>1230.14</ele>
        <time>2013-05-09T10:28:48Z</time>
      </trkpt>
      <trkpt lat="46.53785" lon="6.08249">
        <ele>1229.66</ele>
        <time>2013-05-09T10:28:53Z</time>
      </trkpt>
      <trkpt lat="46.53795" lon="6.08242">
        <ele>1230.14</ele>
        <time>2013-05-09T10:29:03Z</time>
      </trkpt>
      <trkpt lat="46.53806" lon="6.0823">
        <ele>1230.62</ele>
        <time>2013-05-09T10:29:15Z</time>
      </trkpt>
      <trkpt lat="46.53822" lon="6.08218">
        <ele>1230.62</ele>
        <time>2013-05-09T10:29:30Z</time>
      </trkpt>
      <trkpt lat="46.53823" lon="6.08218">
        <ele>1230.62</ele>
        <time>2013-05-09T10:29:31Z</time>
      </trkpt>
      <trkpt lat="46.53825" lon="6.08217">
        <ele>1231.11</ele>
        <time>2013-05-09T10:29:32Z</time>
      </trkpt>
      <trkpt lat="46.53839" lon="6.08205">
        <ele>1231.11</ele>
        <time>2013-05-09T10:29:46Z</time>
      </trkpt>
      <trkpt lat="46.5385" lon="6.08195">
        <ele>1231.59</ele>
        <time>2013-05-09T10:30:01Z</time>
      </trkpt>
      <trkpt lat="46.5386" lon="6.08187">
        <ele>1232.07</ele>
        <time>2013-05-09T10:30:15Z</time>
      </trkpt>
      <trkpt lat="46.53871" lon="6.08177">
        <ele>1233.03</ele>
        <time>2013-05-09T10:30:30Z</time>
      </trkpt>
      <trkpt lat="46.53876" lon="6.08173">
        <ele>1233.51</ele>
        <time>2013-05-09T10:30:42Z</time>
      </trkpt>
      <trkpt lat="46.53888" lon="6.08168">
        <ele>1234.95</ele>
        <time>2013-05-09T10:30:56Z</time>
      </trkpt>
      <trkpt lat="46.53898" lon="6.08162">
        <ele>1236.39</ele>
        <time>2013-05-09T10:31:10Z</time>
      </trkpt>
      <trkpt lat="46.53908" lon="6.08161">
        <ele>1237.35</ele>
        <time>2013-05-09T10:31:23Z</time>
      </trkpt>
      <trkpt lat="46.53916" lon="6.08159">
        <ele>1238.8</ele>
        <time>2013-05-09T10:31:37Z</time>
      </trkpt>
      <trkpt lat="46.53916" lon="6.08159">
        <ele>1240.72</ele>
        <time>2013-05-09T10:31:54Z</time>
      </trkpt>
      <trkpt lat="46.53917" lon="6.08159">
        <ele>1239.28</ele>
        <time>2013-05-09T10:32:21Z</time>
      </trkpt>
      <trkpt lat="46.53917" lon="6.08159">
        <ele>1239.28</ele>
        <time>2013-05-09T10:32:45Z</time>
      </trkpt>
      <trkpt lat="46.53927" lon="6.08162">
        <ele>1239.76</ele>
        <time>2013-05-09T10:32:59Z</time>
      </trkpt>
      <trkpt lat="46.5394" lon="6.08159">
        <ele>1241.68</ele>
        <time>2013-05-09T10:33:14Z</time>
      </trkpt>
      <trkpt lat="46.53954" lon="6.08153">
        <ele>1243.6</ele>
        <time>2013-05-09T10:33:28Z</time>
      </trkpt>
      <trkpt lat="46.53967" lon="6.08149">
        <ele>1245.04</ele>
        <time>2013-05-09T10:33:43Z</time>
      </trkpt>
      <trkpt lat="46.53976" lon="6.0815">
        <ele>1246.49</ele>
        <time>2013-05-09T10:33:57Z</time>
      </trkpt>
      <trkpt lat="46.53984" lon="6.08154">
        <ele>1246.97</ele>
        <time>2013-05-09T10:34:12Z</time>
      </trkpt>
      <trkpt lat="46.53985" lon="6.08154">
        <ele>1246.97</ele>
        <time>2013-05-09T10:34:26Z</time>
      </trkpt>
      <trkpt lat="46.53985" lon="6.08154">
        <ele>1247.93</ele>
        <time>2013-05-09T10:34:49Z</time>
      </trkpt>
      <trkpt lat="46.53985" lon="6.08154">
        <ele>1246.97</ele>
        <time>2013-05-09T10:35:11Z</time>
      </trkpt>
      <trkpt lat="46.53985" lon="6.08154">
        <ele>1247.45</ele>
        <time>2013-05-09T10:35:37Z</time>
      </trkpt>
      <trkpt lat="46.53985" lon="6.08154">
        <ele>1248.41</ele>
        <time>2013-05-09T10:35:52Z</time>
      </trkpt>
      <trkpt lat="46.53985" lon="6.08154">
        <ele>1246.49</ele>
        <time>2013-05-09T10:35:54Z</time>
      </trkpt>
      <trkpt lat="46.53985" lon="6.08154">
        <ele>1249.37</ele>
        <time>2013-05-09T10:35:56Z</time>
      </trkpt>
      <trkpt lat="46.53985" lon="6.08154">
        <ele>1246.97</ele>
        <time>2013-05-09T10:36:16Z</time>
      </trkpt>
      <trkpt lat="46.53985" lon="6.08154">
        <ele>1246.97</ele>
        <time>2013-05-09T10:36:45Z</time>
      </trkpt>
      <trkpt lat="46.53985" lon="6.08154">
        <ele>1247.93</ele>
        <time>2013-05-09T10:37:06Z</time>
      </trkpt>
      <trkpt lat="46.53985" lon="6.08154">
        <ele>1247.45</ele>
        <time>2013-05-09T10:37:31Z</time>
      </trkpt>
      <trkpt lat="46.53985" lon="6.08153">
        <ele>1248.41</ele>
        <time>2013-05-09T10:37:57Z</time>
      </trkpt>
      <trkpt lat="46.53986" lon="6.08153">
        <ele>1246.97</ele>
        <time>2013-05-09T10:38:23Z</time>
      </trkpt>
      <trkpt lat="46.53986" lon="6.08153">
        <ele>1246.97</ele>
        <time>2013-05-09T10:38:50Z</time>
      </trkpt>
      <trkpt lat="46.53994" lon="6.0815">
        <ele>1245.53</ele>
        <time>2013-05-09T10:39:04Z</time>
      </trkpt>
      <trkpt lat="46.54006" lon="6.08141">
        <ele>1244.56</ele>
        <time>2013-05-09T10:39:15Z</time>
      </trkpt>
      <trkpt lat="46.54019" lon="6.08132">
        <ele>1243.6</ele>
        <time>2013-05-09T10:39:28Z</time>
      </trkpt>
      <trkpt lat="46.5403" lon="6.08125">
        <ele>1243.6</ele>
        <time>2013-05-09T10:39:40Z</time>
      </trkpt>
      <trkpt lat="46.5404" lon="6.08118">
        <ele>1242.64</ele>
        <time>2013-05-09T10:39:50Z</time>
      </trkpt>
      <trkpt lat="46.54049" lon="6.08107">
        <ele>1242.16</ele>
        <time>2013-05-09T10:40:02Z</time>
      </trkpt>
      <trkpt lat="46.5405" lon="6.08106">
        <ele>1242.64</ele>
        <time>2013-05-09T10:40:03Z</time>
      </trkpt>
      <trkpt lat="46.54052" lon="6.08104">
        <ele>1242.16</ele>
        <time>2013-05-09T10:40:04Z</time>
      </trkpt>
      <trkpt lat="46.54065" lon="6.08092">
        <ele>1242.16</ele>
        <time>2013-05-09T10:40:17Z</time>
      </trkpt>
      <trkpt lat="46.54067" lon="6.08088">
        <ele>1242.16</ele>
        <time>2013-05-09T10:40:19Z</time>
      </trkpt>
      <trkpt lat="46.54068" lon="6.08086">
        <ele>1242.16</ele>
        <time>2013-05-09T10:40:20Z</time>
      </trkpt>
      <trkpt lat="46.54069" lon="6.08084">
        <ele>1241.68</ele>
        <time>2013-05-09T10:40:21Z</time>
      </trkpt>
      <trkpt lat="46.54071" lon="6.08084">
        <ele>1242.16</ele>
        <time>2013-05-09T10:40:22Z</time>
      </trkpt>
      <trkpt lat="46.54072" lon="6.08083">
        <ele>1242.16</ele>
        <time>2013-05-09T10:40:23Z</time>
      </trkpt>
      <trkpt lat="46.54073" lon="6.08081">
        <ele>1242.16</ele>
        <time>2013-05-09T10:40:24Z</time>
      </trkpt>
      <trkpt lat="46.54083" lon="6.08068">
        <ele>1241.68</ele>
        <time>2013-05-09T10:40:37Z</time>
      </trkpt>
      <trkpt lat="46.54093" lon="6.08054">
        <ele>1242.16</ele>
        <time>2013-05-09T10:40:49Z</time>
      </trkpt>
      <trkpt lat="46.54094" lon="6.08053">
        <ele>1242.16</ele>
        <time>2013-05-09T10:40:50Z</time>
      </trkpt>
      <trkpt lat="46.54097" lon="6.0805">
        <ele>1242.16</ele>
        <time>2013-05-09T10:40:53Z</time>
      </trkpt>
      <trkpt lat="46.54105" lon="6.08038">
        <ele>1242.64</ele>
        <time>2013-05-09T10:41:06Z</time>
      </trkpt>
      <trkpt lat="46.54113" lon="6.08031">
        <ele>1243.12</ele>
        <time>2013-05-09T10:41:18Z</time>
      </trkpt>
      <trkpt lat="46.5412" lon="6.08024">
        <ele>1243.12</ele>
        <time>2013-05-09T10:41:29Z</time>
      </trkpt>
      <trkpt lat="46.54122" lon="6.08021">
        <ele>1243.12</ele>
        <time>2013-05-09T10:41:31Z</time>
      </trkpt>
      <trkpt lat="46.54126" lon="6.08014">
        <ele>1243.12</ele>
        <time>2013-05-09T10:41:40Z</time>
      </trkpt>
      <trkpt lat="46.54135" lon="6.07999">
        <ele>1243.12</ele>
        <time>2013-05-09T10:41:52Z</time>
      </trkpt>
      <trkpt lat="46.54136" lon="6.07996">
        <ele>1243.12</ele>
        <time>2013-05-09T10:41:54Z</time>
      </trkpt>
      <trkpt lat="46.54142" lon="6.0799">
        <ele>1244.08</ele>
        <time>2013-05-09T10:42:06Z</time>
      </trkpt>
      <trkpt lat="46.54149" lon="6.07981">
        <ele>1244.56</ele>
        <time>2013-05-09T10:42:23Z</time>
      </trkpt>
      <trkpt lat="46.54156" lon="6.07974">
        <ele>1244.56</ele>
        <time>2013-05-09T10:42:36Z</time>
      </trkpt>
      <trkpt lat="46.54156" lon="6.07974">
        <ele>1244.08</ele>
        <time>2013-05-09T10:42:55Z</time>
      </trkpt>
      <trkpt lat="46.54156" lon="6.07973">
        <ele>1244.08</ele>
        <time>2013-05-09T10:43:28Z</time>
      </trkpt>
      <trkpt lat="46.54157" lon="6.07973">
        <ele>1244.08</ele>
        <time>2013-05-09T10:43:55Z</time>
      </trkpt>
      <trkpt lat="46.54157" lon="6.07973">
        <ele>1245.04</ele>
        <time>2013-05-09T10:44:20Z</time>
      </trkpt>
      <trkpt lat="46.54164" lon="6.07966">
        <ele>1245.04</ele>
        <time>2013-05-09T10:44:29Z</time>
      </trkpt>
      <trkpt lat="46.54171" lon="6.07957">
        <ele>1244.56</ele>
        <time>2013-05-09T10:44:37Z</time>
      </trkpt>
      <trkpt lat="46.54172" lon="6.07956">
        <ele>1244.56</ele>
        <time>2013-05-09T10:44:38Z</time>
      </trkpt>
      <trkpt lat="46.54185" lon="6.07946">
        <ele>1244.08</ele>
        <time>2013-05-09T10:44:49Z</time>
      </trkpt>
      <trkpt lat="46.5419" lon="6.07943">
        <ele>1244.08</ele>
        <time>2013-05-09T10:45:02Z</time>
      </trkpt>
      <trkpt lat="46.54207" lon="6.07928">
        <ele>1243.6</ele>
        <time>2013-05-09T10:45:16Z</time>
      </trkpt>
      <trkpt lat="46.54214" lon="6.07921">
        <ele>1243.6</ele>
        <time>2013-05-09T10:45:23Z</time>
      </trkpt>
      <trkpt lat="46.54218" lon="6.07915">
        <ele>1243.12</ele>
        <time>2013-05-09T10:45:27Z</time>
      </trkpt>
      <trkpt lat="46.54229" lon="6.07906">
        <ele>1242.16</ele>
        <time>2013-05-09T10:45:38Z</time>
      </trkpt>
      <trkpt lat="46.54241" lon="6.07894">
        <ele>1242.64</ele>
        <time>2013-05-09T10:45:51Z</time>
      </trkpt>
      <trkpt lat="46.54248" lon="6.07889">
        <ele>1243.12</ele>
        <time>2013-05-09T10:46:01Z</time>
      </trkpt>
      <trkpt lat="46.54258" lon="6.0788">
        <ele>1242.64</ele>
        <time>2013-05-09T10:46:14Z</time>
      </trkpt>
      <trkpt lat="46.54265" lon="6.07872">
        <ele>1242.16</ele>
        <time>2013-05-09T10:46:23Z</time>
      </trkpt>
      <trkpt lat="46.54277" lon="6.07857">
        <ele>1241.68</ele>
        <time>2013-05-09T10:46:35Z</time>
      </trkpt>
      <trkpt lat="46.5428" lon="6.0785">
        <ele>1240.72</ele>
        <time>2013-05-09T10:46:39Z</time>
      </trkpt>
      <trkpt lat="46.54289" lon="6.07843">
        <ele>1239.28</ele>
        <time>2013-05-09T10:46:51Z</time>
      </trkpt>
      <trkpt lat="46.54295" lon="6.07833">
        <ele>1238.32</ele>
        <time>2013-05-09T10:47:01Z</time>
      </trkpt>
      <trkpt lat="46.54297" lon="6.07831">
        <ele>1237.83</ele>
        <time>2013-05-09T10:47:03Z</time>
      </trkpt>
      <trkpt lat="46.543" lon="6.07827">
        <ele>1237.83</ele>
        <time>2013-05-09T10:47:08Z</time>
      </trkpt>
      <trkpt lat="46.54311" lon="6.07817">
        <ele>1237.35</ele>
        <time>2013-05-09T10:47:21Z</time>
      </trkpt>
      <trkpt lat="46.54318" lon="6.07806">
        <ele>1237.83</ele>
        <time>2013-05-09T10:47:32Z</time>
      </trkpt>
      <trkpt lat="46.54327" lon="6.07793">
        <ele>1238.8</ele>
        <time>2013-05-09T10:47:44Z</time>
      </trkpt>
      <trkpt lat="46.54335" lon="6.07778">
        <ele>1239.76</ele>
        <time>2013-05-09T10:47:58Z</time>
      </trkpt>
      <trkpt lat="46.54342" lon="6.07767">
        <ele>1240.24</ele>
        <time>2013-05-09T10:48:12Z</time>
      </trkpt>
      <trkpt lat="46.54345" lon="6.07763">
        <ele>1240.24</ele>
        <time>2013-05-09T10:48:15Z</time>
      </trkpt>
      <trkpt lat="46.54347" lon="6.07758">
        <ele>1241.2</ele>
        <time>2013-05-09T10:48:19Z</time>
      </trkpt>
      <trkpt lat="46.54349" lon="6.07756">
        <ele>1241.68</ele>
        <time>2013-05-09T10:48:23Z</time>
      </trkpt>
      <trkpt lat="46.54354" lon="6.07744">
        <ele>1243.12</ele>
        <time>2013-05-09T10:48:35Z</time>
      </trkpt>
      <trkpt lat="46.5436" lon="6.07731">
        <ele>1244.56</ele>
        <time>2013-05-09T10:48:48Z</time>
      </trkpt>
      <trkpt lat="46.54366" lon="6.07722">
        <ele>1245.53</ele>
        <time>2013-05-09T10:49:02Z</time>
      </trkpt>
      <trkpt lat="46.54371" lon="6.07712">
        <ele>1246.49</ele>
        <time>2013-05-09T10:49:18Z</time>
      </trkpt>
      <trkpt lat="46.54381" lon="6.07701">
        <ele>1246.97</ele>
        <time>2013-05-09T10:49:30Z</time>
      </trkpt>
      <trkpt lat="46.54387" lon="6.07693">
        <ele>1247.45</ele>
        <time>2013-05-09T10:49:38Z</time>
      </trkpt>
      <trkpt lat="46.54389" lon="6.07691">
        <ele>1247.45</ele>
        <time>2013-05-09T10:49:40Z</time>
      </trkpt>
      <trkpt lat="46.54396" lon="6.07689">
        <ele>1247.45</ele>
        <time>2013-05-09T10:49:46Z</time>
      </trkpt>
      <trkpt lat="46.5441" lon="6.07679">
        <ele>1247.93</ele>
        <time>2013-05-09T10:49:58Z</time>
      </trkpt>
      <trkpt lat="46.54412" lon="6.07677">
        <ele>1247.93</ele>
        <time>2013-05-09T10:50:00Z</time>
      </trkpt>
      <trkpt lat="46.54413" lon="6.07676">
        <ele>1247.93</ele>
        <time>2013-05-09T10:50:01Z</time>
      </trkpt>
      <trkpt lat="46.54419" lon="6.07672">
        <ele>1248.41</ele>
        <time>2013-05-09T10:50:11Z</time>
      </trkpt>
      <trkpt lat="46.54426" lon="6.07663">
        <ele>1249.37</ele>
        <time>2013-05-09T10:50:22Z</time>
      </trkpt>
      <trkpt lat="46.54432" lon="6.07655">
        <ele>1249.85</ele>
        <time>2013-05-09T10:50:35Z</time>
      </trkpt>
      <trkpt lat="46.54436" lon="6.07645">
        <ele>1250.33</ele>
        <time>2013-05-09T10:50:51Z</time>
      </trkpt>
      <trkpt lat="46.54437" lon="6.07642">
        <ele>1250.33</ele>
        <time>2013-05-09T10:50:53Z</time>
      </trkpt>
      <trkpt lat="46.54445" lon="6.07631">
        <ele>1251.77</ele>
        <time>2013-05-09T10:51:06Z</time>
      </trkpt>
      <trkpt lat="46.5445" lon="6.07626">
        <ele>1252.25</ele>
        <time>2013-05-09T10:51:12Z</time>
      </trkpt>
      <trkpt lat="46.54454" lon="6.07621">
        <ele>1252.74</ele>
        <time>2013-05-09T10:51:17Z</time>
      </trkpt>
      <trkpt lat="46.54459" lon="6.07617">
        <ele>1253.7</ele>
        <time>2013-05-09T10:51:23Z</time>
      </trkpt>
      <trkpt lat="46.54473" lon="6.07609">
        <ele>1255.14</ele>
        <time>2013-05-09T10:51:35Z</time>
      </trkpt>
      <trkpt lat="46.54481" lon="6.07594">
        <ele>1256.58</ele>
        <time>2013-05-09T10:51:49Z</time>
      </trkpt>
      <trkpt lat="46.54485" lon="6.07585">
        <ele>1257.06</ele>
        <time>2013-05-09T10:52:00Z</time>
      </trkpt>
      <trkpt lat="46.54485" lon="6.07585">
        <ele>1257.06</ele>
        <time>2013-05-09T10:52:19Z</time>
      </trkpt>
      <trkpt lat="46.54485" lon="6.07585">
        <ele>1257.06</ele>
        <time>2013-05-09T10:52:53Z</time>
      </trkpt>
      <trkpt lat="46.54489" lon="6.07575">
        <ele>1258.02</ele>
        <time>2013-05-09T10:53:04Z</time>
      </trkpt>
      <trkpt lat="46.5449" lon="6.0757">
        <ele>1258.98</ele>
        <time>2013-05-09T10:53:14Z</time>
      </trkpt>
      <trkpt lat="46.54497" lon="6.07561">
        <ele>1259.94</ele>
        <time>2013-05-09T10:53:25Z</time>
      </trkpt>
      <trkpt lat="46.54504" lon="6.07551">
        <ele>1260.91</ele>
        <time>2013-05-09T10:53:36Z</time>
      </trkpt>
      <trkpt lat="46.54507" lon="6.07542">
        <ele>1261.87</ele>
        <time>2013-05-09T10:53:52Z</time>
      </trkpt>
      <trkpt lat="46.54512" lon="6.07536">
        <ele>1261.87</ele>
        <time>2013-05-09T10:53:57Z</time>
      </trkpt>
      <trkpt lat="46.5452" lon="6.07532">
        <ele>1263.31</ele>
        <time>2013-05-09T10:54:02Z</time>
      </trkpt>
      <trkpt lat="46.54527" lon="6.0752">
        <ele>1264.27</ele>
        <time>2013-05-09T10:54:08Z</time>
      </trkpt>
      <trkpt lat="46.54536" lon="6.07495">
        <ele>1265.71</ele>
        <time>2013-05-09T10:54:20Z</time>
      </trkpt>
      <trkpt lat="46.54536" lon="6.07487">
        <ele>1265.71</ele>
        <time>2013-05-09T10:54:25Z</time>
      </trkpt>
      <trkpt lat="46.54533" lon="6.07479">
        <ele>1265.71</ele>
        <time>2013-05-09T10:54:29Z</time>
      </trkpt>
      <trkpt lat="46.54523" lon="6.07472">
        <ele>1264.27</ele>
        <time>2013-05-09T10:54:37Z</time>
      </trkpt>
      <trkpt lat="46.5452" lon="6.07467">
        <ele>1263.79</ele>
        <time>2013-05-09T10:54:40Z</time>
      </trkpt>
      <trkpt lat="46.54517" lon="6.07456">
        <ele>1263.31</ele>
        <time>2013-05-09T10:54:51Z</time>
      </trkpt>
      <trkpt lat="46.54517" lon="6.07452">
        <ele>1262.83</ele>
        <time>2013-05-09T10:54:53Z</time>
      </trkpt>
      <trkpt lat="46.5452" lon="6.07441">
        <ele>1259.94</ele>
        <time>2013-05-09T10:55:05Z</time>
      </trkpt>
      <trkpt lat="46.5452" lon="6.07441">
        <ele>1259.46</ele>
        <time>2013-05-09T10:55:07Z</time>
      </trkpt>
      <trkpt lat="46.54525" lon="6.07431">
        <ele>1258.5</ele>
        <time>2013-05-09T10:55:11Z</time>
      </trkpt>
      <trkpt lat="46.54526" lon="6.07399">
        <ele>1258.02</ele>
        <time>2013-05-09T10:55:22Z</time>
      </trkpt>
      <trkpt lat="46.54533" lon="6.07388">
        <ele>1258.98</ele>
        <time>2013-05-09T10:55:34Z</time>
      </trkpt>
      <trkpt lat="46.54533" lon="6.07388">
        <ele>1258.98</ele>
        <time>2013-05-09T10:55:59Z</time>
      </trkpt>
      <trkpt lat="46.54533" lon="6.07387">
        <ele>1258.98</ele>
        <time>2013-05-09T10:56:23Z</time>
      </trkpt>
      <trkpt lat="46.54534" lon="6.07387">
        <ele>1258.5</ele>
        <time>2013-05-09T10:56:51Z</time>
      </trkpt>
      <trkpt lat="46.54534" lon="6.07387">
        <ele>1258.98</ele>
        <time>2013-05-09T10:57:22Z</time>
      </trkpt>
      <trkpt lat="46.54534" lon="6.07387">
        <ele>1258.5</ele>
        <time>2013-05-09T10:57:45Z</time>
      </trkpt>
      <trkpt lat="46.54535" lon="6.07386">
        <ele>1258.5</ele>
        <time>2013-05-09T10:57:53Z</time>
      </trkpt>
      <trkpt lat="46.54543" lon="6.07381">
        <ele>1257.06</ele>
        <time>2013-05-09T10:57:57Z</time>
      </trkpt>
      <trkpt lat="46.54547" lon="6.07378">
        <ele>1256.58</ele>
        <time>2013-05-09T10:57:58Z</time>
      </trkpt>
      <trkpt lat="46.54551" lon="6.07375">
        <ele>1256.1</ele>
        <time>2013-05-09T10:57:59Z</time>
      </trkpt>
      <trkpt lat="46.54555" lon="6.07371">
        <ele>1255.62</ele>
        <time>2013-05-09T10:58:00Z</time>
      </trkpt>
      <trkpt lat="46.54558" lon="6.07367">
        <ele>1255.62</ele>
        <time>2013-05-09T10:58:01Z</time>
      </trkpt>
      <trkpt lat="46.54561" lon="6.07363">
        <ele>1255.14</ele>
        <time>2013-05-09T10:58:02Z</time>
      </trkpt>
      <trkpt lat="46.54563" lon="6.07358">
        <ele>1254.66</ele>
        <time>2013-05-09T10:58:03Z</time>
      </trkpt>
      <trkpt lat="46.54565" lon="6.07354">
        <ele>1253.7</ele>
        <time>2013-05-09T10:58:04Z</time>
      </trkpt>
      <trkpt lat="46.54574" lon="6.07339">
        <ele>1251.77</ele>
        <time>2013-05-09T10:58:08Z</time>
      </trkpt>
      <trkpt lat="46.54575" lon="6.07335">
        <ele>1251.77</ele>
        <time>2013-05-09T10:58:09Z</time>
      </trkpt>
      <trkpt lat="46.54579" lon="6.07327">
        <ele>1248.89</ele>
        <time>2013-05-09T10:58:11Z</time>
      </trkpt>
      <trkpt lat="46.54583" lon="6.07319">
        <ele>1244.56</ele>
        <time>2013-05-09T10:58:13Z</time>
      </trkpt>
      <trkpt lat="46.54585" lon="6.07313">
        <ele>1243.6</ele>
        <time>2013-05-09T10:58:14Z</time>
      </trkpt>
      <trkpt lat="46.54593" lon="6.07299">
        <ele>1240.24</ele>
        <time>2013-05-09T10:58:17Z</time>
      </trkpt>
      <trkpt lat="46.546" lon="6.07283">
        <ele>1236.87</ele>
        <time>2013-05-09T10:58:20Z</time>
      </trkpt>
      <trkpt lat="46.54608" lon="6.07269">
        <ele>1233.51</ele>
        <time>2013-05-09T10:58:22Z</time>
      </trkpt>
      <trkpt lat="46.54617" lon="6.07252">
        <ele>1230.14</ele>
        <time>2013-05-09T10:58:26Z</time>
      </trkpt>
      <trkpt lat="46.54619" lon="6.07251">
        <ele>1229.66</ele>
        <time>2013-05-09T10:58:27Z</time>
      </trkpt>
      <trkpt lat="46.54621" lon="6.07249">
        <ele>1229.18</ele>
        <time>2013-05-09T10:58:28Z</time>
      </trkpt>
      <trkpt lat="46.54623" lon="6.07247">
        <ele>1228.7</ele>
        <time>2013-05-09T10:58:29Z</time>
      </trkpt>
      <trkpt lat="46.54625" lon="6.07246">
        <ele>1228.22</ele>
        <time>2013-05-09T10:58:30Z</time>
      </trkpt>
      <trkpt lat="46.54628" lon="6.07244">
        <ele>1227.74</ele>
        <time>2013-05-09T10:58:31Z</time>
      </trkpt>
      <trkpt lat="46.5463" lon="6.07243">
        <ele>1227.26</ele>
        <time>2013-05-09T10:58:32Z</time>
      </trkpt>
      <trkpt lat="46.54632" lon="6.0724">
        <ele>1226.78</ele>
        <time>2013-05-09T10:58:33Z</time>
      </trkpt>
      <trkpt lat="46.54642" lon="6.07233">
        <ele>1222.93</ele>
        <time>2013-05-09T10:58:37Z</time>
      </trkpt>
      <trkpt lat="46.54652" lon="6.07228">
        <ele>1219.57</ele>
        <time>2013-05-09T10:58:40Z</time>
      </trkpt>
      <trkpt lat="46.54665" lon="6.07223">
        <ele>1215.24</ele>
        <time>2013-05-09T10:58:43Z</time>
      </trkpt>
      <trkpt lat="46.5467" lon="6.07222">
        <ele>1213.8</ele>
        <time>2013-05-09T10:58:44Z</time>
      </trkpt>
      <trkpt lat="46.54679" lon="6.07223">
        <ele>1211.88</ele>
        <time>2013-05-09T10:58:46Z</time>
      </trkpt>
      <trkpt lat="46.54697" lon="6.07229">
        <ele>1208.51</ele>
        <time>2013-05-09T10:58:49Z</time>
      </trkpt>
      <trkpt lat="46.54703" lon="6.0723">
        <ele>1207.55</ele>
        <time>2013-05-09T10:58:50Z</time>
      </trkpt>
      <trkpt lat="46.5471" lon="6.07232">
        <ele>1206.59</ele>
        <time>2013-05-09T10:58:51Z</time>
      </trkpt>
      <trkpt lat="46.54728" lon="6.07238">
        <ele>1203.23</ele>
        <time>2013-05-09T10:58:54Z</time>
      </trkpt>
      <trkpt lat="46.54742" lon="6.07243">
        <ele>1200.34</ele>
        <time>2013-05-09T10:58:56Z</time>
      </trkpt>
      <trkpt lat="46.54748" lon="6.07244">
        <ele>1198.9</ele>
        <time>2013-05-09T10:58:57Z</time>
      </trkpt>
      <trkpt lat="46.54755" lon="6.07244">
        <ele>1197.46</ele>
        <time>2013-05-09T10:58:58Z</time>
      </trkpt>
      <trkpt lat="46.54761" lon="6.07243">
        <ele>1196.02</ele>
        <time>2013-05-09T10:58:59Z</time>
      </trkpt>
      <trkpt lat="46.54767" lon="6.07238">
        <ele>1195.06</ele>
        <time>2013-05-09T10:59:00Z</time>
      </trkpt>
      <trkpt lat="46.54773" lon="6.07232">
        <ele>1193.61</ele>
        <time>2013-05-09T10:59:01Z</time>
      </trkpt>
      <trkpt lat="46.54779" lon="6.07225">
        <ele>1191.69</ele>
        <time>2013-05-09T10:59:02Z</time>
      </trkpt>
      <trkpt lat="46.54788" lon="6.0721">
        <ele>1190.73</ele>
        <time>2013-05-09T10:59:04Z</time>
      </trkpt>
      <trkpt lat="46.54797" lon="6.07196">
        <ele>1190.25</ele>
        <time>2013-05-09T10:59:06Z</time>
      </trkpt>
      <trkpt lat="46.54802" lon="6.07189">
        <ele>1190.25</ele>
        <time>2013-05-09T10:59:07Z</time>
      </trkpt>
      <trkpt lat="46.5481" lon="6.07174">
        <ele>1187.85</ele>
        <time>2013-05-09T10:59:09Z</time>
      </trkpt>
      <trkpt lat="46.54814" lon="6.07168">
        <ele>1186.88</ele>
        <time>2013-05-09T10:59:10Z</time>
      </trkpt>
      <trkpt lat="46.54819" lon="6.07163">
        <ele>1185.92</ele>
        <time>2013-05-09T10:59:11Z</time>
      </trkpt>
      <trkpt lat="46.54831" lon="6.07154">
        <ele>1183.04</ele>
        <time>2013-05-09T10:59:13Z</time>
      </trkpt>
      <trkpt lat="46.54836" lon="6.0715">
        <ele>1181.6</ele>
        <time>2013-05-09T10:59:14Z</time>
      </trkpt>
      <trkpt lat="46.5484" lon="6.07147">
        <ele>1181.12</ele>
        <time>2013-05-09T10:59:15Z</time>
      </trkpt>
      <trkpt lat="46.54844" lon="6.07145">
        <ele>1180.64</ele>
        <time>2013-05-09T10:59:16Z</time>
      </trkpt>
      <trkpt lat="46.54847" lon="6.07142">
        <ele>1180.16</ele>
        <time>2013-05-09T10:59:17Z</time>
      </trkpt>
      <trkpt lat="46.5485" lon="6.07138">
        <ele>1179.67</ele>
        <time>2013-05-09T10:59:18Z</time>
      </trkpt>
      <trkpt lat="46.54852" lon="6.07135">
        <ele>1179.67</ele>
        <time>2013-05-09T10:59:19Z</time>
      </trkpt>
      <trkpt lat="46.5486" lon="6.07119">
        <ele>1178.71</ele>
        <time>2013-05-09T10:59:28Z</time>
      </trkpt>
      <trkpt lat="46.5486" lon="6.07119">
        <ele>1178.23</ele>
        <time>2013-05-09T10:59:52Z</time>
      </trkpt>
      <trkpt lat="46.54861" lon="6.07118">
        <ele>1178.71</ele>
        <time>2013-05-09T11:00:12Z</time>
      </trkpt>
      <trkpt lat="46.54861" lon="6.07118">
        <ele>1178.23</ele>
        <time>2013-05-09T11:00:40Z</time>
      </trkpt>
      <trkpt lat="46.5486" lon="6.07117">
        <ele>1178.23</ele>
        <time>2013-05-09T11:01:06Z</time>
      </trkpt>
      <trkpt lat="46.5486" lon="6.07116">
        <ele>1178.23</ele>
        <time>2013-05-09T11:01:36Z</time>
      </trkpt>
      <trkpt lat="46.5486" lon="6.07116">
        <ele>1178.23</ele>
        <time>2013-05-09T11:01:54Z</time>
      </trkpt>
      <trkpt lat="46.5486" lon="6.07115">
        <ele>1177.75</ele>
        <time>2013-05-09T11:02:14Z</time>
      </trkpt>
      <trkpt lat="46.5486" lon="6.07115">
        <ele>1179.19</ele>
        <time>2013-05-09T11:02:25Z</time>
      </trkpt>
      <trkpt lat="46.5486" lon="6.07115">
        <ele>1174.87</ele>
        <time>2013-05-09T11:02:28Z</time>
      </trkpt>
      <trkpt lat="46.5486" lon="6.07115">
        <ele>1178.23</ele>
        <time>2013-05-09T11:02:34Z</time>
      </trkpt>
      <trkpt lat="46.54859" lon="6.07116">
        <ele>1178.23</ele>
        <time>2013-05-09T11:02:42Z</time>
      </trkpt>
      <trkpt lat="46.54859" lon="6.07116">
        <ele>1188.81</ele>
        <time>2013-05-09T11:02:51Z</time>
      </trkpt>
      <trkpt lat="46.54859" lon="6.07116">
        <ele>1179.19</ele>
        <time>2013-05-09T11:02:52Z</time>
      </trkpt>
      <trkpt lat="46.54859" lon="6.07116">
        <ele>1177.75</ele>
        <time>2013-05-09T11:02:54Z</time>
      </trkpt>
      <trkpt lat="46.54859" lon="6.07116">
        <ele>1177.27</ele>
        <time>2013-05-09T11:03:16Z</time>
      </trkpt>
      <trkpt lat="46.5486" lon="6.07116">
        <ele>1177.75</ele>
        <time>2013-05-09T11:03:38Z</time>
      </trkpt>
      <trkpt lat="46.5486" lon="6.07112">
        <ele>1177.75</ele>
        <time>2013-05-09T11:03:53Z</time>
      </trkpt>
      <trkpt lat="46.54859" lon="6.0711">
        <ele>1177.27</ele>
        <time>2013-05-09T11:03:54Z</time>
      </trkpt>
      <trkpt lat="46.54857" lon="6.07097">
        <ele>1176.79</ele>
        <time>2013-05-09T11:03:59Z</time>
      </trkpt>
      <trkpt lat="46.54857" lon="6.07094">
        <ele>1176.79</ele>
        <time>2013-05-09T11:04:00Z</time>
      </trkpt>
      <trkpt lat="46.54857" lon="6.07091">
        <ele>1176.79</ele>
        <time>2013-05-09T11:04:01Z</time>
      </trkpt>
      <trkpt lat="46.54853" lon="6.07075">
        <ele>1174.87</ele>
        <time>2013-05-09T11:04:05Z</time>
      </trkpt>
      <trkpt lat="46.54851" lon="6.07069">
        <ele>1174.39</ele>
        <time>2013-05-09T11:04:06Z</time>
      </trkpt>
      <trkpt lat="46.54846" lon="6.07057">
        <ele>1173.43</ele>
        <time>2013-05-09T11:04:08Z</time>
      </trkpt>
      <trkpt lat="46.54843" lon="6.07052">
        <ele>1173.43</ele>
        <time>2013-05-09T11:04:09Z</time>
      </trkpt>
      <trkpt lat="46.54829" lon="6.07017">
        <ele>1170.06</ele>
        <time>2013-05-09T11:04:18Z</time>
      </trkpt>
      <trkpt lat="46.54824" lon="6.07005">
        <ele>1167.66</ele>
        <time>2013-05-09T11:04:20Z</time>
      </trkpt>
      <trkpt lat="46.5482" lon="6.06999">
        <ele>1166.7</ele>
        <time>2013-05-09T11:04:21Z</time>
      </trkpt>
      <trkpt lat="46.54816" lon="6.06995">
        <ele>1166.22</ele>
        <time>2013-05-09T11:04:22Z</time>
      </trkpt>
      <trkpt lat="46.54811" lon="6.06991">
        <ele>1165.26</ele>
        <time>2013-05-09T11:04:23Z</time>
      </trkpt>
      <trkpt lat="46.54806" lon="6.06988">
        <ele>1164.77</ele>
        <time>2013-05-09T11:04:24Z</time>
      </trkpt>
      <trkpt lat="46.54795" lon="6.06982">
        <ele>1162.85</ele>
        <time>2013-05-09T11:04:26Z</time>
      </trkpt>
      <trkpt lat="46.54791" lon="6.0698">
        <ele>1162.37</ele>
        <time>2013-05-09T11:04:27Z</time>
      </trkpt>
      <trkpt lat="46.54769" lon="6.06972">
        <ele>1159.01</ele>
        <time>2013-05-09T11:04:31Z</time>
      </trkpt>
      <trkpt lat="46.54763" lon="6.0697">
        <ele>1158.53</ele>
        <time>2013-05-09T11:04:32Z</time>
      </trkpt>
      <trkpt lat="46.54749" lon="6.06966">
        <ele>1156.6</ele>
        <time>2013-05-09T11:04:35Z</time>
      </trkpt>
      <trkpt lat="46.54744" lon="6.06967">
        <ele>1155.64</ele>
        <time>2013-05-09T11:04:36Z</time>
      </trkpt>
      <trkpt lat="46.54732" lon="6.06965">
        <ele>1153.72</ele>
        <time>2013-05-09T11:04:38Z</time>
      </trkpt>
      <trkpt lat="46.54727" lon="6.06962">
        <ele>1152.76</ele>
        <time>2013-05-09T11:04:39Z</time>
      </trkpt>
      <trkpt lat="46.54714" lon="6.06952">
        <ele>1151.8</ele>
        <time>2013-05-09T11:04:43Z</time>
      </trkpt>
      <trkpt lat="46.54712" lon="6.06952">
        <ele>1150.35</ele>
        <time>2013-05-09T11:04:44Z</time>
      </trkpt>
      <trkpt lat="46.54709" lon="6.06949">
        <ele>1149.87</ele>
        <time>2013-05-09T11:04:45Z</time>
      </trkpt>
      <trkpt lat="46.54705" lon="6.06945">
        <ele>1149.39</ele>
        <time>2013-05-09T11:04:46Z</time>
      </trkpt>
      <trkpt lat="46.54703" lon="6.0694">
        <ele>1148.91</ele>
        <time>2013-05-09T11:04:47Z</time>
      </trkpt>
      <trkpt lat="46.54698" lon="6.0693">
        <ele>1146.99</ele>
        <time>2013-05-09T11:04:50Z</time>
      </trkpt>
      <trkpt lat="46.54698" lon="6.06925">
        <ele>1146.03</ele>
        <time>2013-05-09T11:04:51Z</time>
      </trkpt>
      <trkpt lat="46.54701" lon="6.06908">
        <ele>1143.63</ele>
        <time>2013-05-09T11:04:54Z</time>
      </trkpt>
      <trkpt lat="46.54703" lon="6.06904">
        <ele>1143.14</ele>
        <time>2013-05-09T11:04:55Z</time>
      </trkpt>
      <trkpt lat="46.54706" lon="6.069">
        <ele>1142.66</ele>
        <time>2013-05-09T11:04:56Z</time>
      </trkpt>
      <trkpt lat="46.54708" lon="6.06898">
        <ele>1141.7</ele>
        <time>2013-05-09T11:04:57Z</time>
      </trkpt>
      <trkpt lat="46.54711" lon="6.06896">
        <ele>1141.22</ele>
        <time>2013-05-09T11:04:58Z</time>
      </trkpt>
      <trkpt lat="46.54714" lon="6.06894">
        <ele>1140.26</ele>
        <time>2013-05-09T11:04:59Z</time>
      </trkpt>
      <trkpt lat="46.54729" lon="6.06881">
        <ele>1137.86</ele>
        <time>2013-05-09T11:05:07Z</time>
      </trkpt>
      <trkpt lat="46.54739" lon="6.0688">
        <ele>1135.45</ele>
        <time>2013-05-09T11:05:11Z</time>
      </trkpt>
      <trkpt lat="46.54743" lon="6.06879">
        <ele>1134.97</ele>
        <time>2013-05-09T11:05:13Z</time>
      </trkpt>
      <trkpt lat="46.54746" lon="6.06879">
        <ele>1134.49</ele>
        <time>2013-05-09T11:05:14Z</time>
      </trkpt>
      <trkpt lat="46.54748" lon="6.06878">
        <ele>1134.01</ele>
        <time>2013-05-09T11:05:15Z</time>
      </trkpt>
      <trkpt lat="46.54756" lon="6.06877">
        <ele>1132.57</ele>
        <time>2013-05-09T11:05:18Z</time>
      </trkpt>
      <trkpt lat="46.54776" lon="6.06869">
        <ele>1129.21</ele>
        <time>2013-05-09T11:05:24Z</time>
      </trkpt>
      <trkpt lat="46.5478" lon="6.06867">
        <ele>1128.24</ele>
        <time>2013-05-09T11:05:25Z</time>
      </trkpt>
      <trkpt lat="46.54803" lon="6.06855">
        <ele>1124.88</ele>
        <time>2013-05-09T11:05:31Z</time>
      </trkpt>
      <trkpt lat="46.54816" lon="6.06841">
        <ele>1121.03</ele>
        <time>2013-05-09T11:05:36Z</time>
      </trkpt>
      <trkpt lat="46.54818" lon="6.06838">
        <ele>1120.55</ele>
        <time>2013-05-09T11:05:37Z</time>
      </trkpt>
      <trkpt lat="46.54819" lon="6.06828">
        <ele>1118.63</ele>
        <time>2013-05-09T11:05:39Z</time>
      </trkpt>
      <trkpt lat="46.54817" lon="6.06823">
        <ele>1117.67</ele>
        <time>2013-05-09T11:05:40Z</time>
      </trkpt>
      <trkpt lat="46.54814" lon="6.06819">
        <ele>1116.71</ele>
        <time>2013-05-09T11:05:41Z</time>
      </trkpt>
      <trkpt lat="46.5481" lon="6.06815">
        <ele>1115.75</ele>
        <time>2013-05-09T11:05:42Z</time>
      </trkpt>
      <trkpt lat="46.54806" lon="6.06814">
        <ele>1115.27</ele>
        <time>2013-05-09T11:05:43Z</time>
      </trkpt>
      <trkpt lat="46.54802" lon="6.06812">
        <ele>1114.31</ele>
        <time>2013-05-09T11:05:44Z</time>
      </trkpt>
      <trkpt lat="46.54797" lon="6.0681">
        <ele>1113.34</ele>
        <time>2013-05-09T11:05:45Z</time>
      </trkpt>
      <trkpt lat="46.5479" lon="6.06801">
        <ele>1111.9</ele>
        <time>2013-05-09T11:05:47Z</time>
      </trkpt>
      <trkpt lat="46.54789" lon="6.06796">
        <ele>1110.94</ele>
        <time>2013-05-09T11:05:48Z</time>
      </trkpt>
      <trkpt lat="46.54788" lon="6.06791">
        <ele>1110.46</ele>
        <time>2013-05-09T11:05:49Z</time>
      </trkpt>
      <trkpt lat="46.54788" lon="6.06787">
        <ele>1109.98</ele>
        <time>2013-05-09T11:05:50Z</time>
      </trkpt>
      <trkpt lat="46.54789" lon="6.06784">
        <ele>1109.5</ele>
        <time>2013-05-09T11:05:51Z</time>
      </trkpt>
      <trkpt lat="46.54789" lon="6.06781">
        <ele>1109.02</ele>
        <time>2013-05-09T11:05:52Z</time>
      </trkpt>
      <trkpt lat="46.54791" lon="6.06778">
        <ele>1108.54</ele>
        <time>2013-05-09T11:05:53Z</time>
      </trkpt>
      <trkpt lat="46.54794" lon="6.06776">
        <ele>1108.06</ele>
        <time>2013-05-09T11:05:54Z</time>
      </trkpt>
      <trkpt lat="46.54797" lon="6.06773">
        <ele>1107.58</ele>
        <time>2013-05-09T11:05:55Z</time>
      </trkpt>
      <trkpt lat="46.54808" lon="6.06764">
        <ele>1104.21</ele>
        <time>2013-05-09T11:05:59Z</time>
      </trkpt>
      <trkpt lat="46.54814" lon="6.06763">
        <ele>1102.77</ele>
        <time>2013-05-09T11:06:01Z</time>
      </trkpt>
      <trkpt lat="46.54817" lon="6.06763">
        <ele>1101.81</ele>
        <time>2013-05-09T11:06:02Z</time>
      </trkpt>
      <trkpt lat="46.54821" lon="6.06763">
        <ele>1101.33</ele>
        <time>2013-05-09T11:06:03Z</time>
      </trkpt>
      <trkpt lat="46.54833" lon="6.06763">
        <ele>1099.89</ele>
        <time>2013-05-09T11:06:06Z</time>
      </trkpt>
      <trkpt lat="46.54869" lon="6.06761">
        <ele>1097.48</ele>
        <time>2013-05-09T11:06:16Z</time>
      </trkpt>
      <trkpt lat="46.54897" lon="6.06761">
        <ele>1095.56</ele>
        <time>2013-05-09T11:06:25Z</time>
      </trkpt>
      <trkpt lat="46.54918" lon="6.06761">
        <ele>1094.12</ele>
        <time>2013-05-09T11:06:35Z</time>
      </trkpt>
      <trkpt lat="46.5492" lon="6.0676">
        <ele>1094.12</ele>
        <time>2013-05-09T11:06:36Z</time>
      </trkpt>
      <trkpt lat="46.54922" lon="6.0676">
        <ele>1094.12</ele>
        <time>2013-05-09T11:06:37Z</time>
      </trkpt>
      <trkpt lat="46.54925" lon="6.0676">
        <ele>1094.12</ele>
        <time>2013-05-09T11:06:38Z</time>
      </trkpt>
      <trkpt lat="46.54927" lon="6.0676">
        <ele>1094.12</ele>
        <time>2013-05-09T11:06:39Z</time>
      </trkpt>
      <trkpt lat="46.5493" lon="6.06761">
        <ele>1093.64</ele>
        <time>2013-05-09T11:06:40Z</time>
      </trkpt>
      <trkpt lat="46.54932" lon="6.06761">
        <ele>1093.64</ele>
        <time>2013-05-09T11:06:41Z</time>
      </trkpt>
      <trkpt lat="46.5495" lon="6.06762">
        <ele>1092.2</ele>
        <time>2013-05-09T11:06:51Z</time>
      </trkpt>
      <trkpt lat="46.54958" lon="6.06761">
        <ele>1091.23</ele>
        <time>2013-05-09T11:06:55Z</time>
      </trkpt>
      <trkpt lat="46.54965" lon="6.06756">
        <ele>1089.79</ele>
        <time>2013-05-09T11:06:58Z</time>
      </trkpt>
      <trkpt lat="46.54967" lon="6.06755">
        <ele>1089.31</ele>
        <time>2013-05-09T11:06:59Z</time>
      </trkpt>
      <trkpt lat="46.5497" lon="6.06756">
        <ele>1088.35</ele>
        <time>2013-05-09T11:07:00Z</time>
      </trkpt>
      <trkpt lat="46.54972" lon="6.06756">
        <ele>1087.87</ele>
        <time>2013-05-09T11:07:01Z</time>
      </trkpt>
      <trkpt lat="46.54975" lon="6.06757">
        <ele>1086.91</ele>
        <time>2013-05-09T11:07:03Z</time>
      </trkpt>
      <trkpt lat="46.54979" lon="6.06756">
        <ele>1087.87</ele>
        <time>2013-05-09T11:07:12Z</time>
      </trkpt>
      <trkpt lat="46.54979" lon="6.06756">
        <ele>1086.91</ele>
        <time>2013-05-09T11:07:16Z</time>
      </trkpt>
      <trkpt lat="46.54981" lon="6.06755">
        <ele>1086.43</ele>
        <time>2013-05-09T11:07:17Z</time>
      </trkpt>
      <trkpt lat="46.54983" lon="6.06755">
        <ele>1085.95</ele>
        <time>2013-05-09T11:07:18Z</time>
      </trkpt>
      <trkpt lat="46.54987" lon="6.06755">
        <ele>1084.99</ele>
        <time>2013-05-09T11:07:19Z</time>
      </trkpt>
      <trkpt lat="46.5499" lon="6.06755">
        <ele>1084.5</ele>
        <time>2013-05-09T11:07:20Z</time>
      </trkpt>
      <trkpt lat="46.54993" lon="6.06755">
        <ele>1083.54</ele>
        <time>2013-05-09T11:07:21Z</time>
      </trkpt>
      <trkpt lat="46.54995" lon="6.06755">
        <ele>1083.06</ele>
        <time>2013-05-09T11:07:22Z</time>
      </trkpt>
      <trkpt lat="46.54998" lon="6.06756">
        <ele>1082.58</ele>
        <time>2013-05-09T11:07:23Z</time>
      </trkpt>
      <trkpt lat="46.55" lon="6.06756">
        <ele>1082.1</ele>
        <time>2013-05-09T11:07:24Z</time>
      </trkpt>
      <trkpt lat="46.55001" lon="6.06756">
        <ele>1082.1</ele>
        <time>2013-05-09T11:07:25Z</time>
      </trkpt>
      <trkpt lat="46.55004" lon="6.06756">
        <ele>1081.62</ele>
        <time>2013-05-09T11:07:26Z</time>
      </trkpt>
      <trkpt lat="46.55014" lon="6.06751">
        <ele>1078.26</ele>
        <time>2013-05-09T11:07:31Z</time>
      </trkpt>
      <trkpt lat="46.55029" lon="6.06746">
        <ele>1075.85</ele>
        <time>2013-05-09T11:07:36Z</time>
      </trkpt>
      <trkpt lat="46.55034" lon="6.06737">
        <ele>1072.97</ele>
        <time>2013-05-09T11:07:40Z</time>
      </trkpt>
      <trkpt lat="46.55035" lon="6.06734">
        <ele>1072.49</ele>
        <time>2013-05-09T11:07:41Z</time>
      </trkpt>
      <trkpt lat="46.55035" lon="6.06729">
        <ele>1071.53</ele>
        <time>2013-05-09T11:07:42Z</time>
      </trkpt>
      <trkpt lat="46.55035" lon="6.06726">
        <ele>1071.05</ele>
        <time>2013-05-09T11:07:43Z</time>
      </trkpt>
      <trkpt lat="46.55036" lon="6.06722">
        <ele>1070.08</ele>
        <time>2013-05-09T11:07:44Z</time>
      </trkpt>
      <trkpt lat="46.55037" lon="6.06719">
        <ele>1069.6</ele>
        <time>2013-05-09T11:07:45Z</time>
      </trkpt>
      <trkpt lat="46.55038" lon="6.06716">
        <ele>1069.12</ele>
        <time>2013-05-09T11:07:46Z</time>
      </trkpt>
      <trkpt lat="46.55039" lon="6.06714">
        <ele>1068.64</ele>
        <time>2013-05-09T11:07:47Z</time>
      </trkpt>
      <trkpt lat="46.55041" lon="6.06711">
        <ele>1067.68</ele>
        <time>2013-05-09T11:07:48Z</time>
      </trkpt>
      <trkpt lat="46.55043" lon="6.06708">
        <ele>1067.2</ele>
        <time>2013-05-09T11:07:49Z</time>
      </trkpt>
      <trkpt lat="46.55048" lon="6.06696">
        <ele>1065.28</ele>
        <time>2013-05-09T11:07:52Z</time>
      </trkpt>
      <trkpt lat="46.55059" lon="6.06676">
        <ele>1062.87</ele>
        <time>2013-05-09T11:07:56Z</time>
      </trkpt>
      <trkpt lat="46.55062" lon="6.0667">
        <ele>1061.91</ele>
        <time>2013-05-09T11:07:57Z</time>
      </trkpt>
      <trkpt lat="46.55065" lon="6.06663">
        <ele>1060.95</ele>
        <time>2013-05-09T11:07:58Z</time>
      </trkpt>
      <trkpt lat="46.55067" lon="6.06658">
        <ele>1060.47</ele>
        <time>2013-05-09T11:07:59Z</time>
      </trkpt>
      <trkpt lat="46.5507" lon="6.06653">
        <ele>1059.99</ele>
        <time>2013-05-09T11:08:00Z</time>
      </trkpt>
      <trkpt lat="46.55082" lon="6.06636">
        <ele>1056.63</ele>
        <time>2013-05-09T11:08:04Z</time>
      </trkpt>
      <trkpt lat="46.55095" lon="6.06622">
        <ele>1054.7</ele>
        <time>2013-05-09T11:08:08Z</time>
      </trkpt>
      <trkpt lat="46.55103" lon="6.06613">
        <ele>1053.74</ele>
        <time>2013-05-09T11:08:11Z</time>
      </trkpt>
      <trkpt lat="46.55105" lon="6.06613">
        <ele>1053.74</ele>
        <time>2013-05-09T11:08:12Z</time>
      </trkpt>
      <trkpt lat="46.55108" lon="6.06611">
        <ele>1052.78</ele>
        <time>2013-05-09T11:08:13Z</time>
      </trkpt>
      <trkpt lat="46.55112" lon="6.06609">
        <ele>1052.78</ele>
        <time>2013-05-09T11:08:14Z</time>
      </trkpt>
      <trkpt lat="46.55116" lon="6.06607">
        <ele>1051.34</ele>
        <time>2013-05-09T11:08:15Z</time>
      </trkpt>
      <trkpt lat="46.55121" lon="6.06604">
        <ele>1050.38</ele>
        <time>2013-05-09T11:08:16Z</time>
      </trkpt>
      <trkpt lat="46.55127" lon="6.066">
        <ele>1049.42</ele>
        <time>2013-05-09T11:08:17Z</time>
      </trkpt>
      <trkpt lat="46.55137" lon="6.06593">
        <ele>1047.97</ele>
        <time>2013-05-09T11:08:19Z</time>
      </trkpt>
      <trkpt lat="46.55156" lon="6.06576">
        <ele>1044.61</ele>
        <time>2013-05-09T11:08:23Z</time>
      </trkpt>
      <trkpt lat="46.55161" lon="6.06572">
        <ele>1044.13</ele>
        <time>2013-05-09T11:08:24Z</time>
      </trkpt>
      <trkpt lat="46.55182" lon="6.06554">
        <ele>1040.28</ele>
        <time>2013-05-09T11:08:29Z</time>
      </trkpt>
      <trkpt lat="46.55186" lon="6.0655">
        <ele>1038.84</ele>
        <time>2013-05-09T11:08:30Z</time>
      </trkpt>
      <trkpt lat="46.5521" lon="6.06523">
        <ele>1035.96</ele>
        <time>2013-05-09T11:08:36Z</time>
      </trkpt>
      <trkpt lat="46.55218" lon="6.06517">
        <ele>1035.48</ele>
        <time>2013-05-09T11:08:38Z</time>
      </trkpt>
      <trkpt lat="46.55223" lon="6.06515">
        <ele>1034.52</ele>
        <time>2013-05-09T11:08:39Z</time>
      </trkpt>
      <trkpt lat="46.55231" lon="6.0651">
        <ele>1033.07</ele>
        <time>2013-05-09T11:08:41Z</time>
      </trkpt>
      <trkpt lat="46.55249" lon="6.06497">
        <ele>1030.67</ele>
        <time>2013-05-09T11:08:45Z</time>
      </trkpt>
      <trkpt lat="46.55253" lon="6.06494">
        <ele>1030.19</ele>
        <time>2013-05-09T11:08:46Z</time>
      </trkpt>
      <trkpt lat="46.55256" lon="6.0649">
        <ele>1029.23</ele>
        <time>2013-05-09T11:08:47Z</time>
      </trkpt>
      <trkpt lat="46.5526" lon="6.06488">
        <ele>1028.75</ele>
        <time>2013-05-09T11:08:48Z</time>
      </trkpt>
      <trkpt lat="46.55264" lon="6.06485">
        <ele>1027.79</ele>
        <time>2013-05-09T11:08:49Z</time>
      </trkpt>
      <trkpt lat="46.55268" lon="6.06482">
        <ele>1027.31</ele>
        <time>2013-05-09T11:08:50Z</time>
      </trkpt>
      <trkpt lat="46.55286" lon="6.0647">
        <ele>1025.38</ele>
        <time>2013-05-09T11:08:55Z</time>
      </trkpt>
      <trkpt lat="46.55308" lon="6.06457">
        <ele>1022.98</ele>
        <time>2013-05-09T11:09:05Z</time>
      </trkpt>
      <trkpt lat="46.5531" lon="6.06456">
        <ele>1022.5</ele>
        <time>2013-05-09T11:09:07Z</time>
      </trkpt>
      <trkpt lat="46.55318" lon="6.06454">
        <ele>1022.02</ele>
        <time>2013-05-09T11:09:12Z</time>
      </trkpt>
      <trkpt lat="46.55336" lon="6.06454">
        <ele>1019.62</ele>
        <time>2013-05-09T11:09:21Z</time>
      </trkpt>
      <trkpt lat="46.55338" lon="6.06454">
        <ele>1019.62</ele>
        <time>2013-05-09T11:09:22Z</time>
      </trkpt>
      <trkpt lat="46.5534" lon="6.06454">
        <ele>1019.13</ele>
        <time>2013-05-09T11:09:23Z</time>
      </trkpt>
      <trkpt lat="46.55382" lon="6.0645">
        <ele>1016.73</ele>
        <time>2013-05-09T11:09:35Z</time>
      </trkpt>
      <trkpt lat="46.55415" lon="6.06432">
        <ele>1015.77</ele>
        <time>2013-05-09T11:09:46Z</time>
      </trkpt>
      <trkpt lat="46.55421" lon="6.06423">
        <ele>1015.77</ele>
        <time>2013-05-09T11:09:56Z</time>
      </trkpt>
      <trkpt lat="46.55421" lon="6.06423">
        <ele>1016.25</ele>
        <time>2013-05-09T11:10:14Z</time>
      </trkpt>
      <trkpt lat="46.55421" lon="6.06423">
        <ele>1016.25</ele>
        <time>2013-05-09T11:10:40Z</time>
      </trkpt>
      <trkpt lat="46.55421" lon="6.06423">
        <ele>1016.25</ele>
        <time>2013-05-09T11:11:05Z</time>
      </trkpt>
      <trkpt lat="46.55425" lon="6.0642">
        <ele>1016.73</ele>
        <time>2013-05-09T11:11:17Z</time>
      </trkpt>
      <trkpt lat="46.55425" lon="6.0642">
        <ele>1016.73</ele>
        <time>2013-05-09T11:11:36Z</time>
      </trkpt>
      <trkpt lat="46.55426" lon="6.06419">
        <ele>1016.25</ele>
        <time>2013-05-09T11:11:50Z</time>
      </trkpt>
      <trkpt lat="46.55426" lon="6.06419">
        <ele>1016.73</ele>
        <time>2013-05-09T11:12:19Z</time>
      </trkpt>
      <trkpt lat="46.55427" lon="6.06419">
        <ele>1016.73</ele>
        <time>2013-05-09T11:12:34Z</time>
      </trkpt>
      <trkpt lat="46.55426" lon="6.06423">
        <ele>1016.25</ele>
        <time>2013-05-09T11:12:54Z</time>
      </trkpt>
      <trkpt lat="46.55427" lon="6.06423">
        <ele>1016.73</ele>
        <time>2013-05-09T11:13:16Z</time>
      </trkpt>
      <trkpt lat="46.55427" lon="6.06423">
        <ele>1016.25</ele>
        <time>2013-05-09T11:13:34Z</time>
      </trkpt>
      <trkpt lat="46.55427" lon="6.06422">
        <ele>1016.25</ele>
        <time>2013-05-09T11:13:57Z</time>
      </trkpt>
      <trkpt lat="46.5543" lon="6.06421">
        <ele>1016.25</ele>
        <time>2013-05-09T11:14:11Z</time>
      </trkpt>
      <trkpt lat="46.55431" lon="6.06421">
        <ele>1016.25</ele>
        <time>2013-05-09T11:14:31Z</time>
      </trkpt>
      <trkpt lat="46.55431" lon="6.06422">
        <ele>1015.77</ele>
        <time>2013-05-09T11:14:48Z</time>
      </trkpt>
      <trkpt lat="46.55432" lon="6.06421">
        <ele>1015.77</ele>
        <time>2013-05-09T11:15:25Z</time>
      </trkpt>
      <trkpt lat="46.55432" lon="6.06422">
        <ele>1015.29</ele>
        <time>2013-05-09T11:16:03Z</time>
      </trkpt>
      <trkpt lat="46.55433" lon="6.06422">
        <ele>1015.29</ele>
        <time>2013-05-09T11:16:41Z</time>
      </trkpt>
      <trkpt lat="46.55433" lon="6.06422">
        <ele>1015.29</ele>
        <time>2013-05-09T11:17:15Z</time>
      </trkpt>
      <trkpt lat="46.55433" lon="6.06422">
        <ele>1015.29</ele>
        <time>2013-05-09T11:17:51Z</time>
      </trkpt>
      <trkpt lat="46.55432" lon="6.06422">
        <ele>1016.25</ele>
        <time>2013-05-09T11:18:17Z</time>
      </trkpt>
      <trkpt lat="46.55433" lon="6.06422">
        <ele>1015.29</ele>
        <time>2013-05-09T11:18:39Z</time>
      </trkpt>
      <trkpt lat="46.5543" lon="6.06424">
        <ele>1015.29</ele>
        <time>2013-05-09T11:18:44Z</time>
      </trkpt>
      <trkpt lat="46.55429" lon="6.06424">
        <ele>1015.29</ele>
        <time>2013-05-09T11:18:45Z</time>
      </trkpt>
      <trkpt lat="46.55428" lon="6.06425">
        <ele>1015.29</ele>
        <time>2013-05-09T11:18:46Z</time>
      </trkpt>
      <trkpt lat="46.5542" lon="6.06437">
        <ele>1015.29</ele>
        <time>2013-05-09T11:19:00Z</time>
      </trkpt>
      <trkpt lat="46.5542" lon="6.06437">
        <ele>1015.29</ele>
        <time>2013-05-09T11:19:14Z</time>
      </trkpt>
      <trkpt lat="46.5542" lon="6.06437">
        <ele>1015.29</ele>
        <time>2013-05-09T11:19:44Z</time>
      </trkpt>
      <trkpt lat="46.55419" lon="6.06437">
        <ele>1015.29</ele>
        <time>2013-05-09T11:20:24Z</time>
      </trkpt>
      <trkpt lat="46.55419" lon="6.06437">
        <ele>1014.81</ele>
        <time>2013-05-09T11:20:56Z</time>
      </trkpt>
      <trkpt lat="46.5542" lon="6.06438">
        <ele>1014.81</ele>
        <time>2013-05-09T11:21:32Z</time>
      </trkpt>
      <trkpt lat="46.5542" lon="6.06437">
        <ele>1014.81</ele>
        <time>2013-05-09T11:22:07Z</time>
      </trkpt>
      <trkpt lat="46.5542" lon="6.06438">
        <ele>1014.33</ele>
        <time>2013-05-09T11:22:30Z</time>
      </trkpt>
      <trkpt lat="46.55421" lon="6.0644">
        <ele>1014.81</ele>
        <time>2013-05-09T11:22:44Z</time>
      </trkpt>
      <trkpt lat="46.55422" lon="6.06441">
        <ele>1014.81</ele>
        <time>2013-05-09T11:22:46Z</time>
      </trkpt>
      <trkpt lat="46.55439" lon="6.06477">
        <ele>1016.73</ele>
        <time>2013-05-09T11:22:58Z</time>
      </trkpt>
      <trkpt lat="46.55469" lon="6.06507">
        <ele>1019.13</ele>
        <time>2013-05-09T11:23:11Z</time>
      </trkpt>
      <trkpt lat="46.55506" lon="6.06516">
        <ele>1020.58</ele>
        <time>2013-05-09T11:23:23Z</time>
      </trkpt>
      <trkpt lat="46.55549" lon="6.06537">
        <ele>1022.5</ele>
        <time>2013-05-09T11:23:35Z</time>
      </trkpt>
      <trkpt lat="46.55584" lon="6.06561">
        <ele>1023.94</ele>
        <time>2013-05-09T11:23:46Z</time>
      </trkpt>
      <trkpt lat="46.55623" lon="6.06574">
        <ele>1026.34</ele>
        <time>2013-05-09T11:23:59Z</time>
      </trkpt>
      <trkpt lat="46.55649" lon="6.06568">
        <ele>1027.31</ele>
        <time>2013-05-09T11:24:10Z</time>
      </trkpt>
      <trkpt lat="46.55679" lon="6.06538">
        <ele>1028.27</ele>
        <time>2013-05-09T11:24:25Z</time>
      </trkpt>
      <trkpt lat="46.55708" lon="6.06501">
        <ele>1028.75</ele>
        <time>2013-05-09T11:24:39Z</time>
      </trkpt>
      <trkpt lat="46.5574" lon="6.06473">
        <ele>1029.71</ele>
        <time>2013-05-09T11:24:53Z</time>
      </trkpt>
      <trkpt lat="46.55776" lon="6.06489">
        <ele>1030.67</ele>
        <time>2013-05-09T11:25:07Z</time>
      </trkpt>
      <trkpt lat="46.55794" lon="6.06528">
        <ele>1031.63</ele>
        <time>2013-05-09T11:25:19Z</time>
      </trkpt>
      <trkpt lat="46.55807" lon="6.06567">
        <ele>1033.55</ele>
        <time>2013-05-09T11:25:32Z</time>
      </trkpt>
      <trkpt lat="46.5582" lon="6.0659">
        <ele>1035</ele>
        <time>2013-05-09T11:25:43Z</time>
      </trkpt>
      <trkpt lat="46.55821" lon="6.06592">
        <ele>1035.48</ele>
        <time>2013-05-09T11:25:44Z</time>
      </trkpt>
      <trkpt lat="46.55835" lon="6.06624">
        <ele>1037.4</ele>
        <time>2013-05-09T11:25:58Z</time>
      </trkpt>
      <trkpt lat="46.55849" lon="6.06657">
        <ele>1038.84</ele>
        <time>2013-05-09T11:26:11Z</time>
      </trkpt>
      <trkpt lat="46.55853" lon="6.06682">
        <ele>1039.8</ele>
        <time>2013-05-09T11:26:22Z</time>
      </trkpt>
      <trkpt lat="46.55854" lon="6.06682">
        <ele>1039.8</ele>
        <time>2013-05-09T11:26:23Z</time>
      </trkpt>
      <trkpt lat="46.55855" lon="6.06682">
        <ele>1041.25</ele>
        <time>2013-05-09T11:26:24Z</time>
      </trkpt>
      <trkpt lat="46.55856" lon="6.0668">
        <ele>1039.8</ele>
        <time>2013-05-09T11:26:25Z</time>
      </trkpt>
      <trkpt lat="46.55857" lon="6.06677">
        <ele>1039.32</ele>
        <time>2013-05-09T11:26:26Z</time>
      </trkpt>
      <trkpt lat="46.55857" lon="6.06675">
        <ele>1039.32</ele>
        <time>2013-05-09T11:26:27Z</time>
      </trkpt>
      <trkpt lat="46.55857" lon="6.06674">
        <ele>1039.32</ele>
        <time>2013-05-09T11:26:28Z</time>
      </trkpt>
      <trkpt lat="46.55858" lon="6.06672">
        <ele>1039.32</ele>
        <time>2013-05-09T11:26:29Z</time>
      </trkpt>
      <trkpt lat="46.55857" lon="6.06671">
        <ele>1039.32</ele>
        <time>2013-05-09T11:26:30Z</time>
      </trkpt>
      <trkpt lat="46.55857" lon="6.0667">
        <ele>1038.84</ele>
        <time>2013-05-09T11:26:44Z</time>
      </trkpt>
      <trkpt lat="46.55857" lon="6.06669">
        <ele>1039.32</ele>
        <time>2013-05-09T11:27:05Z</time>
      </trkpt>
      <trkpt lat="46.55857" lon="6.06669">
        <ele>1038.84</ele>
        <time>2013-05-09T11:27:36Z</time>
      </trkpt>
      <trkpt lat="46.55857" lon="6.06669">
        <ele>1038.84</ele>
        <time>2013-05-09T11:28:02Z</time>
      </trkpt>
      <trkpt lat="46.55855" lon="6.06669">
        <ele>1038.84</ele>
        <time>2013-05-09T11:28:10Z</time>
      </trkpt>
      <trkpt lat="46.55853" lon="6.06669">
        <ele>1038.84</ele>
        <time>2013-05-09T11:28:11Z</time>
      </trkpt>
      <trkpt lat="46.55852" lon="6.0667">
        <ele>1038.84</ele>
        <time>2013-05-09T11:28:12Z</time>
      </trkpt>
      <trkpt lat="46.55851" lon="6.06673">
        <ele>1038.84</ele>
        <time>2013-05-09T11:28:13Z</time>
      </trkpt>
      <trkpt lat="46.55851" lon="6.06675">
        <ele>1039.32</ele>
        <time>2013-05-09T11:28:14Z</time>
      </trkpt>
      <trkpt lat="46.5585" lon="6.06679">
        <ele>1039.32</ele>
        <time>2013-05-09T11:28:15Z</time>
      </trkpt>
      <trkpt lat="46.55849" lon="6.06682">
        <ele>1039.32</ele>
        <time>2013-05-09T11:28:16Z</time>
      </trkpt>
      <trkpt lat="46.55848" lon="6.06685">
        <ele>1039.32</ele>
        <time>2013-05-09T11:28:17Z</time>
      </trkpt>
      <trkpt lat="46.55847" lon="6.06688">
        <ele>1039.32</ele>
        <time>2013-05-09T11:28:18Z</time>
      </trkpt>
      <trkpt lat="46.55846" lon="6.06691">
        <ele>1039.8</ele>
        <time>2013-05-09T11:28:19Z</time>
      </trkpt>
      <trkpt lat="46.55846" lon="6.06694">
        <ele>1039.32</ele>
        <time>2013-05-09T11:28:20Z</time>
      </trkpt>
      <trkpt lat="46.55834" lon="6.06745">
        <ele>1040.76</ele>
        <time>2013-05-09T11:28:35Z</time>
      </trkpt>
      <trkpt lat="46.5582" lon="6.06802">
        <ele>1041.25</ele>
        <time>2013-05-09T11:28:50Z</time>
      </trkpt>
      <trkpt lat="46.55808" lon="6.06855">
        <ele>1041.25</ele>
        <time>2013-05-09T11:29:00Z</time>
      </trkpt>
      <trkpt lat="46.55807" lon="6.06861">
        <ele>1041.25</ele>
        <time>2013-05-09T11:29:01Z</time>
      </trkpt>
      <trkpt lat="46.55799" lon="6.06898">
        <ele>1041.25</ele>
        <time>2013-05-09T11:29:08Z</time>
      </trkpt>
      <trkpt lat="46.55798" lon="6.06904">
        <ele>1041.25</ele>
        <time>2013-05-09T11:29:09Z</time>
      </trkpt>
      <trkpt lat="46.55799" lon="6.06909">
        <ele>1041.25</ele>
        <time>2013-05-09T11:29:10Z</time>
      </trkpt>
      <trkpt lat="46.55801" lon="6.06913">
        <ele>1041.25</ele>
        <time>2013-05-09T11:29:11Z</time>
      </trkpt>
      <trkpt lat="46.55803" lon="6.06916">
        <ele>1041.73</ele>
        <time>2013-05-09T11:29:12Z</time>
      </trkpt>
      <trkpt lat="46.55805" lon="6.06918">
        <ele>1041.73</ele>
        <time>2013-05-09T11:29:13Z</time>
      </trkpt>
      <trkpt lat="46.55808" lon="6.06919">
        <ele>1041.73</ele>
        <time>2013-05-09T11:29:14Z</time>
      </trkpt>
      <trkpt lat="46.5581" lon="6.06921">
        <ele>1042.21</ele>
        <time>2013-05-09T11:29:20Z</time>
      </trkpt>
      <trkpt lat="46.55808" lon="6.06922">
        <ele>1042.21</ele>
        <time>2013-05-09T11:29:33Z</time>
      </trkpt>
      <trkpt lat="46.55808" lon="6.06922">
        <ele>1041.73</ele>
        <time>2013-05-09T11:29:57Z</time>
      </trkpt>
      <trkpt lat="46.55809" lon="6.06922">
        <ele>1041.73</ele>
        <time>2013-05-09T11:30:25Z</time>
      </trkpt>
      <trkpt lat="46.55809" lon="6.06922">
        <ele>1041.73</ele>
        <time>2013-05-09T11:31:00Z</time>
      </trkpt>
      <trkpt lat="46.55808" lon="6.06922">
        <ele>1041.73</ele>
        <time>2013-05-09T11:31:32Z</time>
      </trkpt>
      <trkpt lat="46.55808" lon="6.06922">
        <ele>1041.73</ele>
        <time>2013-05-09T11:32:09Z</time>
      </trkpt>
      <trkpt lat="46.55808" lon="6.06922">
        <ele>1041.25</ele>
        <time>2013-05-09T11:32:41Z</time>
      </trkpt>
      <trkpt lat="46.55808" lon="6.06922">
        <ele>1041.25</ele>
        <time>2013-05-09T11:33:11Z</time>
      </trkpt>
      <trkpt lat="46.55808" lon="6.06922">
        <ele>1041.25</ele>
        <time>2013-05-09T11:33:50Z</time>
      </trkpt>
      <trkpt lat="46.55808" lon="6.06921">
        <ele>1041.25</ele>
        <time>2013-05-09T11:34:24Z</time>
      </trkpt>
      <trkpt lat="46.55808" lon="6.06921">
        <ele>1041.25</ele>
        <time>2013-05-09T11:35:01Z</time>
      </trkpt>
      <trkpt lat="46.55809" lon="6.06921">
        <ele>1041.25</ele>
        <time>2013-05-09T11:35:37Z</time>
      </trkpt>
      <trkpt lat="46.55808" lon="6.06921">
        <ele>1041.25</ele>
        <time>2013-05-09T11:36:11Z</time>
      </trkpt>
      <trkpt lat="46.55808" lon="6.06921">
        <ele>1041.73</ele>
        <time>2013-05-09T11:36:50Z</time>
      </trkpt>
      <trkpt lat="46.55808" lon="6.06921">
        <ele>1041.73</ele>
        <time>2013-05-09T11:37:30Z</time>
      </trkpt>
      <trkpt lat="46.55808" lon="6.06921">
        <ele>1041.25</ele>
        <time>2013-05-09T11:38:03Z</time>
      </trkpt>
      <trkpt lat="46.55808" lon="6.06921">
        <ele>1041.25</ele>
        <time>2013-05-09T11:38:40Z</time>
      </trkpt>
      <trkpt lat="46.55808" lon="6.06921">
        <ele>1041.25</ele>
        <time>2013-05-09T11:39:18Z</time>
      </trkpt>
      <trkpt lat="46.55807" lon="6.06921">
        <ele>1041.25</ele>
        <time>2013-05-09T11:39:53Z</time>
      </trkpt>
      <trkpt lat="46.55807" lon="6.0692">
        <ele>1041.25</ele>
        <time>2013-05-09T11:40:29Z</time>
      </trkpt>
      <trkpt lat="46.55808" lon="6.06921">
        <ele>1041.25</ele>
        <time>2013-05-09T11:41:09Z</time>
      </trkpt>
      <trkpt lat="46.55808" lon="6.06922">
        <ele>1041.25</ele>
        <time>2013-05-09T11:41:47Z</time>
      </trkpt>
      <trkpt lat="46.55808" lon="6.06922">
        <ele>1041.25</ele>
        <time>2013-05-09T11:42:24Z</time>
      </trkpt>
      <trkpt lat="46.55808" lon="6.06922">
        <ele>1040.76</ele>
        <time>2013-05-09T11:43:01Z</time>
      </trkpt>
      <trkpt lat="46.55807" lon="6.06922">
        <ele>1040.76</ele>
        <time>2013-05-09T11:43:42Z</time>
      </trkpt>
      <trkpt lat="46.55807" lon="6.06921">
        <ele>1040.76</ele>
        <time>2013-05-09T11:44:18Z</time>
      </trkpt>
      <trkpt lat="46.55807" lon="6.06921">
        <ele>1040.76</ele>
        <time>2013-05-09T11:44:56Z</time>
      </trkpt>
      <trkpt lat="46.55807" lon="6.06921">
        <ele>1040.28</ele>
        <time>2013-05-09T11:45:26Z</time>
      </trkpt>
      <trkpt lat="46.55807" lon="6.06921">
        <ele>1040.76</ele>
        <time>2013-05-09T11:45:48Z</time>
      </trkpt>
      <trkpt lat="46.55807" lon="6.06921">
        <ele>1040.76</ele>
        <time>2013-05-09T11:46:20Z</time>
      </trkpt>
      <trkpt lat="46.55806" lon="6.06922">
        <ele>1040.28</ele>
        <time>2013-05-09T11:46:57Z</time>
      </trkpt>
      <trkpt lat="46.55806" lon="6.06922">
        <ele>1040.28</ele>
        <time>2013-05-09T11:47:34Z</time>
      </trkpt>
      <trkpt lat="46.55806" lon="6.06922">
        <ele>1040.28</ele>
        <time>2013-05-09T11:48:08Z</time>
      </trkpt>
      <trkpt lat="46.55806" lon="6.06922">
        <ele>1040.28</ele>
        <time>2013-05-09T11:48:39Z</time>
      </trkpt>
      <trkpt lat="46.55806" lon="6.06922">
        <ele>1040.28</ele>
        <time>2013-05-09T11:49:14Z</time>
      </trkpt>
      <trkpt lat="46.55806" lon="6.06921">
        <ele>1040.28</ele>
        <time>2013-05-09T11:49:50Z</time>
      </trkpt>
      <trkpt lat="46.55805" lon="6.06921">
        <ele>1040.28</ele>
        <time>2013-05-09T11:50:21Z</time>
      </trkpt>
      <trkpt lat="46.55805" lon="6.06921">
        <ele>1040.76</ele>
        <time>2013-05-09T11:50:57Z</time>
      </trkpt>
      <trkpt lat="46.55805" lon="6.06921">
        <ele>1040.28</ele>
        <time>2013-05-09T11:51:31Z</time>
      </trkpt>
      <trkpt lat="46.55806" lon="6.06921">
        <ele>1040.28</ele>
        <time>2013-05-09T11:52:04Z</time>
      </trkpt>
      <trkpt lat="46.55806" lon="6.06921">
        <ele>1040.28</ele>
        <time>2013-05-09T11:52:35Z</time>
      </trkpt>
      <trkpt lat="46.55806" lon="6.06921">
        <ele>1040.28</ele>
        <time>2013-05-09T11:53:08Z</time>
      </trkpt>
      <trkpt lat="46.55806" lon="6.06921">
        <ele>1040.28</ele>
        <time>2013-05-09T11:53:45Z</time>
      </trkpt>
      <trkpt lat="46.55806" lon="6.06921">
        <ele>1040.28</ele>
        <time>2013-05-09T11:54:22Z</time>
      </trkpt>
      <trkpt lat="46.55806" lon="6.06921">
        <ele>1040.28</ele>
        <time>2013-05-09T11:55:02Z</time>
      </trkpt>
      <trkpt lat="46.55806" lon="6.06922">
        <ele>1040.28</ele>
        <time>2013-05-09T11:55:41Z</time>
      </trkpt>
      <trkpt lat="46.55806" lon="6.06922">
        <ele>1040.28</ele>
        <time>2013-05-09T11:56:17Z</time>
      </trkpt>
      <trkpt lat="46.55806" lon="6.06922">
        <ele>1040.28</ele>
        <time>2013-05-09T11:56:52Z</time>
      </trkpt>
      <trkpt lat="46.55806" lon="6.06922">
        <ele>1040.28</ele>
        <time>2013-05-09T11:57:26Z</time>
      </trkpt>
      <trkpt lat="46.55806" lon="6.06922">
        <ele>1040.28</ele>
        <time>2013-05-09T11:58:01Z</time>
      </trkpt>
      <trkpt lat="46.55805" lon="6.06921">
        <ele>1040.28</ele>
        <time>2013-05-09T11:58:34Z</time>
      </trkpt>
      <trkpt lat="46.55805" lon="6.06922">
        <ele>1040.28</ele>
        <time>2013-05-09T11:59:03Z</time>
      </trkpt>
      <trkpt lat="46.55805" lon="6.06922">
        <ele>1040.28</ele>
        <time>2013-05-09T11:59:43Z</time>
      </trkpt>
      <trkpt lat="46.55805" lon="6.06922">
        <ele>1040.28</ele>
        <time>2013-05-09T12:00:10Z</time>
      </trkpt>
      <trkpt lat="46.55805" lon="6.06922">
        <ele>1040.28</ele>
        <time>2013-05-09T12:00:39Z</time>
      </trkpt>
      <trkpt lat="46.55805" lon="6.06922">
        <ele>1040.28</ele>
        <time>2013-05-09T12:01:08Z</time>
      </trkpt>
      <trkpt lat="46.55805" lon="6.06921">
        <ele>1040.28</ele>
        <time>2013-05-09T12:01:22Z</time>
      </trkpt>
      <trkpt lat="46.55805" lon="6.0692">
        <ele>1040.28</ele>
        <time>2013-05-09T12:01:40Z</time>
      </trkpt>
      <trkpt lat="46.55805" lon="6.06919">
        <ele>1040.28</ele>
        <time>2013-05-09T12:02:03Z</time>
      </trkpt>
      <trkpt lat="46.55805" lon="6.06919">
        <ele>1040.28</ele>
        <time>2013-05-09T12:02:29Z</time>
      </trkpt>
      <trkpt lat="46.55805" lon="6.06919">
        <ele>1040.28</ele>
        <time>2013-05-09T12:02:56Z</time>
      </trkpt>
      <trkpt lat="46.55805" lon="6.06919">
        <ele>1040.28</ele>
        <time>2013-05-09T12:03:17Z</time>
      </trkpt>
      <trkpt lat="46.55805" lon="6.06919">
        <ele>1040.76</ele>
        <time>2013-05-09T12:03:46Z</time>
      </trkpt>
      <trkpt lat="46.55804" lon="6.06917">
        <ele>1040.28</ele>
        <time>2013-05-09T12:03:51Z</time>
      </trkpt>
      <trkpt lat="46.55803" lon="6.06916">
        <ele>1040.28</ele>
        <time>2013-05-09T12:03:52Z</time>
      </trkpt>
      <trkpt lat="46.55801" lon="6.06916">
        <ele>1040.76</ele>
        <time>2013-05-09T12:03:56Z</time>
      </trkpt>
      <trkpt lat="46.558" lon="6.06916">
        <ele>1040.28</ele>
        <time>2013-05-09T12:04:04Z</time>
      </trkpt>
      <trkpt lat="46.558" lon="6.06918">
        <ele>1040.28</ele>
        <time>2013-05-09T12:04:05Z</time>
      </trkpt>
      <trkpt lat="46.558" lon="6.0692">
        <ele>1039.8</ele>
        <time>2013-05-09T12:04:18Z</time>
      </trkpt>
      <trkpt lat="46.558" lon="6.0692">
        <ele>1039.8</ele>
        <time>2013-05-09T12:04:19Z</time>
      </trkpt>
      <trkpt lat="46.55801" lon="6.06917">
        <ele>1039.8</ele>
        <time>2013-05-09T12:04:21Z</time>
      </trkpt>
      <trkpt lat="46.55804" lon="6.06913">
        <ele>1040.28</ele>
        <time>2013-05-09T12:04:24Z</time>
      </trkpt>
      <trkpt lat="46.55804" lon="6.06912">
        <ele>1040.28</ele>
        <time>2013-05-09T12:04:26Z</time>
      </trkpt>
      <trkpt lat="46.55805" lon="6.06915">
        <ele>1040.28</ele>
        <time>2013-05-09T12:04:30Z</time>
      </trkpt>
      <trkpt lat="46.55808" lon="6.06917">
        <ele>1040.28</ele>
        <time>2013-05-09T12:04:40Z</time>
      </trkpt>
      <trkpt lat="46.55808" lon="6.06917">
        <ele>1040.28</ele>
        <time>2013-05-09T12:05:08Z</time>
      </trkpt>
      <trkpt lat="46.55808" lon="6.06917">
        <ele>1040.28</ele>
        <time>2013-05-09T12:05:39Z</time>
      </trkpt>
      <trkpt lat="46.55808" lon="6.06917">
        <ele>1040.28</ele>
        <time>2013-05-09T12:06:12Z</time>
      </trkpt>
      <trkpt lat="46.55808" lon="6.06917">
        <ele>1040.28</ele>
        <time>2013-05-09T12:06:43Z</time>
      </trkpt>
      <trkpt lat="46.55808" lon="6.06919">
        <ele>1040.76</ele>
        <time>2013-05-09T12:07:05Z</time>
      </trkpt>
      <trkpt lat="46.55807" lon="6.06919">
        <ele>1043.65</ele>
        <time>2013-05-09T12:07:07Z</time>
      </trkpt>
      <trkpt lat="46.55806" lon="6.06918">
        <ele>1040.76</ele>
        <time>2013-05-09T12:07:09Z</time>
      </trkpt>
      <trkpt lat="46.55806" lon="6.06918">
        <ele>1040.76</ele>
        <time>2013-05-09T12:07:39Z</time>
      </trkpt>
      <trkpt lat="46.55806" lon="6.06918">
        <ele>1040.76</ele>
        <time>2013-05-09T12:08:06Z</time>
      </trkpt>
      <trkpt lat="46.55806" lon="6.06918">
        <ele>1040.76</ele>
        <time>2013-05-09T12:08:36Z</time>
      </trkpt>
      <trkpt lat="46.55806" lon="6.06918">
        <ele>1040.76</ele>
        <time>2013-05-09T12:09:05Z</time>
      </trkpt>
      <trkpt lat="46.55806" lon="6.06918">
        <ele>1040.76</ele>
        <time>2013-05-09T12:09:33Z</time>
      </trkpt>
      <trkpt lat="46.55806" lon="6.06918">
        <ele>1040.76</ele>
        <time>2013-05-09T12:09:57Z</time>
      </trkpt>
      <trkpt lat="46.55806" lon="6.06918">
        <ele>1040.76</ele>
        <time>2013-05-09T12:10:21Z</time>
      </trkpt>
      <trkpt lat="46.55806" lon="6.06918">
        <ele>1040.76</ele>
        <time>2013-05-09T12:10:46Z</time>
      </trkpt>
      <trkpt lat="46.55806" lon="6.06918">
        <ele>1040.76</ele>
        <time>2013-05-09T12:11:03Z</time>
      </trkpt>
      <trkpt lat="46.55806" lon="6.06918">
        <ele>1040.76</ele>
        <time>2013-05-09T12:11:29Z</time>
      </trkpt>
      <trkpt lat="46.55806" lon="6.06919">
        <ele>1040.76</ele>
        <time>2013-05-09T12:11:48Z</time>
      </trkpt>
      <trkpt lat="46.55806" lon="6.06919">
        <ele>1040.76</ele>
        <time>2013-05-09T12:12:09Z</time>
      </trkpt>
      <trkpt lat="46.55806" lon="6.06919">
        <ele>1040.76</ele>
        <time>2013-05-09T12:12:31Z</time>
      </trkpt>
      <trkpt lat="46.55806" lon="6.06919">
        <ele>1040.76</ele>
        <time>2013-05-09T12:12:36Z</time>
      </trkpt>
      <trkpt lat="46.55807" lon="6.06922">
        <ele>1040.28</ele>
        <time>2013-05-09T12:12:37Z</time>
      </trkpt>
      <trkpt lat="46.55807" lon="6.06925">
        <ele>1040.76</ele>
        <time>2013-05-09T12:12:38Z</time>
      </trkpt>
      <trkpt lat="46.55808" lon="6.06927">
        <ele>1040.28</ele>
        <time>2013-05-09T12:12:39Z</time>
      </trkpt>
      <trkpt lat="46.55808" lon="6.06931">
        <ele>1041.25</ele>
        <time>2013-05-09T12:12:40Z</time>
      </trkpt>
      <trkpt lat="46.55808" lon="6.06934">
        <ele>1041.25</ele>
        <time>2013-05-09T12:12:41Z</time>
      </trkpt>
      <trkpt lat="46.55807" lon="6.06936">
        <ele>1040.76</ele>
        <time>2013-05-09T12:12:42Z</time>
      </trkpt>
      <trkpt lat="46.55805" lon="6.06937">
        <ele>1040.76</ele>
        <time>2013-05-09T12:12:43Z</time>
      </trkpt>
      <trkpt lat="46.55785" lon="6.06971">
        <ele>1041.25</ele>
        <time>2013-05-09T12:12:56Z</time>
      </trkpt>
      <trkpt lat="46.55783" lon="6.06974">
        <ele>1041.25</ele>
        <time>2013-05-09T12:12:57Z</time>
      </trkpt>
      <trkpt lat="46.55783" lon="6.06977">
        <ele>1042.69</ele>
        <time>2013-05-09T12:12:58Z</time>
      </trkpt>
      <trkpt lat="46.55782" lon="6.0698">
        <ele>1042.69</ele>
        <time>2013-05-09T12:12:59Z</time>
      </trkpt>
      <trkpt lat="46.55784" lon="6.06992">
        <ele>1042.69</ele>
        <time>2013-05-09T12:13:03Z</time>
      </trkpt>
      <trkpt lat="46.55785" lon="6.06995">
        <ele>1042.69</ele>
        <time>2013-05-09T12:13:04Z</time>
      </trkpt>
      <trkpt lat="46.55813" lon="6.07041">
        <ele>1044.61</ele>
        <time>2013-05-09T12:13:18Z</time>
      </trkpt>
      <trkpt lat="46.55842" lon="6.07059">
        <ele>1044.61</ele>
        <time>2013-05-09T12:13:32Z</time>
      </trkpt>
      <trkpt lat="46.55845" lon="6.07058">
        <ele>1044.61</ele>
        <time>2013-05-09T12:13:34Z</time>
      </trkpt>
      <trkpt lat="46.55847" lon="6.07059">
        <ele>1044.61</ele>
        <time>2013-05-09T12:13:35Z</time>
      </trkpt>
      <trkpt lat="46.55848" lon="6.07062">
        <ele>1044.61</ele>
        <time>2013-05-09T12:13:36Z</time>
      </trkpt>
      <trkpt lat="46.55849" lon="6.07064">
        <ele>1044.61</ele>
        <time>2013-05-09T12:13:37Z</time>
      </trkpt>
      <trkpt lat="46.55848" lon="6.07062">
        <ele>1044.61</ele>
        <time>2013-05-09T12:13:45Z</time>
      </trkpt>
      <trkpt lat="46.55846" lon="6.07062">
        <ele>1044.61</ele>
        <time>2013-05-09T12:13:46Z</time>
      </trkpt>
      <trkpt lat="46.55845" lon="6.07064">
        <ele>1044.61</ele>
        <time>2013-05-09T12:13:47Z</time>
      </trkpt>
      <trkpt lat="46.55844" lon="6.07067">
        <ele>1044.61</ele>
        <time>2013-05-09T12:13:48Z</time>
      </trkpt>
      <trkpt lat="46.55845" lon="6.0707">
        <ele>1044.61</ele>
        <time>2013-05-09T12:13:49Z</time>
      </trkpt>
      <trkpt lat="46.55846" lon="6.07072">
        <ele>1045.09</ele>
        <time>2013-05-09T12:13:50Z</time>
      </trkpt>
      <trkpt lat="46.55848" lon="6.07075">
        <ele>1044.61</ele>
        <time>2013-05-09T12:13:51Z</time>
      </trkpt>
      <trkpt lat="46.5585" lon="6.07077">
        <ele>1045.09</ele>
        <time>2013-05-09T12:13:52Z</time>
      </trkpt>
      <trkpt lat="46.55853" lon="6.0708">
        <ele>1044.61</ele>
        <time>2013-05-09T12:13:53Z</time>
      </trkpt>
      <trkpt lat="46.55885" lon="6.07121">
        <ele>1045.57</ele>
        <time>2013-05-09T12:14:06Z</time>
      </trkpt>
      <trkpt lat="46.55917" lon="6.07167">
        <ele>1045.57</ele>
        <time>2013-05-09T12:14:18Z</time>
      </trkpt>
      <trkpt lat="46.55943" lon="6.07211">
        <ele>1046.53</ele>
        <time>2013-05-09T12:14:31Z</time>
      </trkpt>
      <trkpt lat="46.55959" lon="6.07249">
        <ele>1047.49</ele>
        <time>2013-05-09T12:14:43Z</time>
      </trkpt>
      <trkpt lat="46.55958" lon="6.0729">
        <ele>1046.53</ele>
        <time>2013-05-09T12:14:55Z</time>
      </trkpt>
      <trkpt lat="46.55957" lon="6.07308">
        <ele>1046.53</ele>
        <time>2013-05-09T12:15:00Z</time>
      </trkpt>
      <trkpt lat="46.55964" lon="6.07351">
        <ele>1047.49</ele>
        <time>2013-05-09T12:15:14Z</time>
      </trkpt>
      <trkpt lat="46.55984" lon="6.07376">
        <ele>1048.45</ele>
        <time>2013-05-09T12:15:26Z</time>
      </trkpt>
      <trkpt lat="46.56012" lon="6.07401">
        <ele>1050.38</ele>
        <time>2013-05-09T12:15:40Z</time>
      </trkpt>
      <trkpt lat="46.5604" lon="6.07423">
        <ele>1052.3</ele>
        <time>2013-05-09T12:15:55Z</time>
      </trkpt>
      <trkpt lat="46.56064" lon="6.07441">
        <ele>1053.74</ele>
        <time>2013-05-09T12:16:08Z</time>
      </trkpt>
      <trkpt lat="46.56065" lon="6.07442">
        <ele>1053.74</ele>
        <time>2013-05-09T12:16:09Z</time>
      </trkpt>
      <trkpt lat="46.56067" lon="6.07442">
        <ele>1053.74</ele>
        <time>2013-05-09T12:16:10Z</time>
      </trkpt>
      <trkpt lat="46.56094" lon="6.0744">
        <ele>1056.15</ele>
        <time>2013-05-09T12:16:24Z</time>
      </trkpt>
      <trkpt lat="46.56115" lon="6.07424">
        <ele>1058.07</ele>
        <time>2013-05-09T12:16:37Z</time>
      </trkpt>
      <trkpt lat="46.5614" lon="6.07402">
        <ele>1060.47</ele>
        <time>2013-05-09T12:16:52Z</time>
      </trkpt>
      <trkpt lat="46.56162" lon="6.07383">
        <ele>1062.87</ele>
        <time>2013-05-09T12:17:04Z</time>
      </trkpt>
      <trkpt lat="46.56164" lon="6.07382">
        <ele>1062.87</ele>
        <time>2013-05-09T12:17:05Z</time>
      </trkpt>
      <trkpt lat="46.56166" lon="6.07381">
        <ele>1063.36</ele>
        <time>2013-05-09T12:17:06Z</time>
      </trkpt>
      <trkpt lat="46.56167" lon="6.07381">
        <ele>1063.36</ele>
        <time>2013-05-09T12:17:07Z</time>
      </trkpt>
      <trkpt lat="46.56169" lon="6.07381">
        <ele>1063.84</ele>
        <time>2013-05-09T12:17:08Z</time>
      </trkpt>
      <trkpt lat="46.56171" lon="6.07381">
        <ele>1063.84</ele>
        <time>2013-05-09T12:17:09Z</time>
      </trkpt>
      <trkpt lat="46.56199" lon="6.07397">
        <ele>1066.72</ele>
        <time>2013-05-09T12:17:23Z</time>
      </trkpt>
      <trkpt lat="46.56226" lon="6.07425">
        <ele>1069.6</ele>
        <time>2013-05-09T12:17:38Z</time>
      </trkpt>
      <trkpt lat="46.56255" lon="6.07451">
        <ele>1072.49</ele>
        <time>2013-05-09T12:17:53Z</time>
      </trkpt>
      <trkpt lat="46.56287" lon="6.07478">
        <ele>1075.37</ele>
        <time>2013-05-09T12:18:09Z</time>
      </trkpt>
      <trkpt lat="46.56306" lon="6.07485">
        <ele>1076.81</ele>
        <time>2013-05-09T12:18:18Z</time>
      </trkpt>
      <trkpt lat="46.56328" lon="6.07495">
        <ele>1078.74</ele>
        <time>2013-05-09T12:18:28Z</time>
      </trkpt>
      <trkpt lat="46.5633" lon="6.07497">
        <ele>1079.22</ele>
        <time>2013-05-09T12:18:29Z</time>
      </trkpt>
      <trkpt lat="46.56332" lon="6.07499">
        <ele>1079.22</ele>
        <time>2013-05-09T12:18:30Z</time>
      </trkpt>
      <trkpt lat="46.56333" lon="6.07501">
        <ele>1079.7</ele>
        <time>2013-05-09T12:18:31Z</time>
      </trkpt>
      <trkpt lat="46.56334" lon="6.07504">
        <ele>1079.7</ele>
        <time>2013-05-09T12:18:32Z</time>
      </trkpt>
      <trkpt lat="46.56336" lon="6.07506">
        <ele>1079.7</ele>
        <time>2013-05-09T12:18:33Z</time>
      </trkpt>
      <trkpt lat="46.5634" lon="6.07538">
        <ele>1082.1</ele>
        <time>2013-05-09T12:18:46Z</time>
      </trkpt>
      <trkpt lat="46.56332" lon="6.07553">
        <ele>1082.58</ele>
        <time>2013-05-09T12:18:59Z</time>
      </trkpt>
      <trkpt lat="46.56333" lon="6.07553">
        <ele>1082.58</ele>
        <time>2013-05-09T12:19:03Z</time>
      </trkpt>
      <trkpt lat="46.56334" lon="6.07554">
        <ele>1082.58</ele>
        <time>2013-05-09T12:19:04Z</time>
      </trkpt>
      <trkpt lat="46.56336" lon="6.07552">
        <ele>1082.58</ele>
        <time>2013-05-09T12:19:06Z</time>
      </trkpt>
      <trkpt lat="46.56338" lon="6.0755">
        <ele>1082.58</ele>
        <time>2013-05-09T12:19:07Z</time>
      </trkpt>
      <trkpt lat="46.5634" lon="6.07549">
        <ele>1082.58</ele>
        <time>2013-05-09T12:19:08Z</time>
      </trkpt>
      <trkpt lat="46.56341" lon="6.07547">
        <ele>1082.58</ele>
        <time>2013-05-09T12:19:09Z</time>
      </trkpt>
      <trkpt lat="46.56343" lon="6.07546">
        <ele>1082.1</ele>
        <time>2013-05-09T12:19:10Z</time>
      </trkpt>
      <trkpt lat="46.56345" lon="6.07545">
        <ele>1082.58</ele>
        <time>2013-05-09T12:19:11Z</time>
      </trkpt>
      <trkpt lat="46.56356" lon="6.07536">
        <ele>1081.62</ele>
        <time>2013-05-09T12:19:24Z</time>
      </trkpt>
      <trkpt lat="46.56357" lon="6.07535">
        <ele>1082.1</ele>
        <time>2013-05-09T12:19:37Z</time>
      </trkpt>
      <trkpt lat="46.56357" lon="6.07535">
        <ele>1081.62</ele>
        <time>2013-05-09T12:20:13Z</time>
      </trkpt>
      <trkpt lat="46.56357" lon="6.07534">
        <ele>1081.62</ele>
        <time>2013-05-09T12:20:49Z</time>
      </trkpt>
      <trkpt lat="46.56357" lon="6.07534">
        <ele>1081.62</ele>
        <time>2013-05-09T12:21:26Z</time>
      </trkpt>
      <trkpt lat="46.56357" lon="6.07534">
        <ele>1081.62</ele>
        <time>2013-05-09T12:22:08Z</time>
      </trkpt>
      <trkpt lat="46.56356" lon="6.07536">
        <ele>1081.62</ele>
        <time>2013-05-09T12:22:22Z</time>
      </trkpt>
      <trkpt lat="46.56356" lon="6.07536">
        <ele>1081.62</ele>
        <time>2013-05-09T12:22:42Z</time>
      </trkpt>
      <trkpt lat="46.56356" lon="6.07536">
        <ele>1081.14</ele>
        <time>2013-05-09T12:23:00Z</time>
      </trkpt>
      <trkpt lat="46.56356" lon="6.07536">
        <ele>1081.62</ele>
        <time>2013-05-09T12:23:22Z</time>
      </trkpt>
      <trkpt lat="46.56355" lon="6.07537">
        <ele>1081.14</ele>
        <time>2013-05-09T12:23:34Z</time>
      </trkpt>
      <trkpt lat="46.56334" lon="6.07558">
        <ele>1081.62</ele>
        <time>2013-05-09T12:23:43Z</time>
      </trkpt>
      <trkpt lat="46.56333" lon="6.0756">
        <ele>1082.1</ele>
        <time>2013-05-09T12:23:44Z</time>
      </trkpt>
      <trkpt lat="46.56331" lon="6.07563">
        <ele>1081.62</ele>
        <time>2013-05-09T12:23:45Z</time>
      </trkpt>
      <trkpt lat="46.5633" lon="6.07565">
        <ele>1082.1</ele>
        <time>2013-05-09T12:23:46Z</time>
      </trkpt>
      <trkpt lat="46.56323" lon="6.07578">
        <ele>1082.1</ele>
        <time>2013-05-09T12:23:50Z</time>
      </trkpt>
      <trkpt lat="46.56322" lon="6.07582">
        <ele>1082.1</ele>
        <time>2013-05-09T12:23:51Z</time>
      </trkpt>
      <trkpt lat="46.5632" lon="6.07585">
        <ele>1082.1</ele>
        <time>2013-05-09T12:23:52Z</time>
      </trkpt>
      <trkpt lat="46.56318" lon="6.07588">
        <ele>1082.1</ele>
        <time>2013-05-09T12:23:53Z</time>
      </trkpt>
      <trkpt lat="46.56316" lon="6.07592">
        <ele>1082.58</ele>
        <time>2013-05-09T12:23:54Z</time>
      </trkpt>
      <trkpt lat="46.56314" lon="6.07596">
        <ele>1082.58</ele>
        <time>2013-05-09T12:23:55Z</time>
      </trkpt>
      <trkpt lat="46.56313" lon="6.076">
        <ele>1082.58</ele>
        <time>2013-05-09T12:23:56Z</time>
      </trkpt>
      <trkpt lat="46.56311" lon="6.07604">
        <ele>1082.58</ele>
        <time>2013-05-09T12:23:57Z</time>
      </trkpt>
      <trkpt lat="46.5631" lon="6.07607">
        <ele>1082.58</ele>
        <time>2013-05-09T12:23:58Z</time>
      </trkpt>
      <trkpt lat="46.56308" lon="6.07611">
        <ele>1082.58</ele>
        <time>2013-05-09T12:23:59Z</time>
      </trkpt>
      <trkpt lat="46.56307" lon="6.07615">
        <ele>1083.06</ele>
        <time>2013-05-09T12:24:00Z</time>
      </trkpt>
      <trkpt lat="46.56299" lon="6.07686">
        <ele>1084.99</ele>
        <time>2013-05-09T12:24:17Z</time>
      </trkpt>
      <trkpt lat="46.56313" lon="6.07745">
        <ele>1084.5</ele>
        <time>2013-05-09T12:24:29Z</time>
      </trkpt>
      <trkpt lat="46.56339" lon="6.07818">
        <ele>1082.1</ele>
        <time>2013-05-09T12:24:39Z</time>
      </trkpt>
      <trkpt lat="46.56344" lon="6.07824">
        <ele>1081.62</ele>
        <time>2013-05-09T12:24:40Z</time>
      </trkpt>
      <trkpt lat="46.56399" lon="6.07859">
        <ele>1078.26</ele>
        <time>2013-05-09T12:24:48Z</time>
      </trkpt>
      <trkpt lat="46.56437" lon="6.07872">
        <ele>1077.78</ele>
        <time>2013-05-09T12:24:53Z</time>
      </trkpt>
      <trkpt lat="46.56444" lon="6.07872">
        <ele>1077.78</ele>
        <time>2013-05-09T12:24:54Z</time>
      </trkpt>
      <trkpt lat="46.56451" lon="6.07871">
        <ele>1078.26</ele>
        <time>2013-05-09T12:24:55Z</time>
      </trkpt>
      <trkpt lat="46.56458" lon="6.07869">
        <ele>1078.26</ele>
        <time>2013-05-09T12:24:56Z</time>
      </trkpt>
      <trkpt lat="46.56464" lon="6.07867">
        <ele>1078.26</ele>
        <time>2013-05-09T12:24:57Z</time>
      </trkpt>
      <trkpt lat="46.56477" lon="6.07861">
        <ele>1079.7</ele>
        <time>2013-05-09T12:24:59Z</time>
      </trkpt>
      <trkpt lat="46.56502" lon="6.07847">
        <ele>1081.14</ele>
        <time>2013-05-09T12:25:04Z</time>
      </trkpt>
      <trkpt lat="46.56507" lon="6.07846">
        <ele>1081.62</ele>
        <time>2013-05-09T12:25:05Z</time>
      </trkpt>
      <trkpt lat="46.56542" lon="6.07854">
        <ele>1084.02</ele>
        <time>2013-05-09T12:25:16Z</time>
      </trkpt>
      <trkpt lat="46.56557" lon="6.07883">
        <ele>1086.43</ele>
        <time>2013-05-09T12:25:28Z</time>
      </trkpt>
      <trkpt lat="46.56583" lon="6.07926">
        <ele>1089.31</ele>
        <time>2013-05-09T12:25:44Z</time>
      </trkpt>
      <trkpt lat="46.56599" lon="6.07966">
        <ele>1092.68</ele>
        <time>2013-05-09T12:25:58Z</time>
      </trkpt>
      <trkpt lat="46.56623" lon="6.08007">
        <ele>1095.56</ele>
        <time>2013-05-09T12:26:13Z</time>
      </trkpt>
      <trkpt lat="46.56656" lon="6.07999">
        <ele>1097.48</ele>
        <time>2013-05-09T12:26:26Z</time>
      </trkpt>
      <trkpt lat="46.56683" lon="6.07969">
        <ele>1097.96</ele>
        <time>2013-05-09T12:26:41Z</time>
      </trkpt>
      <trkpt lat="46.56706" lon="6.07979">
        <ele>1097.48</ele>
        <time>2013-05-09T12:26:52Z</time>
      </trkpt>
      <trkpt lat="46.56728" lon="6.0802">
        <ele>1095.56</ele>
        <time>2013-05-09T12:27:02Z</time>
      </trkpt>
      <trkpt lat="46.5673" lon="6.08027">
        <ele>1095.56</ele>
        <time>2013-05-09T12:27:03Z</time>
      </trkpt>
      <trkpt lat="46.56732" lon="6.08034">
        <ele>1095.08</ele>
        <time>2013-05-09T12:27:04Z</time>
      </trkpt>
      <trkpt lat="46.56733" lon="6.08042">
        <ele>1095.08</ele>
        <time>2013-05-09T12:27:05Z</time>
      </trkpt>
      <trkpt lat="46.56733" lon="6.08051">
        <ele>1094.6</ele>
        <time>2013-05-09T12:27:06Z</time>
      </trkpt>
      <trkpt lat="46.56733" lon="6.08059">
        <ele>1094.6</ele>
        <time>2013-05-09T12:27:07Z</time>
      </trkpt>
      <trkpt lat="46.56732" lon="6.08068">
        <ele>1094.12</ele>
        <time>2013-05-09T12:27:08Z</time>
      </trkpt>
      <trkpt lat="46.5673" lon="6.08085">
        <ele>1094.12</ele>
        <time>2013-05-09T12:27:10Z</time>
      </trkpt>
      <trkpt lat="46.56723" lon="6.08113">
        <ele>1093.16</ele>
        <time>2013-05-09T12:27:13Z</time>
      </trkpt>
      <trkpt lat="46.56696" lon="6.08171">
        <ele>1094.6</ele>
        <time>2013-05-09T12:27:23Z</time>
      </trkpt>
      <trkpt lat="46.56675" lon="6.08227">
        <ele>1097.48</ele>
        <time>2013-05-09T12:27:40Z</time>
      </trkpt>
      <trkpt lat="46.5666" lon="6.08272">
        <ele>1098.44</ele>
        <time>2013-05-09T12:27:54Z</time>
      </trkpt>
      <trkpt lat="46.56643" lon="6.08317">
        <ele>1099.89</ele>
        <time>2013-05-09T12:28:09Z</time>
      </trkpt>
      <trkpt lat="46.56623" lon="6.08364">
        <ele>1101.81</ele>
        <time>2013-05-09T12:28:25Z</time>
      </trkpt>
      <trkpt lat="46.56607" lon="6.0841">
        <ele>1103.25</ele>
        <time>2013-05-09T12:28:39Z</time>
      </trkpt>
      <trkpt lat="46.56602" lon="6.08448">
        <ele>1103.73</ele>
        <time>2013-05-09T12:28:51Z</time>
      </trkpt>
      <trkpt lat="46.56603" lon="6.08488">
        <ele>1102.77</ele>
        <time>2013-05-09T12:29:04Z</time>
      </trkpt>
      <trkpt lat="46.5661" lon="6.08523">
        <ele>1101.33</ele>
        <time>2013-05-09T12:29:11Z</time>
      </trkpt>
      <trkpt lat="46.56617" lon="6.08546">
        <ele>1100.85</ele>
        <time>2013-05-09T12:29:15Z</time>
      </trkpt>
      <trkpt lat="46.5662" lon="6.08551">
        <ele>1100.85</ele>
        <time>2013-05-09T12:29:16Z</time>
      </trkpt>
      <trkpt lat="46.56622" lon="6.08556">
        <ele>1100.85</ele>
        <time>2013-05-09T12:29:17Z</time>
      </trkpt>
      <trkpt lat="46.56624" lon="6.08561">
        <ele>1100.85</ele>
        <time>2013-05-09T12:29:18Z</time>
      </trkpt>
      <trkpt lat="46.56626" lon="6.08566">
        <ele>1100.37</ele>
        <time>2013-05-09T12:29:19Z</time>
      </trkpt>
      <trkpt lat="46.56648" lon="6.08614">
        <ele>1098.44</ele>
        <time>2013-05-09T12:29:28Z</time>
      </trkpt>
      <trkpt lat="46.5665" lon="6.08619">
        <ele>1099.89</ele>
        <time>2013-05-09T12:29:29Z</time>
      </trkpt>
      <trkpt lat="46.56671" lon="6.08672">
        <ele>1099.4</ele>
        <time>2013-05-09T12:29:39Z</time>
      </trkpt>
      <trkpt lat="46.56681" lon="6.08694">
        <ele>1099.4</ele>
        <time>2013-05-09T12:29:43Z</time>
      </trkpt>
      <trkpt lat="46.56683" lon="6.08699">
        <ele>1099.4</ele>
        <time>2013-05-09T12:29:44Z</time>
      </trkpt>
      <trkpt lat="46.56686" lon="6.08704">
        <ele>1099.4</ele>
        <time>2013-05-09T12:29:45Z</time>
      </trkpt>
      <trkpt lat="46.56688" lon="6.08708">
        <ele>1099.4</ele>
        <time>2013-05-09T12:29:46Z</time>
      </trkpt>
      <trkpt lat="46.5669" lon="6.08713">
        <ele>1099.4</ele>
        <time>2013-05-09T12:29:47Z</time>
      </trkpt>
      <trkpt lat="46.56691" lon="6.08718">
        <ele>1099.89</ele>
        <time>2013-05-09T12:29:48Z</time>
      </trkpt>
      <trkpt lat="46.56713" lon="6.08786">
        <ele>1101.33</ele>
        <time>2013-05-09T12:30:02Z</time>
      </trkpt>
      <trkpt lat="46.56734" lon="6.08841">
        <ele>1103.25</ele>
        <time>2013-05-09T12:30:15Z</time>
      </trkpt>
      <trkpt lat="46.56752" lon="6.08892">
        <ele>1104.69</ele>
        <time>2013-05-09T12:30:28Z</time>
      </trkpt>
      <trkpt lat="46.56784" lon="6.0893">
        <ele>1106.13</ele>
        <time>2013-05-09T12:30:43Z</time>
      </trkpt>
      <trkpt lat="46.56786" lon="6.08932">
        <ele>1106.13</ele>
        <time>2013-05-09T12:30:44Z</time>
      </trkpt>
      <trkpt lat="46.56789" lon="6.08935">
        <ele>1106.13</ele>
        <time>2013-05-09T12:30:45Z</time>
      </trkpt>
      <trkpt lat="46.5679" lon="6.08937">
        <ele>1106.61</ele>
        <time>2013-05-09T12:30:46Z</time>
      </trkpt>
      <trkpt lat="46.56792" lon="6.0894">
        <ele>1106.13</ele>
        <time>2013-05-09T12:30:47Z</time>
      </trkpt>
      <trkpt lat="46.56794" lon="6.08943">
        <ele>1104.21</ele>
        <time>2013-05-09T12:30:48Z</time>
      </trkpt>
      <trkpt lat="46.56797" lon="6.08949">
        <ele>1108.06</ele>
        <time>2013-05-09T12:30:50Z</time>
      </trkpt>
      <trkpt lat="46.56808" lon="6.08981">
        <ele>1106.61</ele>
        <time>2013-05-09T12:30:59Z</time>
      </trkpt>
      <trkpt lat="46.56828" lon="6.09039">
        <ele>1107.1</ele>
        <time>2013-05-09T12:31:13Z</time>
      </trkpt>
      <trkpt lat="46.56848" lon="6.09087">
        <ele>1107.58</ele>
        <time>2013-05-09T12:31:25Z</time>
      </trkpt>
      <trkpt lat="46.56874" lon="6.09138">
        <ele>1106.13</ele>
        <time>2013-05-09T12:31:37Z</time>
      </trkpt>
      <trkpt lat="46.56878" lon="6.09144">
        <ele>1105.65</ele>
        <time>2013-05-09T12:31:38Z</time>
      </trkpt>
      <trkpt lat="46.56897" lon="6.0917">
        <ele>1104.21</ele>
        <time>2013-05-09T12:31:42Z</time>
      </trkpt>
      <trkpt lat="46.56911" lon="6.09187">
        <ele>1103.73</ele>
        <time>2013-05-09T12:31:45Z</time>
      </trkpt>
      <trkpt lat="46.56916" lon="6.09192">
        <ele>1103.73</ele>
        <time>2013-05-09T12:31:46Z</time>
      </trkpt>
      <trkpt lat="46.56926" lon="6.09198">
        <ele>1104.21</ele>
        <time>2013-05-09T12:31:48Z</time>
      </trkpt>
      <trkpt lat="46.56935" lon="6.09203">
        <ele>1104.21</ele>
        <time>2013-05-09T12:31:50Z</time>
      </trkpt>
      <trkpt lat="46.56974" lon="6.09219">
        <ele>1104.69</ele>
        <time>2013-05-09T12:32:01Z</time>
      </trkpt>
      <trkpt lat="46.57" lon="6.09235">
        <ele>1102.77</ele>
        <time>2013-05-09T12:32:07Z</time>
      </trkpt>
      <trkpt lat="46.57016" lon="6.09249">
        <ele>1101.81</ele>
        <time>2013-05-09T12:32:10Z</time>
      </trkpt>
      <trkpt lat="46.57045" lon="6.09293">
        <ele>1099.89</ele>
        <time>2013-05-09T12:32:16Z</time>
      </trkpt>
      <trkpt lat="46.57086" lon="6.09341">
        <ele>1100.85</ele>
        <time>2013-05-09T12:32:27Z</time>
      </trkpt>
      <trkpt lat="46.57131" lon="6.09399">
        <ele>1103.73</ele>
        <time>2013-05-09T12:32:43Z</time>
      </trkpt>
      <trkpt lat="46.5717" lon="6.09439">
        <ele>1105.65</ele>
        <time>2013-05-09T12:32:57Z</time>
      </trkpt>
      <trkpt lat="46.5718" lon="6.09448">
        <ele>1107.58</ele>
        <time>2013-05-09T12:33:02Z</time>
      </trkpt>
      <trkpt lat="46.57201" lon="6.09472">
        <ele>1110.94</ele>
        <time>2013-05-09T12:33:14Z</time>
      </trkpt>
      <trkpt lat="46.57217" lon="6.09513">
        <ele>1113.82</ele>
        <time>2013-05-09T12:33:27Z</time>
      </trkpt>
      <trkpt lat="46.57228" lon="6.0955">
        <ele>1114.31</ele>
        <time>2013-05-09T12:33:38Z</time>
      </trkpt>
      <trkpt lat="46.57248" lon="6.09587">
        <ele>1116.23</ele>
        <time>2013-05-09T12:33:53Z</time>
      </trkpt>
      <trkpt lat="46.57267" lon="6.09631">
        <ele>1117.19</ele>
        <time>2013-05-09T12:34:07Z</time>
      </trkpt>
      <trkpt lat="46.57283" lon="6.09676">
        <ele>1117.67</ele>
        <time>2013-05-09T12:34:19Z</time>
      </trkpt>
      <trkpt lat="46.57296" lon="6.0972">
        <ele>1119.11</ele>
        <time>2013-05-09T12:34:31Z</time>
      </trkpt>
      <trkpt lat="46.57321" lon="6.09748">
        <ele>1119.11</ele>
        <time>2013-05-09T12:34:42Z</time>
      </trkpt>
      <trkpt lat="46.57359" lon="6.09757">
        <ele>1120.07</ele>
        <time>2013-05-09T12:34:54Z</time>
      </trkpt>
      <trkpt lat="46.57406" lon="6.09773">
        <ele>1122.48</ele>
        <time>2013-05-09T12:35:10Z</time>
      </trkpt>
      <trkpt lat="46.57461" lon="6.098">
        <ele>1125.84</ele>
        <time>2013-05-09T12:35:28Z</time>
      </trkpt>
      <trkpt lat="46.57477" lon="6.09829">
        <ele>1127.28</ele>
        <time>2013-05-09T12:35:40Z</time>
      </trkpt>
      <trkpt lat="46.57476" lon="6.09881">
        <ele>1127.76</ele>
        <time>2013-05-09T12:35:52Z</time>
      </trkpt>
      <trkpt lat="46.57487" lon="6.0994">
        <ele>1129.21</ele>
        <time>2013-05-09T12:36:06Z</time>
      </trkpt>
      <trkpt lat="46.57499" lon="6.09985">
        <ele>1130.65</ele>
        <time>2013-05-09T12:36:18Z</time>
      </trkpt>
      <trkpt lat="46.57514" lon="6.10039">
        <ele>1132.57</ele>
        <time>2013-05-09T12:36:33Z</time>
      </trkpt>
      <trkpt lat="46.57517" lon="6.10069">
        <ele>1134.01</ele>
        <time>2013-05-09T12:36:40Z</time>
      </trkpt>
      <trkpt lat="46.57508" lon="6.10121">
        <ele>1135.45</ele>
        <time>2013-05-09T12:36:52Z</time>
      </trkpt>
      <trkpt lat="46.57525" lon="6.1018">
        <ele>1137.38</ele>
        <time>2013-05-09T12:37:06Z</time>
      </trkpt>
      <trkpt lat="46.57533" lon="6.10241">
        <ele>1135.94</ele>
        <time>2013-05-09T12:37:18Z</time>
      </trkpt>
      <trkpt lat="46.57536" lon="6.10249">
        <ele>1135.45</ele>
        <time>2013-05-09T12:37:19Z</time>
      </trkpt>
      <trkpt lat="46.57539" lon="6.10257">
        <ele>1134.97</ele>
        <time>2013-05-09T12:37:20Z</time>
      </trkpt>
      <trkpt lat="46.57547" lon="6.1027">
        <ele>1134.49</ele>
        <time>2013-05-09T12:37:22Z</time>
      </trkpt>
      <trkpt lat="46.57552" lon="6.10277">
        <ele>1134.01</ele>
        <time>2013-05-09T12:37:23Z</time>
      </trkpt>
      <trkpt lat="46.57558" lon="6.10282">
        <ele>1133.53</ele>
        <time>2013-05-09T12:37:24Z</time>
      </trkpt>
      <trkpt lat="46.57592" lon="6.10308">
        <ele>1133.53</ele>
        <time>2013-05-09T12:37:30Z</time>
      </trkpt>
      <trkpt lat="46.57597" lon="6.10311">
        <ele>1134.01</ele>
        <time>2013-05-09T12:37:31Z</time>
      </trkpt>
      <trkpt lat="46.57628" lon="6.10333">
        <ele>1137.38</ele>
        <time>2013-05-09T12:37:40Z</time>
      </trkpt>
      <trkpt lat="46.57665" lon="6.10376">
        <ele>1139.78</ele>
        <time>2013-05-09T12:37:53Z</time>
      </trkpt>
      <trkpt lat="46.57684" lon="6.10403">
        <ele>1141.22</ele>
        <time>2013-05-09T12:38:04Z</time>
      </trkpt>
      <trkpt lat="46.57685" lon="6.10405">
        <ele>1141.7</ele>
        <time>2013-05-09T12:38:05Z</time>
      </trkpt>
      <trkpt lat="46.57686" lon="6.10407">
        <ele>1141.22</ele>
        <time>2013-05-09T12:38:06Z</time>
      </trkpt>
      <trkpt lat="46.57688" lon="6.10409">
        <ele>1141.22</ele>
        <time>2013-05-09T12:38:07Z</time>
      </trkpt>
      <trkpt lat="46.5769" lon="6.10412">
        <ele>1140.74</ele>
        <time>2013-05-09T12:38:08Z</time>
      </trkpt>
      <trkpt lat="46.57723" lon="6.10466">
        <ele>1139.3</ele>
        <time>2013-05-09T12:38:21Z</time>
      </trkpt>
      <trkpt lat="46.57726" lon="6.1047">
        <ele>1138.82</ele>
        <time>2013-05-09T12:38:22Z</time>
      </trkpt>
      <trkpt lat="46.57732" lon="6.10479">
        <ele>1139.3</ele>
        <time>2013-05-09T12:38:24Z</time>
      </trkpt>
      <trkpt lat="46.57743" lon="6.10496">
        <ele>1138.82</ele>
        <time>2013-05-09T12:38:28Z</time>
      </trkpt>
      <trkpt lat="46.57746" lon="6.105">
        <ele>1138.82</ele>
        <time>2013-05-09T12:38:29Z</time>
      </trkpt>
      <trkpt lat="46.57749" lon="6.10504">
        <ele>1138.82</ele>
        <time>2013-05-09T12:38:30Z</time>
      </trkpt>
      <trkpt lat="46.57752" lon="6.10508">
        <ele>1138.34</ele>
        <time>2013-05-09T12:38:31Z</time>
      </trkpt>
      <trkpt lat="46.57756" lon="6.10513">
        <ele>1137.86</ele>
        <time>2013-05-09T12:38:32Z</time>
      </trkpt>
      <trkpt lat="46.57759" lon="6.10517">
        <ele>1137.86</ele>
        <time>2013-05-09T12:38:33Z</time>
      </trkpt>
      <trkpt lat="46.57762" lon="6.10521">
        <ele>1137.86</ele>
        <time>2013-05-09T12:38:34Z</time>
      </trkpt>
      <trkpt lat="46.57784" lon="6.10552">
        <ele>1136.9</ele>
        <time>2013-05-09T12:38:41Z</time>
      </trkpt>
      <trkpt lat="46.57788" lon="6.10556">
        <ele>1136.9</ele>
        <time>2013-05-09T12:38:42Z</time>
      </trkpt>
      <trkpt lat="46.57793" lon="6.10559">
        <ele>1136.42</ele>
        <time>2013-05-09T12:38:43Z</time>
      </trkpt>
      <trkpt lat="46.57834" lon="6.10573">
        <ele>1133.05</ele>
        <time>2013-05-09T12:38:50Z</time>
      </trkpt>
      <trkpt lat="46.57846" lon="6.10575">
        <ele>1132.09</ele>
        <time>2013-05-09T12:38:52Z</time>
      </trkpt>
      <trkpt lat="46.57852" lon="6.10575">
        <ele>1131.13</ele>
        <time>2013-05-09T12:38:53Z</time>
      </trkpt>
      <trkpt lat="46.57869" lon="6.10571">
        <ele>1131.13</ele>
        <time>2013-05-09T12:38:58Z</time>
      </trkpt>
      <trkpt lat="46.5787" lon="6.10572">
        <ele>1131.13</ele>
        <time>2013-05-09T12:38:59Z</time>
      </trkpt>
      <trkpt lat="46.57872" lon="6.10573">
        <ele>1131.13</ele>
        <time>2013-05-09T12:39:14Z</time>
      </trkpt>
      <trkpt lat="46.57871" lon="6.10575">
        <ele>1130.65</ele>
        <time>2013-05-09T12:39:41Z</time>
      </trkpt>
      <trkpt lat="46.5787" lon="6.10576">
        <ele>1130.65</ele>
        <time>2013-05-09T12:39:42Z</time>
      </trkpt>
      <trkpt lat="46.57868" lon="6.10578">
        <ele>1130.65</ele>
        <time>2013-05-09T12:39:43Z</time>
      </trkpt>
      <trkpt lat="46.57867" lon="6.10579">
        <ele>1130.65</ele>
        <time>2013-05-09T12:39:58Z</time>
      </trkpt>
      <trkpt lat="46.57868" lon="6.10585">
        <ele>1130.65</ele>
        <time>2013-05-09T12:40:19Z</time>
      </trkpt>
      <trkpt lat="46.57869" lon="6.10586">
        <ele>1130.65</ele>
        <time>2013-05-09T12:40:20Z</time>
      </trkpt>
      <trkpt lat="46.5787" lon="6.10588">
        <ele>1130.65</ele>
        <time>2013-05-09T12:40:21Z</time>
      </trkpt>
      <trkpt lat="46.57871" lon="6.10589">
        <ele>1130.65</ele>
        <time>2013-05-09T12:40:22Z</time>
      </trkpt>
      <trkpt lat="46.57873" lon="6.1059">
        <ele>1130.65</ele>
        <time>2013-05-09T12:40:23Z</time>
      </trkpt>
      <trkpt lat="46.57888" lon="6.1061">
        <ele>1132.57</ele>
        <time>2013-05-09T12:40:34Z</time>
      </trkpt>
      <trkpt lat="46.57913" lon="6.10622">
        <ele>1134.97</ele>
        <time>2013-05-09T12:40:49Z</time>
      </trkpt>
      <trkpt lat="46.57931" lon="6.10645">
        <ele>1137.38</ele>
        <time>2013-05-09T12:41:03Z</time>
      </trkpt>
      <trkpt lat="46.57937" lon="6.1065">
        <ele>1138.34</ele>
        <time>2013-05-09T12:41:07Z</time>
      </trkpt>
      <trkpt lat="46.57938" lon="6.10651">
        <ele>1138.34</ele>
        <time>2013-05-09T12:41:08Z</time>
      </trkpt>
      <trkpt lat="46.5794" lon="6.10651">
        <ele>1138.82</ele>
        <time>2013-05-09T12:41:09Z</time>
      </trkpt>
      <trkpt lat="46.57942" lon="6.10651">
        <ele>1138.82</ele>
        <time>2013-05-09T12:41:10Z</time>
      </trkpt>
      <trkpt lat="46.57944" lon="6.10651">
        <ele>1138.82</ele>
        <time>2013-05-09T12:41:11Z</time>
      </trkpt>
      <trkpt lat="46.57945" lon="6.10651">
        <ele>1139.3</ele>
        <time>2013-05-09T12:41:12Z</time>
      </trkpt>
      <trkpt lat="46.57948" lon="6.10651">
        <ele>1139.3</ele>
        <time>2013-05-09T12:41:14Z</time>
      </trkpt>
      <trkpt lat="46.57949" lon="6.10653">
        <ele>1139.3</ele>
        <time>2013-05-09T12:41:15Z</time>
      </trkpt>
      <trkpt lat="46.57948" lon="6.10657">
        <ele>1139.3</ele>
        <time>2013-05-09T12:41:17Z</time>
      </trkpt>
      <trkpt lat="46.57945" lon="6.10662">
        <ele>1139.3</ele>
        <time>2013-05-09T12:41:21Z</time>
      </trkpt>
      <trkpt lat="46.57944" lon="6.10673">
        <ele>1140.26</ele>
        <time>2013-05-09T12:41:26Z</time>
      </trkpt>
      <trkpt lat="46.57962" lon="6.10701">
        <ele>1140.26</ele>
        <time>2013-05-09T12:41:39Z</time>
      </trkpt>
      <trkpt lat="46.57965" lon="6.10702">
        <ele>1140.26</ele>
        <time>2013-05-09T12:41:40Z</time>
      </trkpt>
      <trkpt lat="46.57972" lon="6.10704">
        <ele>1141.7</ele>
        <time>2013-05-09T12:41:51Z</time>
      </trkpt>
      <trkpt lat="46.57977" lon="6.10708">
        <ele>1142.18</ele>
        <time>2013-05-09T12:41:56Z</time>
      </trkpt>
      <trkpt lat="46.5799" lon="6.10722">
        <ele>1142.66</ele>
        <time>2013-05-09T12:42:05Z</time>
      </trkpt>
      <trkpt lat="46.58005" lon="6.10739">
        <ele>1142.18</ele>
        <time>2013-05-09T12:42:15Z</time>
      </trkpt>
      <trkpt lat="46.58007" lon="6.10741">
        <ele>1142.18</ele>
        <time>2013-05-09T12:42:17Z</time>
      </trkpt>
      <trkpt lat="46.58008" lon="6.10756">
        <ele>1143.14</ele>
        <time>2013-05-09T12:42:24Z</time>
      </trkpt>
      <trkpt lat="46.58018" lon="6.10769">
        <ele>1145.07</ele>
        <time>2013-05-09T12:42:36Z</time>
      </trkpt>
      <trkpt lat="46.58029" lon="6.1078">
        <ele>1146.51</ele>
        <time>2013-05-09T12:42:48Z</time>
      </trkpt>
      <trkpt lat="46.58044" lon="6.10789">
        <ele>1148.43</ele>
        <time>2013-05-09T12:43:00Z</time>
      </trkpt>
      <trkpt lat="46.58047" lon="6.10793">
        <ele>1148.43</ele>
        <time>2013-05-09T12:43:03Z</time>
      </trkpt>
      <trkpt lat="46.58048" lon="6.10797">
        <ele>1148.43</ele>
        <time>2013-05-09T12:43:05Z</time>
      </trkpt>
      <trkpt lat="46.58051" lon="6.108">
        <ele>1148.43</ele>
        <time>2013-05-09T12:43:09Z</time>
      </trkpt>
      <trkpt lat="46.58055" lon="6.10807">
        <ele>1148.43</ele>
        <time>2013-05-09T12:43:12Z</time>
      </trkpt>
      <trkpt lat="46.58062" lon="6.10823">
        <ele>1147.95</ele>
        <time>2013-05-09T12:43:19Z</time>
      </trkpt>
      <trkpt lat="46.58067" lon="6.10838">
        <ele>1148.43</ele>
        <time>2013-05-09T12:43:26Z</time>
      </trkpt>
      <trkpt lat="46.58069" lon="6.10844">
        <ele>1148.43</ele>
        <time>2013-05-09T12:43:29Z</time>
      </trkpt>
      <trkpt lat="46.58083" lon="6.10866">
        <ele>1148.43</ele>
        <time>2013-05-09T12:43:40Z</time>
      </trkpt>
      <trkpt lat="46.58085" lon="6.10868">
        <ele>1148.43</ele>
        <time>2013-05-09T12:43:42Z</time>
      </trkpt>
      <trkpt lat="46.58087" lon="6.10871">
        <ele>1148.43</ele>
        <time>2013-05-09T12:43:44Z</time>
      </trkpt>
      <trkpt lat="46.5809" lon="6.1088">
        <ele>1148.91</ele>
        <time>2013-05-09T12:43:49Z</time>
      </trkpt>
      <trkpt lat="46.58094" lon="6.10892">
        <ele>1149.39</ele>
        <time>2013-05-09T12:44:04Z</time>
      </trkpt>
      <trkpt lat="46.58094" lon="6.10893">
        <ele>1149.87</ele>
        <time>2013-05-09T12:44:38Z</time>
      </trkpt>
      <trkpt lat="46.58094" lon="6.10893">
        <ele>1149.87</ele>
        <time>2013-05-09T12:45:03Z</time>
      </trkpt>
      <trkpt lat="46.58097" lon="6.10899">
        <ele>1149.39</ele>
        <time>2013-05-09T12:45:15Z</time>
      </trkpt>
      <trkpt lat="46.58097" lon="6.10899">
        <ele>1149.39</ele>
        <time>2013-05-09T12:45:42Z</time>
      </trkpt>
      <trkpt lat="46.58096" lon="6.10899">
        <ele>1149.87</ele>
        <time>2013-05-09T12:46:07Z</time>
      </trkpt>
      <trkpt lat="46.58096" lon="6.109">
        <ele>1149.87</ele>
        <time>2013-05-09T12:46:25Z</time>
      </trkpt>
      <trkpt lat="46.58097" lon="6.10901">
        <ele>1150.35</ele>
        <time>2013-05-09T12:46:51Z</time>
      </trkpt>
      <trkpt lat="46.58097" lon="6.10901">
        <ele>1150.35</ele>
        <time>2013-05-09T12:46:57Z</time>
      </trkpt>
      <trkpt lat="46.58093" lon="6.10898">
        <ele>1150.35</ele>
        <time>2013-05-09T12:47:10Z</time>
      </trkpt>
      <trkpt lat="46.58093" lon="6.10898">
        <ele>1150.35</ele>
        <time>2013-05-09T12:47:16Z</time>
      </trkpt>
      <trkpt lat="46.58092" lon="6.1089">
        <ele>1149.87</ele>
        <time>2013-05-09T12:47:20Z</time>
      </trkpt>
      <trkpt lat="46.58093" lon="6.10881">
        <ele>1149.39</ele>
        <time>2013-05-09T12:47:24Z</time>
      </trkpt>
      <trkpt lat="46.58088" lon="6.10875">
        <ele>1149.39</ele>
        <time>2013-05-09T12:47:27Z</time>
      </trkpt>
      <trkpt lat="46.58079" lon="6.10858">
        <ele>1148.91</ele>
        <time>2013-05-09T12:47:37Z</time>
      </trkpt>
      <trkpt lat="46.58075" lon="6.10845">
        <ele>1149.39</ele>
        <time>2013-05-09T12:47:43Z</time>
      </trkpt>
      <trkpt lat="46.58063" lon="6.10826">
        <ele>1148.43</ele>
        <time>2013-05-09T12:47:55Z</time>
      </trkpt>
      <trkpt lat="46.58055" lon="6.10817">
        <ele>1148.43</ele>
        <time>2013-05-09T12:48:05Z</time>
      </trkpt>
      <trkpt lat="46.58049" lon="6.1081">
        <ele>1147.95</ele>
        <time>2013-05-09T12:48:14Z</time>
      </trkpt>
      <trkpt lat="46.58043" lon="6.10799">
        <ele>1146.51</ele>
        <time>2013-05-09T12:48:23Z</time>
      </trkpt>
      <trkpt lat="46.58034" lon="6.10782">
        <ele>1144.11</ele>
        <time>2013-05-09T12:48:31Z</time>
      </trkpt>
      <trkpt lat="46.58035" lon="6.10767">
        <ele>1143.14</ele>
        <time>2013-05-09T12:48:35Z</time>
      </trkpt>
      <trkpt lat="46.58033" lon="6.10763">
        <ele>1143.14</ele>
        <time>2013-05-09T12:48:37Z</time>
      </trkpt>
      <trkpt lat="46.58031" lon="6.1076">
        <ele>1143.14</ele>
        <time>2013-05-09T12:48:39Z</time>
      </trkpt>
      <trkpt lat="46.5801" lon="6.1074">
        <ele>1143.63</ele>
        <time>2013-05-09T12:48:49Z</time>
      </trkpt>
      <trkpt lat="46.57995" lon="6.10722">
        <ele>1143.63</ele>
        <time>2013-05-09T12:48:57Z</time>
      </trkpt>
      <trkpt lat="46.57984" lon="6.10714">
        <ele>1142.66</ele>
        <time>2013-05-09T12:49:01Z</time>
      </trkpt>
      <trkpt lat="46.5797" lon="6.10705">
        <ele>1142.18</ele>
        <time>2013-05-09T12:49:06Z</time>
      </trkpt>
      <trkpt lat="46.57967" lon="6.10705">
        <ele>1142.18</ele>
        <time>2013-05-09T12:49:08Z</time>
      </trkpt>
      <trkpt lat="46.57952" lon="6.10684">
        <ele>1141.22</ele>
        <time>2013-05-09T12:49:17Z</time>
      </trkpt>
      <trkpt lat="46.57947" lon="6.1066">
        <ele>1140.26</ele>
        <time>2013-05-09T12:49:26Z</time>
      </trkpt>
      <trkpt lat="46.57931" lon="6.10643">
        <ele>1138.82</ele>
        <time>2013-05-09T12:49:33Z</time>
      </trkpt>
      <trkpt lat="46.57928" lon="6.10638">
        <ele>1138.34</ele>
        <time>2013-05-09T12:49:34Z</time>
      </trkpt>
      <trkpt lat="46.57921" lon="6.10629">
        <ele>1137.86</ele>
        <time>2013-05-09T12:49:36Z</time>
      </trkpt>
      <trkpt lat="46.57918" lon="6.10625">
        <ele>1137.38</ele>
        <time>2013-05-09T12:49:37Z</time>
      </trkpt>
      <trkpt lat="46.57914" lon="6.10623">
        <ele>1136.9</ele>
        <time>2013-05-09T12:49:38Z</time>
      </trkpt>
      <trkpt lat="46.5791" lon="6.10623">
        <ele>1136.42</ele>
        <time>2013-05-09T12:49:39Z</time>
      </trkpt>
      <trkpt lat="46.57907" lon="6.10623">
        <ele>1135.94</ele>
        <time>2013-05-09T12:49:40Z</time>
      </trkpt>
      <trkpt lat="46.57903" lon="6.10621">
        <ele>1135.45</ele>
        <time>2013-05-09T12:49:41Z</time>
      </trkpt>
      <trkpt lat="46.579" lon="6.10619">
        <ele>1134.97</ele>
        <time>2013-05-09T12:49:42Z</time>
      </trkpt>
      <trkpt lat="46.57896" lon="6.10615">
        <ele>1134.49</ele>
        <time>2013-05-09T12:49:43Z</time>
      </trkpt>
      <trkpt lat="46.57888" lon="6.10604">
        <ele>1133.53</ele>
        <time>2013-05-09T12:49:46Z</time>
      </trkpt>
      <trkpt lat="46.57867" lon="6.10579">
        <ele>1131.61</ele>
        <time>2013-05-09T12:49:54Z</time>
      </trkpt>
      <trkpt lat="46.57867" lon="6.10576">
        <ele>1131.61</ele>
        <time>2013-05-09T12:49:55Z</time>
      </trkpt>
      <trkpt lat="46.57867" lon="6.10574">
        <ele>1131.61</ele>
        <time>2013-05-09T12:49:56Z</time>
      </trkpt>
      <trkpt lat="46.57869" lon="6.10572">
        <ele>1131.61</ele>
        <time>2013-05-09T12:49:57Z</time>
      </trkpt>
      <trkpt lat="46.57871" lon="6.10571">
        <ele>1131.61</ele>
        <time>2013-05-09T12:49:58Z</time>
      </trkpt>
      <trkpt lat="46.57902" lon="6.10556">
        <ele>1130.65</ele>
        <time>2013-05-09T12:50:09Z</time>
      </trkpt>
      <trkpt lat="46.57925" lon="6.10548">
        <ele>1129.69</ele>
        <time>2013-05-09T12:50:25Z</time>
      </trkpt>
      <trkpt lat="46.57925" lon="6.10548">
        <ele>1130.17</ele>
        <time>2013-05-09T12:50:52Z</time>
      </trkpt>
      <trkpt lat="46.57925" lon="6.10548">
        <ele>1129.69</ele>
        <time>2013-05-09T12:51:19Z</time>
      </trkpt>
      <trkpt lat="46.57925" lon="6.10549">
        <ele>1130.17</ele>
        <time>2013-05-09T12:51:35Z</time>
      </trkpt>
      <trkpt lat="46.57925" lon="6.10549">
        <ele>1129.69</ele>
        <time>2013-05-09T12:51:57Z</time>
      </trkpt>
      <trkpt lat="46.57926" lon="6.10549">
        <ele>1129.69</ele>
        <time>2013-05-09T12:52:22Z</time>
      </trkpt>
      <trkpt lat="46.57935" lon="6.10548">
        <ele>1129.21</ele>
        <time>2013-05-09T12:52:28Z</time>
      </trkpt>
      <trkpt lat="46.57939" lon="6.10549">
        <ele>1129.21</ele>
        <time>2013-05-09T12:52:29Z</time>
      </trkpt>
      <trkpt lat="46.57984" lon="6.10546">
        <ele>1126.32</ele>
        <time>2013-05-09T12:52:38Z</time>
      </trkpt>
      <trkpt lat="46.58007" lon="6.10549">
        <ele>1124.4</ele>
        <time>2013-05-09T12:52:41Z</time>
      </trkpt>
      <trkpt lat="46.5805" lon="6.1056">
        <ele>1123.44</ele>
        <time>2013-05-09T12:52:47Z</time>
      </trkpt>
      <trkpt lat="46.58056" lon="6.10564">
        <ele>1123.44</ele>
        <time>2013-05-09T12:52:48Z</time>
      </trkpt>
      <trkpt lat="46.58062" lon="6.10569">
        <ele>1123.44</ele>
        <time>2013-05-09T12:52:49Z</time>
      </trkpt>
      <trkpt lat="46.58125" lon="6.10638">
        <ele>1125.36</ele>
        <time>2013-05-09T12:53:00Z</time>
      </trkpt>
      <trkpt lat="46.58166" lon="6.10685">
        <ele>1128.73</ele>
        <time>2013-05-09T12:53:12Z</time>
      </trkpt>
      <trkpt lat="46.58174" lon="6.10694">
        <ele>1129.21</ele>
        <time>2013-05-09T12:53:15Z</time>
      </trkpt>
      <trkpt lat="46.58176" lon="6.10698">
        <ele>1129.69</ele>
        <time>2013-05-09T12:53:16Z</time>
      </trkpt>
      <trkpt lat="46.58179" lon="6.10701">
        <ele>1129.69</ele>
        <time>2013-05-09T12:53:17Z</time>
      </trkpt>
      <trkpt lat="46.58222" lon="6.10735">
        <ele>1129.21</ele>
        <time>2013-05-09T12:53:29Z</time>
      </trkpt>
      <trkpt lat="46.58239" lon="6.10744">
        <ele>1128.73</ele>
        <time>2013-05-09T12:53:32Z</time>
      </trkpt>
      <trkpt lat="46.58246" lon="6.10746">
        <ele>1128.24</ele>
        <time>2013-05-09T12:53:33Z</time>
      </trkpt>
      <trkpt lat="46.58253" lon="6.10746">
        <ele>1127.76</ele>
        <time>2013-05-09T12:53:34Z</time>
      </trkpt>
      <trkpt lat="46.58261" lon="6.10746">
        <ele>1127.28</ele>
        <time>2013-05-09T12:53:35Z</time>
      </trkpt>
      <trkpt lat="46.58268" lon="6.10744">
        <ele>1126.8</ele>
        <time>2013-05-09T12:53:36Z</time>
      </trkpt>
      <trkpt lat="46.5836" lon="6.10691">
        <ele>1125.84</ele>
        <time>2013-05-09T12:53:49Z</time>
      </trkpt>
      <trkpt lat="46.58393" lon="6.10639">
        <ele>1126.8</ele>
        <time>2013-05-09T12:53:56Z</time>
      </trkpt>
      <trkpt lat="46.58395" lon="6.10631">
        <ele>1126.8</ele>
        <time>2013-05-09T12:53:57Z</time>
      </trkpt>
      <trkpt lat="46.58419" lon="6.10518">
        <ele>1125.84</ele>
        <time>2013-05-09T12:54:10Z</time>
      </trkpt>
      <trkpt lat="46.58422" lon="6.10467">
        <ele>1124.88</ele>
        <time>2013-05-09T12:54:19Z</time>
      </trkpt>
      <trkpt lat="46.58421" lon="6.10467">
        <ele>1124.88</ele>
        <time>2013-05-09T12:54:20Z</time>
      </trkpt>
      <trkpt lat="46.5842" lon="6.10468">
        <ele>1124.88</ele>
        <time>2013-05-09T12:54:21Z</time>
      </trkpt>
      <trkpt lat="46.5842" lon="6.10472">
        <ele>1125.36</ele>
        <time>2013-05-09T12:54:23Z</time>
      </trkpt>
      <trkpt lat="46.58421" lon="6.10474">
        <ele>1124.88</ele>
        <time>2013-05-09T12:54:24Z</time>
      </trkpt>
      <trkpt lat="46.58421" lon="6.10476">
        <ele>1125.36</ele>
        <time>2013-05-09T12:54:25Z</time>
      </trkpt>
      <trkpt lat="46.58421" lon="6.10483">
        <ele>1125.36</ele>
        <time>2013-05-09T12:54:39Z</time>
      </trkpt>
      <trkpt lat="46.58421" lon="6.10483">
        <ele>1125.36</ele>
        <time>2013-05-09T12:55:09Z</time>
      </trkpt>
      <trkpt lat="46.58421" lon="6.10483">
        <ele>1125.36</ele>
        <time>2013-05-09T12:55:37Z</time>
      </trkpt>
      <trkpt lat="46.58422" lon="6.1048">
        <ele>1125.36</ele>
        <time>2013-05-09T12:55:39Z</time>
      </trkpt>
      <trkpt lat="46.58422" lon="6.10478">
        <ele>1125.36</ele>
        <time>2013-05-09T12:55:40Z</time>
      </trkpt>
      <trkpt lat="46.58422" lon="6.10475">
        <ele>1125.36</ele>
        <time>2013-05-09T12:55:41Z</time>
      </trkpt>
      <trkpt lat="46.58428" lon="6.1043">
        <ele>1124.4</ele>
        <time>2013-05-09T12:55:49Z</time>
      </trkpt>
      <trkpt lat="46.5843" lon="6.10424">
        <ele>1123.92</ele>
        <time>2013-05-09T12:55:50Z</time>
      </trkpt>
      <trkpt lat="46.58432" lon="6.10418">
        <ele>1123.92</ele>
        <time>2013-05-09T12:55:51Z</time>
      </trkpt>
      <trkpt lat="46.58435" lon="6.10412">
        <ele>1123.92</ele>
        <time>2013-05-09T12:55:52Z</time>
      </trkpt>
      <trkpt lat="46.58438" lon="6.10407">
        <ele>1123.92</ele>
        <time>2013-05-09T12:55:53Z</time>
      </trkpt>
      <trkpt lat="46.58441" lon="6.10403">
        <ele>1123.92</ele>
        <time>2013-05-09T12:55:54Z</time>
      </trkpt>
      <trkpt lat="46.58445" lon="6.10399">
        <ele>1123.92</ele>
        <time>2013-05-09T12:55:55Z</time>
      </trkpt>
      <trkpt lat="46.58448" lon="6.10395">
        <ele>1123.92</ele>
        <time>2013-05-09T12:55:56Z</time>
      </trkpt>
      <trkpt lat="46.58452" lon="6.10392">
        <ele>1123.92</ele>
        <time>2013-05-09T12:55:57Z</time>
      </trkpt>
      <trkpt lat="46.58479" lon="6.10374">
        <ele>1123.92</ele>
        <time>2013-05-09T12:56:04Z</time>
      </trkpt>
      <trkpt lat="46.58482" lon="6.10371">
        <ele>1123.92</ele>
        <time>2013-05-09T12:56:05Z</time>
      </trkpt>
      <trkpt lat="46.58487" lon="6.10369">
        <ele>1123.92</ele>
        <time>2013-05-09T12:56:06Z</time>
      </trkpt>
      <trkpt lat="46.58495" lon="6.10362">
        <ele>1122.96</ele>
        <time>2013-05-09T12:56:08Z</time>
      </trkpt>
      <trkpt lat="46.58541" lon="6.103">
        <ele>1119.59</ele>
        <time>2013-05-09T12:56:19Z</time>
      </trkpt>
      <trkpt lat="46.5859" lon="6.10211">
        <ele>1116.71</ele>
        <time>2013-05-09T12:56:30Z</time>
      </trkpt>
      <trkpt lat="46.58621" lon="6.10166">
        <ele>1114.31</ele>
        <time>2013-05-09T12:56:40Z</time>
      </trkpt>
      <trkpt lat="46.58622" lon="6.10165">
        <ele>1114.31</ele>
        <time>2013-05-09T12:56:51Z</time>
      </trkpt>
      <trkpt lat="46.58622" lon="6.10165">
        <ele>1114.31</ele>
        <time>2013-05-09T12:57:20Z</time>
      </trkpt>
      <trkpt lat="46.58623" lon="6.10165">
        <ele>1114.79</ele>
        <time>2013-05-09T12:57:43Z</time>
      </trkpt>
      <trkpt lat="46.58624" lon="6.10167">
        <ele>1114.31</ele>
        <time>2013-05-09T12:57:44Z</time>
      </trkpt>
      <trkpt lat="46.58625" lon="6.10168">
        <ele>1114.31</ele>
        <time>2013-05-09T12:57:45Z</time>
      </trkpt>
      <trkpt lat="46.58627" lon="6.1017">
        <ele>1114.31</ele>
        <time>2013-05-09T12:57:46Z</time>
      </trkpt>
      <trkpt lat="46.58629" lon="6.10172">
        <ele>1114.31</ele>
        <time>2013-05-09T12:57:47Z</time>
      </trkpt>
      <trkpt lat="46.58649" lon="6.10221">
        <ele>1113.34</ele>
        <time>2013-05-09T12:57:58Z</time>
      </trkpt>
      <trkpt lat="46.58651" lon="6.10226">
        <ele>1113.34</ele>
        <time>2013-05-09T12:57:59Z</time>
      </trkpt>
      <trkpt lat="46.58654" lon="6.10231">
        <ele>1113.34</ele>
        <time>2013-05-09T12:58:00Z</time>
      </trkpt>
      <trkpt lat="46.58676" lon="6.10261">
        <ele>1112.86</ele>
        <time>2013-05-09T12:58:07Z</time>
      </trkpt>
      <trkpt lat="46.58679" lon="6.10265">
        <ele>1112.86</ele>
        <time>2013-05-09T12:58:08Z</time>
      </trkpt>
      <trkpt lat="46.58703" lon="6.10288">
        <ele>1111.9</ele>
        <time>2013-05-09T12:58:14Z</time>
      </trkpt>
      <trkpt lat="46.58751" lon="6.10328">
        <ele>1108.54</ele>
        <time>2013-05-09T12:58:24Z</time>
      </trkpt>
      <trkpt lat="46.58795" lon="6.10364">
        <ele>1105.65</ele>
        <time>2013-05-09T12:58:31Z</time>
      </trkpt>
      <trkpt lat="46.58889" lon="6.10403">
        <ele>1103.25</ele>
        <time>2013-05-09T12:58:43Z</time>
      </trkpt>
      <trkpt lat="46.58919" lon="6.10413">
        <ele>1102.77</ele>
        <time>2013-05-09T12:58:48Z</time>
      </trkpt>
      <trkpt lat="46.5899" lon="6.10473">
        <ele>1100.37</ele>
        <time>2013-05-09T12:59:01Z</time>
      </trkpt>
      <trkpt lat="46.59037" lon="6.10516">
        <ele>1098.92</ele>
        <time>2013-05-09T12:59:12Z</time>
      </trkpt>
      <trkpt lat="46.59068" lon="6.10534">
        <ele>1097.48</ele>
        <time>2013-05-09T12:59:18Z</time>
      </trkpt>
      <trkpt lat="46.59108" lon="6.10556">
        <ele>1096.52</ele>
        <time>2013-05-09T12:59:25Z</time>
      </trkpt>
      <trkpt lat="46.59146" lon="6.1058">
        <ele>1097</ele>
        <time>2013-05-09T12:59:32Z</time>
      </trkpt>
      <trkpt lat="46.5921" lon="6.10627">
        <ele>1097</ele>
        <time>2013-05-09T12:59:47Z</time>
      </trkpt>
      <trkpt lat="46.59234" lon="6.10644">
        <ele>1096.52</ele>
        <time>2013-05-09T12:59:52Z</time>
      </trkpt>
      <trkpt lat="46.59306" lon="6.10696">
        <ele>1093.16</ele>
        <time>2013-05-09T13:00:05Z</time>
      </trkpt>
      <trkpt lat="46.59354" lon="6.10732">
        <ele>1089.79</ele>
        <time>2013-05-09T13:00:11Z</time>
      </trkpt>
      <trkpt lat="46.59412" lon="6.10799">
        <ele>1086.91</ele>
        <time>2013-05-09T13:00:19Z</time>
      </trkpt>
      <trkpt lat="46.5945" lon="6.10861">
        <ele>1085.95</ele>
        <time>2013-05-09T13:00:26Z</time>
      </trkpt>
      <trkpt lat="46.59504" lon="6.10926">
        <ele>1082.58</ele>
        <time>2013-05-09T13:00:35Z</time>
      </trkpt>
      <trkpt lat="46.59608" lon="6.11034">
        <ele>1080.66</ele>
        <time>2013-05-09T13:00:50Z</time>
      </trkpt>
      <trkpt lat="46.59639" lon="6.11075">
        <ele>1080.66</ele>
        <time>2013-05-09T13:00:56Z</time>
      </trkpt>
      <trkpt lat="46.59652" lon="6.11094">
        <ele>1081.14</ele>
        <time>2013-05-09T13:00:59Z</time>
      </trkpt>
      <trkpt lat="46.59656" lon="6.11099">
        <ele>1081.14</ele>
        <time>2013-05-09T13:01:00Z</time>
      </trkpt>
      <trkpt lat="46.59659" lon="6.11105">
        <ele>1081.14</ele>
        <time>2013-05-09T13:01:01Z</time>
      </trkpt>
      <trkpt lat="46.59699" lon="6.11193">
        <ele>1084.99</ele>
        <time>2013-05-09T13:01:16Z</time>
      </trkpt>
      <trkpt lat="46.59701" lon="6.11198">
        <ele>1084.02</ele>
        <time>2013-05-09T13:01:17Z</time>
      </trkpt>
      <trkpt lat="46.59719" lon="6.11264">
        <ele>1086.91</ele>
        <time>2013-05-09T13:01:33Z</time>
      </trkpt>
      <trkpt lat="46.59732" lon="6.11312">
        <ele>1090.27</ele>
        <time>2013-05-09T13:01:45Z</time>
      </trkpt>
      <trkpt lat="46.59755" lon="6.11352">
        <ele>1092.2</ele>
        <time>2013-05-09T13:01:58Z</time>
      </trkpt>
      <trkpt lat="46.59785" lon="6.11396">
        <ele>1094.12</ele>
        <time>2013-05-09T13:02:13Z</time>
      </trkpt>
      <trkpt lat="46.59796" lon="6.11407">
        <ele>1094.12</ele>
        <time>2013-05-09T13:02:19Z</time>
      </trkpt>
      <trkpt lat="46.59797" lon="6.11409">
        <ele>1094.12</ele>
        <time>2013-05-09T13:02:20Z</time>
      </trkpt>
      <trkpt lat="46.59799" lon="6.11411">
        <ele>1094.12</ele>
        <time>2013-05-09T13:02:21Z</time>
      </trkpt>
      <trkpt lat="46.598" lon="6.11412">
        <ele>1094.12</ele>
        <time>2013-05-09T13:02:22Z</time>
      </trkpt>
      <trkpt lat="46.59802" lon="6.11413">
        <ele>1094.12</ele>
        <time>2013-05-09T13:02:23Z</time>
      </trkpt>
      <trkpt lat="46.59804" lon="6.11415">
        <ele>1094.12</ele>
        <time>2013-05-09T13:02:24Z</time>
      </trkpt>
      <trkpt lat="46.59806" lon="6.11416">
        <ele>1094.12</ele>
        <time>2013-05-09T13:02:25Z</time>
      </trkpt>
      <trkpt lat="46.59808" lon="6.11419">
        <ele>1094.12</ele>
        <time>2013-05-09T13:02:26Z</time>
      </trkpt>
      <trkpt lat="46.59809" lon="6.11419">
        <ele>1094.12</ele>
        <time>2013-05-09T13:02:27Z</time>
      </trkpt>
      <trkpt lat="46.59811" lon="6.11418">
        <ele>1093.64</ele>
        <time>2013-05-09T13:02:28Z</time>
      </trkpt>
      <trkpt lat="46.59812" lon="6.11416">
        <ele>1093.64</ele>
        <time>2013-05-09T13:02:29Z</time>
      </trkpt>
      <trkpt lat="46.59812" lon="6.11414">
        <ele>1094.12</ele>
        <time>2013-05-09T13:02:30Z</time>
      </trkpt>
      <trkpt lat="46.59811" lon="6.11412">
        <ele>1094.12</ele>
        <time>2013-05-09T13:02:31Z</time>
      </trkpt>
      <trkpt lat="46.59809" lon="6.1141">
        <ele>1093.64</ele>
        <time>2013-05-09T13:02:32Z</time>
      </trkpt>
      <trkpt lat="46.59807" lon="6.11409">
        <ele>1094.12</ele>
        <time>2013-05-09T13:02:33Z</time>
      </trkpt>
      <trkpt lat="46.59806" lon="6.11409">
        <ele>1094.12</ele>
        <time>2013-05-09T13:02:34Z</time>
      </trkpt>
      <trkpt lat="46.59805" lon="6.11408">
        <ele>1094.12</ele>
        <time>2013-05-09T13:02:47Z</time>
      </trkpt>
      <trkpt lat="46.59805" lon="6.11408">
        <ele>1094.6</ele>
        <time>2013-05-09T13:03:16Z</time>
      </trkpt>
      <trkpt lat="46.59805" lon="6.11408">
        <ele>1094.12</ele>
        <time>2013-05-09T13:03:43Z</time>
      </trkpt>
      <trkpt lat="46.59805" lon="6.11408">
        <ele>1094.6</ele>
        <time>2013-05-09T13:04:04Z</time>
      </trkpt>
      <trkpt lat="46.59805" lon="6.11408">
        <ele>1094.6</ele>
        <time>2013-05-09T13:04:23Z</time>
      </trkpt>
      <trkpt lat="46.59805" lon="6.11409">
        <ele>1094.6</ele>
        <time>2013-05-09T13:04:54Z</time>
      </trkpt>
      <trkpt lat="46.59805" lon="6.11412">
        <ele>1094.6</ele>
        <time>2013-05-09T13:04:58Z</time>
      </trkpt>
      <trkpt lat="46.59807" lon="6.11414">
        <ele>1094.6</ele>
        <time>2013-05-09T13:05:00Z</time>
      </trkpt>
      <trkpt lat="46.59809" lon="6.11413">
        <ele>1094.6</ele>
        <time>2013-05-09T13:05:01Z</time>
      </trkpt>
      <trkpt lat="46.5981" lon="6.11411">
        <ele>1094.6</ele>
        <time>2013-05-09T13:05:02Z</time>
      </trkpt>
      <trkpt lat="46.59812" lon="6.11409">
        <ele>1094.6</ele>
        <time>2013-05-09T13:05:03Z</time>
      </trkpt>
      <trkpt lat="46.59814" lon="6.11408">
        <ele>1094.12</ele>
        <time>2013-05-09T13:05:04Z</time>
      </trkpt>
      <trkpt lat="46.59825" lon="6.11396">
        <ele>1093.64</ele>
        <time>2013-05-09T13:05:10Z</time>
      </trkpt>
      <trkpt lat="46.59872" lon="6.11399">
        <ele>1091.71</ele>
        <time>2013-05-09T13:05:26Z</time>
      </trkpt>
      <trkpt lat="46.59911" lon="6.11372">
        <ele>1091.71</ele>
        <time>2013-05-09T13:05:40Z</time>
      </trkpt>
      <trkpt lat="46.59937" lon="6.11335">
        <ele>1095.08</ele>
        <time>2013-05-09T13:05:54Z</time>
      </trkpt>
      <trkpt lat="46.59959" lon="6.11274">
        <ele>1094.12</ele>
        <time>2013-05-09T13:06:10Z</time>
      </trkpt>
      <trkpt lat="46.59971" lon="6.1121">
        <ele>1090.75</ele>
        <time>2013-05-09T13:06:27Z</time>
      </trkpt>
      <trkpt lat="46.59977" lon="6.11168">
        <ele>1087.87</ele>
        <time>2013-05-09T13:06:39Z</time>
      </trkpt>
      <trkpt lat="46.5999" lon="6.11115">
        <ele>1084.5</ele>
        <time>2013-05-09T13:06:48Z</time>
      </trkpt>
      <trkpt lat="46.60004" lon="6.11057">
        <ele>1081.14</ele>
        <time>2013-05-09T13:06:54Z</time>
      </trkpt>
      <trkpt lat="46.60022" lon="6.10989">
        <ele>1078.26</ele>
        <time>2013-05-09T13:07:00Z</time>
      </trkpt>
      <trkpt lat="46.6004" lon="6.10919">
        <ele>1078.26</ele>
        <time>2013-05-09T13:07:07Z</time>
      </trkpt>
      <trkpt lat="46.6006" lon="6.10863">
        <ele>1077.78</ele>
        <time>2013-05-09T13:07:14Z</time>
      </trkpt>
      <trkpt lat="46.60074" lon="6.10761">
        <ele>1077.29</ele>
        <time>2013-05-09T13:07:28Z</time>
      </trkpt>
      <trkpt lat="46.60075" lon="6.10747">
        <ele>1077.29</ele>
        <time>2013-05-09T13:07:30Z</time>
      </trkpt>
      <trkpt lat="46.60075" lon="6.10727">
        <ele>1076.81</ele>
        <time>2013-05-09T13:07:33Z</time>
      </trkpt>
      <trkpt lat="46.60073" lon="6.10709">
        <ele>1076.81</ele>
        <time>2013-05-09T13:07:36Z</time>
      </trkpt>
      <trkpt lat="46.60071" lon="6.10704">
        <ele>1076.81</ele>
        <time>2013-05-09T13:07:37Z</time>
      </trkpt>
      <trkpt lat="46.60069" lon="6.10699">
        <ele>1076.81</ele>
        <time>2013-05-09T13:07:38Z</time>
      </trkpt>
      <trkpt lat="46.60056" lon="6.10656">
        <ele>1076.81</ele>
        <time>2013-05-09T13:07:46Z</time>
      </trkpt>
      <trkpt lat="46.60053" lon="6.10638">
        <ele>1076.81</ele>
        <time>2013-05-09T13:07:49Z</time>
      </trkpt>
      <trkpt lat="46.60053" lon="6.10632">
        <ele>1077.29</ele>
        <time>2013-05-09T13:07:50Z</time>
      </trkpt>
      <trkpt lat="46.60052" lon="6.10626">
        <ele>1077.29</ele>
        <time>2013-05-09T13:07:51Z</time>
      </trkpt>
      <trkpt lat="46.60051" lon="6.1062">
        <ele>1077.78</ele>
        <time>2013-05-09T13:07:52Z</time>
      </trkpt>
      <trkpt lat="46.6005" lon="6.10615">
        <ele>1077.78</ele>
        <time>2013-05-09T13:07:53Z</time>
      </trkpt>
      <trkpt lat="46.60049" lon="6.1061">
        <ele>1078.26</ele>
        <time>2013-05-09T13:07:54Z</time>
      </trkpt>
      <trkpt lat="46.60047" lon="6.10606">
        <ele>1078.26</ele>
        <time>2013-05-09T13:07:55Z</time>
      </trkpt>
      <trkpt lat="46.60034" lon="6.10575">
        <ele>1080.66</ele>
        <time>2013-05-09T13:08:06Z</time>
      </trkpt>
      <trkpt lat="46.60034" lon="6.10572">
        <ele>1080.66</ele>
        <time>2013-05-09T13:08:07Z</time>
      </trkpt>
      <trkpt lat="46.60034" lon="6.10569">
        <ele>1081.14</ele>
        <time>2013-05-09T13:08:08Z</time>
      </trkpt>
      <trkpt lat="46.60049" lon="6.10525">
        <ele>1080.66</ele>
        <time>2013-05-09T13:08:20Z</time>
      </trkpt>
      <trkpt lat="46.60053" lon="6.10518">
        <ele>1081.14</ele>
        <time>2013-05-09T13:08:24Z</time>
      </trkpt>
      <trkpt lat="46.60054" lon="6.10516">
        <ele>1081.14</ele>
        <time>2013-05-09T13:08:25Z</time>
      </trkpt>
      <trkpt lat="46.60055" lon="6.10513">
        <ele>1080.66</ele>
        <time>2013-05-09T13:08:26Z</time>
      </trkpt>
      <trkpt lat="46.60057" lon="6.10511">
        <ele>1080.66</ele>
        <time>2013-05-09T13:08:27Z</time>
      </trkpt>
      <trkpt lat="46.60059" lon="6.10509">
        <ele>1080.66</ele>
        <time>2013-05-09T13:08:28Z</time>
      </trkpt>
      <trkpt lat="46.60083" lon="6.10476">
        <ele>1080.18</ele>
        <time>2013-05-09T13:08:40Z</time>
      </trkpt>
      <trkpt lat="46.60099" lon="6.10449">
        <ele>1080.66</ele>
        <time>2013-05-09T13:08:51Z</time>
      </trkpt>
      <trkpt lat="46.60108" lon="6.10429">
        <ele>1081.62</ele>
        <time>2013-05-09T13:09:00Z</time>
      </trkpt>
      <trkpt lat="46.60109" lon="6.10427">
        <ele>1082.1</ele>
        <time>2013-05-09T13:09:01Z</time>
      </trkpt>
      <trkpt lat="46.60111" lon="6.10425">
        <ele>1082.1</ele>
        <time>2013-05-09T13:09:02Z</time>
      </trkpt>
      <trkpt lat="46.60112" lon="6.10423">
        <ele>1082.1</ele>
        <time>2013-05-09T13:09:03Z</time>
      </trkpt>
      <trkpt lat="46.60113" lon="6.10421">
        <ele>1082.1</ele>
        <time>2013-05-09T13:09:04Z</time>
      </trkpt>
      <trkpt lat="46.60115" lon="6.10419">
        <ele>1082.1</ele>
        <time>2013-05-09T13:09:05Z</time>
      </trkpt>
      <trkpt lat="46.60145" lon="6.10388">
        <ele>1082.1</ele>
        <time>2013-05-09T13:09:20Z</time>
      </trkpt>
      <trkpt lat="46.60174" lon="6.1036">
        <ele>1079.7</ele>
        <time>2013-05-09T13:09:33Z</time>
      </trkpt>
      <trkpt lat="46.60176" lon="6.1035">
        <ele>1079.7</ele>
        <time>2013-05-09T13:09:37Z</time>
      </trkpt>
      <trkpt lat="46.60175" lon="6.10348">
        <ele>1079.7</ele>
        <time>2013-05-09T13:09:38Z</time>
      </trkpt>
      <trkpt lat="46.60173" lon="6.10345">
        <ele>1078.74</ele>
        <time>2013-05-09T13:09:48Z</time>
      </trkpt>
      <trkpt lat="46.60173" lon="6.10345">
        <ele>1078.74</ele>
        <time>2013-05-09T13:10:17Z</time>
      </trkpt>
      <trkpt lat="46.60173" lon="6.10345">
        <ele>1078.74</ele>
        <time>2013-05-09T13:10:50Z</time>
      </trkpt>
      <trkpt lat="46.60173" lon="6.10345">
        <ele>1078.26</ele>
        <time>2013-05-09T13:11:33Z</time>
      </trkpt>
      <trkpt lat="46.60173" lon="6.10345">
        <ele>1078.74</ele>
        <time>2013-05-09T13:12:16Z</time>
      </trkpt>
      <trkpt lat="46.60173" lon="6.10344">
        <ele>1078.26</ele>
        <time>2013-05-09T13:12:46Z</time>
      </trkpt>
      <trkpt lat="46.60173" lon="6.10344">
        <ele>1079.22</ele>
        <time>2013-05-09T13:13:02Z</time>
      </trkpt>
      <trkpt lat="46.60172" lon="6.10344">
        <ele>1080.66</ele>
        <time>2013-05-09T13:13:23Z</time>
      </trkpt>
      <trkpt lat="46.60172" lon="6.10344">
        <ele>1079.22</ele>
        <time>2013-05-09T13:13:25Z</time>
      </trkpt>
      <trkpt lat="46.60173" lon="6.10342">
        <ele>1079.22</ele>
        <time>2013-05-09T13:13:50Z</time>
      </trkpt>
      <trkpt lat="46.60173" lon="6.1034">
        <ele>1079.22</ele>
        <time>2013-05-09T13:13:51Z</time>
      </trkpt>
      <trkpt lat="46.60172" lon="6.10337">
        <ele>1079.22</ele>
        <time>2013-05-09T13:13:52Z</time>
      </trkpt>
      <trkpt lat="46.60174" lon="6.10317">
        <ele>1078.74</ele>
        <time>2013-05-09T13:13:59Z</time>
      </trkpt>
      <trkpt lat="46.60175" lon="6.10314">
        <ele>1078.74</ele>
        <time>2013-05-09T13:14:00Z</time>
      </trkpt>
      <trkpt lat="46.60176" lon="6.10311">
        <ele>1078.74</ele>
        <time>2013-05-09T13:14:01Z</time>
      </trkpt>
      <trkpt lat="46.60177" lon="6.10308">
        <ele>1078.74</ele>
        <time>2013-05-09T13:14:02Z</time>
      </trkpt>
      <trkpt lat="46.60177" lon="6.10305">
        <ele>1078.74</ele>
        <time>2013-05-09T13:14:03Z</time>
      </trkpt>
      <trkpt lat="46.60177" lon="6.10302">
        <ele>1078.74</ele>
        <time>2013-05-09T13:14:04Z</time>
      </trkpt>
      <trkpt lat="46.60176" lon="6.10299">
        <ele>1078.74</ele>
        <time>2013-05-09T13:14:05Z</time>
      </trkpt>
      <trkpt lat="46.60176" lon="6.10295">
        <ele>1078.74</ele>
        <time>2013-05-09T13:14:06Z</time>
      </trkpt>
      <trkpt lat="46.60175" lon="6.10291">
        <ele>1078.74</ele>
        <time>2013-05-09T13:14:07Z</time>
      </trkpt>
      <trkpt lat="46.60175" lon="6.10288">
        <ele>1078.74</ele>
        <time>2013-05-09T13:14:08Z</time>
      </trkpt>
      <trkpt lat="46.60173" lon="6.10284">
        <ele>1078.26</ele>
        <time>2013-05-09T13:14:09Z</time>
      </trkpt>
      <trkpt lat="46.60172" lon="6.1028">
        <ele>1078.26</ele>
        <time>2013-05-09T13:14:10Z</time>
      </trkpt>
      <trkpt lat="46.6017" lon="6.10277">
        <ele>1078.26</ele>
        <time>2013-05-09T13:14:11Z</time>
      </trkpt>
      <trkpt lat="46.60168" lon="6.10274">
        <ele>1078.26</ele>
        <time>2013-05-09T13:14:12Z</time>
      </trkpt>
      <trkpt lat="46.60167" lon="6.10271">
        <ele>1078.26</ele>
        <time>2013-05-09T13:14:13Z</time>
      </trkpt>
      <trkpt lat="46.60165" lon="6.10268">
        <ele>1078.26</ele>
        <time>2013-05-09T13:14:14Z</time>
      </trkpt>
      <trkpt lat="46.60157" lon="6.10255">
        <ele>1077.78</ele>
        <time>2013-05-09T13:14:18Z</time>
      </trkpt>
      <trkpt lat="46.60155" lon="6.10251">
        <ele>1077.78</ele>
        <time>2013-05-09T13:14:19Z</time>
      </trkpt>
      <trkpt lat="46.60153" lon="6.10248">
        <ele>1077.78</ele>
        <time>2013-05-09T13:14:20Z</time>
      </trkpt>
      <trkpt lat="46.60125" lon="6.10206">
        <ele>1077.29</ele>
        <time>2013-05-09T13:14:34Z</time>
      </trkpt>
      <trkpt lat="46.60104" lon="6.10181">
        <ele>1076.81</ele>
        <time>2013-05-09T13:14:45Z</time>
      </trkpt>
      <trkpt lat="46.60078" lon="6.10163">
        <ele>1076.33</ele>
        <time>2013-05-09T13:14:58Z</time>
      </trkpt>
      <trkpt lat="46.60073" lon="6.10161">
        <ele>1076.33</ele>
        <time>2013-05-09T13:15:01Z</time>
      </trkpt>
      <trkpt lat="46.60048" lon="6.10138">
        <ele>1075.85</ele>
        <time>2013-05-09T13:15:13Z</time>
      </trkpt>
      <trkpt lat="46.60023" lon="6.1009">
        <ele>1075.85</ele>
        <time>2013-05-09T13:15:27Z</time>
      </trkpt>
      <trkpt lat="46.6001" lon="6.10058">
        <ele>1075.37</ele>
        <time>2013-05-09T13:15:38Z</time>
      </trkpt>
      <trkpt lat="46.59994" lon="6.10029">
        <ele>1074.89</ele>
        <time>2013-05-09T13:15:50Z</time>
      </trkpt>
      <trkpt lat="46.59975" lon="6.10006">
        <ele>1075.37</ele>
        <time>2013-05-09T13:16:01Z</time>
      </trkpt>
      <trkpt lat="46.59967" lon="6.09996">
        <ele>1075.37</ele>
        <time>2013-05-09T13:16:13Z</time>
      </trkpt>
      <trkpt lat="46.59965" lon="6.09994">
        <ele>1075.37</ele>
        <time>2013-05-09T13:16:24Z</time>
      </trkpt>
      <trkpt lat="46.59965" lon="6.09987">
        <ele>1075.37</ele>
        <time>2013-05-09T13:16:32Z</time>
      </trkpt>
      <trkpt lat="46.59964" lon="6.09984">
        <ele>1075.37</ele>
        <time>2013-05-09T13:16:33Z</time>
      </trkpt>
      <trkpt lat="46.59963" lon="6.0998">
        <ele>1075.37</ele>
        <time>2013-05-09T13:16:34Z</time>
      </trkpt>
      <trkpt lat="46.59962" lon="6.09977">
        <ele>1075.37</ele>
        <time>2013-05-09T13:16:35Z</time>
      </trkpt>
      <trkpt lat="46.59961" lon="6.09974">
        <ele>1075.85</ele>
        <time>2013-05-09T13:16:36Z</time>
      </trkpt>
      <trkpt lat="46.5996" lon="6.09969">
        <ele>1075.37</ele>
        <time>2013-05-09T13:16:38Z</time>
      </trkpt>
      <trkpt lat="46.59959" lon="6.09967">
        <ele>1075.37</ele>
        <time>2013-05-09T13:16:39Z</time>
      </trkpt>
      <trkpt lat="46.59955" lon="6.09961">
        <ele>1074.89</ele>
        <time>2013-05-09T13:16:42Z</time>
      </trkpt>
      <trkpt lat="46.59955" lon="6.09959">
        <ele>1074.89</ele>
        <time>2013-05-09T13:16:43Z</time>
      </trkpt>
      <trkpt lat="46.59954" lon="6.09956">
        <ele>1074.41</ele>
        <time>2013-05-09T13:16:44Z</time>
      </trkpt>
      <trkpt lat="46.59953" lon="6.09952">
        <ele>1074.41</ele>
        <time>2013-05-09T13:16:45Z</time>
      </trkpt>
      <trkpt lat="46.59953" lon="6.09949">
        <ele>1074.41</ele>
        <time>2013-05-09T13:16:46Z</time>
      </trkpt>
      <trkpt lat="46.59952" lon="6.09946">
        <ele>1074.41</ele>
        <time>2013-05-09T13:16:47Z</time>
      </trkpt>
      <trkpt lat="46.59952" lon="6.09943">
        <ele>1074.41</ele>
        <time>2013-05-09T13:16:48Z</time>
      </trkpt>
      <trkpt lat="46.59951" lon="6.09939">
        <ele>1074.41</ele>
        <time>2013-05-09T13:16:49Z</time>
      </trkpt>
      <trkpt lat="46.5995" lon="6.09935">
        <ele>1074.41</ele>
        <time>2013-05-09T13:16:50Z</time>
      </trkpt>
      <trkpt lat="46.59949" lon="6.09932">
        <ele>1074.41</ele>
        <time>2013-05-09T13:16:51Z</time>
      </trkpt>
      <trkpt lat="46.59949" lon="6.09928">
        <ele>1073.93</ele>
        <time>2013-05-09T13:16:52Z</time>
      </trkpt>
      <trkpt lat="46.59947" lon="6.0992">
        <ele>1074.41</ele>
        <time>2013-05-09T13:17:02Z</time>
      </trkpt>
      <trkpt lat="46.59943" lon="6.09914">
        <ele>1074.41</ele>
        <time>2013-05-09T13:17:08Z</time>
      </trkpt>
      <trkpt lat="46.59941" lon="6.09911">
        <ele>1074.41</ele>
        <time>2013-05-09T13:17:09Z</time>
      </trkpt>
      <trkpt lat="46.59941" lon="6.0991">
        <ele>1074.41</ele>
        <time>2013-05-09T13:17:10Z</time>
      </trkpt>
      <trkpt lat="46.59941" lon="6.09908">
        <ele>1074.41</ele>
        <time>2013-05-09T13:17:11Z</time>
      </trkpt>
      <trkpt lat="46.59942" lon="6.09906">
        <ele>1074.89</ele>
        <time>2013-05-09T13:17:12Z</time>
      </trkpt>
      <trkpt lat="46.59943" lon="6.09904">
        <ele>1074.41</ele>
        <time>2013-05-09T13:17:13Z</time>
      </trkpt>
      <trkpt lat="46.59944" lon="6.09902">
        <ele>1073.93</ele>
        <time>2013-05-09T13:17:14Z</time>
      </trkpt>
      <trkpt lat="46.59943" lon="6.09896">
        <ele>1073.93</ele>
        <time>2013-05-09T13:17:16Z</time>
      </trkpt>
      <trkpt lat="46.59942" lon="6.09893">
        <ele>1073.93</ele>
        <time>2013-05-09T13:17:17Z</time>
      </trkpt>
      <trkpt lat="46.59941" lon="6.09889">
        <ele>1073.93</ele>
        <time>2013-05-09T13:17:18Z</time>
      </trkpt>
      <trkpt lat="46.5994" lon="6.09884">
        <ele>1073.93</ele>
        <time>2013-05-09T13:17:20Z</time>
      </trkpt>
      <trkpt lat="46.59934" lon="6.09854">
        <ele>1073.45</ele>
        <time>2013-05-09T13:17:29Z</time>
      </trkpt>
      <trkpt lat="46.59936" lon="6.09817">
        <ele>1073.45</ele>
        <time>2013-05-09T13:17:40Z</time>
      </trkpt>
      <trkpt lat="46.59938" lon="6.09809">
        <ele>1072.97</ele>
        <time>2013-05-09T13:17:43Z</time>
      </trkpt>
      <trkpt lat="46.59938" lon="6.09806">
        <ele>1072.97</ele>
        <time>2013-05-09T13:17:44Z</time>
      </trkpt>
      <trkpt lat="46.59938" lon="6.09802">
        <ele>1072.97</ele>
        <time>2013-05-09T13:17:45Z</time>
      </trkpt>
      <trkpt lat="46.59938" lon="6.09799">
        <ele>1072.49</ele>
        <time>2013-05-09T13:17:46Z</time>
      </trkpt>
      <trkpt lat="46.59938" lon="6.09795">
        <ele>1072.97</ele>
        <time>2013-05-09T13:17:47Z</time>
      </trkpt>
      <trkpt lat="46.59938" lon="6.09792">
        <ele>1072.97</ele>
        <time>2013-05-09T13:17:48Z</time>
      </trkpt>
      <trkpt lat="46.59937" lon="6.09788">
        <ele>1072.49</ele>
        <time>2013-05-09T13:17:49Z</time>
      </trkpt>
      <trkpt lat="46.59935" lon="6.09783">
        <ele>1072.97</ele>
        <time>2013-05-09T13:17:50Z</time>
      </trkpt>
      <trkpt lat="46.59934" lon="6.0978">
        <ele>1072.49</ele>
        <time>2013-05-09T13:17:51Z</time>
      </trkpt>
      <trkpt lat="46.59932" lon="6.09776">
        <ele>1072.49</ele>
        <time>2013-05-09T13:17:52Z</time>
      </trkpt>
      <trkpt lat="46.59931" lon="6.09772">
        <ele>1072.97</ele>
        <time>2013-05-09T13:17:53Z</time>
      </trkpt>
      <trkpt lat="46.5993" lon="6.09768">
        <ele>1072.49</ele>
        <time>2013-05-09T13:17:54Z</time>
      </trkpt>
      <trkpt lat="46.5993" lon="6.09763">
        <ele>1072.97</ele>
        <time>2013-05-09T13:17:55Z</time>
      </trkpt>
      <trkpt lat="46.59929" lon="6.09759">
        <ele>1072.97</ele>
        <time>2013-05-09T13:17:56Z</time>
      </trkpt>
      <trkpt lat="46.59928" lon="6.09756">
        <ele>1072.97</ele>
        <time>2013-05-09T13:17:57Z</time>
      </trkpt>
      <trkpt lat="46.59912" lon="6.09702">
        <ele>1073.45</ele>
        <time>2013-05-09T13:18:11Z</time>
      </trkpt>
      <trkpt lat="46.59907" lon="6.0965">
        <ele>1072.49</ele>
        <time>2013-05-09T13:18:24Z</time>
      </trkpt>
      <trkpt lat="46.59906" lon="6.09646">
        <ele>1072.49</ele>
        <time>2013-05-09T13:18:25Z</time>
      </trkpt>
      <trkpt lat="46.59905" lon="6.09643">
        <ele>1072.49</ele>
        <time>2013-05-09T13:18:26Z</time>
      </trkpt>
      <trkpt lat="46.59903" lon="6.09641">
        <ele>1072.49</ele>
        <time>2013-05-09T13:18:27Z</time>
      </trkpt>
      <trkpt lat="46.59901" lon="6.09639">
        <ele>1072.49</ele>
        <time>2013-05-09T13:18:28Z</time>
      </trkpt>
      <trkpt lat="46.59899" lon="6.09637">
        <ele>1072.97</ele>
        <time>2013-05-09T13:18:29Z</time>
      </trkpt>
      <trkpt lat="46.59898" lon="6.09635">
        <ele>1072.49</ele>
        <time>2013-05-09T13:18:30Z</time>
      </trkpt>
      <trkpt lat="46.59898" lon="6.09632">
        <ele>1072.49</ele>
        <time>2013-05-09T13:18:31Z</time>
      </trkpt>
      <trkpt lat="46.599" lon="6.09629">
        <ele>1072.49</ele>
        <time>2013-05-09T13:18:32Z</time>
      </trkpt>
      <trkpt lat="46.59901" lon="6.09627">
        <ele>1072.49</ele>
        <time>2013-05-09T13:18:33Z</time>
      </trkpt>
      <trkpt lat="46.59902" lon="6.09626">
        <ele>1072.49</ele>
        <time>2013-05-09T13:18:34Z</time>
      </trkpt>
      <trkpt lat="46.59903" lon="6.09624">
        <ele>1072.49</ele>
        <time>2013-05-09T13:18:35Z</time>
      </trkpt>
      <trkpt lat="46.59905" lon="6.09621">
        <ele>1072.49</ele>
        <time>2013-05-09T13:18:36Z</time>
      </trkpt>
      <trkpt lat="46.5991" lon="6.09611">
        <ele>1072.49</ele>
        <time>2013-05-09T13:18:50Z</time>
      </trkpt>
      <trkpt lat="46.5991" lon="6.09611">
        <ele>1072.49</ele>
        <time>2013-05-09T13:19:18Z</time>
      </trkpt>
      <trkpt lat="46.5991" lon="6.09609">
        <ele>1072.49</ele>
        <time>2013-05-09T13:19:20Z</time>
      </trkpt>
      <trkpt lat="46.59925" lon="6.09568">
        <ele>1071.53</ele>
        <time>2013-05-09T13:19:30Z</time>
      </trkpt>
      <trkpt lat="46.59934" lon="6.09542">
        <ele>1071.53</ele>
        <time>2013-05-09T13:19:35Z</time>
      </trkpt>
      <trkpt lat="46.59936" lon="6.09536">
        <ele>1071.53</ele>
        <time>2013-05-09T13:19:36Z</time>
      </trkpt>
      <trkpt lat="46.59956" lon="6.09488">
        <ele>1070.08</ele>
        <time>2013-05-09T13:19:45Z</time>
      </trkpt>
      <trkpt lat="46.59995" lon="6.09448">
        <ele>1070.08</ele>
        <time>2013-05-09T13:19:57Z</time>
      </trkpt>
      <trkpt lat="46.6004" lon="6.09415">
        <ele>1066.72</ele>
        <time>2013-05-09T13:20:06Z</time>
      </trkpt>
      <trkpt lat="46.60134" lon="6.09318">
        <ele>1064.32</ele>
        <time>2013-05-09T13:20:22Z</time>
      </trkpt>
      <trkpt lat="46.60201" lon="6.09247">
        <ele>1065.28</ele>
        <time>2013-05-09T13:20:36Z</time>
      </trkpt>
      <trkpt lat="46.60239" lon="6.09211">
        <ele>1067.68</ele>
        <time>2013-05-09T13:20:49Z</time>
      </trkpt>
      <trkpt lat="46.60288" lon="6.09176">
        <ele>1067.68</ele>
        <time>2013-05-09T13:21:06Z</time>
      </trkpt>
      <trkpt lat="46.6032" lon="6.09159">
        <ele>1068.16</ele>
        <time>2013-05-09T13:21:15Z</time>
      </trkpt>
      <trkpt lat="46.6039" lon="6.09156">
        <ele>1066.72</ele>
        <time>2013-05-09T13:21:30Z</time>
      </trkpt>
      <trkpt lat="46.60466" lon="6.09147">
        <ele>1066.72</ele>
        <time>2013-05-09T13:21:45Z</time>
      </trkpt>
      <trkpt lat="46.60547" lon="6.0912">
        <ele>1065.28</ele>
        <time>2013-05-09T13:22:02Z</time>
      </trkpt>
      <trkpt lat="46.6061" lon="6.09058">
        <ele>1064.32</ele>
        <time>2013-05-09T13:22:17Z</time>
      </trkpt>
      <trkpt lat="46.60614" lon="6.09053">
        <ele>1063.84</ele>
        <time>2013-05-09T13:22:18Z</time>
      </trkpt>
      <trkpt lat="46.60666" lon="6.08972">
        <ele>1064.32</ele>
        <time>2013-05-09T13:22:32Z</time>
      </trkpt>
      <trkpt lat="46.60717" lon="6.08866">
        <ele>1063.36</ele>
        <time>2013-05-09T13:22:48Z</time>
      </trkpt>
      <trkpt lat="46.60738" lon="6.08784">
        <ele>1063.84</ele>
        <time>2013-05-09T13:23:00Z</time>
      </trkpt>
      <trkpt lat="46.60755" lon="6.08747">
        <ele>1064.32</ele>
        <time>2013-05-09T13:23:07Z</time>
      </trkpt>
      <trkpt lat="46.60769" lon="6.0872">
        <ele>1064.8</ele>
        <time>2013-05-09T13:23:12Z</time>
      </trkpt>
      <trkpt lat="46.60775" lon="6.08711">
        <ele>1065.28</ele>
        <time>2013-05-09T13:23:14Z</time>
      </trkpt>
      <trkpt lat="46.60778" lon="6.08708">
        <ele>1065.28</ele>
        <time>2013-05-09T13:23:15Z</time>
      </trkpt>
      <trkpt lat="46.60816" lon="6.08682">
        <ele>1067.68</ele>
        <time>2013-05-09T13:23:28Z</time>
      </trkpt>
      <trkpt lat="46.60856" lon="6.08645">
        <ele>1065.28</ele>
        <time>2013-05-09T13:23:41Z</time>
      </trkpt>
      <trkpt lat="46.60909" lon="6.0861">
        <ele>1064.32</ele>
        <time>2013-05-09T13:23:58Z</time>
      </trkpt>
      <trkpt lat="46.60937" lon="6.08591">
        <ele>1063.84</ele>
        <time>2013-05-09T13:24:05Z</time>
      </trkpt>
      <trkpt lat="46.60941" lon="6.08588">
        <ele>1063.84</ele>
        <time>2013-05-09T13:24:06Z</time>
      </trkpt>
      <trkpt lat="46.60952" lon="6.0858">
        <ele>1063.84</ele>
        <time>2013-05-09T13:24:09Z</time>
      </trkpt>
      <trkpt lat="46.60956" lon="6.08578">
        <ele>1063.84</ele>
        <time>2013-05-09T13:24:10Z</time>
      </trkpt>
      <trkpt lat="46.6096" lon="6.08576">
        <ele>1063.84</ele>
        <time>2013-05-09T13:24:11Z</time>
      </trkpt>
      <trkpt lat="46.60965" lon="6.08576">
        <ele>1063.84</ele>
        <time>2013-05-09T13:24:12Z</time>
      </trkpt>
      <trkpt lat="46.6097" lon="6.08575">
        <ele>1063.36</ele>
        <time>2013-05-09T13:24:13Z</time>
      </trkpt>
      <trkpt lat="46.60975" lon="6.08574">
        <ele>1063.36</ele>
        <time>2013-05-09T13:24:14Z</time>
      </trkpt>
      <trkpt lat="46.60979" lon="6.08572">
        <ele>1063.36</ele>
        <time>2013-05-09T13:24:15Z</time>
      </trkpt>
      <trkpt lat="46.60984" lon="6.0857">
        <ele>1062.87</ele>
        <time>2013-05-09T13:24:16Z</time>
      </trkpt>
      <trkpt lat="46.60989" lon="6.08568">
        <ele>1062.87</ele>
        <time>2013-05-09T13:24:17Z</time>
      </trkpt>
      <trkpt lat="46.60994" lon="6.08565">
        <ele>1062.87</ele>
        <time>2013-05-09T13:24:18Z</time>
      </trkpt>
      <trkpt lat="46.61003" lon="6.08558">
        <ele>1062.39</ele>
        <time>2013-05-09T13:24:20Z</time>
      </trkpt>
      <trkpt lat="46.61011" lon="6.0855">
        <ele>1062.39</ele>
        <time>2013-05-09T13:24:22Z</time>
      </trkpt>
      <trkpt lat="46.61046" lon="6.08499">
        <ele>1065.28</ele>
        <time>2013-05-09T13:24:35Z</time>
      </trkpt>
      <trkpt lat="46.61069" lon="6.08445">
        <ele>1067.2</ele>
        <time>2013-05-09T13:24:48Z</time>
      </trkpt>
      <trkpt lat="46.61099" lon="6.08391">
        <ele>1068.16</ele>
        <time>2013-05-09T13:25:03Z</time>
      </trkpt>
      <trkpt lat="46.61137" lon="6.08333">
        <ele>1070.08</ele>
        <time>2013-05-09T13:25:19Z</time>
      </trkpt>
      <trkpt lat="46.61149" lon="6.08314">
        <ele>1071.05</ele>
        <time>2013-05-09T13:25:29Z</time>
      </trkpt>
      <trkpt lat="46.61148" lon="6.08313">
        <ele>1072.49</ele>
        <time>2013-05-09T13:25:30Z</time>
      </trkpt>
      <trkpt lat="46.61135" lon="6.08332">
        <ele>1070.08</ele>
        <time>2013-05-09T13:25:39Z</time>
      </trkpt>
      <trkpt lat="46.6112" lon="6.08357">
        <ele>1069.6</ele>
        <time>2013-05-09T13:25:51Z</time>
      </trkpt>
      <trkpt lat="46.6112" lon="6.08357">
        <ele>1069.6</ele>
        <time>2013-05-09T13:26:09Z</time>
      </trkpt>
      <trkpt lat="46.61121" lon="6.08356">
        <ele>1069.6</ele>
        <time>2013-05-09T13:26:26Z</time>
      </trkpt>
      <trkpt lat="46.61121" lon="6.08356">
        <ele>1069.6</ele>
        <time>2013-05-09T13:26:51Z</time>
      </trkpt>
      <trkpt lat="46.61122" lon="6.08354">
        <ele>1069.6</ele>
        <time>2013-05-09T13:26:55Z</time>
      </trkpt>
      <trkpt lat="46.61126" lon="6.08348">
        <ele>1070.08</ele>
        <time>2013-05-09T13:26:59Z</time>
      </trkpt>
      <trkpt lat="46.61148" lon="6.08315">
        <ele>1070.57</ele>
        <time>2013-05-09T13:27:13Z</time>
      </trkpt>
      <trkpt lat="46.61172" lon="6.0828">
        <ele>1070.57</ele>
        <time>2013-05-09T13:27:25Z</time>
      </trkpt>
      <trkpt lat="46.61198" lon="6.0822">
        <ele>1070.08</ele>
        <time>2013-05-09T13:27:40Z</time>
      </trkpt>
      <trkpt lat="46.61205" lon="6.08198">
        <ele>1069.12</ele>
        <time>2013-05-09T13:27:44Z</time>
      </trkpt>
      <trkpt lat="46.61214" lon="6.08176">
        <ele>1068.16</ele>
        <time>2013-05-09T13:27:48Z</time>
      </trkpt>
      <trkpt lat="46.61215" lon="6.08169">
        <ele>1067.68</ele>
        <time>2013-05-09T13:27:49Z</time>
      </trkpt>
      <trkpt lat="46.61216" lon="6.08161">
        <ele>1067.2</ele>
        <time>2013-05-09T13:27:50Z</time>
      </trkpt>
      <trkpt lat="46.61218" lon="6.08137">
        <ele>1066.72</ele>
        <time>2013-05-09T13:27:53Z</time>
      </trkpt>
      <trkpt lat="46.61218" lon="6.0813">
        <ele>1066.72</ele>
        <time>2013-05-09T13:27:54Z</time>
      </trkpt>
      <trkpt lat="46.61217" lon="6.08122">
        <ele>1066.72</ele>
        <time>2013-05-09T13:27:55Z</time>
      </trkpt>
      <trkpt lat="46.61217" lon="6.08116">
        <ele>1067.2</ele>
        <time>2013-05-09T13:27:56Z</time>
      </trkpt>
      <trkpt lat="46.61217" lon="6.0811">
        <ele>1067.68</ele>
        <time>2013-05-09T13:27:57Z</time>
      </trkpt>
      <trkpt lat="46.61218" lon="6.08059">
        <ele>1068.64</ele>
        <time>2013-05-09T13:28:08Z</time>
      </trkpt>
      <trkpt lat="46.61233" lon="6.08001">
        <ele>1070.08</ele>
        <time>2013-05-09T13:28:20Z</time>
      </trkpt>
      <trkpt lat="46.61243" lon="6.07983">
        <ele>1070.08</ele>
        <time>2013-05-09T13:28:24Z</time>
      </trkpt>
      <trkpt lat="46.61246" lon="6.07979">
        <ele>1070.08</ele>
        <time>2013-05-09T13:28:25Z</time>
      </trkpt>
      <trkpt lat="46.61249" lon="6.07975">
        <ele>1070.57</ele>
        <time>2013-05-09T13:28:26Z</time>
      </trkpt>
      <trkpt lat="46.61266" lon="6.07944">
        <ele>1070.57</ele>
        <time>2013-05-09T13:28:33Z</time>
      </trkpt>
      <trkpt lat="46.61273" lon="6.07929">
        <ele>1070.57</ele>
        <time>2013-05-09T13:28:36Z</time>
      </trkpt>
      <trkpt lat="46.61275" lon="6.07923">
        <ele>1070.57</ele>
        <time>2013-05-09T13:28:37Z</time>
      </trkpt>
      <trkpt lat="46.61277" lon="6.07918">
        <ele>1070.57</ele>
        <time>2013-05-09T13:28:38Z</time>
      </trkpt>
      <trkpt lat="46.61278" lon="6.07913">
        <ele>1070.57</ele>
        <time>2013-05-09T13:28:39Z</time>
      </trkpt>
      <trkpt lat="46.6128" lon="6.07908">
        <ele>1071.05</ele>
        <time>2013-05-09T13:28:40Z</time>
      </trkpt>
      <trkpt lat="46.61281" lon="6.07902">
        <ele>1071.05</ele>
        <time>2013-05-09T13:28:41Z</time>
      </trkpt>
      <trkpt lat="46.61281" lon="6.07897">
        <ele>1071.05</ele>
        <time>2013-05-09T13:28:42Z</time>
      </trkpt>
      <trkpt lat="46.61281" lon="6.07891">
        <ele>1071.05</ele>
        <time>2013-05-09T13:28:43Z</time>
      </trkpt>
      <trkpt lat="46.61281" lon="6.07885">
        <ele>1071.05</ele>
        <time>2013-05-09T13:28:44Z</time>
      </trkpt>
      <trkpt lat="46.61282" lon="6.0788">
        <ele>1071.05</ele>
        <time>2013-05-09T13:28:45Z</time>
      </trkpt>
      <trkpt lat="46.61284" lon="6.07869">
        <ele>1071.05</ele>
        <time>2013-05-09T13:28:47Z</time>
      </trkpt>
      <trkpt lat="46.61284" lon="6.07863">
        <ele>1071.05</ele>
        <time>2013-05-09T13:28:48Z</time>
      </trkpt>
      <trkpt lat="46.61286" lon="6.07852">
        <ele>1071.05</ele>
        <time>2013-05-09T13:28:50Z</time>
      </trkpt>
      <trkpt lat="46.61295" lon="6.07812">
        <ele>1071.05</ele>
        <time>2013-05-09T13:28:57Z</time>
      </trkpt>
      <trkpt lat="46.61297" lon="6.07807">
        <ele>1071.05</ele>
        <time>2013-05-09T13:28:58Z</time>
      </trkpt>
      <trkpt lat="46.61304" lon="6.07791">
        <ele>1071.05</ele>
        <time>2013-05-09T13:29:01Z</time>
      </trkpt>
      <trkpt lat="46.61306" lon="6.07784">
        <ele>1071.05</ele>
        <time>2013-05-09T13:29:02Z</time>
      </trkpt>
      <trkpt lat="46.61314" lon="6.07768">
        <ele>1070.57</ele>
        <time>2013-05-09T13:29:05Z</time>
      </trkpt>
      <trkpt lat="46.61317" lon="6.07764">
        <ele>1070.57</ele>
        <time>2013-05-09T13:29:06Z</time>
      </trkpt>
      <trkpt lat="46.61348" lon="6.07717">
        <ele>1070.08</ele>
        <time>2013-05-09T13:29:17Z</time>
      </trkpt>
      <trkpt lat="46.61351" lon="6.07713">
        <ele>1070.08</ele>
        <time>2013-05-09T13:29:18Z</time>
      </trkpt>
      <trkpt lat="46.61354" lon="6.07709">
        <ele>1070.08</ele>
        <time>2013-05-09T13:29:19Z</time>
      </trkpt>
      <trkpt lat="46.61356" lon="6.07704">
        <ele>1070.08</ele>
        <time>2013-05-09T13:29:20Z</time>
      </trkpt>
      <trkpt lat="46.61362" lon="6.07694">
        <ele>1070.08</ele>
        <time>2013-05-09T13:29:22Z</time>
      </trkpt>
      <trkpt lat="46.61365" lon="6.0769">
        <ele>1070.08</ele>
        <time>2013-05-09T13:29:23Z</time>
      </trkpt>
      <trkpt lat="46.61371" lon="6.0768">
        <ele>1070.08</ele>
        <time>2013-05-09T13:29:25Z</time>
      </trkpt>
      <trkpt lat="46.614" lon="6.07628">
        <ele>1070.57</ele>
        <time>2013-05-09T13:29:37Z</time>
      </trkpt>
      <trkpt lat="46.61416" lon="6.07595">
        <ele>1070.08</ele>
        <time>2013-05-09T13:29:44Z</time>
      </trkpt>
      <trkpt lat="46.61428" lon="6.07545">
        <ele>1070.08</ele>
        <time>2013-05-09T13:29:52Z</time>
      </trkpt>
      <trkpt lat="46.61434" lon="6.07527">
        <ele>1069.6</ele>
        <time>2013-05-09T13:29:55Z</time>
      </trkpt>
      <trkpt lat="46.61436" lon="6.07522">
        <ele>1069.6</ele>
        <time>2013-05-09T13:29:56Z</time>
      </trkpt>
      <trkpt lat="46.61439" lon="6.07516">
        <ele>1070.08</ele>
        <time>2013-05-09T13:29:57Z</time>
      </trkpt>
      <trkpt lat="46.61441" lon="6.07511">
        <ele>1070.08</ele>
        <time>2013-05-09T13:29:58Z</time>
      </trkpt>
      <trkpt lat="46.61443" lon="6.07506">
        <ele>1070.08</ele>
        <time>2013-05-09T13:29:59Z</time>
      </trkpt>
      <trkpt lat="46.6145" lon="6.07485">
        <ele>1070.57</ele>
        <time>2013-05-09T13:30:03Z</time>
      </trkpt>
      <trkpt lat="46.61452" lon="6.07479">
        <ele>1070.57</ele>
        <time>2013-05-09T13:30:04Z</time>
      </trkpt>
      <trkpt lat="46.6148" lon="6.07426">
        <ele>1072.49</ele>
        <time>2013-05-09T13:30:17Z</time>
      </trkpt>
      <trkpt lat="46.61515" lon="6.07387">
        <ele>1074.89</ele>
        <time>2013-05-09T13:30:30Z</time>
      </trkpt>
      <trkpt lat="46.61537" lon="6.07352">
        <ele>1076.81</ele>
        <time>2013-05-09T13:30:40Z</time>
      </trkpt>
      <trkpt lat="46.61567" lon="6.07309">
        <ele>1079.22</ele>
        <time>2013-05-09T13:30:52Z</time>
      </trkpt>
      <trkpt lat="46.61601" lon="6.07282">
        <ele>1080.66</ele>
        <time>2013-05-09T13:31:02Z</time>
      </trkpt>
      <trkpt lat="46.61632" lon="6.07252">
        <ele>1080.18</ele>
        <time>2013-05-09T13:31:14Z</time>
      </trkpt>
      <trkpt lat="46.61665" lon="6.07225">
        <ele>1080.18</ele>
        <time>2013-05-09T13:31:26Z</time>
      </trkpt>
      <trkpt lat="46.6169" lon="6.0721">
        <ele>1079.7</ele>
        <time>2013-05-09T13:31:36Z</time>
      </trkpt>
      <trkpt lat="46.61721" lon="6.07205">
        <ele>1078.26</ele>
        <time>2013-05-09T13:31:46Z</time>
      </trkpt>
      <trkpt lat="46.61739" lon="6.07203">
        <ele>1076.33</ele>
        <time>2013-05-09T13:31:50Z</time>
      </trkpt>
      <trkpt lat="46.61744" lon="6.07203">
        <ele>1075.85</ele>
        <time>2013-05-09T13:31:51Z</time>
      </trkpt>
      <trkpt lat="46.61775" lon="6.07202">
        <ele>1073.45</ele>
        <time>2013-05-09T13:31:58Z</time>
      </trkpt>
      <trkpt lat="46.61785" lon="6.07208">
        <ele>1072.49</ele>
        <time>2013-05-09T13:32:00Z</time>
      </trkpt>
      <trkpt lat="46.61796" lon="6.07214">
        <ele>1071.53</ele>
        <time>2013-05-09T13:32:02Z</time>
      </trkpt>
      <trkpt lat="46.61802" lon="6.07215">
        <ele>1070.57</ele>
        <time>2013-05-09T13:32:03Z</time>
      </trkpt>
      <trkpt lat="46.61809" lon="6.07214">
        <ele>1070.57</ele>
        <time>2013-05-09T13:32:04Z</time>
      </trkpt>
      <trkpt lat="46.61816" lon="6.07212">
        <ele>1070.08</ele>
        <time>2013-05-09T13:32:05Z</time>
      </trkpt>
      <trkpt lat="46.61823" lon="6.07209">
        <ele>1069.6</ele>
        <time>2013-05-09T13:32:06Z</time>
      </trkpt>
      <trkpt lat="46.6183" lon="6.07205">
        <ele>1069.12</ele>
        <time>2013-05-09T13:32:07Z</time>
      </trkpt>
      <trkpt lat="46.61837" lon="6.07199">
        <ele>1069.12</ele>
        <time>2013-05-09T13:32:08Z</time>
      </trkpt>
      <trkpt lat="46.61844" lon="6.07193">
        <ele>1068.64</ele>
        <time>2013-05-09T13:32:09Z</time>
      </trkpt>
      <trkpt lat="46.61851" lon="6.07186">
        <ele>1068.16</ele>
        <time>2013-05-09T13:32:10Z</time>
      </trkpt>
      <trkpt lat="46.61894" lon="6.07142">
        <ele>1064.8</ele>
        <time>2013-05-09T13:32:16Z</time>
      </trkpt>
      <trkpt lat="46.61915" lon="6.07115">
        <ele>1062.87</ele>
        <time>2013-05-09T13:32:19Z</time>
      </trkpt>
      <trkpt lat="46.61921" lon="6.07104">
        <ele>1062.39</ele>
        <time>2013-05-09T13:32:20Z</time>
      </trkpt>
      <trkpt lat="46.61927" lon="6.07093">
        <ele>1061.91</ele>
        <time>2013-05-09T13:32:21Z</time>
      </trkpt>
      <trkpt lat="46.61937" lon="6.07068">
        <ele>1059.99</ele>
        <time>2013-05-09T13:32:23Z</time>
      </trkpt>
      <trkpt lat="46.61943" lon="6.07057">
        <ele>1058.55</ele>
        <time>2013-05-09T13:32:24Z</time>
      </trkpt>
      <trkpt lat="46.61949" lon="6.07048">
        <ele>1058.07</ele>
        <time>2013-05-09T13:32:25Z</time>
      </trkpt>
      <trkpt lat="46.61956" lon="6.07039">
        <ele>1057.11</ele>
        <time>2013-05-09T13:32:26Z</time>
      </trkpt>
      <trkpt lat="46.61963" lon="6.0703">
        <ele>1056.63</ele>
        <time>2013-05-09T13:32:27Z</time>
      </trkpt>
      <trkpt lat="46.62005" lon="6.06974">
        <ele>1053.26</ele>
        <time>2013-05-09T13:32:33Z</time>
      </trkpt>
      <trkpt lat="46.62021" lon="6.0694">
        <ele>1051.34</ele>
        <time>2013-05-09T13:32:36Z</time>
      </trkpt>
      <trkpt lat="46.62024" lon="6.06927">
        <ele>1050.38</ele>
        <time>2013-05-09T13:32:37Z</time>
      </trkpt>
      <trkpt lat="46.62029" lon="6.06888">
        <ele>1048.94</ele>
        <time>2013-05-09T13:32:40Z</time>
      </trkpt>
      <trkpt lat="46.62033" lon="6.06876">
        <ele>1047.97</ele>
        <time>2013-05-09T13:32:41Z</time>
      </trkpt>
      <trkpt lat="46.62036" lon="6.06864">
        <ele>1047.01</ele>
        <time>2013-05-09T13:32:42Z</time>
      </trkpt>
      <trkpt lat="46.6204" lon="6.06852">
        <ele>1046.53</ele>
        <time>2013-05-09T13:32:43Z</time>
      </trkpt>
      <trkpt lat="46.62044" lon="6.0684">
        <ele>1046.05</ele>
        <time>2013-05-09T13:32:44Z</time>
      </trkpt>
      <trkpt lat="46.62047" lon="6.06829">
        <ele>1045.57</ele>
        <time>2013-05-09T13:32:45Z</time>
      </trkpt>
      <trkpt lat="46.62054" lon="6.06809">
        <ele>1044.61</ele>
        <time>2013-05-09T13:32:47Z</time>
      </trkpt>
      <trkpt lat="46.62059" lon="6.068">
        <ele>1044.13</ele>
        <time>2013-05-09T13:32:48Z</time>
      </trkpt>
      <trkpt lat="46.62064" lon="6.06793">
        <ele>1043.65</ele>
        <time>2013-05-09T13:32:49Z</time>
      </trkpt>
      <trkpt lat="46.6207" lon="6.06787">
        <ele>1043.65</ele>
        <time>2013-05-09T13:32:50Z</time>
      </trkpt>
      <trkpt lat="46.62077" lon="6.06781">
        <ele>1042.69</ele>
        <time>2013-05-09T13:32:51Z</time>
      </trkpt>
      <trkpt lat="46.62105" lon="6.06758">
        <ele>1039.32</ele>
        <time>2013-05-09T13:32:55Z</time>
      </trkpt>
      <trkpt lat="46.62113" lon="6.06753">
        <ele>1039.32</ele>
        <time>2013-05-09T13:32:56Z</time>
      </trkpt>
      <trkpt lat="46.62121" lon="6.06749">
        <ele>1036.92</ele>
        <time>2013-05-09T13:32:57Z</time>
      </trkpt>
      <trkpt lat="46.62148" lon="6.06735">
        <ele>1034.04</ele>
        <time>2013-05-09T13:33:00Z</time>
      </trkpt>
      <trkpt lat="46.62201" lon="6.06715">
        <ele>1032.11</ele>
        <time>2013-05-09T13:33:06Z</time>
      </trkpt>
      <trkpt lat="46.62217" lon="6.06704">
        <ele>1031.63</ele>
        <time>2013-05-09T13:33:08Z</time>
      </trkpt>
      <trkpt lat="46.62249" lon="6.06667">
        <ele>1031.63</ele>
        <time>2013-05-09T13:33:13Z</time>
      </trkpt>
      <trkpt lat="46.62254" lon="6.0666">
        <ele>1031.15</ele>
        <time>2013-05-09T13:33:14Z</time>
      </trkpt>
      <trkpt lat="46.62259" lon="6.06655">
        <ele>1031.63</ele>
        <time>2013-05-09T13:33:15Z</time>
      </trkpt>
      <trkpt lat="46.62264" lon="6.0665">
        <ele>1032.11</ele>
        <time>2013-05-09T13:33:16Z</time>
      </trkpt>
      <trkpt lat="46.62268" lon="6.06645">
        <ele>1031.63</ele>
        <time>2013-05-09T13:33:17Z</time>
      </trkpt>
      <trkpt lat="46.62272" lon="6.0664">
        <ele>1031.63</ele>
        <time>2013-05-09T13:33:18Z</time>
      </trkpt>
      <trkpt lat="46.62277" lon="6.06634">
        <ele>1031.63</ele>
        <time>2013-05-09T13:33:19Z</time>
      </trkpt>
      <trkpt lat="46.62295" lon="6.06617">
        <ele>1028.27</ele>
        <time>2013-05-09T13:33:22Z</time>
      </trkpt>
      <trkpt lat="46.62347" lon="6.06578">
        <ele>1024.9</ele>
        <time>2013-05-09T13:33:29Z</time>
      </trkpt>
      <trkpt lat="46.62354" lon="6.0657">
        <ele>1024.42</ele>
        <time>2013-05-09T13:33:30Z</time>
      </trkpt>
      <trkpt lat="46.62361" lon="6.06562">
        <ele>1023.94</ele>
        <time>2013-05-09T13:33:31Z</time>
      </trkpt>
      <trkpt lat="46.62367" lon="6.06553">
        <ele>1023.94</ele>
        <time>2013-05-09T13:33:32Z</time>
      </trkpt>
      <trkpt lat="46.62372" lon="6.06544">
        <ele>1023.46</ele>
        <time>2013-05-09T13:33:33Z</time>
      </trkpt>
      <trkpt lat="46.62376" lon="6.06534">
        <ele>1023.46</ele>
        <time>2013-05-09T13:33:34Z</time>
      </trkpt>
      <trkpt lat="46.62381" lon="6.06524">
        <ele>1023.94</ele>
        <time>2013-05-09T13:33:35Z</time>
      </trkpt>
      <trkpt lat="46.62387" lon="6.06506">
        <ele>1024.42</ele>
        <time>2013-05-09T13:33:37Z</time>
      </trkpt>
      <trkpt lat="46.6239" lon="6.06499">
        <ele>1024.9</ele>
        <time>2013-05-09T13:33:38Z</time>
      </trkpt>
      <trkpt lat="46.62399" lon="6.06474">
        <ele>1026.34</ele>
        <time>2013-05-09T13:33:42Z</time>
      </trkpt>
      <trkpt lat="46.6242" lon="6.06426">
        <ele>1029.23</ele>
        <time>2013-05-09T13:33:52Z</time>
      </trkpt>
      <trkpt lat="46.62455" lon="6.06409">
        <ele>1030.19</ele>
        <time>2013-05-09T13:34:03Z</time>
      </trkpt>
      <trkpt lat="46.62491" lon="6.06397">
        <ele>1032.59</ele>
        <time>2013-05-09T13:34:15Z</time>
      </trkpt>
      <trkpt lat="46.62518" lon="6.06382">
        <ele>1034.52</ele>
        <time>2013-05-09T13:34:28Z</time>
      </trkpt>
      <trkpt lat="46.6253" lon="6.06366">
        <ele>1035.96</ele>
        <time>2013-05-09T13:34:42Z</time>
      </trkpt>
      <trkpt lat="46.6254" lon="6.06359">
        <ele>1036.92</ele>
        <time>2013-05-09T13:34:50Z</time>
      </trkpt>
      <trkpt lat="46.62542" lon="6.06359">
        <ele>1036.92</ele>
        <time>2013-05-09T13:34:51Z</time>
      </trkpt>
      <trkpt lat="46.62543" lon="6.06359">
        <ele>1037.4</ele>
        <time>2013-05-09T13:34:52Z</time>
      </trkpt>
      <trkpt lat="46.62545" lon="6.06359">
        <ele>1037.88</ele>
        <time>2013-05-09T13:34:53Z</time>
      </trkpt>
      <trkpt lat="46.62547" lon="6.06361">
        <ele>1037.88</ele>
        <time>2013-05-09T13:34:54Z</time>
      </trkpt>
      <trkpt lat="46.62548" lon="6.06362">
        <ele>1037.88</ele>
        <time>2013-05-09T13:34:55Z</time>
      </trkpt>
      <trkpt lat="46.62567" lon="6.06375">
        <ele>1039.32</ele>
        <time>2013-05-09T13:35:07Z</time>
      </trkpt>
      <trkpt lat="46.62569" lon="6.0638">
        <ele>1038.84</ele>
        <time>2013-05-09T13:35:09Z</time>
      </trkpt>
      <trkpt lat="46.6257" lon="6.06383">
        <ele>1038.84</ele>
        <time>2013-05-09T13:35:10Z</time>
      </trkpt>
      <trkpt lat="46.62571" lon="6.06387">
        <ele>1039.32</ele>
        <time>2013-05-09T13:35:11Z</time>
      </trkpt>
      <trkpt lat="46.62572" lon="6.0639">
        <ele>1039.32</ele>
        <time>2013-05-09T13:35:12Z</time>
      </trkpt>
      <trkpt lat="46.62574" lon="6.06393">
        <ele>1039.32</ele>
        <time>2013-05-09T13:35:13Z</time>
      </trkpt>
      <trkpt lat="46.62575" lon="6.06396">
        <ele>1039.32</ele>
        <time>2013-05-09T13:35:14Z</time>
      </trkpt>
      <trkpt lat="46.62576" lon="6.064">
        <ele>1039.32</ele>
        <time>2013-05-09T13:35:15Z</time>
      </trkpt>
      <trkpt lat="46.62576" lon="6.06403">
        <ele>1039.8</ele>
        <time>2013-05-09T13:35:16Z</time>
      </trkpt>
      <trkpt lat="46.62577" lon="6.06406">
        <ele>1039.8</ele>
        <time>2013-05-09T13:35:17Z</time>
      </trkpt>
      <trkpt lat="46.62577" lon="6.06408">
        <ele>1039.8</ele>
        <time>2013-05-09T13:35:18Z</time>
      </trkpt>
      <trkpt lat="46.62577" lon="6.06411">
        <ele>1040.28</ele>
        <time>2013-05-09T13:35:19Z</time>
      </trkpt>
      <trkpt lat="46.62578" lon="6.06414">
        <ele>1040.76</ele>
        <time>2013-05-09T13:35:20Z</time>
      </trkpt>
      <trkpt lat="46.62579" lon="6.06416">
        <ele>1040.76</ele>
        <time>2013-05-09T13:35:21Z</time>
      </trkpt>
      <trkpt lat="46.6258" lon="6.06418">
        <ele>1040.76</ele>
        <time>2013-05-09T13:35:22Z</time>
      </trkpt>
      <trkpt lat="46.62581" lon="6.0642">
        <ele>1041.25</ele>
        <time>2013-05-09T13:35:23Z</time>
      </trkpt>
      <trkpt lat="46.62581" lon="6.06422">
        <ele>1041.25</ele>
        <time>2013-05-09T13:35:24Z</time>
      </trkpt>
      <trkpt lat="46.62582" lon="6.06425">
        <ele>1041.25</ele>
        <time>2013-05-09T13:35:25Z</time>
      </trkpt>
      <trkpt lat="46.62582" lon="6.06428">
        <ele>1041.73</ele>
        <time>2013-05-09T13:35:26Z</time>
      </trkpt>
      <trkpt lat="46.62582" lon="6.0643">
        <ele>1042.21</ele>
        <time>2013-05-09T13:35:27Z</time>
      </trkpt>
      <trkpt lat="46.62583" lon="6.06432">
        <ele>1042.21</ele>
        <time>2013-05-09T13:35:28Z</time>
      </trkpt>
      <trkpt lat="46.62595" lon="6.06453">
        <ele>1044.13</ele>
        <time>2013-05-09T13:35:39Z</time>
      </trkpt>
      <trkpt lat="46.62595" lon="6.06454">
        <ele>1044.13</ele>
        <time>2013-05-09T13:35:40Z</time>
      </trkpt>
      <trkpt lat="46.62597" lon="6.06456">
        <ele>1044.61</ele>
        <time>2013-05-09T13:35:41Z</time>
      </trkpt>
      <trkpt lat="46.62598" lon="6.06459">
        <ele>1045.09</ele>
        <time>2013-05-09T13:35:42Z</time>
      </trkpt>
      <trkpt lat="46.62599" lon="6.06461">
        <ele>1045.09</ele>
        <time>2013-05-09T13:35:43Z</time>
      </trkpt>
      <trkpt lat="46.62601" lon="6.06463">
        <ele>1045.09</ele>
        <time>2013-05-09T13:35:44Z</time>
      </trkpt>
      <trkpt lat="46.62615" lon="6.06486">
        <ele>1046.05</ele>
        <time>2013-05-09T13:35:53Z</time>
      </trkpt>
      <trkpt lat="46.62617" lon="6.06486">
        <ele>1046.05</ele>
        <time>2013-05-09T13:35:54Z</time>
      </trkpt>
      <trkpt lat="46.62652" lon="6.06494">
        <ele>1046.53</ele>
        <time>2013-05-09T13:36:07Z</time>
      </trkpt>
      <trkpt lat="46.6267" lon="6.06504">
        <ele>1047.01</ele>
        <time>2013-05-09T13:36:16Z</time>
      </trkpt>
      <trkpt lat="46.62697" lon="6.06528">
        <ele>1046.53</ele>
        <time>2013-05-09T13:36:27Z</time>
      </trkpt>
      <trkpt lat="46.62726" lon="6.06557">
        <ele>1041.25</ele>
        <time>2013-05-09T13:36:36Z</time>
      </trkpt>
      <trkpt lat="46.62729" lon="6.0656">
        <ele>1048.45</ele>
        <time>2013-05-09T13:36:37Z</time>
      </trkpt>
      <trkpt lat="46.62733" lon="6.06563">
        <ele>1047.97</ele>
        <time>2013-05-09T13:36:38Z</time>
      </trkpt>
      <trkpt lat="46.6274" lon="6.06566">
        <ele>1047.01</ele>
        <time>2013-05-09T13:36:40Z</time>
      </trkpt>
      <trkpt lat="46.6277" lon="6.06582">
        <ele>1049.9</ele>
        <time>2013-05-09T13:36:48Z</time>
      </trkpt>
      <trkpt lat="46.62773" lon="6.06584">
        <ele>1042.21</ele>
        <time>2013-05-09T13:36:49Z</time>
      </trkpt>
      <trkpt lat="46.62776" lon="6.06588">
        <ele>1048.94</ele>
        <time>2013-05-09T13:36:50Z</time>
      </trkpt>
      <trkpt lat="46.62786" lon="6.06596">
        <ele>1045.57</ele>
        <time>2013-05-09T13:36:53Z</time>
      </trkpt>
      <trkpt lat="46.62811" lon="6.06626">
        <ele>1045.09</ele>
        <time>2013-05-09T13:37:02Z</time>
      </trkpt>
      <trkpt lat="46.62839" lon="6.06656">
        <ele>1048.45</ele>
        <time>2013-05-09T13:37:11Z</time>
      </trkpt>
      <trkpt lat="46.62873" lon="6.06699">
        <ele>1050.38</ele>
        <time>2013-05-09T13:37:23Z</time>
      </trkpt>
      <trkpt lat="46.62901" lon="6.06712">
        <ele>1051.34</ele>
        <time>2013-05-09T13:37:32Z</time>
      </trkpt>
      <trkpt lat="46.62934" lon="6.06692">
        <ele>1051.34</ele>
        <time>2013-05-09T13:37:43Z</time>
      </trkpt>
      <trkpt lat="46.62959" lon="6.06665">
        <ele>1050.86</ele>
        <time>2013-05-09T13:37:53Z</time>
      </trkpt>
      <trkpt lat="46.62971" lon="6.06651">
        <ele>1051.34</ele>
        <time>2013-05-09T13:37:59Z</time>
      </trkpt>
      <trkpt lat="46.62973" lon="6.06648">
        <ele>1051.34</ele>
        <time>2013-05-09T13:38:00Z</time>
      </trkpt>
      <trkpt lat="46.62975" lon="6.06645">
        <ele>1051.34</ele>
        <time>2013-05-09T13:38:01Z</time>
      </trkpt>
      <trkpt lat="46.63008" lon="6.06618">
        <ele>1053.26</ele>
        <time>2013-05-09T13:38:15Z</time>
      </trkpt>
      <trkpt lat="46.63012" lon="6.06616">
        <ele>1053.26</ele>
        <time>2013-05-09T13:38:17Z</time>
      </trkpt>
      <trkpt lat="46.63013" lon="6.06616">
        <ele>1053.74</ele>
        <time>2013-05-09T13:38:18Z</time>
      </trkpt>
      <trkpt lat="46.63015" lon="6.06616">
        <ele>1053.74</ele>
        <time>2013-05-09T13:38:19Z</time>
      </trkpt>
      <trkpt lat="46.63017" lon="6.06615">
        <ele>1053.74</ele>
        <time>2013-05-09T13:38:20Z</time>
      </trkpt>
      <trkpt lat="46.63019" lon="6.06616">
        <ele>1053.74</ele>
        <time>2013-05-09T13:38:21Z</time>
      </trkpt>
      <trkpt lat="46.63022" lon="6.06616">
        <ele>1054.22</ele>
        <time>2013-05-09T13:38:22Z</time>
      </trkpt>
      <trkpt lat="46.63025" lon="6.06617">
        <ele>1054.22</ele>
        <time>2013-05-09T13:38:23Z</time>
      </trkpt>
      <trkpt lat="46.63027" lon="6.06618">
        <ele>1054.22</ele>
        <time>2013-05-09T13:38:24Z</time>
      </trkpt>
      <trkpt lat="46.63029" lon="6.0662">
        <ele>1054.7</ele>
        <time>2013-05-09T13:38:25Z</time>
      </trkpt>
      <trkpt lat="46.63031" lon="6.06622">
        <ele>1054.7</ele>
        <time>2013-05-09T13:38:26Z</time>
      </trkpt>
      <trkpt lat="46.63033" lon="6.06625">
        <ele>1054.7</ele>
        <time>2013-05-09T13:38:27Z</time>
      </trkpt>
      <trkpt lat="46.63035" lon="6.06626">
        <ele>1055.18</ele>
        <time>2013-05-09T13:38:28Z</time>
      </trkpt>
      <trkpt lat="46.63036" lon="6.06629">
        <ele>1055.18</ele>
        <time>2013-05-09T13:38:29Z</time>
      </trkpt>
      <trkpt lat="46.63037" lon="6.06631">
        <ele>1055.18</ele>
        <time>2013-05-09T13:38:30Z</time>
      </trkpt>
      <trkpt lat="46.63038" lon="6.06633">
        <ele>1055.18</ele>
        <time>2013-05-09T13:38:31Z</time>
      </trkpt>
      <trkpt lat="46.63039" lon="6.06635">
        <ele>1055.67</ele>
        <time>2013-05-09T13:38:32Z</time>
      </trkpt>
      <trkpt lat="46.63042" lon="6.06637">
        <ele>1055.67</ele>
        <time>2013-05-09T13:38:46Z</time>
      </trkpt>
      <trkpt lat="46.63042" lon="6.06637">
        <ele>1057.11</ele>
        <time>2013-05-09T13:38:59Z</time>
      </trkpt>
      <trkpt lat="46.63042" lon="6.06637">
        <ele>1055.67</ele>
        <time>2013-05-09T13:39:01Z</time>
      </trkpt>
      <trkpt lat="46.63042" lon="6.06637">
        <ele>1055.67</ele>
        <time>2013-05-09T13:39:31Z</time>
      </trkpt>
      <trkpt lat="46.63048" lon="6.06645">
        <ele>1055.18</ele>
        <time>2013-05-09T13:39:44Z</time>
      </trkpt>
      <trkpt lat="46.63049" lon="6.06647">
        <ele>1055.18</ele>
        <time>2013-05-09T13:39:45Z</time>
      </trkpt>
      <trkpt lat="46.6305" lon="6.06649">
        <ele>1055.18</ele>
        <time>2013-05-09T13:39:46Z</time>
      </trkpt>
      <trkpt lat="46.63063" lon="6.06687">
        <ele>1053.26</ele>
        <time>2013-05-09T13:39:57Z</time>
      </trkpt>
      <trkpt lat="46.63072" lon="6.06714">
        <ele>1052.78</ele>
        <time>2013-05-09T13:40:03Z</time>
      </trkpt>
      <trkpt lat="46.63074" lon="6.06716">
        <ele>1052.3</ele>
        <time>2013-05-09T13:40:04Z</time>
      </trkpt>
      <trkpt lat="46.63078" lon="6.06717">
        <ele>1052.3</ele>
        <time>2013-05-09T13:40:05Z</time>
      </trkpt>
      <trkpt lat="46.63136" lon="6.06727">
        <ele>1051.82</ele>
        <time>2013-05-09T13:40:18Z</time>
      </trkpt>
      <trkpt lat="46.63149" lon="6.06736">
        <ele>1050.38</ele>
        <time>2013-05-09T13:40:21Z</time>
      </trkpt>
      <trkpt lat="46.63154" lon="6.06738">
        <ele>1050.38</ele>
        <time>2013-05-09T13:40:22Z</time>
      </trkpt>
      <trkpt lat="46.63159" lon="6.0674">
        <ele>1050.38</ele>
        <time>2013-05-09T13:40:23Z</time>
      </trkpt>
      <trkpt lat="46.63164" lon="6.0674">
        <ele>1050.86</ele>
        <time>2013-05-09T13:40:24Z</time>
      </trkpt>
      <trkpt lat="46.63168" lon="6.06741">
        <ele>1050.86</ele>
        <time>2013-05-09T13:40:25Z</time>
      </trkpt>
      <trkpt lat="46.63172" lon="6.06742">
        <ele>1050.86</ele>
        <time>2013-05-09T13:40:26Z</time>
      </trkpt>
      <trkpt lat="46.63176" lon="6.06742">
        <ele>1050.86</ele>
        <time>2013-05-09T13:40:27Z</time>
      </trkpt>
      <trkpt lat="46.6318" lon="6.06743">
        <ele>1050.86</ele>
        <time>2013-05-09T13:40:28Z</time>
      </trkpt>
      <trkpt lat="46.63208" lon="6.06769">
        <ele>1050.86</ele>
        <time>2013-05-09T13:40:39Z</time>
      </trkpt>
      <trkpt lat="46.63236" lon="6.06789">
        <ele>1052.3</ele>
        <time>2013-05-09T13:40:49Z</time>
      </trkpt>
      <trkpt lat="46.63272" lon="6.068">
        <ele>1054.22</ele>
        <time>2013-05-09T13:41:00Z</time>
      </trkpt>
      <trkpt lat="46.6329" lon="6.06807">
        <ele>1055.18</ele>
        <time>2013-05-09T13:41:05Z</time>
      </trkpt>
      <trkpt lat="46.63294" lon="6.06811">
        <ele>1055.18</ele>
        <time>2013-05-09T13:41:06Z</time>
      </trkpt>
      <trkpt lat="46.63298" lon="6.06817">
        <ele>1056.15</ele>
        <time>2013-05-09T13:41:07Z</time>
      </trkpt>
      <trkpt lat="46.63301" lon="6.06823">
        <ele>1056.63</ele>
        <time>2013-05-09T13:41:08Z</time>
      </trkpt>
      <trkpt lat="46.63304" lon="6.0683">
        <ele>1057.11</ele>
        <time>2013-05-09T13:41:09Z</time>
      </trkpt>
      <trkpt lat="46.63305" lon="6.06838">
        <ele>1057.11</ele>
        <time>2013-05-09T13:41:10Z</time>
      </trkpt>
      <trkpt lat="46.63308" lon="6.06845">
        <ele>1057.59</ele>
        <time>2013-05-09T13:41:11Z</time>
      </trkpt>
      <trkpt lat="46.6331" lon="6.06851">
        <ele>1058.07</ele>
        <time>2013-05-09T13:41:12Z</time>
      </trkpt>
      <trkpt lat="46.63312" lon="6.06857">
        <ele>1058.07</ele>
        <time>2013-05-09T13:41:13Z</time>
      </trkpt>
      <trkpt lat="46.63313" lon="6.06864">
        <ele>1058.55</ele>
        <time>2013-05-09T13:41:14Z</time>
      </trkpt>
      <trkpt lat="46.63315" lon="6.06882">
        <ele>1059.03</ele>
        <time>2013-05-09T13:41:17Z</time>
      </trkpt>
      <trkpt lat="46.63314" lon="6.06888">
        <ele>1059.51</ele>
        <time>2013-05-09T13:41:18Z</time>
      </trkpt>
      <trkpt lat="46.63314" lon="6.0692">
        <ele>1061.43</ele>
        <time>2013-05-09T13:41:24Z</time>
      </trkpt>
      <trkpt lat="46.63314" lon="6.06925">
        <ele>1061.43</ele>
        <time>2013-05-09T13:41:25Z</time>
      </trkpt>
      <trkpt lat="46.63314" lon="6.0693">
        <ele>1061.91</ele>
        <time>2013-05-09T13:41:26Z</time>
      </trkpt>
      <trkpt lat="46.63314" lon="6.06934">
        <ele>1061.91</ele>
        <time>2013-05-09T13:41:27Z</time>
      </trkpt>
      <trkpt lat="46.63314" lon="6.06939">
        <ele>1061.91</ele>
        <time>2013-05-09T13:41:28Z</time>
      </trkpt>
      <trkpt lat="46.63315" lon="6.06944">
        <ele>1062.39</ele>
        <time>2013-05-09T13:41:29Z</time>
      </trkpt>
      <trkpt lat="46.63315" lon="6.06949">
        <ele>1062.39</ele>
        <time>2013-05-09T13:41:30Z</time>
      </trkpt>
      <trkpt lat="46.63336" lon="6.07003">
        <ele>1065.28</ele>
        <time>2013-05-09T13:41:43Z</time>
      </trkpt>
      <trkpt lat="46.63364" lon="6.0706">
        <ele>1066.72</ele>
        <time>2013-05-09T13:41:56Z</time>
      </trkpt>
      <trkpt lat="46.63399" lon="6.07089">
        <ele>1069.12</ele>
        <time>2013-05-09T13:42:06Z</time>
      </trkpt>
      <trkpt lat="46.63402" lon="6.07094">
        <ele>1069.6</ele>
        <time>2013-05-09T13:42:07Z</time>
      </trkpt>
      <trkpt lat="46.63405" lon="6.07098">
        <ele>1069.6</ele>
        <time>2013-05-09T13:42:08Z</time>
      </trkpt>
      <trkpt lat="46.63407" lon="6.07104">
        <ele>1070.08</ele>
        <time>2013-05-09T13:42:09Z</time>
      </trkpt>
      <trkpt lat="46.63409" lon="6.07109">
        <ele>1070.57</ele>
        <time>2013-05-09T13:42:10Z</time>
      </trkpt>
      <trkpt lat="46.6341" lon="6.07115">
        <ele>1071.05</ele>
        <time>2013-05-09T13:42:11Z</time>
      </trkpt>
      <trkpt lat="46.63411" lon="6.07121">
        <ele>1071.05</ele>
        <time>2013-05-09T13:42:12Z</time>
      </trkpt>
      <trkpt lat="46.63412" lon="6.07127">
        <ele>1071.53</ele>
        <time>2013-05-09T13:42:13Z</time>
      </trkpt>
      <trkpt lat="46.63413" lon="6.07133">
        <ele>1071.53</ele>
        <time>2013-05-09T13:42:14Z</time>
      </trkpt>
      <trkpt lat="46.63414" lon="6.07137">
        <ele>1072.01</ele>
        <time>2013-05-09T13:42:15Z</time>
      </trkpt>
      <trkpt lat="46.63416" lon="6.07141">
        <ele>1072.01</ele>
        <time>2013-05-09T13:42:16Z</time>
      </trkpt>
      <trkpt lat="46.63419" lon="6.07145">
        <ele>1072.49</ele>
        <time>2013-05-09T13:42:17Z</time>
      </trkpt>
      <trkpt lat="46.63422" lon="6.07148">
        <ele>1072.01</ele>
        <time>2013-05-09T13:42:18Z</time>
      </trkpt>
      <trkpt lat="46.63425" lon="6.07151">
        <ele>1072.49</ele>
        <time>2013-05-09T13:42:19Z</time>
      </trkpt>
      <trkpt lat="46.63461" lon="6.07153">
        <ele>1072.01</ele>
        <time>2013-05-09T13:42:31Z</time>
      </trkpt>
      <trkpt lat="46.63497" lon="6.07146">
        <ele>1071.53</ele>
        <time>2013-05-09T13:42:44Z</time>
      </trkpt>
      <trkpt lat="46.63499" lon="6.07146">
        <ele>1071.05</ele>
        <time>2013-05-09T13:42:45Z</time>
      </trkpt>
      <trkpt lat="46.63501" lon="6.07147">
        <ele>1071.05</ele>
        <time>2013-05-09T13:42:46Z</time>
      </trkpt>
      <trkpt lat="46.63503" lon="6.07147">
        <ele>1071.53</ele>
        <time>2013-05-09T13:42:47Z</time>
      </trkpt>
      <trkpt lat="46.63506" lon="6.07147">
        <ele>1071.05</ele>
        <time>2013-05-09T13:42:48Z</time>
      </trkpt>
      <trkpt lat="46.63507" lon="6.07146">
        <ele>1070.57</ele>
        <time>2013-05-09T13:42:49Z</time>
      </trkpt>
      <trkpt lat="46.63509" lon="6.07145">
        <ele>1070.57</ele>
        <time>2013-05-09T13:42:50Z</time>
      </trkpt>
      <trkpt lat="46.63511" lon="6.07145">
        <ele>1070.57</ele>
        <time>2013-05-09T13:42:51Z</time>
      </trkpt>
      <trkpt lat="46.63513" lon="6.07145">
        <ele>1070.57</ele>
        <time>2013-05-09T13:42:52Z</time>
      </trkpt>
      <trkpt lat="46.6353" lon="6.07147">
        <ele>1069.6</ele>
        <time>2013-05-09T13:43:03Z</time>
      </trkpt>
      <trkpt lat="46.63536" lon="6.07153">
        <ele>1069.6</ele>
        <time>2013-05-09T13:43:17Z</time>
      </trkpt>
      <trkpt lat="46.63538" lon="6.07156">
        <ele>1069.12</ele>
        <time>2013-05-09T13:43:18Z</time>
      </trkpt>
      <trkpt lat="46.63541" lon="6.07159">
        <ele>1068.64</ele>
        <time>2013-05-09T13:43:19Z</time>
      </trkpt>
      <trkpt lat="46.63544" lon="6.07164">
        <ele>1068.64</ele>
        <time>2013-05-09T13:43:20Z</time>
      </trkpt>
      <trkpt lat="46.63546" lon="6.07169">
        <ele>1068.64</ele>
        <time>2013-05-09T13:43:21Z</time>
      </trkpt>
      <trkpt lat="46.63548" lon="6.07174">
        <ele>1068.16</ele>
        <time>2013-05-09T13:43:22Z</time>
      </trkpt>
      <trkpt lat="46.6355" lon="6.07179">
        <ele>1068.16</ele>
        <time>2013-05-09T13:43:23Z</time>
      </trkpt>
      <trkpt lat="46.63553" lon="6.07184">
        <ele>1068.16</ele>
        <time>2013-05-09T13:43:24Z</time>
      </trkpt>
      <trkpt lat="46.63556" lon="6.07189">
        <ele>1067.68</ele>
        <time>2013-05-09T13:43:25Z</time>
      </trkpt>
      <trkpt lat="46.6356" lon="6.07194">
        <ele>1067.2</ele>
        <time>2013-05-09T13:43:26Z</time>
      </trkpt>
      <trkpt lat="46.63564" lon="6.07198">
        <ele>1066.72</ele>
        <time>2013-05-09T13:43:27Z</time>
      </trkpt>
      <trkpt lat="46.63569" lon="6.072">
        <ele>1066.24</ele>
        <time>2013-05-09T13:43:28Z</time>
      </trkpt>
      <trkpt lat="46.63574" lon="6.07201">
        <ele>1066.24</ele>
        <time>2013-05-09T13:43:29Z</time>
      </trkpt>
      <trkpt lat="46.63579" lon="6.072">
        <ele>1066.24</ele>
        <time>2013-05-09T13:43:30Z</time>
      </trkpt>
      <trkpt lat="46.63584" lon="6.07199">
        <ele>1065.76</ele>
        <time>2013-05-09T13:43:31Z</time>
      </trkpt>
      <trkpt lat="46.63589" lon="6.07197">
        <ele>1065.76</ele>
        <time>2013-05-09T13:43:32Z</time>
      </trkpt>
      <trkpt lat="46.63612" lon="6.0718">
        <ele>1064.32</ele>
        <time>2013-05-09T13:43:37Z</time>
      </trkpt>
      <trkpt lat="46.63616" lon="6.07175">
        <ele>1063.84</ele>
        <time>2013-05-09T13:43:38Z</time>
      </trkpt>
      <trkpt lat="46.6362" lon="6.07169">
        <ele>1063.36</ele>
        <time>2013-05-09T13:43:39Z</time>
      </trkpt>
      <trkpt lat="46.63623" lon="6.07163">
        <ele>1062.87</ele>
        <time>2013-05-09T13:43:40Z</time>
      </trkpt>
      <trkpt lat="46.63627" lon="6.07157">
        <ele>1062.39</ele>
        <time>2013-05-09T13:43:41Z</time>
      </trkpt>
      <trkpt lat="46.63648" lon="6.07119">
        <ele>1059.51</ele>
        <time>2013-05-09T13:43:50Z</time>
      </trkpt>
      <trkpt lat="46.63664" lon="6.07112">
        <ele>1057.59</ele>
        <time>2013-05-09T13:43:54Z</time>
      </trkpt>
      <trkpt lat="46.63674" lon="6.07108">
        <ele>1055.67</ele>
        <time>2013-05-09T13:43:56Z</time>
      </trkpt>
      <trkpt lat="46.63679" lon="6.07105">
        <ele>1055.18</ele>
        <time>2013-05-09T13:43:57Z</time>
      </trkpt>
      <trkpt lat="46.63688" lon="6.07099">
        <ele>1054.22</ele>
        <time>2013-05-09T13:43:59Z</time>
      </trkpt>
      <trkpt lat="46.63701" lon="6.0709">
        <ele>1053.26</ele>
        <time>2013-05-09T13:44:02Z</time>
      </trkpt>
      <trkpt lat="46.63705" lon="6.07088">
        <ele>1052.78</ele>
        <time>2013-05-09T13:44:03Z</time>
      </trkpt>
      <trkpt lat="46.63709" lon="6.07085">
        <ele>1052.3</ele>
        <time>2013-05-09T13:44:04Z</time>
      </trkpt>
      <trkpt lat="46.63713" lon="6.07084">
        <ele>1052.3</ele>
        <time>2013-05-09T13:44:05Z</time>
      </trkpt>
      <trkpt lat="46.63717" lon="6.07085">
        <ele>1051.82</ele>
        <time>2013-05-09T13:44:06Z</time>
      </trkpt>
      <trkpt lat="46.63721" lon="6.07086">
        <ele>1051.82</ele>
        <time>2013-05-09T13:44:07Z</time>
      </trkpt>
      <trkpt lat="46.63725" lon="6.07089">
        <ele>1051.34</ele>
        <time>2013-05-09T13:44:08Z</time>
      </trkpt>
      <trkpt lat="46.63727" lon="6.07094">
        <ele>1050.86</ele>
        <time>2013-05-09T13:44:09Z</time>
      </trkpt>
      <trkpt lat="46.6373" lon="6.071">
        <ele>1050.86</ele>
        <time>2013-05-09T13:44:10Z</time>
      </trkpt>
      <trkpt lat="46.63741" lon="6.07121">
        <ele>1049.42</ele>
        <time>2013-05-09T13:44:15Z</time>
      </trkpt>
      <trkpt lat="46.63745" lon="6.07122">
        <ele>1049.42</ele>
        <time>2013-05-09T13:44:16Z</time>
      </trkpt>
      <trkpt lat="46.63756" lon="6.07126">
        <ele>1048.45</ele>
        <time>2013-05-09T13:44:19Z</time>
      </trkpt>
      <trkpt lat="46.63763" lon="6.07131">
        <ele>1047.49</ele>
        <time>2013-05-09T13:44:20Z</time>
      </trkpt>
      <trkpt lat="46.63769" lon="6.07138">
        <ele>1047.01</ele>
        <time>2013-05-09T13:44:21Z</time>
      </trkpt>
      <trkpt lat="46.63773" lon="6.07144">
        <ele>1047.01</ele>
        <time>2013-05-09T13:44:22Z</time>
      </trkpt>
      <trkpt lat="46.63777" lon="6.07151">
        <ele>1046.05</ele>
        <time>2013-05-09T13:44:23Z</time>
      </trkpt>
      <trkpt lat="46.63781" lon="6.07159">
        <ele>1046.05</ele>
        <time>2013-05-09T13:44:24Z</time>
      </trkpt>
      <trkpt lat="46.63784" lon="6.07169">
        <ele>1045.09</ele>
        <time>2013-05-09T13:44:25Z</time>
      </trkpt>
      <trkpt lat="46.63786" lon="6.0718">
        <ele>1044.61</ele>
        <time>2013-05-09T13:44:26Z</time>
      </trkpt>
      <trkpt lat="46.63789" lon="6.0719">
        <ele>1044.61</ele>
        <time>2013-05-09T13:44:27Z</time>
      </trkpt>
      <trkpt lat="46.63794" lon="6.072">
        <ele>1044.13</ele>
        <time>2013-05-09T13:44:28Z</time>
      </trkpt>
      <trkpt lat="46.63799" lon="6.07207">
        <ele>1043.65</ele>
        <time>2013-05-09T13:44:29Z</time>
      </trkpt>
      <trkpt lat="46.63805" lon="6.07213">
        <ele>1043.65</ele>
        <time>2013-05-09T13:44:30Z</time>
      </trkpt>
      <trkpt lat="46.6381" lon="6.07221">
        <ele>1043.65</ele>
        <time>2013-05-09T13:44:31Z</time>
      </trkpt>
      <trkpt lat="46.63815" lon="6.07229">
        <ele>1043.17</ele>
        <time>2013-05-09T13:44:32Z</time>
      </trkpt>
      <trkpt lat="46.63819" lon="6.07239">
        <ele>1042.69</ele>
        <time>2013-05-09T13:44:33Z</time>
      </trkpt>
      <trkpt lat="46.63822" lon="6.07249">
        <ele>1042.21</ele>
        <time>2013-05-09T13:44:34Z</time>
      </trkpt>
      <trkpt lat="46.63824" lon="6.0726">
        <ele>1041.73</ele>
        <time>2013-05-09T13:44:35Z</time>
      </trkpt>
      <trkpt lat="46.63826" lon="6.07271">
        <ele>1041.73</ele>
        <time>2013-05-09T13:44:36Z</time>
      </trkpt>
      <trkpt lat="46.63826" lon="6.07283">
        <ele>1041.25</ele>
        <time>2013-05-09T13:44:37Z</time>
      </trkpt>
      <trkpt lat="46.63826" lon="6.07295">
        <ele>1041.73</ele>
        <time>2013-05-09T13:44:38Z</time>
      </trkpt>
      <trkpt lat="46.63824" lon="6.07306">
        <ele>1040.28</ele>
        <time>2013-05-09T13:44:39Z</time>
      </trkpt>
      <trkpt lat="46.63822" lon="6.07317">
        <ele>1039.32</ele>
        <time>2013-05-09T13:44:40Z</time>
      </trkpt>
      <trkpt lat="46.63819" lon="6.07328">
        <ele>1038.84</ele>
        <time>2013-05-09T13:44:41Z</time>
      </trkpt>
      <trkpt lat="46.63818" lon="6.07338">
        <ele>1038.36</ele>
        <time>2013-05-09T13:44:42Z</time>
      </trkpt>
      <trkpt lat="46.63818" lon="6.07349">
        <ele>1037.88</ele>
        <time>2013-05-09T13:44:43Z</time>
      </trkpt>
      <trkpt lat="46.63819" lon="6.07359">
        <ele>1037.4</ele>
        <time>2013-05-09T13:44:44Z</time>
      </trkpt>
      <trkpt lat="46.63823" lon="6.07369">
        <ele>1036.44</ele>
        <time>2013-05-09T13:44:45Z</time>
      </trkpt>
      <trkpt lat="46.63827" lon="6.07378">
        <ele>1035.96</ele>
        <time>2013-05-09T13:44:46Z</time>
      </trkpt>
      <trkpt lat="46.63832" lon="6.07386">
        <ele>1035.48</ele>
        <time>2013-05-09T13:44:47Z</time>
      </trkpt>
      <trkpt lat="46.63836" lon="6.07395">
        <ele>1035</ele>
        <time>2013-05-09T13:44:48Z</time>
      </trkpt>
      <trkpt lat="46.6384" lon="6.07406">
        <ele>1034.52</ele>
        <time>2013-05-09T13:44:49Z</time>
      </trkpt>
      <trkpt lat="46.63843" lon="6.07418">
        <ele>1034.04</ele>
        <time>2013-05-09T13:44:50Z</time>
      </trkpt>
      <trkpt lat="46.63854" lon="6.07452">
        <ele>1032.11</ele>
        <time>2013-05-09T13:44:53Z</time>
      </trkpt>
      <trkpt lat="46.63859" lon="6.07463">
        <ele>1031.63</ele>
        <time>2013-05-09T13:44:54Z</time>
      </trkpt>
      <trkpt lat="46.63882" lon="6.07506">
        <ele>1029.71</ele>
        <time>2013-05-09T13:44:59Z</time>
      </trkpt>
      <trkpt lat="46.63889" lon="6.07511">
        <ele>1029.71</ele>
        <time>2013-05-09T13:45:00Z</time>
      </trkpt>
      <trkpt lat="46.63896" lon="6.07514">
        <ele>1029.71</ele>
        <time>2013-05-09T13:45:01Z</time>
      </trkpt>
      <trkpt lat="46.63903" lon="6.07514">
        <ele>1029.71</ele>
        <time>2013-05-09T13:45:02Z</time>
      </trkpt>
      <trkpt lat="46.63908" lon="6.07512">
        <ele>1030.19</ele>
        <time>2013-05-09T13:45:03Z</time>
      </trkpt>
      <trkpt lat="46.63912" lon="6.07509">
        <ele>1030.67</ele>
        <time>2013-05-09T13:45:04Z</time>
      </trkpt>
      <trkpt lat="46.63915" lon="6.07505">
        <ele>1031.15</ele>
        <time>2013-05-09T13:45:05Z</time>
      </trkpt>
      <trkpt lat="46.63918" lon="6.07502">
        <ele>1031.63</ele>
        <time>2013-05-09T13:45:06Z</time>
      </trkpt>
      <trkpt lat="46.63957" lon="6.07471">
        <ele>1031.63</ele>
        <time>2013-05-09T13:45:16Z</time>
      </trkpt>
      <trkpt lat="46.63961" lon="6.0747">
        <ele>1032.11</ele>
        <time>2013-05-09T13:45:17Z</time>
      </trkpt>
      <trkpt lat="46.63966" lon="6.07471">
        <ele>1031.63</ele>
        <time>2013-05-09T13:45:18Z</time>
      </trkpt>
      <trkpt lat="46.63972" lon="6.07473">
        <ele>1031.63</ele>
        <time>2013-05-09T13:45:19Z</time>
      </trkpt>
      <trkpt lat="46.63977" lon="6.07475">
        <ele>1031.63</ele>
        <time>2013-05-09T13:45:20Z</time>
      </trkpt>
      <trkpt lat="46.63982" lon="6.07477">
        <ele>1031.63</ele>
        <time>2013-05-09T13:45:21Z</time>
      </trkpt>
      <trkpt lat="46.63987" lon="6.07479">
        <ele>1031.63</ele>
        <time>2013-05-09T13:45:22Z</time>
      </trkpt>
      <trkpt lat="46.63999" lon="6.07487">
        <ele>1031.63</ele>
        <time>2013-05-09T13:45:25Z</time>
      </trkpt>
      <trkpt lat="46.64011" lon="6.07495">
        <ele>1031.63</ele>
        <time>2013-05-09T13:45:28Z</time>
      </trkpt>
      <trkpt lat="46.64019" lon="6.07501">
        <ele>1031.15</ele>
        <time>2013-05-09T13:45:30Z</time>
      </trkpt>
      <trkpt lat="46.64024" lon="6.07504">
        <ele>1031.15</ele>
        <time>2013-05-09T13:45:31Z</time>
      </trkpt>
      <trkpt lat="46.64065" lon="6.07539">
        <ele>1030.19</ele>
        <time>2013-05-09T13:45:42Z</time>
      </trkpt>
      <trkpt lat="46.64069" lon="6.07543">
        <ele>1030.19</ele>
        <time>2013-05-09T13:45:43Z</time>
      </trkpt>
      <trkpt lat="46.64074" lon="6.07548">
        <ele>1030.19</ele>
        <time>2013-05-09T13:45:44Z</time>
      </trkpt>
      <trkpt lat="46.64078" lon="6.07552">
        <ele>1030.19</ele>
        <time>2013-05-09T13:45:45Z</time>
      </trkpt>
      <trkpt lat="46.64082" lon="6.07556">
        <ele>1030.19</ele>
        <time>2013-05-09T13:45:46Z</time>
      </trkpt>
      <trkpt lat="46.64086" lon="6.0756">
        <ele>1030.19</ele>
        <time>2013-05-09T13:45:47Z</time>
      </trkpt>
      <trkpt lat="46.6409" lon="6.07564">
        <ele>1030.19</ele>
        <time>2013-05-09T13:45:48Z</time>
      </trkpt>
      <trkpt lat="46.64095" lon="6.07568">
        <ele>1030.19</ele>
        <time>2013-05-09T13:45:49Z</time>
      </trkpt>
      <trkpt lat="46.641" lon="6.07573">
        <ele>1030.19</ele>
        <time>2013-05-09T13:45:50Z</time>
      </trkpt>
      <trkpt lat="46.64108" lon="6.0758">
        <ele>1029.71</ele>
        <time>2013-05-09T13:45:52Z</time>
      </trkpt>
      <trkpt lat="46.64112" lon="6.07584">
        <ele>1029.71</ele>
        <time>2013-05-09T13:45:53Z</time>
      </trkpt>
      <trkpt lat="46.64121" lon="6.07591">
        <ele>1029.23</ele>
        <time>2013-05-09T13:45:55Z</time>
      </trkpt>
      <trkpt lat="46.64126" lon="6.07593">
        <ele>1029.23</ele>
        <time>2013-05-09T13:45:56Z</time>
      </trkpt>
      <trkpt lat="46.6413" lon="6.07597">
        <ele>1029.23</ele>
        <time>2013-05-09T13:45:57Z</time>
      </trkpt>
      <trkpt lat="46.64152" lon="6.07624">
        <ele>1028.75</ele>
        <time>2013-05-09T13:46:03Z</time>
      </trkpt>
      <trkpt lat="46.64172" lon="6.07653">
        <ele>1028.75</ele>
        <time>2013-05-09T13:46:09Z</time>
      </trkpt>
      <trkpt lat="46.64179" lon="6.07662">
        <ele>1028.75</ele>
        <time>2013-05-09T13:46:11Z</time>
      </trkpt>
      <trkpt lat="46.64182" lon="6.07668">
        <ele>1028.75</ele>
        <time>2013-05-09T13:46:12Z</time>
      </trkpt>
      <trkpt lat="46.64185" lon="6.07674">
        <ele>1028.75</ele>
        <time>2013-05-09T13:46:13Z</time>
      </trkpt>
      <trkpt lat="46.64188" lon="6.07679">
        <ele>1028.75</ele>
        <time>2013-05-09T13:46:14Z</time>
      </trkpt>
      <trkpt lat="46.64191" lon="6.07685">
        <ele>1028.75</ele>
        <time>2013-05-09T13:46:15Z</time>
      </trkpt>
      <trkpt lat="46.64207" lon="6.07741">
        <ele>1028.75</ele>
        <time>2013-05-09T13:46:23Z</time>
      </trkpt>
      <trkpt lat="46.64216" lon="6.0776">
        <ele>1028.27</ele>
        <time>2013-05-09T13:46:26Z</time>
      </trkpt>
      <trkpt lat="46.64219" lon="6.07765">
        <ele>1028.27</ele>
        <time>2013-05-09T13:46:27Z</time>
      </trkpt>
      <trkpt lat="46.64222" lon="6.07771">
        <ele>1028.75</ele>
        <time>2013-05-09T13:46:28Z</time>
      </trkpt>
      <trkpt lat="46.64225" lon="6.07776">
        <ele>1028.75</ele>
        <time>2013-05-09T13:46:29Z</time>
      </trkpt>
      <trkpt lat="46.64229" lon="6.0778">
        <ele>1028.75</ele>
        <time>2013-05-09T13:46:30Z</time>
      </trkpt>
      <trkpt lat="46.64232" lon="6.07785">
        <ele>1028.75</ele>
        <time>2013-05-09T13:46:31Z</time>
      </trkpt>
      <trkpt lat="46.64234" lon="6.0779">
        <ele>1028.75</ele>
        <time>2013-05-09T13:46:32Z</time>
      </trkpt>
      <trkpt lat="46.64237" lon="6.07796">
        <ele>1028.75</ele>
        <time>2013-05-09T13:46:33Z</time>
      </trkpt>
      <trkpt lat="46.64239" lon="6.07803">
        <ele>1028.75</ele>
        <time>2013-05-09T13:46:34Z</time>
      </trkpt>
      <trkpt lat="46.6424" lon="6.0781">
        <ele>1028.75</ele>
        <time>2013-05-09T13:46:35Z</time>
      </trkpt>
      <trkpt lat="46.64242" lon="6.07816">
        <ele>1028.75</ele>
        <time>2013-05-09T13:46:36Z</time>
      </trkpt>
      <trkpt lat="46.64248" lon="6.07834">
        <ele>1029.71</ele>
        <time>2013-05-09T13:46:39Z</time>
      </trkpt>
      <trkpt lat="46.64254" lon="6.07852">
        <ele>1028.75</ele>
        <time>2013-05-09T13:46:42Z</time>
      </trkpt>
      <trkpt lat="46.64257" lon="6.07857">
        <ele>1028.75</ele>
        <time>2013-05-09T13:46:43Z</time>
      </trkpt>
      <trkpt lat="46.64296" lon="6.07904">
        <ele>1028.27</ele>
        <time>2013-05-09T13:46:55Z</time>
      </trkpt>
      <trkpt lat="46.64306" lon="6.07918">
        <ele>1028.27</ele>
        <time>2013-05-09T13:46:58Z</time>
      </trkpt>
      <trkpt lat="46.64309" lon="6.07922">
        <ele>1028.27</ele>
        <time>2013-05-09T13:46:59Z</time>
      </trkpt>
      <trkpt lat="46.6434" lon="6.07967">
        <ele>1028.27</ele>
        <time>2013-05-09T13:47:08Z</time>
      </trkpt>
      <trkpt lat="46.64343" lon="6.07972">
        <ele>1027.79</ele>
        <time>2013-05-09T13:47:09Z</time>
      </trkpt>
      <trkpt lat="46.64346" lon="6.07977">
        <ele>1027.79</ele>
        <time>2013-05-09T13:47:10Z</time>
      </trkpt>
      <trkpt lat="46.64349" lon="6.07981">
        <ele>1027.79</ele>
        <time>2013-05-09T13:47:11Z</time>
      </trkpt>
      <trkpt lat="46.64352" lon="6.07986">
        <ele>1027.79</ele>
        <time>2013-05-09T13:47:12Z</time>
      </trkpt>
      <trkpt lat="46.64355" lon="6.0799">
        <ele>1027.79</ele>
        <time>2013-05-09T13:47:13Z</time>
      </trkpt>
      <trkpt lat="46.64357" lon="6.07994">
        <ele>1027.79</ele>
        <time>2013-05-09T13:47:14Z</time>
      </trkpt>
      <trkpt lat="46.64379" lon="6.08045">
        <ele>1027.79</ele>
        <time>2013-05-09T13:47:24Z</time>
      </trkpt>
      <trkpt lat="46.64394" lon="6.08069">
        <ele>1027.31</ele>
        <time>2013-05-09T13:47:29Z</time>
      </trkpt>
      <trkpt lat="46.64397" lon="6.08073">
        <ele>1027.31</ele>
        <time>2013-05-09T13:47:30Z</time>
      </trkpt>
      <trkpt lat="46.64403" lon="6.08082">
        <ele>1027.31</ele>
        <time>2013-05-09T13:47:32Z</time>
      </trkpt>
      <trkpt lat="46.64452" lon="6.08126">
        <ele>1026.83</ele>
        <time>2013-05-09T13:47:46Z</time>
      </trkpt>
      <trkpt lat="46.64471" lon="6.08139">
        <ele>1026.34</ele>
        <time>2013-05-09T13:47:51Z</time>
      </trkpt>
      <trkpt lat="46.64475" lon="6.08143">
        <ele>1026.83</ele>
        <time>2013-05-09T13:47:52Z</time>
      </trkpt>
      <trkpt lat="46.64478" lon="6.08146">
        <ele>1026.83</ele>
        <time>2013-05-09T13:47:53Z</time>
      </trkpt>
      <trkpt lat="46.64489" lon="6.08153">
        <ele>1026.83</ele>
        <time>2013-05-09T13:47:56Z</time>
      </trkpt>
      <trkpt lat="46.64493" lon="6.08155">
        <ele>1026.34</ele>
        <time>2013-05-09T13:47:57Z</time>
      </trkpt>
      <trkpt lat="46.64547" lon="6.08176">
        <ele>1026.83</ele>
        <time>2013-05-09T13:48:12Z</time>
      </trkpt>
      <trkpt lat="46.6455" lon="6.08175">
        <ele>1026.83</ele>
        <time>2013-05-09T13:48:13Z</time>
      </trkpt>
      <trkpt lat="46.64554" lon="6.08172">
        <ele>1026.83</ele>
        <time>2013-05-09T13:48:14Z</time>
      </trkpt>
      <trkpt lat="46.64558" lon="6.08167">
        <ele>1026.34</ele>
        <time>2013-05-09T13:48:15Z</time>
      </trkpt>
      <trkpt lat="46.64575" lon="6.0814">
        <ele>1024.42</ele>
        <time>2013-05-09T13:48:20Z</time>
      </trkpt>
      <trkpt lat="46.64586" lon="6.08113">
        <ele>1023.94</ele>
        <time>2013-05-09T13:48:28Z</time>
      </trkpt>
      <trkpt lat="46.64584" lon="6.08111">
        <ele>1023.94</ele>
        <time>2013-05-09T13:48:29Z</time>
      </trkpt>
      <trkpt lat="46.64583" lon="6.0811">
        <ele>1023.94</ele>
        <time>2013-05-09T13:48:30Z</time>
      </trkpt>
      <trkpt lat="46.64582" lon="6.0811">
        <ele>1023.94</ele>
        <time>2013-05-09T13:48:47Z</time>
      </trkpt>
      <trkpt lat="46.64582" lon="6.0811">
        <ele>1023.94</ele>
        <time>2013-05-09T13:49:18Z</time>
      </trkpt>
      <trkpt lat="46.64582" lon="6.0811">
        <ele>1023.94</ele>
        <time>2013-05-09T13:49:49Z</time>
      </trkpt>
      <trkpt lat="46.64582" lon="6.0811">
        <ele>1023.94</ele>
        <time>2013-05-09T13:50:24Z</time>
      </trkpt>
      <trkpt lat="46.64582" lon="6.0811">
        <ele>1023.94</ele>
        <time>2013-05-09T13:50:49Z</time>
      </trkpt>
      <trkpt lat="46.64582" lon="6.0811">
        <ele>1023.94</ele>
        <time>2013-05-09T13:51:12Z</time>
      </trkpt>
      <trkpt lat="46.64582" lon="6.08109">
        <ele>1023.94</ele>
        <time>2013-05-09T13:51:25Z</time>
      </trkpt>
      <trkpt lat="46.64582" lon="6.08109">
        <ele>1023.46</ele>
        <time>2013-05-09T13:51:41Z</time>
      </trkpt>
      <trkpt lat="46.64582" lon="6.08109">
        <ele>1023.94</ele>
        <time>2013-05-09T13:52:13Z</time>
      </trkpt>
      <trkpt lat="46.64582" lon="6.0811">
        <ele>1024.42</ele>
        <time>2013-05-09T13:52:37Z</time>
      </trkpt>
      <trkpt lat="46.64582" lon="6.0811">
        <ele>1023.94</ele>
        <time>2013-05-09T13:53:02Z</time>
      </trkpt>
      <trkpt lat="46.64582" lon="6.08109">
        <ele>1023.94</ele>
        <time>2013-05-09T13:53:28Z</time>
      </trkpt>
      <trkpt lat="46.64582" lon="6.08109">
        <ele>1023.94</ele>
        <time>2013-05-09T13:53:51Z</time>
      </trkpt>
      <trkpt lat="46.64583" lon="6.08109">
        <ele>1023.94</ele>
        <time>2013-05-09T13:53:52Z</time>
      </trkpt>
      <trkpt lat="46.64584" lon="6.08108">
        <ele>1023.94</ele>
        <time>2013-05-09T13:53:53Z</time>
      </trkpt>
      <trkpt lat="46.64586" lon="6.08106">
        <ele>1023.94</ele>
        <time>2013-05-09T13:53:54Z</time>
      </trkpt>
      <trkpt lat="46.64587" lon="6.08103">
        <ele>1023.94</ele>
        <time>2013-05-09T13:53:55Z</time>
      </trkpt>
      <trkpt lat="46.64587" lon="6.081">
        <ele>1023.94</ele>
        <time>2013-05-09T13:53:56Z</time>
      </trkpt>
      <trkpt lat="46.64605" lon="6.08057">
        <ele>1022.5</ele>
        <time>2013-05-09T13:54:08Z</time>
      </trkpt>
      <trkpt lat="46.64633" lon="6.07999">
        <ele>1020.58</ele>
        <time>2013-05-09T13:54:19Z</time>
      </trkpt>
      <trkpt lat="46.6464" lon="6.07984">
        <ele>1020.1</ele>
        <time>2013-05-09T13:54:22Z</time>
      </trkpt>
      <trkpt lat="46.64654" lon="6.07952">
        <ele>1019.62</ele>
        <time>2013-05-09T13:54:28Z</time>
      </trkpt>
      <trkpt lat="46.64663" lon="6.07939">
        <ele>1019.13</ele>
        <time>2013-05-09T13:54:31Z</time>
      </trkpt>
      <trkpt lat="46.64665" lon="6.07934">
        <ele>1019.13</ele>
        <time>2013-05-09T13:54:32Z</time>
      </trkpt>
      <trkpt lat="46.64699" lon="6.07888">
        <ele>1019.62</ele>
        <time>2013-05-09T13:54:45Z</time>
      </trkpt>
      <trkpt lat="46.64724" lon="6.07847">
        <ele>1020.1</ele>
        <time>2013-05-09T13:54:58Z</time>
      </trkpt>
      <trkpt lat="46.64721" lon="6.07823">
        <ele>1020.58</ele>
        <time>2013-05-09T13:55:05Z</time>
      </trkpt>
      <trkpt lat="46.64706" lon="6.07774">
        <ele>1020.58</ele>
        <time>2013-05-09T13:55:17Z</time>
      </trkpt>
      <trkpt lat="46.64701" lon="6.07759">
        <ele>1020.1</ele>
        <time>2013-05-09T13:55:20Z</time>
      </trkpt>
      <trkpt lat="46.64699" lon="6.07754">
        <ele>1020.1</ele>
        <time>2013-05-09T13:55:21Z</time>
      </trkpt>
      <trkpt lat="46.64689" lon="6.07723">
        <ele>1019.13</ele>
        <time>2013-05-09T13:55:26Z</time>
      </trkpt>
      <trkpt lat="46.64678" lon="6.07696">
        <ele>1017.21</ele>
        <time>2013-05-09T13:55:30Z</time>
      </trkpt>
      <trkpt lat="46.64675" lon="6.07689">
        <ele>1016.73</ele>
        <time>2013-05-09T13:55:31Z</time>
      </trkpt>
      <trkpt lat="46.6467" lon="6.07673">
        <ele>1016.25</ele>
        <time>2013-05-09T13:55:33Z</time>
      </trkpt>
      <trkpt lat="46.64668" lon="6.07665">
        <ele>1015.77</ele>
        <time>2013-05-09T13:55:34Z</time>
      </trkpt>
      <trkpt lat="46.64666" lon="6.07656">
        <ele>1015.77</ele>
        <time>2013-05-09T13:55:35Z</time>
      </trkpt>
      <trkpt lat="46.64665" lon="6.07647">
        <ele>1015.29</ele>
        <time>2013-05-09T13:55:36Z</time>
      </trkpt>
      <trkpt lat="46.64665" lon="6.07637">
        <ele>1015.29</ele>
        <time>2013-05-09T13:55:37Z</time>
      </trkpt>
      <trkpt lat="46.64666" lon="6.07628">
        <ele>1014.81</ele>
        <time>2013-05-09T13:55:38Z</time>
      </trkpt>
      <trkpt lat="46.64668" lon="6.07619">
        <ele>1014.33</ele>
        <time>2013-05-09T13:55:39Z</time>
      </trkpt>
      <trkpt lat="46.64671" lon="6.0761">
        <ele>1013.85</ele>
        <time>2013-05-09T13:55:40Z</time>
      </trkpt>
      <trkpt lat="46.64674" lon="6.07601">
        <ele>1013.85</ele>
        <time>2013-05-09T13:55:41Z</time>
      </trkpt>
      <trkpt lat="46.64679" lon="6.07592">
        <ele>1012.89</ele>
        <time>2013-05-09T13:55:42Z</time>
      </trkpt>
      <trkpt lat="46.64684" lon="6.07584">
        <ele>1011.93</ele>
        <time>2013-05-09T13:55:43Z</time>
      </trkpt>
      <trkpt lat="46.64689" lon="6.07576">
        <ele>1011.44</ele>
        <time>2013-05-09T13:55:44Z</time>
      </trkpt>
      <trkpt lat="46.64695" lon="6.07568">
        <ele>1010.96</ele>
        <time>2013-05-09T13:55:45Z</time>
      </trkpt>
      <trkpt lat="46.64721" lon="6.07537">
        <ele>1007.6</ele>
        <time>2013-05-09T13:55:49Z</time>
      </trkpt>
      <trkpt lat="46.64728" lon="6.07528">
        <ele>1007.6</ele>
        <time>2013-05-09T13:55:50Z</time>
      </trkpt>
      <trkpt lat="46.64756" lon="6.07494">
        <ele>1004.23</ele>
        <time>2013-05-09T13:55:54Z</time>
      </trkpt>
      <trkpt lat="46.64763" lon="6.07486">
        <ele>1003.75</ele>
        <time>2013-05-09T13:55:55Z</time>
      </trkpt>
      <trkpt lat="46.64793" lon="6.0745">
        <ele>1002.79</ele>
        <time>2013-05-09T13:56:00Z</time>
      </trkpt>
      <trkpt lat="46.64799" lon="6.07447">
        <ele>1002.79</ele>
        <time>2013-05-09T13:56:01Z</time>
      </trkpt>
      <trkpt lat="46.64805" lon="6.07446">
        <ele>1002.79</ele>
        <time>2013-05-09T13:56:02Z</time>
      </trkpt>
      <trkpt lat="46.6481" lon="6.07447">
        <ele>1002.79</ele>
        <time>2013-05-09T13:56:03Z</time>
      </trkpt>
      <trkpt lat="46.64814" lon="6.0745">
        <ele>1002.79</ele>
        <time>2013-05-09T13:56:04Z</time>
      </trkpt>
      <trkpt lat="46.64817" lon="6.07452">
        <ele>1002.31</ele>
        <time>2013-05-09T13:56:05Z</time>
      </trkpt>
      <trkpt lat="46.64821" lon="6.07457">
        <ele>1002.31</ele>
        <time>2013-05-09T13:56:07Z</time>
      </trkpt>
      <trkpt lat="46.64823" lon="6.07461">
        <ele>1001.83</ele>
        <time>2013-05-09T13:56:08Z</time>
      </trkpt>
      <trkpt lat="46.64824" lon="6.07466">
        <ele>1001.83</ele>
        <time>2013-05-09T13:56:09Z</time>
      </trkpt>
      <trkpt lat="46.64826" lon="6.07471">
        <ele>1001.83</ele>
        <time>2013-05-09T13:56:10Z</time>
      </trkpt>
      <trkpt lat="46.64828" lon="6.07477">
        <ele>1001.35</ele>
        <time>2013-05-09T13:56:11Z</time>
      </trkpt>
      <trkpt lat="46.64841" lon="6.07506">
        <ele>1000.87</ele>
        <time>2013-05-09T13:56:16Z</time>
      </trkpt>
      <trkpt lat="46.64846" lon="6.07519">
        <ele>999.91</ele>
        <time>2013-05-09T13:56:18Z</time>
      </trkpt>
      <trkpt lat="46.64859" lon="6.07545">
        <ele>999.43</ele>
        <time>2013-05-09T13:56:22Z</time>
      </trkpt>
      <trkpt lat="46.64861" lon="6.07553">
        <ele>998.95</ele>
        <time>2013-05-09T13:56:23Z</time>
      </trkpt>
      <trkpt lat="46.64863" lon="6.0756">
        <ele>998.95</ele>
        <time>2013-05-09T13:56:24Z</time>
      </trkpt>
      <trkpt lat="46.64866" lon="6.07567">
        <ele>998.47</ele>
        <time>2013-05-09T13:56:25Z</time>
      </trkpt>
      <trkpt lat="46.64869" lon="6.07573">
        <ele>998.47</ele>
        <time>2013-05-09T13:56:26Z</time>
      </trkpt>
      <trkpt lat="46.64872" lon="6.0758">
        <ele>998.47</ele>
        <time>2013-05-09T13:56:27Z</time>
      </trkpt>
      <trkpt lat="46.64875" lon="6.07586">
        <ele>998.47</ele>
        <time>2013-05-09T13:56:28Z</time>
      </trkpt>
      <trkpt lat="46.64889" lon="6.07621">
        <ele>997.02</ele>
        <time>2013-05-09T13:56:33Z</time>
      </trkpt>
      <trkpt lat="46.64893" lon="6.07627">
        <ele>997.02</ele>
        <time>2013-05-09T13:56:34Z</time>
      </trkpt>
      <trkpt lat="46.64907" lon="6.07647">
        <ele>995.58</ele>
        <time>2013-05-09T13:56:37Z</time>
      </trkpt>
      <trkpt lat="46.64913" lon="6.07653">
        <ele>995.1</ele>
        <time>2013-05-09T13:56:38Z</time>
      </trkpt>
      <trkpt lat="46.6492" lon="6.07658">
        <ele>994.14</ele>
        <time>2013-05-09T13:56:39Z</time>
      </trkpt>
      <trkpt lat="46.64927" lon="6.07661">
        <ele>993.18</ele>
        <time>2013-05-09T13:56:40Z</time>
      </trkpt>
      <trkpt lat="46.64934" lon="6.07664">
        <ele>993.18</ele>
        <time>2013-05-09T13:56:41Z</time>
      </trkpt>
      <trkpt lat="46.64974" lon="6.0768">
        <ele>990.78</ele>
        <time>2013-05-09T13:56:46Z</time>
      </trkpt>
      <trkpt lat="46.64981" lon="6.07686">
        <ele>989.81</ele>
        <time>2013-05-09T13:56:47Z</time>
      </trkpt>
      <trkpt lat="46.64988" lon="6.07694">
        <ele>989.33</ele>
        <time>2013-05-09T13:56:48Z</time>
      </trkpt>
      <trkpt lat="46.64995" lon="6.07703">
        <ele>988.85</ele>
        <time>2013-05-09T13:56:49Z</time>
      </trkpt>
      <trkpt lat="46.65001" lon="6.07712">
        <ele>988.37</ele>
        <time>2013-05-09T13:56:50Z</time>
      </trkpt>
      <trkpt lat="46.65013" lon="6.07732">
        <ele>987.41</ele>
        <time>2013-05-09T13:56:52Z</time>
      </trkpt>
      <trkpt lat="46.65024" lon="6.07752">
        <ele>986.45</ele>
        <time>2013-05-09T13:56:54Z</time>
      </trkpt>
      <trkpt lat="46.65044" lon="6.07793">
        <ele>985.97</ele>
        <time>2013-05-09T13:56:58Z</time>
      </trkpt>
      <trkpt lat="46.65049" lon="6.07801">
        <ele>985.97</ele>
        <time>2013-05-09T13:56:59Z</time>
      </trkpt>
      <trkpt lat="46.65054" lon="6.07807">
        <ele>985.97</ele>
        <time>2013-05-09T13:57:00Z</time>
      </trkpt>
      <trkpt lat="46.65059" lon="6.0781">
        <ele>986.45</ele>
        <time>2013-05-09T13:57:01Z</time>
      </trkpt>
      <trkpt lat="46.65065" lon="6.07812">
        <ele>985.97</ele>
        <time>2013-05-09T13:57:02Z</time>
      </trkpt>
      <trkpt lat="46.65071" lon="6.07811">
        <ele>985.01</ele>
        <time>2013-05-09T13:57:03Z</time>
      </trkpt>
      <trkpt lat="46.65077" lon="6.07808">
        <ele>984.05</ele>
        <time>2013-05-09T13:57:04Z</time>
      </trkpt>
      <trkpt lat="46.65081" lon="6.07801">
        <ele>983.57</ele>
        <time>2013-05-09T13:57:05Z</time>
      </trkpt>
      <trkpt lat="46.65083" lon="6.07793">
        <ele>982.6</ele>
        <time>2013-05-09T13:57:06Z</time>
      </trkpt>
      <trkpt lat="46.65084" lon="6.07784">
        <ele>981.64</ele>
        <time>2013-05-09T13:57:07Z</time>
      </trkpt>
      <trkpt lat="46.65083" lon="6.07775">
        <ele>981.16</ele>
        <time>2013-05-09T13:57:08Z</time>
      </trkpt>
      <trkpt lat="46.65082" lon="6.07765">
        <ele>980.68</ele>
        <time>2013-05-09T13:57:09Z</time>
      </trkpt>
      <trkpt lat="46.65074" lon="6.07709">
        <ele>977.32</ele>
        <time>2013-05-09T13:57:14Z</time>
      </trkpt>
      <trkpt lat="46.65068" lon="6.07658">
        <ele>973.95</ele>
        <time>2013-05-09T13:57:18Z</time>
      </trkpt>
      <trkpt lat="46.65067" lon="6.07617">
        <ele>972.03</ele>
        <time>2013-05-09T13:57:21Z</time>
      </trkpt>
      <trkpt lat="46.65068" lon="6.07603">
        <ele>971.07</ele>
        <time>2013-05-09T13:57:22Z</time>
      </trkpt>
      <trkpt lat="46.65071" lon="6.07588">
        <ele>970.11</ele>
        <time>2013-05-09T13:57:23Z</time>
      </trkpt>
      <trkpt lat="46.65075" lon="6.07574">
        <ele>969.15</ele>
        <time>2013-05-09T13:57:24Z</time>
      </trkpt>
      <trkpt lat="46.65079" lon="6.0756">
        <ele>967.22</ele>
        <time>2013-05-09T13:57:25Z</time>
      </trkpt>
      <trkpt lat="46.65094" lon="6.07514">
        <ele>964.34</ele>
        <time>2013-05-09T13:57:28Z</time>
      </trkpt>
      <trkpt lat="46.65096" lon="6.07497">
        <ele>962.9</ele>
        <time>2013-05-09T13:57:29Z</time>
      </trkpt>
      <trkpt lat="46.65098" lon="6.07464">
        <ele>961.46</ele>
        <time>2013-05-09T13:57:31Z</time>
      </trkpt>
      <trkpt lat="46.65108" lon="6.07326">
        <ele>960.01</ele>
        <time>2013-05-09T13:57:41Z</time>
      </trkpt>
      <trkpt lat="46.65111" lon="6.07314">
        <ele>959.53</ele>
        <time>2013-05-09T13:57:42Z</time>
      </trkpt>
      <trkpt lat="46.65115" lon="6.07304">
        <ele>959.05</ele>
        <time>2013-05-09T13:57:43Z</time>
      </trkpt>
      <trkpt lat="46.65121" lon="6.07297">
        <ele>958.57</ele>
        <time>2013-05-09T13:57:44Z</time>
      </trkpt>
      <trkpt lat="46.65128" lon="6.07293">
        <ele>958.09</ele>
        <time>2013-05-09T13:57:45Z</time>
      </trkpt>
      <trkpt lat="46.65136" lon="6.07293">
        <ele>957.61</ele>
        <time>2013-05-09T13:57:46Z</time>
      </trkpt>
      <trkpt lat="46.65144" lon="6.07297">
        <ele>957.61</ele>
        <time>2013-05-09T13:57:47Z</time>
      </trkpt>
      <trkpt lat="46.65151" lon="6.07303">
        <ele>957.13</ele>
        <time>2013-05-09T13:57:48Z</time>
      </trkpt>
      <trkpt lat="46.65157" lon="6.07311">
        <ele>956.17</ele>
        <time>2013-05-09T13:57:49Z</time>
      </trkpt>
      <trkpt lat="46.65163" lon="6.07319">
        <ele>956.17</ele>
        <time>2013-05-09T13:57:50Z</time>
      </trkpt>
      <trkpt lat="46.65174" lon="6.07336">
        <ele>955.21</ele>
        <time>2013-05-09T13:57:52Z</time>
      </trkpt>
      <trkpt lat="46.65207" lon="6.07407">
        <ele>951.84</ele>
        <time>2013-05-09T13:57:59Z</time>
      </trkpt>
      <trkpt lat="46.65255" lon="6.07491">
        <ele>948.48</ele>
        <time>2013-05-09T13:58:08Z</time>
      </trkpt>
      <trkpt lat="46.65294" lon="6.07546">
        <ele>945.59</ele>
        <time>2013-05-09T13:58:14Z</time>
      </trkpt>
      <trkpt lat="46.65341" lon="6.07615">
        <ele>942.23</ele>
        <time>2013-05-09T13:58:22Z</time>
      </trkpt>
      <trkpt lat="46.65367" lon="6.07648">
        <ele>939.35</ele>
        <time>2013-05-09T13:58:26Z</time>
      </trkpt>
      <trkpt lat="46.65389" lon="6.07679">
        <ele>935.98</ele>
        <time>2013-05-09T13:58:29Z</time>
      </trkpt>
      <trkpt lat="46.65437" lon="6.07744">
        <ele>933.1</ele>
        <time>2013-05-09T13:58:35Z</time>
      </trkpt>
      <trkpt lat="46.6547" lon="6.07789">
        <ele>928.77</ele>
        <time>2013-05-09T13:58:39Z</time>
      </trkpt>
      <trkpt lat="46.65498" lon="6.07823">
        <ele>927.33</ele>
        <time>2013-05-09T13:58:43Z</time>
      </trkpt>
      <trkpt lat="46.65525" lon="6.0786">
        <ele>923.96</ele>
        <time>2013-05-09T13:58:45Z</time>
      </trkpt>
      <trkpt lat="46.65552" lon="6.079">
        <ele>921.56</ele>
        <time>2013-05-09T13:58:48Z</time>
      </trkpt>
      <trkpt lat="46.65562" lon="6.07911">
        <ele>919.64</ele>
        <time>2013-05-09T13:58:49Z</time>
      </trkpt>
      <trkpt lat="46.65615" lon="6.07949">
        <ele>916.27</ele>
        <time>2013-05-09T13:58:54Z</time>
      </trkpt>
      <trkpt lat="46.65625" lon="6.07949">
        <ele>915.79</ele>
        <time>2013-05-09T13:58:55Z</time>
      </trkpt>
      <trkpt lat="46.65636" lon="6.07945">
        <ele>914.83</ele>
        <time>2013-05-09T13:58:56Z</time>
      </trkpt>
      <trkpt lat="46.65647" lon="6.07938">
        <ele>913.87</ele>
        <time>2013-05-09T13:58:57Z</time>
      </trkpt>
      <trkpt lat="46.65657" lon="6.07928">
        <ele>911.95</ele>
        <time>2013-05-09T13:58:58Z</time>
      </trkpt>
      <trkpt lat="46.65668" lon="6.07919">
        <ele>910.51</ele>
        <time>2013-05-09T13:58:59Z</time>
      </trkpt>
      <trkpt lat="46.6568" lon="6.07912">
        <ele>909.06</ele>
        <time>2013-05-09T13:59:00Z</time>
      </trkpt>
      <trkpt lat="46.65692" lon="6.0791">
        <ele>908.58</ele>
        <time>2013-05-09T13:59:01Z</time>
      </trkpt>
      <trkpt lat="46.65704" lon="6.0791">
        <ele>908.1</ele>
        <time>2013-05-09T13:59:02Z</time>
      </trkpt>
      <trkpt lat="46.65717" lon="6.07912">
        <ele>907.62</ele>
        <time>2013-05-09T13:59:03Z</time>
      </trkpt>
      <trkpt lat="46.65729" lon="6.07915">
        <ele>906.18</ele>
        <time>2013-05-09T13:59:04Z</time>
      </trkpt>
      <trkpt lat="46.65741" lon="6.07917">
        <ele>905.22</ele>
        <time>2013-05-09T13:59:05Z</time>
      </trkpt>
      <trkpt lat="46.65751" lon="6.07919">
        <ele>904.74</ele>
        <time>2013-05-09T13:59:06Z</time>
      </trkpt>
      <trkpt lat="46.65761" lon="6.07916">
        <ele>904.26</ele>
        <time>2013-05-09T13:59:07Z</time>
      </trkpt>
      <trkpt lat="46.65769" lon="6.07909">
        <ele>903.3</ele>
        <time>2013-05-09T13:59:08Z</time>
      </trkpt>
      <trkpt lat="46.65775" lon="6.07898">
        <ele>902.33</ele>
        <time>2013-05-09T13:59:09Z</time>
      </trkpt>
      <trkpt lat="46.65779" lon="6.07885">
        <ele>901.37</ele>
        <time>2013-05-09T13:59:10Z</time>
      </trkpt>
      <trkpt lat="46.65782" lon="6.07871">
        <ele>901.37</ele>
        <time>2013-05-09T13:59:11Z</time>
      </trkpt>
      <trkpt lat="46.65783" lon="6.07856">
        <ele>900.41</ele>
        <time>2013-05-09T13:59:12Z</time>
      </trkpt>
      <trkpt lat="46.65783" lon="6.07841">
        <ele>899.45</ele>
        <time>2013-05-09T13:59:13Z</time>
      </trkpt>
      <trkpt lat="46.65782" lon="6.07795">
        <ele>897.05</ele>
        <time>2013-05-09T13:59:16Z</time>
      </trkpt>
      <trkpt lat="46.65779" lon="6.07765">
        <ele>896.09</ele>
        <time>2013-05-09T13:59:18Z</time>
      </trkpt>
      <trkpt lat="46.65772" lon="6.07719">
        <ele>893.2</ele>
        <time>2013-05-09T13:59:21Z</time>
      </trkpt>
      <trkpt lat="46.65768" lon="6.07704">
        <ele>892.72</ele>
        <time>2013-05-09T13:59:22Z</time>
      </trkpt>
      <trkpt lat="46.65753" lon="6.07661">
        <ele>892.24</ele>
        <time>2013-05-09T13:59:27Z</time>
      </trkpt>
      <trkpt lat="46.65751" lon="6.07662">
        <ele>892.24</ele>
        <time>2013-05-09T13:59:28Z</time>
      </trkpt>
      <trkpt lat="46.65754" lon="6.07672">
        <ele>892.72</ele>
        <time>2013-05-09T13:59:32Z</time>
      </trkpt>
      <trkpt lat="46.65772" lon="6.07706">
        <ele>894.64</ele>
        <time>2013-05-09T13:59:43Z</time>
      </trkpt>
      <trkpt lat="46.65773" lon="6.07707">
        <ele>894.64</ele>
        <time>2013-05-09T13:59:56Z</time>
      </trkpt>
      <trkpt lat="46.65773" lon="6.07707">
        <ele>895.12</ele>
        <time>2013-05-09T14:00:27Z</time>
      </trkpt>
      <trkpt lat="46.65773" lon="6.07707">
        <ele>895.12</ele>
        <time>2013-05-09T14:01:00Z</time>
      </trkpt>
      <trkpt lat="46.65773" lon="6.07707">
        <ele>895.61</ele>
        <time>2013-05-09T14:01:12Z</time>
      </trkpt>
      <trkpt lat="46.65783" lon="6.07725">
        <ele>893.68</ele>
        <time>2013-05-09T14:01:18Z</time>
      </trkpt>
      <trkpt lat="46.65787" lon="6.07727">
        <ele>893.2</ele>
        <time>2013-05-09T14:01:19Z</time>
      </trkpt>
      <trkpt lat="46.65792" lon="6.07727">
        <ele>891.76</ele>
        <time>2013-05-09T14:01:20Z</time>
      </trkpt>
      <trkpt lat="46.65796" lon="6.07723">
        <ele>891.28</ele>
        <time>2013-05-09T14:01:21Z</time>
      </trkpt>
      <trkpt lat="46.65801" lon="6.07719">
        <ele>889.84</ele>
        <time>2013-05-09T14:01:22Z</time>
      </trkpt>
      <trkpt lat="46.65806" lon="6.07713">
        <ele>889.36</ele>
        <time>2013-05-09T14:01:23Z</time>
      </trkpt>
      <trkpt lat="46.65811" lon="6.07708">
        <ele>889.36</ele>
        <time>2013-05-09T14:01:24Z</time>
      </trkpt>
      <trkpt lat="46.65814" lon="6.07703">
        <ele>889.36</ele>
        <time>2013-05-09T14:01:25Z</time>
      </trkpt>
      <trkpt lat="46.65817" lon="6.07698">
        <ele>888.88</ele>
        <time>2013-05-09T14:01:26Z</time>
      </trkpt>
      <trkpt lat="46.65821" lon="6.07688">
        <ele>888.88</ele>
        <time>2013-05-09T14:01:28Z</time>
      </trkpt>
      <trkpt lat="46.65824" lon="6.07685">
        <ele>888.4</ele>
        <time>2013-05-09T14:01:29Z</time>
      </trkpt>
      <trkpt lat="46.65837" lon="6.07679">
        <ele>885.51</ele>
        <time>2013-05-09T14:01:33Z</time>
      </trkpt>
      <trkpt lat="46.6585" lon="6.07677">
        <ele>882.63</ele>
        <time>2013-05-09T14:01:36Z</time>
      </trkpt>
      <trkpt lat="46.65854" lon="6.07674">
        <ele>881.67</ele>
        <time>2013-05-09T14:01:37Z</time>
      </trkpt>
      <trkpt lat="46.65868" lon="6.07658">
        <ele>878.78</ele>
        <time>2013-05-09T14:01:41Z</time>
      </trkpt>
      <trkpt lat="46.6587" lon="6.07651">
        <ele>878.3</ele>
        <time>2013-05-09T14:01:42Z</time>
      </trkpt>
      <trkpt lat="46.65871" lon="6.07643">
        <ele>877.82</ele>
        <time>2013-05-09T14:01:43Z</time>
      </trkpt>
      <trkpt lat="46.65872" lon="6.07635">
        <ele>877.82</ele>
        <time>2013-05-09T14:01:44Z</time>
      </trkpt>
      <trkpt lat="46.65873" lon="6.07627">
        <ele>877.82</ele>
        <time>2013-05-09T14:01:45Z</time>
      </trkpt>
      <trkpt lat="46.65875" lon="6.0762">
        <ele>877.82</ele>
        <time>2013-05-09T14:01:46Z</time>
      </trkpt>
      <trkpt lat="46.65877" lon="6.07613">
        <ele>877.34</ele>
        <time>2013-05-09T14:01:47Z</time>
      </trkpt>
      <trkpt lat="46.6588" lon="6.07605">
        <ele>876.86</ele>
        <time>2013-05-09T14:01:48Z</time>
      </trkpt>
      <trkpt lat="46.65883" lon="6.07598">
        <ele>876.38</ele>
        <time>2013-05-09T14:01:49Z</time>
      </trkpt>
      <trkpt lat="46.65905" lon="6.07551">
        <ele>876.86</ele>
        <time>2013-05-09T14:01:58Z</time>
      </trkpt>
      <trkpt lat="46.65908" lon="6.0755">
        <ele>876.86</ele>
        <time>2013-05-09T14:01:59Z</time>
      </trkpt>
      <trkpt lat="46.65958" lon="6.07548">
        <ele>876.38</ele>
        <time>2013-05-09T14:02:10Z</time>
      </trkpt>
      <trkpt lat="46.65984" lon="6.07553">
        <ele>875.9</ele>
        <time>2013-05-09T14:02:17Z</time>
      </trkpt>
      <trkpt lat="46.66037" lon="6.07591">
        <ele>877.34</ele>
        <time>2013-05-09T14:02:32Z</time>
      </trkpt>
      <trkpt lat="46.6608" lon="6.07629">
        <ele>880.22</ele>
        <time>2013-05-09T14:02:46Z</time>
      </trkpt>
      <trkpt lat="46.66109" lon="6.07652">
        <ele>881.19</ele>
        <time>2013-05-09T14:02:56Z</time>
      </trkpt>
      <trkpt lat="46.66138" lon="6.07689">
        <ele>884.07</ele>
        <time>2013-05-09T14:03:09Z</time>
      </trkpt>
      <trkpt lat="46.66163" lon="6.07733">
        <ele>886.95</ele>
        <time>2013-05-09T14:03:23Z</time>
      </trkpt>
      <trkpt lat="46.66185" lon="6.07799">
        <ele>889.84</ele>
        <time>2013-05-09T14:03:40Z</time>
      </trkpt>
      <trkpt lat="46.66205" lon="6.07858">
        <ele>890.8</ele>
        <time>2013-05-09T14:03:54Z</time>
      </trkpt>
      <trkpt lat="46.66222" lon="6.07913">
        <ele>891.76</ele>
        <time>2013-05-09T14:04:07Z</time>
      </trkpt>
      <trkpt lat="46.66237" lon="6.07988">
        <ele>892.72</ele>
        <time>2013-05-09T14:04:22Z</time>
      </trkpt>
      <trkpt lat="46.66253" lon="6.08073">
        <ele>894.16</ele>
        <time>2013-05-09T14:04:38Z</time>
      </trkpt>
      <trkpt lat="46.66259" lon="6.08118">
        <ele>894.64</ele>
        <time>2013-05-09T14:04:49Z</time>
      </trkpt>
      <trkpt lat="46.66261" lon="6.08121">
        <ele>894.64</ele>
        <time>2013-05-09T14:04:50Z</time>
      </trkpt>
      <trkpt lat="46.66262" lon="6.08124">
        <ele>894.64</ele>
        <time>2013-05-09T14:04:51Z</time>
      </trkpt>
      <trkpt lat="46.66277" lon="6.08161">
        <ele>895.61</ele>
        <time>2013-05-09T14:05:04Z</time>
      </trkpt>
      <trkpt lat="46.66296" lon="6.08179">
        <ele>898.49</ele>
        <time>2013-05-09T14:05:15Z</time>
      </trkpt>
      <trkpt lat="46.66309" lon="6.08194">
        <ele>901.37</ele>
        <time>2013-05-09T14:05:24Z</time>
      </trkpt>
      <trkpt lat="46.66322" lon="6.08231">
        <ele>903.78</ele>
        <time>2013-05-09T14:05:37Z</time>
      </trkpt>
      <trkpt lat="46.66326" lon="6.08285">
        <ele>905.22</ele>
        <time>2013-05-09T14:05:52Z</time>
      </trkpt>
      <trkpt lat="46.66337" lon="6.08334">
        <ele>906.66</ele>
        <time>2013-05-09T14:06:06Z</time>
      </trkpt>
      <trkpt lat="46.66365" lon="6.08382">
        <ele>908.58</ele>
        <time>2013-05-09T14:06:24Z</time>
      </trkpt>
      <trkpt lat="46.66389" lon="6.08399">
        <ele>909.54</ele>
        <time>2013-05-09T14:06:35Z</time>
      </trkpt>
      <trkpt lat="46.66413" lon="6.08407">
        <ele>910.51</ele>
        <time>2013-05-09T14:06:46Z</time>
      </trkpt>
      <trkpt lat="46.66437" lon="6.08421">
        <ele>911.47</ele>
        <time>2013-05-09T14:06:57Z</time>
      </trkpt>
      <trkpt lat="46.66441" lon="6.08424">
        <ele>908.58</ele>
        <time>2013-05-09T14:07:00Z</time>
      </trkpt>
      <trkpt lat="46.66441" lon="6.08426">
        <ele>914.35</ele>
        <time>2013-05-09T14:07:01Z</time>
      </trkpt>
      <trkpt lat="46.66443" lon="6.08428">
        <ele>912.43</ele>
        <time>2013-05-09T14:07:02Z</time>
      </trkpt>
      <trkpt lat="46.66443" lon="6.0843">
        <ele>912.43</ele>
        <time>2013-05-09T14:07:03Z</time>
      </trkpt>
      <trkpt lat="46.66445" lon="6.08432">
        <ele>912.43</ele>
        <time>2013-05-09T14:07:04Z</time>
      </trkpt>
      <trkpt lat="46.66447" lon="6.08433">
        <ele>912.43</ele>
        <time>2013-05-09T14:07:05Z</time>
      </trkpt>
      <trkpt lat="46.66449" lon="6.08435">
        <ele>912.43</ele>
        <time>2013-05-09T14:07:06Z</time>
      </trkpt>
      <trkpt lat="46.66451" lon="6.08437">
        <ele>912.43</ele>
        <time>2013-05-09T14:07:07Z</time>
      </trkpt>
      <trkpt lat="46.66457" lon="6.08445">
        <ele>912.91</ele>
        <time>2013-05-09T14:07:11Z</time>
      </trkpt>
      <trkpt lat="46.6646" lon="6.08447">
        <ele>912.91</ele>
        <time>2013-05-09T14:07:12Z</time>
      </trkpt>
      <trkpt lat="46.66462" lon="6.0845">
        <ele>912.91</ele>
        <time>2013-05-09T14:07:13Z</time>
      </trkpt>
      <trkpt lat="46.66464" lon="6.08452">
        <ele>913.39</ele>
        <time>2013-05-09T14:07:14Z</time>
      </trkpt>
      <trkpt lat="46.66467" lon="6.08455">
        <ele>913.39</ele>
        <time>2013-05-09T14:07:15Z</time>
      </trkpt>
      <trkpt lat="46.66495" lon="6.08497">
        <ele>915.31</ele>
        <time>2013-05-09T14:07:28Z</time>
      </trkpt>
      <trkpt lat="46.6652" lon="6.08529">
        <ele>916.75</ele>
        <time>2013-05-09T14:07:39Z</time>
      </trkpt>
      <trkpt lat="46.66534" lon="6.08544">
        <ele>916.75</ele>
        <time>2013-05-09T14:07:46Z</time>
      </trkpt>
      <trkpt lat="46.66536" lon="6.08545">
        <ele>916.75</ele>
        <time>2013-05-09T14:07:47Z</time>
      </trkpt>
      <trkpt lat="46.66538" lon="6.08547">
        <ele>916.75</ele>
        <time>2013-05-09T14:07:48Z</time>
      </trkpt>
      <trkpt lat="46.66555" lon="6.08569">
        <ele>918.2</ele>
        <time>2013-05-09T14:07:59Z</time>
      </trkpt>
      <trkpt lat="46.66564" lon="6.0858">
        <ele>918.68</ele>
        <time>2013-05-09T14:08:04Z</time>
      </trkpt>
      <trkpt lat="46.66566" lon="6.08582">
        <ele>918.68</ele>
        <time>2013-05-09T14:08:05Z</time>
      </trkpt>
      <trkpt lat="46.66569" lon="6.08584">
        <ele>919.16</ele>
        <time>2013-05-09T14:08:06Z</time>
      </trkpt>
      <trkpt lat="46.66572" lon="6.08587">
        <ele>919.16</ele>
        <time>2013-05-09T14:08:07Z</time>
      </trkpt>
      <trkpt lat="46.66574" lon="6.08589">
        <ele>919.64</ele>
        <time>2013-05-09T14:08:08Z</time>
      </trkpt>
      <trkpt lat="46.66576" lon="6.08591">
        <ele>919.64</ele>
        <time>2013-05-09T14:08:09Z</time>
      </trkpt>
      <trkpt lat="46.66578" lon="6.08595">
        <ele>919.64</ele>
        <time>2013-05-09T14:08:10Z</time>
      </trkpt>
      <trkpt lat="46.6658" lon="6.08599">
        <ele>919.64</ele>
        <time>2013-05-09T14:08:11Z</time>
      </trkpt>
      <trkpt lat="46.66586" lon="6.0861">
        <ele>920.12</ele>
        <time>2013-05-09T14:08:14Z</time>
      </trkpt>
      <trkpt lat="46.66588" lon="6.08613">
        <ele>920.12</ele>
        <time>2013-05-09T14:08:15Z</time>
      </trkpt>
      <trkpt lat="46.66604" lon="6.08659">
        <ele>921.56</ele>
        <time>2013-05-09T14:08:28Z</time>
      </trkpt>
      <trkpt lat="46.66618" lon="6.08713">
        <ele>923</ele>
        <time>2013-05-09T14:08:42Z</time>
      </trkpt>
      <trkpt lat="46.66639" lon="6.08756">
        <ele>924.45</ele>
        <time>2013-05-09T14:08:55Z</time>
      </trkpt>
      <trkpt lat="46.66657" lon="6.08777">
        <ele>924.93</ele>
        <time>2013-05-09T14:09:06Z</time>
      </trkpt>
      <trkpt lat="46.66669" lon="6.0879">
        <ele>925.89</ele>
        <time>2013-05-09T14:09:14Z</time>
      </trkpt>
      <trkpt lat="46.66671" lon="6.08791">
        <ele>925.89</ele>
        <time>2013-05-09T14:09:15Z</time>
      </trkpt>
      <trkpt lat="46.66672" lon="6.08793">
        <ele>926.37</ele>
        <time>2013-05-09T14:09:16Z</time>
      </trkpt>
      <trkpt lat="46.66673" lon="6.08793">
        <ele>926.37</ele>
        <time>2013-05-09T14:09:27Z</time>
      </trkpt>
      <trkpt lat="46.66673" lon="6.08793">
        <ele>926.37</ele>
        <time>2013-05-09T14:09:41Z</time>
      </trkpt>
      <trkpt lat="46.66673" lon="6.08793">
        <ele>926.37</ele>
        <time>2013-05-09T14:10:06Z</time>
      </trkpt>
      <trkpt lat="46.66673" lon="6.08793">
        <ele>925.89</ele>
        <time>2013-05-09T14:10:38Z</time>
      </trkpt>
      <trkpt lat="46.66673" lon="6.08793">
        <ele>926.37</ele>
        <time>2013-05-09T14:11:13Z</time>
      </trkpt>
      <trkpt lat="46.66673" lon="6.08793">
        <ele>925.89</ele>
        <time>2013-05-09T14:11:53Z</time>
      </trkpt>
      <trkpt lat="46.66672" lon="6.08789">
        <ele>925.89</ele>
        <time>2013-05-09T14:12:14Z</time>
      </trkpt>
      <trkpt lat="46.66672" lon="6.08786">
        <ele>925.89</ele>
        <time>2013-05-09T14:12:15Z</time>
      </trkpt>
      <trkpt lat="46.6667" lon="6.08784">
        <ele>925.41</ele>
        <time>2013-05-09T14:12:16Z</time>
      </trkpt>
      <trkpt lat="46.66669" lon="6.08781">
        <ele>925.89</ele>
        <time>2013-05-09T14:12:17Z</time>
      </trkpt>
      <trkpt lat="46.66668" lon="6.08778">
        <ele>925.41</ele>
        <time>2013-05-09T14:12:18Z</time>
      </trkpt>
      <trkpt lat="46.66667" lon="6.08775">
        <ele>926.37</ele>
        <time>2013-05-09T14:12:19Z</time>
      </trkpt>
      <trkpt lat="46.66666" lon="6.08771">
        <ele>926.37</ele>
        <time>2013-05-09T14:12:20Z</time>
      </trkpt>
      <trkpt lat="46.66665" lon="6.08769">
        <ele>925.89</ele>
        <time>2013-05-09T14:12:21Z</time>
      </trkpt>
      <trkpt lat="46.66663" lon="6.08766">
        <ele>925.89</ele>
        <time>2013-05-09T14:12:22Z</time>
      </trkpt>
      <trkpt lat="46.66662" lon="6.08764">
        <ele>926.37</ele>
        <time>2013-05-09T14:12:23Z</time>
      </trkpt>
      <trkpt lat="46.6666" lon="6.08761">
        <ele>926.37</ele>
        <time>2013-05-09T14:12:24Z</time>
      </trkpt>
      <trkpt lat="46.66659" lon="6.08758">
        <ele>926.37</ele>
        <time>2013-05-09T14:12:25Z</time>
      </trkpt>
      <trkpt lat="46.66657" lon="6.08756">
        <ele>926.85</ele>
        <time>2013-05-09T14:12:26Z</time>
      </trkpt>
      <trkpt lat="46.66638" lon="6.08709">
        <ele>929.73</ele>
        <time>2013-05-09T14:12:41Z</time>
      </trkpt>
      <trkpt lat="46.66627" lon="6.08648">
        <ele>927.81</ele>
        <time>2013-05-09T14:12:52Z</time>
      </trkpt>
      <trkpt lat="46.66625" lon="6.0864">
        <ele>926.85</ele>
        <time>2013-05-09T14:12:53Z</time>
      </trkpt>
      <trkpt lat="46.66623" lon="6.08632">
        <ele>926.85</ele>
        <time>2013-05-09T14:12:54Z</time>
      </trkpt>
      <trkpt lat="46.6661" lon="6.0859">
        <ele>930.21</ele>
        <time>2013-05-09T14:13:03Z</time>
      </trkpt>
      <trkpt lat="46.66598" lon="6.08531">
        <ele>932.14</ele>
        <time>2013-05-09T14:13:18Z</time>
      </trkpt>
      <trkpt lat="46.66593" lon="6.08505">
        <ele>931.65</ele>
        <time>2013-05-09T14:13:26Z</time>
      </trkpt>
      <trkpt lat="46.66589" lon="6.08503">
        <ele>931.17</ele>
        <time>2013-05-09T14:13:27Z</time>
      </trkpt>
      <trkpt lat="46.66585" lon="6.08503">
        <ele>930.21</ele>
        <time>2013-05-09T14:13:28Z</time>
      </trkpt>
      <trkpt lat="46.66567" lon="6.08508">
        <ele>928.77</ele>
        <time>2013-05-09T14:13:31Z</time>
      </trkpt>
      <trkpt lat="46.66556" lon="6.08508">
        <ele>928.77</ele>
        <time>2013-05-09T14:13:33Z</time>
      </trkpt>
      <trkpt lat="46.66552" lon="6.08506">
        <ele>929.25</ele>
        <time>2013-05-09T14:13:34Z</time>
      </trkpt>
      <trkpt lat="46.66549" lon="6.08503">
        <ele>929.73</ele>
        <time>2013-05-09T14:13:35Z</time>
      </trkpt>
      <trkpt lat="46.66526" lon="6.08473">
        <ele>930.69</ele>
        <time>2013-05-09T14:13:44Z</time>
      </trkpt>
      <trkpt lat="46.66515" lon="6.08454">
        <ele>932.62</ele>
        <time>2013-05-09T14:13:49Z</time>
      </trkpt>
      <trkpt lat="46.66515" lon="6.0845">
        <ele>933.1</ele>
        <time>2013-05-09T14:13:50Z</time>
      </trkpt>
      <trkpt lat="46.66515" lon="6.08447">
        <ele>933.1</ele>
        <time>2013-05-09T14:13:51Z</time>
      </trkpt>
      <trkpt lat="46.66514" lon="6.08442">
        <ele>933.58</ele>
        <time>2013-05-09T14:13:52Z</time>
      </trkpt>
      <trkpt lat="46.66513" lon="6.08438">
        <ele>934.06</ele>
        <time>2013-05-09T14:13:53Z</time>
      </trkpt>
      <trkpt lat="46.66506" lon="6.08393">
        <ele>936.46</ele>
        <time>2013-05-09T14:14:04Z</time>
      </trkpt>
      <trkpt lat="46.66509" lon="6.08361">
        <ele>936.46</ele>
        <time>2013-05-09T14:14:14Z</time>
      </trkpt>
      <trkpt lat="46.6651" lon="6.08358">
        <ele>936.46</ele>
        <time>2013-05-09T14:14:15Z</time>
      </trkpt>
      <trkpt lat="46.66511" lon="6.08355">
        <ele>936.46</ele>
        <time>2013-05-09T14:14:16Z</time>
      </trkpt>
      <trkpt lat="46.66512" lon="6.08352">
        <ele>935.98</ele>
        <time>2013-05-09T14:14:17Z</time>
      </trkpt>
      <trkpt lat="46.66513" lon="6.0835">
        <ele>935.98</ele>
        <time>2013-05-09T14:14:18Z</time>
      </trkpt>
      <trkpt lat="46.66515" lon="6.08348">
        <ele>935.98</ele>
        <time>2013-05-09T14:14:19Z</time>
      </trkpt>
      <trkpt lat="46.66518" lon="6.08348">
        <ele>936.46</ele>
        <time>2013-05-09T14:14:20Z</time>
      </trkpt>
      <trkpt lat="46.66521" lon="6.08348">
        <ele>936.46</ele>
        <time>2013-05-09T14:14:21Z</time>
      </trkpt>
      <trkpt lat="46.66524" lon="6.08349">
        <ele>936.46</ele>
        <time>2013-05-09T14:14:22Z</time>
      </trkpt>
      <trkpt lat="46.66565" lon="6.08361">
        <ele>936.94</ele>
        <time>2013-05-09T14:14:37Z</time>
      </trkpt>
      <trkpt lat="46.66601" lon="6.08371">
        <ele>937.9</ele>
        <time>2013-05-09T14:14:50Z</time>
      </trkpt>
      <trkpt lat="46.6663" lon="6.08377">
        <ele>940.79</ele>
        <time>2013-05-09T14:15:03Z</time>
      </trkpt>
      <trkpt lat="46.66662" lon="6.08398">
        <ele>943.67</ele>
        <time>2013-05-09T14:15:18Z</time>
      </trkpt>
      <trkpt lat="46.66673" lon="6.08444">
        <ele>947.04</ele>
        <time>2013-05-09T14:15:32Z</time>
      </trkpt>
      <trkpt lat="46.66683" lon="6.08491">
        <ele>949.44</ele>
        <time>2013-05-09T14:15:45Z</time>
      </trkpt>
      <trkpt lat="46.66698" lon="6.08535">
        <ele>952.8</ele>
        <time>2013-05-09T14:15:58Z</time>
      </trkpt>
      <trkpt lat="46.6671" lon="6.08579">
        <ele>954.25</ele>
        <time>2013-05-09T14:16:10Z</time>
      </trkpt>
      <trkpt lat="46.66732" lon="6.08627">
        <ele>955.21</ele>
        <time>2013-05-09T14:16:23Z</time>
      </trkpt>
      <trkpt lat="46.66762" lon="6.08663">
        <ele>956.65</ele>
        <time>2013-05-09T14:16:35Z</time>
      </trkpt>
      <trkpt lat="46.66789" lon="6.08702">
        <ele>957.61</ele>
        <time>2013-05-09T14:16:47Z</time>
      </trkpt>
      <trkpt lat="46.66813" lon="6.08755">
        <ele>960.01</ele>
        <time>2013-05-09T14:17:01Z</time>
      </trkpt>
      <trkpt lat="46.66828" lon="6.08806">
        <ele>963.38</ele>
        <time>2013-05-09T14:17:14Z</time>
      </trkpt>
      <trkpt lat="46.66841" lon="6.08852">
        <ele>966.74</ele>
        <time>2013-05-09T14:17:26Z</time>
      </trkpt>
      <trkpt lat="46.6686" lon="6.08905">
        <ele>969.63</ele>
        <time>2013-05-09T14:17:40Z</time>
      </trkpt>
      <trkpt lat="46.66888" lon="6.08952">
        <ele>969.15</ele>
        <time>2013-05-09T14:17:53Z</time>
      </trkpt>
      <trkpt lat="46.66921" lon="6.0893">
        <ele>970.59</ele>
        <time>2013-05-09T14:18:04Z</time>
      </trkpt>
      <trkpt lat="46.66943" lon="6.08917">
        <ele>973.47</ele>
        <time>2013-05-09T14:18:14Z</time>
      </trkpt>
      <trkpt lat="46.66964" lon="6.08903">
        <ele>976.84</ele>
        <time>2013-05-09T14:18:24Z</time>
      </trkpt>
      <trkpt lat="46.6699" lon="6.08895">
        <ele>980.2</ele>
        <time>2013-05-09T14:18:37Z</time>
      </trkpt>
      <trkpt lat="46.67007" lon="6.08878">
        <ele>983.57</ele>
        <time>2013-05-09T14:18:47Z</time>
      </trkpt>
      <trkpt lat="46.67026" lon="6.0886">
        <ele>986.93</ele>
        <time>2013-05-09T14:18:59Z</time>
      </trkpt>
      <trkpt lat="46.67038" lon="6.08856">
        <ele>988.85</ele>
        <time>2013-05-09T14:19:08Z</time>
      </trkpt>
      <trkpt lat="46.67039" lon="6.08856">
        <ele>989.33</ele>
        <time>2013-05-09T14:19:09Z</time>
      </trkpt>
      <trkpt lat="46.67041" lon="6.08855">
        <ele>989.81</ele>
        <time>2013-05-09T14:19:10Z</time>
      </trkpt>
      <trkpt lat="46.67042" lon="6.08855">
        <ele>989.81</ele>
        <time>2013-05-09T14:19:11Z</time>
      </trkpt>
      <trkpt lat="46.67044" lon="6.08854">
        <ele>990.3</ele>
        <time>2013-05-09T14:19:12Z</time>
      </trkpt>
      <trkpt lat="46.67046" lon="6.08853">
        <ele>991.26</ele>
        <time>2013-05-09T14:19:13Z</time>
      </trkpt>
      <trkpt lat="46.67048" lon="6.08852">
        <ele>991.74</ele>
        <time>2013-05-09T14:19:14Z</time>
      </trkpt>
      <trkpt lat="46.6705" lon="6.0885">
        <ele>991.74</ele>
        <time>2013-05-09T14:19:15Z</time>
      </trkpt>
      <trkpt lat="46.67051" lon="6.08849">
        <ele>992.22</ele>
        <time>2013-05-09T14:19:16Z</time>
      </trkpt>
      <trkpt lat="46.67053" lon="6.08849">
        <ele>992.7</ele>
        <time>2013-05-09T14:19:17Z</time>
      </trkpt>
      <trkpt lat="46.67055" lon="6.08848">
        <ele>992.7</ele>
        <time>2013-05-09T14:19:18Z</time>
      </trkpt>
      <trkpt lat="46.67077" lon="6.08828">
        <ele>994.62</ele>
        <time>2013-05-09T14:19:31Z</time>
      </trkpt>
      <trkpt lat="46.67094" lon="6.08808">
        <ele>997.99</ele>
        <time>2013-05-09T14:19:43Z</time>
      </trkpt>
      <trkpt lat="46.67107" lon="6.08764">
        <ele>1000.39</ele>
        <time>2013-05-09T14:19:58Z</time>
      </trkpt>
      <trkpt lat="46.67109" lon="6.08749">
        <ele>1002.31</ele>
        <time>2013-05-09T14:20:03Z</time>
      </trkpt>
      <trkpt lat="46.67108" lon="6.08702">
        <ele>1005.68</ele>
        <time>2013-05-09T14:20:16Z</time>
      </trkpt>
      <trkpt lat="46.67104" lon="6.08662">
        <ele>1005.2</ele>
        <time>2013-05-09T14:20:26Z</time>
      </trkpt>
      <trkpt lat="46.67107" lon="6.08613">
        <ele>1006.16</ele>
        <time>2013-05-09T14:20:39Z</time>
      </trkpt>
      <trkpt lat="46.67107" lon="6.08601">
        <ele>1006.64</ele>
        <time>2013-05-09T14:20:44Z</time>
      </trkpt>
      <trkpt lat="46.67107" lon="6.086">
        <ele>1006.64</ele>
        <time>2013-05-09T14:20:45Z</time>
      </trkpt>
      <trkpt lat="46.67108" lon="6.08597">
        <ele>1007.12</ele>
        <time>2013-05-09T14:20:46Z</time>
      </trkpt>
      <trkpt lat="46.67108" lon="6.08595">
        <ele>1007.12</ele>
        <time>2013-05-09T14:20:47Z</time>
      </trkpt>
      <trkpt lat="46.67109" lon="6.08593">
        <ele>1007.6</ele>
        <time>2013-05-09T14:20:48Z</time>
      </trkpt>
      <trkpt lat="46.6711" lon="6.0859">
        <ele>1007.12</ele>
        <time>2013-05-09T14:20:49Z</time>
      </trkpt>
      <trkpt lat="46.67111" lon="6.08586">
        <ele>1007.12</ele>
        <time>2013-05-09T14:20:50Z</time>
      </trkpt>
      <trkpt lat="46.67111" lon="6.08583">
        <ele>1007.12</ele>
        <time>2013-05-09T14:20:51Z</time>
      </trkpt>
      <trkpt lat="46.67112" lon="6.08579">
        <ele>1007.12</ele>
        <time>2013-05-09T14:20:52Z</time>
      </trkpt>
      <trkpt lat="46.67115" lon="6.08566">
        <ele>1007.6</ele>
        <time>2013-05-09T14:20:56Z</time>
      </trkpt>
      <trkpt lat="46.67115" lon="6.08564">
        <ele>1007.6</ele>
        <time>2013-05-09T14:20:57Z</time>
      </trkpt>
      <trkpt lat="46.67106" lon="6.08524">
        <ele>1009.04</ele>
        <time>2013-05-09T14:21:08Z</time>
      </trkpt>
      <trkpt lat="46.67102" lon="6.08499">
        <ele>1010.48</ele>
        <time>2013-05-09T14:21:14Z</time>
      </trkpt>
      <trkpt lat="46.67106" lon="6.08457">
        <ele>1011.93</ele>
        <time>2013-05-09T14:21:26Z</time>
      </trkpt>
      <trkpt lat="46.67108" lon="6.08446">
        <ele>1012.41</ele>
        <time>2013-05-09T14:21:29Z</time>
      </trkpt>
      <trkpt lat="46.67114" lon="6.0843">
        <ele>1012.41</ele>
        <time>2013-05-09T14:21:34Z</time>
      </trkpt>
      <trkpt lat="46.67115" lon="6.08427">
        <ele>1012.41</ele>
        <time>2013-05-09T14:21:35Z</time>
      </trkpt>
      <trkpt lat="46.67122" lon="6.08385">
        <ele>1012.89</ele>
        <time>2013-05-09T14:21:46Z</time>
      </trkpt>
      <trkpt lat="46.67128" lon="6.08339">
        <ele>1010.96</ele>
        <time>2013-05-09T14:21:56Z</time>
      </trkpt>
      <trkpt lat="46.67129" lon="6.08333">
        <ele>1010.96</ele>
        <time>2013-05-09T14:21:57Z</time>
      </trkpt>
      <trkpt lat="46.67132" lon="6.08327">
        <ele>1010.48</ele>
        <time>2013-05-09T14:21:58Z</time>
      </trkpt>
      <trkpt lat="46.67135" lon="6.08324">
        <ele>1010.96</ele>
        <time>2013-05-09T14:21:59Z</time>
      </trkpt>
      <trkpt lat="46.67138" lon="6.08321">
        <ele>1011.44</ele>
        <time>2013-05-09T14:22:00Z</time>
      </trkpt>
      <trkpt lat="46.67145" lon="6.08317">
        <ele>1013.85</ele>
        <time>2013-05-09T14:22:03Z</time>
      </trkpt>
      <trkpt lat="46.67153" lon="6.08314">
        <ele>1014.81</ele>
        <time>2013-05-09T14:22:07Z</time>
      </trkpt>
      <trkpt lat="46.67155" lon="6.08314">
        <ele>1014.81</ele>
        <time>2013-05-09T14:22:08Z</time>
      </trkpt>
      <trkpt lat="46.67157" lon="6.08314">
        <ele>1014.81</ele>
        <time>2013-05-09T14:22:09Z</time>
      </trkpt>
      <trkpt lat="46.6716" lon="6.08312">
        <ele>1015.29</ele>
        <time>2013-05-09T14:22:10Z</time>
      </trkpt>
      <trkpt lat="46.67162" lon="6.08311">
        <ele>1015.29</ele>
        <time>2013-05-09T14:22:11Z</time>
      </trkpt>
      <trkpt lat="46.67165" lon="6.08311">
        <ele>1015.29</ele>
        <time>2013-05-09T14:22:12Z</time>
      </trkpt>
      <trkpt lat="46.67167" lon="6.0831">
        <ele>1015.77</ele>
        <time>2013-05-09T14:22:13Z</time>
      </trkpt>
      <trkpt lat="46.67179" lon="6.08311">
        <ele>1016.73</ele>
        <time>2013-05-09T14:22:19Z</time>
      </trkpt>
      <trkpt lat="46.6718" lon="6.08311">
        <ele>1016.73</ele>
        <time>2013-05-09T14:22:20Z</time>
      </trkpt>
      <trkpt lat="46.67183" lon="6.08312">
        <ele>1017.21</ele>
        <time>2013-05-09T14:22:21Z</time>
      </trkpt>
      <trkpt lat="46.67185" lon="6.08313">
        <ele>1017.21</ele>
        <time>2013-05-09T14:22:22Z</time>
      </trkpt>
      <trkpt lat="46.67186" lon="6.08315">
        <ele>1017.69</ele>
        <time>2013-05-09T14:22:23Z</time>
      </trkpt>
      <trkpt lat="46.67194" lon="6.08321">
        <ele>1019.13</ele>
        <time>2013-05-09T14:22:27Z</time>
      </trkpt>
      <trkpt lat="46.67205" lon="6.08331">
        <ele>1021.06</ele>
        <time>2013-05-09T14:22:34Z</time>
      </trkpt>
      <trkpt lat="46.67206" lon="6.08332">
        <ele>1021.06</ele>
        <time>2013-05-09T14:22:35Z</time>
      </trkpt>
      <trkpt lat="46.67208" lon="6.08332">
        <ele>1021.54</ele>
        <time>2013-05-09T14:22:36Z</time>
      </trkpt>
      <trkpt lat="46.6721" lon="6.08334">
        <ele>1021.54</ele>
        <time>2013-05-09T14:22:37Z</time>
      </trkpt>
      <trkpt lat="46.67212" lon="6.08335">
        <ele>1021.54</ele>
        <time>2013-05-09T14:22:38Z</time>
      </trkpt>
      <trkpt lat="46.67232" lon="6.08339">
        <ele>1023.94</ele>
        <time>2013-05-09T14:22:49Z</time>
      </trkpt>
      <trkpt lat="46.67233" lon="6.08338">
        <ele>1024.9</ele>
        <time>2013-05-09T14:22:50Z</time>
      </trkpt>
      <trkpt lat="46.67238" lon="6.08328">
        <ele>1025.86</ele>
        <time>2013-05-09T14:22:55Z</time>
      </trkpt>
      <trkpt lat="46.67238" lon="6.08325">
        <ele>1026.34</ele>
        <time>2013-05-09T14:22:57Z</time>
      </trkpt>
      <trkpt lat="46.67239" lon="6.08323">
        <ele>1026.34</ele>
        <time>2013-05-09T14:22:58Z</time>
      </trkpt>
      <trkpt lat="46.67243" lon="6.08301">
        <ele>1028.27</ele>
        <time>2013-05-09T14:23:09Z</time>
      </trkpt>
      <trkpt lat="46.67244" lon="6.08297">
        <ele>1029.23</ele>
        <time>2013-05-09T14:23:11Z</time>
      </trkpt>
      <trkpt lat="46.67244" lon="6.08295">
        <ele>1028.75</ele>
        <time>2013-05-09T14:23:12Z</time>
      </trkpt>
      <trkpt lat="46.67247" lon="6.08286">
        <ele>1029.71</ele>
        <time>2013-05-09T14:23:17Z</time>
      </trkpt>
      <trkpt lat="46.67248" lon="6.08283">
        <ele>1029.71</ele>
        <time>2013-05-09T14:23:18Z</time>
      </trkpt>
      <trkpt lat="46.67262" lon="6.08261">
        <ele>1033.07</ele>
        <time>2013-05-09T14:23:30Z</time>
      </trkpt>
      <trkpt lat="46.67284" lon="6.08237">
        <ele>1034.52</ele>
        <time>2013-05-09T14:23:42Z</time>
      </trkpt>
      <trkpt lat="46.67294" lon="6.08219">
        <ele>1036.44</ele>
        <time>2013-05-09T14:23:51Z</time>
      </trkpt>
      <trkpt lat="46.673" lon="6.08213">
        <ele>1037.88</ele>
        <time>2013-05-09T14:23:54Z</time>
      </trkpt>
      <trkpt lat="46.67302" lon="6.08211">
        <ele>1037.88</ele>
        <time>2013-05-09T14:23:55Z</time>
      </trkpt>
      <trkpt lat="46.67303" lon="6.0821">
        <ele>1037.88</ele>
        <time>2013-05-09T14:23:56Z</time>
      </trkpt>
      <trkpt lat="46.67315" lon="6.08199">
        <ele>1038.84</ele>
        <time>2013-05-09T14:24:07Z</time>
      </trkpt>
      <trkpt lat="46.67319" lon="6.08193">
        <ele>1038.36</ele>
        <time>2013-05-09T14:24:23Z</time>
      </trkpt>
      <trkpt lat="46.67323" lon="6.08187">
        <ele>1038.84</ele>
        <time>2013-05-09T14:24:43Z</time>
      </trkpt>
      <trkpt lat="46.67323" lon="6.08187">
        <ele>1038.84</ele>
        <time>2013-05-09T14:25:07Z</time>
      </trkpt>
      <trkpt lat="46.67323" lon="6.08187">
        <ele>1038.36</ele>
        <time>2013-05-09T14:25:33Z</time>
      </trkpt>
      <trkpt lat="46.67324" lon="6.08186">
        <ele>1038.84</ele>
        <time>2013-05-09T14:25:58Z</time>
      </trkpt>
      <trkpt lat="46.67324" lon="6.08186">
        <ele>1039.32</ele>
        <time>2013-05-09T14:26:19Z</time>
      </trkpt>
      <trkpt lat="46.67326" lon="6.08186">
        <ele>1039.32</ele>
        <time>2013-05-09T14:26:40Z</time>
      </trkpt>
      <trkpt lat="46.67326" lon="6.08186">
        <ele>1039.32</ele>
        <time>2013-05-09T14:26:43Z</time>
      </trkpt>
      <trkpt lat="46.67327" lon="6.08188">
        <ele>1039.32</ele>
        <time>2013-05-09T14:26:44Z</time>
      </trkpt>
      <trkpt lat="46.67327" lon="6.0819">
        <ele>1039.32</ele>
        <time>2013-05-09T14:26:45Z</time>
      </trkpt>
      <trkpt lat="46.67329" lon="6.08192">
        <ele>1039.32</ele>
        <time>2013-05-09T14:26:46Z</time>
      </trkpt>
      <trkpt lat="46.6733" lon="6.08194">
        <ele>1039.32</ele>
        <time>2013-05-09T14:26:47Z</time>
      </trkpt>
      <trkpt lat="46.6733" lon="6.08197">
        <ele>1039.32</ele>
        <time>2013-05-09T14:26:48Z</time>
      </trkpt>
      <trkpt lat="46.67331" lon="6.08201">
        <ele>1039.32</ele>
        <time>2013-05-09T14:26:49Z</time>
      </trkpt>
      <trkpt lat="46.67332" lon="6.08204">
        <ele>1039.32</ele>
        <time>2013-05-09T14:26:50Z</time>
      </trkpt>
      <trkpt lat="46.67333" lon="6.08207">
        <ele>1039.32</ele>
        <time>2013-05-09T14:26:51Z</time>
      </trkpt>
      <trkpt lat="46.67334" lon="6.0821">
        <ele>1039.32</ele>
        <time>2013-05-09T14:26:52Z</time>
      </trkpt>
      <trkpt lat="46.67334" lon="6.08213">
        <ele>1039.32</ele>
        <time>2013-05-09T14:26:53Z</time>
      </trkpt>
      <trkpt lat="46.67334" lon="6.08217">
        <ele>1039.32</ele>
        <time>2013-05-09T14:26:54Z</time>
      </trkpt>
      <trkpt lat="46.67335" lon="6.0822">
        <ele>1039.8</ele>
        <time>2013-05-09T14:26:55Z</time>
      </trkpt>
      <trkpt lat="46.67336" lon="6.08224">
        <ele>1041.73</ele>
        <time>2013-05-09T14:26:56Z</time>
      </trkpt>
      <trkpt lat="46.67336" lon="6.08227">
        <ele>1040.76</ele>
        <time>2013-05-09T14:26:57Z</time>
      </trkpt>
      <trkpt lat="46.6733" lon="6.08261">
        <ele>1041.25</ele>
        <time>2013-05-09T14:27:06Z</time>
      </trkpt>
      <trkpt lat="46.67331" lon="6.08305">
        <ele>1043.17</ele>
        <time>2013-05-09T14:27:16Z</time>
      </trkpt>
      <trkpt lat="46.67332" lon="6.08316">
        <ele>1043.65</ele>
        <time>2013-05-09T14:27:19Z</time>
      </trkpt>
      <trkpt lat="46.67349" lon="6.08352">
        <ele>1043.65</ele>
        <time>2013-05-09T14:27:30Z</time>
      </trkpt>
      <trkpt lat="46.67375" lon="6.08381">
        <ele>1044.61</ele>
        <time>2013-05-09T14:27:42Z</time>
      </trkpt>
      <trkpt lat="46.67403" lon="6.08409">
        <ele>1045.57</ele>
        <time>2013-05-09T14:27:53Z</time>
      </trkpt>
      <trkpt lat="46.6742" lon="6.08427">
        <ele>1045.09</ele>
        <time>2013-05-09T14:27:58Z</time>
      </trkpt>
      <trkpt lat="46.67425" lon="6.08442">
        <ele>1044.13</ele>
        <time>2013-05-09T14:28:00Z</time>
      </trkpt>
      <trkpt lat="46.6743" lon="6.08457">
        <ele>1043.65</ele>
        <time>2013-05-09T14:28:02Z</time>
      </trkpt>
      <trkpt lat="46.67433" lon="6.08464">
        <ele>1043.17</ele>
        <time>2013-05-09T14:28:03Z</time>
      </trkpt>
      <trkpt lat="46.67449" lon="6.08508">
        <ele>1041.73</ele>
        <time>2013-05-09T14:28:12Z</time>
      </trkpt>
      <trkpt lat="46.6746" lon="6.0852">
        <ele>1042.69</ele>
        <time>2013-05-09T14:28:16Z</time>
      </trkpt>
      <trkpt lat="46.67463" lon="6.08522">
        <ele>1042.69</ele>
        <time>2013-05-09T14:28:17Z</time>
      </trkpt>
      <trkpt lat="46.67464" lon="6.08527">
        <ele>1043.17</ele>
        <time>2013-05-09T14:28:18Z</time>
      </trkpt>
      <trkpt lat="46.67467" lon="6.08531">
        <ele>1043.17</ele>
        <time>2013-05-09T14:28:19Z</time>
      </trkpt>
      <trkpt lat="46.67469" lon="6.08535">
        <ele>1043.17</ele>
        <time>2013-05-09T14:28:20Z</time>
      </trkpt>
      <trkpt lat="46.67471" lon="6.0854">
        <ele>1043.17</ele>
        <time>2013-05-09T14:28:21Z</time>
      </trkpt>
      <trkpt lat="46.67496" lon="6.08582">
        <ele>1044.61</ele>
        <time>2013-05-09T14:28:31Z</time>
      </trkpt>
      <trkpt lat="46.67518" lon="6.08609">
        <ele>1043.65</ele>
        <time>2013-05-09T14:28:40Z</time>
      </trkpt>
      <trkpt lat="46.67546" lon="6.0866">
        <ele>1043.17</ele>
        <time>2013-05-09T14:28:51Z</time>
      </trkpt>
      <trkpt lat="46.67548" lon="6.08666">
        <ele>1042.69</ele>
        <time>2013-05-09T14:28:52Z</time>
      </trkpt>
      <trkpt lat="46.67549" lon="6.08674">
        <ele>1042.21</ele>
        <time>2013-05-09T14:28:53Z</time>
      </trkpt>
      <trkpt lat="46.6755" lon="6.08682">
        <ele>1041.25</ele>
        <time>2013-05-09T14:28:54Z</time>
      </trkpt>
      <trkpt lat="46.67552" lon="6.08691">
        <ele>1041.25</ele>
        <time>2013-05-09T14:28:55Z</time>
      </trkpt>
      <trkpt lat="46.67555" lon="6.08709">
        <ele>1040.76</ele>
        <time>2013-05-09T14:28:57Z</time>
      </trkpt>
      <trkpt lat="46.67561" lon="6.08746">
        <ele>1037.4</ele>
        <time>2013-05-09T14:29:01Z</time>
      </trkpt>
      <trkpt lat="46.67565" lon="6.08785">
        <ele>1034.52</ele>
        <time>2013-05-09T14:29:05Z</time>
      </trkpt>
      <trkpt lat="46.67565" lon="6.08795">
        <ele>1033.55</ele>
        <time>2013-05-09T14:29:06Z</time>
      </trkpt>
      <trkpt lat="46.67567" lon="6.08824">
        <ele>1032.11</ele>
        <time>2013-05-09T14:29:09Z</time>
      </trkpt>
      <trkpt lat="46.67568" lon="6.08835">
        <ele>1031.15</ele>
        <time>2013-05-09T14:29:10Z</time>
      </trkpt>
      <trkpt lat="46.67569" lon="6.08845">
        <ele>1031.15</ele>
        <time>2013-05-09T14:29:11Z</time>
      </trkpt>
      <trkpt lat="46.67571" lon="6.089">
        <ele>1027.79</ele>
        <time>2013-05-09T14:29:16Z</time>
      </trkpt>
      <trkpt lat="46.67574" lon="6.08919">
        <ele>1026.34</ele>
        <time>2013-05-09T14:29:18Z</time>
      </trkpt>
      <trkpt lat="46.67577" lon="6.08928">
        <ele>1025.38</ele>
        <time>2013-05-09T14:29:19Z</time>
      </trkpt>
      <trkpt lat="46.67586" lon="6.08949">
        <ele>1024.9</ele>
        <time>2013-05-09T14:29:22Z</time>
      </trkpt>
      <trkpt lat="46.67597" lon="6.08973">
        <ele>1026.34</ele>
        <time>2013-05-09T14:29:26Z</time>
      </trkpt>
      <trkpt lat="46.67599" lon="6.08979">
        <ele>1025.86</ele>
        <time>2013-05-09T14:29:27Z</time>
      </trkpt>
      <trkpt lat="46.67603" lon="6.08983">
        <ele>1025.86</ele>
        <time>2013-05-09T14:29:28Z</time>
      </trkpt>
      <trkpt lat="46.67605" lon="6.08988">
        <ele>1025.86</ele>
        <time>2013-05-09T14:29:29Z</time>
      </trkpt>
      <trkpt lat="46.67608" lon="6.08991">
        <ele>1026.34</ele>
        <time>2013-05-09T14:29:30Z</time>
      </trkpt>
      <trkpt lat="46.67635" lon="6.09031">
        <ele>1026.83</ele>
        <time>2013-05-09T14:29:42Z</time>
      </trkpt>
      <trkpt lat="46.67662" lon="6.09067">
        <ele>1026.83</ele>
        <time>2013-05-09T14:29:53Z</time>
      </trkpt>
      <trkpt lat="46.67682" lon="6.09102">
        <ele>1028.27</ele>
        <time>2013-05-09T14:30:03Z</time>
      </trkpt>
      <trkpt lat="46.67693" lon="6.09145">
        <ele>1029.23</ele>
        <time>2013-05-09T14:30:13Z</time>
      </trkpt>
      <trkpt lat="46.67691" lon="6.09149">
        <ele>1029.23</ele>
        <time>2013-05-09T14:30:14Z</time>
      </trkpt>
      <trkpt lat="46.67671" lon="6.0918">
        <ele>1028.27</ele>
        <time>2013-05-09T14:30:20Z</time>
      </trkpt>
      <trkpt lat="46.6764" lon="6.09209">
        <ele>1027.31</ele>
        <time>2013-05-09T14:30:28Z</time>
      </trkpt>
      <trkpt lat="46.67636" lon="6.09213">
        <ele>1027.31</ele>
        <time>2013-05-09T14:30:29Z</time>
      </trkpt>
      <trkpt lat="46.67633" lon="6.09218">
        <ele>1027.31</ele>
        <time>2013-05-09T14:30:30Z</time>
      </trkpt>
      <trkpt lat="46.67629" lon="6.09223">
        <ele>1027.31</ele>
        <time>2013-05-09T14:30:31Z</time>
      </trkpt>
      <trkpt lat="46.67626" lon="6.09229">
        <ele>1027.31</ele>
        <time>2013-05-09T14:30:32Z</time>
      </trkpt>
      <trkpt lat="46.67574" lon="6.09301">
        <ele>1024.42</ele>
        <time>2013-05-09T14:30:44Z</time>
      </trkpt>
      <trkpt lat="46.67503" lon="6.0936">
        <ele>1026.34</ele>
        <time>2013-05-09T14:30:59Z</time>
      </trkpt>
      <trkpt lat="46.67492" lon="6.09372">
        <ele>1025.86</ele>
        <time>2013-05-09T14:31:02Z</time>
      </trkpt>
      <trkpt lat="46.67489" lon="6.09376">
        <ele>1025.86</ele>
        <time>2013-05-09T14:31:03Z</time>
      </trkpt>
      <trkpt lat="46.67486" lon="6.09381">
        <ele>1025.38</ele>
        <time>2013-05-09T14:31:04Z</time>
      </trkpt>
      <trkpt lat="46.67444" lon="6.09464">
        <ele>1022.5</ele>
        <time>2013-05-09T14:31:17Z</time>
      </trkpt>
      <trkpt lat="46.6743" lon="6.09501">
        <ele>1021.54</ele>
        <time>2013-05-09T14:31:22Z</time>
      </trkpt>
      <trkpt lat="46.67409" lon="6.09595">
        <ele>1018.65</ele>
        <time>2013-05-09T14:31:33Z</time>
      </trkpt>
      <trkpt lat="46.67408" lon="6.09605">
        <ele>1018.17</ele>
        <time>2013-05-09T14:31:34Z</time>
      </trkpt>
      <trkpt lat="46.67407" lon="6.09614">
        <ele>1018.17</ele>
        <time>2013-05-09T14:31:35Z</time>
      </trkpt>
      <trkpt lat="46.67407" lon="6.09624">
        <ele>1017.69</ele>
        <time>2013-05-09T14:31:36Z</time>
      </trkpt>
      <trkpt lat="46.67408" lon="6.09632">
        <ele>1017.21</ele>
        <time>2013-05-09T14:31:37Z</time>
      </trkpt>
      <trkpt lat="46.67408" lon="6.0964">
        <ele>1017.21</ele>
        <time>2013-05-09T14:31:38Z</time>
      </trkpt>
      <trkpt lat="46.67409" lon="6.09668">
        <ele>1016.25</ele>
        <time>2013-05-09T14:31:42Z</time>
      </trkpt>
      <trkpt lat="46.6741" lon="6.09675">
        <ele>1016.25</ele>
        <time>2013-05-09T14:31:43Z</time>
      </trkpt>
      <trkpt lat="46.67412" lon="6.09682">
        <ele>1016.25</ele>
        <time>2013-05-09T14:31:44Z</time>
      </trkpt>
      <trkpt lat="46.67429" lon="6.09735">
        <ele>1018.65</ele>
        <time>2013-05-09T14:31:56Z</time>
      </trkpt>
      <trkpt lat="46.67458" lon="6.09821">
        <ele>1018.65</ele>
        <time>2013-05-09T14:32:12Z</time>
      </trkpt>
      <trkpt lat="46.67482" lon="6.09882">
        <ele>1020.58</ele>
        <time>2013-05-09T14:32:25Z</time>
      </trkpt>
      <trkpt lat="46.6751" lon="6.0995">
        <ele>1020.1</ele>
        <time>2013-05-09T14:32:39Z</time>
      </trkpt>
      <trkpt lat="46.67549" lon="6.10048">
        <ele>1021.54</ele>
        <time>2013-05-09T14:32:56Z</time>
      </trkpt>
      <trkpt lat="46.676" lon="6.1016">
        <ele>1023.46</ele>
        <time>2013-05-09T14:33:17Z</time>
      </trkpt>
      <trkpt lat="46.67625" lon="6.10216">
        <ele>1026.83</ele>
        <time>2013-05-09T14:33:29Z</time>
      </trkpt>
      <trkpt lat="46.67653" lon="6.10286">
        <ele>1028.75</ele>
        <time>2013-05-09T14:33:44Z</time>
      </trkpt>
      <trkpt lat="46.67691" lon="6.10367">
        <ele>1030.67</ele>
        <time>2013-05-09T14:34:01Z</time>
      </trkpt>
      <trkpt lat="46.67725" lon="6.10435">
        <ele>1033.55</ele>
        <time>2013-05-09T14:34:18Z</time>
      </trkpt>
      <trkpt lat="46.67726" lon="6.10438">
        <ele>1033.55</ele>
        <time>2013-05-09T14:34:30Z</time>
      </trkpt>
      <trkpt lat="46.67727" lon="6.1044">
        <ele>1033.55</ele>
        <time>2013-05-09T14:34:31Z</time>
      </trkpt>
      <trkpt lat="46.67729" lon="6.10442">
        <ele>1034.04</ele>
        <time>2013-05-09T14:34:32Z</time>
      </trkpt>
      <trkpt lat="46.67731" lon="6.10444">
        <ele>1034.04</ele>
        <time>2013-05-09T14:34:33Z</time>
      </trkpt>
      <trkpt lat="46.67732" lon="6.10447">
        <ele>1034.04</ele>
        <time>2013-05-09T14:34:34Z</time>
      </trkpt>
      <trkpt lat="46.67733" lon="6.1045">
        <ele>1034.52</ele>
        <time>2013-05-09T14:34:35Z</time>
      </trkpt>
      <trkpt lat="46.67733" lon="6.10454">
        <ele>1034.52</ele>
        <time>2013-05-09T14:34:36Z</time>
      </trkpt>
      <trkpt lat="46.67734" lon="6.10457">
        <ele>1034.52</ele>
        <time>2013-05-09T14:34:37Z</time>
      </trkpt>
      <trkpt lat="46.67736" lon="6.10461">
        <ele>1034.52</ele>
        <time>2013-05-09T14:34:38Z</time>
      </trkpt>
      <trkpt lat="46.67738" lon="6.10464">
        <ele>1034.52</ele>
        <time>2013-05-09T14:34:39Z</time>
      </trkpt>
      <trkpt lat="46.6774" lon="6.10467">
        <ele>1034.52</ele>
        <time>2013-05-09T14:34:40Z</time>
      </trkpt>
      <trkpt lat="46.67742" lon="6.1047">
        <ele>1034.52</ele>
        <time>2013-05-09T14:34:41Z</time>
      </trkpt>
      <trkpt lat="46.67772" lon="6.10526">
        <ele>1034.52</ele>
        <time>2013-05-09T14:34:55Z</time>
      </trkpt>
      <trkpt lat="46.67774" lon="6.1053">
        <ele>1034.04</ele>
        <time>2013-05-09T14:34:56Z</time>
      </trkpt>
      <trkpt lat="46.67778" lon="6.10534">
        <ele>1034.52</ele>
        <time>2013-05-09T14:34:57Z</time>
      </trkpt>
      <trkpt lat="46.67781" lon="6.10537">
        <ele>1034.52</ele>
        <time>2013-05-09T14:34:58Z</time>
      </trkpt>
      <trkpt lat="46.67785" lon="6.10539">
        <ele>1035.96</ele>
        <time>2013-05-09T14:34:59Z</time>
      </trkpt>
      <trkpt lat="46.67788" lon="6.10538">
        <ele>1035</ele>
        <time>2013-05-09T14:35:00Z</time>
      </trkpt>
      <trkpt lat="46.67791" lon="6.10537">
        <ele>1035.48</ele>
        <time>2013-05-09T14:35:01Z</time>
      </trkpt>
      <trkpt lat="46.67794" lon="6.10535">
        <ele>1035.96</ele>
        <time>2013-05-09T14:35:02Z</time>
      </trkpt>
      <trkpt lat="46.67804" lon="6.10497">
        <ele>1038.36</ele>
        <time>2013-05-09T14:35:12Z</time>
      </trkpt>
      <trkpt lat="46.67806" lon="6.10439">
        <ele>1041.25</ele>
        <time>2013-05-09T14:35:25Z</time>
      </trkpt>
      <trkpt lat="46.67806" lon="6.10396">
        <ele>1043.17</ele>
        <time>2013-05-09T14:35:36Z</time>
      </trkpt>
      <trkpt lat="46.67815" lon="6.1036">
        <ele>1046.53</ele>
        <time>2013-05-09T14:35:46Z</time>
      </trkpt>
      <trkpt lat="46.67825" lon="6.10335">
        <ele>1047.49</ele>
        <time>2013-05-09T14:35:54Z</time>
      </trkpt>
      <trkpt lat="46.67827" lon="6.10332">
        <ele>1047.01</ele>
        <time>2013-05-09T14:35:55Z</time>
      </trkpt>
      <trkpt lat="46.67828" lon="6.10329">
        <ele>1047.01</ele>
        <time>2013-05-09T14:35:56Z</time>
      </trkpt>
      <trkpt lat="46.67837" lon="6.10288">
        <ele>1048.45</ele>
        <time>2013-05-09T14:36:06Z</time>
      </trkpt>
      <trkpt lat="46.67836" lon="6.10239">
        <ele>1049.42</ele>
        <time>2013-05-09T14:36:17Z</time>
      </trkpt>
      <trkpt lat="46.67836" lon="6.10202">
        <ele>1050.38</ele>
        <time>2013-05-09T14:36:25Z</time>
      </trkpt>
      <trkpt lat="46.67835" lon="6.10138">
        <ele>1049.9</ele>
        <time>2013-05-09T14:36:35Z</time>
      </trkpt>
      <trkpt lat="46.6784" lon="6.10078">
        <ele>1050.38</ele>
        <time>2013-05-09T14:36:45Z</time>
      </trkpt>
      <trkpt lat="46.67845" lon="6.10028">
        <ele>1048.45</ele>
        <time>2013-05-09T14:36:52Z</time>
      </trkpt>
      <trkpt lat="46.67845" lon="6.1002">
        <ele>1047.97</ele>
        <time>2013-05-09T14:36:53Z</time>
      </trkpt>
      <trkpt lat="46.67845" lon="6.10012">
        <ele>1047.49</ele>
        <time>2013-05-09T14:36:54Z</time>
      </trkpt>
      <trkpt lat="46.67837" lon="6.09926">
        <ele>1048.45</ele>
        <time>2013-05-09T14:37:07Z</time>
      </trkpt>
      <trkpt lat="46.67838" lon="6.09906">
        <ele>1048.45</ele>
        <time>2013-05-09T14:37:10Z</time>
      </trkpt>
      <trkpt lat="46.6784" lon="6.099">
        <ele>1047.97</ele>
        <time>2013-05-09T14:37:11Z</time>
      </trkpt>
      <trkpt lat="46.67842" lon="6.09887">
        <ele>1047.97</ele>
        <time>2013-05-09T14:37:13Z</time>
      </trkpt>
      <trkpt lat="46.67844" lon="6.09881">
        <ele>1047.97</ele>
        <time>2013-05-09T14:37:14Z</time>
      </trkpt>
      <trkpt lat="46.67847" lon="6.09869">
        <ele>1048.45</ele>
        <time>2013-05-09T14:37:16Z</time>
      </trkpt>
      <trkpt lat="46.67854" lon="6.09854">
        <ele>1048.45</ele>
        <time>2013-05-09T14:37:19Z</time>
      </trkpt>
      <trkpt lat="46.67877" lon="6.09831">
        <ele>1049.9</ele>
        <time>2013-05-09T14:37:27Z</time>
      </trkpt>
      <trkpt lat="46.67908" lon="6.09816">
        <ele>1050.38</ele>
        <time>2013-05-09T14:37:37Z</time>
      </trkpt>
      <trkpt lat="46.67934" lon="6.09788">
        <ele>1051.82</ele>
        <time>2013-05-09T14:37:47Z</time>
      </trkpt>
      <trkpt lat="46.67942" lon="6.09779">
        <ele>1051.82</ele>
        <time>2013-05-09T14:37:50Z</time>
      </trkpt>
      <trkpt lat="46.67945" lon="6.09776">
        <ele>1051.82</ele>
        <time>2013-05-09T14:37:51Z</time>
      </trkpt>
      <trkpt lat="46.67947" lon="6.09774">
        <ele>1051.82</ele>
        <time>2013-05-09T14:37:52Z</time>
      </trkpt>
      <trkpt lat="46.67949" lon="6.09771">
        <ele>1051.82</ele>
        <time>2013-05-09T14:37:53Z</time>
      </trkpt>
      <trkpt lat="46.67952" lon="6.09767">
        <ele>1052.3</ele>
        <time>2013-05-09T14:37:54Z</time>
      </trkpt>
      <trkpt lat="46.6797" lon="6.09731">
        <ele>1053.74</ele>
        <time>2013-05-09T14:38:03Z</time>
      </trkpt>
      <trkpt lat="46.67989" lon="6.0972">
        <ele>1055.67</ele>
        <time>2013-05-09T14:38:13Z</time>
      </trkpt>
      <trkpt lat="46.68019" lon="6.09688">
        <ele>1056.63</ele>
        <time>2013-05-09T14:38:24Z</time>
      </trkpt>
      <trkpt lat="46.68061" lon="6.09674">
        <ele>1058.07</ele>
        <time>2013-05-09T14:38:36Z</time>
      </trkpt>
      <trkpt lat="46.68095" lon="6.09647">
        <ele>1059.03</ele>
        <time>2013-05-09T14:38:45Z</time>
      </trkpt>
      <trkpt lat="46.68131" lon="6.09622">
        <ele>1059.51</ele>
        <time>2013-05-09T14:38:53Z</time>
      </trkpt>
      <trkpt lat="46.68158" lon="6.0962">
        <ele>1057.11</ele>
        <time>2013-05-09T14:38:58Z</time>
      </trkpt>
      <trkpt lat="46.68164" lon="6.09619">
        <ele>1057.11</ele>
        <time>2013-05-09T14:38:59Z</time>
      </trkpt>
      <trkpt lat="46.6817" lon="6.09618">
        <ele>1057.11</ele>
        <time>2013-05-09T14:39:00Z</time>
      </trkpt>
      <trkpt lat="46.68175" lon="6.09619">
        <ele>1058.55</ele>
        <time>2013-05-09T14:39:01Z</time>
      </trkpt>
      <trkpt lat="46.68181" lon="6.09621">
        <ele>1057.11</ele>
        <time>2013-05-09T14:39:02Z</time>
      </trkpt>
      <trkpt lat="46.68185" lon="6.09623">
        <ele>1057.11</ele>
        <time>2013-05-09T14:39:03Z</time>
      </trkpt>
      <trkpt lat="46.6819" lon="6.09627">
        <ele>1057.11</ele>
        <time>2013-05-09T14:39:04Z</time>
      </trkpt>
      <trkpt lat="46.68195" lon="6.0963">
        <ele>1057.11</ele>
        <time>2013-05-09T14:39:05Z</time>
      </trkpt>
      <trkpt lat="46.682" lon="6.09634">
        <ele>1056.63</ele>
        <time>2013-05-09T14:39:06Z</time>
      </trkpt>
      <trkpt lat="46.68204" lon="6.09637">
        <ele>1056.63</ele>
        <time>2013-05-09T14:39:07Z</time>
      </trkpt>
      <trkpt lat="46.68208" lon="6.0964">
        <ele>1056.63</ele>
        <time>2013-05-09T14:39:08Z</time>
      </trkpt>
      <trkpt lat="46.68234" lon="6.09653">
        <ele>1056.63</ele>
        <time>2013-05-09T14:39:15Z</time>
      </trkpt>
      <trkpt lat="46.68238" lon="6.09652">
        <ele>1056.63</ele>
        <time>2013-05-09T14:39:16Z</time>
      </trkpt>
      <trkpt lat="46.68242" lon="6.09654">
        <ele>1056.63</ele>
        <time>2013-05-09T14:39:17Z</time>
      </trkpt>
      <trkpt lat="46.68256" lon="6.09664">
        <ele>1057.11</ele>
        <time>2013-05-09T14:39:21Z</time>
      </trkpt>
      <trkpt lat="46.6828" lon="6.0969">
        <ele>1058.55</ele>
        <time>2013-05-09T14:39:31Z</time>
      </trkpt>
      <trkpt lat="46.68315" lon="6.09697">
        <ele>1061.43</ele>
        <time>2013-05-09T14:39:42Z</time>
      </trkpt>
      <trkpt lat="46.68347" lon="6.09702">
        <ele>1063.84</ele>
        <time>2013-05-09T14:39:52Z</time>
      </trkpt>
      <trkpt lat="46.68373" lon="6.09718">
        <ele>1065.76</ele>
        <time>2013-05-09T14:40:03Z</time>
      </trkpt>
      <trkpt lat="46.68381" lon="6.09721">
        <ele>1066.72</ele>
        <time>2013-05-09T14:40:06Z</time>
      </trkpt>
      <trkpt lat="46.684" lon="6.0973">
        <ele>1068.64</ele>
        <time>2013-05-09T14:40:14Z</time>
      </trkpt>
      <trkpt lat="46.68403" lon="6.09731">
        <ele>1069.12</ele>
        <time>2013-05-09T14:40:15Z</time>
      </trkpt>
      <trkpt lat="46.68405" lon="6.09729">
        <ele>1069.12</ele>
        <time>2013-05-09T14:40:16Z</time>
      </trkpt>
      <trkpt lat="46.68432" lon="6.09704">
        <ele>1072.01</ele>
        <time>2013-05-09T14:40:30Z</time>
      </trkpt>
      <trkpt lat="46.68434" lon="6.09702">
        <ele>1072.01</ele>
        <time>2013-05-09T14:40:31Z</time>
      </trkpt>
      <trkpt lat="46.68437" lon="6.097">
        <ele>1072.49</ele>
        <time>2013-05-09T14:40:32Z</time>
      </trkpt>
      <trkpt lat="46.6844" lon="6.09697">
        <ele>1072.97</ele>
        <time>2013-05-09T14:40:33Z</time>
      </trkpt>
      <trkpt lat="46.68443" lon="6.09694">
        <ele>1072.97</ele>
        <time>2013-05-09T14:40:34Z</time>
      </trkpt>
      <trkpt lat="46.68477" lon="6.0966">
        <ele>1075.37</ele>
        <time>2013-05-09T14:40:45Z</time>
      </trkpt>
      <trkpt lat="46.68487" lon="6.09652">
        <ele>1076.33</ele>
        <time>2013-05-09T14:40:50Z</time>
      </trkpt>
      <trkpt lat="46.68488" lon="6.0965">
        <ele>1076.81</ele>
        <time>2013-05-09T14:40:51Z</time>
      </trkpt>
      <trkpt lat="46.6849" lon="6.09649">
        <ele>1076.81</ele>
        <time>2013-05-09T14:40:52Z</time>
      </trkpt>
      <trkpt lat="46.68508" lon="6.09627">
        <ele>1080.18</ele>
        <time>2013-05-09T14:41:02Z</time>
      </trkpt>
      <trkpt lat="46.6853" lon="6.09601">
        <ele>1081.14</ele>
        <time>2013-05-09T14:41:14Z</time>
      </trkpt>
      <trkpt lat="46.6854" lon="6.0959">
        <ele>1082.58</ele>
        <time>2013-05-09T14:41:21Z</time>
      </trkpt>
      <trkpt lat="46.68553" lon="6.09578">
        <ele>1084.5</ele>
        <time>2013-05-09T14:41:30Z</time>
      </trkpt>
      <trkpt lat="46.68587" lon="6.09553">
        <ele>1087.39</ele>
        <time>2013-05-09T14:41:44Z</time>
      </trkpt>
      <trkpt lat="46.68601" lon="6.09543">
        <ele>1088.83</ele>
        <time>2013-05-09T14:41:49Z</time>
      </trkpt>
      <trkpt lat="46.68604" lon="6.09541">
        <ele>1088.83</ele>
        <time>2013-05-09T14:41:50Z</time>
      </trkpt>
      <trkpt lat="46.68607" lon="6.09539">
        <ele>1089.31</ele>
        <time>2013-05-09T14:41:51Z</time>
      </trkpt>
      <trkpt lat="46.68609" lon="6.09536">
        <ele>1089.31</ele>
        <time>2013-05-09T14:41:52Z</time>
      </trkpt>
      <trkpt lat="46.68622" lon="6.09527">
        <ele>1090.75</ele>
        <time>2013-05-09T14:41:58Z</time>
      </trkpt>
      <trkpt lat="46.6866" lon="6.09518">
        <ele>1092.68</ele>
        <time>2013-05-09T14:42:09Z</time>
      </trkpt>
      <trkpt lat="46.68712" lon="6.09519">
        <ele>1095.08</ele>
        <time>2013-05-09T14:42:23Z</time>
      </trkpt>
      <trkpt lat="46.68755" lon="6.0954">
        <ele>1096.52</ele>
        <time>2013-05-09T14:42:36Z</time>
      </trkpt>
      <trkpt lat="46.6879" lon="6.09553">
        <ele>1094.12</ele>
        <time>2013-05-09T14:42:46Z</time>
      </trkpt>
      <trkpt lat="46.68826" lon="6.09547">
        <ele>1094.6</ele>
        <time>2013-05-09T14:42:56Z</time>
      </trkpt>
      <trkpt lat="46.68852" lon="6.09511">
        <ele>1096.52</ele>
        <time>2013-05-09T14:43:07Z</time>
      </trkpt>
      <trkpt lat="46.68867" lon="6.09495">
        <ele>1097</ele>
        <time>2013-05-09T14:43:19Z</time>
      </trkpt>
      <trkpt lat="46.6887" lon="6.09491">
        <ele>1097.48</ele>
        <time>2013-05-09T14:43:34Z</time>
      </trkpt>
      <trkpt lat="46.68877" lon="6.09484">
        <ele>1097.96</ele>
        <time>2013-05-09T14:43:41Z</time>
      </trkpt>
      <trkpt lat="46.68878" lon="6.09483">
        <ele>1097.96</ele>
        <time>2013-05-09T14:43:42Z</time>
      </trkpt>
      <trkpt lat="46.6888" lon="6.09481">
        <ele>1098.44</ele>
        <time>2013-05-09T14:43:43Z</time>
      </trkpt>
      <trkpt lat="46.68886" lon="6.09467">
        <ele>1098.44</ele>
        <time>2013-05-09T14:43:50Z</time>
      </trkpt>
      <trkpt lat="46.6889" lon="6.09463">
        <ele>1098.44</ele>
        <time>2013-05-09T14:43:53Z</time>
      </trkpt>
      <trkpt lat="46.68907" lon="6.09442">
        <ele>1098.44</ele>
        <time>2013-05-09T14:44:04Z</time>
      </trkpt>
      <trkpt lat="46.68924" lon="6.09412">
        <ele>1098.44</ele>
        <time>2013-05-09T14:44:14Z</time>
      </trkpt>
      <trkpt lat="46.68926" lon="6.0941">
        <ele>1098.44</ele>
        <time>2013-05-09T14:44:15Z</time>
      </trkpt>
      <trkpt lat="46.68936" lon="6.09396">
        <ele>1099.89</ele>
        <time>2013-05-09T14:44:22Z</time>
      </trkpt>
      <trkpt lat="46.68938" lon="6.09395">
        <ele>1100.37</ele>
        <time>2013-05-09T14:44:23Z</time>
      </trkpt>
      <trkpt lat="46.68944" lon="6.09392">
        <ele>1101.33</ele>
        <time>2013-05-09T14:44:27Z</time>
      </trkpt>
      <trkpt lat="46.68945" lon="6.09392">
        <ele>1101.33</ele>
        <time>2013-05-09T14:44:28Z</time>
      </trkpt>
      <trkpt lat="46.68946" lon="6.09391">
        <ele>1101.33</ele>
        <time>2013-05-09T14:44:29Z</time>
      </trkpt>
      <trkpt lat="46.68947" lon="6.09391">
        <ele>1101.33</ele>
        <time>2013-05-09T14:44:30Z</time>
      </trkpt>
      <trkpt lat="46.68949" lon="6.0939">
        <ele>1101.33</ele>
        <time>2013-05-09T14:44:31Z</time>
      </trkpt>
      <trkpt lat="46.68954" lon="6.09388">
        <ele>1101.81</ele>
        <time>2013-05-09T14:44:34Z</time>
      </trkpt>
      <trkpt lat="46.68956" lon="6.09387">
        <ele>1102.29</ele>
        <time>2013-05-09T14:44:35Z</time>
      </trkpt>
      <trkpt lat="46.68958" lon="6.09386">
        <ele>1102.77</ele>
        <time>2013-05-09T14:44:36Z</time>
      </trkpt>
      <trkpt lat="46.68967" lon="6.09385">
        <ele>1104.69</ele>
        <time>2013-05-09T14:44:46Z</time>
      </trkpt>
      <trkpt lat="46.68975" lon="6.09378">
        <ele>1105.17</ele>
        <time>2013-05-09T14:44:50Z</time>
      </trkpt>
      <trkpt lat="46.68993" lon="6.09364">
        <ele>1107.1</ele>
        <time>2013-05-09T14:45:01Z</time>
      </trkpt>
      <trkpt lat="46.6901" lon="6.09341">
        <ele>1109.02</ele>
        <time>2013-05-09T14:45:09Z</time>
      </trkpt>
      <trkpt lat="46.69014" lon="6.09338">
        <ele>1109.02</ele>
        <time>2013-05-09T14:45:10Z</time>
      </trkpt>
      <trkpt lat="46.69031" lon="6.09306">
        <ele>1111.9</ele>
        <time>2013-05-09T14:45:23Z</time>
      </trkpt>
      <trkpt lat="46.69031" lon="6.09297">
        <ele>1111.9</ele>
        <time>2013-05-09T14:45:29Z</time>
      </trkpt>
      <trkpt lat="46.69027" lon="6.09288">
        <ele>1112.38</ele>
        <time>2013-05-09T14:45:33Z</time>
      </trkpt>
      <trkpt lat="46.69013" lon="6.09262">
        <ele>1112.38</ele>
        <time>2013-05-09T14:45:42Z</time>
      </trkpt>
      <trkpt lat="46.68995" lon="6.09236">
        <ele>1111.9</ele>
        <time>2013-05-09T14:45:50Z</time>
      </trkpt>
      <trkpt lat="46.68985" lon="6.09219">
        <ele>1111.9</ele>
        <time>2013-05-09T14:45:54Z</time>
      </trkpt>
      <trkpt lat="46.6898" lon="6.0921">
        <ele>1111.42</ele>
        <time>2013-05-09T14:45:56Z</time>
      </trkpt>
      <trkpt lat="46.68967" lon="6.09189">
        <ele>1111.42</ele>
        <time>2013-05-09T14:46:01Z</time>
      </trkpt>
      <trkpt lat="46.68944" lon="6.09171">
        <ele>1110.94</ele>
        <time>2013-05-09T14:46:09Z</time>
      </trkpt>
      <trkpt lat="46.68935" lon="6.09161">
        <ele>1110.46</ele>
        <time>2013-05-09T14:46:12Z</time>
      </trkpt>
      <trkpt lat="46.68925" lon="6.09147">
        <ele>1110.46</ele>
        <time>2013-05-09T14:46:17Z</time>
      </trkpt>
      <trkpt lat="46.68907" lon="6.09145">
        <ele>1109.98</ele>
        <time>2013-05-09T14:46:24Z</time>
      </trkpt>
      <trkpt lat="46.68902" lon="6.09143">
        <ele>1109.98</ele>
        <time>2013-05-09T14:46:26Z</time>
      </trkpt>
      <trkpt lat="46.6889" lon="6.09141">
        <ele>1109.5</ele>
        <time>2013-05-09T14:46:31Z</time>
      </trkpt>
      <trkpt lat="46.68859" lon="6.09149">
        <ele>1109.02</ele>
        <time>2013-05-09T14:46:42Z</time>
      </trkpt>
      <trkpt lat="46.6883" lon="6.09129">
        <ele>1107.58</ele>
        <time>2013-05-09T14:46:53Z</time>
      </trkpt>
      <trkpt lat="46.68823" lon="6.0911">
        <ele>1108.06</ele>
        <time>2013-05-09T14:47:00Z</time>
      </trkpt>
      <trkpt lat="46.68816" lon="6.09095">
        <ele>1108.54</ele>
        <time>2013-05-09T14:47:06Z</time>
      </trkpt>
      <trkpt lat="46.68812" lon="6.09085">
        <ele>1108.06</ele>
        <time>2013-05-09T14:47:09Z</time>
      </trkpt>
      <trkpt lat="46.68805" lon="6.09056">
        <ele>1108.06</ele>
        <time>2013-05-09T14:47:18Z</time>
      </trkpt>
      <trkpt lat="46.68797" lon="6.09029">
        <ele>1109.02</ele>
        <time>2013-05-09T14:47:26Z</time>
      </trkpt>
      <trkpt lat="46.68792" lon="6.09017">
        <ele>1109.02</ele>
        <time>2013-05-09T14:47:30Z</time>
      </trkpt>
      <trkpt lat="46.68787" lon="6.08984">
        <ele>1109.98</ele>
        <time>2013-05-09T14:47:40Z</time>
      </trkpt>
      <trkpt lat="46.68784" lon="6.08944">
        <ele>1110.46</ele>
        <time>2013-05-09T14:47:50Z</time>
      </trkpt>
      <trkpt lat="46.68785" lon="6.0893">
        <ele>1110.94</ele>
        <time>2013-05-09T14:47:54Z</time>
      </trkpt>
      <trkpt lat="46.68781" lon="6.08872">
        <ele>1111.42</ele>
        <time>2013-05-09T14:48:06Z</time>
      </trkpt>
      <trkpt lat="46.68782" lon="6.08863">
        <ele>1111.9</ele>
        <time>2013-05-09T14:48:08Z</time>
      </trkpt>
      <trkpt lat="46.6878" lon="6.08837">
        <ele>1112.38</ele>
        <time>2013-05-09T14:48:16Z</time>
      </trkpt>
      <trkpt lat="46.68783" lon="6.08796">
        <ele>1112.86</ele>
        <time>2013-05-09T14:48:26Z</time>
      </trkpt>
      <trkpt lat="46.68783" lon="6.08783">
        <ele>1113.34</ele>
        <time>2013-05-09T14:48:30Z</time>
      </trkpt>
      <trkpt lat="46.68785" lon="6.08767">
        <ele>1113.34</ele>
        <time>2013-05-09T14:48:35Z</time>
      </trkpt>
      <trkpt lat="46.68788" lon="6.08739">
        <ele>1113.82</ele>
        <time>2013-05-09T14:48:43Z</time>
      </trkpt>
      <trkpt lat="46.68788" lon="6.08731">
        <ele>1113.34</ele>
        <time>2013-05-09T14:48:46Z</time>
      </trkpt>
      <trkpt lat="46.68786" lon="6.08715">
        <ele>1111.42</ele>
        <time>2013-05-09T14:48:53Z</time>
      </trkpt>
      <trkpt lat="46.68782" lon="6.08711">
        <ele>1109.5</ele>
        <time>2013-05-09T14:48:56Z</time>
      </trkpt>
      <trkpt lat="46.68765" lon="6.08707">
        <ele>1106.61</ele>
        <time>2013-05-09T14:49:03Z</time>
      </trkpt>
      <trkpt lat="46.68743" lon="6.087">
        <ele>1104.21</ele>
        <time>2013-05-09T14:49:10Z</time>
      </trkpt>
      <trkpt lat="46.68719" lon="6.08701">
        <ele>1101.33</ele>
        <time>2013-05-09T14:49:18Z</time>
      </trkpt>
      <trkpt lat="46.68688" lon="6.08722">
        <ele>1097.96</ele>
        <time>2013-05-09T14:49:28Z</time>
      </trkpt>
      <trkpt lat="46.68683" lon="6.08726">
        <ele>1097.48</ele>
        <time>2013-05-09T14:49:31Z</time>
      </trkpt>
      <trkpt lat="46.68672" lon="6.08723">
        <ele>1096.52</ele>
        <time>2013-05-09T14:49:36Z</time>
      </trkpt>
      <trkpt lat="46.68661" lon="6.08724">
        <ele>1097</ele>
        <time>2013-05-09T14:49:44Z</time>
      </trkpt>
      <trkpt lat="46.68656" lon="6.0872">
        <ele>1096.52</ele>
        <time>2013-05-09T14:49:47Z</time>
      </trkpt>
      <trkpt lat="46.68654" lon="6.08718">
        <ele>1095.56</ele>
        <time>2013-05-09T14:49:49Z</time>
      </trkpt>
      <trkpt lat="46.68642" lon="6.08705">
        <ele>1092.68</ele>
        <time>2013-05-09T14:49:54Z</time>
      </trkpt>
      <trkpt lat="46.68629" lon="6.08697">
        <ele>1091.23</ele>
        <time>2013-05-09T14:49:57Z</time>
      </trkpt>
      <trkpt lat="46.68591" lon="6.08675">
        <ele>1090.75</ele>
        <time>2013-05-09T14:50:07Z</time>
      </trkpt>
      <trkpt lat="46.68584" lon="6.08671">
        <ele>1091.23</ele>
        <time>2013-05-09T14:50:10Z</time>
      </trkpt>
      <trkpt lat="46.68576" lon="6.08672">
        <ele>1090.75</ele>
        <time>2013-05-09T14:50:17Z</time>
      </trkpt>
      <trkpt lat="46.68571" lon="6.08667">
        <ele>1090.27</ele>
        <time>2013-05-09T14:50:21Z</time>
      </trkpt>
      <trkpt lat="46.68563" lon="6.08663">
        <ele>1091.23</ele>
        <time>2013-05-09T14:50:26Z</time>
      </trkpt>
      <trkpt lat="46.68555" lon="6.0866">
        <ele>1091.23</ele>
        <time>2013-05-09T14:50:31Z</time>
      </trkpt>
      <trkpt lat="46.68541" lon="6.08657">
        <ele>1091.23</ele>
        <time>2013-05-09T14:50:36Z</time>
      </trkpt>
      <trkpt lat="46.68525" lon="6.08643">
        <ele>1090.75</ele>
        <time>2013-05-09T14:50:44Z</time>
      </trkpt>
      <trkpt lat="46.68522" lon="6.08637">
        <ele>1090.27</ele>
        <time>2013-05-09T14:50:46Z</time>
      </trkpt>
      <trkpt lat="46.68502" lon="6.08622">
        <ele>1090.27</ele>
        <time>2013-05-09T14:50:56Z</time>
      </trkpt>
      <trkpt lat="46.68471" lon="6.08602">
        <ele>1089.79</ele>
        <time>2013-05-09T14:51:10Z</time>
      </trkpt>
      <trkpt lat="46.68448" lon="6.08591">
        <ele>1086.91</ele>
        <time>2013-05-09T14:51:19Z</time>
      </trkpt>
      <trkpt lat="46.68431" lon="6.08569">
        <ele>1084.99</ele>
        <time>2013-05-09T14:51:28Z</time>
      </trkpt>
      <trkpt lat="46.68418" lon="6.08577">
        <ele>1083.54</ele>
        <time>2013-05-09T14:51:33Z</time>
      </trkpt>
      <trkpt lat="46.68397" lon="6.08612">
        <ele>1081.62</ele>
        <time>2013-05-09T14:51:41Z</time>
      </trkpt>
      <trkpt lat="46.68371" lon="6.08664">
        <ele>1078.74</ele>
        <time>2013-05-09T14:51:50Z</time>
      </trkpt>
      <trkpt lat="46.68358" lon="6.08687">
        <ele>1077.78</ele>
        <time>2013-05-09T14:51:54Z</time>
      </trkpt>
      <trkpt lat="46.68339" lon="6.08717">
        <ele>1075.37</ele>
        <time>2013-05-09T14:52:04Z</time>
      </trkpt>
      <trkpt lat="46.68339" lon="6.08719">
        <ele>1075.37</ele>
        <time>2013-05-09T14:52:05Z</time>
      </trkpt>
      <trkpt lat="46.68339" lon="6.0872">
        <ele>1075.85</ele>
        <time>2013-05-09T14:52:20Z</time>
      </trkpt>
      <trkpt lat="46.68338" lon="6.0872">
        <ele>1075.37</ele>
        <time>2013-05-09T14:52:28Z</time>
      </trkpt>
      <trkpt lat="46.68337" lon="6.08719">
        <ele>1075.37</ele>
        <time>2013-05-09T14:52:29Z</time>
      </trkpt>
      <trkpt lat="46.68337" lon="6.08716">
        <ele>1075.37</ele>
        <time>2013-05-09T14:52:30Z</time>
      </trkpt>
      <trkpt lat="46.68337" lon="6.08714">
        <ele>1075.37</ele>
        <time>2013-05-09T14:52:31Z</time>
      </trkpt>
      <trkpt lat="46.68338" lon="6.08711">
        <ele>1075.37</ele>
        <time>2013-05-09T14:52:32Z</time>
      </trkpt>
      <trkpt lat="46.68339" lon="6.08707">
        <ele>1075.37</ele>
        <time>2013-05-09T14:52:33Z</time>
      </trkpt>
      <trkpt lat="46.68338" lon="6.08703">
        <ele>1075.37</ele>
        <time>2013-05-09T14:52:34Z</time>
      </trkpt>
      <trkpt lat="46.68338" lon="6.08699">
        <ele>1075.37</ele>
        <time>2013-05-09T14:52:35Z</time>
      </trkpt>
      <trkpt lat="46.68337" lon="6.08694">
        <ele>1075.85</ele>
        <time>2013-05-09T14:52:36Z</time>
      </trkpt>
      <trkpt lat="46.68337" lon="6.0869">
        <ele>1075.85</ele>
        <time>2013-05-09T14:52:37Z</time>
      </trkpt>
      <trkpt lat="46.68337" lon="6.08685">
        <ele>1075.85</ele>
        <time>2013-05-09T14:52:38Z</time>
      </trkpt>
      <trkpt lat="46.68336" lon="6.08681">
        <ele>1075.85</ele>
        <time>2013-05-09T14:52:39Z</time>
      </trkpt>
      <trkpt lat="46.68326" lon="6.08608">
        <ele>1074.89</ele>
        <time>2013-05-09T14:52:53Z</time>
      </trkpt>
      <trkpt lat="46.68309" lon="6.08552">
        <ele>1076.33</ele>
        <time>2013-05-09T14:53:05Z</time>
      </trkpt>
      <trkpt lat="46.68305" lon="6.0854">
        <ele>1077.78</ele>
        <time>2013-05-09T14:53:08Z</time>
      </trkpt>
      <trkpt lat="46.68293" lon="6.0848">
        <ele>1079.22</ele>
        <time>2013-05-09T14:53:22Z</time>
      </trkpt>
      <trkpt lat="46.68308" lon="6.08432">
        <ele>1079.7</ele>
        <time>2013-05-09T14:53:34Z</time>
      </trkpt>
      <trkpt lat="46.68323" lon="6.08396">
        <ele>1079.22</ele>
        <time>2013-05-09T14:53:46Z</time>
      </trkpt>
      <trkpt lat="46.68321" lon="6.08358">
        <ele>1078.26</ele>
        <time>2013-05-09T14:53:56Z</time>
      </trkpt>
      <trkpt lat="46.68313" lon="6.08316">
        <ele>1080.18</ele>
        <time>2013-05-09T14:54:06Z</time>
      </trkpt>
      <trkpt lat="46.68304" lon="6.08274">
        <ele>1081.62</ele>
        <time>2013-05-09T14:54:17Z</time>
      </trkpt>
      <trkpt lat="46.68302" lon="6.0827">
        <ele>1081.62</ele>
        <time>2013-05-09T14:54:18Z</time>
      </trkpt>
      <trkpt lat="46.68299" lon="6.08266">
        <ele>1081.14</ele>
        <time>2013-05-09T14:54:19Z</time>
      </trkpt>
      <trkpt lat="46.68297" lon="6.08262">
        <ele>1081.14</ele>
        <time>2013-05-09T14:54:20Z</time>
      </trkpt>
      <trkpt lat="46.6828" lon="6.08218">
        <ele>1080.18</ele>
        <time>2013-05-09T14:54:30Z</time>
      </trkpt>
      <trkpt lat="46.68257" lon="6.08185">
        <ele>1081.62</ele>
        <time>2013-05-09T14:54:40Z</time>
      </trkpt>
      <trkpt lat="46.68235" lon="6.08162">
        <ele>1084.5</ele>
        <time>2013-05-09T14:54:51Z</time>
      </trkpt>
      <trkpt lat="46.68223" lon="6.08148">
        <ele>1085.95</ele>
        <time>2013-05-09T14:54:58Z</time>
      </trkpt>
      <trkpt lat="46.68222" lon="6.08146">
        <ele>1085.95</ele>
        <time>2013-05-09T14:54:59Z</time>
      </trkpt>
      <trkpt lat="46.68222" lon="6.08144">
        <ele>1085.95</ele>
        <time>2013-05-09T14:55:00Z</time>
      </trkpt>
      <trkpt lat="46.68221" lon="6.08142">
        <ele>1086.43</ele>
        <time>2013-05-09T14:55:01Z</time>
      </trkpt>
      <trkpt lat="46.68219" lon="6.08139">
        <ele>1086.43</ele>
        <time>2013-05-09T14:55:02Z</time>
      </trkpt>
      <trkpt lat="46.68196" lon="6.08112">
        <ele>1088.35</ele>
        <time>2013-05-09T14:55:15Z</time>
      </trkpt>
      <trkpt lat="46.68185" lon="6.08097">
        <ele>1089.31</ele>
        <time>2013-05-09T14:55:25Z</time>
      </trkpt>
      <trkpt lat="46.68183" lon="6.08091">
        <ele>1085.47</ele>
        <time>2013-05-09T14:55:28Z</time>
      </trkpt>
      <trkpt lat="46.6818" lon="6.08088">
        <ele>1095.56</ele>
        <time>2013-05-09T14:55:29Z</time>
      </trkpt>
      <trkpt lat="46.68179" lon="6.08086">
        <ele>1090.27</ele>
        <time>2013-05-09T14:55:30Z</time>
      </trkpt>
      <trkpt lat="46.68161" lon="6.08058">
        <ele>1091.71</ele>
        <time>2013-05-09T14:55:43Z</time>
      </trkpt>
      <trkpt lat="46.68156" lon="6.0805">
        <ele>1092.68</ele>
        <time>2013-05-09T14:55:46Z</time>
      </trkpt>
      <trkpt lat="46.68147" lon="6.08024">
        <ele>1093.64</ele>
        <time>2013-05-09T14:56:00Z</time>
      </trkpt>
      <trkpt lat="46.68138" lon="6.07993">
        <ele>1093.64</ele>
        <time>2013-05-09T14:56:12Z</time>
      </trkpt>
      <trkpt lat="46.68123" lon="6.07939">
        <ele>1094.6</ele>
        <time>2013-05-09T14:56:28Z</time>
      </trkpt>
      <trkpt lat="46.68115" lon="6.07902">
        <ele>1096.04</ele>
        <time>2013-05-09T14:56:40Z</time>
      </trkpt>
      <trkpt lat="46.68104" lon="6.0787">
        <ele>1096.52</ele>
        <time>2013-05-09T14:56:52Z</time>
      </trkpt>
      <trkpt lat="46.68097" lon="6.07838">
        <ele>1096.04</ele>
        <time>2013-05-09T14:57:03Z</time>
      </trkpt>
      <trkpt lat="46.68086" lon="6.07814">
        <ele>1097.96</ele>
        <time>2013-05-09T14:57:15Z</time>
      </trkpt>
      <trkpt lat="46.68073" lon="6.07792">
        <ele>1100.85</ele>
        <time>2013-05-09T14:57:26Z</time>
      </trkpt>
      <trkpt lat="46.68063" lon="6.07753">
        <ele>1103.25</ele>
        <time>2013-05-09T14:57:40Z</time>
      </trkpt>
      <trkpt lat="46.68058" lon="6.07735">
        <ele>1104.69</ele>
        <time>2013-05-09T14:57:49Z</time>
      </trkpt>
      <trkpt lat="46.68056" lon="6.07723">
        <ele>1106.13</ele>
        <time>2013-05-09T14:57:56Z</time>
      </trkpt>
      <trkpt lat="46.68044" lon="6.07704">
        <ele>1109.02</ele>
        <time>2013-05-09T14:58:09Z</time>
      </trkpt>
      <trkpt lat="46.68042" lon="6.07688">
        <ele>1109.98</ele>
        <time>2013-05-09T14:58:16Z</time>
      </trkpt>
      <trkpt lat="46.68043" lon="6.07669">
        <ele>1112.38</ele>
        <time>2013-05-09T14:58:27Z</time>
      </trkpt>
      <trkpt lat="46.68047" lon="6.07649">
        <ele>1114.79</ele>
        <time>2013-05-09T14:58:39Z</time>
      </trkpt>
      <trkpt lat="46.6805" lon="6.07632">
        <ele>1115.27</ele>
        <time>2013-05-09T14:58:45Z</time>
      </trkpt>
      <trkpt lat="46.68053" lon="6.07615">
        <ele>1116.23</ele>
        <time>2013-05-09T14:58:51Z</time>
      </trkpt>
      <trkpt lat="46.68061" lon="6.07562">
        <ele>1118.63</ele>
        <time>2013-05-09T14:59:03Z</time>
      </trkpt>
      <trkpt lat="46.68058" lon="6.07519">
        <ele>1118.63</ele>
        <time>2013-05-09T14:59:12Z</time>
      </trkpt>
      <trkpt lat="46.68057" lon="6.07496">
        <ele>1119.11</ele>
        <time>2013-05-09T14:59:18Z</time>
      </trkpt>
      <trkpt lat="46.68048" lon="6.07449">
        <ele>1118.15</ele>
        <time>2013-05-09T14:59:32Z</time>
      </trkpt>
      <trkpt lat="46.68065" lon="6.07414">
        <ele>1118.15</ele>
        <time>2013-05-09T14:59:42Z</time>
      </trkpt>
      <trkpt lat="46.68082" lon="6.07359">
        <ele>1118.63</ele>
        <time>2013-05-09T14:59:55Z</time>
      </trkpt>
      <trkpt lat="46.68106" lon="6.0731">
        <ele>1120.07</ele>
        <time>2013-05-09T15:00:08Z</time>
      </trkpt>
      <trkpt lat="46.68119" lon="6.07254">
        <ele>1120.55</ele>
        <time>2013-05-09T15:00:21Z</time>
      </trkpt>
      <trkpt lat="46.68123" lon="6.07236">
        <ele>1121.03</ele>
        <time>2013-05-09T15:00:25Z</time>
      </trkpt>
      <trkpt lat="46.68136" lon="6.07222">
        <ele>1124.4</ele>
        <time>2013-05-09T15:00:33Z</time>
      </trkpt>
      <trkpt lat="46.68141" lon="6.0722">
        <ele>1125.36</ele>
        <time>2013-05-09T15:00:35Z</time>
      </trkpt>
      <trkpt lat="46.6817" lon="6.07204">
        <ele>1128.24</ele>
        <time>2013-05-09T15:00:46Z</time>
      </trkpt>
      <trkpt lat="46.68198" lon="6.07182">
        <ele>1127.76</ele>
        <time>2013-05-09T15:00:59Z</time>
      </trkpt>
      <trkpt lat="46.68224" lon="6.0716">
        <ele>1125.84</ele>
        <time>2013-05-09T15:01:09Z</time>
      </trkpt>
      <trkpt lat="46.68247" lon="6.07128">
        <ele>1123.92</ele>
        <time>2013-05-09T15:01:17Z</time>
      </trkpt>
      <trkpt lat="46.68269" lon="6.07109">
        <ele>1122.96</ele>
        <time>2013-05-09T15:01:24Z</time>
      </trkpt>
      <trkpt lat="46.68272" lon="6.07104">
        <ele>1123.44</ele>
        <time>2013-05-09T15:01:25Z</time>
      </trkpt>
      <trkpt lat="46.68289" lon="6.07077">
        <ele>1126.32</ele>
        <time>2013-05-09T15:01:33Z</time>
      </trkpt>
      <trkpt lat="46.68294" lon="6.07071">
        <ele>1126.8</ele>
        <time>2013-05-09T15:01:36Z</time>
      </trkpt>
      <trkpt lat="46.68295" lon="6.0707">
        <ele>1127.28</ele>
        <time>2013-05-09T15:01:37Z</time>
      </trkpt>
      <trkpt lat="46.68302" lon="6.07068">
        <ele>1127.28</ele>
        <time>2013-05-09T15:01:48Z</time>
      </trkpt>
      <trkpt lat="46.68304" lon="6.07064">
        <ele>1127.28</ele>
        <time>2013-05-09T15:01:59Z</time>
      </trkpt>
      <trkpt lat="46.68309" lon="6.07054">
        <ele>1127.28</ele>
        <time>2013-05-09T15:02:10Z</time>
      </trkpt>
      <trkpt lat="46.68313" lon="6.0705">
        <ele>1127.28</ele>
        <time>2013-05-09T15:02:21Z</time>
      </trkpt>
      <trkpt lat="46.68318" lon="6.07042">
        <ele>1127.28</ele>
        <time>2013-05-09T15:02:31Z</time>
      </trkpt>
      <trkpt lat="46.6832" lon="6.07041">
        <ele>1127.76</ele>
        <time>2013-05-09T15:02:46Z</time>
      </trkpt>
      <trkpt lat="46.68322" lon="6.07039">
        <ele>1127.76</ele>
        <time>2013-05-09T15:02:47Z</time>
      </trkpt>
      <trkpt lat="46.68325" lon="6.07037">
        <ele>1127.28</ele>
        <time>2013-05-09T15:02:48Z</time>
      </trkpt>
      <trkpt lat="46.68327" lon="6.07035">
        <ele>1127.76</ele>
        <time>2013-05-09T15:02:49Z</time>
      </trkpt>
      <trkpt lat="46.6833" lon="6.07032">
        <ele>1127.28</ele>
        <time>2013-05-09T15:02:50Z</time>
      </trkpt>
      <trkpt lat="46.68332" lon="6.0703">
        <ele>1127.28</ele>
        <time>2013-05-09T15:02:51Z</time>
      </trkpt>
      <trkpt lat="46.68334" lon="6.07028">
        <ele>1127.28</ele>
        <time>2013-05-09T15:02:52Z</time>
      </trkpt>
      <trkpt lat="46.68337" lon="6.07025">
        <ele>1126.8</ele>
        <time>2013-05-09T15:02:53Z</time>
      </trkpt>
      <trkpt lat="46.68339" lon="6.07023">
        <ele>1126.8</ele>
        <time>2013-05-09T15:02:54Z</time>
      </trkpt>
      <trkpt lat="46.6834" lon="6.07021">
        <ele>1126.8</ele>
        <time>2013-05-09T15:02:55Z</time>
      </trkpt>
      <trkpt lat="46.68342" lon="6.07019">
        <ele>1126.32</ele>
        <time>2013-05-09T15:02:56Z</time>
      </trkpt>
      <trkpt lat="46.68345" lon="6.07018">
        <ele>1126.32</ele>
        <time>2013-05-09T15:02:57Z</time>
      </trkpt>
      <trkpt lat="46.68346" lon="6.07016">
        <ele>1126.32</ele>
        <time>2013-05-09T15:02:58Z</time>
      </trkpt>
      <trkpt lat="46.68348" lon="6.07014">
        <ele>1125.84</ele>
        <time>2013-05-09T15:02:59Z</time>
      </trkpt>
      <trkpt lat="46.6835" lon="6.07012">
        <ele>1125.84</ele>
        <time>2013-05-09T15:03:00Z</time>
      </trkpt>
      <trkpt lat="46.68352" lon="6.0701">
        <ele>1125.84</ele>
        <time>2013-05-09T15:03:01Z</time>
      </trkpt>
      <trkpt lat="46.68354" lon="6.07008">
        <ele>1125.84</ele>
        <time>2013-05-09T15:03:02Z</time>
      </trkpt>
      <trkpt lat="46.68356" lon="6.07006">
        <ele>1125.84</ele>
        <time>2013-05-09T15:03:15Z</time>
      </trkpt>
      <trkpt lat="46.68357" lon="6.07006">
        <ele>1125.84</ele>
        <time>2013-05-09T15:03:48Z</time>
      </trkpt>
      <trkpt lat="46.68365" lon="6.07002">
        <ele>1124.88</ele>
        <time>2013-05-09T15:03:56Z</time>
      </trkpt>
      <trkpt lat="46.68367" lon="6.06997">
        <ele>1125.36</ele>
        <time>2013-05-09T15:04:08Z</time>
      </trkpt>
      <trkpt lat="46.68367" lon="6.06994">
        <ele>1125.36</ele>
        <time>2013-05-09T15:04:23Z</time>
      </trkpt>
      <trkpt lat="46.68369" lon="6.06991">
        <ele>1125.36</ele>
        <time>2013-05-09T15:04:40Z</time>
      </trkpt>
      <trkpt lat="46.68375" lon="6.06982">
        <ele>1125.36</ele>
        <time>2013-05-09T15:04:46Z</time>
      </trkpt>
      <trkpt lat="46.68389" lon="6.06962">
        <ele>1126.32</ele>
        <time>2013-05-09T15:04:59Z</time>
      </trkpt>
      <trkpt lat="46.68396" lon="6.06949">
        <ele>1126.32</ele>
        <time>2013-05-09T15:05:09Z</time>
      </trkpt>
      <trkpt lat="46.68402" lon="6.06942">
        <ele>1126.32</ele>
        <time>2013-05-09T15:05:19Z</time>
      </trkpt>
      <trkpt lat="46.68405" lon="6.0694">
        <ele>1126.32</ele>
        <time>2013-05-09T15:05:33Z</time>
      </trkpt>
      <trkpt lat="46.6841" lon="6.06936">
        <ele>1126.8</ele>
        <time>2013-05-09T15:05:48Z</time>
      </trkpt>
      <trkpt lat="46.68412" lon="6.06935">
        <ele>1126.32</ele>
        <time>2013-05-09T15:05:58Z</time>
      </trkpt>
      <trkpt lat="46.68414" lon="6.06933">
        <ele>1126.32</ele>
        <time>2013-05-09T15:06:09Z</time>
      </trkpt>
      <trkpt lat="46.68424" lon="6.06925">
        <ele>1126.32</ele>
        <time>2013-05-09T15:06:20Z</time>
      </trkpt>
      <trkpt lat="46.68428" lon="6.06922">
        <ele>1126.32</ele>
        <time>2013-05-09T15:06:23Z</time>
      </trkpt>
      <trkpt lat="46.68439" lon="6.06905">
        <ele>1127.76</ele>
        <time>2013-05-09T15:06:31Z</time>
      </trkpt>
      <trkpt lat="46.68441" lon="6.06904">
        <ele>1127.76</ele>
        <time>2013-05-09T15:06:32Z</time>
      </trkpt>
      <trkpt lat="46.68442" lon="6.06904">
        <ele>1128.24</ele>
        <time>2013-05-09T15:06:33Z</time>
      </trkpt>
      <trkpt lat="46.68446" lon="6.069">
        <ele>1129.21</ele>
        <time>2013-05-09T15:06:37Z</time>
      </trkpt>
      <trkpt lat="46.68446" lon="6.06898">
        <ele>1129.21</ele>
        <time>2013-05-09T15:06:38Z</time>
      </trkpt>
      <trkpt lat="46.68447" lon="6.06896">
        <ele>1129.21</ele>
        <time>2013-05-09T15:06:39Z</time>
      </trkpt>
      <trkpt lat="46.68448" lon="6.06895">
        <ele>1129.21</ele>
        <time>2013-05-09T15:06:40Z</time>
      </trkpt>
      <trkpt lat="46.68449" lon="6.06893">
        <ele>1129.21</ele>
        <time>2013-05-09T15:06:41Z</time>
      </trkpt>
      <trkpt lat="46.68451" lon="6.06891">
        <ele>1129.69</ele>
        <time>2013-05-09T15:06:43Z</time>
      </trkpt>
      <trkpt lat="46.68452" lon="6.06889">
        <ele>1129.69</ele>
        <time>2013-05-09T15:06:44Z</time>
      </trkpt>
      <trkpt lat="46.68454" lon="6.06887">
        <ele>1129.69</ele>
        <time>2013-05-09T15:06:45Z</time>
      </trkpt>
      <trkpt lat="46.68455" lon="6.06885">
        <ele>1129.69</ele>
        <time>2013-05-09T15:06:46Z</time>
      </trkpt>
      <trkpt lat="46.68456" lon="6.06883">
        <ele>1129.69</ele>
        <time>2013-05-09T15:06:47Z</time>
      </trkpt>
      <trkpt lat="46.68471" lon="6.06869">
        <ele>1131.13</ele>
        <time>2013-05-09T15:06:56Z</time>
      </trkpt>
      <trkpt lat="46.68472" lon="6.06867">
        <ele>1131.61</ele>
        <time>2013-05-09T15:06:57Z</time>
      </trkpt>
      <trkpt lat="46.68474" lon="6.06864">
        <ele>1133.05</ele>
        <time>2013-05-09T15:07:01Z</time>
      </trkpt>
      <trkpt lat="46.68481" lon="6.06858">
        <ele>1133.53</ele>
        <time>2013-05-09T15:07:06Z</time>
      </trkpt>
      <trkpt lat="46.68489" lon="6.06849">
        <ele>1134.49</ele>
        <time>2013-05-09T15:07:12Z</time>
      </trkpt>
      <trkpt lat="46.68492" lon="6.06843">
        <ele>1134.97</ele>
        <time>2013-05-09T15:07:16Z</time>
      </trkpt>
      <trkpt lat="46.68494" lon="6.06842">
        <ele>1135.45</ele>
        <time>2013-05-09T15:07:17Z</time>
      </trkpt>
      <trkpt lat="46.68495" lon="6.0684">
        <ele>1135.45</ele>
        <time>2013-05-09T15:07:18Z</time>
      </trkpt>
      <trkpt lat="46.68496" lon="6.06839">
        <ele>1135.94</ele>
        <time>2013-05-09T15:07:19Z</time>
      </trkpt>
      <trkpt lat="46.68499" lon="6.06839">
        <ele>1136.42</ele>
        <time>2013-05-09T15:07:21Z</time>
      </trkpt>
      <trkpt lat="46.68504" lon="6.06835">
        <ele>1139.78</ele>
        <time>2013-05-09T15:07:30Z</time>
      </trkpt>
      <trkpt lat="46.68513" lon="6.06831">
        <ele>1142.66</ele>
        <time>2013-05-09T15:07:38Z</time>
      </trkpt>
      <trkpt lat="46.68525" lon="6.06824">
        <ele>1143.14</ele>
        <time>2013-05-09T15:07:49Z</time>
      </trkpt>
      <trkpt lat="46.68533" lon="6.06817">
        <ele>1144.59</ele>
        <time>2013-05-09T15:07:57Z</time>
      </trkpt>
      <trkpt lat="46.68537" lon="6.06813">
        <ele>1146.51</ele>
        <time>2013-05-09T15:08:06Z</time>
      </trkpt>
      <trkpt lat="46.68543" lon="6.06809">
        <ele>1147.95</ele>
        <time>2013-05-09T15:08:16Z</time>
      </trkpt>
      <trkpt lat="46.68553" lon="6.068">
        <ele>1148.91</ele>
        <time>2013-05-09T15:08:26Z</time>
      </trkpt>
      <trkpt lat="46.68558" lon="6.06793">
        <ele>1149.39</ele>
        <time>2013-05-09T15:08:31Z</time>
      </trkpt>
      <trkpt lat="46.6856" lon="6.06793">
        <ele>1149.39</ele>
        <time>2013-05-09T15:08:32Z</time>
      </trkpt>
      <trkpt lat="46.68562" lon="6.06792">
        <ele>1149.39</ele>
        <time>2013-05-09T15:08:33Z</time>
      </trkpt>
      <trkpt lat="46.68564" lon="6.0679">
        <ele>1149.87</ele>
        <time>2013-05-09T15:08:34Z</time>
      </trkpt>
      <trkpt lat="46.68566" lon="6.06789">
        <ele>1149.87</ele>
        <time>2013-05-09T15:08:35Z</time>
      </trkpt>
      <trkpt lat="46.68567" lon="6.06788">
        <ele>1149.87</ele>
        <time>2013-05-09T15:08:36Z</time>
      </trkpt>
      <trkpt lat="46.68569" lon="6.06787">
        <ele>1150.35</ele>
        <time>2013-05-09T15:08:37Z</time>
      </trkpt>
      <trkpt lat="46.6857" lon="6.06787">
        <ele>1150.35</ele>
        <time>2013-05-09T15:08:38Z</time>
      </trkpt>
      <trkpt lat="46.68583" lon="6.0678">
        <ele>1152.76</ele>
        <time>2013-05-09T15:08:50Z</time>
      </trkpt>
      <trkpt lat="46.68593" lon="6.06778">
        <ele>1154.2</ele>
        <time>2013-05-09T15:08:57Z</time>
      </trkpt>
      <trkpt lat="46.68607" lon="6.06771">
        <ele>1157.56</ele>
        <time>2013-05-09T15:09:07Z</time>
      </trkpt>
      <trkpt lat="46.68619" lon="6.06757">
        <ele>1160.93</ele>
        <time>2013-05-09T15:09:20Z</time>
      </trkpt>
      <trkpt lat="46.68622" lon="6.06755">
        <ele>1161.89</ele>
        <time>2013-05-09T15:09:34Z</time>
      </trkpt>
      <trkpt lat="46.68622" lon="6.06755">
        <ele>1163.33</ele>
        <time>2013-05-09T15:09:46Z</time>
      </trkpt>
      <trkpt lat="46.68628" lon="6.06744">
        <ele>1164.77</ele>
        <time>2013-05-09T15:09:56Z</time>
      </trkpt>
      <trkpt lat="46.6864" lon="6.06733">
        <ele>1167.18</ele>
        <time>2013-05-09T15:10:07Z</time>
      </trkpt>
      <trkpt lat="46.68645" lon="6.06723">
        <ele>1168.14</ele>
        <time>2013-05-09T15:10:18Z</time>
      </trkpt>
      <trkpt lat="46.68646" lon="6.06719">
        <ele>1168.14</ele>
        <time>2013-05-09T15:10:28Z</time>
      </trkpt>
      <trkpt lat="46.68646" lon="6.06716">
        <ele>1168.62</ele>
        <time>2013-05-09T15:10:29Z</time>
      </trkpt>
      <trkpt lat="46.68647" lon="6.06714">
        <ele>1168.62</ele>
        <time>2013-05-09T15:10:30Z</time>
      </trkpt>
      <trkpt lat="46.68648" lon="6.06709">
        <ele>1168.62</ele>
        <time>2013-05-09T15:10:32Z</time>
      </trkpt>
      <trkpt lat="46.68651" lon="6.06705">
        <ele>1169.1</ele>
        <time>2013-05-09T15:10:34Z</time>
      </trkpt>
      <trkpt lat="46.68653" lon="6.06703">
        <ele>1169.1</ele>
        <time>2013-05-09T15:10:35Z</time>
      </trkpt>
      <trkpt lat="46.68656" lon="6.06702">
        <ele>1169.58</ele>
        <time>2013-05-09T15:10:36Z</time>
      </trkpt>
      <trkpt lat="46.68658" lon="6.06699">
        <ele>1170.06</ele>
        <time>2013-05-09T15:10:37Z</time>
      </trkpt>
      <trkpt lat="46.6866" lon="6.06697">
        <ele>1170.54</ele>
        <time>2013-05-09T15:10:38Z</time>
      </trkpt>
      <trkpt lat="46.68672" lon="6.0668">
        <ele>1173.43</ele>
        <time>2013-05-09T15:10:48Z</time>
      </trkpt>
      <trkpt lat="46.68677" lon="6.06675">
        <ele>1173.91</ele>
        <time>2013-05-09T15:10:51Z</time>
      </trkpt>
      <trkpt lat="46.68699" lon="6.06662">
        <ele>1175.83</ele>
        <time>2013-05-09T15:11:03Z</time>
      </trkpt>
      <trkpt lat="46.68708" lon="6.06655">
        <ele>1176.79</ele>
        <time>2013-05-09T15:11:12Z</time>
      </trkpt>
      <trkpt lat="46.68712" lon="6.06653">
        <ele>1176.79</ele>
        <time>2013-05-09T15:11:16Z</time>
      </trkpt>
      <trkpt lat="46.68714" lon="6.06651">
        <ele>1176.31</ele>
        <time>2013-05-09T15:11:17Z</time>
      </trkpt>
      <trkpt lat="46.68716" lon="6.06647">
        <ele>1175.83</ele>
        <time>2013-05-09T15:11:18Z</time>
      </trkpt>
      <trkpt lat="46.68718" lon="6.06643">
        <ele>1175.35</ele>
        <time>2013-05-09T15:11:19Z</time>
      </trkpt>
      <trkpt lat="46.68719" lon="6.0664">
        <ele>1175.35</ele>
        <time>2013-05-09T15:11:20Z</time>
      </trkpt>
      <trkpt lat="46.68721" lon="6.06637">
        <ele>1174.87</ele>
        <time>2013-05-09T15:11:21Z</time>
      </trkpt>
      <trkpt lat="46.68722" lon="6.06636">
        <ele>1175.35</ele>
        <time>2013-05-09T15:11:22Z</time>
      </trkpt>
      <trkpt lat="46.68724" lon="6.06635">
        <ele>1175.35</ele>
        <time>2013-05-09T15:11:23Z</time>
      </trkpt>
      <trkpt lat="46.68735" lon="6.06623">
        <ele>1177.27</ele>
        <time>2013-05-09T15:11:33Z</time>
      </trkpt>
      <trkpt lat="46.68743" lon="6.06614">
        <ele>1179.19</ele>
        <time>2013-05-09T15:11:42Z</time>
      </trkpt>
      <trkpt lat="46.6875" lon="6.06605">
        <ele>1180.64</ele>
        <time>2013-05-09T15:11:49Z</time>
      </trkpt>
      <trkpt lat="46.68752" lon="6.06603">
        <ele>1180.64</ele>
        <time>2013-05-09T15:11:51Z</time>
      </trkpt>
      <trkpt lat="46.68754" lon="6.06598">
        <ele>1181.6</ele>
        <time>2013-05-09T15:11:55Z</time>
      </trkpt>
      <trkpt lat="46.68757" lon="6.06599">
        <ele>1183.04</ele>
        <time>2013-05-09T15:12:05Z</time>
      </trkpt>
      <trkpt lat="46.68758" lon="6.06595">
        <ele>1184</ele>
        <time>2013-05-09T15:12:15Z</time>
      </trkpt>
      <trkpt lat="46.68756" lon="6.06589">
        <ele>1184.48</ele>
        <time>2013-05-09T15:12:20Z</time>
      </trkpt>
      <trkpt lat="46.68757" lon="6.06587">
        <ele>1184.48</ele>
        <time>2013-05-09T15:12:21Z</time>
      </trkpt>
      <trkpt lat="46.68758" lon="6.06584">
        <ele>1184</ele>
        <time>2013-05-09T15:12:22Z</time>
      </trkpt>
      <trkpt lat="46.68763" lon="6.06581">
        <ele>1184</ele>
        <time>2013-05-09T15:12:34Z</time>
      </trkpt>
      <trkpt lat="46.68766" lon="6.06578">
        <ele>1183.04</ele>
        <time>2013-05-09T15:12:59Z</time>
      </trkpt>
      <trkpt lat="46.68785" lon="6.06561">
        <ele>1184.48</ele>
        <time>2013-05-09T15:13:08Z</time>
      </trkpt>
      <trkpt lat="46.68793" lon="6.06548">
        <ele>1185.92</ele>
        <time>2013-05-09T15:13:15Z</time>
      </trkpt>
      <trkpt lat="46.68794" lon="6.06547">
        <ele>1185.92</ele>
        <time>2013-05-09T15:13:16Z</time>
      </trkpt>
      <trkpt lat="46.68806" lon="6.06537">
        <ele>1187.85</ele>
        <time>2013-05-09T15:13:26Z</time>
      </trkpt>
      <trkpt lat="46.68808" lon="6.06538">
        <ele>1188.33</ele>
        <time>2013-05-09T15:13:29Z</time>
      </trkpt>
      <trkpt lat="46.6881" lon="6.06539">
        <ele>1188.81</ele>
        <time>2013-05-09T15:13:40Z</time>
      </trkpt>
      <trkpt lat="46.6881" lon="6.06539">
        <ele>1188.81</ele>
        <time>2013-05-09T15:13:58Z</time>
      </trkpt>
      <trkpt lat="46.68811" lon="6.06539">
        <ele>1187.37</ele>
        <time>2013-05-09T15:14:12Z</time>
      </trkpt>
      <trkpt lat="46.68811" lon="6.06539">
        <ele>1187.37</ele>
        <time>2013-05-09T15:14:18Z</time>
      </trkpt>
      <trkpt lat="46.68812" lon="6.06539">
        <ele>1186.88</ele>
        <time>2013-05-09T15:14:19Z</time>
      </trkpt>
      <trkpt lat="46.68815" lon="6.06539">
        <ele>1186.4</ele>
        <time>2013-05-09T15:14:20Z</time>
      </trkpt>
      <trkpt lat="46.68818" lon="6.06539">
        <ele>1185.92</ele>
        <time>2013-05-09T15:14:21Z</time>
      </trkpt>
      <trkpt lat="46.68823" lon="6.06539">
        <ele>1184.96</ele>
        <time>2013-05-09T15:14:22Z</time>
      </trkpt>
      <trkpt lat="46.68828" lon="6.06541">
        <ele>1184.48</ele>
        <time>2013-05-09T15:14:23Z</time>
      </trkpt>
      <trkpt lat="46.68833" lon="6.06544">
        <ele>1184</ele>
        <time>2013-05-09T15:14:24Z</time>
      </trkpt>
      <trkpt lat="46.68844" lon="6.0655">
        <ele>1181.6</ele>
        <time>2013-05-09T15:14:26Z</time>
      </trkpt>
      <trkpt lat="46.68849" lon="6.06556">
        <ele>1181.12</ele>
        <time>2013-05-09T15:14:27Z</time>
      </trkpt>
      <trkpt lat="46.68854" lon="6.06562">
        <ele>1181.6</ele>
        <time>2013-05-09T15:14:28Z</time>
      </trkpt>
      <trkpt lat="46.68859" lon="6.06568">
        <ele>1181.6</ele>
        <time>2013-05-09T15:14:29Z</time>
      </trkpt>
      <trkpt lat="46.68864" lon="6.06572">
        <ele>1181.12</ele>
        <time>2013-05-09T15:14:30Z</time>
      </trkpt>
      <trkpt lat="46.68882" lon="6.06588">
        <ele>1176.79</ele>
        <time>2013-05-09T15:14:34Z</time>
      </trkpt>
      <trkpt lat="46.68888" lon="6.06591">
        <ele>1175.35</ele>
        <time>2013-05-09T15:14:35Z</time>
      </trkpt>
      <trkpt lat="46.68893" lon="6.06594">
        <ele>1174.39</ele>
        <time>2013-05-09T15:14:36Z</time>
      </trkpt>
      <trkpt lat="46.68897" lon="6.06598">
        <ele>1172.95</ele>
        <time>2013-05-09T15:14:37Z</time>
      </trkpt>
      <trkpt lat="46.68902" lon="6.06602">
        <ele>1171.5</ele>
        <time>2013-05-09T15:14:38Z</time>
      </trkpt>
      <trkpt lat="46.6891" lon="6.06609">
        <ele>1169.1</ele>
        <time>2013-05-09T15:14:40Z</time>
      </trkpt>
      <trkpt lat="46.6892" lon="6.06622">
        <ele>1165.74</ele>
        <time>2013-05-09T15:14:43Z</time>
      </trkpt>
      <trkpt lat="46.68928" lon="6.0663">
        <ele>1163.81</ele>
        <time>2013-05-09T15:14:45Z</time>
      </trkpt>
      <trkpt lat="46.68937" lon="6.06638">
        <ele>1160.45</ele>
        <time>2013-05-09T15:14:48Z</time>
      </trkpt>
      <trkpt lat="46.68948" lon="6.06645">
        <ele>1156.6</ele>
        <time>2013-05-09T15:14:51Z</time>
      </trkpt>
      <trkpt lat="46.68962" lon="6.06655">
        <ele>1153.24</ele>
        <time>2013-05-09T15:14:56Z</time>
      </trkpt>
      <trkpt lat="46.68979" lon="6.06661">
        <ele>1149.87</ele>
        <time>2013-05-09T15:15:04Z</time>
      </trkpt>
      <trkpt lat="46.68981" lon="6.06662">
        <ele>1149.39</ele>
        <time>2013-05-09T15:15:05Z</time>
      </trkpt>
      <trkpt lat="46.68983" lon="6.06663">
        <ele>1148.91</ele>
        <time>2013-05-09T15:15:06Z</time>
      </trkpt>
      <trkpt lat="46.68985" lon="6.06665">
        <ele>1148.91</ele>
        <time>2013-05-09T15:15:07Z</time>
      </trkpt>
      <trkpt lat="46.68986" lon="6.06667">
        <ele>1148.43</ele>
        <time>2013-05-09T15:15:08Z</time>
      </trkpt>
      <trkpt lat="46.68988" lon="6.06668">
        <ele>1147.95</ele>
        <time>2013-05-09T15:15:09Z</time>
      </trkpt>
      <trkpt lat="46.6899" lon="6.06669">
        <ele>1147.47</ele>
        <time>2013-05-09T15:15:10Z</time>
      </trkpt>
      <trkpt lat="46.68991" lon="6.0667">
        <ele>1147.95</ele>
        <time>2013-05-09T15:15:11Z</time>
      </trkpt>
      <trkpt lat="46.68996" lon="6.06679">
        <ele>1146.99</ele>
        <time>2013-05-09T15:15:21Z</time>
      </trkpt>
      <trkpt lat="46.68998" lon="6.06684">
        <ele>1147.47</ele>
        <time>2013-05-09T15:15:24Z</time>
      </trkpt>
      <trkpt lat="46.69004" lon="6.06692">
        <ele>1146.99</ele>
        <time>2013-05-09T15:15:30Z</time>
      </trkpt>
      <trkpt lat="46.69005" lon="6.06692">
        <ele>1146.99</ele>
        <time>2013-05-09T15:15:31Z</time>
      </trkpt>
      <trkpt lat="46.69008" lon="6.06692">
        <ele>1146.99</ele>
        <time>2013-05-09T15:15:46Z</time>
      </trkpt>
      <trkpt lat="46.69008" lon="6.06692">
        <ele>1146.99</ele>
        <time>2013-05-09T15:15:58Z</time>
      </trkpt>
      <trkpt lat="46.69009" lon="6.06693">
        <ele>1147.47</ele>
        <time>2013-05-09T15:15:59Z</time>
      </trkpt>
      <trkpt lat="46.6901" lon="6.06693">
        <ele>1147.47</ele>
        <time>2013-05-09T15:16:00Z</time>
      </trkpt>
      <trkpt lat="46.69012" lon="6.06692">
        <ele>1147.47</ele>
        <time>2013-05-09T15:16:01Z</time>
      </trkpt>
      <trkpt lat="46.69013" lon="6.06691">
        <ele>1147.47</ele>
        <time>2013-05-09T15:16:02Z</time>
      </trkpt>
      <trkpt lat="46.69014" lon="6.0669">
        <ele>1147.47</ele>
        <time>2013-05-09T15:16:03Z</time>
      </trkpt>
      <trkpt lat="46.69016" lon="6.06689">
        <ele>1147.47</ele>
        <time>2013-05-09T15:16:04Z</time>
      </trkpt>
      <trkpt lat="46.69017" lon="6.06688">
        <ele>1147.47</ele>
        <time>2013-05-09T15:16:05Z</time>
      </trkpt>
      <trkpt lat="46.69018" lon="6.06686">
        <ele>1147.95</ele>
        <time>2013-05-09T15:16:06Z</time>
      </trkpt>
      <trkpt lat="46.6902" lon="6.06685">
        <ele>1147.95</ele>
        <time>2013-05-09T15:16:07Z</time>
      </trkpt>
      <trkpt lat="46.69022" lon="6.06683">
        <ele>1147.95</ele>
        <time>2013-05-09T15:16:08Z</time>
      </trkpt>
      <trkpt lat="46.69039" lon="6.0665">
        <ele>1149.39</ele>
        <time>2013-05-09T15:16:22Z</time>
      </trkpt>
      <trkpt lat="46.69055" lon="6.06598">
        <ele>1148.43</ele>
        <time>2013-05-09T15:16:38Z</time>
      </trkpt>
      <trkpt lat="46.69054" lon="6.06553">
        <ele>1145.55</ele>
        <time>2013-05-09T15:16:50Z</time>
      </trkpt>
      <trkpt lat="46.69052" lon="6.0653">
        <ele>1143.63</ele>
        <time>2013-05-09T15:16:54Z</time>
      </trkpt>
      <trkpt lat="46.69052" lon="6.06523">
        <ele>1143.63</ele>
        <time>2013-05-09T15:16:55Z</time>
      </trkpt>
      <trkpt lat="46.69054" lon="6.06495">
        <ele>1141.7</ele>
        <time>2013-05-09T15:16:59Z</time>
      </trkpt>
      <trkpt lat="46.69055" lon="6.06489">
        <ele>1141.22</ele>
        <time>2013-05-09T15:17:00Z</time>
      </trkpt>
      <trkpt lat="46.69057" lon="6.06477">
        <ele>1141.22</ele>
        <time>2013-05-09T15:17:02Z</time>
      </trkpt>
      <trkpt lat="46.6906" lon="6.06443">
        <ele>1137.86</ele>
        <time>2013-05-09T15:17:07Z</time>
      </trkpt>
      <trkpt lat="46.69062" lon="6.06398">
        <ele>1134.49</ele>
        <time>2013-05-09T15:17:15Z</time>
      </trkpt>
      <trkpt lat="46.69061" lon="6.06391">
        <ele>1133.53</ele>
        <time>2013-05-09T15:17:16Z</time>
      </trkpt>
      <trkpt lat="46.69052" lon="6.06326">
        <ele>1132.09</ele>
        <time>2013-05-09T15:17:26Z</time>
      </trkpt>
      <trkpt lat="46.69052" lon="6.06326">
        <ele>1132.57</ele>
        <time>2013-05-09T15:17:45Z</time>
      </trkpt>
      <trkpt lat="46.69052" lon="6.06326">
        <ele>1132.09</ele>
        <time>2013-05-09T15:18:14Z</time>
      </trkpt>
      <trkpt lat="46.69051" lon="6.06316">
        <ele>1131.61</ele>
        <time>2013-05-09T15:18:44Z</time>
      </trkpt>
      <trkpt lat="46.69052" lon="6.06286">
        <ele>1127.76</ele>
        <time>2013-05-09T15:18:50Z</time>
      </trkpt>
      <trkpt lat="46.6905" lon="6.06264">
        <ele>1124.4</ele>
        <time>2013-05-09T15:18:54Z</time>
      </trkpt>
      <trkpt lat="46.69046" lon="6.06244">
        <ele>1120.55</ele>
        <time>2013-05-09T15:18:58Z</time>
      </trkpt>
      <trkpt lat="46.69043" lon="6.06232">
        <ele>1118.63</ele>
        <time>2013-05-09T15:19:00Z</time>
      </trkpt>
      <trkpt lat="46.69043" lon="6.06225">
        <ele>1117.67</ele>
        <time>2013-05-09T15:19:01Z</time>
      </trkpt>
      <trkpt lat="46.69042" lon="6.06218">
        <ele>1116.71</ele>
        <time>2013-05-09T15:19:02Z</time>
      </trkpt>
      <trkpt lat="46.69042" lon="6.06196">
        <ele>1114.79</ele>
        <time>2013-05-09T15:19:05Z</time>
      </trkpt>
      <trkpt lat="46.69043" lon="6.06165">
        <ele>1113.34</ele>
        <time>2013-05-09T15:19:10Z</time>
      </trkpt>
      <trkpt lat="46.69044" lon="6.06159">
        <ele>1112.86</ele>
        <time>2013-05-09T15:19:11Z</time>
      </trkpt>
      <trkpt lat="46.69045" lon="6.06153">
        <ele>1112.38</ele>
        <time>2013-05-09T15:19:12Z</time>
      </trkpt>
      <trkpt lat="46.69052" lon="6.06135">
        <ele>1112.38</ele>
        <time>2013-05-09T15:19:20Z</time>
      </trkpt>
      <trkpt lat="46.69055" lon="6.06129">
        <ele>1113.34</ele>
        <time>2013-05-09T15:19:30Z</time>
      </trkpt>
      <trkpt lat="46.69057" lon="6.06126">
        <ele>1113.34</ele>
        <time>2013-05-09T15:19:32Z</time>
      </trkpt>
      <trkpt lat="46.69058" lon="6.06124">
        <ele>1113.34</ele>
        <time>2013-05-09T15:19:33Z</time>
      </trkpt>
      <trkpt lat="46.69058" lon="6.06122">
        <ele>1113.34</ele>
        <time>2013-05-09T15:19:34Z</time>
      </trkpt>
      <trkpt lat="46.69059" lon="6.06119">
        <ele>1113.34</ele>
        <time>2013-05-09T15:19:35Z</time>
      </trkpt>
      <trkpt lat="46.6906" lon="6.06116">
        <ele>1113.34</ele>
        <time>2013-05-09T15:19:36Z</time>
      </trkpt>
      <trkpt lat="46.69062" lon="6.06113">
        <ele>1113.82</ele>
        <time>2013-05-09T15:19:37Z</time>
      </trkpt>
      <trkpt lat="46.69063" lon="6.0611">
        <ele>1113.82</ele>
        <time>2013-05-09T15:19:38Z</time>
      </trkpt>
      <trkpt lat="46.69064" lon="6.06107">
        <ele>1113.82</ele>
        <time>2013-05-09T15:19:39Z</time>
      </trkpt>
      <trkpt lat="46.69069" lon="6.06094">
        <ele>1114.31</ele>
        <time>2013-05-09T15:19:43Z</time>
      </trkpt>
      <trkpt lat="46.69072" lon="6.06093">
        <ele>1114.79</ele>
        <time>2013-05-09T15:19:44Z</time>
      </trkpt>
      <trkpt lat="46.69073" lon="6.06092">
        <ele>1115.27</ele>
        <time>2013-05-09T15:19:45Z</time>
      </trkpt>
      <trkpt lat="46.69075" lon="6.0609">
        <ele>1115.27</ele>
        <time>2013-05-09T15:19:46Z</time>
      </trkpt>
      <trkpt lat="46.69075" lon="6.06088">
        <ele>1115.27</ele>
        <time>2013-05-09T15:19:47Z</time>
      </trkpt>
      <trkpt lat="46.69075" lon="6.06085">
        <ele>1113.82</ele>
        <time>2013-05-09T15:19:48Z</time>
      </trkpt>
      <trkpt lat="46.69074" lon="6.06081">
        <ele>1115.75</ele>
        <time>2013-05-09T15:19:49Z</time>
      </trkpt>
      <trkpt lat="46.69073" lon="6.06077">
        <ele>1114.79</ele>
        <time>2013-05-09T15:19:50Z</time>
      </trkpt>
      <trkpt lat="46.69071" lon="6.06073">
        <ele>1114.79</ele>
        <time>2013-05-09T15:19:51Z</time>
      </trkpt>
      <trkpt lat="46.69059" lon="6.0603">
        <ele>1111.9</ele>
        <time>2013-05-09T15:19:59Z</time>
      </trkpt>
      <trkpt lat="46.69056" lon="6.06023">
        <ele>1111.42</ele>
        <time>2013-05-09T15:20:00Z</time>
      </trkpt>
      <trkpt lat="46.69036" lon="6.0599">
        <ele>1109.98</ele>
        <time>2013-05-09T15:20:05Z</time>
      </trkpt>
      <trkpt lat="46.69029" lon="6.0598">
        <ele>1109.98</ele>
        <time>2013-05-09T15:20:07Z</time>
      </trkpt>
      <trkpt lat="46.69017" lon="6.05957">
        <ele>1109.5</ele>
        <time>2013-05-09T15:20:12Z</time>
      </trkpt>
      <trkpt lat="46.69013" lon="6.05953">
        <ele>1109.5</ele>
        <time>2013-05-09T15:20:13Z</time>
      </trkpt>
      <trkpt lat="46.69002" lon="6.05942">
        <ele>1108.54</ele>
        <time>2013-05-09T15:20:16Z</time>
      </trkpt>
      <trkpt lat="46.68999" lon="6.05937">
        <ele>1108.54</ele>
        <time>2013-05-09T15:20:17Z</time>
      </trkpt>
      <trkpt lat="46.68992" lon="6.05922">
        <ele>1108.54</ele>
        <time>2013-05-09T15:20:20Z</time>
      </trkpt>
      <trkpt lat="46.68979" lon="6.05884">
        <ele>1106.61</ele>
        <time>2013-05-09T15:20:27Z</time>
      </trkpt>
      <trkpt lat="46.68961" lon="6.05827">
        <ele>1104.21</ele>
        <time>2013-05-09T15:20:39Z</time>
      </trkpt>
      <trkpt lat="46.68952" lon="6.058">
        <ele>1103.73</ele>
        <time>2013-05-09T15:20:47Z</time>
      </trkpt>
      <trkpt lat="46.68943" lon="6.05778">
        <ele>1102.29</ele>
        <time>2013-05-09T15:20:52Z</time>
      </trkpt>
      <trkpt lat="46.6894" lon="6.05773">
        <ele>1101.81</ele>
        <time>2013-05-09T15:20:53Z</time>
      </trkpt>
      <trkpt lat="46.68936" lon="6.05767">
        <ele>1101.81</ele>
        <time>2013-05-09T15:20:54Z</time>
      </trkpt>
      <trkpt lat="46.68918" lon="6.05733">
        <ele>1098.44</ele>
        <time>2013-05-09T15:20:58Z</time>
      </trkpt>
      <trkpt lat="46.68909" lon="6.05712">
        <ele>1097.96</ele>
        <time>2013-05-09T15:21:00Z</time>
      </trkpt>
      <trkpt lat="46.68891" lon="6.05675">
        <ele>1097</ele>
        <time>2013-05-09T15:21:04Z</time>
      </trkpt>
      <trkpt lat="46.68875" lon="6.05648">
        <ele>1097</ele>
        <time>2013-05-09T15:21:08Z</time>
      </trkpt>
      <trkpt lat="46.68872" lon="6.05639">
        <ele>1097</ele>
        <time>2013-05-09T15:21:09Z</time>
      </trkpt>
      <trkpt lat="46.68869" lon="6.05632">
        <ele>1097</ele>
        <time>2013-05-09T15:21:10Z</time>
      </trkpt>
      <trkpt lat="46.68859" lon="6.05615">
        <ele>1097.48</ele>
        <time>2013-05-09T15:21:13Z</time>
      </trkpt>
      <trkpt lat="46.68834" lon="6.05583">
        <ele>1094.12</ele>
        <time>2013-05-09T15:21:18Z</time>
      </trkpt>
      <trkpt lat="46.68774" lon="6.055">
        <ele>1090.27</ele>
        <time>2013-05-09T15:21:28Z</time>
      </trkpt>
      <trkpt lat="46.68758" lon="6.05468">
        <ele>1087.39</ele>
        <time>2013-05-09T15:21:31Z</time>
      </trkpt>
      <trkpt lat="46.68734" lon="6.05426">
        <ele>1084.02</ele>
        <time>2013-05-09T15:21:35Z</time>
      </trkpt>
      <trkpt lat="46.68727" lon="6.05415">
        <ele>1083.54</ele>
        <time>2013-05-09T15:21:36Z</time>
      </trkpt>
      <trkpt lat="46.68706" lon="6.05381">
        <ele>1082.1</ele>
        <time>2013-05-09T15:21:39Z</time>
      </trkpt>
      <trkpt lat="46.68692" lon="6.05354">
        <ele>1080.66</ele>
        <time>2013-05-09T15:21:41Z</time>
      </trkpt>
      <trkpt lat="46.6864" lon="6.05258">
        <ele>1077.78</ele>
        <time>2013-05-09T15:21:50Z</time>
      </trkpt>
      <trkpt lat="46.68633" lon="6.0525">
        <ele>1077.78</ele>
        <time>2013-05-09T15:21:51Z</time>
      </trkpt>
      <trkpt lat="46.68624" lon="6.05242">
        <ele>1077.78</ele>
        <time>2013-05-09T15:21:52Z</time>
      </trkpt>
      <trkpt lat="46.68612" lon="6.05236">
        <ele>1077.78</ele>
        <time>2013-05-09T15:21:53Z</time>
      </trkpt>
      <trkpt lat="46.68573" lon="6.05213">
        <ele>1077.78</ele>
        <time>2013-05-09T15:21:57Z</time>
      </trkpt>
      <trkpt lat="46.6856" lon="6.05201">
        <ele>1077.78</ele>
        <time>2013-05-09T15:21:59Z</time>
      </trkpt>
      <trkpt lat="46.68555" lon="6.05196">
        <ele>1078.74</ele>
        <time>2013-05-09T15:22:00Z</time>
      </trkpt>
      <trkpt lat="46.68545" lon="6.05185">
        <ele>1078.74</ele>
        <time>2013-05-09T15:22:02Z</time>
      </trkpt>
      <trkpt lat="46.68541" lon="6.0518">
        <ele>1079.22</ele>
        <time>2013-05-09T15:22:03Z</time>
      </trkpt>
      <trkpt lat="46.68534" lon="6.05172">
        <ele>1079.7</ele>
        <time>2013-05-09T15:22:05Z</time>
      </trkpt>
      <trkpt lat="46.68531" lon="6.05168">
        <ele>1079.7</ele>
        <time>2013-05-09T15:22:06Z</time>
      </trkpt>
      <trkpt lat="46.68511" lon="6.05146">
        <ele>1077.78</ele>
        <time>2013-05-09T15:22:11Z</time>
      </trkpt>
      <trkpt lat="46.68487" lon="6.05113">
        <ele>1074.89</ele>
        <time>2013-05-09T15:22:16Z</time>
      </trkpt>
      <trkpt lat="46.68416" lon="6.05037">
        <ele>1072.01</ele>
        <time>2013-05-09T15:22:28Z</time>
      </trkpt>
      <trkpt lat="46.6841" lon="6.05033">
        <ele>1072.01</ele>
        <time>2013-05-09T15:22:29Z</time>
      </trkpt>
      <trkpt lat="46.68375" lon="6.05011">
        <ele>1068.64</ele>
        <time>2013-05-09T15:22:34Z</time>
      </trkpt>
      <trkpt lat="46.68318" lon="6.04966">
        <ele>1065.28</ele>
        <time>2013-05-09T15:22:42Z</time>
      </trkpt>
      <trkpt lat="46.68311" lon="6.04962">
        <ele>1065.76</ele>
        <time>2013-05-09T15:22:43Z</time>
      </trkpt>
      <trkpt lat="46.68298" lon="6.0495">
        <ele>1064.8</ele>
        <time>2013-05-09T15:22:45Z</time>
      </trkpt>
      <trkpt lat="46.68262" lon="6.04915">
        <ele>1061.91</ele>
        <time>2013-05-09T15:22:50Z</time>
      </trkpt>
      <trkpt lat="46.6825" lon="6.04898">
        <ele>1061.43</ele>
        <time>2013-05-09T15:22:52Z</time>
      </trkpt>
      <trkpt lat="46.68209" lon="6.04822">
        <ele>1058.07</ele>
        <time>2013-05-09T15:23:00Z</time>
      </trkpt>
      <trkpt lat="46.68183" lon="6.04769">
        <ele>1055.18</ele>
        <time>2013-05-09T15:23:05Z</time>
      </trkpt>
      <trkpt lat="46.68136" lon="6.04688">
        <ele>1056.15</ele>
        <time>2013-05-09T15:23:15Z</time>
      </trkpt>
      <trkpt lat="46.68123" lon="6.04665">
        <ele>1054.7</ele>
        <time>2013-05-09T15:23:18Z</time>
      </trkpt>
      <trkpt lat="46.68119" lon="6.04656">
        <ele>1053.74</ele>
        <time>2013-05-09T15:23:19Z</time>
      </trkpt>
      <trkpt lat="46.68107" lon="6.04627">
        <ele>1051.34</ele>
        <time>2013-05-09T15:23:22Z</time>
      </trkpt>
      <trkpt lat="46.68094" lon="6.046">
        <ele>1051.34</ele>
        <time>2013-05-09T15:23:25Z</time>
      </trkpt>
      <trkpt lat="46.68089" lon="6.04591">
        <ele>1051.34</ele>
        <time>2013-05-09T15:23:26Z</time>
      </trkpt>
      <trkpt lat="46.68053" lon="6.04517">
        <ele>1050.86</ele>
        <time>2013-05-09T15:23:36Z</time>
      </trkpt>
      <trkpt lat="46.68037" lon="6.04501">
        <ele>1049.9</ele>
        <time>2013-05-09T15:23:44Z</time>
      </trkpt>
      <trkpt lat="46.68035" lon="6.04503">
        <ele>1051.34</ele>
        <time>2013-05-09T15:23:45Z</time>
      </trkpt>
      <trkpt lat="46.6801" lon="6.04527">
        <ele>1051.34</ele>
        <time>2013-05-09T15:23:55Z</time>
      </trkpt>
      <trkpt lat="46.68008" lon="6.04528">
        <ele>1051.34</ele>
        <time>2013-05-09T15:23:56Z</time>
      </trkpt>
      <trkpt lat="46.68006" lon="6.04529">
        <ele>1051.34</ele>
        <time>2013-05-09T15:23:57Z</time>
      </trkpt>
      <trkpt lat="46.68004" lon="6.04531">
        <ele>1051.34</ele>
        <time>2013-05-09T15:23:58Z</time>
      </trkpt>
      <trkpt lat="46.68" lon="6.04533">
        <ele>1051.34</ele>
        <time>2013-05-09T15:23:59Z</time>
      </trkpt>
      <trkpt lat="46.67996" lon="6.04536">
        <ele>1050.86</ele>
        <time>2013-05-09T15:24:00Z</time>
      </trkpt>
      <trkpt lat="46.67991" lon="6.0454">
        <ele>1050.38</ele>
        <time>2013-05-09T15:24:01Z</time>
      </trkpt>
      <trkpt lat="46.67978" lon="6.04551">
        <ele>1049.42</ele>
        <time>2013-05-09T15:24:04Z</time>
      </trkpt>
      <trkpt lat="46.67968" lon="6.0456">
        <ele>1047.97</ele>
        <time>2013-05-09T15:24:06Z</time>
      </trkpt>
      <trkpt lat="46.67948" lon="6.04571">
        <ele>1044.61</ele>
        <time>2013-05-09T15:24:09Z</time>
      </trkpt>
      <trkpt lat="46.6792" lon="6.0459">
        <ele>1041.73</ele>
        <time>2013-05-09T15:24:13Z</time>
      </trkpt>
      <trkpt lat="46.67874" lon="6.04623">
        <ele>1039.8</ele>
        <time>2013-05-09T15:24:20Z</time>
      </trkpt>
      <trkpt lat="46.67867" lon="6.04624">
        <ele>1039.8</ele>
        <time>2013-05-09T15:24:21Z</time>
      </trkpt>
      <trkpt lat="46.67797" lon="6.04629">
        <ele>1037.88</ele>
        <time>2013-05-09T15:24:32Z</time>
      </trkpt>
      <trkpt lat="46.67791" lon="6.04631">
        <ele>1037.88</ele>
        <time>2013-05-09T15:24:33Z</time>
      </trkpt>
      <trkpt lat="46.67777" lon="6.04637">
        <ele>1038.84</ele>
        <time>2013-05-09T15:24:36Z</time>
      </trkpt>
      <trkpt lat="46.67773" lon="6.04637">
        <ele>1038.84</ele>
        <time>2013-05-09T15:24:37Z</time>
      </trkpt>
      <trkpt lat="46.67769" lon="6.04638">
        <ele>1038.84</ele>
        <time>2013-05-09T15:24:38Z</time>
      </trkpt>
      <trkpt lat="46.67765" lon="6.04637">
        <ele>1038.84</ele>
        <time>2013-05-09T15:24:39Z</time>
      </trkpt>
      <trkpt lat="46.67761" lon="6.04637">
        <ele>1038.84</ele>
        <time>2013-05-09T15:24:40Z</time>
      </trkpt>
      <trkpt lat="46.67757" lon="6.04637">
        <ele>1038.84</ele>
        <time>2013-05-09T15:24:41Z</time>
      </trkpt>
      <trkpt lat="46.67725" lon="6.04629">
        <ele>1038.36</ele>
        <time>2013-05-09T15:24:50Z</time>
      </trkpt>
      <trkpt lat="46.6771" lon="6.04614">
        <ele>1038.84</ele>
        <time>2013-05-09T15:24:55Z</time>
      </trkpt>
      <trkpt lat="46.67708" lon="6.04611">
        <ele>1038.84</ele>
        <time>2013-05-09T15:24:56Z</time>
      </trkpt>
      <trkpt lat="46.67683" lon="6.04575">
        <ele>1039.32</ele>
        <time>2013-05-09T15:25:06Z</time>
      </trkpt>
      <trkpt lat="46.67658" lon="6.04538">
        <ele>1039.8</ele>
        <time>2013-05-09T15:25:16Z</time>
      </trkpt>
      <trkpt lat="46.67657" lon="6.04534">
        <ele>1039.32</ele>
        <time>2013-05-09T15:25:17Z</time>
      </trkpt>
      <trkpt lat="46.67654" lon="6.04529">
        <ele>1039.8</ele>
        <time>2013-05-09T15:25:18Z</time>
      </trkpt>
      <trkpt lat="46.6765" lon="6.04523">
        <ele>1038.84</ele>
        <time>2013-05-09T15:25:19Z</time>
      </trkpt>
      <trkpt lat="46.67647" lon="6.04519">
        <ele>1038.84</ele>
        <time>2013-05-09T15:25:20Z</time>
      </trkpt>
      <trkpt lat="46.67644" lon="6.04514">
        <ele>1038.84</ele>
        <time>2013-05-09T15:25:21Z</time>
      </trkpt>
      <trkpt lat="46.67641" lon="6.04508">
        <ele>1038.84</ele>
        <time>2013-05-09T15:25:22Z</time>
      </trkpt>
      <trkpt lat="46.67638" lon="6.04502">
        <ele>1038.84</ele>
        <time>2013-05-09T15:25:23Z</time>
      </trkpt>
      <trkpt lat="46.67635" lon="6.04495">
        <ele>1038.84</ele>
        <time>2013-05-09T15:25:24Z</time>
      </trkpt>
      <trkpt lat="46.67632" lon="6.04489">
        <ele>1038.84</ele>
        <time>2013-05-09T15:25:25Z</time>
      </trkpt>
      <trkpt lat="46.67619" lon="6.0447">
        <ele>1039.32</ele>
        <time>2013-05-09T15:25:29Z</time>
      </trkpt>
      <trkpt lat="46.67616" lon="6.04466">
        <ele>1038.84</ele>
        <time>2013-05-09T15:25:30Z</time>
      </trkpt>
      <trkpt lat="46.67605" lon="6.04452">
        <ele>1039.32</ele>
        <time>2013-05-09T15:25:34Z</time>
      </trkpt>
      <trkpt lat="46.67604" lon="6.04451">
        <ele>1039.32</ele>
        <time>2013-05-09T15:25:35Z</time>
      </trkpt>
      <trkpt lat="46.67602" lon="6.04449">
        <ele>1039.32</ele>
        <time>2013-05-09T15:25:36Z</time>
      </trkpt>
      <trkpt lat="46.67601" lon="6.04447">
        <ele>1038.84</ele>
        <time>2013-05-09T15:25:37Z</time>
      </trkpt>
      <trkpt lat="46.67599" lon="6.04445">
        <ele>1038.84</ele>
        <time>2013-05-09T15:25:38Z</time>
      </trkpt>
      <trkpt lat="46.67598" lon="6.04443">
        <ele>1038.84</ele>
        <time>2013-05-09T15:25:39Z</time>
      </trkpt>
      <trkpt lat="46.67596" lon="6.0444">
        <ele>1038.84</ele>
        <time>2013-05-09T15:25:40Z</time>
      </trkpt>
      <trkpt lat="46.67595" lon="6.04437">
        <ele>1039.32</ele>
        <time>2013-05-09T15:25:41Z</time>
      </trkpt>
      <trkpt lat="46.67593" lon="6.04434">
        <ele>1038.84</ele>
        <time>2013-05-09T15:25:42Z</time>
      </trkpt>
      <trkpt lat="46.67591" lon="6.04431">
        <ele>1038.84</ele>
        <time>2013-05-09T15:25:43Z</time>
      </trkpt>
      <trkpt lat="46.67586" lon="6.04423">
        <ele>1038.84</ele>
        <time>2013-05-09T15:25:53Z</time>
      </trkpt>
      <trkpt lat="46.67587" lon="6.04421">
        <ele>1038.84</ele>
        <time>2013-05-09T15:25:57Z</time>
      </trkpt>
      <trkpt lat="46.67584" lon="6.04405">
        <ele>1036.92</ele>
        <time>2013-05-09T15:26:00Z</time>
      </trkpt>
      <trkpt lat="46.67583" lon="6.04397">
        <ele>1036.44</ele>
        <time>2013-05-09T15:26:01Z</time>
      </trkpt>
      <trkpt lat="46.67583" lon="6.04389">
        <ele>1035.96</ele>
        <time>2013-05-09T15:26:02Z</time>
      </trkpt>
      <trkpt lat="46.67583" lon="6.04381">
        <ele>1035.96</ele>
        <time>2013-05-09T15:26:03Z</time>
      </trkpt>
      <trkpt lat="46.67577" lon="6.04341">
        <ele>1036.44</ele>
        <time>2013-05-09T15:26:09Z</time>
      </trkpt>
      <trkpt lat="46.67576" lon="6.04336">
        <ele>1036.44</ele>
        <time>2013-05-09T15:26:10Z</time>
      </trkpt>
      <trkpt lat="46.67575" lon="6.0433">
        <ele>1036.44</ele>
        <time>2013-05-09T15:26:11Z</time>
      </trkpt>
      <trkpt lat="46.67574" lon="6.04324">
        <ele>1036.44</ele>
        <time>2013-05-09T15:26:12Z</time>
      </trkpt>
      <trkpt lat="46.67575" lon="6.04318">
        <ele>1036.92</ele>
        <time>2013-05-09T15:26:13Z</time>
      </trkpt>
      <trkpt lat="46.67575" lon="6.04312">
        <ele>1036.44</ele>
        <time>2013-05-09T15:26:14Z</time>
      </trkpt>
      <trkpt lat="46.67575" lon="6.04306">
        <ele>1036.44</ele>
        <time>2013-05-09T15:26:15Z</time>
      </trkpt>
      <trkpt lat="46.67574" lon="6.04301">
        <ele>1036.92</ele>
        <time>2013-05-09T15:26:16Z</time>
      </trkpt>
      <trkpt lat="46.67568" lon="6.04281">
        <ele>1037.4</ele>
        <time>2013-05-09T15:26:20Z</time>
      </trkpt>
      <trkpt lat="46.67568" lon="6.04276">
        <ele>1037.88</ele>
        <time>2013-05-09T15:26:21Z</time>
      </trkpt>
      <trkpt lat="46.67565" lon="6.0424">
        <ele>1039.8</ele>
        <time>2013-05-09T15:26:30Z</time>
      </trkpt>
      <trkpt lat="46.67552" lon="6.04206">
        <ele>1041.73</ele>
        <time>2013-05-09T15:26:41Z</time>
      </trkpt>
      <trkpt lat="46.67546" lon="6.042">
        <ele>1040.76</ele>
        <time>2013-05-09T15:26:44Z</time>
      </trkpt>
      <trkpt lat="46.67544" lon="6.04198">
        <ele>1040.76</ele>
        <time>2013-05-09T15:26:45Z</time>
      </trkpt>
      <trkpt lat="46.67521" lon="6.04161">
        <ele>1037.4</ele>
        <time>2013-05-09T15:26:56Z</time>
      </trkpt>
      <trkpt lat="46.67516" lon="6.04116">
        <ele>1034.52</ele>
        <time>2013-05-09T15:27:04Z</time>
      </trkpt>
      <trkpt lat="46.67515" lon="6.04108">
        <ele>1034.04</ele>
        <time>2013-05-09T15:27:05Z</time>
      </trkpt>
      <trkpt lat="46.67512" lon="6.04101">
        <ele>1033.55</ele>
        <time>2013-05-09T15:27:06Z</time>
      </trkpt>
      <trkpt lat="46.67508" lon="6.04093">
        <ele>1033.07</ele>
        <time>2013-05-09T15:27:07Z</time>
      </trkpt>
      <trkpt lat="46.67503" lon="6.04087">
        <ele>1032.59</ele>
        <time>2013-05-09T15:27:08Z</time>
      </trkpt>
      <trkpt lat="46.67498" lon="6.0408">
        <ele>1032.59</ele>
        <time>2013-05-09T15:27:09Z</time>
      </trkpt>
      <trkpt lat="46.67429" lon="6.04012">
        <ele>1030.19</ele>
        <time>2013-05-09T15:27:22Z</time>
      </trkpt>
      <trkpt lat="46.67419" lon="6.04005">
        <ele>1030.67</ele>
        <time>2013-05-09T15:27:24Z</time>
      </trkpt>
      <trkpt lat="46.67414" lon="6.04">
        <ele>1030.67</ele>
        <time>2013-05-09T15:27:25Z</time>
      </trkpt>
      <trkpt lat="46.67369" lon="6.03945">
        <ele>1030.19</ele>
        <time>2013-05-09T15:27:36Z</time>
      </trkpt>
      <trkpt lat="46.67364" lon="6.0394">
        <ele>1030.19</ele>
        <time>2013-05-09T15:27:37Z</time>
      </trkpt>
      <trkpt lat="46.6736" lon="6.03933">
        <ele>1029.71</ele>
        <time>2013-05-09T15:27:38Z</time>
      </trkpt>
      <trkpt lat="46.67355" lon="6.03927">
        <ele>1029.71</ele>
        <time>2013-05-09T15:27:39Z</time>
      </trkpt>
      <trkpt lat="46.67351" lon="6.03921">
        <ele>1029.23</ele>
        <time>2013-05-09T15:27:40Z</time>
      </trkpt>
      <trkpt lat="46.67338" lon="6.03904">
        <ele>1029.23</ele>
        <time>2013-05-09T15:27:43Z</time>
      </trkpt>
      <trkpt lat="46.67335" lon="6.03899">
        <ele>1029.71</ele>
        <time>2013-05-09T15:27:44Z</time>
      </trkpt>
      <trkpt lat="46.67332" lon="6.03895">
        <ele>1029.71</ele>
        <time>2013-05-09T15:27:45Z</time>
      </trkpt>
      <trkpt lat="46.67316" lon="6.03861">
        <ele>1030.67</ele>
        <time>2013-05-09T15:27:53Z</time>
      </trkpt>
      <trkpt lat="46.67313" lon="6.03855">
        <ele>1030.19</ele>
        <time>2013-05-09T15:27:54Z</time>
      </trkpt>
      <trkpt lat="46.6731" lon="6.03849">
        <ele>1030.67</ele>
        <time>2013-05-09T15:27:55Z</time>
      </trkpt>
      <trkpt lat="46.67298" lon="6.03828">
        <ele>1030.19</ele>
        <time>2013-05-09T15:27:59Z</time>
      </trkpt>
      <trkpt lat="46.67282" lon="6.03806">
        <ele>1029.71</ele>
        <time>2013-05-09T15:28:04Z</time>
      </trkpt>
      <trkpt lat="46.67279" lon="6.03801">
        <ele>1029.71</ele>
        <time>2013-05-09T15:28:05Z</time>
      </trkpt>
      <trkpt lat="46.67277" lon="6.03796">
        <ele>1029.71</ele>
        <time>2013-05-09T15:28:06Z</time>
      </trkpt>
      <trkpt lat="46.67268" lon="6.0378">
        <ele>1029.23</ele>
        <time>2013-05-09T15:28:09Z</time>
      </trkpt>
      <trkpt lat="46.6726" lon="6.0377">
        <ele>1028.75</ele>
        <time>2013-05-09T15:28:11Z</time>
      </trkpt>
      <trkpt lat="46.67223" lon="6.03731">
        <ele>1025.38</ele>
        <time>2013-05-09T15:28:19Z</time>
      </trkpt>
      <trkpt lat="46.67171" lon="6.03677">
        <ele>1022.98</ele>
        <time>2013-05-09T15:28:28Z</time>
      </trkpt>
      <trkpt lat="46.67168" lon="6.03673">
        <ele>1022.98</ele>
        <time>2013-05-09T15:28:29Z</time>
      </trkpt>
      <trkpt lat="46.67164" lon="6.03668">
        <ele>1023.46</ele>
        <time>2013-05-09T15:28:30Z</time>
      </trkpt>
      <trkpt lat="46.67153" lon="6.03653">
        <ele>1022.5</ele>
        <time>2013-05-09T15:28:33Z</time>
      </trkpt>
      <trkpt lat="46.67127" lon="6.03613">
        <ele>1019.13</ele>
        <time>2013-05-09T15:28:40Z</time>
      </trkpt>
      <trkpt lat="46.67116" lon="6.03596">
        <ele>1017.21</ele>
        <time>2013-05-09T15:28:43Z</time>
      </trkpt>
      <trkpt lat="46.67109" lon="6.03586">
        <ele>1016.25</ele>
        <time>2013-05-09T15:28:45Z</time>
      </trkpt>
      <trkpt lat="46.67093" lon="6.03562">
        <ele>1013.37</ele>
        <time>2013-05-09T15:28:50Z</time>
      </trkpt>
      <trkpt lat="46.6709" lon="6.03557">
        <ele>1012.89</ele>
        <time>2013-05-09T15:28:51Z</time>
      </trkpt>
      <trkpt lat="46.67089" lon="6.03551">
        <ele>1011.93</ele>
        <time>2013-05-09T15:28:52Z</time>
      </trkpt>
      <trkpt lat="46.67089" lon="6.03545">
        <ele>1011.44</ele>
        <time>2013-05-09T15:28:53Z</time>
      </trkpt>
      <trkpt lat="46.6709" lon="6.03539">
        <ele>1010.48</ele>
        <time>2013-05-09T15:28:54Z</time>
      </trkpt>
      <trkpt lat="46.67092" lon="6.03533">
        <ele>1010.48</ele>
        <time>2013-05-09T15:28:55Z</time>
      </trkpt>
      <trkpt lat="46.67095" lon="6.03528">
        <ele>1010</ele>
        <time>2013-05-09T15:28:56Z</time>
      </trkpt>
      <trkpt lat="46.67098" lon="6.03522">
        <ele>1009.04</ele>
        <time>2013-05-09T15:28:57Z</time>
      </trkpt>
      <trkpt lat="46.67102" lon="6.03517">
        <ele>1009.04</ele>
        <time>2013-05-09T15:28:58Z</time>
      </trkpt>
      <trkpt lat="46.67105" lon="6.03513">
        <ele>1008.56</ele>
        <time>2013-05-09T15:28:59Z</time>
      </trkpt>
      <trkpt lat="46.67108" lon="6.03509">
        <ele>1007.6</ele>
        <time>2013-05-09T15:29:00Z</time>
      </trkpt>
      <trkpt lat="46.67109" lon="6.03504">
        <ele>1007.12</ele>
        <time>2013-05-09T15:29:01Z</time>
      </trkpt>
      <trkpt lat="46.67111" lon="6.03499">
        <ele>1006.16</ele>
        <time>2013-05-09T15:29:02Z</time>
      </trkpt>
      <trkpt lat="46.67112" lon="6.03495">
        <ele>1005.68</ele>
        <time>2013-05-09T15:29:03Z</time>
      </trkpt>
      <trkpt lat="46.67113" lon="6.03491">
        <ele>1005.2</ele>
        <time>2013-05-09T15:29:04Z</time>
      </trkpt>
      <trkpt lat="46.67114" lon="6.03487">
        <ele>1005.2</ele>
        <time>2013-05-09T15:29:05Z</time>
      </trkpt>
      <trkpt lat="46.67114" lon="6.03482">
        <ele>1004.23</ele>
        <time>2013-05-09T15:29:06Z</time>
      </trkpt>
      <trkpt lat="46.67113" lon="6.03477">
        <ele>1003.75</ele>
        <time>2013-05-09T15:29:07Z</time>
      </trkpt>
      <trkpt lat="46.67112" lon="6.03472">
        <ele>1003.27</ele>
        <time>2013-05-09T15:29:08Z</time>
      </trkpt>
      <trkpt lat="46.67111" lon="6.03467">
        <ele>1002.79</ele>
        <time>2013-05-09T15:29:09Z</time>
      </trkpt>
      <trkpt lat="46.67109" lon="6.03462">
        <ele>1002.31</ele>
        <time>2013-05-09T15:29:10Z</time>
      </trkpt>
      <trkpt lat="46.67107" lon="6.03458">
        <ele>1002.31</ele>
        <time>2013-05-09T15:29:11Z</time>
      </trkpt>
      <trkpt lat="46.67105" lon="6.03454">
        <ele>1002.31</ele>
        <time>2013-05-09T15:29:12Z</time>
      </trkpt>
      <trkpt lat="46.67104" lon="6.03449">
        <ele>1002.31</ele>
        <time>2013-05-09T15:29:13Z</time>
      </trkpt>
      <trkpt lat="46.67102" lon="6.03446">
        <ele>1001.83</ele>
        <time>2013-05-09T15:29:14Z</time>
      </trkpt>
      <trkpt lat="46.67101" lon="6.03444">
        <ele>1001.83</ele>
        <time>2013-05-09T15:29:15Z</time>
      </trkpt>
      <trkpt lat="46.67099" lon="6.03442">
        <ele>1001.83</ele>
        <time>2013-05-09T15:29:16Z</time>
      </trkpt>
      <trkpt lat="46.67079" lon="6.03417">
        <ele>1000.87</ele>
        <time>2013-05-09T15:29:27Z</time>
      </trkpt>
      <trkpt lat="46.67076" lon="6.03414">
        <ele>1000.39</ele>
        <time>2013-05-09T15:29:29Z</time>
      </trkpt>
      <trkpt lat="46.67074" lon="6.03413">
        <ele>1000.39</ele>
        <time>2013-05-09T15:29:30Z</time>
      </trkpt>
      <trkpt lat="46.67071" lon="6.03412">
        <ele>1000.39</ele>
        <time>2013-05-09T15:29:31Z</time>
      </trkpt>
      <trkpt lat="46.67069" lon="6.0341">
        <ele>999.91</ele>
        <time>2013-05-09T15:29:32Z</time>
      </trkpt>
      <trkpt lat="46.67066" lon="6.03409">
        <ele>998.95</ele>
        <time>2013-05-09T15:29:33Z</time>
      </trkpt>
      <trkpt lat="46.67058" lon="6.03407">
        <ele>998.47</ele>
        <time>2013-05-09T15:29:36Z</time>
      </trkpt>
      <trkpt lat="46.67055" lon="6.03405">
        <ele>997.99</ele>
        <time>2013-05-09T15:29:38Z</time>
      </trkpt>
      <trkpt lat="46.67052" lon="6.03401">
        <ele>996.54</ele>
        <time>2013-05-09T15:29:42Z</time>
      </trkpt>
      <trkpt lat="46.67051" lon="6.03403">
        <ele>996.06</ele>
        <time>2013-05-09T15:29:43Z</time>
      </trkpt>
      <trkpt lat="46.6705" lon="6.03404">
        <ele>995.1</ele>
        <time>2013-05-09T15:29:44Z</time>
      </trkpt>
      <trkpt lat="46.67049" lon="6.03407">
        <ele>994.62</ele>
        <time>2013-05-09T15:29:45Z</time>
      </trkpt>
      <trkpt lat="46.67049" lon="6.0341">
        <ele>994.14</ele>
        <time>2013-05-09T15:29:46Z</time>
      </trkpt>
      <trkpt lat="46.67047" lon="6.03426">
        <ele>992.7</ele>
        <time>2013-05-09T15:29:50Z</time>
      </trkpt>
      <trkpt lat="46.67029" lon="6.03449">
        <ele>989.33</ele>
        <time>2013-05-09T15:29:59Z</time>
      </trkpt>
      <trkpt lat="46.67017" lon="6.03465">
        <ele>987.41</ele>
        <time>2013-05-09T15:30:06Z</time>
      </trkpt>
      <trkpt lat="46.67003" lon="6.03475">
        <ele>985.49</ele>
        <time>2013-05-09T15:30:14Z</time>
      </trkpt>
      <trkpt lat="46.67001" lon="6.03474">
        <ele>985.01</ele>
        <time>2013-05-09T15:30:16Z</time>
      </trkpt>
      <trkpt lat="46.67005" lon="6.03468">
        <ele>984.53</ele>
        <time>2013-05-09T15:30:22Z</time>
      </trkpt>
      <trkpt lat="46.67007" lon="6.03466">
        <ele>984.05</ele>
        <time>2013-05-09T15:30:25Z</time>
      </trkpt>
      <trkpt lat="46.67005" lon="6.03456">
        <ele>983.57</ele>
        <time>2013-05-09T15:30:36Z</time>
      </trkpt>
      <trkpt lat="46.67006" lon="6.03455">
        <ele>984.05</ele>
        <time>2013-05-09T15:31:00Z</time>
      </trkpt>
      <trkpt lat="46.67006" lon="6.03445">
        <ele>983.57</ele>
        <time>2013-05-09T15:31:06Z</time>
      </trkpt>
      <trkpt lat="46.67006" lon="6.03442">
        <ele>983.09</ele>
        <time>2013-05-09T15:31:08Z</time>
      </trkpt>
      <trkpt lat="46.67003" lon="6.03433">
        <ele>983.09</ele>
        <time>2013-05-09T15:31:15Z</time>
      </trkpt>
      <trkpt lat="46.66989" lon="6.03407">
        <ele>980.68</ele>
        <time>2013-05-09T15:31:24Z</time>
      </trkpt>
      <trkpt lat="46.66977" lon="6.03392">
        <ele>979.24</ele>
        <time>2013-05-09T15:31:30Z</time>
      </trkpt>
      <trkpt lat="46.66974" lon="6.03391">
        <ele>980.2</ele>
        <time>2013-05-09T15:31:48Z</time>
      </trkpt>
      <trkpt lat="46.66974" lon="6.0339">
        <ele>979.24</ele>
        <time>2013-05-09T15:31:57Z</time>
      </trkpt>
      <trkpt lat="46.66961" lon="6.03364">
        <ele>978.28</ele>
        <time>2013-05-09T15:32:07Z</time>
      </trkpt>
      <trkpt lat="46.66959" lon="6.03359">
        <ele>977.8</ele>
        <time>2013-05-09T15:32:09Z</time>
      </trkpt>
      <trkpt lat="46.66955" lon="6.0334">
        <ele>979.24</ele>
        <time>2013-05-09T15:32:18Z</time>
      </trkpt>
      <trkpt lat="46.66956" lon="6.03337">
        <ele>979.24</ele>
        <time>2013-05-09T15:32:19Z</time>
      </trkpt>
      <trkpt lat="46.66949" lon="6.0333">
        <ele>978.76</ele>
        <time>2013-05-09T15:32:23Z</time>
      </trkpt>
      <trkpt lat="46.66944" lon="6.03326">
        <ele>978.28</ele>
        <time>2013-05-09T15:32:27Z</time>
      </trkpt>
      <trkpt lat="46.66942" lon="6.03323">
        <ele>977.8</ele>
        <time>2013-05-09T15:32:37Z</time>
      </trkpt>
      <trkpt lat="46.66939" lon="6.03318">
        <ele>977.32</ele>
        <time>2013-05-09T15:32:40Z</time>
      </trkpt>
      <trkpt lat="46.66922" lon="6.03293">
        <ele>974.43</ele>
        <time>2013-05-09T15:32:49Z</time>
      </trkpt>
      <trkpt lat="46.66918" lon="6.03289">
        <ele>973.95</ele>
        <time>2013-05-09T15:32:51Z</time>
      </trkpt>
      <trkpt lat="46.66903" lon="6.03288">
        <ele>973.47</ele>
        <time>2013-05-09T15:33:03Z</time>
      </trkpt>
      <trkpt lat="46.66903" lon="6.03288">
        <ele>973.47</ele>
        <time>2013-05-09T15:33:24Z</time>
      </trkpt>
      <trkpt lat="46.669" lon="6.03288">
        <ele>973.47</ele>
        <time>2013-05-09T15:33:31Z</time>
      </trkpt>
      <trkpt lat="46.66897" lon="6.03287">
        <ele>973.95</ele>
        <time>2013-05-09T15:33:33Z</time>
      </trkpt>
      <trkpt lat="46.66888" lon="6.03278">
        <ele>972.03</ele>
        <time>2013-05-09T15:33:38Z</time>
      </trkpt>
      <trkpt lat="46.66884" lon="6.03272">
        <ele>971.07</ele>
        <time>2013-05-09T15:33:41Z</time>
      </trkpt>
      <trkpt lat="46.66872" lon="6.03267">
        <ele>969.63</ele>
        <time>2013-05-09T15:33:46Z</time>
      </trkpt>
      <trkpt lat="46.66851" lon="6.03251">
        <ele>966.74</ele>
        <time>2013-05-09T15:33:53Z</time>
      </trkpt>
      <trkpt lat="46.6684" lon="6.03244">
        <ele>965.78</ele>
        <time>2013-05-09T15:33:56Z</time>
      </trkpt>
      <trkpt lat="46.66836" lon="6.03243">
        <ele>965.3</ele>
        <time>2013-05-09T15:33:57Z</time>
      </trkpt>
      <trkpt lat="46.66832" lon="6.03243">
        <ele>965.3</ele>
        <time>2013-05-09T15:33:58Z</time>
      </trkpt>
      <trkpt lat="46.66829" lon="6.03244">
        <ele>965.78</ele>
        <time>2013-05-09T15:33:59Z</time>
      </trkpt>
      <trkpt lat="46.66826" lon="6.03245">
        <ele>966.26</ele>
        <time>2013-05-09T15:34:00Z</time>
      </trkpt>
      <trkpt lat="46.66817" lon="6.03253">
        <ele>967.22</ele>
        <time>2013-05-09T15:34:04Z</time>
      </trkpt>
      <trkpt lat="46.66815" lon="6.03256">
        <ele>965.78</ele>
        <time>2013-05-09T15:34:05Z</time>
      </trkpt>
      <trkpt lat="46.66812" lon="6.03259">
        <ele>969.15</ele>
        <time>2013-05-09T15:34:06Z</time>
      </trkpt>
      <trkpt lat="46.66809" lon="6.03261">
        <ele>967.7</ele>
        <time>2013-05-09T15:34:07Z</time>
      </trkpt>
      <trkpt lat="46.66807" lon="6.03264">
        <ele>967.7</ele>
        <time>2013-05-09T15:34:08Z</time>
      </trkpt>
      <trkpt lat="46.66805" lon="6.03266">
        <ele>967.7</ele>
        <time>2013-05-09T15:34:09Z</time>
      </trkpt>
      <trkpt lat="46.66789" lon="6.03277">
        <ele>965.3</ele>
        <time>2013-05-09T15:34:13Z</time>
      </trkpt>
      <trkpt lat="46.66785" lon="6.03279">
        <ele>968.18</ele>
        <time>2013-05-09T15:34:14Z</time>
      </trkpt>
      <trkpt lat="46.66781" lon="6.03282">
        <ele>966.74</ele>
        <time>2013-05-09T15:34:15Z</time>
      </trkpt>
      <trkpt lat="46.66758" lon="6.03304">
        <ele>964.34</ele>
        <time>2013-05-09T15:34:22Z</time>
      </trkpt>
      <trkpt lat="46.66755" lon="6.03303">
        <ele>963.86</ele>
        <time>2013-05-09T15:34:23Z</time>
      </trkpt>
      <trkpt lat="46.66753" lon="6.033">
        <ele>963.86</ele>
        <time>2013-05-09T15:34:24Z</time>
      </trkpt>
      <trkpt lat="46.66752" lon="6.03297">
        <ele>963.86</ele>
        <time>2013-05-09T15:34:25Z</time>
      </trkpt>
      <trkpt lat="46.66747" lon="6.0328">
        <ele>966.26</ele>
        <time>2013-05-09T15:34:32Z</time>
      </trkpt>
      <trkpt lat="46.66746" lon="6.03276">
        <ele>967.22</ele>
        <time>2013-05-09T15:34:35Z</time>
      </trkpt>
      <trkpt lat="46.66748" lon="6.03249">
        <ele>967.22</ele>
        <time>2013-05-09T15:34:43Z</time>
      </trkpt>
      <trkpt lat="46.66736" lon="6.0324">
        <ele>966.74</ele>
        <time>2013-05-09T15:34:53Z</time>
      </trkpt>
      <trkpt lat="46.66715" lon="6.03222">
        <ele>963.86</ele>
        <time>2013-05-09T15:35:00Z</time>
      </trkpt>
      <trkpt lat="46.66712" lon="6.03219">
        <ele>963.38</ele>
        <time>2013-05-09T15:35:01Z</time>
      </trkpt>
      <trkpt lat="46.6671" lon="6.03214">
        <ele>962.42</ele>
        <time>2013-05-09T15:35:02Z</time>
      </trkpt>
      <trkpt lat="46.66708" lon="6.03208">
        <ele>962.42</ele>
        <time>2013-05-09T15:35:03Z</time>
      </trkpt>
      <trkpt lat="46.66702" lon="6.03188">
        <ele>961.46</ele>
        <time>2013-05-09T15:35:06Z</time>
      </trkpt>
      <trkpt lat="46.66699" lon="6.03182">
        <ele>960.49</ele>
        <time>2013-05-09T15:35:07Z</time>
      </trkpt>
      <trkpt lat="46.66696" lon="6.03176">
        <ele>959.53</ele>
        <time>2013-05-09T15:35:08Z</time>
      </trkpt>
      <trkpt lat="46.66692" lon="6.0317">
        <ele>958.09</ele>
        <time>2013-05-09T15:35:09Z</time>
      </trkpt>
      <trkpt lat="46.66687" lon="6.03164">
        <ele>957.13</ele>
        <time>2013-05-09T15:35:10Z</time>
      </trkpt>
      <trkpt lat="46.6668" lon="6.03159">
        <ele>955.69</ele>
        <time>2013-05-09T15:35:11Z</time>
      </trkpt>
      <trkpt lat="46.66673" lon="6.03154">
        <ele>954.73</ele>
        <time>2013-05-09T15:35:12Z</time>
      </trkpt>
      <trkpt lat="46.66666" lon="6.03148">
        <ele>954.25</ele>
        <time>2013-05-09T15:35:13Z</time>
      </trkpt>
      <trkpt lat="46.66653" lon="6.03138">
        <ele>952.8</ele>
        <time>2013-05-09T15:35:15Z</time>
      </trkpt>
      <trkpt lat="46.66647" lon="6.03135">
        <ele>951.36</ele>
        <time>2013-05-09T15:35:16Z</time>
      </trkpt>
      <trkpt lat="46.6664" lon="6.03133">
        <ele>950.88</ele>
        <time>2013-05-09T15:35:17Z</time>
      </trkpt>
      <trkpt lat="46.66627" lon="6.03133">
        <ele>949.44</ele>
        <time>2013-05-09T15:35:19Z</time>
      </trkpt>
      <trkpt lat="46.6662" lon="6.03135">
        <ele>948.48</ele>
        <time>2013-05-09T15:35:20Z</time>
      </trkpt>
      <trkpt lat="46.66612" lon="6.03138">
        <ele>948</ele>
        <time>2013-05-09T15:35:21Z</time>
      </trkpt>
      <trkpt lat="46.66604" lon="6.03141">
        <ele>945.59</ele>
        <time>2013-05-09T15:35:22Z</time>
      </trkpt>
      <trkpt lat="46.66597" lon="6.03144">
        <ele>944.63</ele>
        <time>2013-05-09T15:35:23Z</time>
      </trkpt>
      <trkpt lat="46.66586" lon="6.03144">
        <ele>943.19</ele>
        <time>2013-05-09T15:35:24Z</time>
      </trkpt>
      <trkpt lat="46.66576" lon="6.03143">
        <ele>941.27</ele>
        <time>2013-05-09T15:35:25Z</time>
      </trkpt>
      <trkpt lat="46.66566" lon="6.03141">
        <ele>940.31</ele>
        <time>2013-05-09T15:35:26Z</time>
      </trkpt>
      <trkpt lat="46.66559" lon="6.03139">
        <ele>938.38</ele>
        <time>2013-05-09T15:35:27Z</time>
      </trkpt>
      <trkpt lat="46.66549" lon="6.03133">
        <ele>937.42</ele>
        <time>2013-05-09T15:35:28Z</time>
      </trkpt>
      <trkpt lat="46.66543" lon="6.03127">
        <ele>937.42</ele>
        <time>2013-05-09T15:35:29Z</time>
      </trkpt>
      <trkpt lat="46.66538" lon="6.03121">
        <ele>936.94</ele>
        <time>2013-05-09T15:35:30Z</time>
      </trkpt>
      <trkpt lat="46.66533" lon="6.03113">
        <ele>936.94</ele>
        <time>2013-05-09T15:35:35Z</time>
      </trkpt>
      <trkpt lat="46.66522" lon="6.03095">
        <ele>934.54</ele>
        <time>2013-05-09T15:35:51Z</time>
      </trkpt>
      <trkpt lat="46.66507" lon="6.03087">
        <ele>932.62</ele>
        <time>2013-05-09T15:35:59Z</time>
      </trkpt>
      <trkpt lat="46.66504" lon="6.03085">
        <ele>932.14</ele>
        <time>2013-05-09T15:36:01Z</time>
      </trkpt>
      <trkpt lat="46.66498" lon="6.03088">
        <ele>931.65</ele>
        <time>2013-05-09T15:36:08Z</time>
      </trkpt>
      <trkpt lat="46.66496" lon="6.0309">
        <ele>931.65</ele>
        <time>2013-05-09T15:36:10Z</time>
      </trkpt>
      <trkpt lat="46.66475" lon="6.03094">
        <ele>929.25</ele>
        <time>2013-05-09T15:36:18Z</time>
      </trkpt>
      <trkpt lat="46.66464" lon="6.03098">
        <ele>927.81</ele>
        <time>2013-05-09T15:36:22Z</time>
      </trkpt>
      <trkpt lat="46.66453" lon="6.03101">
        <ele>925.89</ele>
        <time>2013-05-09T15:36:26Z</time>
      </trkpt>
      <trkpt lat="46.66422" lon="6.03111">
        <ele>923.96</ele>
        <time>2013-05-09T15:36:36Z</time>
      </trkpt>
      <trkpt lat="46.66404" lon="6.0311">
        <ele>923</ele>
        <time>2013-05-09T15:36:41Z</time>
      </trkpt>
      <trkpt lat="46.66399" lon="6.03107">
        <ele>921.56</ele>
        <time>2013-05-09T15:36:42Z</time>
      </trkpt>
      <trkpt lat="46.66394" lon="6.03104">
        <ele>920.12</ele>
        <time>2013-05-09T15:36:43Z</time>
      </trkpt>
      <trkpt lat="46.66376" lon="6.03096">
        <ele>916.75</ele>
        <time>2013-05-09T15:36:46Z</time>
      </trkpt>
      <trkpt lat="46.66365" lon="6.03093">
        <ele>915.31</ele>
        <time>2013-05-09T15:36:48Z</time>
      </trkpt>
      <trkpt lat="46.66359" lon="6.03092">
        <ele>914.35</ele>
        <time>2013-05-09T15:36:49Z</time>
      </trkpt>
      <trkpt lat="46.6635" lon="6.03091">
        <ele>913.39</ele>
        <time>2013-05-09T15:36:51Z</time>
      </trkpt>
      <trkpt lat="46.66345" lon="6.03091">
        <ele>912.91</ele>
        <time>2013-05-09T15:36:52Z</time>
      </trkpt>
      <trkpt lat="46.6634" lon="6.03093">
        <ele>912.43</ele>
        <time>2013-05-09T15:36:53Z</time>
      </trkpt>
      <trkpt lat="46.66335" lon="6.03096">
        <ele>911.95</ele>
        <time>2013-05-09T15:36:54Z</time>
      </trkpt>
      <trkpt lat="46.6633" lon="6.03099">
        <ele>911.95</ele>
        <time>2013-05-09T15:36:55Z</time>
      </trkpt>
      <trkpt lat="46.66325" lon="6.03103">
        <ele>913.39</ele>
        <time>2013-05-09T15:36:56Z</time>
      </trkpt>
      <trkpt lat="46.6632" lon="6.03106">
        <ele>912.91</ele>
        <time>2013-05-09T15:36:57Z</time>
      </trkpt>
      <trkpt lat="46.66316" lon="6.03111">
        <ele>912.91</ele>
        <time>2013-05-09T15:36:58Z</time>
      </trkpt>
      <trkpt lat="46.66313" lon="6.03115">
        <ele>913.39</ele>
        <time>2013-05-09T15:36:59Z</time>
      </trkpt>
      <trkpt lat="46.66311" lon="6.03119">
        <ele>913.87</ele>
        <time>2013-05-09T15:37:00Z</time>
      </trkpt>
      <trkpt lat="46.66309" lon="6.03124">
        <ele>913.87</ele>
        <time>2013-05-09T15:37:01Z</time>
      </trkpt>
      <trkpt lat="46.66303" lon="6.0314">
        <ele>913.87</ele>
        <time>2013-05-09T15:37:05Z</time>
      </trkpt>
      <trkpt lat="46.66303" lon="6.03152">
        <ele>914.35</ele>
        <time>2013-05-09T15:37:09Z</time>
      </trkpt>
      <trkpt lat="46.66316" lon="6.03164">
        <ele>914.83</ele>
        <time>2013-05-09T15:37:15Z</time>
      </trkpt>
      <trkpt lat="46.66353" lon="6.03186">
        <ele>913.87</ele>
        <time>2013-05-09T15:37:27Z</time>
      </trkpt>
      <trkpt lat="46.6636" lon="6.03193">
        <ele>913.87</ele>
        <time>2013-05-09T15:37:30Z</time>
      </trkpt>
      <trkpt lat="46.66361" lon="6.03197">
        <ele>913.87</ele>
        <time>2013-05-09T15:37:31Z</time>
      </trkpt>
      <trkpt lat="46.66355" lon="6.03222">
        <ele>913.39</ele>
        <time>2013-05-09T15:37:37Z</time>
      </trkpt>
      <trkpt lat="46.66351" lon="6.03225">
        <ele>913.39</ele>
        <time>2013-05-09T15:37:38Z</time>
      </trkpt>
      <trkpt lat="46.66347" lon="6.03229">
        <ele>912.91</ele>
        <time>2013-05-09T15:37:39Z</time>
      </trkpt>
      <trkpt lat="46.66342" lon="6.03234">
        <ele>911.95</ele>
        <time>2013-05-09T15:37:40Z</time>
      </trkpt>
      <trkpt lat="46.66337" lon="6.0324">
        <ele>911.47</ele>
        <time>2013-05-09T15:37:41Z</time>
      </trkpt>
      <trkpt lat="46.66333" lon="6.03247">
        <ele>910.99</ele>
        <time>2013-05-09T15:37:42Z</time>
      </trkpt>
      <trkpt lat="46.66329" lon="6.03255">
        <ele>910.51</ele>
        <time>2013-05-09T15:37:43Z</time>
      </trkpt>
      <trkpt lat="46.66322" lon="6.03268">
        <ele>909.06</ele>
        <time>2013-05-09T15:37:45Z</time>
      </trkpt>
      <trkpt lat="46.66318" lon="6.0327">
        <ele>908.58</ele>
        <time>2013-05-09T15:37:46Z</time>
      </trkpt>
      <trkpt lat="46.66309" lon="6.03268">
        <ele>909.06</ele>
        <time>2013-05-09T15:37:48Z</time>
      </trkpt>
      <trkpt lat="46.66306" lon="6.03264">
        <ele>909.54</ele>
        <time>2013-05-09T15:37:49Z</time>
      </trkpt>
      <trkpt lat="46.66286" lon="6.03249">
        <ele>912.91</ele>
        <time>2013-05-09T15:37:57Z</time>
      </trkpt>
      <trkpt lat="46.6628" lon="6.03248">
        <ele>912.91</ele>
        <time>2013-05-09T15:37:59Z</time>
      </trkpt>
      <trkpt lat="46.66277" lon="6.03249">
        <ele>913.39</ele>
        <time>2013-05-09T15:38:00Z</time>
      </trkpt>
      <trkpt lat="46.66274" lon="6.03249">
        <ele>913.87</ele>
        <time>2013-05-09T15:38:01Z</time>
      </trkpt>
      <trkpt lat="46.66272" lon="6.0325">
        <ele>913.87</ele>
        <time>2013-05-09T15:38:02Z</time>
      </trkpt>
      <trkpt lat="46.66269" lon="6.03251">
        <ele>914.35</ele>
        <time>2013-05-09T15:38:03Z</time>
      </trkpt>
      <trkpt lat="46.66267" lon="6.03252">
        <ele>914.35</ele>
        <time>2013-05-09T15:38:04Z</time>
      </trkpt>
      <trkpt lat="46.66265" lon="6.03253">
        <ele>914.83</ele>
        <time>2013-05-09T15:38:05Z</time>
      </trkpt>
      <trkpt lat="46.66263" lon="6.03253">
        <ele>914.83</ele>
        <time>2013-05-09T15:38:06Z</time>
      </trkpt>
      <trkpt lat="46.66236" lon="6.03265">
        <ele>917.24</ele>
        <time>2013-05-09T15:38:17Z</time>
      </trkpt>
      <trkpt lat="46.66207" lon="6.0328">
        <ele>919.16</ele>
        <time>2013-05-09T15:38:28Z</time>
      </trkpt>
      <trkpt lat="46.6618" lon="6.03298">
        <ele>920.6</ele>
        <time>2013-05-09T15:38:39Z</time>
      </trkpt>
      <trkpt lat="46.6615" lon="6.0332">
        <ele>922.52</ele>
        <time>2013-05-09T15:38:52Z</time>
      </trkpt>
      <trkpt lat="46.66123" lon="6.03342">
        <ele>925.41</ele>
        <time>2013-05-09T15:39:05Z</time>
      </trkpt>
      <trkpt lat="46.66102" lon="6.03363">
        <ele>927.33</ele>
        <time>2013-05-09T15:39:17Z</time>
      </trkpt>
      <trkpt lat="46.661" lon="6.03365">
        <ele>927.33</ele>
        <time>2013-05-09T15:39:18Z</time>
      </trkpt>
      <trkpt lat="46.66097" lon="6.03366">
        <ele>927.33</ele>
        <time>2013-05-09T15:39:19Z</time>
      </trkpt>
      <trkpt lat="46.66095" lon="6.03368">
        <ele>927.81</ele>
        <time>2013-05-09T15:39:20Z</time>
      </trkpt>
      <trkpt lat="46.66066" lon="6.03399">
        <ele>925.89</ele>
        <time>2013-05-09T15:39:30Z</time>
      </trkpt>
      <trkpt lat="46.66063" lon="6.03406">
        <ele>923.96</ele>
        <time>2013-05-09T15:39:31Z</time>
      </trkpt>
      <trkpt lat="46.66062" lon="6.03415">
        <ele>923</ele>
        <time>2013-05-09T15:39:32Z</time>
      </trkpt>
      <trkpt lat="46.66064" lon="6.03427">
        <ele>922.04</ele>
        <time>2013-05-09T15:39:33Z</time>
      </trkpt>
      <trkpt lat="46.66068" lon="6.03464">
        <ele>918.68</ele>
        <time>2013-05-09T15:39:36Z</time>
      </trkpt>
      <trkpt lat="46.66068" lon="6.03482">
        <ele>917.72</ele>
        <time>2013-05-09T15:39:38Z</time>
      </trkpt>
      <trkpt lat="46.66067" lon="6.03495">
        <ele>917.24</ele>
        <time>2013-05-09T15:39:39Z</time>
      </trkpt>
      <trkpt lat="46.66066" lon="6.03513">
        <ele>915.79</ele>
        <time>2013-05-09T15:39:41Z</time>
      </trkpt>
      <trkpt lat="46.66064" lon="6.03546">
        <ele>912.43</ele>
        <time>2013-05-09T15:39:44Z</time>
      </trkpt>
      <trkpt lat="46.66064" lon="6.03558">
        <ele>911.47</ele>
        <time>2013-05-09T15:39:45Z</time>
      </trkpt>
      <trkpt lat="46.66066" lon="6.03581">
        <ele>910.03</ele>
        <time>2013-05-09T15:39:47Z</time>
      </trkpt>
      <trkpt lat="46.66069" lon="6.03591">
        <ele>909.06</ele>
        <time>2013-05-09T15:39:48Z</time>
      </trkpt>
      <trkpt lat="46.66072" lon="6.036">
        <ele>908.1</ele>
        <time>2013-05-09T15:39:49Z</time>
      </trkpt>
      <trkpt lat="46.66075" lon="6.0361">
        <ele>907.62</ele>
        <time>2013-05-09T15:39:50Z</time>
      </trkpt>
      <trkpt lat="46.66086" lon="6.03668">
        <ele>907.62</ele>
        <time>2013-05-09T15:39:55Z</time>
      </trkpt>
      <trkpt lat="46.66086" lon="6.03678">
        <ele>908.1</ele>
        <time>2013-05-09T15:39:56Z</time>
      </trkpt>
      <trkpt lat="46.66088" lon="6.03687">
        <ele>909.06</ele>
        <time>2013-05-09T15:39:57Z</time>
      </trkpt>
      <trkpt lat="46.6609" lon="6.03693">
        <ele>909.54</ele>
        <time>2013-05-09T15:39:58Z</time>
      </trkpt>
      <trkpt lat="46.66091" lon="6.03696">
        <ele>910.03</ele>
        <time>2013-05-09T15:39:59Z</time>
      </trkpt>
      <trkpt lat="46.66092" lon="6.03699">
        <ele>910.51</ele>
        <time>2013-05-09T15:40:00Z</time>
      </trkpt>
      <trkpt lat="46.66111" lon="6.0373">
        <ele>913.39</ele>
        <time>2013-05-09T15:40:09Z</time>
      </trkpt>
      <trkpt lat="46.66111" lon="6.03733">
        <ele>913.87</ele>
        <time>2013-05-09T15:40:10Z</time>
      </trkpt>
      <trkpt lat="46.66112" lon="6.03746">
        <ele>915.31</ele>
        <time>2013-05-09T15:40:15Z</time>
      </trkpt>
      <trkpt lat="46.66113" lon="6.03748">
        <ele>915.31</ele>
        <time>2013-05-09T15:40:16Z</time>
      </trkpt>
      <trkpt lat="46.66119" lon="6.03765">
        <ele>915.79</ele>
        <time>2013-05-09T15:40:20Z</time>
      </trkpt>
      <trkpt lat="46.66123" lon="6.03771">
        <ele>916.27</ele>
        <time>2013-05-09T15:40:22Z</time>
      </trkpt>
      <trkpt lat="46.66123" lon="6.03774">
        <ele>916.75</ele>
        <time>2013-05-09T15:40:23Z</time>
      </trkpt>
      <trkpt lat="46.66123" lon="6.03778">
        <ele>916.75</ele>
        <time>2013-05-09T15:40:25Z</time>
      </trkpt>
      <trkpt lat="46.66123" lon="6.0378">
        <ele>916.75</ele>
        <time>2013-05-09T15:40:26Z</time>
      </trkpt>
      <trkpt lat="46.66128" lon="6.038">
        <ele>918.68</ele>
        <time>2013-05-09T15:40:34Z</time>
      </trkpt>
      <trkpt lat="46.66129" lon="6.03802">
        <ele>919.16</ele>
        <time>2013-05-09T15:40:35Z</time>
      </trkpt>
      <trkpt lat="46.6613" lon="6.03805">
        <ele>919.64</ele>
        <time>2013-05-09T15:40:36Z</time>
      </trkpt>
      <trkpt lat="46.66131" lon="6.03809">
        <ele>919.64</ele>
        <time>2013-05-09T15:40:37Z</time>
      </trkpt>
      <trkpt lat="46.66137" lon="6.03821">
        <ele>926.37</ele>
        <time>2013-05-09T15:40:43Z</time>
      </trkpt>
      <trkpt lat="46.66138" lon="6.03823">
        <ele>920.6</ele>
        <time>2013-05-09T15:40:44Z</time>
      </trkpt>
      <trkpt lat="46.66145" lon="6.03835">
        <ele>922.04</ele>
        <time>2013-05-09T15:40:52Z</time>
      </trkpt>
      <trkpt lat="46.66146" lon="6.03839">
        <ele>921.56</ele>
        <time>2013-05-09T15:40:54Z</time>
      </trkpt>
      <trkpt lat="46.66148" lon="6.03841">
        <ele>921.56</ele>
        <time>2013-05-09T15:40:55Z</time>
      </trkpt>
      <trkpt lat="46.66148" lon="6.03844">
        <ele>921.56</ele>
        <time>2013-05-09T15:40:56Z</time>
      </trkpt>
      <trkpt lat="46.66149" lon="6.03848">
        <ele>921.56</ele>
        <time>2013-05-09T15:40:57Z</time>
      </trkpt>
      <trkpt lat="46.66156" lon="6.03864">
        <ele>921.08</ele>
        <time>2013-05-09T15:41:01Z</time>
      </trkpt>
      <trkpt lat="46.66156" lon="6.03869">
        <ele>918.68</ele>
        <time>2013-05-09T15:41:02Z</time>
      </trkpt>
      <trkpt lat="46.66158" lon="6.03873">
        <ele>925.89</ele>
        <time>2013-05-09T15:41:03Z</time>
      </trkpt>
      <trkpt lat="46.66159" lon="6.03877">
        <ele>917.24</ele>
        <time>2013-05-09T15:41:04Z</time>
      </trkpt>
      <trkpt lat="46.6616" lon="6.03881">
        <ele>925.41</ele>
        <time>2013-05-09T15:41:05Z</time>
      </trkpt>
      <trkpt lat="46.66161" lon="6.03885">
        <ele>920.6</ele>
        <time>2013-05-09T15:41:06Z</time>
      </trkpt>
      <trkpt lat="46.66181" lon="6.03923">
        <ele>920.6</ele>
        <time>2013-05-09T15:41:15Z</time>
      </trkpt>
      <trkpt lat="46.66194" lon="6.03946">
        <ele>922.52</ele>
        <time>2013-05-09T15:41:22Z</time>
      </trkpt>
      <trkpt lat="46.66199" lon="6.03958">
        <ele>923</ele>
        <time>2013-05-09T15:41:26Z</time>
      </trkpt>
      <trkpt lat="46.662" lon="6.0396">
        <ele>923</ele>
        <time>2013-05-09T15:41:27Z</time>
      </trkpt>
      <trkpt lat="46.66201" lon="6.03968">
        <ele>923.48</ele>
        <time>2013-05-09T15:41:30Z</time>
      </trkpt>
      <trkpt lat="46.66201" lon="6.03979">
        <ele>924.45</ele>
        <time>2013-05-09T15:41:34Z</time>
      </trkpt>
      <trkpt lat="46.66199" lon="6.03982">
        <ele>924.93</ele>
        <time>2013-05-09T15:41:36Z</time>
      </trkpt>
      <trkpt lat="46.66192" lon="6.03976">
        <ele>926.37</ele>
        <time>2013-05-09T15:41:43Z</time>
      </trkpt>
      <trkpt lat="46.6619" lon="6.03967">
        <ele>927.81</ele>
        <time>2013-05-09T15:41:51Z</time>
      </trkpt>
      <trkpt lat="46.6619" lon="6.03966">
        <ele>928.29</ele>
        <time>2013-05-09T15:41:52Z</time>
      </trkpt>
      <trkpt lat="46.66188" lon="6.0396">
        <ele>929.25</ele>
        <time>2013-05-09T15:41:56Z</time>
      </trkpt>
      <trkpt lat="46.66187" lon="6.03958">
        <ele>929.25</ele>
        <time>2013-05-09T15:41:57Z</time>
      </trkpt>
      <trkpt lat="46.66185" lon="6.03955">
        <ele>929.73</ele>
        <time>2013-05-09T15:41:58Z</time>
      </trkpt>
      <trkpt lat="46.66174" lon="6.03939">
        <ele>930.69</ele>
        <time>2013-05-09T15:42:06Z</time>
      </trkpt>
      <trkpt lat="46.66163" lon="6.03925">
        <ele>932.14</ele>
        <time>2013-05-09T15:42:14Z</time>
      </trkpt>
      <trkpt lat="46.66148" lon="6.03906">
        <ele>934.54</ele>
        <time>2013-05-09T15:42:25Z</time>
      </trkpt>
      <trkpt lat="46.6614" lon="6.03895">
        <ele>935.5</ele>
        <time>2013-05-09T15:42:29Z</time>
      </trkpt>
      <trkpt lat="46.66133" lon="6.03885">
        <ele>936.46</ele>
        <time>2013-05-09T15:42:34Z</time>
      </trkpt>
      <trkpt lat="46.66132" lon="6.03882">
        <ele>936.46</ele>
        <time>2013-05-09T15:42:35Z</time>
      </trkpt>
      <trkpt lat="46.66122" lon="6.03865">
        <ele>937.9</ele>
        <time>2013-05-09T15:42:43Z</time>
      </trkpt>
      <trkpt lat="46.66115" lon="6.03849">
        <ele>938.38</ele>
        <time>2013-05-09T15:42:48Z</time>
      </trkpt>
      <trkpt lat="46.66113" lon="6.03847">
        <ele>938.86</ele>
        <time>2013-05-09T15:42:49Z</time>
      </trkpt>
      <trkpt lat="46.66111" lon="6.03845">
        <ele>938.86</ele>
        <time>2013-05-09T15:42:50Z</time>
      </trkpt>
      <trkpt lat="46.66101" lon="6.03822">
        <ele>941.27</ele>
        <time>2013-05-09T15:42:59Z</time>
      </trkpt>
      <trkpt lat="46.66095" lon="6.03812">
        <ele>941.75</ele>
        <time>2013-05-09T15:43:03Z</time>
      </trkpt>
      <trkpt lat="46.66094" lon="6.03809">
        <ele>941.75</ele>
        <time>2013-05-09T15:43:04Z</time>
      </trkpt>
      <trkpt lat="46.66093" lon="6.03807">
        <ele>941.75</ele>
        <time>2013-05-09T15:43:05Z</time>
      </trkpt>
      <trkpt lat="46.66092" lon="6.03804">
        <ele>942.23</ele>
        <time>2013-05-09T15:43:06Z</time>
      </trkpt>
      <trkpt lat="46.66091" lon="6.03802">
        <ele>942.23</ele>
        <time>2013-05-09T15:43:07Z</time>
      </trkpt>
      <trkpt lat="46.66076" lon="6.03772">
        <ele>943.19</ele>
        <time>2013-05-09T15:43:17Z</time>
      </trkpt>
      <trkpt lat="46.66058" lon="6.03744">
        <ele>945.11</ele>
        <time>2013-05-09T15:43:28Z</time>
      </trkpt>
      <trkpt lat="46.66055" lon="6.03739">
        <ele>941.75</ele>
        <time>2013-05-09T15:43:30Z</time>
      </trkpt>
      <trkpt lat="46.66053" lon="6.03737">
        <ele>945.59</ele>
        <time>2013-05-09T15:43:31Z</time>
      </trkpt>
      <trkpt lat="46.66041" lon="6.03726">
        <ele>948.96</ele>
        <time>2013-05-09T15:43:36Z</time>
      </trkpt>
      <trkpt lat="46.6604" lon="6.03725">
        <ele>947.04</ele>
        <time>2013-05-09T15:43:37Z</time>
      </trkpt>
      <trkpt lat="46.66021" lon="6.03701">
        <ele>948</ele>
        <time>2013-05-09T15:43:48Z</time>
      </trkpt>
      <trkpt lat="46.66008" lon="6.03685">
        <ele>949.44</ele>
        <time>2013-05-09T15:43:57Z</time>
      </trkpt>
      <trkpt lat="46.65996" lon="6.03665">
        <ele>950.88</ele>
        <time>2013-05-09T15:44:06Z</time>
      </trkpt>
      <trkpt lat="46.65994" lon="6.03662">
        <ele>950.88</ele>
        <time>2013-05-09T15:44:08Z</time>
      </trkpt>
      <trkpt lat="46.6599" lon="6.03654">
        <ele>951.36</ele>
        <time>2013-05-09T15:44:12Z</time>
      </trkpt>
      <trkpt lat="46.65988" lon="6.03653">
        <ele>951.84</ele>
        <time>2013-05-09T15:44:13Z</time>
      </trkpt>
      <trkpt lat="46.65974" lon="6.03641">
        <ele>953.77</ele>
        <time>2013-05-09T15:44:22Z</time>
      </trkpt>
      <trkpt lat="46.65972" lon="6.03642">
        <ele>954.25</ele>
        <time>2013-05-09T15:44:39Z</time>
      </trkpt>
      <trkpt lat="46.65972" lon="6.03644">
        <ele>954.73</ele>
        <time>2013-05-09T15:45:00Z</time>
      </trkpt>
      <trkpt lat="46.65974" lon="6.03653">
        <ele>955.69</ele>
        <time>2013-05-09T15:45:06Z</time>
      </trkpt>
      <trkpt lat="46.65975" lon="6.03663">
        <ele>956.65</ele>
        <time>2013-05-09T15:45:11Z</time>
      </trkpt>
      <trkpt lat="46.65978" lon="6.03674">
        <ele>957.13</ele>
        <time>2013-05-09T15:45:17Z</time>
      </trkpt>
      <trkpt lat="46.65983" lon="6.03689">
        <ele>958.57</ele>
        <time>2013-05-09T15:45:26Z</time>
      </trkpt>
      <trkpt lat="46.65989" lon="6.03708">
        <ele>960.49</ele>
        <time>2013-05-09T15:45:34Z</time>
      </trkpt>
      <trkpt lat="46.65985" lon="6.03711">
        <ele>961.94</ele>
        <time>2013-05-09T15:45:37Z</time>
      </trkpt>
      <trkpt lat="46.65982" lon="6.03708">
        <ele>961.94</ele>
        <time>2013-05-09T15:45:40Z</time>
      </trkpt>
      <trkpt lat="46.65981" lon="6.03703">
        <ele>962.42</ele>
        <time>2013-05-09T15:45:43Z</time>
      </trkpt>
      <trkpt lat="46.65968" lon="6.03686">
        <ele>964.34</ele>
        <time>2013-05-09T15:45:55Z</time>
      </trkpt>
      <trkpt lat="46.65965" lon="6.03683">
        <ele>964.82</ele>
        <time>2013-05-09T15:45:57Z</time>
      </trkpt>
      <trkpt lat="46.65956" lon="6.03668">
        <ele>967.22</ele>
        <time>2013-05-09T15:46:09Z</time>
      </trkpt>
      <trkpt lat="46.65941" lon="6.0365">
        <ele>969.63</ele>
        <time>2013-05-09T15:46:20Z</time>
      </trkpt>
      <trkpt lat="46.65939" lon="6.03646">
        <ele>970.59</ele>
        <time>2013-05-09T15:46:22Z</time>
      </trkpt>
      <trkpt lat="46.65928" lon="6.03629">
        <ele>972.03</ele>
        <time>2013-05-09T15:46:33Z</time>
      </trkpt>
      <trkpt lat="46.65927" lon="6.03624">
        <ele>972.51</ele>
        <time>2013-05-09T15:46:35Z</time>
      </trkpt>
      <trkpt lat="46.65916" lon="6.03604">
        <ele>973.47</ele>
        <time>2013-05-09T15:46:41Z</time>
      </trkpt>
      <trkpt lat="46.65908" lon="6.0359">
        <ele>974.43</ele>
        <time>2013-05-09T15:46:46Z</time>
      </trkpt>
      <trkpt lat="46.65897" lon="6.03573">
        <ele>975.88</ele>
        <time>2013-05-09T15:46:53Z</time>
      </trkpt>
      <trkpt lat="46.6589" lon="6.03558">
        <ele>972.99</ele>
        <time>2013-05-09T15:46:58Z</time>
      </trkpt>
      <trkpt lat="46.65886" lon="6.03549">
        <ele>977.32</ele>
        <time>2013-05-09T15:47:01Z</time>
      </trkpt>
      <trkpt lat="46.65883" lon="6.03542">
        <ele>977.8</ele>
        <time>2013-05-09T15:47:05Z</time>
      </trkpt>
      <trkpt lat="46.6587" lon="6.03516">
        <ele>979.72</ele>
        <time>2013-05-09T15:47:15Z</time>
      </trkpt>
      <trkpt lat="46.65854" lon="6.03487">
        <ele>981.16</ele>
        <time>2013-05-09T15:47:27Z</time>
      </trkpt>
      <trkpt lat="46.65847" lon="6.03478">
        <ele>981.64</ele>
        <time>2013-05-09T15:47:31Z</time>
      </trkpt>
      <trkpt lat="46.65831" lon="6.03448">
        <ele>983.09</ele>
        <time>2013-05-09T15:47:42Z</time>
      </trkpt>
      <trkpt lat="46.65825" lon="6.0344">
        <ele>984.05</ele>
        <time>2013-05-09T15:47:46Z</time>
      </trkpt>
      <trkpt lat="46.65811" lon="6.03418">
        <ele>985.97</ele>
        <time>2013-05-09T15:47:56Z</time>
      </trkpt>
      <trkpt lat="46.65796" lon="6.03396">
        <ele>987.89</ele>
        <time>2013-05-09T15:48:07Z</time>
      </trkpt>
      <trkpt lat="46.65794" lon="6.03391">
        <ele>988.85</ele>
        <time>2013-05-09T15:48:11Z</time>
      </trkpt>
      <trkpt lat="46.65778" lon="6.03368">
        <ele>990.78</ele>
        <time>2013-05-09T15:48:22Z</time>
      </trkpt>
      <trkpt lat="46.65776" lon="6.03364">
        <ele>990.78</ele>
        <time>2013-05-09T15:48:23Z</time>
      </trkpt>
      <trkpt lat="46.65762" lon="6.0334">
        <ele>994.14</ele>
        <time>2013-05-09T15:48:34Z</time>
      </trkpt>
      <trkpt lat="46.6576" lon="6.03338">
        <ele>994.62</ele>
        <time>2013-05-09T15:48:35Z</time>
      </trkpt>
      <trkpt lat="46.65745" lon="6.03319">
        <ele>995.58</ele>
        <time>2013-05-09T15:48:45Z</time>
      </trkpt>
      <trkpt lat="46.65743" lon="6.03317">
        <ele>995.58</ele>
        <time>2013-05-09T15:48:46Z</time>
      </trkpt>
      <trkpt lat="46.65738" lon="6.0331">
        <ele>996.54</ele>
        <time>2013-05-09T15:48:49Z</time>
      </trkpt>
      <trkpt lat="46.65736" lon="6.0331">
        <ele>996.54</ele>
        <time>2013-05-09T15:48:50Z</time>
      </trkpt>
      <trkpt lat="46.65713" lon="6.03273">
        <ele>997.02</ele>
        <time>2013-05-09T15:49:02Z</time>
      </trkpt>
      <trkpt lat="46.65703" lon="6.03259">
        <ele>997.02</ele>
        <time>2013-05-09T15:49:06Z</time>
      </trkpt>
      <trkpt lat="46.6568" lon="6.03232">
        <ele>998.95</ele>
        <time>2013-05-09T15:49:16Z</time>
      </trkpt>
      <trkpt lat="46.65677" lon="6.03228">
        <ele>998.95</ele>
        <time>2013-05-09T15:49:18Z</time>
      </trkpt>
      <trkpt lat="46.6566" lon="6.03196">
        <ele>1000.87</ele>
        <time>2013-05-09T15:49:28Z</time>
      </trkpt>
      <trkpt lat="46.6565" lon="6.0318">
        <ele>1001.35</ele>
        <time>2013-05-09T15:49:33Z</time>
      </trkpt>
      <trkpt lat="46.65648" lon="6.03178">
        <ele>1001.83</ele>
        <time>2013-05-09T15:49:34Z</time>
      </trkpt>
      <trkpt lat="46.65627" lon="6.03155">
        <ele>1003.75</ele>
        <time>2013-05-09T15:49:44Z</time>
      </trkpt>
      <trkpt lat="46.65607" lon="6.03137">
        <ele>1006.64</ele>
        <time>2013-05-09T15:49:54Z</time>
      </trkpt>
      <trkpt lat="46.65598" lon="6.03129">
        <ele>1008.56</ele>
        <time>2013-05-09T15:50:02Z</time>
      </trkpt>
      <trkpt lat="46.65585" lon="6.03121">
        <ele>1010.48</ele>
        <time>2013-05-09T15:50:13Z</time>
      </trkpt>
      <trkpt lat="46.65583" lon="6.03121">
        <ele>1010.96</ele>
        <time>2013-05-09T15:50:15Z</time>
      </trkpt>
      <trkpt lat="46.65563" lon="6.03121">
        <ele>1013.85</ele>
        <time>2013-05-09T15:50:28Z</time>
      </trkpt>
      <trkpt lat="46.65561" lon="6.03124">
        <ele>1014.33</ele>
        <time>2013-05-09T15:50:30Z</time>
      </trkpt>
      <trkpt lat="46.65559" lon="6.03124">
        <ele>1014.81</ele>
        <time>2013-05-09T15:50:31Z</time>
      </trkpt>
      <trkpt lat="46.65558" lon="6.03126">
        <ele>1014.81</ele>
        <time>2013-05-09T15:50:32Z</time>
      </trkpt>
      <trkpt lat="46.65557" lon="6.03127">
        <ele>1014.81</ele>
        <time>2013-05-09T15:50:33Z</time>
      </trkpt>
      <trkpt lat="46.65554" lon="6.03129">
        <ele>1015.29</ele>
        <time>2013-05-09T15:50:35Z</time>
      </trkpt>
      <trkpt lat="46.65552" lon="6.03131">
        <ele>1015.29</ele>
        <time>2013-05-09T15:50:37Z</time>
      </trkpt>
      <trkpt lat="46.65535" lon="6.03138">
        <ele>1017.69</ele>
        <time>2013-05-09T15:50:47Z</time>
      </trkpt>
      <trkpt lat="46.65529" lon="6.0315">
        <ele>1018.65</ele>
        <time>2013-05-09T15:50:54Z</time>
      </trkpt>
      <trkpt lat="46.65528" lon="6.03153">
        <ele>1019.13</ele>
        <time>2013-05-09T15:50:55Z</time>
      </trkpt>
      <trkpt lat="46.65527" lon="6.03155">
        <ele>1019.13</ele>
        <time>2013-05-09T15:50:56Z</time>
      </trkpt>
      <trkpt lat="46.65525" lon="6.03156">
        <ele>1019.13</ele>
        <time>2013-05-09T15:50:57Z</time>
      </trkpt>
      <trkpt lat="46.65524" lon="6.03157">
        <ele>1019.13</ele>
        <time>2013-05-09T15:50:58Z</time>
      </trkpt>
      <trkpt lat="46.65522" lon="6.03158">
        <ele>1019.13</ele>
        <time>2013-05-09T15:50:59Z</time>
      </trkpt>
      <trkpt lat="46.65521" lon="6.03158">
        <ele>1019.13</ele>
        <time>2013-05-09T15:51:00Z</time>
      </trkpt>
      <trkpt lat="46.6552" lon="6.03159">
        <ele>1019.13</ele>
        <time>2013-05-09T15:51:01Z</time>
      </trkpt>
      <trkpt lat="46.65518" lon="6.0316">
        <ele>1018.65</ele>
        <time>2013-05-09T15:51:12Z</time>
      </trkpt>
      <trkpt lat="46.65514" lon="6.03163">
        <ele>1018.17</ele>
        <time>2013-05-09T15:51:25Z</time>
      </trkpt>
      <trkpt lat="46.65512" lon="6.03164">
        <ele>1018.17</ele>
        <time>2013-05-09T15:51:44Z</time>
      </trkpt>
      <trkpt lat="46.65512" lon="6.03164">
        <ele>1017.69</ele>
        <time>2013-05-09T15:52:19Z</time>
      </trkpt>
      <trkpt lat="46.65512" lon="6.03165">
        <ele>1017.69</ele>
        <time>2013-05-09T15:52:54Z</time>
      </trkpt>
      <trkpt lat="46.65512" lon="6.03165">
        <ele>1017.21</ele>
        <time>2013-05-09T15:53:27Z</time>
      </trkpt>
      <trkpt lat="46.65512" lon="6.03165">
        <ele>1016.73</ele>
        <time>2013-05-09T15:53:59Z</time>
      </trkpt>
      <trkpt lat="46.65511" lon="6.03165">
        <ele>1016.25</ele>
        <time>2013-05-09T15:54:40Z</time>
      </trkpt>
      <trkpt lat="46.65511" lon="6.03165">
        <ele>1016.73</ele>
        <time>2013-05-09T15:55:12Z</time>
      </trkpt>
      <trkpt lat="46.65511" lon="6.03165">
        <ele>1016.25</ele>
        <time>2013-05-09T15:55:46Z</time>
      </trkpt>
      <trkpt lat="46.65508" lon="6.0317">
        <ele>1015.77</ele>
        <time>2013-05-09T15:55:55Z</time>
      </trkpt>
      <trkpt lat="46.65506" lon="6.03172">
        <ele>1015.77</ele>
        <time>2013-05-09T15:55:56Z</time>
      </trkpt>
      <trkpt lat="46.6549" lon="6.03194">
        <ele>1013.85</ele>
        <time>2013-05-09T15:56:04Z</time>
      </trkpt>
      <trkpt lat="46.65489" lon="6.03195">
        <ele>1013.85</ele>
        <time>2013-05-09T15:56:05Z</time>
      </trkpt>
      <trkpt lat="46.65488" lon="6.03197">
        <ele>1013.85</ele>
        <time>2013-05-09T15:56:06Z</time>
      </trkpt>
      <trkpt lat="46.65488" lon="6.03199">
        <ele>1013.85</ele>
        <time>2013-05-09T15:56:07Z</time>
      </trkpt>
      <trkpt lat="46.65488" lon="6.03201">
        <ele>1013.37</ele>
        <time>2013-05-09T15:56:08Z</time>
      </trkpt>
      <trkpt lat="46.6549" lon="6.03203">
        <ele>1013.37</ele>
        <time>2013-05-09T15:56:09Z</time>
      </trkpt>
      <trkpt lat="46.65491" lon="6.03205">
        <ele>1013.37</ele>
        <time>2013-05-09T15:56:10Z</time>
      </trkpt>
      <trkpt lat="46.65492" lon="6.03206">
        <ele>1013.85</ele>
        <time>2013-05-09T15:56:11Z</time>
      </trkpt>
      <trkpt lat="46.65493" lon="6.03208">
        <ele>1013.85</ele>
        <time>2013-05-09T15:56:12Z</time>
      </trkpt>
      <trkpt lat="46.65494" lon="6.0321">
        <ele>1013.85</ele>
        <time>2013-05-09T15:56:13Z</time>
      </trkpt>
      <trkpt lat="46.65505" lon="6.0323">
        <ele>1015.29</ele>
        <time>2013-05-09T15:56:24Z</time>
      </trkpt>
      <trkpt lat="46.65514" lon="6.03251">
        <ele>1016.73</ele>
        <time>2013-05-09T15:56:34Z</time>
      </trkpt>
      <trkpt lat="46.65522" lon="6.03274">
        <ele>1018.17</ele>
        <time>2013-05-09T15:56:44Z</time>
      </trkpt>
      <trkpt lat="46.65527" lon="6.03295">
        <ele>1019.13</ele>
        <time>2013-05-09T15:56:51Z</time>
      </trkpt>
      <trkpt lat="46.65532" lon="6.03305">
        <ele>1019.62</ele>
        <time>2013-05-09T15:56:55Z</time>
      </trkpt>
      <trkpt lat="46.65533" lon="6.03308">
        <ele>1019.62</ele>
        <time>2013-05-09T15:56:56Z</time>
      </trkpt>
      <trkpt lat="46.65548" lon="6.0334">
        <ele>1021.06</ele>
        <time>2013-05-09T15:57:07Z</time>
      </trkpt>
      <trkpt lat="46.65564" lon="6.0337">
        <ele>1022.02</ele>
        <time>2013-05-09T15:57:16Z</time>
      </trkpt>
      <trkpt lat="46.65587" lon="6.03416">
        <ele>1021.54</ele>
        <time>2013-05-09T15:57:27Z</time>
      </trkpt>
      <trkpt lat="46.65611" lon="6.03456">
        <ele>1021.54</ele>
        <time>2013-05-09T15:57:37Z</time>
      </trkpt>
      <trkpt lat="46.65629" lon="6.03485">
        <ele>1023.46</ele>
        <time>2013-05-09T15:57:48Z</time>
      </trkpt>
      <trkpt lat="46.65635" lon="6.03496">
        <ele>1025.38</ele>
        <time>2013-05-09T15:57:53Z</time>
      </trkpt>
      <trkpt lat="46.65636" lon="6.03498">
        <ele>1025.86</ele>
        <time>2013-05-09T15:57:54Z</time>
      </trkpt>
      <trkpt lat="46.65637" lon="6.03501">
        <ele>1025.86</ele>
        <time>2013-05-09T15:57:55Z</time>
      </trkpt>
      <trkpt lat="46.65639" lon="6.03504">
        <ele>1026.34</ele>
        <time>2013-05-09T15:57:56Z</time>
      </trkpt>
      <trkpt lat="46.6564" lon="6.03506">
        <ele>1026.83</ele>
        <time>2013-05-09T15:57:57Z</time>
      </trkpt>
      <trkpt lat="46.65656" lon="6.03541">
        <ele>1028.27</ele>
        <time>2013-05-09T15:58:08Z</time>
      </trkpt>
      <trkpt lat="46.65665" lon="6.03576">
        <ele>1028.27</ele>
        <time>2013-05-09T15:58:18Z</time>
      </trkpt>
      <trkpt lat="46.65678" lon="6.03617">
        <ele>1028.75</ele>
        <time>2013-05-09T15:58:29Z</time>
      </trkpt>
      <trkpt lat="46.65694" lon="6.03665">
        <ele>1027.31</ele>
        <time>2013-05-09T15:58:39Z</time>
      </trkpt>
      <trkpt lat="46.65696" lon="6.03673">
        <ele>1027.79</ele>
        <time>2013-05-09T15:58:41Z</time>
      </trkpt>
      <trkpt lat="46.65697" lon="6.03676">
        <ele>1027.79</ele>
        <time>2013-05-09T15:58:42Z</time>
      </trkpt>
      <trkpt lat="46.65699" lon="6.03682">
        <ele>1027.79</ele>
        <time>2013-05-09T15:58:43Z</time>
      </trkpt>
      <trkpt lat="46.65701" lon="6.03686">
        <ele>1027.79</ele>
        <time>2013-05-09T15:58:44Z</time>
      </trkpt>
      <trkpt lat="46.65703" lon="6.03691">
        <ele>1027.79</ele>
        <time>2013-05-09T15:58:45Z</time>
      </trkpt>
      <trkpt lat="46.65706" lon="6.03704">
        <ele>1026.83</ele>
        <time>2013-05-09T15:58:48Z</time>
      </trkpt>
      <trkpt lat="46.65702" lon="6.03721">
        <ele>1023.94</ele>
        <time>2013-05-09T15:58:51Z</time>
      </trkpt>
      <trkpt lat="46.65699" lon="6.03727">
        <ele>1022.98</ele>
        <time>2013-05-09T15:58:52Z</time>
      </trkpt>
      <trkpt lat="46.65696" lon="6.03732">
        <ele>1022.02</ele>
        <time>2013-05-09T15:58:53Z</time>
      </trkpt>
      <trkpt lat="46.65687" lon="6.0374">
        <ele>1020.58</ele>
        <time>2013-05-09T15:58:55Z</time>
      </trkpt>
      <trkpt lat="46.65672" lon="6.03751">
        <ele>1017.21</ele>
        <time>2013-05-09T15:58:59Z</time>
      </trkpt>
      <trkpt lat="46.65668" lon="6.03753">
        <ele>1016.25</ele>
        <time>2013-05-09T15:59:00Z</time>
      </trkpt>
      <trkpt lat="46.65659" lon="6.03759">
        <ele>1012.89</ele>
        <time>2013-05-09T15:59:03Z</time>
      </trkpt>
      <trkpt lat="46.65656" lon="6.03762">
        <ele>1011.93</ele>
        <time>2013-05-09T15:59:05Z</time>
      </trkpt>
      <trkpt lat="46.65656" lon="6.03765">
        <ele>1011.93</ele>
        <time>2013-05-09T15:59:06Z</time>
      </trkpt>
      <trkpt lat="46.65656" lon="6.03773">
        <ele>1012.89</ele>
        <time>2013-05-09T15:59:10Z</time>
      </trkpt>
      <trkpt lat="46.65658" lon="6.03818">
        <ele>1014.81</ele>
        <time>2013-05-09T15:59:20Z</time>
      </trkpt>
      <trkpt lat="46.65672" lon="6.03872">
        <ele>1015.77</ele>
        <time>2013-05-09T15:59:31Z</time>
      </trkpt>
      <trkpt lat="46.65674" lon="6.03878">
        <ele>1016.73</ele>
        <time>2013-05-09T15:59:33Z</time>
      </trkpt>
      <trkpt lat="46.65676" lon="6.03881">
        <ele>1017.21</ele>
        <time>2013-05-09T15:59:34Z</time>
      </trkpt>
      <trkpt lat="46.65676" lon="6.03883">
        <ele>1017.21</ele>
        <time>2013-05-09T15:59:35Z</time>
      </trkpt>
      <trkpt lat="46.65677" lon="6.03885">
        <ele>1017.69</ele>
        <time>2013-05-09T15:59:36Z</time>
      </trkpt>
      <trkpt lat="46.65678" lon="6.03889">
        <ele>1018.17</ele>
        <time>2013-05-09T15:59:38Z</time>
      </trkpt>
      <trkpt lat="46.65678" lon="6.03892">
        <ele>1018.65</ele>
        <time>2013-05-09T15:59:39Z</time>
      </trkpt>
      <trkpt lat="46.65679" lon="6.03895">
        <ele>1019.13</ele>
        <time>2013-05-09T15:59:40Z</time>
      </trkpt>
      <trkpt lat="46.6568" lon="6.03897">
        <ele>1019.13</ele>
        <time>2013-05-09T15:59:41Z</time>
      </trkpt>
      <trkpt lat="46.65681" lon="6.03899">
        <ele>1019.62</ele>
        <time>2013-05-09T15:59:42Z</time>
      </trkpt>
      <trkpt lat="46.65696" lon="6.03931">
        <ele>1022.02</ele>
        <time>2013-05-09T15:59:53Z</time>
      </trkpt>
      <trkpt lat="46.65702" lon="6.03947">
        <ele>1022.98</ele>
        <time>2013-05-09T15:59:59Z</time>
      </trkpt>
      <trkpt lat="46.65716" lon="6.0397">
        <ele>1025.86</ele>
        <time>2013-05-09T16:00:10Z</time>
      </trkpt>
      <trkpt lat="46.6572" lon="6.03976">
        <ele>1026.34</ele>
        <time>2013-05-09T16:00:13Z</time>
      </trkpt>
      <trkpt lat="46.65722" lon="6.03984">
        <ele>1026.83</ele>
        <time>2013-05-09T16:00:17Z</time>
      </trkpt>
      <trkpt lat="46.65723" lon="6.03988">
        <ele>1026.83</ele>
        <time>2013-05-09T16:00:18Z</time>
      </trkpt>
      <trkpt lat="46.65725" lon="6.03991">
        <ele>1026.83</ele>
        <time>2013-05-09T16:00:19Z</time>
      </trkpt>
      <trkpt lat="46.65727" lon="6.03994">
        <ele>1026.83</ele>
        <time>2013-05-09T16:00:20Z</time>
      </trkpt>
      <trkpt lat="46.65728" lon="6.03996">
        <ele>1026.83</ele>
        <time>2013-05-09T16:00:21Z</time>
      </trkpt>
      <trkpt lat="46.6573" lon="6.03999">
        <ele>1027.31</ele>
        <time>2013-05-09T16:00:22Z</time>
      </trkpt>
      <trkpt lat="46.65732" lon="6.04002">
        <ele>1027.31</ele>
        <time>2013-05-09T16:00:23Z</time>
      </trkpt>
      <trkpt lat="46.65749" lon="6.04034">
        <ele>1027.79</ele>
        <time>2013-05-09T16:00:33Z</time>
      </trkpt>
      <trkpt lat="46.65756" lon="6.04048">
        <ele>1026.34</ele>
        <time>2013-05-09T16:00:36Z</time>
      </trkpt>
      <trkpt lat="46.6576" lon="6.04055">
        <ele>1025.38</ele>
        <time>2013-05-09T16:00:37Z</time>
      </trkpt>
      <trkpt lat="46.65771" lon="6.04083">
        <ele>1022.5</ele>
        <time>2013-05-09T16:00:40Z</time>
      </trkpt>
      <trkpt lat="46.65784" lon="6.04119">
        <ele>1021.54</ele>
        <time>2013-05-09T16:00:44Z</time>
      </trkpt>
      <trkpt lat="46.65786" lon="6.04124">
        <ele>1022.5</ele>
        <time>2013-05-09T16:00:45Z</time>
      </trkpt>
      <trkpt lat="46.65788" lon="6.04128">
        <ele>1023.94</ele>
        <time>2013-05-09T16:00:46Z</time>
      </trkpt>
      <trkpt lat="46.65789" lon="6.04132">
        <ele>1024.42</ele>
        <time>2013-05-09T16:00:47Z</time>
      </trkpt>
      <trkpt lat="46.6579" lon="6.04135">
        <ele>1024.9</ele>
        <time>2013-05-09T16:00:48Z</time>
      </trkpt>
      <trkpt lat="46.65791" lon="6.04137">
        <ele>1024.9</ele>
        <time>2013-05-09T16:00:49Z</time>
      </trkpt>
      <trkpt lat="46.65791" lon="6.0414">
        <ele>1025.38</ele>
        <time>2013-05-09T16:00:50Z</time>
      </trkpt>
      <trkpt lat="46.65792" lon="6.04142">
        <ele>1025.86</ele>
        <time>2013-05-09T16:00:51Z</time>
      </trkpt>
      <trkpt lat="46.65793" lon="6.04146">
        <ele>1025.86</ele>
        <time>2013-05-09T16:00:52Z</time>
      </trkpt>
      <trkpt lat="46.65793" lon="6.04149">
        <ele>1026.34</ele>
        <time>2013-05-09T16:00:53Z</time>
      </trkpt>
      <trkpt lat="46.65794" lon="6.04151">
        <ele>1026.34</ele>
        <time>2013-05-09T16:00:54Z</time>
      </trkpt>
      <trkpt lat="46.6581" lon="6.04194">
        <ele>1028.75</ele>
        <time>2013-05-09T16:01:06Z</time>
      </trkpt>
      <trkpt lat="46.65828" lon="6.04239">
        <ele>1028.75</ele>
        <time>2013-05-09T16:01:17Z</time>
      </trkpt>
      <trkpt lat="46.65842" lon="6.04277">
        <ele>1031.63</ele>
        <time>2013-05-09T16:01:28Z</time>
      </trkpt>
      <trkpt lat="46.6585" lon="6.04301">
        <ele>1031.15</ele>
        <time>2013-05-09T16:01:34Z</time>
      </trkpt>
      <trkpt lat="46.65851" lon="6.04304">
        <ele>1031.63</ele>
        <time>2013-05-09T16:01:35Z</time>
      </trkpt>
      <trkpt lat="46.65853" lon="6.04308">
        <ele>1031.15</ele>
        <time>2013-05-09T16:01:36Z</time>
      </trkpt>
      <trkpt lat="46.65855" lon="6.04313">
        <ele>1031.15</ele>
        <time>2013-05-09T16:01:37Z</time>
      </trkpt>
      <trkpt lat="46.65856" lon="6.04317">
        <ele>1031.15</ele>
        <time>2013-05-09T16:01:38Z</time>
      </trkpt>
      <trkpt lat="46.65863" lon="6.04339">
        <ele>1031.63</ele>
        <time>2013-05-09T16:01:44Z</time>
      </trkpt>
      <trkpt lat="46.65863" lon="6.04343">
        <ele>1031.63</ele>
        <time>2013-05-09T16:01:45Z</time>
      </trkpt>
      <trkpt lat="46.65864" lon="6.04348">
        <ele>1031.63</ele>
        <time>2013-05-09T16:01:46Z</time>
      </trkpt>
      <trkpt lat="46.65878" lon="6.04399">
        <ele>1030.67</ele>
        <time>2013-05-09T16:01:57Z</time>
      </trkpt>
      <trkpt lat="46.65884" lon="6.04412">
        <ele>1030.67</ele>
        <time>2013-05-09T16:02:00Z</time>
      </trkpt>
      <trkpt lat="46.65887" lon="6.04417">
        <ele>1030.67</ele>
        <time>2013-05-09T16:02:01Z</time>
      </trkpt>
      <trkpt lat="46.65894" lon="6.04429">
        <ele>1029.23</ele>
        <time>2013-05-09T16:02:03Z</time>
      </trkpt>
      <trkpt lat="46.65907" lon="6.04465">
        <ele>1031.63</ele>
        <time>2013-05-09T16:02:13Z</time>
      </trkpt>
      <trkpt lat="46.65912" lon="6.04471">
        <ele>1032.11</ele>
        <time>2013-05-09T16:02:22Z</time>
      </trkpt>
      <trkpt lat="46.65913" lon="6.04472">
        <ele>1032.11</ele>
        <time>2013-05-09T16:02:23Z</time>
      </trkpt>
      <trkpt lat="46.65914" lon="6.04474">
        <ele>1032.11</ele>
        <time>2013-05-09T16:02:24Z</time>
      </trkpt>
      <trkpt lat="46.65916" lon="6.04477">
        <ele>1031.63</ele>
        <time>2013-05-09T16:02:25Z</time>
      </trkpt>
      <trkpt lat="46.65916" lon="6.04479">
        <ele>1031.63</ele>
        <time>2013-05-09T16:02:26Z</time>
      </trkpt>
      <trkpt lat="46.65917" lon="6.0448">
        <ele>1031.63</ele>
        <time>2013-05-09T16:02:37Z</time>
      </trkpt>
      <trkpt lat="46.65917" lon="6.0448">
        <ele>1031.63</ele>
        <time>2013-05-09T16:03:04Z</time>
      </trkpt>
      <trkpt lat="46.65917" lon="6.0448">
        <ele>1031.63</ele>
        <time>2013-05-09T16:03:34Z</time>
      </trkpt>
      <trkpt lat="46.65918" lon="6.04477">
        <ele>1031.63</ele>
        <time>2013-05-09T16:03:37Z</time>
      </trkpt>
      <trkpt lat="46.65918" lon="6.04475">
        <ele>1031.63</ele>
        <time>2013-05-09T16:03:38Z</time>
      </trkpt>
      <trkpt lat="46.65917" lon="6.04473">
        <ele>1031.63</ele>
        <time>2013-05-09T16:03:39Z</time>
      </trkpt>
      <trkpt lat="46.65917" lon="6.0447">
        <ele>1032.11</ele>
        <time>2013-05-09T16:03:40Z</time>
      </trkpt>
      <trkpt lat="46.65917" lon="6.04466">
        <ele>1032.11</ele>
        <time>2013-05-09T16:03:41Z</time>
      </trkpt>
      <trkpt lat="46.65917" lon="6.04463">
        <ele>1032.59</ele>
        <time>2013-05-09T16:03:42Z</time>
      </trkpt>
      <trkpt lat="46.65918" lon="6.04461">
        <ele>1032.59</ele>
        <time>2013-05-09T16:03:43Z</time>
      </trkpt>
      <trkpt lat="46.65929" lon="6.04448">
        <ele>1035.48</ele>
        <time>2013-05-09T16:03:50Z</time>
      </trkpt>
      <trkpt lat="46.65932" lon="6.04449">
        <ele>1036.44</ele>
        <time>2013-05-09T16:03:52Z</time>
      </trkpt>
      <trkpt lat="46.6595" lon="6.04472">
        <ele>1037.88</ele>
        <time>2013-05-09T16:04:03Z</time>
      </trkpt>
      <trkpt lat="46.65954" lon="6.0448">
        <ele>1038.36</ele>
        <time>2013-05-09T16:04:08Z</time>
      </trkpt>
      <trkpt lat="46.65978" lon="6.04513">
        <ele>1038.36</ele>
        <time>2013-05-09T16:04:22Z</time>
      </trkpt>
      <trkpt lat="46.66002" lon="6.04548">
        <ele>1038.36</ele>
        <time>2013-05-09T16:04:37Z</time>
      </trkpt>
      <trkpt lat="46.66025" lon="6.04584">
        <ele>1038.36</ele>
        <time>2013-05-09T16:04:53Z</time>
      </trkpt>
      <trkpt lat="46.66039" lon="6.04612">
        <ele>1037.88</ele>
        <time>2013-05-09T16:05:04Z</time>
      </trkpt>
      <trkpt lat="46.66056" lon="6.04645">
        <ele>1037.88</ele>
        <time>2013-05-09T16:05:16Z</time>
      </trkpt>
      <trkpt lat="46.66074" lon="6.04679">
        <ele>1036.92</ele>
        <time>2013-05-09T16:05:28Z</time>
      </trkpt>
      <trkpt lat="46.66096" lon="6.04713">
        <ele>1034.04</ele>
        <time>2013-05-09T16:05:39Z</time>
      </trkpt>
      <trkpt lat="46.66098" lon="6.04717">
        <ele>1033.55</ele>
        <time>2013-05-09T16:05:54Z</time>
      </trkpt>
      <trkpt lat="46.66101" lon="6.04724">
        <ele>1032.59</ele>
        <time>2013-05-09T16:06:06Z</time>
      </trkpt>
      <trkpt lat="46.66101" lon="6.04723">
        <ele>1032.59</ele>
        <time>2013-05-09T16:06:30Z</time>
      </trkpt>
      <trkpt lat="46.66101" lon="6.04724">
        <ele>1032.59</ele>
        <time>2013-05-09T16:06:58Z</time>
      </trkpt>
      <trkpt lat="46.66102" lon="6.04723">
        <ele>1033.07</ele>
        <time>2013-05-09T16:07:29Z</time>
      </trkpt>
      <trkpt lat="46.66102" lon="6.04723">
        <ele>1033.07</ele>
        <time>2013-05-09T16:07:48Z</time>
      </trkpt>
      <trkpt lat="46.6611" lon="6.04732">
        <ele>1032.11</ele>
        <time>2013-05-09T16:07:52Z</time>
      </trkpt>
      <trkpt lat="46.66125" lon="6.04759">
        <ele>1028.27</ele>
        <time>2013-05-09T16:07:58Z</time>
      </trkpt>
      <trkpt lat="46.66128" lon="6.04764">
        <ele>1027.79</ele>
        <time>2013-05-09T16:07:59Z</time>
      </trkpt>
      <trkpt lat="46.66148" lon="6.048">
        <ele>1024.42</ele>
        <time>2013-05-09T16:08:05Z</time>
      </trkpt>
      <trkpt lat="46.66153" lon="6.04808">
        <ele>1023.46</ele>
        <time>2013-05-09T16:08:06Z</time>
      </trkpt>
      <trkpt lat="46.66159" lon="6.04815">
        <ele>1022.98</ele>
        <time>2013-05-09T16:08:07Z</time>
      </trkpt>
      <trkpt lat="46.66165" lon="6.0482">
        <ele>1022.98</ele>
        <time>2013-05-09T16:08:08Z</time>
      </trkpt>
      <trkpt lat="46.66186" lon="6.04835">
        <ele>1025.86</ele>
        <time>2013-05-09T16:08:13Z</time>
      </trkpt>
      <trkpt lat="46.66205" lon="6.04869">
        <ele>1024.42</ele>
        <time>2013-05-09T16:08:21Z</time>
      </trkpt>
      <trkpt lat="46.66209" lon="6.04878">
        <ele>1023.94</ele>
        <time>2013-05-09T16:08:30Z</time>
      </trkpt>
      <trkpt lat="46.6621" lon="6.04879">
        <ele>1023.94</ele>
        <time>2013-05-09T16:08:40Z</time>
      </trkpt>
      <trkpt lat="46.66212" lon="6.0488">
        <ele>1023.94</ele>
        <time>2013-05-09T16:08:41Z</time>
      </trkpt>
      <trkpt lat="46.66213" lon="6.0488">
        <ele>1024.42</ele>
        <time>2013-05-09T16:08:42Z</time>
      </trkpt>
      <trkpt lat="46.66215" lon="6.0488">
        <ele>1024.42</ele>
        <time>2013-05-09T16:08:43Z</time>
      </trkpt>
      <trkpt lat="46.66217" lon="6.0488">
        <ele>1024.42</ele>
        <time>2013-05-09T16:08:44Z</time>
      </trkpt>
      <trkpt lat="46.66219" lon="6.0488">
        <ele>1024.9</ele>
        <time>2013-05-09T16:08:45Z</time>
      </trkpt>
      <trkpt lat="46.66237" lon="6.04902">
        <ele>1027.79</ele>
        <time>2013-05-09T16:08:57Z</time>
      </trkpt>
      <trkpt lat="46.66246" lon="6.04931">
        <ele>1030.19</ele>
        <time>2013-05-09T16:09:07Z</time>
      </trkpt>
      <trkpt lat="46.66247" lon="6.04934">
        <ele>1030.19</ele>
        <time>2013-05-09T16:09:08Z</time>
      </trkpt>
      <trkpt lat="46.66248" lon="6.04937">
        <ele>1030.67</ele>
        <time>2013-05-09T16:09:09Z</time>
      </trkpt>
      <trkpt lat="46.66249" lon="6.0494">
        <ele>1030.67</ele>
        <time>2013-05-09T16:09:10Z</time>
      </trkpt>
      <trkpt lat="46.66261" lon="6.04977">
        <ele>1033.07</ele>
        <time>2013-05-09T16:09:24Z</time>
      </trkpt>
      <trkpt lat="46.66272" lon="6.05006">
        <ele>1035.96</ele>
        <time>2013-05-09T16:09:36Z</time>
      </trkpt>
      <trkpt lat="46.66273" lon="6.05008">
        <ele>1035.96</ele>
        <time>2013-05-09T16:09:37Z</time>
      </trkpt>
      <trkpt lat="46.66274" lon="6.0501">
        <ele>1036.44</ele>
        <time>2013-05-09T16:09:38Z</time>
      </trkpt>
      <trkpt lat="46.66289" lon="6.05042">
        <ele>1039.8</ele>
        <time>2013-05-09T16:09:51Z</time>
      </trkpt>
      <trkpt lat="46.6629" lon="6.05045">
        <ele>1038.84</ele>
        <time>2013-05-09T16:09:52Z</time>
      </trkpt>
      <trkpt lat="46.66296" lon="6.05067">
        <ele>1040.76</ele>
        <time>2013-05-09T16:10:00Z</time>
      </trkpt>
      <trkpt lat="46.66296" lon="6.05069">
        <ele>1040.76</ele>
        <time>2013-05-09T16:10:01Z</time>
      </trkpt>
      <trkpt lat="46.66297" lon="6.05072">
        <ele>1040.76</ele>
        <time>2013-05-09T16:10:02Z</time>
      </trkpt>
      <trkpt lat="46.6631" lon="6.05104">
        <ele>1043.65</ele>
        <time>2013-05-09T16:10:16Z</time>
      </trkpt>
      <trkpt lat="46.66333" lon="6.05129">
        <ele>1046.53</ele>
        <time>2013-05-09T16:10:30Z</time>
      </trkpt>
      <trkpt lat="46.6634" lon="6.05135">
        <ele>1047.01</ele>
        <time>2013-05-09T16:10:34Z</time>
      </trkpt>
      <trkpt lat="46.66341" lon="6.05137">
        <ele>1047.49</ele>
        <time>2013-05-09T16:10:35Z</time>
      </trkpt>
      <trkpt lat="46.66356" lon="6.05154">
        <ele>1049.42</ele>
        <time>2013-05-09T16:10:48Z</time>
      </trkpt>
      <trkpt lat="46.66359" lon="6.05153">
        <ele>1049.9</ele>
        <time>2013-05-09T16:10:50Z</time>
      </trkpt>
      <trkpt lat="46.66381" lon="6.05147">
        <ele>1052.3</ele>
        <time>2013-05-09T16:11:01Z</time>
      </trkpt>
      <trkpt lat="46.6641" lon="6.05133">
        <ele>1054.7</ele>
        <time>2013-05-09T16:11:14Z</time>
      </trkpt>
      <trkpt lat="46.66434" lon="6.05123">
        <ele>1054.7</ele>
        <time>2013-05-09T16:11:23Z</time>
      </trkpt>
      <trkpt lat="46.66462" lon="6.05119">
        <ele>1056.15</ele>
        <time>2013-05-09T16:11:35Z</time>
      </trkpt>
      <trkpt lat="46.66505" lon="6.05111">
        <ele>1055.18</ele>
        <time>2013-05-09T16:11:47Z</time>
      </trkpt>
      <trkpt lat="46.66535" lon="6.051">
        <ele>1054.22</ele>
        <time>2013-05-09T16:11:54Z</time>
      </trkpt>
      <trkpt lat="46.66538" lon="6.05095">
        <ele>1054.22</ele>
        <time>2013-05-09T16:11:55Z</time>
      </trkpt>
      <trkpt lat="46.66593" lon="6.05014">
        <ele>1053.26</ele>
        <time>2013-05-09T16:12:09Z</time>
      </trkpt>
      <trkpt lat="46.66601" lon="6.05003">
        <ele>1053.26</ele>
        <time>2013-05-09T16:12:11Z</time>
      </trkpt>
      <trkpt lat="46.66607" lon="6.04992">
        <ele>1053.26</ele>
        <time>2013-05-09T16:12:13Z</time>
      </trkpt>
      <trkpt lat="46.6661" lon="6.04985">
        <ele>1053.74</ele>
        <time>2013-05-09T16:12:14Z</time>
      </trkpt>
      <trkpt lat="46.6662" lon="6.04969">
        <ele>1053.74</ele>
        <time>2013-05-09T16:12:17Z</time>
      </trkpt>
      <trkpt lat="46.66627" lon="6.04951">
        <ele>1054.22</ele>
        <time>2013-05-09T16:12:20Z</time>
      </trkpt>
      <trkpt lat="46.66629" lon="6.04946">
        <ele>1054.22</ele>
        <time>2013-05-09T16:12:21Z</time>
      </trkpt>
      <trkpt lat="46.66636" lon="6.04913">
        <ele>1056.15</ele>
        <time>2013-05-09T16:12:27Z</time>
      </trkpt>
      <trkpt lat="46.66645" lon="6.0484">
        <ele>1056.15</ele>
        <time>2013-05-09T16:12:39Z</time>
      </trkpt>
      <trkpt lat="46.66645" lon="6.04834">
        <ele>1056.15</ele>
        <time>2013-05-09T16:12:40Z</time>
      </trkpt>
      <trkpt lat="46.66647" lon="6.04809">
        <ele>1056.15</ele>
        <time>2013-05-09T16:12:44Z</time>
      </trkpt>
      <trkpt lat="46.66658" lon="6.04771">
        <ele>1056.63</ele>
        <time>2013-05-09T16:12:51Z</time>
      </trkpt>
      <trkpt lat="46.66661" lon="6.04766">
        <ele>1056.63</ele>
        <time>2013-05-09T16:12:52Z</time>
      </trkpt>
      <trkpt lat="46.66663" lon="6.04762">
        <ele>1056.63</ele>
        <time>2013-05-09T16:12:53Z</time>
      </trkpt>
      <trkpt lat="46.66676" lon="6.04747">
        <ele>1057.11</ele>
        <time>2013-05-09T16:12:58Z</time>
      </trkpt>
      <trkpt lat="46.66679" lon="6.04748">
        <ele>1057.59</ele>
        <time>2013-05-09T16:12:59Z</time>
      </trkpt>
      <trkpt lat="46.66681" lon="6.04749">
        <ele>1057.59</ele>
        <time>2013-05-09T16:13:00Z</time>
      </trkpt>
      <trkpt lat="46.66683" lon="6.04753">
        <ele>1057.59</ele>
        <time>2013-05-09T16:13:01Z</time>
      </trkpt>
      <trkpt lat="46.66684" lon="6.04757">
        <ele>1057.59</ele>
        <time>2013-05-09T16:13:02Z</time>
      </trkpt>
      <trkpt lat="46.66685" lon="6.04762">
        <ele>1057.59</ele>
        <time>2013-05-09T16:13:03Z</time>
      </trkpt>
      <trkpt lat="46.66688" lon="6.04778">
        <ele>1057.59</ele>
        <time>2013-05-09T16:13:07Z</time>
      </trkpt>
      <trkpt lat="46.66689" lon="6.04779">
        <ele>1058.07</ele>
        <time>2013-05-09T16:13:08Z</time>
      </trkpt>
      <trkpt lat="46.6669" lon="6.04777">
        <ele>1058.07</ele>
        <time>2013-05-09T16:13:09Z</time>
      </trkpt>
      <trkpt lat="46.6669" lon="6.04775">
        <ele>1058.55</ele>
        <time>2013-05-09T16:13:10Z</time>
      </trkpt>
      <trkpt lat="46.66691" lon="6.04773">
        <ele>1058.55</ele>
        <time>2013-05-09T16:13:24Z</time>
      </trkpt>
      <trkpt lat="46.66689" lon="6.04773">
        <ele>1058.55</ele>
        <time>2013-05-09T16:13:49Z</time>
      </trkpt>
      <trkpt lat="46.66688" lon="6.04775">
        <ele>1058.55</ele>
        <time>2013-05-09T16:13:50Z</time>
      </trkpt>
      <trkpt lat="46.66687" lon="6.04778">
        <ele>1058.55</ele>
        <time>2013-05-09T16:13:51Z</time>
      </trkpt>
      <trkpt lat="46.66686" lon="6.04814">
        <ele>1059.03</ele>
        <time>2013-05-09T16:14:02Z</time>
      </trkpt>
      <trkpt lat="46.66691" lon="6.04863">
        <ele>1060.95</ele>
        <time>2013-05-09T16:14:14Z</time>
      </trkpt>
      <trkpt lat="46.66707" lon="6.04898">
        <ele>1063.36</ele>
        <time>2013-05-09T16:14:24Z</time>
      </trkpt>
      <trkpt lat="46.6673" lon="6.04939">
        <ele>1064.32</ele>
        <time>2013-05-09T16:14:35Z</time>
      </trkpt>
      <trkpt lat="46.66736" lon="6.04948">
        <ele>1063.84</ele>
        <time>2013-05-09T16:14:37Z</time>
      </trkpt>
      <trkpt lat="46.66739" lon="6.04954">
        <ele>1062.87</ele>
        <time>2013-05-09T16:14:38Z</time>
      </trkpt>
      <trkpt lat="46.66744" lon="6.04966">
        <ele>1064.32</ele>
        <time>2013-05-09T16:14:40Z</time>
      </trkpt>
      <trkpt lat="46.6675" lon="6.04987">
        <ele>1061.91</ele>
        <time>2013-05-09T16:14:43Z</time>
      </trkpt>
      <trkpt lat="46.66771" lon="6.05079">
        <ele>1059.03</ele>
        <time>2013-05-09T16:14:54Z</time>
      </trkpt>
      <trkpt lat="46.66774" lon="6.05099">
        <ele>1058.07</ele>
        <time>2013-05-09T16:14:56Z</time>
      </trkpt>
      <trkpt lat="46.6678" lon="6.05123">
        <ele>1058.07</ele>
        <time>2013-05-09T16:14:59Z</time>
      </trkpt>
      <trkpt lat="46.66804" lon="6.05157">
        <ele>1058.07</ele>
        <time>2013-05-09T16:15:08Z</time>
      </trkpt>
      <trkpt lat="46.66805" lon="6.05162">
        <ele>1058.07</ele>
        <time>2013-05-09T16:15:10Z</time>
      </trkpt>
      <trkpt lat="46.66796" lon="6.05158">
        <ele>1058.55</ele>
        <time>2013-05-09T16:15:15Z</time>
      </trkpt>
      <trkpt lat="46.66781" lon="6.05155">
        <ele>1059.03</ele>
        <time>2013-05-09T16:15:21Z</time>
      </trkpt>
      <trkpt lat="46.66769" lon="6.05152">
        <ele>1059.03</ele>
        <time>2013-05-09T16:15:30Z</time>
      </trkpt>
      <trkpt lat="46.66762" lon="6.05156">
        <ele>1058.55</ele>
        <time>2013-05-09T16:15:36Z</time>
      </trkpt>
      <trkpt lat="46.66754" lon="6.05172">
        <ele>1058.07</ele>
        <time>2013-05-09T16:15:47Z</time>
      </trkpt>
      <trkpt lat="46.66744" lon="6.05191">
        <ele>1058.55</ele>
        <time>2013-05-09T16:15:56Z</time>
      </trkpt>
      <trkpt lat="46.66745" lon="6.05201">
        <ele>1058.55</ele>
        <time>2013-05-09T16:16:07Z</time>
      </trkpt>
      <trkpt lat="46.66744" lon="6.05203">
        <ele>1058.55</ele>
        <time>2013-05-09T16:16:08Z</time>
      </trkpt>
      <trkpt lat="46.66735" lon="6.05215">
        <ele>1059.51</ele>
        <time>2013-05-09T16:16:13Z</time>
      </trkpt>
      <trkpt lat="46.6671" lon="6.05222">
        <ele>1060.47</ele>
        <time>2013-05-09T16:16:23Z</time>
      </trkpt>
      <trkpt lat="46.66683" lon="6.05236">
        <ele>1060.47</ele>
        <time>2013-05-09T16:16:33Z</time>
      </trkpt>
      <trkpt lat="46.66654" lon="6.05253">
        <ele>1060.47</ele>
        <time>2013-05-09T16:16:43Z</time>
      </trkpt>
      <trkpt lat="46.66629" lon="6.0524">
        <ele>1061.43</ele>
        <time>2013-05-09T16:16:53Z</time>
      </trkpt>
      <trkpt lat="46.66611" lon="6.05228">
        <ele>1061.91</ele>
        <time>2013-05-09T16:17:01Z</time>
      </trkpt>
      <trkpt lat="46.6658" lon="6.05227">
        <ele>1061.43</ele>
        <time>2013-05-09T16:17:14Z</time>
      </trkpt>
      <trkpt lat="46.66573" lon="6.05223">
        <ele>1061.91</ele>
        <time>2013-05-09T16:17:23Z</time>
      </trkpt>
      <trkpt lat="46.6656" lon="6.05225">
        <ele>1060.95</ele>
        <time>2013-05-09T16:17:35Z</time>
      </trkpt>
      <trkpt lat="46.66554" lon="6.05226">
        <ele>1060.47</ele>
        <time>2013-05-09T16:17:38Z</time>
      </trkpt>
      <trkpt lat="46.66552" lon="6.05226">
        <ele>1059.99</ele>
        <time>2013-05-09T16:17:39Z</time>
      </trkpt>
      <trkpt lat="46.66528" lon="6.05213">
        <ele>1059.51</ele>
        <time>2013-05-09T16:17:47Z</time>
      </trkpt>
      <trkpt lat="46.66514" lon="6.05204">
        <ele>1058.55</ele>
        <time>2013-05-09T16:17:51Z</time>
      </trkpt>
      <trkpt lat="46.6651" lon="6.05201">
        <ele>1058.55</ele>
        <time>2013-05-09T16:17:52Z</time>
      </trkpt>
      <trkpt lat="46.66506" lon="6.05199">
        <ele>1058.07</ele>
        <time>2013-05-09T16:17:53Z</time>
      </trkpt>
      <trkpt lat="46.66502" lon="6.05196">
        <ele>1058.07</ele>
        <time>2013-05-09T16:17:54Z</time>
      </trkpt>
      <trkpt lat="46.66497" lon="6.05193">
        <ele>1057.59</ele>
        <time>2013-05-09T16:17:55Z</time>
      </trkpt>
      <trkpt lat="46.66492" lon="6.05189">
        <ele>1057.11</ele>
        <time>2013-05-09T16:17:56Z</time>
      </trkpt>
      <trkpt lat="46.66488" lon="6.05183">
        <ele>1057.11</ele>
        <time>2013-05-09T16:17:57Z</time>
      </trkpt>
      <trkpt lat="46.66484" lon="6.05177">
        <ele>1057.11</ele>
        <time>2013-05-09T16:17:58Z</time>
      </trkpt>
      <trkpt lat="46.6647" lon="6.05149">
        <ele>1057.11</ele>
        <time>2013-05-09T16:18:02Z</time>
      </trkpt>
      <trkpt lat="46.66466" lon="6.05136">
        <ele>1057.59</ele>
        <time>2013-05-09T16:18:04Z</time>
      </trkpt>
      <trkpt lat="46.66463" lon="6.05126">
        <ele>1058.07</ele>
        <time>2013-05-09T16:18:06Z</time>
      </trkpt>
      <trkpt lat="46.6646" lon="6.05122">
        <ele>1058.07</ele>
        <time>2013-05-09T16:18:07Z</time>
      </trkpt>
      <trkpt lat="46.66456" lon="6.0512">
        <ele>1058.55</ele>
        <time>2013-05-09T16:18:08Z</time>
      </trkpt>
      <trkpt lat="46.66451" lon="6.05121">
        <ele>1058.55</ele>
        <time>2013-05-09T16:18:09Z</time>
      </trkpt>
      <trkpt lat="46.66447" lon="6.05122">
        <ele>1058.07</ele>
        <time>2013-05-09T16:18:10Z</time>
      </trkpt>
      <trkpt lat="46.66443" lon="6.05123">
        <ele>1058.07</ele>
        <time>2013-05-09T16:18:11Z</time>
      </trkpt>
      <trkpt lat="46.66438" lon="6.05125">
        <ele>1057.59</ele>
        <time>2013-05-09T16:18:12Z</time>
      </trkpt>
      <trkpt lat="46.66433" lon="6.05126">
        <ele>1057.11</ele>
        <time>2013-05-09T16:18:13Z</time>
      </trkpt>
      <trkpt lat="46.66394" lon="6.05144">
        <ele>1056.15</ele>
        <time>2013-05-09T16:18:22Z</time>
      </trkpt>
      <trkpt lat="46.66383" lon="6.05163">
        <ele>1057.59</ele>
        <time>2013-05-09T16:18:28Z</time>
      </trkpt>
      <trkpt lat="46.66384" lon="6.05166">
        <ele>1058.07</ele>
        <time>2013-05-09T16:18:29Z</time>
      </trkpt>
      <trkpt lat="46.66384" lon="6.05169">
        <ele>1058.07</ele>
        <time>2013-05-09T16:18:30Z</time>
      </trkpt>
      <trkpt lat="46.66392" lon="6.05197">
        <ele>1059.99</ele>
        <time>2013-05-09T16:18:42Z</time>
      </trkpt>
      <trkpt lat="46.66392" lon="6.05207">
        <ele>1059.51</ele>
        <time>2013-05-09T16:18:55Z</time>
      </trkpt>
      <trkpt lat="46.66392" lon="6.05209">
        <ele>1059.51</ele>
        <time>2013-05-09T16:18:57Z</time>
      </trkpt>
      <trkpt lat="46.66392" lon="6.05211">
        <ele>1059.03</ele>
        <time>2013-05-09T16:18:58Z</time>
      </trkpt>
      <trkpt lat="46.6639" lon="6.05216">
        <ele>1055.67</ele>
        <time>2013-05-09T16:19:05Z</time>
      </trkpt>
      <trkpt lat="46.66388" lon="6.05219">
        <ele>1054.22</ele>
        <time>2013-05-09T16:19:06Z</time>
      </trkpt>
      <trkpt lat="46.66385" lon="6.05223">
        <ele>1053.74</ele>
        <time>2013-05-09T16:19:07Z</time>
      </trkpt>
      <trkpt lat="46.66382" lon="6.05228">
        <ele>1052.78</ele>
        <time>2013-05-09T16:19:08Z</time>
      </trkpt>
      <trkpt lat="46.6638" lon="6.05234">
        <ele>1052.3</ele>
        <time>2013-05-09T16:19:09Z</time>
      </trkpt>
      <trkpt lat="46.66379" lon="6.05239">
        <ele>1052.78</ele>
        <time>2013-05-09T16:19:10Z</time>
      </trkpt>
      <trkpt lat="46.66377" lon="6.05245">
        <ele>1052.78</ele>
        <time>2013-05-09T16:19:11Z</time>
      </trkpt>
      <trkpt lat="46.66363" lon="6.05294">
        <ele>1049.9</ele>
        <time>2013-05-09T16:19:20Z</time>
      </trkpt>
      <trkpt lat="46.66374" lon="6.05336">
        <ele>1050.86</ele>
        <time>2013-05-09T16:19:30Z</time>
      </trkpt>
      <trkpt lat="46.66377" lon="6.05379">
        <ele>1050.86</ele>
        <time>2013-05-09T16:19:40Z</time>
      </trkpt>
      <trkpt lat="46.66369" lon="6.05423">
        <ele>1050.38</ele>
        <time>2013-05-09T16:19:50Z</time>
      </trkpt>
      <trkpt lat="46.66378" lon="6.05455">
        <ele>1047.01</ele>
        <time>2013-05-09T16:19:56Z</time>
      </trkpt>
      <trkpt lat="46.6638" lon="6.05462">
        <ele>1047.01</ele>
        <time>2013-05-09T16:19:57Z</time>
      </trkpt>
      <trkpt lat="46.66386" lon="6.05483">
        <ele>1046.53</ele>
        <time>2013-05-09T16:20:00Z</time>
      </trkpt>
      <trkpt lat="46.66397" lon="6.05508">
        <ele>1047.97</ele>
        <time>2013-05-09T16:20:06Z</time>
      </trkpt>
      <trkpt lat="46.6639" lon="6.05546">
        <ele>1048.45</ele>
        <time>2013-05-09T16:20:18Z</time>
      </trkpt>
      <trkpt lat="46.66389" lon="6.0557">
        <ele>1046.53</ele>
        <time>2013-05-09T16:20:23Z</time>
      </trkpt>
      <trkpt lat="46.66401" lon="6.05621">
        <ele>1045.57</ele>
        <time>2013-05-09T16:20:34Z</time>
      </trkpt>
      <trkpt lat="46.66417" lon="6.05666">
        <ele>1047.97</ele>
        <time>2013-05-09T16:20:45Z</time>
      </trkpt>
      <trkpt lat="46.66435" lon="6.05713">
        <ele>1049.42</ele>
        <time>2013-05-09T16:20:54Z</time>
      </trkpt>
      <trkpt lat="46.66452" lon="6.0576">
        <ele>1045.57</ele>
        <time>2013-05-09T16:21:01Z</time>
      </trkpt>
      <trkpt lat="46.66454" lon="6.05768">
        <ele>1045.09</ele>
        <time>2013-05-09T16:21:02Z</time>
      </trkpt>
      <trkpt lat="46.66455" lon="6.05775">
        <ele>1045.57</ele>
        <time>2013-05-09T16:21:03Z</time>
      </trkpt>
      <trkpt lat="46.66456" lon="6.05781">
        <ele>1046.05</ele>
        <time>2013-05-09T16:21:04Z</time>
      </trkpt>
      <trkpt lat="46.66456" lon="6.05786">
        <ele>1046.53</ele>
        <time>2013-05-09T16:21:05Z</time>
      </trkpt>
      <trkpt lat="46.66452" lon="6.05808">
        <ele>1044.61</ele>
        <time>2013-05-09T16:21:15Z</time>
      </trkpt>
      <trkpt lat="46.66452" lon="6.05808">
        <ele>1044.13</ele>
        <time>2013-05-09T16:21:35Z</time>
      </trkpt>
      <trkpt lat="46.66453" lon="6.05817">
        <ele>1043.65</ele>
        <time>2013-05-09T16:21:55Z</time>
      </trkpt>
      <trkpt lat="46.66454" lon="6.05842">
        <ele>1040.76</ele>
        <time>2013-05-09T16:21:59Z</time>
      </trkpt>
      <trkpt lat="46.66453" lon="6.05849">
        <ele>1038.84</ele>
        <time>2013-05-09T16:22:00Z</time>
      </trkpt>
      <trkpt lat="46.66453" lon="6.05856">
        <ele>1038.84</ele>
        <time>2013-05-09T16:22:01Z</time>
      </trkpt>
      <trkpt lat="46.66452" lon="6.0587">
        <ele>1035.96</ele>
        <time>2013-05-09T16:22:03Z</time>
      </trkpt>
      <trkpt lat="46.66452" lon="6.05876">
        <ele>1034.52</ele>
        <time>2013-05-09T16:22:04Z</time>
      </trkpt>
      <trkpt lat="46.66452" lon="6.05882">
        <ele>1034.04</ele>
        <time>2013-05-09T16:22:05Z</time>
      </trkpt>
      <trkpt lat="46.6645" lon="6.05906">
        <ele>1029.71</ele>
        <time>2013-05-09T16:22:10Z</time>
      </trkpt>
      <trkpt lat="46.6645" lon="6.05922">
        <ele>1026.34</ele>
        <time>2013-05-09T16:22:14Z</time>
      </trkpt>
      <trkpt lat="46.6645" lon="6.05925">
        <ele>1025.38</ele>
        <time>2013-05-09T16:22:15Z</time>
      </trkpt>
      <trkpt lat="46.6645" lon="6.05928">
        <ele>1024.42</ele>
        <time>2013-05-09T16:22:16Z</time>
      </trkpt>
      <trkpt lat="46.66451" lon="6.05938">
        <ele>1022.02</ele>
        <time>2013-05-09T16:22:19Z</time>
      </trkpt>
      <trkpt lat="46.66456" lon="6.05956">
        <ele>1018.17</ele>
        <time>2013-05-09T16:22:24Z</time>
      </trkpt>
      <trkpt lat="46.66458" lon="6.05971">
        <ele>1014.81</ele>
        <time>2013-05-09T16:22:28Z</time>
      </trkpt>
      <trkpt lat="46.66461" lon="6.05988">
        <ele>1011.93</ele>
        <time>2013-05-09T16:22:31Z</time>
      </trkpt>
      <trkpt lat="46.66462" lon="6.05994">
        <ele>1010.96</ele>
        <time>2013-05-09T16:22:32Z</time>
      </trkpt>
      <trkpt lat="46.66464" lon="6.06">
        <ele>1010.48</ele>
        <time>2013-05-09T16:22:33Z</time>
      </trkpt>
      <trkpt lat="46.66471" lon="6.0603">
        <ele>1006.64</ele>
        <time>2013-05-09T16:22:38Z</time>
      </trkpt>
      <trkpt lat="46.66473" lon="6.06037">
        <ele>1006.16</ele>
        <time>2013-05-09T16:22:39Z</time>
      </trkpt>
      <trkpt lat="46.66477" lon="6.06055">
        <ele>1004.23</ele>
        <time>2013-05-09T16:22:42Z</time>
      </trkpt>
      <trkpt lat="46.66479" lon="6.0606">
        <ele>1003.75</ele>
        <time>2013-05-09T16:22:43Z</time>
      </trkpt>
      <trkpt lat="46.66481" lon="6.06066">
        <ele>1003.27</ele>
        <time>2013-05-09T16:22:44Z</time>
      </trkpt>
      <trkpt lat="46.66483" lon="6.06072">
        <ele>1002.79</ele>
        <time>2013-05-09T16:22:45Z</time>
      </trkpt>
      <trkpt lat="46.66491" lon="6.06099">
        <ele>999.91</ele>
        <time>2013-05-09T16:22:50Z</time>
      </trkpt>
      <trkpt lat="46.66491" lon="6.06101">
        <ele>999.43</ele>
        <time>2013-05-09T16:22:51Z</time>
      </trkpt>
      <trkpt lat="46.6649" lon="6.06102">
        <ele>999.43</ele>
        <time>2013-05-09T16:22:59Z</time>
      </trkpt>
      <trkpt lat="46.66489" lon="6.06101">
        <ele>999.43</ele>
        <time>2013-05-09T16:23:00Z</time>
      </trkpt>
      <trkpt lat="46.66487" lon="6.06102">
        <ele>999.43</ele>
        <time>2013-05-09T16:23:12Z</time>
      </trkpt>
      <trkpt lat="46.66486" lon="6.06103">
        <ele>998.95</ele>
        <time>2013-05-09T16:23:53Z</time>
      </trkpt>
      <trkpt lat="46.66483" lon="6.06107">
        <ele>998.47</ele>
        <time>2013-05-09T16:23:56Z</time>
      </trkpt>
      <trkpt lat="46.66477" lon="6.06114">
        <ele>996.54</ele>
        <time>2013-05-09T16:24:07Z</time>
      </trkpt>
      <trkpt lat="46.66477" lon="6.06114">
        <ele>996.54</ele>
        <time>2013-05-09T16:24:24Z</time>
      </trkpt>
      <trkpt lat="46.66482" lon="6.06127">
        <ele>995.1</ele>
        <time>2013-05-09T16:24:29Z</time>
      </trkpt>
      <trkpt lat="46.66484" lon="6.06132">
        <ele>994.14</ele>
        <time>2013-05-09T16:24:31Z</time>
      </trkpt>
      <trkpt lat="46.66489" lon="6.06147">
        <ele>992.7</ele>
        <time>2013-05-09T16:24:38Z</time>
      </trkpt>
      <trkpt lat="46.66497" lon="6.06176">
        <ele>988.85</ele>
        <time>2013-05-09T16:24:48Z</time>
      </trkpt>
      <trkpt lat="46.66503" lon="6.06194">
        <ele>985.49</ele>
        <time>2013-05-09T16:24:54Z</time>
      </trkpt>
      <trkpt lat="46.66509" lon="6.06212">
        <ele>982.12</ele>
        <time>2013-05-09T16:24:59Z</time>
      </trkpt>
      <trkpt lat="46.66515" lon="6.0623">
        <ele>978.76</ele>
        <time>2013-05-09T16:25:04Z</time>
      </trkpt>
      <trkpt lat="46.6652" lon="6.06253">
        <ele>975.39</ele>
        <time>2013-05-09T16:25:10Z</time>
      </trkpt>
      <trkpt lat="46.66522" lon="6.06269">
        <ele>972.51</ele>
        <time>2013-05-09T16:25:20Z</time>
      </trkpt>
      <trkpt lat="46.66521" lon="6.06275">
        <ele>971.55</ele>
        <time>2013-05-09T16:25:32Z</time>
      </trkpt>
      <trkpt lat="46.66519" lon="6.06274">
        <ele>970.59</ele>
        <time>2013-05-09T16:25:45Z</time>
      </trkpt>
      <trkpt lat="46.66521" lon="6.06276">
        <ele>970.59</ele>
        <time>2013-05-09T16:26:03Z</time>
      </trkpt>
      <trkpt lat="46.66536" lon="6.06284">
        <ele>972.03</ele>
        <time>2013-05-09T16:26:14Z</time>
      </trkpt>
      <trkpt lat="46.66542" lon="6.06288">
        <ele>972.99</ele>
        <time>2013-05-09T16:26:18Z</time>
      </trkpt>
      <trkpt lat="46.66552" lon="6.06297">
        <ele>975.88</ele>
        <time>2013-05-09T16:26:27Z</time>
      </trkpt>
      <trkpt lat="46.6656" lon="6.06315">
        <ele>978.28</ele>
        <time>2013-05-09T16:26:41Z</time>
      </trkpt>
      <trkpt lat="46.66562" lon="6.06317">
        <ele>978.76</ele>
        <time>2013-05-09T16:26:43Z</time>
      </trkpt>
      <trkpt lat="46.66563" lon="6.0632">
        <ele>979.24</ele>
        <time>2013-05-09T16:26:45Z</time>
      </trkpt>
      <trkpt lat="46.66566" lon="6.06325">
        <ele>979.72</ele>
        <time>2013-05-09T16:26:48Z</time>
      </trkpt>
      <trkpt lat="46.66571" lon="6.06338">
        <ele>982.6</ele>
        <time>2013-05-09T16:26:59Z</time>
      </trkpt>
      <trkpt lat="46.66577" lon="6.06354">
        <ele>985.49</ele>
        <time>2013-05-09T16:27:13Z</time>
      </trkpt>
      <trkpt lat="46.66581" lon="6.06365">
        <ele>986.93</ele>
        <time>2013-05-09T16:27:22Z</time>
      </trkpt>
      <trkpt lat="46.66584" lon="6.06375">
        <ele>988.37</ele>
        <time>2013-05-09T16:27:31Z</time>
      </trkpt>
      <trkpt lat="46.66593" lon="6.06394">
        <ele>989.81</ele>
        <time>2013-05-09T16:27:42Z</time>
      </trkpt>
      <trkpt lat="46.66601" lon="6.0641">
        <ele>992.22</ele>
        <time>2013-05-09T16:27:51Z</time>
      </trkpt>
      <trkpt lat="46.66609" lon="6.06433">
        <ele>994.62</ele>
        <time>2013-05-09T16:28:04Z</time>
      </trkpt>
      <trkpt lat="46.66611" lon="6.06436">
        <ele>995.1</ele>
        <time>2013-05-09T16:28:06Z</time>
      </trkpt>
      <trkpt lat="46.66618" lon="6.06452">
        <ele>996.54</ele>
        <time>2013-05-09T16:28:15Z</time>
      </trkpt>
      <trkpt lat="46.66627" lon="6.06476">
        <ele>999.43</ele>
        <time>2013-05-09T16:28:30Z</time>
      </trkpt>
      <trkpt lat="46.66631" lon="6.0649">
        <ele>1000.87</ele>
        <time>2013-05-09T16:28:38Z</time>
      </trkpt>
      <trkpt lat="46.66635" lon="6.06502">
        <ele>1002.31</ele>
        <time>2013-05-09T16:28:45Z</time>
      </trkpt>
      <trkpt lat="46.66637" lon="6.06509">
        <ele>1003.27</ele>
        <time>2013-05-09T16:28:49Z</time>
      </trkpt>
      <trkpt lat="46.66647" lon="6.06535">
        <ele>1006.16</ele>
        <time>2013-05-09T16:29:03Z</time>
      </trkpt>
      <trkpt lat="46.6666" lon="6.06572">
        <ele>1007.6</ele>
        <time>2013-05-09T16:29:17Z</time>
      </trkpt>
      <trkpt lat="46.66666" lon="6.06587">
        <ele>1008.56</ele>
        <time>2013-05-09T16:29:23Z</time>
      </trkpt>
      <trkpt lat="46.66676" lon="6.06628">
        <ele>1010.96</ele>
        <time>2013-05-09T16:29:38Z</time>
      </trkpt>
      <trkpt lat="46.66689" lon="6.06663">
        <ele>1011.44</ele>
        <time>2013-05-09T16:29:50Z</time>
      </trkpt>
      <trkpt lat="46.66704" lon="6.06699">
        <ele>1013.85</ele>
        <time>2013-05-09T16:30:04Z</time>
      </trkpt>
      <trkpt lat="46.66706" lon="6.06703">
        <ele>1013.85</ele>
        <time>2013-05-09T16:30:06Z</time>
      </trkpt>
      <trkpt lat="46.66715" lon="6.06727">
        <ele>1015.29</ele>
        <time>2013-05-09T16:30:17Z</time>
      </trkpt>
      <trkpt lat="46.66719" lon="6.06735">
        <ele>1016.25</ele>
        <time>2013-05-09T16:30:21Z</time>
      </trkpt>
      <trkpt lat="46.66731" lon="6.06769">
        <ele>1016.73</ele>
        <time>2013-05-09T16:30:34Z</time>
      </trkpt>
      <trkpt lat="46.66744" lon="6.06791">
        <ele>1017.21</ele>
        <time>2013-05-09T16:30:42Z</time>
      </trkpt>
      <trkpt lat="46.66749" lon="6.06805">
        <ele>1018.65</ele>
        <time>2013-05-09T16:30:48Z</time>
      </trkpt>
      <trkpt lat="46.66757" lon="6.0683">
        <ele>1018.17</ele>
        <time>2013-05-09T16:30:57Z</time>
      </trkpt>
      <trkpt lat="46.66768" lon="6.06864">
        <ele>1017.69</ele>
        <time>2013-05-09T16:31:07Z</time>
      </trkpt>
      <trkpt lat="46.66768" lon="6.0687">
        <ele>1017.69</ele>
        <time>2013-05-09T16:31:10Z</time>
      </trkpt>
      <trkpt lat="46.66777" lon="6.06895">
        <ele>1018.17</ele>
        <time>2013-05-09T16:31:19Z</time>
      </trkpt>
      <trkpt lat="46.66779" lon="6.0691">
        <ele>1017.69</ele>
        <time>2013-05-09T16:31:25Z</time>
      </trkpt>
      <trkpt lat="46.66788" lon="6.06924">
        <ele>1018.17</ele>
        <time>2013-05-09T16:31:32Z</time>
      </trkpt>
      <trkpt lat="46.66809" lon="6.06948">
        <ele>1019.62</ele>
        <time>2013-05-09T16:31:42Z</time>
      </trkpt>
      <trkpt lat="46.66826" lon="6.06953">
        <ele>1021.54</ele>
        <time>2013-05-09T16:31:50Z</time>
      </trkpt>
      <trkpt lat="46.66846" lon="6.06955">
        <ele>1022.5</ele>
        <time>2013-05-09T16:32:02Z</time>
      </trkpt>
      <trkpt lat="46.66866" lon="6.06965">
        <ele>1023.46</ele>
        <time>2013-05-09T16:32:15Z</time>
      </trkpt>
      <trkpt lat="46.66868" lon="6.06965">
        <ele>1023.46</ele>
        <time>2013-05-09T16:32:16Z</time>
      </trkpt>
      <trkpt lat="46.66881" lon="6.06961">
        <ele>1024.42</ele>
        <time>2013-05-09T16:32:23Z</time>
      </trkpt>
      <trkpt lat="46.669" lon="6.06955">
        <ele>1025.86</ele>
        <time>2013-05-09T16:32:34Z</time>
      </trkpt>
      <trkpt lat="46.66903" lon="6.06955">
        <ele>1025.86</ele>
        <time>2013-05-09T16:32:36Z</time>
      </trkpt>
      <trkpt lat="46.66913" lon="6.06955">
        <ele>1025.86</ele>
        <time>2013-05-09T16:32:42Z</time>
      </trkpt>
      <trkpt lat="46.66921" lon="6.0696">
        <ele>1026.83</ele>
        <time>2013-05-09T16:32:46Z</time>
      </trkpt>
      <trkpt lat="46.66939" lon="6.06971">
        <ele>1028.27</ele>
        <time>2013-05-09T16:32:57Z</time>
      </trkpt>
      <trkpt lat="46.66941" lon="6.06973">
        <ele>1028.27</ele>
        <time>2013-05-09T16:32:59Z</time>
      </trkpt>
      <trkpt lat="46.66948" lon="6.06985">
        <ele>1028.27</ele>
        <time>2013-05-09T16:33:03Z</time>
      </trkpt>
      <trkpt lat="46.66952" lon="6.06995">
        <ele>1028.27</ele>
        <time>2013-05-09T16:33:06Z</time>
      </trkpt>
      <trkpt lat="46.66954" lon="6.07001">
        <ele>1028.75</ele>
        <time>2013-05-09T16:33:08Z</time>
      </trkpt>
      <trkpt lat="46.66965" lon="6.07021">
        <ele>1032.11</ele>
        <time>2013-05-09T16:33:18Z</time>
      </trkpt>
      <trkpt lat="46.66968" lon="6.07028">
        <ele>1032.59</ele>
        <time>2013-05-09T16:33:21Z</time>
      </trkpt>
      <trkpt lat="46.66977" lon="6.07051">
        <ele>1035</ele>
        <time>2013-05-09T16:33:33Z</time>
      </trkpt>
      <trkpt lat="46.66984" lon="6.07064">
        <ele>1035.96</ele>
        <time>2013-05-09T16:33:41Z</time>
      </trkpt>
      <trkpt lat="46.66992" lon="6.07085">
        <ele>1037.88</ele>
        <time>2013-05-09T16:33:53Z</time>
      </trkpt>
      <trkpt lat="46.66997" lon="6.07103">
        <ele>1038.84</ele>
        <time>2013-05-09T16:34:01Z</time>
      </trkpt>
      <trkpt lat="46.66999" lon="6.07122">
        <ele>1040.28</ele>
        <time>2013-05-09T16:34:08Z</time>
      </trkpt>
      <trkpt lat="46.67001" lon="6.07151">
        <ele>1040.76</ele>
        <time>2013-05-09T16:34:18Z</time>
      </trkpt>
      <trkpt lat="46.67015" lon="6.07182">
        <ele>1041.73</ele>
        <time>2013-05-09T16:34:30Z</time>
      </trkpt>
      <trkpt lat="46.6703" lon="6.07219">
        <ele>1040.28</ele>
        <time>2013-05-09T16:34:40Z</time>
      </trkpt>
      <trkpt lat="46.67043" lon="6.07255">
        <ele>1036.92</ele>
        <time>2013-05-09T16:34:46Z</time>
      </trkpt>
      <trkpt lat="46.67051" lon="6.07279">
        <ele>1035</ele>
        <time>2013-05-09T16:34:50Z</time>
      </trkpt>
      <trkpt lat="46.67055" lon="6.0729">
        <ele>1032.59</ele>
        <time>2013-05-09T16:34:52Z</time>
      </trkpt>
      <trkpt lat="46.6706" lon="6.07309">
        <ele>1030.67</ele>
        <time>2013-05-09T16:34:55Z</time>
      </trkpt>
      <trkpt lat="46.67061" lon="6.07315">
        <ele>1030.67</ele>
        <time>2013-05-09T16:34:56Z</time>
      </trkpt>
      <trkpt lat="46.67064" lon="6.07321">
        <ele>1030.19</ele>
        <time>2013-05-09T16:34:57Z</time>
      </trkpt>
      <trkpt lat="46.67066" lon="6.07326">
        <ele>1029.71</ele>
        <time>2013-05-09T16:34:58Z</time>
      </trkpt>
      <trkpt lat="46.67068" lon="6.07332">
        <ele>1029.71</ele>
        <time>2013-05-09T16:34:59Z</time>
      </trkpt>
      <trkpt lat="46.6707" lon="6.07338">
        <ele>1029.71</ele>
        <time>2013-05-09T16:35:00Z</time>
      </trkpt>
      <trkpt lat="46.67079" lon="6.07365">
        <ele>1028.27</ele>
        <time>2013-05-09T16:35:04Z</time>
      </trkpt>
      <trkpt lat="46.67081" lon="6.07372">
        <ele>1027.79</ele>
        <time>2013-05-09T16:35:05Z</time>
      </trkpt>
      <trkpt lat="46.67083" lon="6.07377">
        <ele>1027.79</ele>
        <time>2013-05-09T16:35:06Z</time>
      </trkpt>
      <trkpt lat="46.67085" lon="6.07382">
        <ele>1027.31</ele>
        <time>2013-05-09T16:35:07Z</time>
      </trkpt>
      <trkpt lat="46.67087" lon="6.07386">
        <ele>1027.31</ele>
        <time>2013-05-09T16:35:08Z</time>
      </trkpt>
      <trkpt lat="46.67089" lon="6.0739">
        <ele>1027.31</ele>
        <time>2013-05-09T16:35:09Z</time>
      </trkpt>
      <trkpt lat="46.671" lon="6.07401">
        <ele>1027.31</ele>
        <time>2013-05-09T16:35:14Z</time>
      </trkpt>
      <trkpt lat="46.67102" lon="6.07402">
        <ele>1027.31</ele>
        <time>2013-05-09T16:35:15Z</time>
      </trkpt>
      <trkpt lat="46.67105" lon="6.07405">
        <ele>1027.31</ele>
        <time>2013-05-09T16:35:16Z</time>
      </trkpt>
      <trkpt lat="46.67107" lon="6.07407">
        <ele>1027.31</ele>
        <time>2013-05-09T16:35:17Z</time>
      </trkpt>
      <trkpt lat="46.6711" lon="6.07409">
        <ele>1027.31</ele>
        <time>2013-05-09T16:35:18Z</time>
      </trkpt>
      <trkpt lat="46.67113" lon="6.07411">
        <ele>1027.31</ele>
        <time>2013-05-09T16:35:19Z</time>
      </trkpt>
      <trkpt lat="46.67123" lon="6.07416">
        <ele>1023.94</ele>
        <time>2013-05-09T16:35:23Z</time>
      </trkpt>
      <trkpt lat="46.67125" lon="6.07418">
        <ele>1029.23</ele>
        <time>2013-05-09T16:35:24Z</time>
      </trkpt>
      <trkpt lat="46.67146" lon="6.07438">
        <ele>1028.75</ele>
        <time>2013-05-09T16:35:35Z</time>
      </trkpt>
      <trkpt lat="46.67164" lon="6.07464">
        <ele>1030.19</ele>
        <time>2013-05-09T16:35:45Z</time>
      </trkpt>
      <trkpt lat="46.67167" lon="6.07469">
        <ele>1030.19</ele>
        <time>2013-05-09T16:35:47Z</time>
      </trkpt>
      <trkpt lat="46.67184" lon="6.0749">
        <ele>1031.15</ele>
        <time>2013-05-09T16:35:56Z</time>
      </trkpt>
      <trkpt lat="46.67186" lon="6.07494">
        <ele>1031.15</ele>
        <time>2013-05-09T16:35:57Z</time>
      </trkpt>
      <trkpt lat="46.67187" lon="6.07497">
        <ele>1031.15</ele>
        <time>2013-05-09T16:35:58Z</time>
      </trkpt>
      <trkpt lat="46.67188" lon="6.07499">
        <ele>1031.63</ele>
        <time>2013-05-09T16:35:59Z</time>
      </trkpt>
      <trkpt lat="46.67189" lon="6.07503">
        <ele>1031.63</ele>
        <time>2013-05-09T16:36:00Z</time>
      </trkpt>
      <trkpt lat="46.6719" lon="6.07506">
        <ele>1031.63</ele>
        <time>2013-05-09T16:36:01Z</time>
      </trkpt>
      <trkpt lat="46.67191" lon="6.07509">
        <ele>1031.63</ele>
        <time>2013-05-09T16:36:02Z</time>
      </trkpt>
      <trkpt lat="46.67193" lon="6.07514">
        <ele>1032.11</ele>
        <time>2013-05-09T16:36:04Z</time>
      </trkpt>
      <trkpt lat="46.6721" lon="6.07543">
        <ele>1033.55</ele>
        <time>2013-05-09T16:36:17Z</time>
      </trkpt>
      <trkpt lat="46.67229" lon="6.07564">
        <ele>1035</ele>
        <time>2013-05-09T16:36:30Z</time>
      </trkpt>
      <trkpt lat="46.67262" lon="6.07595">
        <ele>1035.96</ele>
        <time>2013-05-09T16:36:43Z</time>
      </trkpt>
      <trkpt lat="46.67271" lon="6.07604">
        <ele>1035.96</ele>
        <time>2013-05-09T16:36:53Z</time>
      </trkpt>
      <trkpt lat="46.6727" lon="6.07612">
        <ele>1036.92</ele>
        <time>2013-05-09T16:37:05Z</time>
      </trkpt>
      <trkpt lat="46.67273" lon="6.07621">
        <ele>1037.4</ele>
        <time>2013-05-09T16:37:16Z</time>
      </trkpt>
      <trkpt lat="46.67275" lon="6.0763">
        <ele>1036.44</ele>
        <time>2013-05-09T16:37:29Z</time>
      </trkpt>
      <trkpt lat="46.67285" lon="6.07641">
        <ele>1036.92</ele>
        <time>2013-05-09T16:37:39Z</time>
      </trkpt>
      <trkpt lat="46.67287" lon="6.07643">
        <ele>1036.92</ele>
        <time>2013-05-09T16:37:40Z</time>
      </trkpt>
      <trkpt lat="46.67288" lon="6.07645">
        <ele>1036.92</ele>
        <time>2013-05-09T16:37:41Z</time>
      </trkpt>
      <trkpt lat="46.6729" lon="6.07648">
        <ele>1037.4</ele>
        <time>2013-05-09T16:37:43Z</time>
      </trkpt>
      <trkpt lat="46.67291" lon="6.07651">
        <ele>1037.88</ele>
        <time>2013-05-09T16:37:44Z</time>
      </trkpt>
      <trkpt lat="46.67293" lon="6.07653">
        <ele>1037.88</ele>
        <time>2013-05-09T16:37:45Z</time>
      </trkpt>
      <trkpt lat="46.6731" lon="6.07675">
        <ele>1040.76</ele>
        <time>2013-05-09T16:37:56Z</time>
      </trkpt>
      <trkpt lat="46.67328" lon="6.07705">
        <ele>1041.73</ele>
        <time>2013-05-09T16:38:07Z</time>
      </trkpt>
      <trkpt lat="46.67345" lon="6.07731">
        <ele>1043.65</ele>
        <time>2013-05-09T16:38:18Z</time>
      </trkpt>
      <trkpt lat="46.67358" lon="6.0776">
        <ele>1043.17</ele>
        <time>2013-05-09T16:38:29Z</time>
      </trkpt>
      <trkpt lat="46.67365" lon="6.07767">
        <ele>1043.65</ele>
        <time>2013-05-09T16:38:33Z</time>
      </trkpt>
      <trkpt lat="46.67366" lon="6.07767">
        <ele>1043.65</ele>
        <time>2013-05-09T16:38:34Z</time>
      </trkpt>
      <trkpt lat="46.67367" lon="6.07768">
        <ele>1043.65</ele>
        <time>2013-05-09T16:38:35Z</time>
      </trkpt>
      <trkpt lat="46.67369" lon="6.07769">
        <ele>1044.13</ele>
        <time>2013-05-09T16:38:36Z</time>
      </trkpt>
      <trkpt lat="46.67371" lon="6.0777">
        <ele>1044.13</ele>
        <time>2013-05-09T16:38:37Z</time>
      </trkpt>
      <trkpt lat="46.67396" lon="6.07776">
        <ele>1043.65</ele>
        <time>2013-05-09T16:38:48Z</time>
      </trkpt>
      <trkpt lat="46.67401" lon="6.07778">
        <ele>1044.13</ele>
        <time>2013-05-09T16:38:50Z</time>
      </trkpt>
      <trkpt lat="46.67411" lon="6.07792">
        <ele>1045.09</ele>
        <time>2013-05-09T16:38:58Z</time>
      </trkpt>
      <trkpt lat="46.67411" lon="6.07795">
        <ele>1045.09</ele>
        <time>2013-05-09T16:38:59Z</time>
      </trkpt>
      <trkpt lat="46.6741" lon="6.07797">
        <ele>1045.09</ele>
        <time>2013-05-09T16:39:00Z</time>
      </trkpt>
      <trkpt lat="46.67383" lon="6.07831">
        <ele>1044.61</ele>
        <time>2013-05-09T16:39:14Z</time>
      </trkpt>
      <trkpt lat="46.67377" lon="6.07835">
        <ele>1044.61</ele>
        <time>2013-05-09T16:39:16Z</time>
      </trkpt>
      <trkpt lat="46.67357" lon="6.07875">
        <ele>1043.17</ele>
        <time>2013-05-09T16:39:28Z</time>
      </trkpt>
      <trkpt lat="46.6734" lon="6.07921">
        <ele>1043.17</ele>
        <time>2013-05-09T16:39:40Z</time>
      </trkpt>
      <trkpt lat="46.67325" lon="6.07969">
        <ele>1041.25</ele>
        <time>2013-05-09T16:39:49Z</time>
      </trkpt>
      <trkpt lat="46.67323" lon="6.07981">
        <ele>1041.25</ele>
        <time>2013-05-09T16:39:51Z</time>
      </trkpt>
      <trkpt lat="46.67311" lon="6.08034">
        <ele>1039.8</ele>
        <time>2013-05-09T16:40:03Z</time>
      </trkpt>
      <trkpt lat="46.67316" lon="6.08075">
        <ele>1037.88</ele>
        <time>2013-05-09T16:40:11Z</time>
      </trkpt>
      <trkpt lat="46.67318" lon="6.08081">
        <ele>1037.4</ele>
        <time>2013-05-09T16:40:12Z</time>
      </trkpt>
      <trkpt lat="46.67321" lon="6.08087">
        <ele>1036.92</ele>
        <time>2013-05-09T16:40:13Z</time>
      </trkpt>
      <trkpt lat="46.67328" lon="6.08106">
        <ele>1035.96</ele>
        <time>2013-05-09T16:40:16Z</time>
      </trkpt>
      <trkpt lat="46.6733" lon="6.08112">
        <ele>1035.96</ele>
        <time>2013-05-09T16:40:17Z</time>
      </trkpt>
      <trkpt lat="46.67334" lon="6.08123">
        <ele>1035.48</ele>
        <time>2013-05-09T16:40:19Z</time>
      </trkpt>
      <trkpt lat="46.67336" lon="6.08128">
        <ele>1035.48</ele>
        <time>2013-05-09T16:40:20Z</time>
      </trkpt>
      <trkpt lat="46.67336" lon="6.08134">
        <ele>1035</ele>
        <time>2013-05-09T16:40:21Z</time>
      </trkpt>
      <trkpt lat="46.67336" lon="6.0814">
        <ele>1035.48</ele>
        <time>2013-05-09T16:40:22Z</time>
      </trkpt>
      <trkpt lat="46.67335" lon="6.08145">
        <ele>1035</ele>
        <time>2013-05-09T16:40:23Z</time>
      </trkpt>
      <trkpt lat="46.67327" lon="6.08183">
        <ele>1034.52</ele>
        <time>2013-05-09T16:40:33Z</time>
      </trkpt>
      <trkpt lat="46.6733" lon="6.08188">
        <ele>1034.52</ele>
        <time>2013-05-09T16:40:37Z</time>
      </trkpt>
      <trkpt lat="46.67331" lon="6.08187">
        <ele>1034.52</ele>
        <time>2013-05-09T16:40:38Z</time>
      </trkpt>
      <trkpt lat="46.67331" lon="6.08184">
        <ele>1034.52</ele>
        <time>2013-05-09T16:40:39Z</time>
      </trkpt>
      <trkpt lat="46.6733" lon="6.08182">
        <ele>1034.52</ele>
        <time>2013-05-09T16:40:40Z</time>
      </trkpt>
      <trkpt lat="46.67329" lon="6.08181">
        <ele>1034.52</ele>
        <time>2013-05-09T16:40:41Z</time>
      </trkpt>
      <trkpt lat="46.67327" lon="6.0818">
        <ele>1034.52</ele>
        <time>2013-05-09T16:40:42Z</time>
      </trkpt>
      <trkpt lat="46.67324" lon="6.08181">
        <ele>1034.52</ele>
        <time>2013-05-09T16:40:43Z</time>
      </trkpt>
      <trkpt lat="46.67322" lon="6.08184">
        <ele>1034.52</ele>
        <time>2013-05-09T16:40:44Z</time>
      </trkpt>
      <trkpt lat="46.6732" lon="6.08187">
        <ele>1034.04</ele>
        <time>2013-05-09T16:40:45Z</time>
      </trkpt>
      <trkpt lat="46.67294" lon="6.08214">
        <ele>1030.67</ele>
        <time>2013-05-09T16:40:53Z</time>
      </trkpt>
      <trkpt lat="46.67278" lon="6.0823">
        <ele>1029.23</ele>
        <time>2013-05-09T16:40:56Z</time>
      </trkpt>
      <trkpt lat="46.67266" lon="6.08242">
        <ele>1029.23</ele>
        <time>2013-05-09T16:40:59Z</time>
      </trkpt>
      <trkpt lat="46.67263" lon="6.08246">
        <ele>1027.79</ele>
        <time>2013-05-09T16:41:00Z</time>
      </trkpt>
      <trkpt lat="46.67259" lon="6.08253">
        <ele>1026.34</ele>
        <time>2013-05-09T16:41:01Z</time>
      </trkpt>
      <trkpt lat="46.67255" lon="6.08261">
        <ele>1025.38</ele>
        <time>2013-05-09T16:41:02Z</time>
      </trkpt>
      <trkpt lat="46.67253" lon="6.0827">
        <ele>1024.9</ele>
        <time>2013-05-09T16:41:03Z</time>
      </trkpt>
      <trkpt lat="46.6725" lon="6.0828">
        <ele>1024.42</ele>
        <time>2013-05-09T16:41:04Z</time>
      </trkpt>
      <trkpt lat="46.67241" lon="6.08318">
        <ele>1021.54</ele>
        <time>2013-05-09T16:41:08Z</time>
      </trkpt>
      <trkpt lat="46.67237" lon="6.08325">
        <ele>1020.1</ele>
        <time>2013-05-09T16:41:09Z</time>
      </trkpt>
      <trkpt lat="46.67234" lon="6.0833">
        <ele>1019.62</ele>
        <time>2013-05-09T16:41:10Z</time>
      </trkpt>
      <trkpt lat="46.67229" lon="6.08332">
        <ele>1019.13</ele>
        <time>2013-05-09T16:41:11Z</time>
      </trkpt>
      <trkpt lat="46.67225" lon="6.08332">
        <ele>1018.65</ele>
        <time>2013-05-09T16:41:12Z</time>
      </trkpt>
      <trkpt lat="46.6722" lon="6.08329">
        <ele>1018.17</ele>
        <time>2013-05-09T16:41:13Z</time>
      </trkpt>
      <trkpt lat="46.67214" lon="6.08325">
        <ele>1017.69</ele>
        <time>2013-05-09T16:41:14Z</time>
      </trkpt>
      <trkpt lat="46.67188" lon="6.08309">
        <ele>1013.85</ele>
        <time>2013-05-09T16:41:18Z</time>
      </trkpt>
      <trkpt lat="46.67175" lon="6.08303">
        <ele>1011.93</ele>
        <time>2013-05-09T16:41:20Z</time>
      </trkpt>
      <trkpt lat="46.67168" lon="6.08303">
        <ele>1011.44</ele>
        <time>2013-05-09T16:41:21Z</time>
      </trkpt>
      <trkpt lat="46.6716" lon="6.08305">
        <ele>1010.48</ele>
        <time>2013-05-09T16:41:22Z</time>
      </trkpt>
      <trkpt lat="46.67153" lon="6.08308">
        <ele>1010</ele>
        <time>2013-05-09T16:41:23Z</time>
      </trkpt>
      <trkpt lat="46.67147" lon="6.0831">
        <ele>1010</ele>
        <time>2013-05-09T16:41:24Z</time>
      </trkpt>
      <trkpt lat="46.67141" lon="6.08312">
        <ele>1010</ele>
        <time>2013-05-09T16:41:25Z</time>
      </trkpt>
      <trkpt lat="46.67136" lon="6.08314">
        <ele>1008.56</ele>
        <time>2013-05-09T16:41:26Z</time>
      </trkpt>
      <trkpt lat="46.67131" lon="6.08319">
        <ele>1007.6</ele>
        <time>2013-05-09T16:41:27Z</time>
      </trkpt>
      <trkpt lat="46.67128" lon="6.08326">
        <ele>1006.64</ele>
        <time>2013-05-09T16:41:28Z</time>
      </trkpt>
      <trkpt lat="46.67127" lon="6.08334">
        <ele>1005.68</ele>
        <time>2013-05-09T16:41:29Z</time>
      </trkpt>
      <trkpt lat="46.67127" lon="6.08342">
        <ele>1005.68</ele>
        <time>2013-05-09T16:41:30Z</time>
      </trkpt>
      <trkpt lat="46.67127" lon="6.0835">
        <ele>1006.16</ele>
        <time>2013-05-09T16:41:31Z</time>
      </trkpt>
      <trkpt lat="46.67127" lon="6.08356">
        <ele>1007.12</ele>
        <time>2013-05-09T16:41:32Z</time>
      </trkpt>
      <trkpt lat="46.67126" lon="6.08362">
        <ele>1007.6</ele>
        <time>2013-05-09T16:41:33Z</time>
      </trkpt>
      <trkpt lat="46.67126" lon="6.08369">
        <ele>1007.6</ele>
        <time>2013-05-09T16:41:34Z</time>
      </trkpt>
      <trkpt lat="46.67125" lon="6.08376">
        <ele>1008.08</ele>
        <time>2013-05-09T16:41:35Z</time>
      </trkpt>
      <trkpt lat="46.67124" lon="6.08383">
        <ele>1008.08</ele>
        <time>2013-05-09T16:41:36Z</time>
      </trkpt>
      <trkpt lat="46.67123" lon="6.08391">
        <ele>1007.6</ele>
        <time>2013-05-09T16:41:37Z</time>
      </trkpt>
      <trkpt lat="46.67122" lon="6.08398">
        <ele>1007.12</ele>
        <time>2013-05-09T16:41:38Z</time>
      </trkpt>
      <trkpt lat="46.67121" lon="6.08406">
        <ele>1006.64</ele>
        <time>2013-05-09T16:41:39Z</time>
      </trkpt>
      <trkpt lat="46.67119" lon="6.08413">
        <ele>1006.64</ele>
        <time>2013-05-09T16:41:40Z</time>
      </trkpt>
      <trkpt lat="46.67117" lon="6.08419">
        <ele>1007.12</ele>
        <time>2013-05-09T16:41:41Z</time>
      </trkpt>
      <trkpt lat="46.67114" lon="6.08425">
        <ele>1007.6</ele>
        <time>2013-05-09T16:41:42Z</time>
      </trkpt>
      <trkpt lat="46.67112" lon="6.0843">
        <ele>1007.6</ele>
        <time>2013-05-09T16:41:43Z</time>
      </trkpt>
      <trkpt lat="46.67111" lon="6.08436">
        <ele>1007.12</ele>
        <time>2013-05-09T16:41:44Z</time>
      </trkpt>
      <trkpt lat="46.6711" lon="6.08443">
        <ele>1007.12</ele>
        <time>2013-05-09T16:41:45Z</time>
      </trkpt>
      <trkpt lat="46.67109" lon="6.0845">
        <ele>1007.12</ele>
        <time>2013-05-09T16:41:46Z</time>
      </trkpt>
      <trkpt lat="46.67108" lon="6.08458">
        <ele>1007.12</ele>
        <time>2013-05-09T16:41:47Z</time>
      </trkpt>
      <trkpt lat="46.67107" lon="6.08466">
        <ele>1006.64</ele>
        <time>2013-05-09T16:41:48Z</time>
      </trkpt>
      <trkpt lat="46.67106" lon="6.0849">
        <ele>1006.64</ele>
        <time>2013-05-09T16:41:51Z</time>
      </trkpt>
      <trkpt lat="46.67107" lon="6.08499">
        <ele>1005.68</ele>
        <time>2013-05-09T16:41:52Z</time>
      </trkpt>
      <trkpt lat="46.67108" lon="6.08508">
        <ele>1004.72</ele>
        <time>2013-05-09T16:41:53Z</time>
      </trkpt>
      <trkpt lat="46.67116" lon="6.08543">
        <ele>1003.75</ele>
        <time>2013-05-09T16:41:57Z</time>
      </trkpt>
      <trkpt lat="46.67117" lon="6.08551">
        <ele>1003.27</ele>
        <time>2013-05-09T16:41:58Z</time>
      </trkpt>
      <trkpt lat="46.67117" lon="6.0856">
        <ele>1003.27</ele>
        <time>2013-05-09T16:41:59Z</time>
      </trkpt>
      <trkpt lat="46.67116" lon="6.08568">
        <ele>1001.83</ele>
        <time>2013-05-09T16:42:00Z</time>
      </trkpt>
      <trkpt lat="46.67115" lon="6.08576">
        <ele>1001.83</ele>
        <time>2013-05-09T16:42:01Z</time>
      </trkpt>
      <trkpt lat="46.67114" lon="6.08585">
        <ele>1001.83</ele>
        <time>2013-05-09T16:42:02Z</time>
      </trkpt>
      <trkpt lat="46.67113" lon="6.08592">
        <ele>1001.83</ele>
        <time>2013-05-09T16:42:03Z</time>
      </trkpt>
      <trkpt lat="46.6711" lon="6.08608">
        <ele>1001.83</ele>
        <time>2013-05-09T16:42:05Z</time>
      </trkpt>
      <trkpt lat="46.67105" lon="6.08661">
        <ele>1000.39</ele>
        <time>2013-05-09T16:42:11Z</time>
      </trkpt>
      <trkpt lat="46.67106" lon="6.08669">
        <ele>1000.39</ele>
        <time>2013-05-09T16:42:12Z</time>
      </trkpt>
      <trkpt lat="46.67107" lon="6.08677">
        <ele>999.91</ele>
        <time>2013-05-09T16:42:13Z</time>
      </trkpt>
      <trkpt lat="46.67109" lon="6.08691">
        <ele>1000.87</ele>
        <time>2013-05-09T16:42:15Z</time>
      </trkpt>
      <trkpt lat="46.6711" lon="6.08699">
        <ele>1000.39</ele>
        <time>2013-05-09T16:42:16Z</time>
      </trkpt>
      <trkpt lat="46.67111" lon="6.08706">
        <ele>998.47</ele>
        <time>2013-05-09T16:42:17Z</time>
      </trkpt>
      <trkpt lat="46.67107" lon="6.08774">
        <ele>995.1</ele>
        <time>2013-05-09T16:42:25Z</time>
      </trkpt>
      <trkpt lat="46.67104" lon="6.08785">
        <ele>994.14</ele>
        <time>2013-05-09T16:42:26Z</time>
      </trkpt>
      <trkpt lat="46.67101" lon="6.08795">
        <ele>993.18</ele>
        <time>2013-05-09T16:42:27Z</time>
      </trkpt>
      <trkpt lat="46.67096" lon="6.08804">
        <ele>993.18</ele>
        <time>2013-05-09T16:42:28Z</time>
      </trkpt>
      <trkpt lat="46.6709" lon="6.08812">
        <ele>992.7</ele>
        <time>2013-05-09T16:42:29Z</time>
      </trkpt>
      <trkpt lat="46.67084" lon="6.08819">
        <ele>991.26</ele>
        <time>2013-05-09T16:42:30Z</time>
      </trkpt>
      <trkpt lat="46.67067" lon="6.0884">
        <ele>988.85</ele>
        <time>2013-05-09T16:42:33Z</time>
      </trkpt>
      <trkpt lat="46.67061" lon="6.08845">
        <ele>988.37</ele>
        <time>2013-05-09T16:42:34Z</time>
      </trkpt>
      <trkpt lat="46.67055" lon="6.08848">
        <ele>987.89</ele>
        <time>2013-05-09T16:42:35Z</time>
      </trkpt>
      <trkpt lat="46.67043" lon="6.08853">
        <ele>986.45</ele>
        <time>2013-05-09T16:42:37Z</time>
      </trkpt>
      <trkpt lat="46.67023" lon="6.08862">
        <ele>982.12</ele>
        <time>2013-05-09T16:42:40Z</time>
      </trkpt>
      <trkpt lat="46.67015" lon="6.08868">
        <ele>980.68</ele>
        <time>2013-05-09T16:42:41Z</time>
      </trkpt>
      <trkpt lat="46.6701" lon="6.08874">
        <ele>980.2</ele>
        <time>2013-05-09T16:42:42Z</time>
      </trkpt>
      <trkpt lat="46.67006" lon="6.08879">
        <ele>980.2</ele>
        <time>2013-05-09T16:42:43Z</time>
      </trkpt>
      <trkpt lat="46.66997" lon="6.08889">
        <ele>978.76</ele>
        <time>2013-05-09T16:42:45Z</time>
      </trkpt>
      <trkpt lat="46.66991" lon="6.08893">
        <ele>977.32</ele>
        <time>2013-05-09T16:42:46Z</time>
      </trkpt>
      <trkpt lat="46.66984" lon="6.08897">
        <ele>975.88</ele>
        <time>2013-05-09T16:42:47Z</time>
      </trkpt>
      <trkpt lat="46.66976" lon="6.089">
        <ele>974.43</ele>
        <time>2013-05-09T16:42:48Z</time>
      </trkpt>
      <trkpt lat="46.66968" lon="6.08903">
        <ele>973.47</ele>
        <time>2013-05-09T16:42:49Z</time>
      </trkpt>
      <trkpt lat="46.66959" lon="6.08907">
        <ele>971.55</ele>
        <time>2013-05-09T16:42:50Z</time>
      </trkpt>
      <trkpt lat="46.66949" lon="6.08912">
        <ele>970.11</ele>
        <time>2013-05-09T16:42:51Z</time>
      </trkpt>
      <trkpt lat="46.66929" lon="6.08924">
        <ele>966.74</ele>
        <time>2013-05-09T16:42:53Z</time>
      </trkpt>
      <trkpt lat="46.66908" lon="6.0894">
        <ele>963.38</ele>
        <time>2013-05-09T16:42:55Z</time>
      </trkpt>
      <trkpt lat="46.66898" lon="6.08946">
        <ele>962.9</ele>
        <time>2013-05-09T16:42:56Z</time>
      </trkpt>
      <trkpt lat="46.66889" lon="6.0895">
        <ele>962.9</ele>
        <time>2013-05-09T16:42:57Z</time>
      </trkpt>
      <trkpt lat="46.66881" lon="6.08951">
        <ele>962.9</ele>
        <time>2013-05-09T16:42:58Z</time>
      </trkpt>
      <trkpt lat="46.66873" lon="6.08947">
        <ele>962.9</ele>
        <time>2013-05-09T16:42:59Z</time>
      </trkpt>
      <trkpt lat="46.66866" lon="6.08939">
        <ele>963.38</ele>
        <time>2013-05-09T16:43:00Z</time>
      </trkpt>
      <trkpt lat="46.66862" lon="6.08929">
        <ele>963.38</ele>
        <time>2013-05-09T16:43:01Z</time>
      </trkpt>
      <trkpt lat="46.66859" lon="6.08919">
        <ele>963.38</ele>
        <time>2013-05-09T16:43:02Z</time>
      </trkpt>
      <trkpt lat="46.66856" lon="6.08908">
        <ele>963.38</ele>
        <time>2013-05-09T16:43:03Z</time>
      </trkpt>
      <trkpt lat="46.66838" lon="6.08841">
        <ele>961.94</ele>
        <time>2013-05-09T16:43:09Z</time>
      </trkpt>
      <trkpt lat="46.66826" lon="6.08801">
        <ele>959.05</ele>
        <time>2013-05-09T16:43:12Z</time>
      </trkpt>
      <trkpt lat="46.66817" lon="6.08772">
        <ele>955.21</ele>
        <time>2013-05-09T16:43:14Z</time>
      </trkpt>
      <trkpt lat="46.66793" lon="6.08715">
        <ele>952.8</ele>
        <time>2013-05-09T16:43:18Z</time>
      </trkpt>
      <trkpt lat="46.66786" lon="6.08702">
        <ele>952.32</ele>
        <time>2013-05-09T16:43:19Z</time>
      </trkpt>
      <trkpt lat="46.66778" lon="6.0869">
        <ele>951.84</ele>
        <time>2013-05-09T16:43:20Z</time>
      </trkpt>
      <trkpt lat="46.6677" lon="6.08679">
        <ele>951.36</ele>
        <time>2013-05-09T16:43:21Z</time>
      </trkpt>
      <trkpt lat="46.66715" lon="6.08599">
        <ele>948.96</ele>
        <time>2013-05-09T16:43:30Z</time>
      </trkpt>
      <trkpt lat="46.66711" lon="6.0859">
        <ele>948.96</ele>
        <time>2013-05-09T16:43:31Z</time>
      </trkpt>
      <trkpt lat="46.66687" lon="6.08509">
        <ele>945.59</ele>
        <time>2013-05-09T16:43:39Z</time>
      </trkpt>
      <trkpt lat="46.66677" lon="6.08473">
        <ele>942.71</ele>
        <time>2013-05-09T16:43:42Z</time>
      </trkpt>
      <trkpt lat="46.66669" lon="6.08435">
        <ele>939.83</ele>
        <time>2013-05-09T16:43:45Z</time>
      </trkpt>
      <trkpt lat="46.66666" lon="6.08422">
        <ele>939.35</ele>
        <time>2013-05-09T16:43:46Z</time>
      </trkpt>
      <trkpt lat="46.66664" lon="6.0841">
        <ele>938.86</ele>
        <time>2013-05-09T16:43:47Z</time>
      </trkpt>
      <trkpt lat="46.6666" lon="6.08398">
        <ele>937.9</ele>
        <time>2013-05-09T16:43:48Z</time>
      </trkpt>
      <trkpt lat="46.66654" lon="6.08388">
        <ele>937.9</ele>
        <time>2013-05-09T16:43:49Z</time>
      </trkpt>
      <trkpt lat="46.66646" lon="6.08382">
        <ele>937.42</ele>
        <time>2013-05-09T16:43:50Z</time>
      </trkpt>
      <trkpt lat="46.66638" lon="6.08378">
        <ele>936.46</ele>
        <time>2013-05-09T16:43:51Z</time>
      </trkpt>
      <trkpt lat="46.66629" lon="6.08377">
        <ele>935.98</ele>
        <time>2013-05-09T16:43:52Z</time>
      </trkpt>
      <trkpt lat="46.6661" lon="6.08374">
        <ele>934.54</ele>
        <time>2013-05-09T16:43:54Z</time>
      </trkpt>
      <trkpt lat="46.6658" lon="6.08364">
        <ele>930.69</ele>
        <time>2013-05-09T16:43:57Z</time>
      </trkpt>
      <trkpt lat="46.6657" lon="6.08361">
        <ele>930.69</ele>
        <time>2013-05-09T16:43:58Z</time>
      </trkpt>
      <trkpt lat="46.66492" lon="6.08344">
        <ele>930.69</ele>
        <time>2013-05-09T16:44:07Z</time>
      </trkpt>
      <trkpt lat="46.66486" lon="6.0834">
        <ele>931.65</ele>
        <time>2013-05-09T16:44:08Z</time>
      </trkpt>
      <trkpt lat="46.66481" lon="6.08334">
        <ele>931.65</ele>
        <time>2013-05-09T16:44:09Z</time>
      </trkpt>
      <trkpt lat="46.66478" lon="6.08326">
        <ele>931.65</ele>
        <time>2013-05-09T16:44:10Z</time>
      </trkpt>
      <trkpt lat="46.66475" lon="6.08317">
        <ele>931.17</ele>
        <time>2013-05-09T16:44:11Z</time>
      </trkpt>
      <trkpt lat="46.66472" lon="6.08308">
        <ele>930.69</ele>
        <time>2013-05-09T16:44:12Z</time>
      </trkpt>
      <trkpt lat="46.66453" lon="6.08256">
        <ele>930.21</ele>
        <time>2013-05-09T16:44:18Z</time>
      </trkpt>
      <trkpt lat="46.66442" lon="6.0823">
        <ele>929.73</ele>
        <time>2013-05-09T16:44:21Z</time>
      </trkpt>
      <trkpt lat="46.66439" lon="6.0822">
        <ele>928.77</ele>
        <time>2013-05-09T16:44:22Z</time>
      </trkpt>
      <trkpt lat="46.66415" lon="6.08124">
        <ele>927.81</ele>
        <time>2013-05-09T16:44:33Z</time>
      </trkpt>
      <trkpt lat="46.66387" lon="6.08037">
        <ele>926.37</ele>
        <time>2013-05-09T16:44:46Z</time>
      </trkpt>
      <trkpt lat="46.66365" lon="6.07967">
        <ele>923</ele>
        <time>2013-05-09T16:44:54Z</time>
      </trkpt>
      <trkpt lat="46.66362" lon="6.07958">
        <ele>923</ele>
        <time>2013-05-09T16:44:55Z</time>
      </trkpt>
      <trkpt lat="46.66357" lon="6.07949">
        <ele>922.04</ele>
        <time>2013-05-09T16:44:56Z</time>
      </trkpt>
      <trkpt lat="46.66341" lon="6.07919">
        <ele>917.72</ele>
        <time>2013-05-09T16:44:59Z</time>
      </trkpt>
      <trkpt lat="46.6633" lon="6.07896">
        <ele>914.35</ele>
        <time>2013-05-09T16:45:01Z</time>
      </trkpt>
      <trkpt lat="46.66317" lon="6.0787">
        <ele>910.99</ele>
        <time>2013-05-09T16:45:03Z</time>
      </trkpt>
      <trkpt lat="46.66306" lon="6.07844">
        <ele>908.1</ele>
        <time>2013-05-09T16:45:05Z</time>
      </trkpt>
      <trkpt lat="46.66297" lon="6.07816">
        <ele>907.14</ele>
        <time>2013-05-09T16:45:07Z</time>
      </trkpt>
      <trkpt lat="46.66285" lon="6.07769">
        <ele>906.18</ele>
        <time>2013-05-09T16:45:11Z</time>
      </trkpt>
      <trkpt lat="46.6628" lon="6.07759">
        <ele>905.7</ele>
        <time>2013-05-09T16:45:12Z</time>
      </trkpt>
      <trkpt lat="46.66263" lon="6.07725">
        <ele>902.33</ele>
        <time>2013-05-09T16:45:15Z</time>
      </trkpt>
      <trkpt lat="46.66241" lon="6.07688">
        <ele>896.09</ele>
        <time>2013-05-09T16:45:18Z</time>
      </trkpt>
      <trkpt lat="46.66233" lon="6.07675">
        <ele>896.09</ele>
        <time>2013-05-09T16:45:19Z</time>
      </trkpt>
      <trkpt lat="46.66217" lon="6.07648">
        <ele>891.76</ele>
        <time>2013-05-09T16:45:21Z</time>
      </trkpt>
      <trkpt lat="46.66201" lon="6.07617">
        <ele>888.4</ele>
        <time>2013-05-09T16:45:23Z</time>
      </trkpt>
      <trkpt lat="46.66173" lon="6.07561">
        <ele>885.03</ele>
        <time>2013-05-09T16:45:27Z</time>
      </trkpt>
      <trkpt lat="46.66167" lon="6.07551">
        <ele>885.03</ele>
        <time>2013-05-09T16:45:28Z</time>
      </trkpt>
      <trkpt lat="46.66161" lon="6.07543">
        <ele>885.03</ele>
        <time>2013-05-09T16:45:29Z</time>
      </trkpt>
      <trkpt lat="46.66153" lon="6.07539">
        <ele>884.55</ele>
        <time>2013-05-09T16:45:30Z</time>
      </trkpt>
      <trkpt lat="46.66145" lon="6.07536">
        <ele>883.59</ele>
        <time>2013-05-09T16:45:31Z</time>
      </trkpt>
      <trkpt lat="46.66136" lon="6.07535">
        <ele>883.11</ele>
        <time>2013-05-09T16:45:32Z</time>
      </trkpt>
      <trkpt lat="46.66129" lon="6.07535">
        <ele>882.63</ele>
        <time>2013-05-09T16:45:33Z</time>
      </trkpt>
      <trkpt lat="46.66122" lon="6.07535">
        <ele>882.15</ele>
        <time>2013-05-09T16:45:34Z</time>
      </trkpt>
      <trkpt lat="46.66116" lon="6.07531">
        <ele>881.67</ele>
        <time>2013-05-09T16:45:35Z</time>
      </trkpt>
      <trkpt lat="46.6611" lon="6.07526">
        <ele>881.67</ele>
        <time>2013-05-09T16:45:36Z</time>
      </trkpt>
      <trkpt lat="46.66105" lon="6.07518">
        <ele>880.71</ele>
        <time>2013-05-09T16:45:37Z</time>
      </trkpt>
      <trkpt lat="46.66101" lon="6.07508">
        <ele>879.74</ele>
        <time>2013-05-09T16:45:38Z</time>
      </trkpt>
      <trkpt lat="46.66098" lon="6.07496">
        <ele>878.78</ele>
        <time>2013-05-09T16:45:39Z</time>
      </trkpt>
      <trkpt lat="46.66095" lon="6.07486">
        <ele>877.82</ele>
        <time>2013-05-09T16:45:40Z</time>
      </trkpt>
      <trkpt lat="46.66089" lon="6.07477">
        <ele>877.34</ele>
        <time>2013-05-09T16:45:41Z</time>
      </trkpt>
      <trkpt lat="46.66082" lon="6.07472">
        <ele>876.38</ele>
        <time>2013-05-09T16:45:42Z</time>
      </trkpt>
      <trkpt lat="46.66073" lon="6.07472">
        <ele>875.9</ele>
        <time>2013-05-09T16:45:43Z</time>
      </trkpt>
      <trkpt lat="46.66065" lon="6.07474">
        <ele>875.42</ele>
        <time>2013-05-09T16:45:44Z</time>
      </trkpt>
      <trkpt lat="46.66057" lon="6.0748">
        <ele>873.5</ele>
        <time>2013-05-09T16:45:45Z</time>
      </trkpt>
      <trkpt lat="46.66049" lon="6.07487">
        <ele>873.01</ele>
        <time>2013-05-09T16:45:46Z</time>
      </trkpt>
      <trkpt lat="46.66042" lon="6.07495">
        <ele>872.53</ele>
        <time>2013-05-09T16:45:47Z</time>
      </trkpt>
      <trkpt lat="46.66028" lon="6.07508">
        <ele>871.57</ele>
        <time>2013-05-09T16:45:49Z</time>
      </trkpt>
      <trkpt lat="46.65997" lon="6.07535">
        <ele>871.09</ele>
        <time>2013-05-09T16:45:55Z</time>
      </trkpt>
      <trkpt lat="46.65994" lon="6.07537">
        <ele>871.57</ele>
        <time>2013-05-09T16:45:56Z</time>
      </trkpt>
      <trkpt lat="46.65957" lon="6.07544">
        <ele>872.05</ele>
        <time>2013-05-09T16:46:07Z</time>
      </trkpt>
      <trkpt lat="46.65916" lon="6.07543">
        <ele>871.57</ele>
        <time>2013-05-09T16:46:18Z</time>
      </trkpt>
      <trkpt lat="46.65912" lon="6.07543">
        <ele>871.57</ele>
        <time>2013-05-09T16:46:19Z</time>
      </trkpt>
      <trkpt lat="46.65908" lon="6.07543">
        <ele>872.05</ele>
        <time>2013-05-09T16:46:20Z</time>
      </trkpt>
      <trkpt lat="46.65868" lon="6.07539">
        <ele>872.53</ele>
        <time>2013-05-09T16:46:31Z</time>
      </trkpt>
      <trkpt lat="46.65867" lon="6.07541">
        <ele>873.01</ele>
        <time>2013-05-09T16:46:32Z</time>
      </trkpt>
      <trkpt lat="46.65867" lon="6.07544">
        <ele>873.01</ele>
        <time>2013-05-09T16:46:33Z</time>
      </trkpt>
      <trkpt lat="46.65868" lon="6.07544">
        <ele>872.53</ele>
        <time>2013-05-09T16:46:34Z</time>
      </trkpt>
      <trkpt lat="46.6587" lon="6.07543">
        <ele>872.53</ele>
        <time>2013-05-09T16:46:35Z</time>
      </trkpt>
      <trkpt lat="46.65873" lon="6.07539">
        <ele>872.53</ele>
        <time>2013-05-09T16:46:36Z</time>
      </trkpt>
      <trkpt lat="46.65875" lon="6.07535">
        <ele>872.05</ele>
        <time>2013-05-09T16:46:37Z</time>
      </trkpt>
      <trkpt lat="46.65876" lon="6.0753">
        <ele>872.05</ele>
        <time>2013-05-09T16:46:38Z</time>
      </trkpt>
      <trkpt lat="46.6589" lon="6.07493">
        <ele>871.09</ele>
        <time>2013-05-09T16:46:46Z</time>
      </trkpt>
      <trkpt lat="46.65889" lon="6.07488">
        <ele>871.09</ele>
        <time>2013-05-09T16:46:47Z</time>
      </trkpt>
      <trkpt lat="46.65887" lon="6.07483">
        <ele>870.61</ele>
        <time>2013-05-09T16:46:48Z</time>
      </trkpt>
      <trkpt lat="46.65862" lon="6.07407">
        <ele>870.13</ele>
        <time>2013-05-09T16:47:04Z</time>
      </trkpt>
      <trkpt lat="46.65857" lon="6.07395">
        <ele>870.61</ele>
        <time>2013-05-09T16:47:15Z</time>
      </trkpt>
      <trkpt lat="46.65857" lon="6.07395">
        <ele>870.61</ele>
        <time>2013-05-09T16:47:43Z</time>
      </trkpt>
      <trkpt lat="46.65858" lon="6.07395">
        <ele>870.61</ele>
        <time>2013-05-09T16:48:06Z</time>
      </trkpt>
      <trkpt lat="46.65859" lon="6.07396">
        <ele>870.61</ele>
        <time>2013-05-09T16:48:09Z</time>
      </trkpt>
      <trkpt lat="46.65861" lon="6.07398">
        <ele>870.61</ele>
        <time>2013-05-09T16:48:10Z</time>
      </trkpt>
      <trkpt lat="46.65862" lon="6.074">
        <ele>870.13</ele>
        <time>2013-05-09T16:48:11Z</time>
      </trkpt>
      <trkpt lat="46.65863" lon="6.07404">
        <ele>870.13</ele>
        <time>2013-05-09T16:48:12Z</time>
      </trkpt>
      <trkpt lat="46.65863" lon="6.07407">
        <ele>870.13</ele>
        <time>2013-05-09T16:48:13Z</time>
      </trkpt>
      <trkpt lat="46.65864" lon="6.07411">
        <ele>870.13</ele>
        <time>2013-05-09T16:48:14Z</time>
      </trkpt>
      <trkpt lat="46.65874" lon="6.07455">
        <ele>870.61</ele>
        <time>2013-05-09T16:48:25Z</time>
      </trkpt>
      <trkpt lat="46.65886" lon="6.07501">
        <ele>871.57</ele>
        <time>2013-05-09T16:48:36Z</time>
      </trkpt>
      <trkpt lat="46.65885" lon="6.07505">
        <ele>871.09</ele>
        <time>2013-05-09T16:48:37Z</time>
      </trkpt>
      <trkpt lat="46.65883" lon="6.07509">
        <ele>871.57</ele>
        <time>2013-05-09T16:48:38Z</time>
      </trkpt>
      <trkpt lat="46.65882" lon="6.07512">
        <ele>871.57</ele>
        <time>2013-05-09T16:48:39Z</time>
      </trkpt>
      <trkpt lat="46.65881" lon="6.07516">
        <ele>871.57</ele>
        <time>2013-05-09T16:48:40Z</time>
      </trkpt>
      <trkpt lat="46.65879" lon="6.07519">
        <ele>872.05</ele>
        <time>2013-05-09T16:48:41Z</time>
      </trkpt>
      <trkpt lat="46.65869" lon="6.07539">
        <ele>872.53</ele>
        <time>2013-05-09T16:48:47Z</time>
      </trkpt>
      <trkpt lat="46.65866" lon="6.0754">
        <ele>872.53</ele>
        <time>2013-05-09T16:48:48Z</time>
      </trkpt>
      <trkpt lat="46.65864" lon="6.07539">
        <ele>873.01</ele>
        <time>2013-05-09T16:48:49Z</time>
      </trkpt>
      <trkpt lat="46.65861" lon="6.07537">
        <ele>873.01</ele>
        <time>2013-05-09T16:48:50Z</time>
      </trkpt>
      <trkpt lat="46.65859" lon="6.07534">
        <ele>873.01</ele>
        <time>2013-05-09T16:48:51Z</time>
      </trkpt>
      <trkpt lat="46.65857" lon="6.07532">
        <ele>873.01</ele>
        <time>2013-05-09T16:48:52Z</time>
      </trkpt>
      <trkpt lat="46.65827" lon="6.07501">
        <ele>875.42</ele>
        <time>2013-05-09T16:49:05Z</time>
      </trkpt>
      <trkpt lat="46.65796" lon="6.07479">
        <ele>877.82</ele>
        <time>2013-05-09T16:49:20Z</time>
      </trkpt>
      <trkpt lat="46.65787" lon="6.07476">
        <ele>878.78</ele>
        <time>2013-05-09T16:49:24Z</time>
      </trkpt>
      <trkpt lat="46.65785" lon="6.07475">
        <ele>878.78</ele>
        <time>2013-05-09T16:49:25Z</time>
      </trkpt>
      <trkpt lat="46.65782" lon="6.07474">
        <ele>878.78</ele>
        <time>2013-05-09T16:49:26Z</time>
      </trkpt>
      <trkpt lat="46.65751" lon="6.07478">
        <ele>880.71</ele>
        <time>2013-05-09T16:49:38Z</time>
      </trkpt>
      <trkpt lat="46.65724" lon="6.07515">
        <ele>881.67</ele>
        <time>2013-05-09T16:49:51Z</time>
      </trkpt>
      <trkpt lat="46.65718" lon="6.07572">
        <ele>884.07</ele>
        <time>2013-05-09T16:50:06Z</time>
      </trkpt>
      <trkpt lat="46.65739" lon="6.07633">
        <ele>886.47</ele>
        <time>2013-05-09T16:50:23Z</time>
      </trkpt>
      <trkpt lat="46.65761" lon="6.07693">
        <ele>889.36</ele>
        <time>2013-05-09T16:50:41Z</time>
      </trkpt>
      <trkpt lat="46.65773" lon="6.07753">
        <ele>892.24</ele>
        <time>2013-05-09T16:50:58Z</time>
      </trkpt>
      <trkpt lat="46.65781" lon="6.07814">
        <ele>895.12</ele>
        <time>2013-05-09T16:51:14Z</time>
      </trkpt>
      <trkpt lat="46.65778" lon="6.07857">
        <ele>897.05</ele>
        <time>2013-05-09T16:51:26Z</time>
      </trkpt>
      <trkpt lat="46.65767" lon="6.07909">
        <ele>899.45</ele>
        <time>2013-05-09T16:51:40Z</time>
      </trkpt>
      <trkpt lat="46.65737" lon="6.07912">
        <ele>902.33</ele>
        <time>2013-05-09T16:51:52Z</time>
      </trkpt>
      <trkpt lat="46.65695" lon="6.07906">
        <ele>905.22</ele>
        <time>2013-05-09T16:52:07Z</time>
      </trkpt>
      <trkpt lat="46.65661" lon="6.0792">
        <ele>907.62</ele>
        <time>2013-05-09T16:52:20Z</time>
      </trkpt>
      <trkpt lat="46.65634" lon="6.07942">
        <ele>910.99</ele>
        <time>2013-05-09T16:52:32Z</time>
      </trkpt>
      <trkpt lat="46.656" lon="6.07935">
        <ele>913.39</ele>
        <time>2013-05-09T16:52:45Z</time>
      </trkpt>
      <trkpt lat="46.65559" lon="6.079">
        <ele>916.75</ele>
        <time>2013-05-09T16:53:02Z</time>
      </trkpt>
      <trkpt lat="46.65535" lon="6.07867">
        <ele>919.64</ele>
        <time>2013-05-09T16:53:15Z</time>
      </trkpt>
      <trkpt lat="46.65506" lon="6.07829">
        <ele>922.04</ele>
        <time>2013-05-09T16:53:30Z</time>
      </trkpt>
      <trkpt lat="46.65474" lon="6.0779">
        <ele>924.93</ele>
        <time>2013-05-09T16:53:46Z</time>
      </trkpt>
      <trkpt lat="46.65444" lon="6.07749">
        <ele>928.29</ele>
        <time>2013-05-09T16:54:00Z</time>
      </trkpt>
      <trkpt lat="46.65419" lon="6.07714">
        <ele>930.21</ele>
        <time>2013-05-09T16:54:15Z</time>
      </trkpt>
      <trkpt lat="46.65396" lon="6.07682">
        <ele>931.65</ele>
        <time>2013-05-09T16:54:29Z</time>
      </trkpt>
      <trkpt lat="46.65368" lon="6.07645">
        <ele>934.06</ele>
        <time>2013-05-09T16:54:44Z</time>
      </trkpt>
      <trkpt lat="46.6534" lon="6.07608">
        <ele>937.42</ele>
        <time>2013-05-09T16:54:58Z</time>
      </trkpt>
      <trkpt lat="46.6531" lon="6.07565">
        <ele>939.83</ele>
        <time>2013-05-09T16:55:13Z</time>
      </trkpt>
      <trkpt lat="46.65277" lon="6.0752">
        <ele>941.75</ele>
        <time>2013-05-09T16:55:29Z</time>
      </trkpt>
      <trkpt lat="46.65242" lon="6.0747">
        <ele>944.15</ele>
        <time>2013-05-09T16:55:45Z</time>
      </trkpt>
      <trkpt lat="46.65205" lon="6.07403">
        <ele>947.04</ele>
        <time>2013-05-09T16:56:04Z</time>
      </trkpt>
      <trkpt lat="46.65175" lon="6.07337">
        <ele>950.4</ele>
        <time>2013-05-09T16:56:21Z</time>
      </trkpt>
      <trkpt lat="46.65141" lon="6.07293">
        <ele>952.32</ele>
        <time>2013-05-09T16:56:35Z</time>
      </trkpt>
      <trkpt lat="46.65113" lon="6.07307">
        <ele>954.25</ele>
        <time>2013-05-09T16:56:45Z</time>
      </trkpt>
      <trkpt lat="46.65106" lon="6.07361">
        <ele>957.13</ele>
        <time>2013-05-09T16:56:57Z</time>
      </trkpt>
      <trkpt lat="46.65099" lon="6.07433">
        <ele>958.09</ele>
        <time>2013-05-09T16:57:11Z</time>
      </trkpt>
      <trkpt lat="46.65089" lon="6.07523">
        <ele>960.98</ele>
        <time>2013-05-09T16:57:29Z</time>
      </trkpt>
      <trkpt lat="46.65074" lon="6.07566">
        <ele>963.86</ele>
        <time>2013-05-09T16:57:41Z</time>
      </trkpt>
      <trkpt lat="46.65066" lon="6.07601">
        <ele>967.22</ele>
        <time>2013-05-09T16:57:52Z</time>
      </trkpt>
      <trkpt lat="46.65064" lon="6.0765">
        <ele>970.11</ele>
        <time>2013-05-09T16:58:07Z</time>
      </trkpt>
      <trkpt lat="46.65069" lon="6.07698">
        <ele>972.99</ele>
        <time>2013-05-09T16:58:21Z</time>
      </trkpt>
      <trkpt lat="46.65076" lon="6.07747">
        <ele>975.88</ele>
        <time>2013-05-09T16:58:36Z</time>
      </trkpt>
      <trkpt lat="46.6508" lon="6.07793">
        <ele>978.28</ele>
        <time>2013-05-09T16:58:49Z</time>
      </trkpt>
      <trkpt lat="46.6507" lon="6.07813">
        <ele>980.2</ele>
        <time>2013-05-09T16:58:56Z</time>
      </trkpt>
      <trkpt lat="46.65067" lon="6.07813">
        <ele>980.2</ele>
        <time>2013-05-09T16:58:57Z</time>
      </trkpt>
      <trkpt lat="46.65065" lon="6.07813">
        <ele>980.68</ele>
        <time>2013-05-09T16:58:58Z</time>
      </trkpt>
      <trkpt lat="46.6504" lon="6.07788">
        <ele>982.6</ele>
        <time>2013-05-09T16:59:11Z</time>
      </trkpt>
      <trkpt lat="46.65019" lon="6.07744">
        <ele>983.09</ele>
        <time>2013-05-09T16:59:23Z</time>
      </trkpt>
      <trkpt lat="46.64985" lon="6.07689">
        <ele>985.49</ele>
        <time>2013-05-09T16:59:38Z</time>
      </trkpt>
      <trkpt lat="46.64934" lon="6.07661">
        <ele>988.37</ele>
        <time>2013-05-09T16:59:54Z</time>
      </trkpt>
      <trkpt lat="46.64894" lon="6.07627">
        <ele>991.26</ele>
        <time>2013-05-09T17:00:07Z</time>
      </trkpt>
      <trkpt lat="46.64866" lon="6.07566">
        <ele>993.18</ele>
        <time>2013-05-09T17:00:20Z</time>
      </trkpt>
      <trkpt lat="46.64857" lon="6.07527">
        <ele>994.14</ele>
        <time>2013-05-09T17:00:28Z</time>
      </trkpt>
      <trkpt lat="46.64858" lon="6.07523">
        <ele>994.14</ele>
        <time>2013-05-09T17:00:29Z</time>
      </trkpt>
      <trkpt lat="46.6486" lon="6.07519">
        <ele>994.14</ele>
        <time>2013-05-09T17:00:30Z</time>
      </trkpt>
      <trkpt lat="46.64866" lon="6.07512">
        <ele>993.66</ele>
        <time>2013-05-09T17:00:32Z</time>
      </trkpt>
      <trkpt lat="46.64868" lon="6.07507">
        <ele>993.66</ele>
        <time>2013-05-09T17:00:33Z</time>
      </trkpt>
      <trkpt lat="46.64871" lon="6.07501">
        <ele>993.18</ele>
        <time>2013-05-09T17:00:34Z</time>
      </trkpt>
      <trkpt lat="46.64872" lon="6.07495">
        <ele>992.7</ele>
        <time>2013-05-09T17:00:35Z</time>
      </trkpt>
      <trkpt lat="46.64871" lon="6.07488">
        <ele>992.22</ele>
        <time>2013-05-09T17:00:36Z</time>
      </trkpt>
      <trkpt lat="46.64869" lon="6.07481">
        <ele>992.22</ele>
        <time>2013-05-09T17:00:37Z</time>
      </trkpt>
      <trkpt lat="46.64866" lon="6.07475">
        <ele>992.22</ele>
        <time>2013-05-09T17:00:38Z</time>
      </trkpt>
      <trkpt lat="46.64864" lon="6.07469">
        <ele>992.22</ele>
        <time>2013-05-09T17:00:39Z</time>
      </trkpt>
      <trkpt lat="46.64863" lon="6.07464">
        <ele>992.7</ele>
        <time>2013-05-09T17:00:40Z</time>
      </trkpt>
      <trkpt lat="46.64863" lon="6.07458">
        <ele>992.22</ele>
        <time>2013-05-09T17:00:41Z</time>
      </trkpt>
      <trkpt lat="46.64859" lon="6.07443">
        <ele>992.7</ele>
        <time>2013-05-09T17:00:44Z</time>
      </trkpt>
      <trkpt lat="46.64857" lon="6.07442">
        <ele>992.7</ele>
        <time>2013-05-09T17:00:45Z</time>
      </trkpt>
      <trkpt lat="46.64855" lon="6.07443">
        <ele>994.14</ele>
        <time>2013-05-09T17:00:56Z</time>
      </trkpt>
      <trkpt lat="46.64854" lon="6.07443">
        <ele>994.14</ele>
        <time>2013-05-09T17:01:23Z</time>
      </trkpt>
      <trkpt lat="46.64854" lon="6.07443">
        <ele>994.14</ele>
        <time>2013-05-09T17:01:46Z</time>
      </trkpt>
      <trkpt lat="46.64854" lon="6.07443">
        <ele>994.14</ele>
        <time>2013-05-09T17:02:08Z</time>
      </trkpt>
      <trkpt lat="46.64855" lon="6.07445">
        <ele>994.14</ele>
        <time>2013-05-09T17:02:23Z</time>
      </trkpt>
      <trkpt lat="46.64855" lon="6.07445">
        <ele>993.66</ele>
        <time>2013-05-09T17:03:00Z</time>
      </trkpt>
      <trkpt lat="46.64855" lon="6.07445">
        <ele>993.66</ele>
        <time>2013-05-09T17:03:30Z</time>
      </trkpt>
      <trkpt lat="46.64855" lon="6.07446">
        <ele>993.66</ele>
        <time>2013-05-09T17:04:04Z</time>
      </trkpt>
      <trkpt lat="46.64855" lon="6.07446">
        <ele>993.66</ele>
        <time>2013-05-09T17:04:34Z</time>
      </trkpt>
      <trkpt lat="46.64855" lon="6.07446">
        <ele>994.14</ele>
        <time>2013-05-09T17:05:04Z</time>
      </trkpt>
      <trkpt lat="46.64855" lon="6.07446">
        <ele>994.14</ele>
        <time>2013-05-09T17:05:35Z</time>
      </trkpt>
      <trkpt lat="46.64855" lon="6.07446">
        <ele>994.14</ele>
        <time>2013-05-09T17:06:08Z</time>
      </trkpt>
      <trkpt lat="46.64855" lon="6.07447">
        <ele>993.66</ele>
        <time>2013-05-09T17:06:38Z</time>
      </trkpt>
      <trkpt lat="46.64855" lon="6.07447">
        <ele>993.66</ele>
        <time>2013-05-09T17:07:13Z</time>
      </trkpt>
      <trkpt lat="46.64855" lon="6.07447">
        <ele>993.66</ele>
        <time>2013-05-09T17:07:42Z</time>
      </trkpt>
      <trkpt lat="46.64855" lon="6.07447">
        <ele>993.18</ele>
        <time>2013-05-09T17:08:23Z</time>
      </trkpt>
      <trkpt lat="46.64855" lon="6.07447">
        <ele>993.18</ele>
        <time>2013-05-09T17:08:59Z</time>
      </trkpt>
      <trkpt lat="46.64855" lon="6.07447">
        <ele>993.66</ele>
        <time>2013-05-09T17:09:29Z</time>
      </trkpt>
      <trkpt lat="46.64855" lon="6.07447">
        <ele>993.66</ele>
        <time>2013-05-09T17:09:30Z</time>
      </trkpt>
      <trkpt lat="46.64855" lon="6.07446">
        <ele>994.14</ele>
        <time>2013-05-09T17:09:52Z</time>
      </trkpt>
      <trkpt lat="46.64853" lon="6.07445">
        <ele>994.14</ele>
        <time>2013-05-09T17:10:10Z</time>
      </trkpt>
      <trkpt lat="46.64853" lon="6.07445">
        <ele>994.62</ele>
        <time>2013-05-09T17:10:33Z</time>
      </trkpt>
      <trkpt lat="46.64854" lon="6.07445">
        <ele>994.14</ele>
        <time>2013-05-09T17:11:07Z</time>
      </trkpt>
      <trkpt lat="46.64852" lon="6.07444">
        <ele>994.14</ele>
        <time>2013-05-09T17:11:29Z</time>
      </trkpt>
      <trkpt lat="46.64852" lon="6.07444">
        <ele>994.14</ele>
        <time>2013-05-09T17:12:02Z</time>
      </trkpt>
      <trkpt lat="46.64852" lon="6.07448">
        <ele>992.7</ele>
        <time>2013-05-09T17:12:22Z</time>
      </trkpt>
      <trkpt lat="46.64852" lon="6.07448">
        <ele>992.22</ele>
        <time>2013-05-09T17:12:23Z</time>
      </trkpt>
    </trkseg>
  </trk>
</gpx>